<?xml version='1.0' encoding='UTF-8'?><gpx version="1.1" creator="JPX - https://github.com/jenetics/jpx" xmlns="http://www.topografix.com/GPX/1/1"><trk><trkseg><trkpt lat="38.0013951" lon="-1.1484027"><ele>43.0</ele><time>2026-04-25T06:45:08.945Z</time></trkpt><trkpt lat="38.0016179" lon="-1.1484509"><ele>43.0</ele><time>2026-04-25T06:45:21.06Z</time></trkpt><trkpt lat="38.0017049" lon="-1.1484922"><ele>43.0</ele><time>2026-04-25T06:45:23.058Z</time></trkpt><trkpt lat="38.0017428" lon="-1.1485792"><ele>43.0</ele><time>2026-04-25T06:45:25.985Z</time></trkpt><trkpt lat="38.0018144" lon="-1.1486483"><ele>43.2</ele><time>2026-04-25T06:45:28.94Z</time></trkpt><trkpt lat="38.0018809" lon="-1.1486709"><ele>43.4</ele><time>2026-04-25T06:45:32.059Z</time></trkpt><trkpt lat="38.0019041" lon="-1.1487607"><ele>43.6</ele><time>2026-04-25T06:45:35.065Z</time></trkpt><trkpt lat="38.0018336" lon="-1.1487613"><ele>43.800000000000004</ele><time>2026-04-25T06:45:36.067Z</time></trkpt><trkpt lat="38.0018913" lon="-1.1485817"><ele>44.0</ele><time>2026-04-25T06:45:48.06Z</time></trkpt><trkpt lat="38.0019662" lon="-1.1484222"><ele>44.0</ele><time>2026-04-25T06:45:49.06Z</time></trkpt><trkpt lat="38.0020229" lon="-1.1483299"><ele>44.0</ele><time>2026-04-25T06:45:50.058Z</time></trkpt><trkpt lat="38.0020793" lon="-1.1482583"><ele>44.0</ele><time>2026-04-25T06:45:51.059Z</time></trkpt><trkpt lat="38.0021333" lon="-1.1481901"><ele>44.0</ele><time>2026-04-25T06:45:52.059Z</time></trkpt><trkpt lat="38.0021759" lon="-1.1481291"><ele>44.0</ele><time>2026-04-25T06:45:53.07Z</time></trkpt><trkpt lat="38.0022483" lon="-1.14801"><ele>44.0</ele><time>2026-04-25T06:45:55.058Z</time></trkpt><trkpt lat="38.0022883" lon="-1.1479133"><ele>43.83333333333333</ele><time>2026-04-25T06:45:57.061Z</time></trkpt><trkpt lat="38.0023333" lon="-1.1478183"><ele>43.666666666666664</ele><time>2026-04-25T06:46:00.063Z</time></trkpt><trkpt lat="38.0023733" lon="-1.1477467"><ele>43.5</ele><time>2026-04-25T06:46:05.062Z</time></trkpt><trkpt lat="38.002395" lon="-1.1476333"><ele>43.333333333333336</ele><time>2026-04-25T06:46:47.06Z</time></trkpt><trkpt lat="38.0024533" lon="-1.147535"><ele>43.16666666666667</ele><time>2026-04-25T06:48:27.06Z</time></trkpt><trkpt lat="38.002445" lon="-1.1476183"><ele>43.0</ele><time>2026-04-25T06:50:37.072Z</time></trkpt><trkpt lat="38.00251" lon="-1.1476033"><ele>43.0</ele><time>2026-04-25T06:50:40.06Z</time></trkpt><trkpt lat="38.0025983" lon="-1.1476717"><ele>43.0</ele><time>2026-04-25T06:51:08.065Z</time></trkpt><trkpt lat="38.002685" lon="-1.1477283"><ele>43.0</ele><time>2026-04-25T06:51:15.057Z</time></trkpt><trkpt lat="38.002635" lon="-1.1478133"><ele>43.0</ele><time>2026-04-25T06:51:18.065Z</time></trkpt><trkpt lat="38.0025567" lon="-1.14792"><ele>43.0</ele><time>2026-04-25T06:51:28.059Z</time></trkpt><trkpt lat="38.0024933" lon="-1.1480283"><ele>43.0</ele><time>2026-04-25T06:51:30.063Z</time></trkpt><trkpt lat="38.0024483" lon="-1.1480983"><ele>43.0</ele><time>2026-04-25T06:51:31.065Z</time></trkpt><trkpt lat="38.0023983" lon="-1.148175"><ele>43.0</ele><time>2026-04-25T06:51:32.065Z</time></trkpt><trkpt lat="38.002345" lon="-1.1482617"><ele>43.0</ele><time>2026-04-25T06:51:33.065Z</time></trkpt><trkpt lat="38.0022883" lon="-1.1483517"><ele>43.0</ele><time>2026-04-25T06:51:34.058Z</time></trkpt><trkpt lat="38.00223" lon="-1.148445"><ele>43.0</ele><time>2026-04-25T06:51:35.06Z</time></trkpt><trkpt lat="38.0021667" lon="-1.1485383"><ele>43.2</ele><time>2026-04-25T06:51:36.063Z</time></trkpt><trkpt lat="38.0021017" lon="-1.14863"><ele>43.4</ele><time>2026-04-25T06:51:37.059Z</time></trkpt><trkpt lat="38.0020317" lon="-1.14873"><ele>43.6</ele><time>2026-04-25T06:51:38.063Z</time></trkpt><trkpt lat="38.00196" lon="-1.1488367"><ele>43.800000000000004</ele><time>2026-04-25T06:51:39.064Z</time></trkpt><trkpt lat="38.0018817" lon="-1.1489483"><ele>44.0</ele><time>2026-04-25T06:51:40.063Z</time></trkpt><trkpt lat="38.0017983" lon="-1.14907"><ele>44.0</ele><time>2026-04-25T06:51:41.062Z</time></trkpt><trkpt lat="38.0017117" lon="-1.1491983"><ele>44.0</ele><time>2026-04-25T06:51:42.061Z</time></trkpt><trkpt lat="38.0016217" lon="-1.1493317"><ele>44.0</ele><time>2026-04-25T06:51:43.06Z</time></trkpt><trkpt lat="38.0015317" lon="-1.1494683"><ele>44.0</ele><time>2026-04-25T06:51:44.062Z</time></trkpt><trkpt lat="38.00144" lon="-1.14961"><ele>44.0</ele><time>2026-04-25T06:51:45.061Z</time></trkpt><trkpt lat="38.0013467" lon="-1.1497683"><ele>44.0</ele><time>2026-04-25T06:51:46.063Z</time></trkpt><trkpt lat="38.001255" lon="-1.1499317"><ele>44.0</ele><time>2026-04-25T06:51:47.06Z</time></trkpt><trkpt lat="38.00116" lon="-1.1500983"><ele>44.0</ele><time>2026-04-25T06:51:48.058Z</time></trkpt><trkpt lat="38.001065" lon="-1.150265"><ele>44.0</ele><time>2026-04-25T06:51:49.06Z</time></trkpt><trkpt lat="38.00098" lon="-1.1504267"><ele>44.0</ele><time>2026-04-25T06:51:50.062Z</time></trkpt><trkpt lat="38.0008983" lon="-1.1506"><ele>44.33333333333333</ele><time>2026-04-25T06:51:51.064Z</time></trkpt><trkpt lat="38.0008283" lon="-1.15078"><ele>44.666666666666664</ele><time>2026-04-25T06:51:52.065Z</time></trkpt><trkpt lat="38.0007733" lon="-1.15097"><ele>45.0</ele><time>2026-04-25T06:51:53.061Z</time></trkpt><trkpt lat="38.000735" lon="-1.1511733"><ele>45.0</ele><time>2026-04-25T06:51:54.062Z</time></trkpt><trkpt lat="38.0007083" lon="-1.15138"><ele>45.0</ele><time>2026-04-25T06:51:55.061Z</time></trkpt><trkpt lat="38.0006883" lon="-1.15159"><ele>45.0</ele><time>2026-04-25T06:51:56.061Z</time></trkpt><trkpt lat="38.0006733" lon="-1.1517983"><ele>45.333333333333336</ele><time>2026-04-25T06:51:57.06Z</time></trkpt><trkpt lat="38.00066" lon="-1.1520067"><ele>45.66666666666667</ele><time>2026-04-25T06:51:58.059Z</time></trkpt><trkpt lat="38.0006483" lon="-1.1522133"><ele>46.0</ele><time>2026-04-25T06:51:59.058Z</time></trkpt><trkpt lat="38.0006383" lon="-1.15242"><ele>46.0</ele><time>2026-04-25T06:52:00.062Z</time></trkpt><trkpt lat="38.0006267" lon="-1.1526233"><ele>46.0</ele><time>2026-04-25T06:52:01.061Z</time></trkpt><trkpt lat="38.00061" lon="-1.152825"><ele>46.0</ele><time>2026-04-25T06:52:02.064Z</time></trkpt><trkpt lat="38.0005883" lon="-1.153025"><ele>46.0</ele><time>2026-04-25T06:52:03.06Z</time></trkpt><trkpt lat="38.0005567" lon="-1.1532267"><ele>46.0</ele><time>2026-04-25T06:52:04.061Z</time></trkpt><trkpt lat="38.000515" lon="-1.1534267"><ele>46.0</ele><time>2026-04-25T06:52:05.067Z</time></trkpt><trkpt lat="38.0004683" lon="-1.15362"><ele>46.0</ele><time>2026-04-25T06:52:06.063Z</time></trkpt><trkpt lat="38.0004233" lon="-1.153815"><ele>46.0</ele><time>2026-04-25T06:52:07.057Z</time></trkpt><trkpt lat="38.0003833" lon="-1.154015"><ele>46.0</ele><time>2026-04-25T06:52:08.064Z</time></trkpt><trkpt lat="38.0003533" lon="-1.154215"><ele>45.66666666666667</ele><time>2026-04-25T06:52:09.064Z</time></trkpt><trkpt lat="38.0003367" lon="-1.15442"><ele>45.333333333333336</ele><time>2026-04-25T06:52:10.058Z</time></trkpt><trkpt lat="38.0003367" lon="-1.1546283"><ele>45.0</ele><time>2026-04-25T06:52:11.061Z</time></trkpt><trkpt lat="38.000355" lon="-1.1548383"><ele>44.666666666666664</ele><time>2026-04-25T06:52:12.06Z</time></trkpt><trkpt lat="38.0003883" lon="-1.1550417"><ele>44.33333333333333</ele><time>2026-04-25T06:52:13.064Z</time></trkpt><trkpt lat="38.0004417" lon="-1.1552367"><ele>44.0</ele><time>2026-04-25T06:52:14.059Z</time></trkpt><trkpt lat="38.0005117" lon="-1.155425"><ele>44.0</ele><time>2026-04-25T06:52:15.06Z</time></trkpt><trkpt lat="38.0005817" lon="-1.1556167"><ele>44.0</ele><time>2026-04-25T06:52:16.058Z</time></trkpt><trkpt lat="38.0006517" lon="-1.1558133"><ele>44.0</ele><time>2026-04-25T06:52:17.057Z</time></trkpt><trkpt lat="38.0007183" lon="-1.1560167"><ele>44.33333333333333</ele><time>2026-04-25T06:52:18.061Z</time></trkpt><trkpt lat="38.0007817" lon="-1.1562267"><ele>44.666666666666664</ele><time>2026-04-25T06:52:19.067Z</time></trkpt><trkpt lat="38.0008433" lon="-1.1564417"><ele>45.0</ele><time>2026-04-25T06:52:20.061Z</time></trkpt><trkpt lat="38.0009017" lon="-1.1566617"><ele>45.0</ele><time>2026-04-25T06:52:21.061Z</time></trkpt><trkpt lat="38.0009617" lon="-1.1568833"><ele>45.0</ele><time>2026-04-25T06:52:22.061Z</time></trkpt><trkpt lat="38.0010183" lon="-1.15711"><ele>45.0</ele><time>2026-04-25T06:52:23.059Z</time></trkpt><trkpt lat="38.001075" lon="-1.1573367"><ele>45.333333333333336</ele><time>2026-04-25T06:52:24.061Z</time></trkpt><trkpt lat="38.0011317" lon="-1.157565"><ele>45.66666666666667</ele><time>2026-04-25T06:52:25.063Z</time></trkpt><trkpt lat="38.0011883" lon="-1.1577983"><ele>46.0</ele><time>2026-04-25T06:52:26.06Z</time></trkpt><trkpt lat="38.0012433" lon="-1.1580283"><ele>46.66666666666667</ele><time>2026-04-25T06:52:27.06Z</time></trkpt><trkpt lat="38.0012967" lon="-1.1582583"><ele>47.333333333333336</ele><time>2026-04-25T06:52:28.063Z</time></trkpt><trkpt lat="38.0013533" lon="-1.1584867"><ele>48.0</ele><time>2026-04-25T06:52:29.067Z</time></trkpt><trkpt lat="38.0014083" lon="-1.1587167"><ele>48.0</ele><time>2026-04-25T06:52:30.062Z</time></trkpt><trkpt lat="38.001465" lon="-1.1589483"><ele>48.0</ele><time>2026-04-25T06:52:31.06Z</time></trkpt><trkpt lat="38.0015217" lon="-1.1591783"><ele>48.0</ele><time>2026-04-25T06:52:32.061Z</time></trkpt><trkpt lat="38.0015783" lon="-1.1594033"><ele>48.0</ele><time>2026-04-25T06:52:33.063Z</time></trkpt><trkpt lat="38.001635" lon="-1.159625"><ele>48.0</ele><time>2026-04-25T06:52:34.064Z</time></trkpt><trkpt lat="38.001695" lon="-1.1598483"><ele>48.0</ele><time>2026-04-25T06:52:35.065Z</time></trkpt><trkpt lat="38.0017533" lon="-1.1600683"><ele>48.0</ele><time>2026-04-25T06:52:36.066Z</time></trkpt><trkpt lat="38.001815" lon="-1.1602833"><ele>48.0</ele><time>2026-04-25T06:52:37.062Z</time></trkpt><trkpt lat="38.001875" lon="-1.1604967"><ele>48.0</ele><time>2026-04-25T06:52:38.069Z</time></trkpt><trkpt lat="38.00194" lon="-1.160705"><ele>48.0</ele><time>2026-04-25T06:52:39.059Z</time></trkpt><trkpt lat="38.0020117" lon="-1.1609067"><ele>48.0</ele><time>2026-04-25T06:52:40.057Z</time></trkpt><trkpt lat="38.0020867" lon="-1.161105"><ele>48.0</ele><time>2026-04-25T06:52:41.06Z</time></trkpt><trkpt lat="38.0021617" lon="-1.161305"><ele>48.0</ele><time>2026-04-25T06:52:42.062Z</time></trkpt><trkpt lat="38.00224" lon="-1.1615017"><ele>48.0</ele><time>2026-04-25T06:52:43.058Z</time></trkpt><trkpt lat="38.002325" lon="-1.1617017"><ele>48.0</ele><time>2026-04-25T06:52:44.067Z</time></trkpt><trkpt lat="38.0024117" lon="-1.1619"><ele>50.0</ele><time>2026-04-25T06:52:45.066Z</time></trkpt><trkpt lat="38.0025" lon="-1.1620983"><ele>52.0</ele><time>2026-04-25T06:52:46.063Z</time></trkpt><trkpt lat="38.00259" lon="-1.1622967"><ele>54.0</ele><time>2026-04-25T06:52:47.064Z</time></trkpt><trkpt lat="38.002685" lon="-1.16249"><ele>54.0</ele><time>2026-04-25T06:52:48.062Z</time></trkpt><trkpt lat="38.002785" lon="-1.162685"><ele>54.0</ele><time>2026-04-25T06:52:49.06Z</time></trkpt><trkpt lat="38.002885" lon="-1.162875"><ele>54.0</ele><time>2026-04-25T06:52:50.064Z</time></trkpt><trkpt lat="38.0029883" lon="-1.163065"><ele>54.33333333333333</ele><time>2026-04-25T06:52:51.062Z</time></trkpt><trkpt lat="38.0030933" lon="-1.1632567"><ele>54.666666666666664</ele><time>2026-04-25T06:52:52.061Z</time></trkpt><trkpt lat="38.0032067" lon="-1.1634417"><ele>55.0</ele><time>2026-04-25T06:52:53.068Z</time></trkpt><trkpt lat="38.0033233" lon="-1.1636217"><ele>55.666666666666664</ele><time>2026-04-25T06:52:54.059Z</time></trkpt><trkpt lat="38.00344" lon="-1.1637967"><ele>56.33333333333333</ele><time>2026-04-25T06:52:55.06Z</time></trkpt><trkpt lat="38.00356" lon="-1.16397"><ele>57.0</ele><time>2026-04-25T06:52:56.065Z</time></trkpt><trkpt lat="38.0036833" lon="-1.1641383"><ele>57.66666666666667</ele><time>2026-04-25T06:52:57.059Z</time></trkpt><trkpt lat="38.0038133" lon="-1.1643083"><ele>58.333333333333336</ele><time>2026-04-25T06:52:58.064Z</time></trkpt><trkpt lat="38.0039417" lon="-1.1644767"><ele>59.0</ele><time>2026-04-25T06:52:59.06Z</time></trkpt><trkpt lat="38.004075" lon="-1.164645"><ele>59.0</ele><time>2026-04-25T06:53:00.059Z</time></trkpt><trkpt lat="38.00421" lon="-1.1648133"><ele>59.0</ele><time>2026-04-25T06:53:01.066Z</time></trkpt><trkpt lat="38.0043467" lon="-1.1649767"><ele>59.0</ele><time>2026-04-25T06:53:02.062Z</time></trkpt><trkpt lat="38.004485" lon="-1.1651333"><ele>59.0</ele><time>2026-04-25T06:53:03.058Z</time></trkpt><trkpt lat="38.0046267" lon="-1.165285"><ele>59.0</ele><time>2026-04-25T06:53:04.066Z</time></trkpt><trkpt lat="38.0047633" lon="-1.1654417"><ele>59.0</ele><time>2026-04-25T06:53:05.058Z</time></trkpt><trkpt lat="38.0049033" lon="-1.16559"><ele>59.66666666666667</ele><time>2026-04-25T06:53:06.061Z</time></trkpt><trkpt lat="38.00505" lon="-1.1657317"><ele>60.33333333333333</ele><time>2026-04-25T06:53:07.061Z</time></trkpt><trkpt lat="38.0052" lon="-1.1658683"><ele>61.0</ele><time>2026-04-25T06:53:08.062Z</time></trkpt><trkpt lat="38.0053567" lon="-1.166"><ele>61.0</ele><time>2026-04-25T06:53:09.062Z</time></trkpt><trkpt lat="38.005515" lon="-1.1661267"><ele>61.0</ele><time>2026-04-25T06:53:10.064Z</time></trkpt><trkpt lat="38.005675" lon="-1.16625"><ele>61.0</ele><time>2026-04-25T06:53:11.061Z</time></trkpt><trkpt lat="38.005835" lon="-1.16637"><ele>60.666666666666664</ele><time>2026-04-25T06:53:12.06Z</time></trkpt><trkpt lat="38.0059983" lon="-1.166485"><ele>60.33333333333333</ele><time>2026-04-25T06:53:13.059Z</time></trkpt><trkpt lat="38.006165" lon="-1.1665967"><ele>60.0</ele><time>2026-04-25T06:53:14.06Z</time></trkpt><trkpt lat="38.006335" lon="-1.1667033"><ele>61.66666666666667</ele><time>2026-04-25T06:53:15.064Z</time></trkpt><trkpt lat="38.0065033" lon="-1.1668033"><ele>63.333333333333336</ele><time>2026-04-25T06:53:16.058Z</time></trkpt><trkpt lat="38.0066783" lon="-1.1669"><ele>65.0</ele><time>2026-04-25T06:53:17.062Z</time></trkpt><trkpt lat="38.006855" lon="-1.16699"><ele>65.66666666666667</ele><time>2026-04-25T06:53:18.061Z</time></trkpt><trkpt lat="38.0070333" lon="-1.1670767"><ele>66.33333333333333</ele><time>2026-04-25T06:53:19.063Z</time></trkpt><trkpt lat="38.0072183" lon="-1.1671533"><ele>67.0</ele><time>2026-04-25T06:53:20.07Z</time></trkpt><trkpt lat="38.0074183" lon="-1.1672233"><ele>69.0</ele><time>2026-04-25T06:53:21.067Z</time></trkpt><trkpt lat="38.0076217" lon="-1.1672967"><ele>71.0</ele><time>2026-04-25T06:53:22.065Z</time></trkpt><trkpt lat="38.0078233" lon="-1.1673617"><ele>73.0</ele><time>2026-04-25T06:53:23.069Z</time></trkpt><trkpt lat="38.0080267" lon="-1.1674233"><ele>73.0</ele><time>2026-04-25T06:53:24.06Z</time></trkpt><trkpt lat="38.0082283" lon="-1.1674767"><ele>73.0</ele><time>2026-04-25T06:53:25.061Z</time></trkpt><trkpt lat="38.0084283" lon="-1.167525"><ele>73.0</ele><time>2026-04-25T06:53:26.061Z</time></trkpt><trkpt lat="38.00862" lon="-1.1675667"><ele>74.66666666666666</ele><time>2026-04-25T06:53:27.059Z</time></trkpt><trkpt lat="38.0088017" lon="-1.167605"><ele>76.33333333333333</ele><time>2026-04-25T06:53:28.064Z</time></trkpt><trkpt lat="38.0089717" lon="-1.1676367"><ele>78.0</ele><time>2026-04-25T06:53:29.065Z</time></trkpt><trkpt lat="38.0091283" lon="-1.16765"><ele>78.0</ele><time>2026-04-25T06:53:30.072Z</time></trkpt><trkpt lat="38.009275" lon="-1.1676283"><ele>78.0</ele><time>2026-04-25T06:53:31.061Z</time></trkpt><trkpt lat="38.009405" lon="-1.1675667"><ele>78.0</ele><time>2026-04-25T06:53:32.061Z</time></trkpt><trkpt lat="38.00952" lon="-1.1674633"><ele>78.0</ele><time>2026-04-25T06:53:33.064Z</time></trkpt><trkpt lat="38.0096183" lon="-1.16733"><ele>78.0</ele><time>2026-04-25T06:53:34.06Z</time></trkpt><trkpt lat="38.0096867" lon="-1.1671717"><ele>78.0</ele><time>2026-04-25T06:53:35.064Z</time></trkpt><trkpt lat="38.0097133" lon="-1.1669917"><ele>78.0</ele><time>2026-04-25T06:53:36.066Z</time></trkpt><trkpt lat="38.0097033" lon="-1.16681"><ele>78.0</ele><time>2026-04-25T06:53:37.065Z</time></trkpt><trkpt lat="38.0096567" lon="-1.1666417"><ele>78.5</ele><time>2026-04-25T06:53:38.063Z</time></trkpt><trkpt lat="38.00958" lon="-1.1664867"><ele>79.0</ele><time>2026-04-25T06:53:39.061Z</time></trkpt><trkpt lat="38.00947" lon="-1.1663617"><ele>79.5</ele><time>2026-04-25T06:53:40.063Z</time></trkpt><trkpt lat="38.0093317" lon="-1.16627"><ele>80.0</ele><time>2026-04-25T06:53:41.06Z</time></trkpt><trkpt lat="38.009175" lon="-1.16621"><ele>78.33333333333334</ele><time>2026-04-25T06:53:42.06Z</time></trkpt><trkpt lat="38.0090083" lon="-1.1661783"><ele>76.66666666666667</ele><time>2026-04-25T06:53:43.06Z</time></trkpt><trkpt lat="38.0088317" lon="-1.16617"><ele>75.0</ele><time>2026-04-25T06:53:44.064Z</time></trkpt><trkpt lat="38.00865" lon="-1.1661833"><ele>75.0</ele><time>2026-04-25T06:53:45.059Z</time></trkpt><trkpt lat="38.008465" lon="-1.166215"><ele>75.0</ele><time>2026-04-25T06:53:46.063Z</time></trkpt><trkpt lat="38.0082767" lon="-1.16627"><ele>75.0</ele><time>2026-04-25T06:53:47.064Z</time></trkpt><trkpt lat="38.0080883" lon="-1.166345"><ele>74.33333333333333</ele><time>2026-04-25T06:53:48.062Z</time></trkpt><trkpt lat="38.0079033" lon="-1.166445"><ele>73.66666666666666</ele><time>2026-04-25T06:53:49.062Z</time></trkpt><trkpt lat="38.0077283" lon="-1.1665633"><ele>73.0</ele><time>2026-04-25T06:53:50.063Z</time></trkpt><trkpt lat="38.0075733" lon="-1.1666933"><ele>71.0</ele><time>2026-04-25T06:53:51.057Z</time></trkpt><trkpt lat="38.0074283" lon="-1.16683"><ele>69.0</ele><time>2026-04-25T06:53:52.062Z</time></trkpt><trkpt lat="38.0072883" lon="-1.166975"><ele>67.0</ele><time>2026-04-25T06:53:53.061Z</time></trkpt><trkpt lat="38.0071467" lon="-1.167125"><ele>67.0</ele><time>2026-04-25T06:53:54.07Z</time></trkpt><trkpt lat="38.007005" lon="-1.1672783"><ele>67.0</ele><time>2026-04-25T06:53:55.063Z</time></trkpt><trkpt lat="38.006865" lon="-1.167435"><ele>67.0</ele><time>2026-04-25T06:53:56.061Z</time></trkpt><trkpt lat="38.0067217" lon="-1.167595"><ele>67.0</ele><time>2026-04-25T06:53:57.059Z</time></trkpt><trkpt lat="38.0065783" lon="-1.1677633"><ele>67.0</ele><time>2026-04-25T06:53:58.064Z</time></trkpt><trkpt lat="38.0064317" lon="-1.167935"><ele>67.0</ele><time>2026-04-25T06:53:59.062Z</time></trkpt><trkpt lat="38.006285" lon="-1.16811"><ele>68.0</ele><time>2026-04-25T06:54:00.06Z</time></trkpt><trkpt lat="38.006135" lon="-1.1682917"><ele>69.0</ele><time>2026-04-25T06:54:01.061Z</time></trkpt><trkpt lat="38.0059833" lon="-1.168475"><ele>70.0</ele><time>2026-04-25T06:54:02.063Z</time></trkpt><trkpt lat="38.005835" lon="-1.1686617"><ele>70.0</ele><time>2026-04-25T06:54:03.061Z</time></trkpt><trkpt lat="38.0056883" lon="-1.1688533"><ele>70.0</ele><time>2026-04-25T06:54:04.07Z</time></trkpt><trkpt lat="38.005545" lon="-1.1690483"><ele>70.0</ele><time>2026-04-25T06:54:05.062Z</time></trkpt><trkpt lat="38.0054033" lon="-1.1692517"><ele>70.0</ele><time>2026-04-25T06:54:06.062Z</time></trkpt><trkpt lat="38.005265" lon="-1.16946"><ele>70.0</ele><time>2026-04-25T06:54:07.06Z</time></trkpt><trkpt lat="38.005125" lon="-1.1696767"><ele>70.0</ele><time>2026-04-25T06:54:08.063Z</time></trkpt><trkpt lat="38.00499" lon="-1.1699017"><ele>68.66666666666666</ele><time>2026-04-25T06:54:09.066Z</time></trkpt><trkpt lat="38.00486" lon="-1.17013"><ele>67.33333333333333</ele><time>2026-04-25T06:54:10.059Z</time></trkpt><trkpt lat="38.0047317" lon="-1.1703667"><ele>66.0</ele><time>2026-04-25T06:54:11.061Z</time></trkpt><trkpt lat="38.0046083" lon="-1.1706083"><ele>68.5</ele><time>2026-04-25T06:54:12.07Z</time></trkpt><trkpt lat="38.004485" lon="-1.1708567"><ele>71.0</ele><time>2026-04-25T06:54:13.063Z</time></trkpt><trkpt lat="38.0043667" lon="-1.17111"><ele>71.0</ele><time>2026-04-25T06:54:14.062Z</time></trkpt><trkpt lat="38.004255" lon="-1.17137"><ele>71.0</ele><time>2026-04-25T06:54:15.062Z</time></trkpt><trkpt lat="38.00415" lon="-1.1716333"><ele>69.5</ele><time>2026-04-25T06:54:16.06Z</time></trkpt><trkpt lat="38.00405" lon="-1.1719017"><ele>68.0</ele><time>2026-04-25T06:54:17.059Z</time></trkpt><trkpt lat="38.0039533" lon="-1.1721733"><ele>69.0</ele><time>2026-04-25T06:54:18.066Z</time></trkpt><trkpt lat="38.0038633" lon="-1.1724483"><ele>70.0</ele><time>2026-04-25T06:54:19.061Z</time></trkpt><trkpt lat="38.00378" lon="-1.1727233"><ele>70.0</ele><time>2026-04-25T06:54:20.068Z</time></trkpt><trkpt lat="38.0037017" lon="-1.173005"><ele>70.0</ele><time>2026-04-25T06:54:21.059Z</time></trkpt><trkpt lat="38.0036317" lon="-1.1732867"><ele>70.5</ele><time>2026-04-25T06:54:22.066Z</time></trkpt><trkpt lat="38.0035683" lon="-1.1735717"><ele>71.0</ele><time>2026-04-25T06:54:23.064Z</time></trkpt><trkpt lat="38.0035117" lon="-1.1738583"><ele>71.0</ele><time>2026-04-25T06:54:24.063Z</time></trkpt><trkpt lat="38.0034617" lon="-1.1741433"><ele>71.0</ele><time>2026-04-25T06:54:25.062Z</time></trkpt><trkpt lat="38.0034167" lon="-1.174425"><ele>71.0</ele><time>2026-04-25T06:54:26.065Z</time></trkpt><trkpt lat="38.003375" lon="-1.174705"><ele>71.0</ele><time>2026-04-25T06:54:27.065Z</time></trkpt><trkpt lat="38.0033383" lon="-1.1749833"><ele>71.0</ele><time>2026-04-25T06:54:28.063Z</time></trkpt><trkpt lat="38.0033083" lon="-1.175265"><ele>71.33333333333334</ele><time>2026-04-25T06:54:29.061Z</time></trkpt><trkpt lat="38.003285" lon="-1.17554"><ele>71.66666666666667</ele><time>2026-04-25T06:54:30.059Z</time></trkpt><trkpt lat="38.0032667" lon="-1.175805"><ele>72.0</ele><time>2026-04-25T06:54:31.06Z</time></trkpt><trkpt lat="38.0032533" lon="-1.1760667"><ele>72.0</ele><time>2026-04-25T06:54:32.065Z</time></trkpt><trkpt lat="38.0032417" lon="-1.17633"><ele>72.0</ele><time>2026-04-25T06:54:33.06Z</time></trkpt><trkpt lat="38.0032283" lon="-1.1766017"><ele>72.0</ele><time>2026-04-25T06:54:34.064Z</time></trkpt><trkpt lat="38.0032167" lon="-1.17688"><ele>72.5</ele><time>2026-04-25T06:54:35.071Z</time></trkpt><trkpt lat="38.003205" lon="-1.1771683"><ele>73.0</ele><time>2026-04-25T06:54:36.069Z</time></trkpt><trkpt lat="38.0031983" lon="-1.177465"><ele>73.0</ele><time>2026-04-25T06:54:37.067Z</time></trkpt><trkpt lat="38.0031917" lon="-1.1777683"><ele>73.0</ele><time>2026-04-25T06:54:38.063Z</time></trkpt><trkpt lat="38.0031867" lon="-1.178075"><ele>74.0</ele><time>2026-04-25T06:54:39.06Z</time></trkpt><trkpt lat="38.00318" lon="-1.1783867"><ele>75.0</ele><time>2026-04-25T06:54:40.059Z</time></trkpt><trkpt lat="38.0031733" lon="-1.1787"><ele>75.0</ele><time>2026-04-25T06:54:41.059Z</time></trkpt><trkpt lat="38.0031617" lon="-1.1790133"><ele>75.0</ele><time>2026-04-25T06:54:42.061Z</time></trkpt><trkpt lat="38.0031433" lon="-1.17933"><ele>76.5</ele><time>2026-04-25T06:54:43.061Z</time></trkpt><trkpt lat="38.0031167" lon="-1.1796483"><ele>78.0</ele><time>2026-04-25T06:54:44.059Z</time></trkpt><trkpt lat="38.003085" lon="-1.1799683"><ele>78.5</ele><time>2026-04-25T06:54:45.062Z</time></trkpt><trkpt lat="38.00305" lon="-1.18029"><ele>79.0</ele><time>2026-04-25T06:54:46.065Z</time></trkpt><trkpt lat="38.00301" lon="-1.18061"><ele>79.5</ele><time>2026-04-25T06:54:47.063Z</time></trkpt><trkpt lat="38.0029667" lon="-1.1809317"><ele>80.0</ele><time>2026-04-25T06:54:48.063Z</time></trkpt><trkpt lat="38.0029167" lon="-1.1812533"><ele>82.0</ele><time>2026-04-25T06:54:49.063Z</time></trkpt><trkpt lat="38.0028633" lon="-1.18157"><ele>84.0</ele><time>2026-04-25T06:54:50.061Z</time></trkpt><trkpt lat="38.0028067" lon="-1.181885"><ele>84.0</ele><time>2026-04-25T06:54:51.063Z</time></trkpt><trkpt lat="38.0027467" lon="-1.1821917"><ele>84.0</ele><time>2026-04-25T06:54:52.059Z</time></trkpt><trkpt lat="38.0026817" lon="-1.1824917"><ele>85.5</ele><time>2026-04-25T06:54:53.066Z</time></trkpt><trkpt lat="38.0026133" lon="-1.1827883"><ele>87.0</ele><time>2026-04-25T06:54:54.063Z</time></trkpt><trkpt lat="38.0025433" lon="-1.1830783"><ele>86.0</ele><time>2026-04-25T06:54:55.068Z</time></trkpt><trkpt lat="38.0024667" lon="-1.183365"><ele>85.0</ele><time>2026-04-25T06:54:56.063Z</time></trkpt><trkpt lat="38.0023867" lon="-1.18365"><ele>85.0</ele><time>2026-04-25T06:54:57.064Z</time></trkpt><trkpt lat="38.0023033" lon="-1.1839333"><ele>85.0</ele><time>2026-04-25T06:54:58.06Z</time></trkpt><trkpt lat="38.0022117" lon="-1.1842167"><ele>84.5</ele><time>2026-04-25T06:54:59.061Z</time></trkpt><trkpt lat="38.0021183" lon="-1.1844983"><ele>84.0</ele><time>2026-04-25T06:55:00.059Z</time></trkpt><trkpt lat="38.0020183" lon="-1.1847767"><ele>86.0</ele><time>2026-04-25T06:55:01.063Z</time></trkpt><trkpt lat="38.001915" lon="-1.1850533"><ele>88.0</ele><time>2026-04-25T06:55:02.065Z</time></trkpt><trkpt lat="38.00181" lon="-1.1853267"><ele>88.0</ele><time>2026-04-25T06:55:03.063Z</time></trkpt><trkpt lat="38.0017033" lon="-1.1855983"><ele>88.0</ele><time>2026-04-25T06:55:04.062Z</time></trkpt><trkpt lat="38.0015933" lon="-1.1858667"><ele>88.0</ele><time>2026-04-25T06:55:05.064Z</time></trkpt><trkpt lat="38.00148" lon="-1.1861317"><ele>88.0</ele><time>2026-04-25T06:55:06.064Z</time></trkpt><trkpt lat="38.0013617" lon="-1.1863933"><ele>89.0</ele><time>2026-04-25T06:55:07.068Z</time></trkpt><trkpt lat="38.0012433" lon="-1.18665"><ele>90.0</ele><time>2026-04-25T06:55:08.069Z</time></trkpt><trkpt lat="38.0011183" lon="-1.186905"><ele>90.0</ele><time>2026-04-25T06:55:09.061Z</time></trkpt><trkpt lat="38.00099" lon="-1.1871567"><ele>90.0</ele><time>2026-04-25T06:55:10.065Z</time></trkpt><trkpt lat="38.0008567" lon="-1.1874083"><ele>90.0</ele><time>2026-04-25T06:55:11.064Z</time></trkpt><trkpt lat="38.00072" lon="-1.18766"><ele>90.0</ele><time>2026-04-25T06:55:12.067Z</time></trkpt><trkpt lat="38.00058" lon="-1.1879067"><ele>90.0</ele><time>2026-04-25T06:55:13.067Z</time></trkpt><trkpt lat="38.000435" lon="-1.1881533"><ele>90.0</ele><time>2026-04-25T06:55:14.064Z</time></trkpt><trkpt lat="38.0002867" lon="-1.1883983"><ele>91.0</ele><time>2026-04-25T06:55:15.061Z</time></trkpt><trkpt lat="38.0001367" lon="-1.188645"><ele>92.0</ele><time>2026-04-25T06:55:16.062Z</time></trkpt><trkpt lat="37.9999867" lon="-1.18889"><ele>94.5</ele><time>2026-04-25T06:55:17.059Z</time></trkpt><trkpt lat="37.999835" lon="-1.1891367"><ele>97.0</ele><time>2026-04-25T06:55:18.064Z</time></trkpt><trkpt lat="37.9996817" lon="-1.189385"><ele>97.0</ele><time>2026-04-25T06:55:19.061Z</time></trkpt><trkpt lat="37.99953" lon="-1.1896383"><ele>97.0</ele><time>2026-04-25T06:55:20.063Z</time></trkpt><trkpt lat="37.99938" lon="-1.189895"><ele>98.0</ele><time>2026-04-25T06:55:21.064Z</time></trkpt><trkpt lat="37.9992317" lon="-1.1901567"><ele>99.0</ele><time>2026-04-25T06:55:22.063Z</time></trkpt><trkpt lat="37.9990933" lon="-1.190425"><ele>101.5</ele><time>2026-04-25T06:55:23.061Z</time></trkpt><trkpt lat="37.9989583" lon="-1.1907"><ele>104.0</ele><time>2026-04-25T06:55:24.063Z</time></trkpt><trkpt lat="37.9988317" lon="-1.1909817"><ele>104.0</ele><time>2026-04-25T06:55:25.062Z</time></trkpt><trkpt lat="37.99871" lon="-1.1912717"><ele>104.0</ele><time>2026-04-25T06:55:26.064Z</time></trkpt><trkpt lat="37.9985967" lon="-1.1915667"><ele>107.5</ele><time>2026-04-25T06:55:27.062Z</time></trkpt><trkpt lat="37.9984867" lon="-1.1918667"><ele>111.0</ele><time>2026-04-25T06:55:28.062Z</time></trkpt><trkpt lat="37.998385" lon="-1.19217"><ele>106.0</ele><time>2026-04-25T06:55:29.062Z</time></trkpt><trkpt lat="37.9982917" lon="-1.19248"><ele>101.0</ele><time>2026-04-25T06:55:30.063Z</time></trkpt><trkpt lat="37.998205" lon="-1.1927933"><ele>101.0</ele><time>2026-04-25T06:55:31.062Z</time></trkpt><trkpt lat="37.9981283" lon="-1.1931117"><ele>101.0</ele><time>2026-04-25T06:55:32.06Z</time></trkpt><trkpt lat="37.9980567" lon="-1.193435"><ele>100.0</ele><time>2026-04-25T06:55:33.061Z</time></trkpt><trkpt lat="37.9979938" lon="-1.1937591"><ele>99.0</ele><time>2026-04-25T06:55:34.061Z</time></trkpt><trkpt lat="37.9979416" lon="-1.1940863"><ele>93.0</ele><time>2026-04-25T06:55:35.062Z</time></trkpt><trkpt lat="37.9978983" lon="-1.1944192"><ele>87.0</ele><time>2026-04-25T06:55:36.064Z</time></trkpt><trkpt lat="37.9978636" lon="-1.1947526"><ele>86.5</ele><time>2026-04-25T06:55:37.062Z</time></trkpt><trkpt lat="37.9978383" lon="-1.1950912"><ele>86.0</ele><time>2026-04-25T06:55:38.068Z</time></trkpt><trkpt lat="37.9978231" lon="-1.1954286"><ele>85.0</ele><time>2026-04-25T06:55:39.062Z</time></trkpt><trkpt lat="37.9978165" lon="-1.195769"><ele>84.0</ele><time>2026-04-25T06:55:40.062Z</time></trkpt><trkpt lat="37.9978186" lon="-1.1961086"><ele>84.0</ele><time>2026-04-25T06:55:41.061Z</time></trkpt><trkpt lat="37.997829" lon="-1.1964465"><ele>84.0</ele><time>2026-04-25T06:55:42.063Z</time></trkpt><trkpt lat="37.9978489" lon="-1.1967821"><ele>86.5</ele><time>2026-04-25T06:55:43.066Z</time></trkpt><trkpt lat="37.9978774" lon="-1.1971144"><ele>89.0</ele><time>2026-04-25T06:55:44.059Z</time></trkpt><trkpt lat="37.9979144" lon="-1.1974444"><ele>90.0</ele><time>2026-04-25T06:55:45.061Z</time></trkpt><trkpt lat="37.9979608" lon="-1.1977725"><ele>91.0</ele><time>2026-04-25T06:55:46.061Z</time></trkpt><trkpt lat="37.9980135" lon="-1.1980968"><ele>92.5</ele><time>2026-04-25T06:55:47.062Z</time></trkpt><trkpt lat="37.9980727" lon="-1.1984181"><ele>94.0</ele><time>2026-04-25T06:55:48.064Z</time></trkpt><trkpt lat="37.9981395" lon="-1.1987307"><ele>94.5</ele><time>2026-04-25T06:55:49.062Z</time></trkpt><trkpt lat="37.9982133" lon="-1.1990381"><ele>95.0</ele><time>2026-04-25T06:55:50.065Z</time></trkpt><trkpt lat="37.9982925" lon="-1.1993407"><ele>98.5</ele><time>2026-04-25T06:55:51.063Z</time></trkpt><trkpt lat="37.998376" lon="-1.1996425"><ele>102.0</ele><time>2026-04-25T06:55:52.069Z</time></trkpt><trkpt lat="37.9984627" lon="-1.199941"><ele>102.0</ele><time>2026-04-25T06:55:53.058Z</time></trkpt><trkpt lat="37.9985516" lon="-1.2002398"><ele>102.0</ele><time>2026-04-25T06:55:54.06Z</time></trkpt><trkpt lat="37.9986383" lon="-1.2005383"><ele>100.5</ele><time>2026-04-25T06:55:55.063Z</time></trkpt><trkpt lat="37.9987217" lon="-1.2008367"><ele>99.0</ele><time>2026-04-25T06:55:56.062Z</time></trkpt><trkpt lat="37.9988033" lon="-1.2011383"><ele>99.0</ele><time>2026-04-25T06:55:57.065Z</time></trkpt><trkpt lat="37.9988867" lon="-1.2014433"><ele>99.0</ele><time>2026-04-25T06:55:58.06Z</time></trkpt><trkpt lat="37.99897" lon="-1.2017483"><ele>101.5</ele><time>2026-04-25T06:55:59.063Z</time></trkpt><trkpt lat="37.9990517" lon="-1.2020533"><ele>104.0</ele><time>2026-04-25T06:56:00.06Z</time></trkpt><trkpt lat="37.9991333" lon="-1.2023583"><ele>112.5</ele><time>2026-04-25T06:56:01.06Z</time></trkpt><trkpt lat="37.999215" lon="-1.2026633"><ele>121.0</ele><time>2026-04-25T06:56:02.063Z</time></trkpt><trkpt lat="37.9992933" lon="-1.20297"><ele>116.0</ele><time>2026-04-25T06:56:03.06Z</time></trkpt><trkpt lat="37.9993717" lon="-1.20328"><ele>111.0</ele><time>2026-04-25T06:56:04.059Z</time></trkpt><trkpt lat="37.9994517" lon="-1.2035883"><ele>111.0</ele><time>2026-04-25T06:56:05.065Z</time></trkpt><trkpt lat="37.9995317" lon="-1.2039017"><ele>111.0</ele><time>2026-04-25T06:56:06.062Z</time></trkpt><trkpt lat="37.9996133" lon="-1.204215"><ele>109.5</ele><time>2026-04-25T06:56:07.064Z</time></trkpt><trkpt lat="37.999695" lon="-1.20453"><ele>108.0</ele><time>2026-04-25T06:56:08.064Z</time></trkpt><trkpt lat="37.9997733" lon="-1.204845"><ele>108.0</ele><time>2026-04-25T06:56:09.06Z</time></trkpt><trkpt lat="37.9998517" lon="-1.2051617"><ele>108.0</ele><time>2026-04-25T06:56:10.068Z</time></trkpt><trkpt lat="37.9999317" lon="-1.2054767"><ele>107.5</ele><time>2026-04-25T06:56:11.061Z</time></trkpt><trkpt lat="38.00001" lon="-1.2057917"><ele>107.0</ele><time>2026-04-25T06:56:12.066Z</time></trkpt><trkpt lat="38.0000867" lon="-1.20611"><ele>107.0</ele><time>2026-04-25T06:56:13.062Z</time></trkpt><trkpt lat="38.000165" lon="-1.2064283"><ele>107.0</ele><time>2026-04-25T06:56:14.063Z</time></trkpt><trkpt lat="38.0002383" lon="-1.2067483"><ele>105.5</ele><time>2026-04-25T06:56:15.062Z</time></trkpt><trkpt lat="38.0003117" lon="-1.2070717"><ele>104.0</ele><time>2026-04-25T06:56:16.06Z</time></trkpt><trkpt lat="38.000385" lon="-1.2073983"><ele>101.5</ele><time>2026-04-25T06:56:17.064Z</time></trkpt><trkpt lat="38.0004583" lon="-1.2077267"><ele>99.0</ele><time>2026-04-25T06:56:18.066Z</time></trkpt><trkpt lat="38.00053" lon="-1.2080567"><ele>95.5</ele><time>2026-04-25T06:56:19.062Z</time></trkpt><trkpt lat="38.0006017" lon="-1.2083883"><ele>92.0</ele><time>2026-04-25T06:56:20.062Z</time></trkpt><trkpt lat="38.0006717" lon="-1.20872"><ele>87.5</ele><time>2026-04-25T06:56:21.062Z</time></trkpt><trkpt lat="38.0007417" lon="-1.2090533"><ele>83.0</ele><time>2026-04-25T06:56:22.06Z</time></trkpt><trkpt lat="38.0008133" lon="-1.2093867"><ele>83.5</ele><time>2026-04-25T06:56:23.066Z</time></trkpt><trkpt lat="38.0008833" lon="-1.2097183"><ele>84.0</ele><time>2026-04-25T06:56:24.06Z</time></trkpt><trkpt lat="38.0009533" lon="-1.2100517"><ele>84.0</ele><time>2026-04-25T06:56:25.06Z</time></trkpt><trkpt lat="38.0010217" lon="-1.210385"><ele>84.0</ele><time>2026-04-25T06:56:26.06Z</time></trkpt><trkpt lat="38.00109" lon="-1.2107183"><ele>82.5</ele><time>2026-04-25T06:56:27.06Z</time></trkpt><trkpt lat="38.0011567" lon="-1.2110567"><ele>81.0</ele><time>2026-04-25T06:56:28.06Z</time></trkpt><trkpt lat="38.00122" lon="-1.211395"><ele>79.5</ele><time>2026-04-25T06:56:29.064Z</time></trkpt><trkpt lat="38.0012833" lon="-1.2117333"><ele>78.0</ele><time>2026-04-25T06:56:30.058Z</time></trkpt><trkpt lat="38.0013483" lon="-1.2120717"><ele>77.0</ele><time>2026-04-25T06:56:31.065Z</time></trkpt><trkpt lat="38.0014117" lon="-1.2124067"><ele>76.0</ele><time>2026-04-25T06:56:32.058Z</time></trkpt><trkpt lat="38.001475" lon="-1.2127433"><ele>76.0</ele><time>2026-04-25T06:56:33.064Z</time></trkpt><trkpt lat="38.0015367" lon="-1.21308"><ele>76.0</ele><time>2026-04-25T06:56:34.059Z</time></trkpt><trkpt lat="38.0016" lon="-1.213415"><ele>76.5</ele><time>2026-04-25T06:56:35.063Z</time></trkpt><trkpt lat="38.00166" lon="-1.2137517"><ele>77.0</ele><time>2026-04-25T06:56:36.059Z</time></trkpt><trkpt lat="38.0017183" lon="-1.2140867"><ele>75.0</ele><time>2026-04-25T06:56:37.059Z</time></trkpt><trkpt lat="38.0017733" lon="-1.2144217"><ele>73.0</ele><time>2026-04-25T06:56:38.061Z</time></trkpt><trkpt lat="38.00183" lon="-1.214755"><ele>70.5</ele><time>2026-04-25T06:56:39.057Z</time></trkpt><trkpt lat="38.001885" lon="-1.215085"><ele>68.0</ele><time>2026-04-25T06:56:40.067Z</time></trkpt><trkpt lat="38.0019367" lon="-1.215415"><ele>64.5</ele><time>2026-04-25T06:56:41.061Z</time></trkpt><trkpt lat="38.001985" lon="-1.2157433"><ele>61.0</ele><time>2026-04-25T06:56:42.062Z</time></trkpt><trkpt lat="38.00203" lon="-1.2160733"><ele>61.0</ele><time>2026-04-25T06:56:43.059Z</time></trkpt><trkpt lat="38.0020717" lon="-1.216405"><ele>61.0</ele><time>2026-04-25T06:56:44.07Z</time></trkpt><trkpt lat="38.0021067" lon="-1.216735"><ele>61.0</ele><time>2026-04-25T06:56:45.063Z</time></trkpt><trkpt lat="38.0021383" lon="-1.2170633"><ele>61.0</ele><time>2026-04-25T06:56:46.062Z</time></trkpt><trkpt lat="38.0021633" lon="-1.2173933"><ele>61.0</ele><time>2026-04-25T06:56:47.063Z</time></trkpt><trkpt lat="38.002185" lon="-1.2177233"><ele>61.0</ele><time>2026-04-25T06:56:48.062Z</time></trkpt><trkpt lat="38.0022033" lon="-1.2180517"><ele>60.5</ele><time>2026-04-25T06:56:49.061Z</time></trkpt><trkpt lat="38.0022167" lon="-1.21838"><ele>60.0</ele><time>2026-04-25T06:56:50.06Z</time></trkpt><trkpt lat="38.002225" lon="-1.2187083"><ele>61.0</ele><time>2026-04-25T06:56:51.062Z</time></trkpt><trkpt lat="38.00223" lon="-1.2190383"><ele>62.0</ele><time>2026-04-25T06:56:52.061Z</time></trkpt><trkpt lat="38.0022333" lon="-1.2193717"><ele>62.0</ele><time>2026-04-25T06:56:53.059Z</time></trkpt><trkpt lat="38.0022333" lon="-1.2197033"><ele>62.0</ele><time>2026-04-25T06:56:54.062Z</time></trkpt><trkpt lat="38.00223" lon="-1.2200367"><ele>63.0</ele><time>2026-04-25T06:56:55.067Z</time></trkpt><trkpt lat="38.00222" lon="-1.2203683"><ele>64.0</ele><time>2026-04-25T06:56:56.063Z</time></trkpt><trkpt lat="38.002205" lon="-1.2206983"><ele>64.0</ele><time>2026-04-25T06:56:57.061Z</time></trkpt><trkpt lat="38.002185" lon="-1.2210283"><ele>64.0</ele><time>2026-04-25T06:56:58.066Z</time></trkpt><trkpt lat="38.0021633" lon="-1.2213567"><ele>66.5</ele><time>2026-04-25T06:56:59.061Z</time></trkpt><trkpt lat="38.0021367" lon="-1.2216833"><ele>69.0</ele><time>2026-04-25T06:57:00.061Z</time></trkpt><trkpt lat="38.00211" lon="-1.2220033"><ele>69.0</ele><time>2026-04-25T06:57:01.057Z</time></trkpt><trkpt lat="38.00208" lon="-1.2223117"><ele>69.0</ele><time>2026-04-25T06:57:02.064Z</time></trkpt><trkpt lat="38.0020467" lon="-1.2226117"><ele>70.0</ele><time>2026-04-25T06:57:03.064Z</time></trkpt><trkpt lat="38.00201" lon="-1.222905"><ele>71.0</ele><time>2026-04-25T06:57:04.061Z</time></trkpt><trkpt lat="38.00197" lon="-1.2231933"><ele>73.0</ele><time>2026-04-25T06:57:05.065Z</time></trkpt><trkpt lat="38.0019283" lon="-1.22348"><ele>75.0</ele><time>2026-04-25T06:57:06.061Z</time></trkpt><trkpt lat="38.001885" lon="-1.2237667"><ele>77.0</ele><time>2026-04-25T06:57:07.06Z</time></trkpt><trkpt lat="38.0018367" lon="-1.2240567"><ele>79.0</ele><time>2026-04-25T06:57:08.065Z</time></trkpt><trkpt lat="38.0017767" lon="-1.2243517"><ele>79.0</ele><time>2026-04-25T06:57:09.06Z</time></trkpt><trkpt lat="38.0017133" lon="-1.2246533"><ele>79.0</ele><time>2026-04-25T06:57:10.058Z</time></trkpt><trkpt lat="38.00165" lon="-1.2249633"><ele>81.0</ele><time>2026-04-25T06:57:11.064Z</time></trkpt><trkpt lat="38.0015883" lon="-1.2252817"><ele>83.0</ele><time>2026-04-25T06:57:12.061Z</time></trkpt><trkpt lat="38.0015267" lon="-1.2256033"><ele>84.5</ele><time>2026-04-25T06:57:13.061Z</time></trkpt><trkpt lat="38.0014567" lon="-1.2259317"><ele>86.0</ele><time>2026-04-25T06:57:14.061Z</time></trkpt><trkpt lat="38.0013767" lon="-1.2262583"><ele>89.5</ele><time>2026-04-25T06:57:15.064Z</time></trkpt><trkpt lat="38.0012883" lon="-1.226585"><ele>93.0</ele><time>2026-04-25T06:57:16.063Z</time></trkpt><trkpt lat="38.001195" lon="-1.22691"><ele>93.0</ele><time>2026-04-25T06:57:17.061Z</time></trkpt><trkpt lat="38.001095" lon="-1.2272333"><ele>93.0</ele><time>2026-04-25T06:57:18.062Z</time></trkpt><trkpt lat="38.0009917" lon="-1.227555"><ele>96.0</ele><time>2026-04-25T06:57:19.066Z</time></trkpt><trkpt lat="38.000885" lon="-1.2278767"><ele>99.0</ele><time>2026-04-25T06:57:20.064Z</time></trkpt><trkpt lat="38.0007767" lon="-1.228195"><ele>102.0</ele><time>2026-04-25T06:57:21.063Z</time></trkpt><trkpt lat="38.000665" lon="-1.2285067"><ele>105.0</ele><time>2026-04-25T06:57:22.067Z</time></trkpt><trkpt lat="38.0005533" lon="-1.228815"><ele>105.0</ele><time>2026-04-25T06:57:23.064Z</time></trkpt><trkpt lat="38.0004383" lon="-1.2291167"><ele>105.0</ele><time>2026-04-25T06:57:24.066Z</time></trkpt><trkpt lat="38.00032" lon="-1.229415"><ele>105.0</ele><time>2026-04-25T06:57:25.058Z</time></trkpt><trkpt lat="38.0001967" lon="-1.22971"><ele>105.0</ele><time>2026-04-25T06:57:26.061Z</time></trkpt><trkpt lat="38.0000683" lon="-1.2300017"><ele>106.5</ele><time>2026-04-25T06:57:27.06Z</time></trkpt><trkpt lat="37.9999383" lon="-1.2302933"><ele>108.0</ele><time>2026-04-25T06:57:28.059Z</time></trkpt><trkpt lat="37.9998033" lon="-1.2305817"><ele>111.5</ele><time>2026-04-25T06:57:29.063Z</time></trkpt><trkpt lat="37.9996667" lon="-1.2308683"><ele>115.0</ele><time>2026-04-25T06:57:30.065Z</time></trkpt><trkpt lat="37.999525" lon="-1.231155"><ele>115.0</ele><time>2026-04-25T06:57:31.066Z</time></trkpt><trkpt lat="37.9993783" lon="-1.23144"><ele>115.0</ele><time>2026-04-25T06:57:32.064Z</time></trkpt><trkpt lat="37.9992233" lon="-1.2317217"><ele>111.0</ele><time>2026-04-25T06:57:33.062Z</time></trkpt><trkpt lat="37.9990633" lon="-1.2320033"><ele>107.0</ele><time>2026-04-25T06:57:34.06Z</time></trkpt><trkpt lat="37.9989" lon="-1.2322867"><ele>107.0</ele><time>2026-04-25T06:57:35.059Z</time></trkpt><trkpt lat="37.998735" lon="-1.2325633"><ele>107.0</ele><time>2026-04-25T06:57:36.059Z</time></trkpt><trkpt lat="37.9985667" lon="-1.2328383"><ele>107.0</ele><time>2026-04-25T06:57:37.06Z</time></trkpt><trkpt lat="37.9984017" lon="-1.2331067"><ele>107.0</ele><time>2026-04-25T06:57:38.066Z</time></trkpt><trkpt lat="37.9982283" lon="-1.233375"><ele>105.5</ele><time>2026-04-25T06:57:39.06Z</time></trkpt><trkpt lat="37.9980467" lon="-1.2336417"><ele>104.0</ele><time>2026-04-25T06:57:40.063Z</time></trkpt><trkpt lat="37.9978633" lon="-1.233905"><ele>104.0</ele><time>2026-04-25T06:57:41.066Z</time></trkpt><trkpt lat="37.9976783" lon="-1.2341633"><ele>104.0</ele><time>2026-04-25T06:57:42.062Z</time></trkpt><trkpt lat="37.99749" lon="-1.2344167"><ele>105.5</ele><time>2026-04-25T06:57:43.06Z</time></trkpt><trkpt lat="37.9973017" lon="-1.234665"><ele>107.0</ele><time>2026-04-25T06:57:44.058Z</time></trkpt><trkpt lat="37.99711" lon="-1.23491"><ele>107.0</ele><time>2026-04-25T06:57:45.061Z</time></trkpt><trkpt lat="37.9969117" lon="-1.235155"><ele>107.0</ele><time>2026-04-25T06:57:46.063Z</time></trkpt><trkpt lat="37.99671" lon="-1.2353967"><ele>107.5</ele><time>2026-04-25T06:57:47.066Z</time></trkpt><trkpt lat="37.9965083" lon="-1.2356317"><ele>108.0</ele><time>2026-04-25T06:57:48.066Z</time></trkpt><trkpt lat="37.9963017" lon="-1.235865"><ele>109.0</ele><time>2026-04-25T06:57:49.065Z</time></trkpt><trkpt lat="37.9960917" lon="-1.2360933"><ele>110.0</ele><time>2026-04-25T06:57:50.066Z</time></trkpt><trkpt lat="37.99588" lon="-1.2363167"><ele>111.0</ele><time>2026-04-25T06:57:51.06Z</time></trkpt><trkpt lat="37.9956667" lon="-1.2365333"><ele>112.0</ele><time>2026-04-25T06:57:52.06Z</time></trkpt><trkpt lat="37.9954517" lon="-1.236745"><ele>112.0</ele><time>2026-04-25T06:57:53.062Z</time></trkpt><trkpt lat="37.9952367" lon="-1.2369483"><ele>112.0</ele><time>2026-04-25T06:57:54.062Z</time></trkpt><trkpt lat="37.9950183" lon="-1.23715"><ele>111.5</ele><time>2026-04-25T06:57:55.061Z</time></trkpt><trkpt lat="37.9948" lon="-1.237345"><ele>111.0</ele><time>2026-04-25T06:57:56.06Z</time></trkpt><trkpt lat="37.99458" lon="-1.2375333"><ele>111.0</ele><time>2026-04-25T06:57:57.071Z</time></trkpt><trkpt lat="37.9943583" lon="-1.2377167"><ele>111.0</ele><time>2026-04-25T06:57:58.062Z</time></trkpt><trkpt lat="37.9941333" lon="-1.237895"><ele>112.0</ele><time>2026-04-25T06:57:59.062Z</time></trkpt><trkpt lat="37.9939083" lon="-1.2380717"><ele>113.0</ele><time>2026-04-25T06:58:00.063Z</time></trkpt><trkpt lat="37.9936817" lon="-1.2382417"><ele>114.5</ele><time>2026-04-25T06:58:01.059Z</time></trkpt><trkpt lat="37.9934533" lon="-1.2384067"><ele>116.0</ele><time>2026-04-25T06:58:02.063Z</time></trkpt><trkpt lat="37.99322" lon="-1.2385667"><ele>118.5</ele><time>2026-04-25T06:58:03.065Z</time></trkpt><trkpt lat="37.9929867" lon="-1.2387233"><ele>121.0</ele><time>2026-04-25T06:58:04.061Z</time></trkpt><trkpt lat="37.99275" lon="-1.2388767"><ele>121.5</ele><time>2026-04-25T06:58:05.064Z</time></trkpt><trkpt lat="37.9925133" lon="-1.2390233"><ele>122.0</ele><time>2026-04-25T06:58:06.063Z</time></trkpt><trkpt lat="37.9922767" lon="-1.2391683"><ele>126.5</ele><time>2026-04-25T06:58:07.065Z</time></trkpt><trkpt lat="37.9920367" lon="-1.23931"><ele>131.0</ele><time>2026-04-25T06:58:08.058Z</time></trkpt><trkpt lat="37.9917933" lon="-1.2394433"><ele>135.5</ele><time>2026-04-25T06:58:09.063Z</time></trkpt><trkpt lat="37.9915467" lon="-1.239575"><ele>140.0</ele><time>2026-04-25T06:58:10.062Z</time></trkpt><trkpt lat="37.9912983" lon="-1.2397033"><ele>141.0</ele><time>2026-04-25T06:58:11.064Z</time></trkpt><trkpt lat="37.9910467" lon="-1.239825"><ele>142.0</ele><time>2026-04-25T06:58:12.062Z</time></trkpt><trkpt lat="37.990795" lon="-1.2399483"><ele>142.0</ele><time>2026-04-25T06:58:13.063Z</time></trkpt><trkpt lat="37.9905417" lon="-1.2400767"><ele>142.0</ele><time>2026-04-25T06:58:14.062Z</time></trkpt><trkpt lat="37.990285" lon="-1.240205"><ele>142.0</ele><time>2026-04-25T06:58:15.065Z</time></trkpt><trkpt lat="37.9900267" lon="-1.2403333"><ele>142.0</ele><time>2026-04-25T06:58:16.06Z</time></trkpt><trkpt lat="37.9897667" lon="-1.24046"><ele>144.0</ele><time>2026-04-25T06:58:17.063Z</time></trkpt><trkpt lat="37.9895017" lon="-1.240585"><ele>146.0</ele><time>2026-04-25T06:58:18.061Z</time></trkpt><trkpt lat="37.9892367" lon="-1.2407117"><ele>143.0</ele><time>2026-04-25T06:58:19.065Z</time></trkpt><trkpt lat="37.9889717" lon="-1.2408417"><ele>140.0</ele><time>2026-04-25T06:58:20.063Z</time></trkpt><trkpt lat="37.9887067" lon="-1.240975"><ele>140.0</ele><time>2026-04-25T06:58:21.061Z</time></trkpt><trkpt lat="37.9884483" lon="-1.2411083"><ele>140.0</ele><time>2026-04-25T06:58:22.067Z</time></trkpt><trkpt lat="37.9881917" lon="-1.24124"><ele>141.0</ele><time>2026-04-25T06:58:23.059Z</time></trkpt><trkpt lat="37.9879367" lon="-1.2413683"><ele>142.0</ele><time>2026-04-25T06:58:24.066Z</time></trkpt><trkpt lat="37.98768" lon="-1.2414983"><ele>141.5</ele><time>2026-04-25T06:58:25.059Z</time></trkpt><trkpt lat="37.987425" lon="-1.2416283"><ele>141.0</ele><time>2026-04-25T06:58:26.06Z</time></trkpt><trkpt lat="37.98717" lon="-1.24176"><ele>141.0</ele><time>2026-04-25T06:58:27.059Z</time></trkpt><trkpt lat="37.9869133" lon="-1.2418917"><ele>141.0</ele><time>2026-04-25T06:58:28.057Z</time></trkpt><trkpt lat="37.986655" lon="-1.2420267"><ele>142.0</ele><time>2026-04-25T06:58:29.062Z</time></trkpt><trkpt lat="37.9863983" lon="-1.242165"><ele>143.0</ele><time>2026-04-25T06:58:30.067Z</time></trkpt><trkpt lat="37.9861417" lon="-1.2423067"><ele>143.0</ele><time>2026-04-25T06:58:31.064Z</time></trkpt><trkpt lat="37.9858833" lon="-1.24245"><ele>143.0</ele><time>2026-04-25T06:58:32.066Z</time></trkpt><trkpt lat="37.9856267" lon="-1.242595"><ele>139.5</ele><time>2026-04-25T06:58:33.058Z</time></trkpt><trkpt lat="37.98537" lon="-1.2427383"><ele>136.0</ele><time>2026-04-25T06:58:34.063Z</time></trkpt><trkpt lat="37.9851117" lon="-1.2428833"><ele>135.5</ele><time>2026-04-25T06:58:35.06Z</time></trkpt><trkpt lat="37.9848533" lon="-1.2430283"><ele>135.0</ele><time>2026-04-25T06:58:36.063Z</time></trkpt><trkpt lat="37.9845983" lon="-1.243175"><ele>135.0</ele><time>2026-04-25T06:58:37.061Z</time></trkpt><trkpt lat="37.9843433" lon="-1.2433233"><ele>135.0</ele><time>2026-04-25T06:58:38.058Z</time></trkpt><trkpt lat="37.9840867" lon="-1.2434717"><ele>134.0</ele><time>2026-04-25T06:58:39.064Z</time></trkpt><trkpt lat="37.9838283" lon="-1.243625"><ele>133.0</ele><time>2026-04-25T06:58:40.065Z</time></trkpt><trkpt lat="37.98357" lon="-1.2437767"><ele>132.0</ele><time>2026-04-25T06:58:41.065Z</time></trkpt><trkpt lat="37.9833083" lon="-1.2439267"><ele>131.0</ele><time>2026-04-25T06:58:42.06Z</time></trkpt><trkpt lat="37.9830483" lon="-1.2440767"><ele>131.0</ele><time>2026-04-25T06:58:43.061Z</time></trkpt><trkpt lat="37.9827883" lon="-1.244225"><ele>131.0</ele><time>2026-04-25T06:58:44.065Z</time></trkpt><trkpt lat="37.9825283" lon="-1.2443683"><ele>130.5</ele><time>2026-04-25T06:58:45.068Z</time></trkpt><trkpt lat="37.9822683" lon="-1.2445117"><ele>130.0</ele><time>2026-04-25T06:58:46.063Z</time></trkpt><trkpt lat="37.9820083" lon="-1.244655"><ele>130.0</ele><time>2026-04-25T06:58:47.069Z</time></trkpt><trkpt lat="37.9817483" lon="-1.2447967"><ele>130.0</ele><time>2026-04-25T06:58:48.059Z</time></trkpt><trkpt lat="37.9814883" lon="-1.2449367"><ele>130.5</ele><time>2026-04-25T06:58:49.067Z</time></trkpt><trkpt lat="37.9812267" lon="-1.245075"><ele>131.0</ele><time>2026-04-25T06:58:50.063Z</time></trkpt><trkpt lat="37.9809633" lon="-1.2452117"><ele>131.5</ele><time>2026-04-25T06:58:51.06Z</time></trkpt><trkpt lat="37.9807" lon="-1.2453483"><ele>132.0</ele><time>2026-04-25T06:58:52.063Z</time></trkpt><trkpt lat="37.980435" lon="-1.2454817"><ele>132.0</ele><time>2026-04-25T06:58:53.06Z</time></trkpt><trkpt lat="37.9801733" lon="-1.245615"><ele>132.0</ele><time>2026-04-25T06:58:54.06Z</time></trkpt><trkpt lat="37.9799117" lon="-1.2457483"><ele>133.5</ele><time>2026-04-25T06:58:55.062Z</time></trkpt><trkpt lat="37.97965" lon="-1.24588"><ele>135.0</ele><time>2026-04-25T06:58:56.064Z</time></trkpt><trkpt lat="37.9793883" lon="-1.246015"><ele>132.0</ele><time>2026-04-25T06:58:57.066Z</time></trkpt><trkpt lat="37.979125" lon="-1.24615"><ele>129.0</ele><time>2026-04-25T06:58:58.064Z</time></trkpt><trkpt lat="37.9788633" lon="-1.2462817"><ele>129.0</ele><time>2026-04-25T06:58:59.063Z</time></trkpt><trkpt lat="37.9786" lon="-1.2464117"><ele>129.0</ele><time>2026-04-25T06:59:00.063Z</time></trkpt><trkpt lat="37.9783383" lon="-1.24654"><ele>127.5</ele><time>2026-04-25T06:59:01.059Z</time></trkpt><trkpt lat="37.978075" lon="-1.24667"><ele>126.0</ele><time>2026-04-25T06:59:02.063Z</time></trkpt><trkpt lat="37.9778117" lon="-1.2468017"><ele>126.0</ele><time>2026-04-25T06:59:03.062Z</time></trkpt><trkpt lat="37.9775483" lon="-1.2469283"><ele>126.0</ele><time>2026-04-25T06:59:04.064Z</time></trkpt><trkpt lat="37.9772833" lon="-1.2470533"><ele>127.5</ele><time>2026-04-25T06:59:05.066Z</time></trkpt><trkpt lat="37.977015" lon="-1.247175"><ele>129.0</ele><time>2026-04-25T06:59:06.066Z</time></trkpt><trkpt lat="37.9767483" lon="-1.2472933"><ele>127.0</ele><time>2026-04-25T06:59:07.064Z</time></trkpt><trkpt lat="37.9764783" lon="-1.2474117"><ele>125.0</ele><time>2026-04-25T06:59:08.062Z</time></trkpt><trkpt lat="37.97621" lon="-1.2475283"><ele>125.0</ele><time>2026-04-25T06:59:09.061Z</time></trkpt><trkpt lat="37.9759383" lon="-1.247645"><ele>125.0</ele><time>2026-04-25T06:59:10.063Z</time></trkpt><trkpt lat="37.975665" lon="-1.2477633"><ele>124.0</ele><time>2026-04-25T06:59:11.07Z</time></trkpt><trkpt lat="37.97539" lon="-1.2478833"><ele>123.0</ele><time>2026-04-25T06:59:12.066Z</time></trkpt><trkpt lat="37.975115" lon="-1.2480017"><ele>123.5</ele><time>2026-04-25T06:59:13.062Z</time></trkpt><trkpt lat="37.9748383" lon="-1.2481217"><ele>124.0</ele><time>2026-04-25T06:59:14.069Z</time></trkpt><trkpt lat="37.9745583" lon="-1.2482417"><ele>125.0</ele><time>2026-04-25T06:59:15.065Z</time></trkpt><trkpt lat="37.9742783" lon="-1.248355"><ele>126.0</ele><time>2026-04-25T06:59:16.063Z</time></trkpt><trkpt lat="37.9739983" lon="-1.2484683"><ele>122.5</ele><time>2026-04-25T06:59:17.061Z</time></trkpt><trkpt lat="37.97372" lon="-1.2485767"><ele>119.0</ele><time>2026-04-25T06:59:18.062Z</time></trkpt><trkpt lat="37.9734417" lon="-1.2486817"><ele>118.5</ele><time>2026-04-25T06:59:19.06Z</time></trkpt><trkpt lat="37.973165" lon="-1.2487867"><ele>118.0</ele><time>2026-04-25T06:59:20.072Z</time></trkpt><trkpt lat="37.972885" lon="-1.248885"><ele>117.5</ele><time>2026-04-25T06:59:21.06Z</time></trkpt><trkpt lat="37.9726017" lon="-1.2489833"><ele>117.0</ele><time>2026-04-25T06:59:22.063Z</time></trkpt><trkpt lat="37.9723183" lon="-1.2490883"><ele>117.0</ele><time>2026-04-25T06:59:23.067Z</time></trkpt><trkpt lat="37.972035" lon="-1.2492017"><ele>117.0</ele><time>2026-04-25T06:59:24.063Z</time></trkpt><trkpt lat="37.9717517" lon="-1.2493183"><ele>116.5</ele><time>2026-04-25T06:59:25.059Z</time></trkpt><trkpt lat="37.97147" lon="-1.2494317"><ele>116.0</ele><time>2026-04-25T06:59:26.06Z</time></trkpt><trkpt lat="37.9711867" lon="-1.2495417"><ele>116.0</ele><time>2026-04-25T06:59:27.062Z</time></trkpt><trkpt lat="37.970905" lon="-1.249645"><ele>116.0</ele><time>2026-04-25T06:59:28.059Z</time></trkpt><trkpt lat="37.9706233" lon="-1.249745"><ele>114.5</ele><time>2026-04-25T06:59:29.058Z</time></trkpt><trkpt lat="37.9703417" lon="-1.249845"><ele>113.0</ele><time>2026-04-25T06:59:30.068Z</time></trkpt><trkpt lat="37.9700617" lon="-1.2499433"><ele>115.0</ele><time>2026-04-25T06:59:31.066Z</time></trkpt><trkpt lat="37.9697817" lon="-1.25004"><ele>117.0</ele><time>2026-04-25T06:59:32.064Z</time></trkpt><trkpt lat="37.9695017" lon="-1.2501333"><ele>117.0</ele><time>2026-04-25T06:59:33.061Z</time></trkpt><trkpt lat="37.96922" lon="-1.2502283"><ele>117.0</ele><time>2026-04-25T06:59:34.064Z</time></trkpt><trkpt lat="37.9689417" lon="-1.25032"><ele>116.0</ele><time>2026-04-25T06:59:35.059Z</time></trkpt><trkpt lat="37.968665" lon="-1.2504133"><ele>115.0</ele><time>2026-04-25T06:59:36.063Z</time></trkpt><trkpt lat="37.9683867" lon="-1.2505033"><ele>114.5</ele><time>2026-04-25T06:59:37.06Z</time></trkpt><trkpt lat="37.9681067" lon="-1.25059"><ele>114.0</ele><time>2026-04-25T06:59:38.064Z</time></trkpt><trkpt lat="37.9678267" lon="-1.250675"><ele>115.5</ele><time>2026-04-25T06:59:39.06Z</time></trkpt><trkpt lat="37.9675483" lon="-1.2507583"><ele>117.0</ele><time>2026-04-25T06:59:40.065Z</time></trkpt><trkpt lat="37.9672667" lon="-1.2508433"><ele>117.0</ele><time>2026-04-25T06:59:41.065Z</time></trkpt><trkpt lat="37.966985" lon="-1.25093"><ele>117.0</ele><time>2026-04-25T06:59:42.063Z</time></trkpt><trkpt lat="37.9667017" lon="-1.2510133"><ele>116.5</ele><time>2026-04-25T06:59:43.063Z</time></trkpt><trkpt lat="37.96642" lon="-1.2510967"><ele>116.0</ele><time>2026-04-25T06:59:44.061Z</time></trkpt><trkpt lat="37.9661383" lon="-1.2511783"><ele>115.0</ele><time>2026-04-25T06:59:45.066Z</time></trkpt><trkpt lat="37.9658567" lon="-1.2512567"><ele>114.0</ele><time>2026-04-25T06:59:46.063Z</time></trkpt><trkpt lat="37.9655733" lon="-1.251335"><ele>114.0</ele><time>2026-04-25T06:59:47.071Z</time></trkpt><trkpt lat="37.96529" lon="-1.2514117"><ele>114.0</ele><time>2026-04-25T06:59:48.064Z</time></trkpt><trkpt lat="37.9650067" lon="-1.2514883"><ele>114.5</ele><time>2026-04-25T06:59:49.062Z</time></trkpt><trkpt lat="37.9647217" lon="-1.2515633"><ele>115.0</ele><time>2026-04-25T06:59:50.062Z</time></trkpt><trkpt lat="37.9644367" lon="-1.2516383"><ele>113.5</ele><time>2026-04-25T06:59:51.062Z</time></trkpt><trkpt lat="37.9641533" lon="-1.2517133"><ele>112.0</ele><time>2026-04-25T06:59:52.062Z</time></trkpt><trkpt lat="37.96387" lon="-1.2517867"><ele>112.0</ele><time>2026-04-25T06:59:53.064Z</time></trkpt><trkpt lat="37.9635833" lon="-1.2518583"><ele>112.0</ele><time>2026-04-25T06:59:54.066Z</time></trkpt><trkpt lat="37.9632983" lon="-1.2519317"><ele>113.0</ele><time>2026-04-25T06:59:55.061Z</time></trkpt><trkpt lat="37.963015" lon="-1.2520067"><ele>114.0</ele><time>2026-04-25T06:59:56.06Z</time></trkpt><trkpt lat="37.962735" lon="-1.2520817"><ele>112.5</ele><time>2026-04-25T06:59:57.062Z</time></trkpt><trkpt lat="37.962455" lon="-1.2521583"><ele>111.0</ele><time>2026-04-25T06:59:58.061Z</time></trkpt><trkpt lat="37.962175" lon="-1.252235"><ele>111.0</ele><time>2026-04-25T06:59:59.069Z</time></trkpt><trkpt lat="37.9618933" lon="-1.2523133"><ele>111.0</ele><time>2026-04-25T07:00:00.061Z</time></trkpt><trkpt lat="37.96161" lon="-1.2523933"><ele>111.0</ele><time>2026-04-25T07:00:01.064Z</time></trkpt><trkpt lat="37.96133" lon="-1.2524733"><ele>111.0</ele><time>2026-04-25T07:00:02.059Z</time></trkpt><trkpt lat="37.9610533" lon="-1.2525517"><ele>112.0</ele><time>2026-04-25T07:00:03.058Z</time></trkpt><trkpt lat="37.960785" lon="-1.2526283"><ele>113.0</ele><time>2026-04-25T07:00:04.065Z</time></trkpt><trkpt lat="37.96052" lon="-1.2527083"><ele>113.0</ele><time>2026-04-25T07:00:05.065Z</time></trkpt><trkpt lat="37.9602567" lon="-1.25279"><ele>113.0</ele><time>2026-04-25T07:00:06.065Z</time></trkpt><trkpt lat="37.959995" lon="-1.2528733"><ele>111.5</ele><time>2026-04-25T07:00:07.062Z</time></trkpt><trkpt lat="37.95973" lon="-1.2529567"><ele>110.0</ele><time>2026-04-25T07:00:08.062Z</time></trkpt><trkpt lat="37.9594633" lon="-1.2530433"><ele>110.5</ele><time>2026-04-25T07:00:09.063Z</time></trkpt><trkpt lat="37.9591933" lon="-1.253135"><ele>111.0</ele><time>2026-04-25T07:00:10.061Z</time></trkpt><trkpt lat="37.9589233" lon="-1.2532283"><ele>111.0</ele><time>2026-04-25T07:00:11.065Z</time></trkpt><trkpt lat="37.958655" lon="-1.2533267"><ele>111.0</ele><time>2026-04-25T07:00:12.064Z</time></trkpt><trkpt lat="37.9583883" lon="-1.2534283"><ele>111.5</ele><time>2026-04-25T07:00:13.067Z</time></trkpt><trkpt lat="37.9581267" lon="-1.2535317"><ele>112.0</ele><time>2026-04-25T07:00:14.062Z</time></trkpt><trkpt lat="37.9578683" lon="-1.25364"><ele>112.0</ele><time>2026-04-25T07:00:15.064Z</time></trkpt><trkpt lat="37.9576133" lon="-1.2537533"><ele>112.0</ele><time>2026-04-25T07:00:16.068Z</time></trkpt><trkpt lat="37.95736" lon="-1.2538733"><ele>111.0</ele><time>2026-04-25T07:00:17.062Z</time></trkpt><trkpt lat="37.9571083" lon="-1.2539983"><ele>110.0</ele><time>2026-04-25T07:00:18.063Z</time></trkpt><trkpt lat="37.9568583" lon="-1.254125"><ele>109.5</ele><time>2026-04-25T07:00:19.06Z</time></trkpt><trkpt lat="37.9566133" lon="-1.2542567"><ele>109.0</ele><time>2026-04-25T07:00:20.062Z</time></trkpt><trkpt lat="37.9563717" lon="-1.254395"><ele>109.0</ele><time>2026-04-25T07:00:21.067Z</time></trkpt><trkpt lat="37.9561317" lon="-1.2545417"><ele>109.0</ele><time>2026-04-25T07:00:22.068Z</time></trkpt><trkpt lat="37.9558967" lon="-1.2546917"><ele>108.0</ele><time>2026-04-25T07:00:23.06Z</time></trkpt><trkpt lat="37.95567" lon="-1.2548383"><ele>107.0</ele><time>2026-04-25T07:00:24.062Z</time></trkpt><trkpt lat="37.9554517" lon="-1.2549833"><ele>107.0</ele><time>2026-04-25T07:00:25.062Z</time></trkpt><trkpt lat="37.9552433" lon="-1.2551233"><ele>107.0</ele><time>2026-04-25T07:00:26.063Z</time></trkpt><trkpt lat="37.9550417" lon="-1.25526"><ele>108.0</ele><time>2026-04-25T07:00:27.06Z</time></trkpt><trkpt lat="37.9548467" lon="-1.2553983"><ele>109.0</ele><time>2026-04-25T07:00:28.067Z</time></trkpt><trkpt lat="37.9546567" lon="-1.25554"><ele>110.0</ele><time>2026-04-25T07:00:29.062Z</time></trkpt><trkpt lat="37.9544733" lon="-1.2556833"><ele>110.33333333333333</ele><time>2026-04-25T07:00:30.063Z</time></trkpt><trkpt lat="37.9542983" lon="-1.2558333"><ele>110.66666666666666</ele><time>2026-04-25T07:00:31.066Z</time></trkpt><trkpt lat="37.9541333" lon="-1.2559883"><ele>111.0</ele><time>2026-04-25T07:00:32.064Z</time></trkpt><trkpt lat="37.9539767" lon="-1.2561433"><ele>110.0</ele><time>2026-04-25T07:00:33.059Z</time></trkpt><trkpt lat="37.9538283" lon="-1.2563"><ele>109.0</ele><time>2026-04-25T07:00:34.065Z</time></trkpt><trkpt lat="37.9536883" lon="-1.2564583"><ele>108.0</ele><time>2026-04-25T07:00:35.061Z</time></trkpt><trkpt lat="37.9535533" lon="-1.2566183"><ele>108.0</ele><time>2026-04-25T07:00:36.061Z</time></trkpt><trkpt lat="37.9534267" lon="-1.2567817"><ele>108.0</ele><time>2026-04-25T07:00:37.059Z</time></trkpt><trkpt lat="37.9533033" lon="-1.2569483"><ele>108.0</ele><time>2026-04-25T07:00:38.06Z</time></trkpt><trkpt lat="37.953185" lon="-1.2571183"><ele>107.66666666666666</ele><time>2026-04-25T07:00:39.068Z</time></trkpt><trkpt lat="37.9530717" lon="-1.257285"><ele>107.33333333333333</ele><time>2026-04-25T07:00:40.069Z</time></trkpt><trkpt lat="37.9529633" lon="-1.2574483"><ele>107.0</ele><time>2026-04-25T07:00:41.065Z</time></trkpt><trkpt lat="37.95286" lon="-1.2576067"><ele>107.75</ele><time>2026-04-25T07:00:42.061Z</time></trkpt><trkpt lat="37.9527633" lon="-1.2577533"><ele>108.5</ele><time>2026-04-25T07:00:43.059Z</time></trkpt><trkpt lat="37.9526683" lon="-1.2578933"><ele>109.25</ele><time>2026-04-25T07:00:44.062Z</time></trkpt><trkpt lat="37.9525783" lon="-1.258025"><ele>110.0</ele><time>2026-04-25T07:00:45.06Z</time></trkpt><trkpt lat="37.9525" lon="-1.2581417"><ele>111.16666666666666</ele><time>2026-04-25T07:00:46.058Z</time></trkpt><trkpt lat="37.9524283" lon="-1.2582433"><ele>112.33333333333333</ele><time>2026-04-25T07:00:47.061Z</time></trkpt><trkpt lat="37.952365" lon="-1.2583367"><ele>113.5</ele><time>2026-04-25T07:00:48.062Z</time></trkpt><trkpt lat="37.9523083" lon="-1.2584217"><ele>114.66666666666666</ele><time>2026-04-25T07:00:49.059Z</time></trkpt><trkpt lat="37.9522617" lon="-1.2585"><ele>115.83333333333333</ele><time>2026-04-25T07:00:50.065Z</time></trkpt><trkpt lat="37.9522367" lon="-1.2585767"><ele>117.0</ele><time>2026-04-25T07:00:51.059Z</time></trkpt><trkpt lat="37.9522333" lon="-1.2587217"><ele>117.0</ele><time>2026-04-25T07:00:53.059Z</time></trkpt><trkpt lat="37.952308" lon="-1.258842"><ele>116.99999999999999</ele><time>2026-04-25T07:00:55.058Z</time></trkpt><trkpt lat="37.9523655" lon="-1.2588943"><ele>116.99999999999999</ele><time>2026-04-25T07:00:56.062Z</time></trkpt><trkpt lat="37.9524708" lon="-1.2589547"><ele>117.0</ele><time>2026-04-25T07:00:58.071Z</time></trkpt><trkpt lat="37.9525532" lon="-1.258958"><ele>117.0</ele><time>2026-04-25T07:01:00.061Z</time></trkpt><trkpt lat="37.9526237" lon="-1.2589765"><ele>117.0</ele><time>2026-04-25T07:01:02.06Z</time></trkpt><trkpt lat="37.9526117" lon="-1.25907"><ele>117.0</ele><time>2026-04-25T07:02:00.059Z</time></trkpt><trkpt lat="37.9525217" lon="-1.25908"><ele>117.0</ele><time>2026-04-25T07:02:02.064Z</time></trkpt><trkpt lat="37.9524583" lon="-1.2590533"><ele>117.0</ele><time>2026-04-25T07:02:03.06Z</time></trkpt><trkpt lat="37.952385" lon="-1.259005"><ele>117.0</ele><time>2026-04-25T07:02:04.057Z</time></trkpt><trkpt lat="37.9522933" lon="-1.258935"><ele>117.0</ele><time>2026-04-25T07:02:05.066Z</time></trkpt><trkpt lat="37.9521983" lon="-1.2588833"><ele>117.0</ele><time>2026-04-25T07:02:06.064Z</time></trkpt><trkpt lat="37.9521033" lon="-1.2588633"><ele>116.99999999999999</ele><time>2026-04-25T07:02:07.067Z</time></trkpt><trkpt lat="37.9520117" lon="-1.2588667"><ele>116.99999999999999</ele><time>2026-04-25T07:02:08.059Z</time></trkpt><trkpt lat="37.9519067" lon="-1.258925"><ele>117.0</ele><time>2026-04-25T07:02:09.06Z</time></trkpt><trkpt lat="37.9517917" lon="-1.2590317"><ele>117.0</ele><time>2026-04-25T07:02:10.061Z</time></trkpt><trkpt lat="37.951655" lon="-1.2591633"><ele>116.0</ele><time>2026-04-25T07:02:11.065Z</time></trkpt><trkpt lat="37.9515033" lon="-1.25931"><ele>115.0</ele><time>2026-04-25T07:02:12.059Z</time></trkpt><trkpt lat="37.951335" lon="-1.25946"><ele>114.0</ele><time>2026-04-25T07:02:13.058Z</time></trkpt><trkpt lat="37.9511633" lon="-1.2596067"><ele>114.0</ele><time>2026-04-25T07:02:14.061Z</time></trkpt><trkpt lat="37.9509917" lon="-1.2597533"><ele>114.0</ele><time>2026-04-25T07:02:15.069Z</time></trkpt><trkpt lat="37.9508217" lon="-1.2598983"><ele>114.0</ele><time>2026-04-25T07:02:16.064Z</time></trkpt><trkpt lat="37.9506483" lon="-1.2600433"><ele>114.0</ele><time>2026-04-25T07:02:17.06Z</time></trkpt><trkpt lat="37.9504733" lon="-1.2601967"><ele>114.0</ele><time>2026-04-25T07:02:18.062Z</time></trkpt><trkpt lat="37.9502967" lon="-1.260355"><ele>114.0</ele><time>2026-04-25T07:02:19.06Z</time></trkpt><trkpt lat="37.9501217" lon="-1.26052"><ele>113.0</ele><time>2026-04-25T07:02:20.071Z</time></trkpt><trkpt lat="37.9499517" lon="-1.2606883"><ele>112.0</ele><time>2026-04-25T07:02:21.059Z</time></trkpt><trkpt lat="37.9497867" lon="-1.2608683"><ele>111.0</ele><time>2026-04-25T07:02:22.06Z</time></trkpt><trkpt lat="37.9496283" lon="-1.2610583"><ele>111.0</ele><time>2026-04-25T07:02:23.071Z</time></trkpt><trkpt lat="37.94947" lon="-1.261255"><ele>111.0</ele><time>2026-04-25T07:02:24.067Z</time></trkpt><trkpt lat="37.9493167" lon="-1.2614583"><ele>111.0</ele><time>2026-04-25T07:02:25.062Z</time></trkpt><trkpt lat="37.9491667" lon="-1.2616633"><ele>111.0</ele><time>2026-04-25T07:02:26.063Z</time></trkpt><trkpt lat="37.9490167" lon="-1.2618717"><ele>111.0</ele><time>2026-04-25T07:02:27.06Z</time></trkpt><trkpt lat="37.9488717" lon="-1.2620817"><ele>111.0</ele><time>2026-04-25T07:02:28.059Z</time></trkpt><trkpt lat="37.9487283" lon="-1.26229"><ele>111.33333333333334</ele><time>2026-04-25T07:02:29.058Z</time></trkpt><trkpt lat="37.9485867" lon="-1.2625"><ele>111.66666666666667</ele><time>2026-04-25T07:02:30.065Z</time></trkpt><trkpt lat="37.9484433" lon="-1.26271"><ele>112.0</ele><time>2026-04-25T07:02:31.061Z</time></trkpt><trkpt lat="37.9483017" lon="-1.2629217"><ele>112.66666666666667</ele><time>2026-04-25T07:02:32.076Z</time></trkpt><trkpt lat="37.9481583" lon="-1.2631333"><ele>113.33333333333334</ele><time>2026-04-25T07:02:33.071Z</time></trkpt><trkpt lat="37.9480133" lon="-1.2633433"><ele>114.0</ele><time>2026-04-25T07:02:34.062Z</time></trkpt><trkpt lat="37.9478667" lon="-1.263555"><ele>114.0</ele><time>2026-04-25T07:02:35.06Z</time></trkpt><trkpt lat="37.9477167" lon="-1.26377"><ele>114.0</ele><time>2026-04-25T07:02:36.062Z</time></trkpt><trkpt lat="37.947565" lon="-1.2639867"><ele>116.0</ele><time>2026-04-25T07:02:37.061Z</time></trkpt><trkpt lat="37.9474117" lon="-1.2642067"><ele>118.0</ele><time>2026-04-25T07:02:38.065Z</time></trkpt><trkpt lat="37.9472567" lon="-1.2644267"><ele>118.0</ele><time>2026-04-25T07:02:39.061Z</time></trkpt><trkpt lat="37.9470983" lon="-1.26465"><ele>118.0</ele><time>2026-04-25T07:02:40.061Z</time></trkpt><trkpt lat="37.9469333" lon="-1.26488"><ele>117.5</ele><time>2026-04-25T07:02:41.062Z</time></trkpt><trkpt lat="37.9467617" lon="-1.2651083"><ele>117.0</ele><time>2026-04-25T07:02:42.063Z</time></trkpt><trkpt lat="37.9465867" lon="-1.2653367"><ele>116.0</ele><time>2026-04-25T07:02:43.062Z</time></trkpt><trkpt lat="37.9464083" lon="-1.265565"><ele>115.0</ele><time>2026-04-25T07:02:44.062Z</time></trkpt><trkpt lat="37.9462283" lon="-1.26579"><ele>115.0</ele><time>2026-04-25T07:02:45.062Z</time></trkpt><trkpt lat="37.9460433" lon="-1.2660167"><ele>115.0</ele><time>2026-04-25T07:02:46.059Z</time></trkpt><trkpt lat="37.9458517" lon="-1.26624"><ele>112.5</ele><time>2026-04-25T07:02:47.06Z</time></trkpt><trkpt lat="37.9456567" lon="-1.26646"><ele>110.0</ele><time>2026-04-25T07:02:48.062Z</time></trkpt><trkpt lat="37.9454567" lon="-1.2666767"><ele>110.0</ele><time>2026-04-25T07:02:49.062Z</time></trkpt><trkpt lat="37.945255" lon="-1.26689"><ele>110.0</ele><time>2026-04-25T07:02:50.064Z</time></trkpt><trkpt lat="37.9450517" lon="-1.2671017"><ele>112.5</ele><time>2026-04-25T07:02:51.062Z</time></trkpt><trkpt lat="37.9448483" lon="-1.2673083"><ele>115.0</ele><time>2026-04-25T07:02:52.062Z</time></trkpt><trkpt lat="37.94464" lon="-1.2675117"><ele>115.0</ele><time>2026-04-25T07:02:53.061Z</time></trkpt><trkpt lat="37.9444317" lon="-1.2677133"><ele>115.0</ele><time>2026-04-25T07:02:54.063Z</time></trkpt><trkpt lat="37.9442217" lon="-1.2679083"><ele>113.5</ele><time>2026-04-25T07:02:55.065Z</time></trkpt><trkpt lat="37.9440083" lon="-1.2681"><ele>112.0</ele><time>2026-04-25T07:02:56.063Z</time></trkpt><trkpt lat="37.9437917" lon="-1.2682883"><ele>114.5</ele><time>2026-04-25T07:02:57.067Z</time></trkpt><trkpt lat="37.9435733" lon="-1.2684717"><ele>117.0</ele><time>2026-04-25T07:02:58.065Z</time></trkpt><trkpt lat="37.9433483" lon="-1.2686517"><ele>117.0</ele><time>2026-04-25T07:02:59.07Z</time></trkpt><trkpt lat="37.94312" lon="-1.268825"><ele>117.0</ele><time>2026-04-25T07:03:00.066Z</time></trkpt><trkpt lat="37.9428867" lon="-1.2690017"><ele>116.5</ele><time>2026-04-25T07:03:01.062Z</time></trkpt><trkpt lat="37.9426467" lon="-1.269175"><ele>116.0</ele><time>2026-04-25T07:03:02.06Z</time></trkpt><trkpt lat="37.9424017" lon="-1.2693467"><ele>116.0</ele><time>2026-04-25T07:03:03.061Z</time></trkpt><trkpt lat="37.9421533" lon="-1.269515"><ele>116.0</ele><time>2026-04-25T07:03:04.057Z</time></trkpt><trkpt lat="37.9419017" lon="-1.2696783"><ele>114.5</ele><time>2026-04-25T07:03:05.063Z</time></trkpt><trkpt lat="37.94165" lon="-1.2698367"><ele>113.0</ele><time>2026-04-25T07:03:06.057Z</time></trkpt><trkpt lat="37.941395" lon="-1.26999"><ele>113.0</ele><time>2026-04-25T07:03:07.062Z</time></trkpt><trkpt lat="37.9411417" lon="-1.2701383"><ele>113.0</ele><time>2026-04-25T07:03:08.065Z</time></trkpt><trkpt lat="37.9408883" lon="-1.2702833"><ele>113.0</ele><time>2026-04-25T07:03:09.063Z</time></trkpt><trkpt lat="37.9406333" lon="-1.2704183"><ele>113.0</ele><time>2026-04-25T07:03:10.058Z</time></trkpt><trkpt lat="37.9403783" lon="-1.2705467"><ele>113.5</ele><time>2026-04-25T07:03:11.06Z</time></trkpt><trkpt lat="37.9401217" lon="-1.27067"><ele>114.0</ele><time>2026-04-25T07:03:12.064Z</time></trkpt><trkpt lat="37.939865" lon="-1.27079"><ele>113.0</ele><time>2026-04-25T07:03:13.061Z</time></trkpt><trkpt lat="37.9396083" lon="-1.2709067"><ele>112.0</ele><time>2026-04-25T07:03:14.059Z</time></trkpt><trkpt lat="37.9393517" lon="-1.271025"><ele>111.5</ele><time>2026-04-25T07:03:15.065Z</time></trkpt><trkpt lat="37.9390983" lon="-1.2711433"><ele>111.0</ele><time>2026-04-25T07:03:16.063Z</time></trkpt><trkpt lat="37.938845" lon="-1.2712583"><ele>111.0</ele><time>2026-04-25T07:03:17.061Z</time></trkpt><trkpt lat="37.9385933" lon="-1.2713767"><ele>111.0</ele><time>2026-04-25T07:03:18.065Z</time></trkpt><trkpt lat="37.93834" lon="-1.271495"><ele>112.0</ele><time>2026-04-25T07:03:19.06Z</time></trkpt><trkpt lat="37.9380933" lon="-1.2716167"><ele>113.0</ele><time>2026-04-25T07:03:20.063Z</time></trkpt><trkpt lat="37.937845" lon="-1.2717483"><ele>113.0</ele><time>2026-04-25T07:03:21.062Z</time></trkpt><trkpt lat="37.9376017" lon="-1.2718933"><ele>113.0</ele><time>2026-04-25T07:03:22.058Z</time></trkpt><trkpt lat="37.9373617" lon="-1.2720467"><ele>113.5</ele><time>2026-04-25T07:03:23.069Z</time></trkpt><trkpt lat="37.9371267" lon="-1.2722067"><ele>114.0</ele><time>2026-04-25T07:03:24.063Z</time></trkpt><trkpt lat="37.9369" lon="-1.272375"><ele>113.0</ele><time>2026-04-25T07:03:25.062Z</time></trkpt><trkpt lat="37.9366767" lon="-1.2725517"><ele>112.0</ele><time>2026-04-25T07:03:26.064Z</time></trkpt><trkpt lat="37.9362467" lon="-1.2729233"><ele>112.5</ele><time>2026-04-25T07:03:28.06Z</time></trkpt><trkpt lat="37.9360383" lon="-1.27312"><ele>113.0</ele><time>2026-04-25T07:03:29.061Z</time></trkpt><trkpt lat="37.9358367" lon="-1.2733233"><ele>113.0</ele><time>2026-04-25T07:03:30.061Z</time></trkpt><trkpt lat="37.93564" lon="-1.2735333"><ele>113.0</ele><time>2026-04-25T07:03:31.059Z</time></trkpt><trkpt lat="37.9354467" lon="-1.2737467"><ele>113.0</ele><time>2026-04-25T07:03:32.064Z</time></trkpt><trkpt lat="37.93526" lon="-1.2739667"><ele>113.0</ele><time>2026-04-25T07:03:33.059Z</time></trkpt><trkpt lat="37.9350783" lon="-1.27419"><ele>113.0</ele><time>2026-04-25T07:03:34.065Z</time></trkpt><trkpt lat="37.9349033" lon="-1.2744267"><ele>113.0</ele><time>2026-04-25T07:03:35.061Z</time></trkpt><trkpt lat="37.9347333" lon="-1.274665"><ele>113.0</ele><time>2026-04-25T07:03:36.057Z</time></trkpt><trkpt lat="37.9345667" lon="-1.2749067"><ele>113.0</ele><time>2026-04-25T07:03:37.058Z</time></trkpt><trkpt lat="37.9344017" lon="-1.27515"><ele>113.0</ele><time>2026-04-25T07:03:38.066Z</time></trkpt><trkpt lat="37.9342367" lon="-1.2753933"><ele>113.0</ele><time>2026-04-25T07:03:39.059Z</time></trkpt><trkpt lat="37.9340717" lon="-1.27564"><ele>114.0</ele><time>2026-04-25T07:03:40.061Z</time></trkpt><trkpt lat="37.9339083" lon="-1.2758867"><ele>115.0</ele><time>2026-04-25T07:03:41.058Z</time></trkpt><trkpt lat="37.933745" lon="-1.2761283"><ele>115.0</ele><time>2026-04-25T07:03:42.069Z</time></trkpt><trkpt lat="37.9335817" lon="-1.2763683"><ele>115.0</ele><time>2026-04-25T07:03:43.058Z</time></trkpt><trkpt lat="37.93342" lon="-1.27661"><ele>115.5</ele><time>2026-04-25T07:03:44.065Z</time></trkpt><trkpt lat="37.9332583" lon="-1.2768483"><ele>116.0</ele><time>2026-04-25T07:03:45.06Z</time></trkpt><trkpt lat="37.9331017" lon="-1.2770967"><ele>116.5</ele><time>2026-04-25T07:03:46.06Z</time></trkpt><trkpt lat="37.9329383" lon="-1.277335"><ele>117.0</ele><time>2026-04-25T07:03:47.059Z</time></trkpt><trkpt lat="37.9327717" lon="-1.2775767"><ele>117.0</ele><time>2026-04-25T07:03:48.059Z</time></trkpt><trkpt lat="37.932605" lon="-1.2778233"><ele>117.0</ele><time>2026-04-25T07:03:49.066Z</time></trkpt><trkpt lat="37.9324383" lon="-1.27807"><ele>117.0</ele><time>2026-04-25T07:03:50.067Z</time></trkpt><trkpt lat="37.93227" lon="-1.2783183"><ele>117.0</ele><time>2026-04-25T07:03:51.062Z</time></trkpt><trkpt lat="37.9321017" lon="-1.27857"><ele>117.0</ele><time>2026-04-25T07:03:52.059Z</time></trkpt><trkpt lat="37.9319333" lon="-1.2788233"><ele>117.0</ele><time>2026-04-25T07:03:53.062Z</time></trkpt><trkpt lat="37.9317633" lon="-1.2790767"><ele>116.5</ele><time>2026-04-25T07:03:54.06Z</time></trkpt><trkpt lat="37.9315917" lon="-1.27933"><ele>116.0</ele><time>2026-04-25T07:03:55.058Z</time></trkpt><trkpt lat="37.931415" lon="-1.2795817"><ele>117.0</ele><time>2026-04-25T07:03:56.062Z</time></trkpt><trkpt lat="37.931235" lon="-1.279835"><ele>118.0</ele><time>2026-04-25T07:03:57.058Z</time></trkpt><trkpt lat="37.9310533" lon="-1.280085"><ele>117.5</ele><time>2026-04-25T07:03:58.057Z</time></trkpt><trkpt lat="37.9308717" lon="-1.280335"><ele>117.0</ele><time>2026-04-25T07:03:59.059Z</time></trkpt><trkpt lat="37.9306867" lon="-1.2805867"><ele>118.0</ele><time>2026-04-25T07:04:00.059Z</time></trkpt><trkpt lat="37.9305" lon="-1.2808367"><ele>119.0</ele><time>2026-04-25T07:04:01.064Z</time></trkpt><trkpt lat="37.9303117" lon="-1.2810883"><ele>119.0</ele><time>2026-04-25T07:04:02.059Z</time></trkpt><trkpt lat="37.9301233" lon="-1.28134"><ele>119.0</ele><time>2026-04-25T07:04:03.067Z</time></trkpt><trkpt lat="37.929935" lon="-1.2815917"><ele>119.5</ele><time>2026-04-25T07:04:04.058Z</time></trkpt><trkpt lat="37.9297417" lon="-1.2818417"><ele>120.0</ele><time>2026-04-25T07:04:05.06Z</time></trkpt><trkpt lat="37.92955" lon="-1.2820917"><ele>119.5</ele><time>2026-04-25T07:04:06.063Z</time></trkpt><trkpt lat="37.9293567" lon="-1.28234"><ele>119.0</ele><time>2026-04-25T07:04:07.066Z</time></trkpt><trkpt lat="37.9291617" lon="-1.282585"><ele>119.0</ele><time>2026-04-25T07:04:08.066Z</time></trkpt><trkpt lat="37.9289617" lon="-1.28283"><ele>119.0</ele><time>2026-04-25T07:04:09.065Z</time></trkpt><trkpt lat="37.9287617" lon="-1.2830717"><ele>120.0</ele><time>2026-04-25T07:04:10.061Z</time></trkpt><trkpt lat="37.92856" lon="-1.2833133"><ele>121.0</ele><time>2026-04-25T07:04:11.065Z</time></trkpt><trkpt lat="37.92836" lon="-1.2835567"><ele>121.0</ele><time>2026-04-25T07:04:12.06Z</time></trkpt><trkpt lat="37.9281617" lon="-1.2838033"><ele>121.0</ele><time>2026-04-25T07:04:13.059Z</time></trkpt><trkpt lat="37.9279633" lon="-1.28405"><ele>122.0</ele><time>2026-04-25T07:04:14.06Z</time></trkpt><trkpt lat="37.927765" lon="-1.284295"><ele>123.0</ele><time>2026-04-25T07:04:15.061Z</time></trkpt><trkpt lat="37.927565" lon="-1.2845417"><ele>123.5</ele><time>2026-04-25T07:04:16.063Z</time></trkpt><trkpt lat="37.9273667" lon="-1.2847883"><ele>124.0</ele><time>2026-04-25T07:04:17.063Z</time></trkpt><trkpt lat="37.9271667" lon="-1.2850333"><ele>124.0</ele><time>2026-04-25T07:04:18.061Z</time></trkpt><trkpt lat="37.9269667" lon="-1.2852767"><ele>124.0</ele><time>2026-04-25T07:04:19.057Z</time></trkpt><trkpt lat="37.92677" lon="-1.2855167"><ele>123.0</ele><time>2026-04-25T07:04:20.063Z</time></trkpt><trkpt lat="37.9265733" lon="-1.2857583"><ele>122.0</ele><time>2026-04-25T07:04:21.062Z</time></trkpt><trkpt lat="37.9263767" lon="-1.2860017"><ele>122.0</ele><time>2026-04-25T07:04:22.064Z</time></trkpt><trkpt lat="37.92618" lon="-1.28625"><ele>122.0</ele><time>2026-04-25T07:04:23.061Z</time></trkpt><trkpt lat="37.925985" lon="-1.2865"><ele>121.5</ele><time>2026-04-25T07:04:24.059Z</time></trkpt><trkpt lat="37.9257917" lon="-1.2867517"><ele>121.0</ele><time>2026-04-25T07:04:25.06Z</time></trkpt><trkpt lat="37.9255967" lon="-1.2870017"><ele>121.0</ele><time>2026-04-25T07:04:26.063Z</time></trkpt><trkpt lat="37.9254017" lon="-1.28725"><ele>121.0</ele><time>2026-04-25T07:04:27.059Z</time></trkpt><trkpt lat="37.9252067" lon="-1.2874983"><ele>121.5</ele><time>2026-04-25T07:04:28.06Z</time></trkpt><trkpt lat="37.9250117" lon="-1.2877467"><ele>122.0</ele><time>2026-04-25T07:04:29.061Z</time></trkpt><trkpt lat="37.9248167" lon="-1.2879933"><ele>122.0</ele><time>2026-04-25T07:04:30.06Z</time></trkpt><trkpt lat="37.924625" lon="-1.2882417"><ele>122.0</ele><time>2026-04-25T07:04:31.062Z</time></trkpt><trkpt lat="37.9244333" lon="-1.2884917"><ele>122.0</ele><time>2026-04-25T07:04:32.065Z</time></trkpt><trkpt lat="37.9242433" lon="-1.2887417"><ele>122.0</ele><time>2026-04-25T07:04:33.059Z</time></trkpt><trkpt lat="37.9240533" lon="-1.2889917"><ele>122.5</ele><time>2026-04-25T07:04:34.06Z</time></trkpt><trkpt lat="37.9238617" lon="-1.2892383"><ele>123.0</ele><time>2026-04-25T07:04:35.062Z</time></trkpt><trkpt lat="37.92367" lon="-1.289485"><ele>123.0</ele><time>2026-04-25T07:04:36.06Z</time></trkpt><trkpt lat="37.9234767" lon="-1.28973"><ele>123.0</ele><time>2026-04-25T07:04:37.065Z</time></trkpt><trkpt lat="37.923285" lon="-1.28998"><ele>124.0</ele><time>2026-04-25T07:04:38.059Z</time></trkpt><trkpt lat="37.9230983" lon="-1.2902383"><ele>125.0</ele><time>2026-04-25T07:04:39.057Z</time></trkpt><trkpt lat="37.9229183" lon="-1.2905067"><ele>125.0</ele><time>2026-04-25T07:04:40.061Z</time></trkpt><trkpt lat="37.9227467" lon="-1.2907817"><ele>125.0</ele><time>2026-04-25T07:04:41.062Z</time></trkpt><trkpt lat="37.922585" lon="-1.29107"><ele>125.0</ele><time>2026-04-25T07:04:42.064Z</time></trkpt><trkpt lat="37.9224317" lon="-1.2913633"><ele>125.0</ele><time>2026-04-25T07:04:43.06Z</time></trkpt><trkpt lat="37.9222883" lon="-1.2916633"><ele>125.0</ele><time>2026-04-25T07:04:44.062Z</time></trkpt><trkpt lat="37.9221517" lon="-1.2919683"><ele>125.0</ele><time>2026-04-25T07:04:45.06Z</time></trkpt><trkpt lat="37.9220217" lon="-1.292275"><ele>126.0</ele><time>2026-04-25T07:04:46.061Z</time></trkpt><trkpt lat="37.9219017" lon="-1.292585"><ele>127.0</ele><time>2026-04-25T07:04:47.065Z</time></trkpt><trkpt lat="37.9217933" lon="-1.2929017"><ele>128.5</ele><time>2026-04-25T07:04:48.059Z</time></trkpt><trkpt lat="37.92169" lon="-1.29322"><ele>130.0</ele><time>2026-04-25T07:04:49.063Z</time></trkpt><trkpt lat="37.921595" lon="-1.2935417"><ele>130.0</ele><time>2026-04-25T07:04:50.062Z</time></trkpt><trkpt lat="37.92151" lon="-1.293865"><ele>130.0</ele><time>2026-04-25T07:04:51.064Z</time></trkpt><trkpt lat="37.921435" lon="-1.2941883"><ele>131.0</ele><time>2026-04-25T07:04:52.063Z</time></trkpt><trkpt lat="37.92137" lon="-1.2945133"><ele>132.0</ele><time>2026-04-25T07:04:53.061Z</time></trkpt><trkpt lat="37.9213067" lon="-1.2948367"><ele>133.5</ele><time>2026-04-25T07:04:54.061Z</time></trkpt><trkpt lat="37.9212483" lon="-1.2951633"><ele>135.0</ele><time>2026-04-25T07:04:55.061Z</time></trkpt><trkpt lat="37.92119" lon="-1.2954867"><ele>137.0</ele><time>2026-04-25T07:04:56.063Z</time></trkpt><trkpt lat="37.9211317" lon="-1.2958067"><ele>139.0</ele><time>2026-04-25T07:04:57.058Z</time></trkpt><trkpt lat="37.921075" lon="-1.2961217"><ele>139.0</ele><time>2026-04-25T07:04:58.062Z</time></trkpt><trkpt lat="37.9210167" lon="-1.2964267"><ele>139.0</ele><time>2026-04-25T07:04:59.058Z</time></trkpt><trkpt lat="37.9209533" lon="-1.29673"><ele>137.0</ele><time>2026-04-25T07:05:00.061Z</time></trkpt><trkpt lat="37.920885" lon="-1.2970433"><ele>135.0</ele><time>2026-04-25T07:05:01.063Z</time></trkpt><trkpt lat="37.9208133" lon="-1.2973633"><ele>134.5</ele><time>2026-04-25T07:05:02.058Z</time></trkpt><trkpt lat="37.9207417" lon="-1.29769"><ele>134.0</ele><time>2026-04-25T07:05:03.059Z</time></trkpt><trkpt lat="37.9206633" lon="-1.2980167"><ele>134.0</ele><time>2026-04-25T07:05:04.062Z</time></trkpt><trkpt lat="37.9205767" lon="-1.2983433"><ele>134.0</ele><time>2026-04-25T07:05:05.059Z</time></trkpt><trkpt lat="37.92048" lon="-1.2986667"><ele>136.0</ele><time>2026-04-25T07:05:06.057Z</time></trkpt><trkpt lat="37.9203733" lon="-1.2989867"><ele>138.0</ele><time>2026-04-25T07:05:07.059Z</time></trkpt><trkpt lat="37.92026" lon="-1.299305"><ele>138.0</ele><time>2026-04-25T07:05:08.062Z</time></trkpt><trkpt lat="37.9201417" lon="-1.2996183"><ele>138.0</ele><time>2026-04-25T07:05:09.066Z</time></trkpt><trkpt lat="37.920025" lon="-1.2999317"><ele>135.0</ele><time>2026-04-25T07:05:10.063Z</time></trkpt><trkpt lat="37.9199017" lon="-1.3002417"><ele>132.0</ele><time>2026-04-25T07:05:11.066Z</time></trkpt><trkpt lat="37.9197667" lon="-1.3005467"><ele>131.0</ele><time>2026-04-25T07:05:12.061Z</time></trkpt><trkpt lat="37.9196217" lon="-1.3008467"><ele>130.0</ele><time>2026-04-25T07:05:13.057Z</time></trkpt><trkpt lat="37.9194667" lon="-1.3011417"><ele>130.0</ele><time>2026-04-25T07:05:14.059Z</time></trkpt><trkpt lat="37.9193033" lon="-1.30143"><ele>130.0</ele><time>2026-04-25T07:05:15.059Z</time></trkpt><trkpt lat="37.9191317" lon="-1.3017117"><ele>130.0</ele><time>2026-04-25T07:05:16.06Z</time></trkpt><trkpt lat="37.9189567" lon="-1.3019867"><ele>130.0</ele><time>2026-04-25T07:05:17.061Z</time></trkpt><trkpt lat="37.9187733" lon="-1.3022583"><ele>131.0</ele><time>2026-04-25T07:05:18.063Z</time></trkpt><trkpt lat="37.9185867" lon="-1.302525"><ele>132.0</ele><time>2026-04-25T07:05:19.066Z</time></trkpt><trkpt lat="37.9183967" lon="-1.3027883"><ele>132.0</ele><time>2026-04-25T07:05:20.07Z</time></trkpt><trkpt lat="37.918205" lon="-1.3030517"><ele>132.0</ele><time>2026-04-25T07:05:21.062Z</time></trkpt><trkpt lat="37.9180117" lon="-1.3033167"><ele>132.0</ele><time>2026-04-25T07:05:22.059Z</time></trkpt><trkpt lat="37.9178183" lon="-1.3035817"><ele>132.0</ele><time>2026-04-25T07:05:23.059Z</time></trkpt><trkpt lat="37.917625" lon="-1.3038433"><ele>132.0</ele><time>2026-04-25T07:05:24.065Z</time></trkpt><trkpt lat="37.9174317" lon="-1.3041017"><ele>132.0</ele><time>2026-04-25T07:05:25.061Z</time></trkpt><trkpt lat="37.91724" lon="-1.3043617"><ele>132.0</ele><time>2026-04-25T07:05:26.059Z</time></trkpt><trkpt lat="37.9170483" lon="-1.30462"><ele>132.0</ele><time>2026-04-25T07:05:27.059Z</time></trkpt><trkpt lat="37.9168567" lon="-1.3048783"><ele>135.0</ele><time>2026-04-25T07:05:28.058Z</time></trkpt><trkpt lat="37.9166667" lon="-1.3051333"><ele>138.0</ele><time>2026-04-25T07:05:29.059Z</time></trkpt><trkpt lat="37.916475" lon="-1.3053867"><ele>138.5</ele><time>2026-04-25T07:05:30.06Z</time></trkpt><trkpt lat="37.916285" lon="-1.3056367"><ele>139.0</ele><time>2026-04-25T07:05:31.06Z</time></trkpt><trkpt lat="37.9160967" lon="-1.305885"><ele>139.0</ele><time>2026-04-25T07:05:32.061Z</time></trkpt><trkpt lat="37.9159083" lon="-1.3061317"><ele>139.0</ele><time>2026-04-25T07:05:33.064Z</time></trkpt><trkpt lat="37.9157233" lon="-1.30638"><ele>139.5</ele><time>2026-04-25T07:05:34.065Z</time></trkpt><trkpt lat="37.9155417" lon="-1.3066267"><ele>140.0</ele><time>2026-04-25T07:05:35.06Z</time></trkpt><trkpt lat="37.9153583" lon="-1.306875"><ele>140.0</ele><time>2026-04-25T07:05:36.064Z</time></trkpt><trkpt lat="37.9151783" lon="-1.3071233"><ele>140.0</ele><time>2026-04-25T07:05:37.058Z</time></trkpt><trkpt lat="37.9149983" lon="-1.3073767"><ele>141.5</ele><time>2026-04-25T07:05:38.058Z</time></trkpt><trkpt lat="37.9148233" lon="-1.307635"><ele>143.0</ele><time>2026-04-25T07:05:39.062Z</time></trkpt><trkpt lat="37.9146483" lon="-1.3078933"><ele>143.0</ele><time>2026-04-25T07:05:40.061Z</time></trkpt><trkpt lat="37.9144733" lon="-1.3081483"><ele>143.0</ele><time>2026-04-25T07:05:41.059Z</time></trkpt><trkpt lat="37.914295" lon="-1.3083983"><ele>141.5</ele><time>2026-04-25T07:05:42.061Z</time></trkpt><trkpt lat="37.914115" lon="-1.3086433"><ele>140.0</ele><time>2026-04-25T07:05:43.066Z</time></trkpt><trkpt lat="37.913935" lon="-1.30889"><ele>142.5</ele><time>2026-04-25T07:05:44.059Z</time></trkpt><trkpt lat="37.913755" lon="-1.3091367"><ele>145.0</ele><time>2026-04-25T07:05:45.058Z</time></trkpt><trkpt lat="37.913575" lon="-1.3093867"><ele>145.5</ele><time>2026-04-25T07:05:46.057Z</time></trkpt><trkpt lat="37.913395" lon="-1.3096383"><ele>146.0</ele><time>2026-04-25T07:05:47.062Z</time></trkpt><trkpt lat="37.913215" lon="-1.30989"><ele>146.0</ele><time>2026-04-25T07:05:48.06Z</time></trkpt><trkpt lat="37.9130333" lon="-1.31014"><ele>146.0</ele><time>2026-04-25T07:05:49.058Z</time></trkpt><trkpt lat="37.9128517" lon="-1.3103883"><ele>148.5</ele><time>2026-04-25T07:05:50.058Z</time></trkpt><trkpt lat="37.9126683" lon="-1.310635"><ele>151.0</ele><time>2026-04-25T07:05:51.058Z</time></trkpt><trkpt lat="37.9124833" lon="-1.31088"><ele>151.0</ele><time>2026-04-25T07:05:52.062Z</time></trkpt><trkpt lat="37.9122983" lon="-1.3111267"><ele>151.0</ele><time>2026-04-25T07:05:53.059Z</time></trkpt><trkpt lat="37.9121133" lon="-1.3113733"><ele>151.5</ele><time>2026-04-25T07:05:54.063Z</time></trkpt><trkpt lat="37.9119317" lon="-1.3116233"><ele>152.0</ele><time>2026-04-25T07:05:55.06Z</time></trkpt><trkpt lat="37.9117483" lon="-1.31187"><ele>152.5</ele><time>2026-04-25T07:05:56.059Z</time></trkpt><trkpt lat="37.9115667" lon="-1.31212"><ele>153.0</ele><time>2026-04-25T07:05:57.06Z</time></trkpt><trkpt lat="37.911385" lon="-1.3123717"><ele>153.0</ele><time>2026-04-25T07:05:58.064Z</time></trkpt><trkpt lat="37.911205" lon="-1.3126233"><ele>153.0</ele><time>2026-04-25T07:05:59.061Z</time></trkpt><trkpt lat="37.911025" lon="-1.3128783"><ele>151.5</ele><time>2026-04-25T07:06:00.072Z</time></trkpt><trkpt lat="37.9108483" lon="-1.31314"><ele>150.0</ele><time>2026-04-25T07:06:01.062Z</time></trkpt><trkpt lat="37.9106733" lon="-1.313405"><ele>150.0</ele><time>2026-04-25T07:06:02.061Z</time></trkpt><trkpt lat="37.9104983" lon="-1.3136717"><ele>150.0</ele><time>2026-04-25T07:06:03.059Z</time></trkpt><trkpt lat="37.910325" lon="-1.31394"><ele>149.5</ele><time>2026-04-25T07:06:04.063Z</time></trkpt><trkpt lat="37.9101533" lon="-1.3142083"><ele>149.0</ele><time>2026-04-25T07:06:05.06Z</time></trkpt><trkpt lat="37.9099833" lon="-1.3144783"><ele>151.5</ele><time>2026-04-25T07:06:06.062Z</time></trkpt><trkpt lat="37.909815" lon="-1.31475"><ele>154.0</ele><time>2026-04-25T07:06:07.066Z</time></trkpt><trkpt lat="37.909645" lon="-1.315025"><ele>154.0</ele><time>2026-04-25T07:06:08.059Z</time></trkpt><trkpt lat="37.9094767" lon="-1.3153"><ele>154.0</ele><time>2026-04-25T07:06:09.057Z</time></trkpt><trkpt lat="37.9093033" lon="-1.3155767"><ele>153.0</ele><time>2026-04-25T07:06:10.059Z</time></trkpt><trkpt lat="37.9091317" lon="-1.3158517"><ele>152.0</ele><time>2026-04-25T07:06:11.061Z</time></trkpt><trkpt lat="37.9089583" lon="-1.3161283"><ele>152.5</ele><time>2026-04-25T07:06:12.062Z</time></trkpt><trkpt lat="37.9087817" lon="-1.3164083"><ele>153.0</ele><time>2026-04-25T07:06:13.063Z</time></trkpt><trkpt lat="37.9086083" lon="-1.31669"><ele>153.0</ele><time>2026-04-25T07:06:14.061Z</time></trkpt><trkpt lat="37.9084383" lon="-1.3169717"><ele>153.0</ele><time>2026-04-25T07:06:15.062Z</time></trkpt><trkpt lat="37.9082717" lon="-1.3172517"><ele>152.5</ele><time>2026-04-25T07:06:16.06Z</time></trkpt><trkpt lat="37.90811" lon="-1.3175317"><ele>152.0</ele><time>2026-04-25T07:06:17.063Z</time></trkpt><trkpt lat="37.9079533" lon="-1.317815"><ele>153.0</ele><time>2026-04-25T07:06:18.064Z</time></trkpt><trkpt lat="37.9078" lon="-1.3181"><ele>154.0</ele><time>2026-04-25T07:06:19.062Z</time></trkpt><trkpt lat="37.907645" lon="-1.3183833"><ele>152.5</ele><time>2026-04-25T07:06:20.062Z</time></trkpt><trkpt lat="37.9074917" lon="-1.31867"><ele>151.0</ele><time>2026-04-25T07:06:21.062Z</time></trkpt><trkpt lat="37.9073383" lon="-1.3189567"><ele>151.0</ele><time>2026-04-25T07:06:22.069Z</time></trkpt><trkpt lat="37.9071867" lon="-1.3192467"><ele>151.0</ele><time>2026-04-25T07:06:23.059Z</time></trkpt><trkpt lat="37.9070367" lon="-1.3195433"><ele>151.0</ele><time>2026-04-25T07:06:24.06Z</time></trkpt><trkpt lat="37.9068867" lon="-1.3198417"><ele>151.0</ele><time>2026-04-25T07:06:25.059Z</time></trkpt><trkpt lat="37.90674" lon="-1.3201383"><ele>151.0</ele><time>2026-04-25T07:06:26.064Z</time></trkpt><trkpt lat="37.9065883" lon="-1.3204383"><ele>151.0</ele><time>2026-04-25T07:06:27.06Z</time></trkpt><trkpt lat="37.9064367" lon="-1.3207383"><ele>152.0</ele><time>2026-04-25T07:06:28.061Z</time></trkpt><trkpt lat="37.9062833" lon="-1.32104"><ele>153.0</ele><time>2026-04-25T07:06:29.06Z</time></trkpt><trkpt lat="37.906125" lon="-1.3213383"><ele>152.5</ele><time>2026-04-25T07:06:30.06Z</time></trkpt><trkpt lat="37.90596" lon="-1.3216317"><ele>152.0</ele><time>2026-04-25T07:06:31.058Z</time></trkpt><trkpt lat="37.905785" lon="-1.3219183"><ele>151.0</ele><time>2026-04-25T07:06:32.057Z</time></trkpt><trkpt lat="37.905605" lon="-1.3222"><ele>150.0</ele><time>2026-04-25T07:06:33.075Z</time></trkpt><trkpt lat="37.9054183" lon="-1.3224783"><ele>150.0</ele><time>2026-04-25T07:06:34.063Z</time></trkpt><trkpt lat="37.90523" lon="-1.3227483"><ele>150.0</ele><time>2026-04-25T07:06:35.066Z</time></trkpt><trkpt lat="37.9050317" lon="-1.3230133"><ele>151.0</ele><time>2026-04-25T07:06:36.058Z</time></trkpt><trkpt lat="37.9048317" lon="-1.3232717"><ele>152.0</ele><time>2026-04-25T07:06:37.061Z</time></trkpt><trkpt lat="37.9046267" lon="-1.3235217"><ele>152.0</ele><time>2026-04-25T07:06:38.06Z</time></trkpt><trkpt lat="37.9044183" lon="-1.3237667"><ele>152.0</ele><time>2026-04-25T07:06:39.065Z</time></trkpt><trkpt lat="37.904205" lon="-1.3240033"><ele>152.5</ele><time>2026-04-25T07:06:40.06Z</time></trkpt><trkpt lat="37.90399" lon="-1.324235"><ele>153.0</ele><time>2026-04-25T07:06:41.058Z</time></trkpt><trkpt lat="37.9037717" lon="-1.3244633"><ele>153.0</ele><time>2026-04-25T07:06:42.063Z</time></trkpt><trkpt lat="37.9035533" lon="-1.3246883"><ele>153.0</ele><time>2026-04-25T07:06:43.065Z</time></trkpt><trkpt lat="37.9033367" lon="-1.3249133"><ele>154.5</ele><time>2026-04-25T07:06:44.061Z</time></trkpt><trkpt lat="37.9031183" lon="-1.3251383"><ele>156.0</ele><time>2026-04-25T07:06:45.061Z</time></trkpt><trkpt lat="37.9029" lon="-1.3253667"><ele>156.5</ele><time>2026-04-25T07:06:46.061Z</time></trkpt><trkpt lat="37.9026867" lon="-1.3256033"><ele>157.0</ele><time>2026-04-25T07:06:47.059Z</time></trkpt><trkpt lat="37.9024767" lon="-1.3258533"><ele>156.0</ele><time>2026-04-25T07:06:48.067Z</time></trkpt><trkpt lat="37.9022767" lon="-1.3261133"><ele>155.0</ele><time>2026-04-25T07:06:49.066Z</time></trkpt><trkpt lat="37.902085" lon="-1.3263817"><ele>154.5</ele><time>2026-04-25T07:06:50.06Z</time></trkpt><trkpt lat="37.9018967" lon="-1.3266567"><ele>154.0</ele><time>2026-04-25T07:06:51.062Z</time></trkpt><trkpt lat="37.901715" lon="-1.3269367"><ele>153.5</ele><time>2026-04-25T07:06:52.07Z</time></trkpt><trkpt lat="37.901535" lon="-1.3272183"><ele>153.0</ele><time>2026-04-25T07:06:53.06Z</time></trkpt><trkpt lat="37.9013583" lon="-1.3274983"><ele>153.0</ele><time>2026-04-25T07:06:54.066Z</time></trkpt><trkpt lat="37.901185" lon="-1.3277767"><ele>153.0</ele><time>2026-04-25T07:06:55.06Z</time></trkpt><trkpt lat="37.9010117" lon="-1.3280517"><ele>154.0</ele><time>2026-04-25T07:06:56.065Z</time></trkpt><trkpt lat="37.9008383" lon="-1.3283267"><ele>155.0</ele><time>2026-04-25T07:06:57.061Z</time></trkpt><trkpt lat="37.9006683" lon="-1.3286"><ele>155.0</ele><time>2026-04-25T07:06:58.061Z</time></trkpt><trkpt lat="37.9004967" lon="-1.32887"><ele>155.0</ele><time>2026-04-25T07:06:59.062Z</time></trkpt><trkpt lat="37.9003233" lon="-1.32914"><ele>154.5</ele><time>2026-04-25T07:07:00.065Z</time></trkpt><trkpt lat="37.90015" lon="-1.3294117"><ele>154.0</ele><time>2026-04-25T07:07:01.067Z</time></trkpt><trkpt lat="37.899975" lon="-1.3296833"><ele>154.5</ele><time>2026-04-25T07:07:02.063Z</time></trkpt><trkpt lat="37.8998033" lon="-1.32995"><ele>155.0</ele><time>2026-04-25T07:07:03.062Z</time></trkpt><trkpt lat="37.8996367" lon="-1.3302167"><ele>155.0</ele><time>2026-04-25T07:07:04.064Z</time></trkpt><trkpt lat="37.89947" lon="-1.33048"><ele>155.0</ele><time>2026-04-25T07:07:05.062Z</time></trkpt><trkpt lat="37.8993033" lon="-1.3307383"><ele>153.5</ele><time>2026-04-25T07:07:06.059Z</time></trkpt><trkpt lat="37.89914" lon="-1.3309883"><ele>152.0</ele><time>2026-04-25T07:07:07.059Z</time></trkpt><trkpt lat="37.8989783" lon="-1.3312383"><ele>154.0</ele><time>2026-04-25T07:07:08.061Z</time></trkpt><trkpt lat="37.898815" lon="-1.331485"><ele>156.0</ele><time>2026-04-25T07:07:09.064Z</time></trkpt><trkpt lat="37.8986467" lon="-1.33173"><ele>156.0</ele><time>2026-04-25T07:07:10.062Z</time></trkpt><trkpt lat="37.898475" lon="-1.33198"><ele>156.0</ele><time>2026-04-25T07:07:11.067Z</time></trkpt><trkpt lat="37.8983" lon="-1.3322333"><ele>156.5</ele><time>2026-04-25T07:07:12.063Z</time></trkpt><trkpt lat="37.8981217" lon="-1.3324883"><ele>157.0</ele><time>2026-04-25T07:07:13.066Z</time></trkpt><trkpt lat="37.8979417" lon="-1.3327417"><ele>157.0</ele><time>2026-04-25T07:07:14.064Z</time></trkpt><trkpt lat="37.897765" lon="-1.332995"><ele>157.0</ele><time>2026-04-25T07:07:15.069Z</time></trkpt><trkpt lat="37.8975883" lon="-1.3332483"><ele>156.0</ele><time>2026-04-25T07:07:16.061Z</time></trkpt><trkpt lat="37.8974117" lon="-1.3335033"><ele>155.0</ele><time>2026-04-25T07:07:17.064Z</time></trkpt><trkpt lat="37.897235" lon="-1.3337567"><ele>156.0</ele><time>2026-04-25T07:07:18.07Z</time></trkpt><trkpt lat="37.8970583" lon="-1.3340117"><ele>157.0</ele><time>2026-04-25T07:07:19.059Z</time></trkpt><trkpt lat="37.8968817" lon="-1.3342667"><ele>154.5</ele><time>2026-04-25T07:07:20.064Z</time></trkpt><trkpt lat="37.8967033" lon="-1.3345233"><ele>152.0</ele><time>2026-04-25T07:07:21.059Z</time></trkpt><trkpt lat="37.896525" lon="-1.3347817"><ele>152.0</ele><time>2026-04-25T07:07:22.06Z</time></trkpt><trkpt lat="37.8963467" lon="-1.3350417"><ele>152.0</ele><time>2026-04-25T07:07:23.063Z</time></trkpt><trkpt lat="37.89617" lon="-1.3353017"><ele>152.5</ele><time>2026-04-25T07:07:24.06Z</time></trkpt><trkpt lat="37.8959917" lon="-1.3355617"><ele>153.0</ele><time>2026-04-25T07:07:25.069Z</time></trkpt><trkpt lat="37.8958133" lon="-1.33582"><ele>153.5</ele><time>2026-04-25T07:07:26.071Z</time></trkpt><trkpt lat="37.8956367" lon="-1.3360767"><ele>154.0</ele><time>2026-04-25T07:07:27.065Z</time></trkpt><trkpt lat="37.8954583" lon="-1.3363317"><ele>153.5</ele><time>2026-04-25T07:07:28.061Z</time></trkpt><trkpt lat="37.89528" lon="-1.33659"><ele>153.0</ele><time>2026-04-25T07:07:29.061Z</time></trkpt><trkpt lat="37.8951" lon="-1.3368467"><ele>154.0</ele><time>2026-04-25T07:07:30.063Z</time></trkpt><trkpt lat="37.89492" lon="-1.3371083"><ele>155.0</ele><time>2026-04-25T07:07:31.059Z</time></trkpt><trkpt lat="37.8947417" lon="-1.3373733"><ele>157.0</ele><time>2026-04-25T07:07:32.062Z</time></trkpt><trkpt lat="37.8945667" lon="-1.337645"><ele>159.0</ele><time>2026-04-25T07:07:33.057Z</time></trkpt><trkpt lat="37.8943967" lon="-1.3379217"><ele>161.0</ele><time>2026-04-25T07:07:34.062Z</time></trkpt><trkpt lat="37.894235" lon="-1.338205"><ele>163.0</ele><time>2026-04-25T07:07:35.069Z</time></trkpt><trkpt lat="37.8940833" lon="-1.3384933"><ele>163.0</ele><time>2026-04-25T07:07:36.062Z</time></trkpt><trkpt lat="37.8939433" lon="-1.3387833"><ele>163.0</ele><time>2026-04-25T07:07:37.06Z</time></trkpt><trkpt lat="37.89381" lon="-1.3390783"><ele>163.0</ele><time>2026-04-25T07:07:38.069Z</time></trkpt><trkpt lat="37.8936833" lon="-1.33938"><ele>163.0</ele><time>2026-04-25T07:07:39.061Z</time></trkpt><trkpt lat="37.8935633" lon="-1.3396867"><ele>163.0</ele><time>2026-04-25T07:07:40.06Z</time></trkpt><trkpt lat="37.89345" lon="-1.3399967"><ele>163.0</ele><time>2026-04-25T07:07:41.063Z</time></trkpt><trkpt lat="37.8933467" lon="-1.340315"><ele>163.0</ele><time>2026-04-25T07:07:42.065Z</time></trkpt><trkpt lat="37.8932533" lon="-1.3406417"><ele>163.0</ele><time>2026-04-25T07:07:43.063Z</time></trkpt><trkpt lat="37.8931717" lon="-1.340975"><ele>163.0</ele><time>2026-04-25T07:07:44.067Z</time></trkpt><trkpt lat="37.8931" lon="-1.3413117"><ele>163.0</ele><time>2026-04-25T07:07:45.063Z</time></trkpt><trkpt lat="37.8930333" lon="-1.3416483"><ele>164.0</ele><time>2026-04-25T07:07:46.06Z</time></trkpt><trkpt lat="37.8929733" lon="-1.3419833"><ele>165.0</ele><time>2026-04-25T07:07:47.061Z</time></trkpt><trkpt lat="37.8929283" lon="-1.342325"><ele>166.0</ele><time>2026-04-25T07:07:48.06Z</time></trkpt><trkpt lat="37.8928883" lon="-1.34267"><ele>167.0</ele><time>2026-04-25T07:07:49.062Z</time></trkpt><trkpt lat="37.8928567" lon="-1.3430167"><ele>167.0</ele><time>2026-04-25T07:07:50.065Z</time></trkpt><trkpt lat="37.892835" lon="-1.3433617"><ele>167.0</ele><time>2026-04-25T07:07:51.062Z</time></trkpt><trkpt lat="37.8928167" lon="-1.3437067"><ele>168.0</ele><time>2026-04-25T07:07:52.061Z</time></trkpt><trkpt lat="37.8928" lon="-1.3440517"><ele>169.0</ele><time>2026-04-25T07:07:53.067Z</time></trkpt><trkpt lat="37.8927833" lon="-1.3444"><ele>170.0</ele><time>2026-04-25T07:07:54.061Z</time></trkpt><trkpt lat="37.892765" lon="-1.3447483"><ele>171.0</ele><time>2026-04-25T07:07:55.061Z</time></trkpt><trkpt lat="37.8927467" lon="-1.3450983"><ele>171.0</ele><time>2026-04-25T07:07:56.061Z</time></trkpt><trkpt lat="37.8927267" lon="-1.3454483"><ele>171.0</ele><time>2026-04-25T07:07:57.057Z</time></trkpt><trkpt lat="37.8927083" lon="-1.3458"><ele>171.0</ele><time>2026-04-25T07:07:58.066Z</time></trkpt><trkpt lat="37.89269" lon="-1.3461517"><ele>171.0</ele><time>2026-04-25T07:07:59.062Z</time></trkpt><trkpt lat="37.8926717" lon="-1.346505"><ele>171.0</ele><time>2026-04-25T07:08:00.064Z</time></trkpt><trkpt lat="37.8926517" lon="-1.3468583"><ele>171.0</ele><time>2026-04-25T07:08:01.066Z</time></trkpt><trkpt lat="37.8926333" lon="-1.3472133"><ele>172.0</ele><time>2026-04-25T07:08:02.062Z</time></trkpt><trkpt lat="37.892615" lon="-1.3475683"><ele>173.0</ele><time>2026-04-25T07:08:03.063Z</time></trkpt><trkpt lat="37.8925967" lon="-1.347925"><ele>174.0</ele><time>2026-04-25T07:08:04.059Z</time></trkpt><trkpt lat="37.89258" lon="-1.3482817"><ele>175.0</ele><time>2026-04-25T07:08:05.058Z</time></trkpt><trkpt lat="37.8925583" lon="-1.34864"><ele>175.0</ele><time>2026-04-25T07:08:06.061Z</time></trkpt><trkpt lat="37.892535" lon="-1.3489917"><ele>175.0</ele><time>2026-04-25T07:08:07.059Z</time></trkpt><trkpt lat="37.8925083" lon="-1.349345"><ele>175.0</ele><time>2026-04-25T07:08:08.067Z</time></trkpt><trkpt lat="37.8924767" lon="-1.3496967"><ele>175.0</ele><time>2026-04-25T07:08:09.07Z</time></trkpt><trkpt lat="37.8924383" lon="-1.3500483"><ele>175.5</ele><time>2026-04-25T07:08:10.068Z</time></trkpt><trkpt lat="37.8923883" lon="-1.3504017"><ele>176.0</ele><time>2026-04-25T07:08:11.062Z</time></trkpt><trkpt lat="37.89233" lon="-1.3507533"><ele>176.0</ele><time>2026-04-25T07:08:12.062Z</time></trkpt><trkpt lat="37.89226" lon="-1.3511017"><ele>176.0</ele><time>2026-04-25T07:08:13.063Z</time></trkpt><trkpt lat="37.8921867" lon="-1.3514483"><ele>175.5</ele><time>2026-04-25T07:08:14.06Z</time></trkpt><trkpt lat="37.8921083" lon="-1.3517917"><ele>175.0</ele><time>2026-04-25T07:08:15.061Z</time></trkpt><trkpt lat="37.89202" lon="-1.3521283"><ele>175.0</ele><time>2026-04-25T07:08:16.061Z</time></trkpt><trkpt lat="37.8919167" lon="-1.35246"><ele>175.0</ele><time>2026-04-25T07:08:17.064Z</time></trkpt><trkpt lat="37.8918067" lon="-1.3527833"><ele>176.0</ele><time>2026-04-25T07:08:18.064Z</time></trkpt><trkpt lat="37.891685" lon="-1.3530967"><ele>177.0</ele><time>2026-04-25T07:08:19.061Z</time></trkpt><trkpt lat="37.8915583" lon="-1.3534017"><ele>177.0</ele><time>2026-04-25T07:08:20.06Z</time></trkpt><trkpt lat="37.891425" lon="-1.3537033"><ele>177.0</ele><time>2026-04-25T07:08:21.06Z</time></trkpt><trkpt lat="37.891285" lon="-1.3540067"><ele>178.0</ele><time>2026-04-25T07:08:22.061Z</time></trkpt><trkpt lat="37.891135" lon="-1.3543033"><ele>179.0</ele><time>2026-04-25T07:08:23.059Z</time></trkpt><trkpt lat="37.89098" lon="-1.3545983"><ele>179.0</ele><time>2026-04-25T07:08:24.06Z</time></trkpt><trkpt lat="37.8908233" lon="-1.3548917"><ele>179.0</ele><time>2026-04-25T07:08:25.064Z</time></trkpt><trkpt lat="37.8906633" lon="-1.3551833"><ele>179.0</ele><time>2026-04-25T07:08:26.06Z</time></trkpt><trkpt lat="37.89049" lon="-1.3554683"><ele>179.0</ele><time>2026-04-25T07:08:27.061Z</time></trkpt><trkpt lat="37.89031" lon="-1.355755"><ele>179.5</ele><time>2026-04-25T07:08:28.061Z</time></trkpt><trkpt lat="37.8901233" lon="-1.3560333"><ele>180.0</ele><time>2026-04-25T07:08:29.06Z</time></trkpt><trkpt lat="37.88993" lon="-1.3563033"><ele>179.0</ele><time>2026-04-25T07:08:30.065Z</time></trkpt><trkpt lat="37.8897317" lon="-1.3565733"><ele>178.0</ele><time>2026-04-25T07:08:31.063Z</time></trkpt><trkpt lat="37.889525" lon="-1.3568333"><ele>178.0</ele><time>2026-04-25T07:08:32.064Z</time></trkpt><trkpt lat="37.889315" lon="-1.3570883"><ele>178.0</ele><time>2026-04-25T07:08:33.062Z</time></trkpt><trkpt lat="37.8891" lon="-1.357335"><ele>177.5</ele><time>2026-04-25T07:08:34.064Z</time></trkpt><trkpt lat="37.88888" lon="-1.3575683"><ele>177.0</ele><time>2026-04-25T07:08:35.063Z</time></trkpt><trkpt lat="37.88865" lon="-1.3577933"><ele>177.5</ele><time>2026-04-25T07:08:36.061Z</time></trkpt><trkpt lat="37.8884167" lon="-1.3580083"><ele>178.0</ele><time>2026-04-25T07:08:37.065Z</time></trkpt><trkpt lat="37.888175" lon="-1.3582183"><ele>178.0</ele><time>2026-04-25T07:08:38.062Z</time></trkpt><trkpt lat="37.88793" lon="-1.35842"><ele>178.0</ele><time>2026-04-25T07:08:39.065Z</time></trkpt><trkpt lat="37.887685" lon="-1.3586133"><ele>178.0</ele><time>2026-04-25T07:08:40.06Z</time></trkpt><trkpt lat="37.8874433" lon="-1.3587967"><ele>178.0</ele><time>2026-04-25T07:08:41.061Z</time></trkpt><trkpt lat="37.887205" lon="-1.3589667"><ele>179.0</ele><time>2026-04-25T07:08:42.068Z</time></trkpt><trkpt lat="37.88697" lon="-1.3591283"><ele>180.0</ele><time>2026-04-25T07:08:43.065Z</time></trkpt><trkpt lat="37.8867367" lon="-1.3592817"><ele>178.0</ele><time>2026-04-25T07:08:44.062Z</time></trkpt><trkpt lat="37.8865067" lon="-1.3594283"><ele>176.0</ele><time>2026-04-25T07:08:45.063Z</time></trkpt><trkpt lat="37.8862733" lon="-1.3595683"><ele>177.0</ele><time>2026-04-25T07:08:46.064Z</time></trkpt><trkpt lat="37.88604" lon="-1.359705"><ele>178.0</ele><time>2026-04-25T07:08:47.062Z</time></trkpt><trkpt lat="37.8858067" lon="-1.359835"><ele>178.0</ele><time>2026-04-25T07:08:48.061Z</time></trkpt><trkpt lat="37.8855767" lon="-1.359965"><ele>178.0</ele><time>2026-04-25T07:08:49.058Z</time></trkpt><trkpt lat="37.885345" lon="-1.3600883"><ele>178.0</ele><time>2026-04-25T07:08:50.061Z</time></trkpt><trkpt lat="37.8851133" lon="-1.36021"><ele>178.0</ele><time>2026-04-25T07:08:51.062Z</time></trkpt><trkpt lat="37.8848817" lon="-1.360335"><ele>178.0</ele><time>2026-04-25T07:08:52.065Z</time></trkpt><trkpt lat="37.8846483" lon="-1.360465"><ele>178.0</ele><time>2026-04-25T07:08:53.063Z</time></trkpt><trkpt lat="37.8844117" lon="-1.3605967"><ele>177.5</ele><time>2026-04-25T07:08:54.064Z</time></trkpt><trkpt lat="37.88417" lon="-1.3607233"><ele>177.0</ele><time>2026-04-25T07:08:55.061Z</time></trkpt><trkpt lat="37.8839267" lon="-1.3608533"><ele>177.0</ele><time>2026-04-25T07:08:56.062Z</time></trkpt><trkpt lat="37.8836833" lon="-1.3609817"><ele>177.0</ele><time>2026-04-25T07:08:57.062Z</time></trkpt><trkpt lat="37.8834367" lon="-1.3611083"><ele>176.5</ele><time>2026-04-25T07:08:58.061Z</time></trkpt><trkpt lat="37.8831867" lon="-1.36124"><ele>176.0</ele><time>2026-04-25T07:08:59.062Z</time></trkpt><trkpt lat="37.8829333" lon="-1.3613767"><ele>176.0</ele><time>2026-04-25T07:09:00.062Z</time></trkpt><trkpt lat="37.8826767" lon="-1.3615167"><ele>176.0</ele><time>2026-04-25T07:09:01.061Z</time></trkpt><trkpt lat="37.8824167" lon="-1.3616583"><ele>176.5</ele><time>2026-04-25T07:09:02.065Z</time></trkpt><trkpt lat="37.8821567" lon="-1.36181"><ele>177.0</ele><time>2026-04-25T07:09:03.063Z</time></trkpt><trkpt lat="37.8818967" lon="-1.36197"><ele>177.5</ele><time>2026-04-25T07:09:04.062Z</time></trkpt><trkpt lat="37.8816383" lon="-1.362135"><ele>178.0</ele><time>2026-04-25T07:09:05.063Z</time></trkpt><trkpt lat="37.88138" lon="-1.3623117"><ele>178.5</ele><time>2026-04-25T07:09:06.06Z</time></trkpt><trkpt lat="37.8811183" lon="-1.36249"><ele>179.0</ele><time>2026-04-25T07:09:07.06Z</time></trkpt><trkpt lat="37.8808567" lon="-1.3626717"><ele>178.0</ele><time>2026-04-25T07:09:08.062Z</time></trkpt><trkpt lat="37.880595" lon="-1.362855"><ele>177.0</ele><time>2026-04-25T07:09:09.06Z</time></trkpt><trkpt lat="37.8803333" lon="-1.36304"><ele>176.0</ele><time>2026-04-25T07:09:10.064Z</time></trkpt><trkpt lat="37.8800733" lon="-1.3632283"><ele>175.0</ele><time>2026-04-25T07:09:11.064Z</time></trkpt><trkpt lat="37.8798167" lon="-1.363425"><ele>175.0</ele><time>2026-04-25T07:09:12.063Z</time></trkpt><trkpt lat="37.879565" lon="-1.3636317"><ele>175.0</ele><time>2026-04-25T07:09:13.059Z</time></trkpt><trkpt lat="37.8793217" lon="-1.36385"><ele>176.0</ele><time>2026-04-25T07:09:14.062Z</time></trkpt><trkpt lat="37.8790867" lon="-1.36408"><ele>177.0</ele><time>2026-04-25T07:09:15.063Z</time></trkpt><trkpt lat="37.8788633" lon="-1.3643183"><ele>177.0</ele><time>2026-04-25T07:09:16.061Z</time></trkpt><trkpt lat="37.87865" lon="-1.3645617"><ele>177.0</ele><time>2026-04-25T07:09:17.063Z</time></trkpt><trkpt lat="37.8784417" lon="-1.3648117"><ele>177.0</ele><time>2026-04-25T07:09:18.063Z</time></trkpt><trkpt lat="37.8782433" lon="-1.365075"><ele>177.0</ele><time>2026-04-25T07:09:19.06Z</time></trkpt><trkpt lat="37.8780517" lon="-1.3653433"><ele>178.0</ele><time>2026-04-25T07:09:20.06Z</time></trkpt><trkpt lat="37.8778683" lon="-1.365615"><ele>179.0</ele><time>2026-04-25T07:09:21.06Z</time></trkpt><trkpt lat="37.8776967" lon="-1.36589"><ele>178.5</ele><time>2026-04-25T07:09:22.062Z</time></trkpt><trkpt lat="37.8775383" lon="-1.3661617"><ele>178.0</ele><time>2026-04-25T07:09:23.059Z</time></trkpt><trkpt lat="37.87739" lon="-1.366435"><ele>178.0</ele><time>2026-04-25T07:09:24.062Z</time></trkpt><trkpt lat="37.8772483" lon="-1.3667067"><ele>178.0</ele><time>2026-04-25T07:09:25.065Z</time></trkpt><trkpt lat="37.8771117" lon="-1.3669767"><ele>177.5</ele><time>2026-04-25T07:09:26.063Z</time></trkpt><trkpt lat="37.8769733" lon="-1.3672467"><ele>177.0</ele><time>2026-04-25T07:09:27.067Z</time></trkpt><trkpt lat="37.8768367" lon="-1.367515"><ele>178.0</ele><time>2026-04-25T07:09:28.063Z</time></trkpt><trkpt lat="37.8766983" lon="-1.3677867"><ele>179.0</ele><time>2026-04-25T07:09:29.066Z</time></trkpt><trkpt lat="37.8765583" lon="-1.3680617"><ele>179.5</ele><time>2026-04-25T07:09:30.059Z</time></trkpt><trkpt lat="37.876415" lon="-1.3683417"><ele>180.0</ele><time>2026-04-25T07:09:31.062Z</time></trkpt><trkpt lat="37.87627" lon="-1.3686217"><ele>180.0</ele><time>2026-04-25T07:09:32.064Z</time></trkpt><trkpt lat="37.8761233" lon="-1.3689033"><ele>180.0</ele><time>2026-04-25T07:09:33.06Z</time></trkpt><trkpt lat="37.8759767" lon="-1.3691883"><ele>179.0</ele><time>2026-04-25T07:09:34.063Z</time></trkpt><trkpt lat="37.8758267" lon="-1.3694733"><ele>178.0</ele><time>2026-04-25T07:09:35.064Z</time></trkpt><trkpt lat="37.8756783" lon="-1.3697617"><ele>178.0</ele><time>2026-04-25T07:09:36.062Z</time></trkpt><trkpt lat="37.8755283" lon="-1.37005"><ele>178.0</ele><time>2026-04-25T07:09:37.063Z</time></trkpt><trkpt lat="37.8753783" lon="-1.3703433"><ele>178.0</ele><time>2026-04-25T07:09:38.061Z</time></trkpt><trkpt lat="37.8752283" lon="-1.3706433"><ele>178.0</ele><time>2026-04-25T07:09:39.059Z</time></trkpt><trkpt lat="37.8750717" lon="-1.3709467"><ele>178.0</ele><time>2026-04-25T07:09:40.06Z</time></trkpt><trkpt lat="37.874915" lon="-1.3712517"><ele>178.0</ele><time>2026-04-25T07:09:41.061Z</time></trkpt><trkpt lat="37.874755" lon="-1.3715617"><ele>178.5</ele><time>2026-04-25T07:09:42.059Z</time></trkpt><trkpt lat="37.874595" lon="-1.371875"><ele>179.0</ele><time>2026-04-25T07:09:43.063Z</time></trkpt><trkpt lat="37.8744333" lon="-1.37219"><ele>179.0</ele><time>2026-04-25T07:09:44.062Z</time></trkpt><trkpt lat="37.8742717" lon="-1.3725083"><ele>179.0</ele><time>2026-04-25T07:09:45.066Z</time></trkpt><trkpt lat="37.8741117" lon="-1.3728267"><ele>178.0</ele><time>2026-04-25T07:09:46.06Z</time></trkpt><trkpt lat="37.8739483" lon="-1.3731483"><ele>177.0</ele><time>2026-04-25T07:09:47.062Z</time></trkpt><trkpt lat="37.873785" lon="-1.3734683"><ele>177.0</ele><time>2026-04-25T07:09:48.059Z</time></trkpt><trkpt lat="37.87362" lon="-1.3737883"><ele>177.0</ele><time>2026-04-25T07:09:49.06Z</time></trkpt><trkpt lat="37.8734567" lon="-1.37411"><ele>175.5</ele><time>2026-04-25T07:09:50.064Z</time></trkpt><trkpt lat="37.8732933" lon="-1.3744333"><ele>174.0</ele><time>2026-04-25T07:09:51.06Z</time></trkpt><trkpt lat="37.87313" lon="-1.37476"><ele>173.5</ele><time>2026-04-25T07:09:52.06Z</time></trkpt><trkpt lat="37.8729667" lon="-1.3750867"><ele>173.0</ele><time>2026-04-25T07:09:53.064Z</time></trkpt><trkpt lat="37.8728033" lon="-1.3754133"><ele>173.0</ele><time>2026-04-25T07:09:54.062Z</time></trkpt><trkpt lat="37.8726417" lon="-1.3757367"><ele>173.0</ele><time>2026-04-25T07:09:55.065Z</time></trkpt><trkpt lat="37.8724783" lon="-1.37606"><ele>173.0</ele><time>2026-04-25T07:09:56.06Z</time></trkpt><trkpt lat="37.872315" lon="-1.3763817"><ele>173.0</ele><time>2026-04-25T07:09:57.06Z</time></trkpt><trkpt lat="37.8721517" lon="-1.3767"><ele>173.0</ele><time>2026-04-25T07:09:58.06Z</time></trkpt><trkpt lat="37.8719867" lon="-1.3770167"><ele>173.0</ele><time>2026-04-25T07:09:59.066Z</time></trkpt><trkpt lat="37.871825" lon="-1.3773317"><ele>171.5</ele><time>2026-04-25T07:10:00.062Z</time></trkpt><trkpt lat="37.871665" lon="-1.377645"><ele>170.0</ele><time>2026-04-25T07:10:01.062Z</time></trkpt><trkpt lat="37.871505" lon="-1.3779567"><ele>170.0</ele><time>2026-04-25T07:10:02.061Z</time></trkpt><trkpt lat="37.8713467" lon="-1.3782667"><ele>170.0</ele><time>2026-04-25T07:10:03.061Z</time></trkpt><trkpt lat="37.8711883" lon="-1.378575"><ele>170.0</ele><time>2026-04-25T07:10:04.06Z</time></trkpt><trkpt lat="37.8710317" lon="-1.3788783"><ele>170.0</ele><time>2026-04-25T07:10:05.061Z</time></trkpt><trkpt lat="37.8708767" lon="-1.3791833"><ele>169.5</ele><time>2026-04-25T07:10:06.063Z</time></trkpt><trkpt lat="37.8707167" lon="-1.3794883"><ele>169.0</ele><time>2026-04-25T07:10:07.06Z</time></trkpt><trkpt lat="37.8705583" lon="-1.3797983"><ele>169.0</ele><time>2026-04-25T07:10:08.064Z</time></trkpt><trkpt lat="37.8703967" lon="-1.3801083"><ele>169.0</ele><time>2026-04-25T07:10:09.065Z</time></trkpt><trkpt lat="37.8702367" lon="-1.3804167"><ele>170.0</ele><time>2026-04-25T07:10:10.064Z</time></trkpt><trkpt lat="37.8700767" lon="-1.380725"><ele>171.0</ele><time>2026-04-25T07:10:11.061Z</time></trkpt><trkpt lat="37.8699183" lon="-1.38103"><ele>171.0</ele><time>2026-04-25T07:10:12.064Z</time></trkpt><trkpt lat="37.86976" lon="-1.3813383"><ele>171.0</ele><time>2026-04-25T07:10:13.06Z</time></trkpt><trkpt lat="37.8696017" lon="-1.3816467"><ele>172.0</ele><time>2026-04-25T07:10:14.064Z</time></trkpt><trkpt lat="37.86944" lon="-1.3819533"><ele>173.0</ele><time>2026-04-25T07:10:15.064Z</time></trkpt><trkpt lat="37.869275" lon="-1.3822583"><ele>173.0</ele><time>2026-04-25T07:10:16.057Z</time></trkpt><trkpt lat="37.8691083" lon="-1.38256"><ele>173.0</ele><time>2026-04-25T07:10:17.059Z</time></trkpt><trkpt lat="37.8689467" lon="-1.3828667"><ele>173.0</ele><time>2026-04-25T07:10:18.064Z</time></trkpt><trkpt lat="37.8687867" lon="-1.3831767"><ele>173.0</ele><time>2026-04-25T07:10:19.063Z</time></trkpt><trkpt lat="37.8686267" lon="-1.3834833"><ele>173.0</ele><time>2026-04-25T07:10:20.063Z</time></trkpt><trkpt lat="37.8684683" lon="-1.3837883"><ele>173.0</ele><time>2026-04-25T07:10:21.062Z</time></trkpt><trkpt lat="37.86831" lon="-1.3840917"><ele>172.5</ele><time>2026-04-25T07:10:22.06Z</time></trkpt><trkpt lat="37.8681517" lon="-1.3843967"><ele>172.0</ele><time>2026-04-25T07:10:23.063Z</time></trkpt><trkpt lat="37.867995" lon="-1.3847"><ele>172.0</ele><time>2026-04-25T07:10:24.06Z</time></trkpt><trkpt lat="37.8678367" lon="-1.385005"><ele>172.0</ele><time>2026-04-25T07:10:25.063Z</time></trkpt><trkpt lat="37.8676833" lon="-1.3853083"><ele>170.5</ele><time>2026-04-25T07:10:26.068Z</time></trkpt><trkpt lat="37.8675283" lon="-1.3856133"><ele>169.0</ele><time>2026-04-25T07:10:27.062Z</time></trkpt><trkpt lat="37.867375" lon="-1.38592"><ele>169.0</ele><time>2026-04-25T07:10:28.061Z</time></trkpt><trkpt lat="37.867225" lon="-1.386225"><ele>169.0</ele><time>2026-04-25T07:10:29.061Z</time></trkpt><trkpt lat="37.867075" lon="-1.3865283"><ele>170.0</ele><time>2026-04-25T07:10:30.061Z</time></trkpt><trkpt lat="37.866925" lon="-1.3868267"><ele>171.0</ele><time>2026-04-25T07:10:31.062Z</time></trkpt><trkpt lat="37.8667717" lon="-1.3871233"><ele>171.0</ele><time>2026-04-25T07:10:32.062Z</time></trkpt><trkpt lat="37.8666183" lon="-1.3874217"><ele>171.0</ele><time>2026-04-25T07:10:33.065Z</time></trkpt><trkpt lat="37.8664667" lon="-1.3877167"><ele>172.0</ele><time>2026-04-25T07:10:34.061Z</time></trkpt><trkpt lat="37.8663167" lon="-1.3880133"><ele>173.0</ele><time>2026-04-25T07:10:35.065Z</time></trkpt><trkpt lat="37.8661667" lon="-1.38831"><ele>173.0</ele><time>2026-04-25T07:10:36.063Z</time></trkpt><trkpt lat="37.86602" lon="-1.388605"><ele>173.0</ele><time>2026-04-25T07:10:37.064Z</time></trkpt><trkpt lat="37.8658717" lon="-1.3888983"><ele>172.5</ele><time>2026-04-25T07:10:38.061Z</time></trkpt><trkpt lat="37.86572" lon="-1.3891883"><ele>172.0</ele><time>2026-04-25T07:10:39.061Z</time></trkpt><trkpt lat="37.8655717" lon="-1.38948"><ele>173.5</ele><time>2026-04-25T07:10:40.062Z</time></trkpt><trkpt lat="37.8654217" lon="-1.3897717"><ele>175.0</ele><time>2026-04-25T07:10:41.061Z</time></trkpt><trkpt lat="37.8652733" lon="-1.3900617"><ele>175.0</ele><time>2026-04-25T07:10:42.062Z</time></trkpt><trkpt lat="37.8651267" lon="-1.3903517"><ele>175.0</ele><time>2026-04-25T07:10:43.061Z</time></trkpt><trkpt lat="37.8649783" lon="-1.3906383"><ele>174.5</ele><time>2026-04-25T07:10:44.065Z</time></trkpt><trkpt lat="37.8648283" lon="-1.3909267"><ele>174.0</ele><time>2026-04-25T07:10:45.065Z</time></trkpt><trkpt lat="37.8646783" lon="-1.391215"><ele>174.5</ele><time>2026-04-25T07:10:46.061Z</time></trkpt><trkpt lat="37.86453" lon="-1.391505"><ele>175.0</ele><time>2026-04-25T07:10:47.06Z</time></trkpt><trkpt lat="37.8643783" lon="-1.3917983"><ele>175.0</ele><time>2026-04-25T07:10:48.063Z</time></trkpt><trkpt lat="37.8642267" lon="-1.3920917"><ele>175.0</ele><time>2026-04-25T07:10:49.063Z</time></trkpt><trkpt lat="37.8640767" lon="-1.3923833"><ele>175.0</ele><time>2026-04-25T07:10:50.061Z</time></trkpt><trkpt lat="37.863925" lon="-1.3926767"><ele>175.0</ele><time>2026-04-25T07:10:51.058Z</time></trkpt><trkpt lat="37.863775" lon="-1.3929733"><ele>177.0</ele><time>2026-04-25T07:10:52.057Z</time></trkpt><trkpt lat="37.8636233" lon="-1.3932683"><ele>179.0</ele><time>2026-04-25T07:10:53.061Z</time></trkpt><trkpt lat="37.8634683" lon="-1.3935633"><ele>177.5</ele><time>2026-04-25T07:10:54.066Z</time></trkpt><trkpt lat="37.8633167" lon="-1.39386"><ele>176.0</ele><time>2026-04-25T07:10:55.061Z</time></trkpt><trkpt lat="37.863165" lon="-1.39416"><ele>176.0</ele><time>2026-04-25T07:10:56.064Z</time></trkpt><trkpt lat="37.8630133" lon="-1.3944633"><ele>176.0</ele><time>2026-04-25T07:10:57.061Z</time></trkpt><trkpt lat="37.86286" lon="-1.394765"><ele>176.5</ele><time>2026-04-25T07:10:58.059Z</time></trkpt><trkpt lat="37.8627017" lon="-1.3950633"><ele>177.0</ele><time>2026-04-25T07:10:59.062Z</time></trkpt><trkpt lat="37.86254" lon="-1.3953583"><ele>179.5</ele><time>2026-04-25T07:11:00.064Z</time></trkpt><trkpt lat="37.8623717" lon="-1.3956467"><ele>182.0</ele><time>2026-04-25T07:11:01.074Z</time></trkpt><trkpt lat="37.8621967" lon="-1.3959267"><ele>182.0</ele><time>2026-04-25T07:11:02.062Z</time></trkpt><trkpt lat="37.862015" lon="-1.3961983"><ele>182.0</ele><time>2026-04-25T07:11:03.062Z</time></trkpt><trkpt lat="37.8618267" lon="-1.3964617"><ele>181.0</ele><time>2026-04-25T07:11:04.063Z</time></trkpt><trkpt lat="37.8616333" lon="-1.3967167"><ele>180.0</ele><time>2026-04-25T07:11:05.061Z</time></trkpt><trkpt lat="37.861435" lon="-1.396965"><ele>180.5</ele><time>2026-04-25T07:11:06.063Z</time></trkpt><trkpt lat="37.86123" lon="-1.3972033"><ele>181.0</ele><time>2026-04-25T07:11:07.062Z</time></trkpt><trkpt lat="37.8610183" lon="-1.397435"><ele>179.5</ele><time>2026-04-25T07:11:08.062Z</time></trkpt><trkpt lat="37.8608017" lon="-1.39766"><ele>178.0</ele><time>2026-04-25T07:11:09.062Z</time></trkpt><trkpt lat="37.86058" lon="-1.3978767"><ele>181.0</ele><time>2026-04-25T07:11:10.063Z</time></trkpt><trkpt lat="37.8603533" lon="-1.398085"><ele>184.0</ele><time>2026-04-25T07:11:11.063Z</time></trkpt><trkpt lat="37.86012" lon="-1.3982833"><ele>182.0</ele><time>2026-04-25T07:11:12.061Z</time></trkpt><trkpt lat="37.8598817" lon="-1.3984717"><ele>180.0</ele><time>2026-04-25T07:11:13.062Z</time></trkpt><trkpt lat="37.85964" lon="-1.3986533"><ele>180.0</ele><time>2026-04-25T07:11:14.058Z</time></trkpt><trkpt lat="37.8593933" lon="-1.3988283"><ele>180.0</ele><time>2026-04-25T07:11:15.06Z</time></trkpt><trkpt lat="37.85914" lon="-1.3989933"><ele>180.0</ele><time>2026-04-25T07:11:16.063Z</time></trkpt><trkpt lat="37.8588833" lon="-1.3991517"><ele>180.0</ele><time>2026-04-25T07:11:17.064Z</time></trkpt><trkpt lat="37.85862" lon="-1.3993"><ele>178.0</ele><time>2026-04-25T07:11:18.06Z</time></trkpt><trkpt lat="37.8583567" lon="-1.399435"><ele>176.0</ele><time>2026-04-25T07:11:19.061Z</time></trkpt><trkpt lat="37.8580933" lon="-1.3995583"><ele>176.0</ele><time>2026-04-25T07:11:20.062Z</time></trkpt><trkpt lat="37.8578233" lon="-1.3996717"><ele>176.0</ele><time>2026-04-25T07:11:21.06Z</time></trkpt><trkpt lat="37.857555" lon="-1.39977"><ele>174.5</ele><time>2026-04-25T07:11:22.061Z</time></trkpt><trkpt lat="37.8572833" lon="-1.3998567"><ele>173.0</ele><time>2026-04-25T07:11:23.062Z</time></trkpt><trkpt lat="37.85701" lon="-1.3999333"><ele>171.0</ele><time>2026-04-25T07:11:24.071Z</time></trkpt><trkpt lat="37.8567317" lon="-1.4000033"><ele>169.0</ele><time>2026-04-25T07:11:25.061Z</time></trkpt><trkpt lat="37.856455" lon="-1.4000633"><ele>169.0</ele><time>2026-04-25T07:11:26.065Z</time></trkpt><trkpt lat="37.8561733" lon="-1.4001133"><ele>169.0</ele><time>2026-04-25T07:11:27.07Z</time></trkpt><trkpt lat="37.85589" lon="-1.4001517"><ele>166.5</ele><time>2026-04-25T07:11:28.06Z</time></trkpt><trkpt lat="37.8556067" lon="-1.400175"><ele>164.0</ele><time>2026-04-25T07:11:29.062Z</time></trkpt><trkpt lat="37.8553217" lon="-1.4001867"><ele>164.0</ele><time>2026-04-25T07:11:30.062Z</time></trkpt><trkpt lat="37.8550383" lon="-1.4001833"><ele>164.0</ele><time>2026-04-25T07:11:31.06Z</time></trkpt><trkpt lat="37.8547517" lon="-1.4001683"><ele>164.0</ele><time>2026-04-25T07:11:32.061Z</time></trkpt><trkpt lat="37.8544667" lon="-1.400145"><ele>164.0</ele><time>2026-04-25T07:11:33.063Z</time></trkpt><trkpt lat="37.8541817" lon="-1.4001117"><ele>162.5</ele><time>2026-04-25T07:11:34.061Z</time></trkpt><trkpt lat="37.8538967" lon="-1.4000667"><ele>161.0</ele><time>2026-04-25T07:11:35.065Z</time></trkpt><trkpt lat="37.8536117" lon="-1.4000117"><ele>161.0</ele><time>2026-04-25T07:11:36.065Z</time></trkpt><trkpt lat="37.8533283" lon="-1.3999483"><ele>161.0</ele><time>2026-04-25T07:11:37.062Z</time></trkpt><trkpt lat="37.8530467" lon="-1.3998767"><ele>161.0</ele><time>2026-04-25T07:11:38.065Z</time></trkpt><trkpt lat="37.8527667" lon="-1.3997983"><ele>161.0</ele><time>2026-04-25T07:11:39.06Z</time></trkpt><trkpt lat="37.8524867" lon="-1.3997183"><ele>158.5</ele><time>2026-04-25T07:11:40.062Z</time></trkpt><trkpt lat="37.8522033" lon="-1.3996367"><ele>156.0</ele><time>2026-04-25T07:11:41.058Z</time></trkpt><trkpt lat="37.85192" lon="-1.399555"><ele>154.5</ele><time>2026-04-25T07:11:42.064Z</time></trkpt><trkpt lat="37.8516367" lon="-1.39947"><ele>153.0</ele><time>2026-04-25T07:11:43.059Z</time></trkpt><trkpt lat="37.8513517" lon="-1.3993833"><ele>153.0</ele><time>2026-04-25T07:11:44.064Z</time></trkpt><trkpt lat="37.8510667" lon="-1.3992967"><ele>153.0</ele><time>2026-04-25T07:11:45.064Z</time></trkpt><trkpt lat="37.85078" lon="-1.39921"><ele>153.0</ele><time>2026-04-25T07:11:46.06Z</time></trkpt><trkpt lat="37.8504917" lon="-1.3991233"><ele>153.0</ele><time>2026-04-25T07:11:47.063Z</time></trkpt><trkpt lat="37.850205" lon="-1.3990383"><ele>153.5</ele><time>2026-04-25T07:11:48.064Z</time></trkpt><trkpt lat="37.8499167" lon="-1.3989483"><ele>154.0</ele><time>2026-04-25T07:11:49.066Z</time></trkpt><trkpt lat="37.849625" lon="-1.39886"><ele>153.5</ele><time>2026-04-25T07:11:50.063Z</time></trkpt><trkpt lat="37.8493317" lon="-1.39878"><ele>153.0</ele><time>2026-04-25T07:11:51.06Z</time></trkpt><trkpt lat="37.8490383" lon="-1.398705"><ele>153.0</ele><time>2026-04-25T07:11:52.065Z</time></trkpt><trkpt lat="37.8487467" lon="-1.3986383"><ele>153.0</ele><time>2026-04-25T07:11:53.068Z</time></trkpt><trkpt lat="37.8484533" lon="-1.398575"><ele>152.5</ele><time>2026-04-25T07:11:54.071Z</time></trkpt><trkpt lat="37.8481617" lon="-1.398515"><ele>152.0</ele><time>2026-04-25T07:11:55.063Z</time></trkpt><trkpt lat="37.8478683" lon="-1.3984583"><ele>151.5</ele><time>2026-04-25T07:11:56.064Z</time></trkpt><trkpt lat="37.847575" lon="-1.3984033"><ele>151.0</ele><time>2026-04-25T07:11:57.063Z</time></trkpt><trkpt lat="37.84728" lon="-1.3983533"><ele>151.0</ele><time>2026-04-25T07:11:58.063Z</time></trkpt><trkpt lat="37.8469867" lon="-1.39831"><ele>151.0</ele><time>2026-04-25T07:11:59.062Z</time></trkpt><trkpt lat="37.8466933" lon="-1.3982717"><ele>152.5</ele><time>2026-04-25T07:12:00.066Z</time></trkpt><trkpt lat="37.8464017" lon="-1.39824"><ele>154.0</ele><time>2026-04-25T07:12:01.065Z</time></trkpt><trkpt lat="37.8461083" lon="-1.3982133"><ele>152.5</ele><time>2026-04-25T07:12:02.069Z</time></trkpt><trkpt lat="37.845815" lon="-1.3981983"><ele>151.0</ele><time>2026-04-25T07:12:03.063Z</time></trkpt><trkpt lat="37.8455217" lon="-1.3981933"><ele>151.0</ele><time>2026-04-25T07:12:04.063Z</time></trkpt><trkpt lat="37.84523" lon="-1.3981883"><ele>151.0</ele><time>2026-04-25T07:12:05.063Z</time></trkpt><trkpt lat="37.8449383" lon="-1.3981817"><ele>150.5</ele><time>2026-04-25T07:12:06.06Z</time></trkpt><trkpt lat="37.8446467" lon="-1.3981717"><ele>150.0</ele><time>2026-04-25T07:12:07.06Z</time></trkpt><trkpt lat="37.8443567" lon="-1.3981633"><ele>151.0</ele><time>2026-04-25T07:12:08.059Z</time></trkpt><trkpt lat="37.8440683" lon="-1.39816"><ele>152.0</ele><time>2026-04-25T07:12:09.06Z</time></trkpt><trkpt lat="37.84378" lon="-1.3981633"><ele>152.0</ele><time>2026-04-25T07:12:10.06Z</time></trkpt><trkpt lat="37.84349" lon="-1.39817"><ele>152.0</ele><time>2026-04-25T07:12:11.062Z</time></trkpt><trkpt lat="37.8432017" lon="-1.39818"><ele>152.0</ele><time>2026-04-25T07:12:12.07Z</time></trkpt><trkpt lat="37.8429133" lon="-1.398195"><ele>152.0</ele><time>2026-04-25T07:12:13.061Z</time></trkpt><trkpt lat="37.842625" lon="-1.3982133"><ele>151.5</ele><time>2026-04-25T07:12:14.064Z</time></trkpt><trkpt lat="37.8423367" lon="-1.398235"><ele>151.0</ele><time>2026-04-25T07:12:15.061Z</time></trkpt><trkpt lat="37.84205" lon="-1.39826"><ele>151.5</ele><time>2026-04-25T07:12:16.063Z</time></trkpt><trkpt lat="37.8417633" lon="-1.3982883"><ele>152.0</ele><time>2026-04-25T07:12:17.061Z</time></trkpt><trkpt lat="37.8414783" lon="-1.3983183"><ele>152.0</ele><time>2026-04-25T07:12:18.064Z</time></trkpt><trkpt lat="37.8411933" lon="-1.3983517"><ele>152.0</ele><time>2026-04-25T07:12:19.061Z</time></trkpt><trkpt lat="37.8409083" lon="-1.39839"><ele>152.0</ele><time>2026-04-25T07:12:20.066Z</time></trkpt><trkpt lat="37.8406217" lon="-1.3984333"><ele>152.0</ele><time>2026-04-25T07:12:21.061Z</time></trkpt><trkpt lat="37.8403367" lon="-1.39848"><ele>153.0</ele><time>2026-04-25T07:12:22.063Z</time></trkpt><trkpt lat="37.84005" lon="-1.3985317"><ele>154.0</ele><time>2026-04-25T07:12:23.058Z</time></trkpt><trkpt lat="37.8397583" lon="-1.3985867"><ele>154.0</ele><time>2026-04-25T07:12:24.06Z</time></trkpt><trkpt lat="37.8394667" lon="-1.3986433"><ele>154.0</ele><time>2026-04-25T07:12:25.062Z</time></trkpt><trkpt lat="37.8391733" lon="-1.398705"><ele>154.5</ele><time>2026-04-25T07:12:26.063Z</time></trkpt><trkpt lat="37.8388833" lon="-1.3987683"><ele>155.0</ele><time>2026-04-25T07:12:27.078Z</time></trkpt><trkpt lat="37.838595" lon="-1.39883"><ele>154.5</ele><time>2026-04-25T07:12:28.061Z</time></trkpt><trkpt lat="37.8383183" lon="-1.398895"><ele>154.0</ele><time>2026-04-25T07:12:29.067Z</time></trkpt><trkpt lat="37.8380567" lon="-1.3989633"><ele>154.0</ele><time>2026-04-25T07:12:30.064Z</time></trkpt><trkpt lat="37.8378083" lon="-1.3990367"><ele>154.0</ele><time>2026-04-25T07:12:31.063Z</time></trkpt><trkpt lat="37.8375667" lon="-1.39911"><ele>155.0</ele><time>2026-04-25T07:12:32.069Z</time></trkpt><trkpt lat="37.8373267" lon="-1.399185"><ele>156.0</ele><time>2026-04-25T07:12:33.06Z</time></trkpt><trkpt lat="37.8370917" lon="-1.3992633"><ele>156.0</ele><time>2026-04-25T07:12:34.059Z</time></trkpt><trkpt lat="37.8368583" lon="-1.3993417"><ele>156.0</ele><time>2026-04-25T07:12:35.062Z</time></trkpt><trkpt lat="37.8366233" lon="-1.3994217"><ele>155.0</ele><time>2026-04-25T07:12:36.066Z</time></trkpt><trkpt lat="37.83639" lon="-1.3995067"><ele>154.0</ele><time>2026-04-25T07:12:37.062Z</time></trkpt><trkpt lat="37.8361567" lon="-1.3995967"><ele>154.5</ele><time>2026-04-25T07:12:38.065Z</time></trkpt><trkpt lat="37.8359217" lon="-1.3996917"><ele>155.0</ele><time>2026-04-25T07:12:39.062Z</time></trkpt><trkpt lat="37.835685" lon="-1.3997917"><ele>155.0</ele><time>2026-04-25T07:12:40.058Z</time></trkpt><trkpt lat="37.83545" lon="-1.3998967"><ele>155.0</ele><time>2026-04-25T07:12:41.059Z</time></trkpt><trkpt lat="37.8352117" lon="-1.4000033"><ele>154.5</ele><time>2026-04-25T07:12:42.059Z</time></trkpt><trkpt lat="37.8349683" lon="-1.400115"><ele>154.0</ele><time>2026-04-25T07:12:43.059Z</time></trkpt><trkpt lat="37.8347233" lon="-1.4002383"><ele>154.0</ele><time>2026-04-25T07:12:44.064Z</time></trkpt><trkpt lat="37.8344783" lon="-1.4003617"><ele>154.0</ele><time>2026-04-25T07:12:45.062Z</time></trkpt><trkpt lat="37.8342283" lon="-1.400485"><ele>153.5</ele><time>2026-04-25T07:12:46.062Z</time></trkpt><trkpt lat="37.83398" lon="-1.40061"><ele>153.0</ele><time>2026-04-25T07:12:47.063Z</time></trkpt><trkpt lat="37.8337317" lon="-1.4007367"><ele>153.0</ele><time>2026-04-25T07:12:48.064Z</time></trkpt><trkpt lat="37.8334883" lon="-1.400865"><ele>153.0</ele><time>2026-04-25T07:12:49.064Z</time></trkpt><trkpt lat="37.8332483" lon="-1.4009967"><ele>153.0</ele><time>2026-04-25T07:12:50.061Z</time></trkpt><trkpt lat="37.8330117" lon="-1.4011283"><ele>153.0</ele><time>2026-04-25T07:12:51.06Z</time></trkpt><trkpt lat="37.83278" lon="-1.4012583"><ele>155.0</ele><time>2026-04-25T07:12:52.058Z</time></trkpt><trkpt lat="37.8325467" lon="-1.4013867"><ele>157.0</ele><time>2026-04-25T07:12:53.065Z</time></trkpt><trkpt lat="37.8323167" lon="-1.4015183"><ele>157.0</ele><time>2026-04-25T07:12:54.068Z</time></trkpt><trkpt lat="37.83209" lon="-1.4016517"><ele>157.0</ele><time>2026-04-25T07:12:55.061Z</time></trkpt><trkpt lat="37.8318633" lon="-1.40179"><ele>156.5</ele><time>2026-04-25T07:12:56.061Z</time></trkpt><trkpt lat="37.8316383" lon="-1.4019333"><ele>156.0</ele><time>2026-04-25T07:12:57.061Z</time></trkpt><trkpt lat="37.8314133" lon="-1.40208"><ele>156.0</ele><time>2026-04-25T07:12:58.061Z</time></trkpt><trkpt lat="37.83119" lon="-1.4022283"><ele>156.0</ele><time>2026-04-25T07:12:59.065Z</time></trkpt><trkpt lat="37.830965" lon="-1.4023817"><ele>157.0</ele><time>2026-04-25T07:13:00.063Z</time></trkpt><trkpt lat="37.8307417" lon="-1.4025417"><ele>158.0</ele><time>2026-04-25T07:13:01.064Z</time></trkpt><trkpt lat="37.8305217" lon="-1.402705"><ele>158.0</ele><time>2026-04-25T07:13:02.064Z</time></trkpt><trkpt lat="37.8303017" lon="-1.402875"><ele>158.0</ele><time>2026-04-25T07:13:03.062Z</time></trkpt><trkpt lat="37.8300817" lon="-1.4030483"><ele>156.5</ele><time>2026-04-25T07:13:04.06Z</time></trkpt><trkpt lat="37.8298617" lon="-1.403225"><ele>155.0</ele><time>2026-04-25T07:13:05.059Z</time></trkpt><trkpt lat="37.82964" lon="-1.4034033"><ele>155.0</ele><time>2026-04-25T07:13:06.062Z</time></trkpt><trkpt lat="37.82942" lon="-1.4035833"><ele>155.0</ele><time>2026-04-25T07:13:07.062Z</time></trkpt><trkpt lat="37.8292" lon="-1.4037633"><ele>156.0</ele><time>2026-04-25T07:13:08.06Z</time></trkpt><trkpt lat="37.8289767" lon="-1.4039467"><ele>157.0</ele><time>2026-04-25T07:13:09.061Z</time></trkpt><trkpt lat="37.828755" lon="-1.40413"><ele>157.0</ele><time>2026-04-25T07:13:10.059Z</time></trkpt><trkpt lat="37.8285333" lon="-1.4043167"><ele>157.0</ele><time>2026-04-25T07:13:11.063Z</time></trkpt><trkpt lat="37.8283167" lon="-1.40451"><ele>157.5</ele><time>2026-04-25T07:13:12.06Z</time></trkpt><trkpt lat="37.8281" lon="-1.4047083"><ele>158.0</ele><time>2026-04-25T07:13:13.064Z</time></trkpt><trkpt lat="37.8278883" lon="-1.40491"><ele>158.0</ele><time>2026-04-25T07:13:14.066Z</time></trkpt><trkpt lat="37.82768" lon="-1.4051133"><ele>158.0</ele><time>2026-04-25T07:13:15.061Z</time></trkpt><trkpt lat="37.82747" lon="-1.40532"><ele>159.0</ele><time>2026-04-25T07:13:16.064Z</time></trkpt><trkpt lat="37.82726" lon="-1.4055267"><ele>160.0</ele><time>2026-04-25T07:13:17.062Z</time></trkpt><trkpt lat="37.8270533" lon="-1.4057367"><ele>160.0</ele><time>2026-04-25T07:13:18.062Z</time></trkpt><trkpt lat="37.8268517" lon="-1.4059483"><ele>160.0</ele><time>2026-04-25T07:13:19.067Z</time></trkpt><trkpt lat="37.82665" lon="-1.4061617"><ele>159.0</ele><time>2026-04-25T07:13:20.063Z</time></trkpt><trkpt lat="37.8264517" lon="-1.406375"><ele>158.0</ele><time>2026-04-25T07:13:21.059Z</time></trkpt><trkpt lat="37.826255" lon="-1.40659"><ele>158.0</ele><time>2026-04-25T07:13:22.059Z</time></trkpt><trkpt lat="37.8260633" lon="-1.4068083"><ele>158.0</ele><time>2026-04-25T07:13:23.061Z</time></trkpt><trkpt lat="37.8258733" lon="-1.4070267"><ele>158.0</ele><time>2026-04-25T07:13:24.063Z</time></trkpt><trkpt lat="37.8256833" lon="-1.4072483"><ele>158.0</ele><time>2026-04-25T07:13:25.06Z</time></trkpt><trkpt lat="37.825495" lon="-1.4074717"><ele>158.0</ele><time>2026-04-25T07:13:26.062Z</time></trkpt><trkpt lat="37.8253083" lon="-1.4076983"><ele>158.0</ele><time>2026-04-25T07:13:27.067Z</time></trkpt><trkpt lat="37.8251217" lon="-1.4079283"><ele>159.0</ele><time>2026-04-25T07:13:28.062Z</time></trkpt><trkpt lat="37.8249367" lon="-1.4081617"><ele>160.0</ele><time>2026-04-25T07:13:29.06Z</time></trkpt><trkpt lat="37.8247533" lon="-1.4083967"><ele>160.0</ele><time>2026-04-25T07:13:30.067Z</time></trkpt><trkpt lat="37.82457" lon="-1.408635"><ele>160.0</ele><time>2026-04-25T07:13:31.06Z</time></trkpt><trkpt lat="37.8243867" lon="-1.4088767"><ele>161.0</ele><time>2026-04-25T07:13:32.061Z</time></trkpt><trkpt lat="37.8242033" lon="-1.4091217"><ele>162.0</ele><time>2026-04-25T07:13:33.059Z</time></trkpt><trkpt lat="37.824025" lon="-1.409365"><ele>162.0</ele><time>2026-04-25T07:13:34.064Z</time></trkpt><trkpt lat="37.8238467" lon="-1.4096117"><ele>162.0</ele><time>2026-04-25T07:13:35.06Z</time></trkpt><trkpt lat="37.8236683" lon="-1.4098583"><ele>161.0</ele><time>2026-04-25T07:13:36.065Z</time></trkpt><trkpt lat="37.8234917" lon="-1.4101083"><ele>160.0</ele><time>2026-04-25T07:13:37.066Z</time></trkpt><trkpt lat="37.8233167" lon="-1.4103583"><ele>160.5</ele><time>2026-04-25T07:13:38.063Z</time></trkpt><trkpt lat="37.82314" lon="-1.4106083"><ele>161.0</ele><time>2026-04-25T07:13:39.063Z</time></trkpt><trkpt lat="37.8229667" lon="-1.4108617"><ele>161.0</ele><time>2026-04-25T07:13:40.064Z</time></trkpt><trkpt lat="37.8227933" lon="-1.411115"><ele>161.0</ele><time>2026-04-25T07:13:41.062Z</time></trkpt><trkpt lat="37.82262" lon="-1.41137"><ele>161.5</ele><time>2026-04-25T07:13:42.062Z</time></trkpt><trkpt lat="37.8224467" lon="-1.4116233"><ele>162.0</ele><time>2026-04-25T07:13:43.059Z</time></trkpt><trkpt lat="37.8222733" lon="-1.4118783"><ele>162.0</ele><time>2026-04-25T07:13:44.064Z</time></trkpt><trkpt lat="37.822095" lon="-1.4121317"><ele>162.0</ele><time>2026-04-25T07:13:45.066Z</time></trkpt><trkpt lat="37.82192" lon="-1.4123833"><ele>161.5</ele><time>2026-04-25T07:13:46.062Z</time></trkpt><trkpt lat="37.821745" lon="-1.4126383"><ele>161.0</ele><time>2026-04-25T07:13:47.064Z</time></trkpt><trkpt lat="37.8215683" lon="-1.4128917"><ele>161.0</ele><time>2026-04-25T07:13:48.065Z</time></trkpt><trkpt lat="37.82139" lon="-1.4131483"><ele>161.0</ele><time>2026-04-25T07:13:49.061Z</time></trkpt><trkpt lat="37.8212083" lon="-1.413405"><ele>161.0</ele><time>2026-04-25T07:13:50.065Z</time></trkpt><trkpt lat="37.8210267" lon="-1.4136617"><ele>161.0</ele><time>2026-04-25T07:13:51.059Z</time></trkpt><trkpt lat="37.8208433" lon="-1.413915"><ele>160.5</ele><time>2026-04-25T07:13:52.062Z</time></trkpt><trkpt lat="37.8206583" lon="-1.414165"><ele>160.0</ele><time>2026-04-25T07:13:53.059Z</time></trkpt><trkpt lat="37.820475" lon="-1.4144133"><ele>160.0</ele><time>2026-04-25T07:13:54.063Z</time></trkpt><trkpt lat="37.8202917" lon="-1.41466"><ele>160.0</ele><time>2026-04-25T07:13:55.066Z</time></trkpt><trkpt lat="37.8201083" lon="-1.4149033"><ele>163.0</ele><time>2026-04-25T07:13:56.064Z</time></trkpt><trkpt lat="37.81992" lon="-1.4151433"><ele>166.0</ele><time>2026-04-25T07:13:57.061Z</time></trkpt><trkpt lat="37.8197317" lon="-1.41538"><ele>165.0</ele><time>2026-04-25T07:13:58.065Z</time></trkpt><trkpt lat="37.819545" lon="-1.415615"><ele>164.0</ele><time>2026-04-25T07:13:59.062Z</time></trkpt><trkpt lat="37.8193567" lon="-1.4158483"><ele>163.5</ele><time>2026-04-25T07:14:00.06Z</time></trkpt><trkpt lat="37.819165" lon="-1.4160817"><ele>163.0</ele><time>2026-04-25T07:14:01.063Z</time></trkpt><trkpt lat="37.818975" lon="-1.4163117"><ele>162.5</ele><time>2026-04-25T07:14:02.066Z</time></trkpt><trkpt lat="37.81878" lon="-1.41654"><ele>162.0</ele><time>2026-04-25T07:14:03.069Z</time></trkpt><trkpt lat="37.8185817" lon="-1.4167683"><ele>162.5</ele><time>2026-04-25T07:14:04.064Z</time></trkpt><trkpt lat="37.8183817" lon="-1.416995"><ele>163.0</ele><time>2026-04-25T07:14:05.06Z</time></trkpt><trkpt lat="37.8181783" lon="-1.41722"><ele>163.0</ele><time>2026-04-25T07:14:06.064Z</time></trkpt><trkpt lat="37.8179717" lon="-1.4174433"><ele>163.0</ele><time>2026-04-25T07:14:07.06Z</time></trkpt><trkpt lat="37.817765" lon="-1.4176667"><ele>163.5</ele><time>2026-04-25T07:14:08.061Z</time></trkpt><trkpt lat="37.817555" lon="-1.4178867"><ele>164.0</ele><time>2026-04-25T07:14:09.068Z</time></trkpt><trkpt lat="37.8173417" lon="-1.4181067"><ele>164.0</ele><time>2026-04-25T07:14:10.063Z</time></trkpt><trkpt lat="37.8171267" lon="-1.4183233"><ele>164.0</ele><time>2026-04-25T07:14:11.064Z</time></trkpt><trkpt lat="37.8169067" lon="-1.418535"><ele>164.0</ele><time>2026-04-25T07:14:12.058Z</time></trkpt><trkpt lat="37.8166867" lon="-1.4187417"><ele>164.0</ele><time>2026-04-25T07:14:13.062Z</time></trkpt><trkpt lat="37.8164667" lon="-1.4189467"><ele>164.0</ele><time>2026-04-25T07:14:14.062Z</time></trkpt><trkpt lat="37.816245" lon="-1.4191467"><ele>164.0</ele><time>2026-04-25T07:14:15.062Z</time></trkpt><trkpt lat="37.8160217" lon="-1.4193417"><ele>163.0</ele><time>2026-04-25T07:14:16.066Z</time></trkpt><trkpt lat="37.8157983" lon="-1.419535"><ele>162.0</ele><time>2026-04-25T07:14:17.063Z</time></trkpt><trkpt lat="37.8155733" lon="-1.419725"><ele>162.0</ele><time>2026-04-25T07:14:18.062Z</time></trkpt><trkpt lat="37.8153467" lon="-1.41991"><ele>162.0</ele><time>2026-04-25T07:14:19.07Z</time></trkpt><trkpt lat="37.8151183" lon="-1.42009"><ele>162.5</ele><time>2026-04-25T07:14:20.062Z</time></trkpt><trkpt lat="37.8148867" lon="-1.420265"><ele>163.0</ele><time>2026-04-25T07:14:21.066Z</time></trkpt><trkpt lat="37.8146583" lon="-1.4204383"><ele>163.0</ele><time>2026-04-25T07:14:22.061Z</time></trkpt><trkpt lat="37.8144267" lon="-1.4206083"><ele>163.0</ele><time>2026-04-25T07:14:23.061Z</time></trkpt><trkpt lat="37.8141917" lon="-1.42077"><ele>163.5</ele><time>2026-04-25T07:14:24.061Z</time></trkpt><trkpt lat="37.8139567" lon="-1.4209283"><ele>164.0</ele><time>2026-04-25T07:14:25.059Z</time></trkpt><trkpt lat="37.81372" lon="-1.4210817"><ele>164.5</ele><time>2026-04-25T07:14:26.063Z</time></trkpt><trkpt lat="37.8134817" lon="-1.4212333"><ele>165.0</ele><time>2026-04-25T07:14:27.063Z</time></trkpt><trkpt lat="37.8132417" lon="-1.4213817"><ele>165.0</ele><time>2026-04-25T07:14:28.062Z</time></trkpt><trkpt lat="37.8129983" lon="-1.4215233"><ele>165.0</ele><time>2026-04-25T07:14:29.063Z</time></trkpt><trkpt lat="37.8127533" lon="-1.4216617"><ele>164.5</ele><time>2026-04-25T07:14:30.062Z</time></trkpt><trkpt lat="37.8125083" lon="-1.4217967"><ele>164.0</ele><time>2026-04-25T07:14:31.062Z</time></trkpt><trkpt lat="37.8122617" lon="-1.4219267"><ele>164.0</ele><time>2026-04-25T07:14:32.063Z</time></trkpt><trkpt lat="37.8120167" lon="-1.4220533"><ele>164.0</ele><time>2026-04-25T07:14:33.061Z</time></trkpt><trkpt lat="37.81177" lon="-1.4221767"><ele>164.0</ele><time>2026-04-25T07:14:34.06Z</time></trkpt><trkpt lat="37.8115233" lon="-1.4222933"><ele>164.0</ele><time>2026-04-25T07:14:35.059Z</time></trkpt><trkpt lat="37.8112733" lon="-1.4224083"><ele>164.0</ele><time>2026-04-25T07:14:36.059Z</time></trkpt><trkpt lat="37.8110233" lon="-1.4225183"><ele>164.0</ele><time>2026-04-25T07:14:37.066Z</time></trkpt><trkpt lat="37.81077" lon="-1.4226267"><ele>164.0</ele><time>2026-04-25T07:14:38.065Z</time></trkpt><trkpt lat="37.810515" lon="-1.42273"><ele>164.0</ele><time>2026-04-25T07:14:39.064Z</time></trkpt><trkpt lat="37.8102567" lon="-1.4228283"><ele>164.0</ele><time>2026-04-25T07:14:40.058Z</time></trkpt><trkpt lat="37.8099983" lon="-1.4229233"><ele>164.0</ele><time>2026-04-25T07:14:41.064Z</time></trkpt><trkpt lat="37.809735" lon="-1.4230167"><ele>163.5</ele><time>2026-04-25T07:14:42.059Z</time></trkpt><trkpt lat="37.8094733" lon="-1.4231067"><ele>163.0</ele><time>2026-04-25T07:14:43.06Z</time></trkpt><trkpt lat="37.8092083" lon="-1.4231933"><ele>163.0</ele><time>2026-04-25T07:14:44.058Z</time></trkpt><trkpt lat="37.8089383" lon="-1.4232733"><ele>163.0</ele><time>2026-04-25T07:14:45.061Z</time></trkpt><trkpt lat="37.8086683" lon="-1.4233483"><ele>161.5</ele><time>2026-04-25T07:14:46.064Z</time></trkpt><trkpt lat="37.808395" lon="-1.4234183"><ele>160.0</ele><time>2026-04-25T07:14:47.064Z</time></trkpt><trkpt lat="37.8081183" lon="-1.4234817"><ele>160.0</ele><time>2026-04-25T07:14:48.064Z</time></trkpt><trkpt lat="37.8078433" lon="-1.4235417"><ele>160.0</ele><time>2026-04-25T07:14:49.06Z</time></trkpt><trkpt lat="37.8075683" lon="-1.4235983"><ele>161.5</ele><time>2026-04-25T07:14:50.062Z</time></trkpt><trkpt lat="37.8072917" lon="-1.42365"><ele>163.0</ele><time>2026-04-25T07:14:51.061Z</time></trkpt><trkpt lat="37.8070167" lon="-1.4236967"><ele>163.5</ele><time>2026-04-25T07:14:52.062Z</time></trkpt><trkpt lat="37.8067417" lon="-1.4237383"><ele>164.0</ele><time>2026-04-25T07:14:53.061Z</time></trkpt><trkpt lat="37.8064667" lon="-1.4237783"><ele>164.0</ele><time>2026-04-25T07:14:54.062Z</time></trkpt><trkpt lat="37.806195" lon="-1.42381"><ele>164.0</ele><time>2026-04-25T07:14:55.059Z</time></trkpt><trkpt lat="37.805925" lon="-1.42384"><ele>163.5</ele><time>2026-04-25T07:14:56.063Z</time></trkpt><trkpt lat="37.8056533" lon="-1.4238683"><ele>163.0</ele><time>2026-04-25T07:14:57.06Z</time></trkpt><trkpt lat="37.8053833" lon="-1.4238967"><ele>163.5</ele><time>2026-04-25T07:14:58.059Z</time></trkpt><trkpt lat="37.8051117" lon="-1.4239233"><ele>164.0</ele><time>2026-04-25T07:14:59.062Z</time></trkpt><trkpt lat="37.8048367" lon="-1.4239483"><ele>164.0</ele><time>2026-04-25T07:15:00.059Z</time></trkpt><trkpt lat="37.80456" lon="-1.423975"><ele>164.0</ele><time>2026-04-25T07:15:01.061Z</time></trkpt><trkpt lat="37.8042833" lon="-1.4240033"><ele>165.0</ele><time>2026-04-25T07:15:02.062Z</time></trkpt><trkpt lat="37.8040067" lon="-1.4240333"><ele>166.0</ele><time>2026-04-25T07:15:03.073Z</time></trkpt><trkpt lat="37.8037333" lon="-1.424065"><ele>164.5</ele><time>2026-04-25T07:15:04.059Z</time></trkpt><trkpt lat="37.8034583" lon="-1.4241017"><ele>163.0</ele><time>2026-04-25T07:15:05.061Z</time></trkpt><trkpt lat="37.8031833" lon="-1.4241417"><ele>163.0</ele><time>2026-04-25T07:15:06.062Z</time></trkpt><trkpt lat="37.8029083" lon="-1.4241883"><ele>163.0</ele><time>2026-04-25T07:15:07.062Z</time></trkpt><trkpt lat="37.8026333" lon="-1.42424"><ele>162.5</ele><time>2026-04-25T07:15:08.062Z</time></trkpt><trkpt lat="37.8023567" lon="-1.4242933"><ele>162.0</ele><time>2026-04-25T07:15:09.063Z</time></trkpt><trkpt lat="37.802085" lon="-1.4243533"><ele>164.0</ele><time>2026-04-25T07:15:10.06Z</time></trkpt><trkpt lat="37.8018133" lon="-1.4244233"><ele>166.0</ele><time>2026-04-25T07:15:11.064Z</time></trkpt><trkpt lat="37.8015417" lon="-1.4245017"><ele>166.0</ele><time>2026-04-25T07:15:12.065Z</time></trkpt><trkpt lat="37.80127" lon="-1.424585"><ele>166.0</ele><time>2026-04-25T07:15:13.066Z</time></trkpt><trkpt lat="37.801" lon="-1.4246667"><ele>165.0</ele><time>2026-04-25T07:15:14.064Z</time></trkpt><trkpt lat="37.80073" lon="-1.42475"><ele>164.0</ele><time>2026-04-25T07:15:15.061Z</time></trkpt><trkpt lat="37.8004617" lon="-1.42484"><ele>164.0</ele><time>2026-04-25T07:15:16.06Z</time></trkpt><trkpt lat="37.8001933" lon="-1.4249333"><ele>164.0</ele><time>2026-04-25T07:15:17.064Z</time></trkpt><trkpt lat="37.7999233" lon="-1.4250317"><ele>164.0</ele><time>2026-04-25T07:15:18.064Z</time></trkpt><trkpt lat="37.7996583" lon="-1.4251383"><ele>164.0</ele><time>2026-04-25T07:15:19.066Z</time></trkpt><trkpt lat="37.7993933" lon="-1.42525"><ele>165.5</ele><time>2026-04-25T07:15:20.064Z</time></trkpt><trkpt lat="37.7991317" lon="-1.4253683"><ele>167.0</ele><time>2026-04-25T07:15:21.064Z</time></trkpt><trkpt lat="37.7988733" lon="-1.4254933"><ele>167.0</ele><time>2026-04-25T07:15:22.063Z</time></trkpt><trkpt lat="37.7986117" lon="-1.4256233"><ele>167.0</ele><time>2026-04-25T07:15:23.061Z</time></trkpt><trkpt lat="37.7983517" lon="-1.42576"><ele>167.0</ele><time>2026-04-25T07:15:24.063Z</time></trkpt><trkpt lat="37.7980917" lon="-1.4259"><ele>167.0</ele><time>2026-04-25T07:15:25.06Z</time></trkpt><trkpt lat="37.7978333" lon="-1.4260467"><ele>167.0</ele><time>2026-04-25T07:15:26.062Z</time></trkpt><trkpt lat="37.7975767" lon="-1.4262"><ele>167.0</ele><time>2026-04-25T07:15:27.068Z</time></trkpt><trkpt lat="37.7973233" lon="-1.426355"><ele>167.0</ele><time>2026-04-25T07:15:28.061Z</time></trkpt><trkpt lat="37.7970717" lon="-1.4265133"><ele>167.0</ele><time>2026-04-25T07:15:29.064Z</time></trkpt><trkpt lat="37.7968217" lon="-1.426675"><ele>165.5</ele><time>2026-04-25T07:15:30.065Z</time></trkpt><trkpt lat="37.796575" lon="-1.42684"><ele>164.0</ele><time>2026-04-25T07:15:31.062Z</time></trkpt><trkpt lat="37.79633" lon="-1.4270083"><ele>163.0</ele><time>2026-04-25T07:15:32.059Z</time></trkpt><trkpt lat="37.7960883" lon="-1.4271833"><ele>162.0</ele><time>2026-04-25T07:15:33.063Z</time></trkpt><trkpt lat="37.7958533" lon="-1.4273633"><ele>164.0</ele><time>2026-04-25T07:15:34.064Z</time></trkpt><trkpt lat="37.7956183" lon="-1.4275483"><ele>166.0</ele><time>2026-04-25T07:15:35.061Z</time></trkpt><trkpt lat="37.7953883" lon="-1.42774"><ele>168.0</ele><time>2026-04-25T07:15:36.064Z</time></trkpt><trkpt lat="37.7951583" lon="-1.427935"><ele>170.0</ele><time>2026-04-25T07:15:37.062Z</time></trkpt><trkpt lat="37.7949283" lon="-1.4281333"><ele>170.0</ele><time>2026-04-25T07:15:38.064Z</time></trkpt><trkpt lat="37.7947017" lon="-1.428335"><ele>170.0</ele><time>2026-04-25T07:15:39.066Z</time></trkpt><trkpt lat="37.794475" lon="-1.42854"><ele>170.5</ele><time>2026-04-25T07:15:40.069Z</time></trkpt><trkpt lat="37.794255" lon="-1.42875"><ele>171.0</ele><time>2026-04-25T07:15:41.06Z</time></trkpt><trkpt lat="37.7940367" lon="-1.428965"><ele>171.0</ele><time>2026-04-25T07:15:42.06Z</time></trkpt><trkpt lat="37.79382" lon="-1.429185"><ele>171.0</ele><time>2026-04-25T07:15:43.066Z</time></trkpt><trkpt lat="37.79361" lon="-1.4294117"><ele>171.0</ele><time>2026-04-25T07:15:44.064Z</time></trkpt><trkpt lat="37.7934017" lon="-1.4296417"><ele>171.0</ele><time>2026-04-25T07:15:45.07Z</time></trkpt><trkpt lat="37.7931967" lon="-1.429875"><ele>171.0</ele><time>2026-04-25T07:15:46.061Z</time></trkpt><trkpt lat="37.7929933" lon="-1.4301117"><ele>171.0</ele><time>2026-04-25T07:15:47.06Z</time></trkpt><trkpt lat="37.7927933" lon="-1.4303517"><ele>172.0</ele><time>2026-04-25T07:15:48.062Z</time></trkpt><trkpt lat="37.7925983" lon="-1.4305967"><ele>173.0</ele><time>2026-04-25T07:15:49.063Z</time></trkpt><trkpt lat="37.792405" lon="-1.4308467"><ele>173.0</ele><time>2026-04-25T07:15:50.064Z</time></trkpt><trkpt lat="37.7922133" lon="-1.4311033"><ele>173.0</ele><time>2026-04-25T07:15:51.064Z</time></trkpt><trkpt lat="37.7920217" lon="-1.4313617"><ele>173.0</ele><time>2026-04-25T07:15:52.06Z</time></trkpt><trkpt lat="37.7918333" lon="-1.4316267"><ele>173.0</ele><time>2026-04-25T07:15:53.062Z</time></trkpt><trkpt lat="37.79165" lon="-1.4318917"><ele>173.5</ele><time>2026-04-25T07:15:54.062Z</time></trkpt><trkpt lat="37.79147" lon="-1.4321617"><ele>174.0</ele><time>2026-04-25T07:15:55.064Z</time></trkpt><trkpt lat="37.7912917" lon="-1.4324333"><ele>174.0</ele><time>2026-04-25T07:15:56.062Z</time></trkpt><trkpt lat="37.791115" lon="-1.4327067"><ele>174.0</ele><time>2026-04-25T07:15:57.064Z</time></trkpt><trkpt lat="37.7909417" lon="-1.43298"><ele>173.0</ele><time>2026-04-25T07:15:58.061Z</time></trkpt><trkpt lat="37.7907717" lon="-1.4332533"><ele>172.0</ele><time>2026-04-25T07:15:59.063Z</time></trkpt><trkpt lat="37.790605" lon="-1.43353"><ele>174.5</ele><time>2026-04-25T07:16:00.064Z</time></trkpt><trkpt lat="37.7904417" lon="-1.4338083"><ele>177.0</ele><time>2026-04-25T07:16:01.063Z</time></trkpt><trkpt lat="37.7902783" lon="-1.4340867"><ele>177.0</ele><time>2026-04-25T07:16:02.063Z</time></trkpt><trkpt lat="37.790115" lon="-1.4343633"><ele>177.0</ele><time>2026-04-25T07:16:03.06Z</time></trkpt><trkpt lat="37.7899517" lon="-1.43464"><ele>177.0</ele><time>2026-04-25T07:16:04.061Z</time></trkpt><trkpt lat="37.78979" lon="-1.4349167"><ele>177.0</ele><time>2026-04-25T07:16:05.062Z</time></trkpt><trkpt lat="37.7896267" lon="-1.4351967"><ele>176.0</ele><time>2026-04-25T07:16:06.066Z</time></trkpt><trkpt lat="37.7894617" lon="-1.435475"><ele>175.0</ele><time>2026-04-25T07:16:07.062Z</time></trkpt><trkpt lat="37.7892933" lon="-1.435755"><ele>175.0</ele><time>2026-04-25T07:16:08.061Z</time></trkpt><trkpt lat="37.7891233" lon="-1.4360383"><ele>175.0</ele><time>2026-04-25T07:16:09.063Z</time></trkpt><trkpt lat="37.7889517" lon="-1.4363217"><ele>175.0</ele><time>2026-04-25T07:16:10.061Z</time></trkpt><trkpt lat="37.7887817" lon="-1.436605"><ele>175.0</ele><time>2026-04-25T07:16:11.065Z</time></trkpt><trkpt lat="37.7886083" lon="-1.4368867"><ele>175.0</ele><time>2026-04-25T07:16:12.065Z</time></trkpt><trkpt lat="37.788435" lon="-1.4371683"><ele>175.0</ele><time>2026-04-25T07:16:13.068Z</time></trkpt><trkpt lat="37.78826" lon="-1.43745"><ele>175.0</ele><time>2026-04-25T07:16:14.062Z</time></trkpt><trkpt lat="37.7880833" lon="-1.43773"><ele>175.0</ele><time>2026-04-25T07:16:15.065Z</time></trkpt><trkpt lat="37.78791" lon="-1.4380067"><ele>176.0</ele><time>2026-04-25T07:16:16.06Z</time></trkpt><trkpt lat="37.7877367" lon="-1.4382783"><ele>177.0</ele><time>2026-04-25T07:16:17.06Z</time></trkpt><trkpt lat="37.7875617" lon="-1.43855"><ele>176.5</ele><time>2026-04-25T07:16:18.062Z</time></trkpt><trkpt lat="37.7873833" lon="-1.4388183"><ele>176.0</ele><time>2026-04-25T07:16:19.063Z</time></trkpt><trkpt lat="37.787205" lon="-1.439085"><ele>176.0</ele><time>2026-04-25T07:16:20.063Z</time></trkpt><trkpt lat="37.7870233" lon="-1.43935"><ele>176.0</ele><time>2026-04-25T07:16:21.066Z</time></trkpt><trkpt lat="37.78684" lon="-1.4396133"><ele>177.5</ele><time>2026-04-25T07:16:22.064Z</time></trkpt><trkpt lat="37.7866533" lon="-1.43988"><ele>179.0</ele><time>2026-04-25T07:16:23.063Z</time></trkpt><trkpt lat="37.786465" lon="-1.440145"><ele>179.0</ele><time>2026-04-25T07:16:24.061Z</time></trkpt><trkpt lat="37.7862717" lon="-1.4404117"><ele>179.0</ele><time>2026-04-25T07:16:25.061Z</time></trkpt><trkpt lat="37.7860767" lon="-1.4406783"><ele>179.5</ele><time>2026-04-25T07:16:26.061Z</time></trkpt><trkpt lat="37.78588" lon="-1.4409417"><ele>180.0</ele><time>2026-04-25T07:16:27.058Z</time></trkpt><trkpt lat="37.7856783" lon="-1.441205"><ele>179.5</ele><time>2026-04-25T07:16:28.063Z</time></trkpt><trkpt lat="37.7854783" lon="-1.4414667"><ele>179.0</ele><time>2026-04-25T07:16:29.069Z</time></trkpt><trkpt lat="37.785275" lon="-1.4417267"><ele>180.0</ele><time>2026-04-25T07:16:30.064Z</time></trkpt><trkpt lat="37.7850683" lon="-1.4419817"><ele>181.0</ele><time>2026-04-25T07:16:31.064Z</time></trkpt><trkpt lat="37.7848583" lon="-1.4422367"><ele>181.0</ele><time>2026-04-25T07:16:32.063Z</time></trkpt><trkpt lat="37.784645" lon="-1.4424867"><ele>181.0</ele><time>2026-04-25T07:16:33.06Z</time></trkpt><trkpt lat="37.7844333" lon="-1.4427383"><ele>180.5</ele><time>2026-04-25T07:16:34.058Z</time></trkpt><trkpt lat="37.7842217" lon="-1.4429867"><ele>180.0</ele><time>2026-04-25T07:16:35.062Z</time></trkpt><trkpt lat="37.7840083" lon="-1.4432317"><ele>180.0</ele><time>2026-04-25T07:16:36.066Z</time></trkpt><trkpt lat="37.7837983" lon="-1.4434733"><ele>180.0</ele><time>2026-04-25T07:16:37.061Z</time></trkpt><trkpt lat="37.783585" lon="-1.44371"><ele>182.0</ele><time>2026-04-25T07:16:38.064Z</time></trkpt><trkpt lat="37.7833683" lon="-1.44394"><ele>184.0</ele><time>2026-04-25T07:16:39.069Z</time></trkpt><trkpt lat="37.7831517" lon="-1.4441683"><ele>184.0</ele><time>2026-04-25T07:16:40.061Z</time></trkpt><trkpt lat="37.782935" lon="-1.4443983"><ele>184.0</ele><time>2026-04-25T07:16:41.063Z</time></trkpt><trkpt lat="37.7827167" lon="-1.4446267"><ele>184.0</ele><time>2026-04-25T07:16:42.062Z</time></trkpt><trkpt lat="37.7824983" lon="-1.4448517"><ele>184.0</ele><time>2026-04-25T07:16:43.06Z</time></trkpt><trkpt lat="37.78228" lon="-1.4450733"><ele>184.0</ele><time>2026-04-25T07:16:44.06Z</time></trkpt><trkpt lat="37.7820583" lon="-1.4452933"><ele>184.0</ele><time>2026-04-25T07:16:45.065Z</time></trkpt><trkpt lat="37.7818317" lon="-1.4455167"><ele>183.5</ele><time>2026-04-25T07:16:46.065Z</time></trkpt><trkpt lat="37.7816033" lon="-1.44574"><ele>183.0</ele><time>2026-04-25T07:16:47.066Z</time></trkpt><trkpt lat="37.7813733" lon="-1.4459583"><ele>183.0</ele><time>2026-04-25T07:16:48.067Z</time></trkpt><trkpt lat="37.78114" lon="-1.446175"><ele>183.0</ele><time>2026-04-25T07:16:49.059Z</time></trkpt><trkpt lat="37.780905" lon="-1.4463867"><ele>183.0</ele><time>2026-04-25T07:16:50.067Z</time></trkpt><trkpt lat="37.7806683" lon="-1.446595"><ele>183.0</ele><time>2026-04-25T07:16:51.059Z</time></trkpt><trkpt lat="37.7804317" lon="-1.4468033"><ele>183.0</ele><time>2026-04-25T07:16:52.061Z</time></trkpt><trkpt lat="37.780195" lon="-1.4470117"><ele>183.0</ele><time>2026-04-25T07:16:53.061Z</time></trkpt><trkpt lat="37.7799583" lon="-1.4472183"><ele>184.0</ele><time>2026-04-25T07:16:54.061Z</time></trkpt><trkpt lat="37.77972" lon="-1.44742"><ele>185.0</ele><time>2026-04-25T07:16:55.065Z</time></trkpt><trkpt lat="37.77948" lon="-1.44762"><ele>185.5</ele><time>2026-04-25T07:16:56.061Z</time></trkpt><trkpt lat="37.7792383" lon="-1.4478167"><ele>186.0</ele><time>2026-04-25T07:16:57.064Z</time></trkpt><trkpt lat="37.778995" lon="-1.44801"><ele>186.0</ele><time>2026-04-25T07:16:58.065Z</time></trkpt><trkpt lat="37.7787533" lon="-1.4482017"><ele>186.0</ele><time>2026-04-25T07:16:59.061Z</time></trkpt><trkpt lat="37.77851" lon="-1.4483917"><ele>186.0</ele><time>2026-04-25T07:17:00.065Z</time></trkpt><trkpt lat="37.778265" lon="-1.4485817"><ele>186.0</ele><time>2026-04-25T07:17:01.06Z</time></trkpt><trkpt lat="37.7780183" lon="-1.44877"><ele>186.5</ele><time>2026-04-25T07:17:02.063Z</time></trkpt><trkpt lat="37.77777" lon="-1.4489533"><ele>187.0</ele><time>2026-04-25T07:17:03.065Z</time></trkpt><trkpt lat="37.7775217" lon="-1.4491367"><ele>187.0</ele><time>2026-04-25T07:17:04.066Z</time></trkpt><trkpt lat="37.7772733" lon="-1.4493217"><ele>187.0</ele><time>2026-04-25T07:17:05.068Z</time></trkpt><trkpt lat="37.7770233" lon="-1.4495033"><ele>187.0</ele><time>2026-04-25T07:17:06.064Z</time></trkpt><trkpt lat="37.7767733" lon="-1.44968"><ele>187.0</ele><time>2026-04-25T07:17:07.064Z</time></trkpt><trkpt lat="37.7765217" lon="-1.4498583"><ele>187.0</ele><time>2026-04-25T07:17:08.058Z</time></trkpt><trkpt lat="37.7762717" lon="-1.4500367"><ele>187.0</ele><time>2026-04-25T07:17:09.06Z</time></trkpt><trkpt lat="37.77602" lon="-1.45021"><ele>187.0</ele><time>2026-04-25T07:17:10.058Z</time></trkpt><trkpt lat="37.7757667" lon="-1.4503833"><ele>187.0</ele><time>2026-04-25T07:17:11.06Z</time></trkpt><trkpt lat="37.77551" lon="-1.450555"><ele>187.0</ele><time>2026-04-25T07:17:12.061Z</time></trkpt><trkpt lat="37.775255" lon="-1.4507267"><ele>187.0</ele><time>2026-04-25T07:17:13.064Z</time></trkpt><trkpt lat="37.7749967" lon="-1.4508983"><ele>187.0</ele><time>2026-04-25T07:17:14.066Z</time></trkpt><trkpt lat="37.77474" lon="-1.45107"><ele>187.0</ele><time>2026-04-25T07:17:15.062Z</time></trkpt><trkpt lat="37.77448" lon="-1.45124"><ele>189.0</ele><time>2026-04-25T07:17:16.064Z</time></trkpt><trkpt lat="37.77422" lon="-1.45141"><ele>191.0</ele><time>2026-04-25T07:17:17.06Z</time></trkpt><trkpt lat="37.77396" lon="-1.45158"><ele>191.0</ele><time>2026-04-25T07:17:18.06Z</time></trkpt><trkpt lat="37.7736967" lon="-1.4517467"><ele>191.0</ele><time>2026-04-25T07:17:19.065Z</time></trkpt><trkpt lat="37.7734333" lon="-1.451915"><ele>191.5</ele><time>2026-04-25T07:17:20.06Z</time></trkpt><trkpt lat="37.7731717" lon="-1.4520833"><ele>192.0</ele><time>2026-04-25T07:17:21.059Z</time></trkpt><trkpt lat="37.7729083" lon="-1.45225"><ele>193.5</ele><time>2026-04-25T07:17:22.066Z</time></trkpt><trkpt lat="37.772645" lon="-1.452415"><ele>195.0</ele><time>2026-04-25T07:17:23.061Z</time></trkpt><trkpt lat="37.7723817" lon="-1.4525817"><ele>195.0</ele><time>2026-04-25T07:17:24.063Z</time></trkpt><trkpt lat="37.77212" lon="-1.4527483"><ele>195.0</ele><time>2026-04-25T07:17:25.059Z</time></trkpt><trkpt lat="37.77186" lon="-1.4529167"><ele>194.0</ele><time>2026-04-25T07:17:26.06Z</time></trkpt><trkpt lat="37.7716017" lon="-1.4530817"><ele>193.0</ele><time>2026-04-25T07:17:27.061Z</time></trkpt><trkpt lat="37.77134" lon="-1.4532467"><ele>193.0</ele><time>2026-04-25T07:17:28.059Z</time></trkpt><trkpt lat="37.7710817" lon="-1.4534117"><ele>193.0</ele><time>2026-04-25T07:17:29.065Z</time></trkpt><trkpt lat="37.7708217" lon="-1.4535767"><ele>192.0</ele><time>2026-04-25T07:17:30.061Z</time></trkpt><trkpt lat="37.7705617" lon="-1.4537417"><ele>191.0</ele><time>2026-04-25T07:17:31.066Z</time></trkpt><trkpt lat="37.770305" lon="-1.4539083"><ele>191.0</ele><time>2026-04-25T07:17:32.067Z</time></trkpt><trkpt lat="37.77005" lon="-1.454075"><ele>191.0</ele><time>2026-04-25T07:17:33.06Z</time></trkpt><trkpt lat="37.7697967" lon="-1.45424"><ele>191.0</ele><time>2026-04-25T07:17:34.064Z</time></trkpt><trkpt lat="37.7695417" lon="-1.4544067"><ele>191.0</ele><time>2026-04-25T07:17:35.063Z</time></trkpt><trkpt lat="37.7692883" lon="-1.4545717"><ele>192.0</ele><time>2026-04-25T07:17:36.063Z</time></trkpt><trkpt lat="37.7690367" lon="-1.4547367"><ele>193.0</ele><time>2026-04-25T07:17:37.06Z</time></trkpt><trkpt lat="37.7687833" lon="-1.4549017"><ele>193.0</ele><time>2026-04-25T07:17:38.068Z</time></trkpt><trkpt lat="37.76853" lon="-1.4550683"><ele>193.0</ele><time>2026-04-25T07:17:39.063Z</time></trkpt><trkpt lat="37.7682767" lon="-1.455235"><ele>193.0</ele><time>2026-04-25T07:17:40.06Z</time></trkpt><trkpt lat="37.7680233" lon="-1.4554017"><ele>193.0</ele><time>2026-04-25T07:17:41.062Z</time></trkpt><trkpt lat="37.7677717" lon="-1.4555683"><ele>194.0</ele><time>2026-04-25T07:17:42.061Z</time></trkpt><trkpt lat="37.7675183" lon="-1.4557367"><ele>195.0</ele><time>2026-04-25T07:17:43.061Z</time></trkpt><trkpt lat="37.767265" lon="-1.4559067"><ele>195.0</ele><time>2026-04-25T07:17:44.06Z</time></trkpt><trkpt lat="37.7670117" lon="-1.45608"><ele>195.0</ele><time>2026-04-25T07:17:45.061Z</time></trkpt><trkpt lat="37.766755" lon="-1.456255"><ele>197.0</ele><time>2026-04-25T07:17:46.058Z</time></trkpt><trkpt lat="37.7664983" lon="-1.4564283"><ele>199.0</ele><time>2026-04-25T07:17:47.061Z</time></trkpt><trkpt lat="37.766245" lon="-1.4566083"><ele>197.5</ele><time>2026-04-25T07:17:48.069Z</time></trkpt><trkpt lat="37.7659883" lon="-1.4567917"><ele>196.0</ele><time>2026-04-25T07:17:49.059Z</time></trkpt><trkpt lat="37.765735" lon="-1.456975"><ele>196.0</ele><time>2026-04-25T07:17:50.062Z</time></trkpt><trkpt lat="37.76548" lon="-1.4571583"><ele>196.0</ele><time>2026-04-25T07:17:51.062Z</time></trkpt><trkpt lat="37.765225" lon="-1.457345"><ele>196.5</ele><time>2026-04-25T07:17:52.062Z</time></trkpt><trkpt lat="37.7649717" lon="-1.457535"><ele>197.0</ele><time>2026-04-25T07:17:53.062Z</time></trkpt><trkpt lat="37.7647183" lon="-1.4577283"><ele>197.0</ele><time>2026-04-25T07:17:54.061Z</time></trkpt><trkpt lat="37.7644667" lon="-1.4579217"><ele>197.0</ele><time>2026-04-25T07:17:55.065Z</time></trkpt><trkpt lat="37.7642167" lon="-1.45812"><ele>197.0</ele><time>2026-04-25T07:17:56.066Z</time></trkpt><trkpt lat="37.763965" lon="-1.45832"><ele>197.0</ele><time>2026-04-25T07:17:57.058Z</time></trkpt><trkpt lat="37.763715" lon="-1.4585233"><ele>197.5</ele><time>2026-04-25T07:17:58.061Z</time></trkpt><trkpt lat="37.7634633" lon="-1.4587283"><ele>198.0</ele><time>2026-04-25T07:17:59.06Z</time></trkpt><trkpt lat="37.7632133" lon="-1.4589333"><ele>198.5</ele><time>2026-04-25T07:18:00.059Z</time></trkpt><trkpt lat="37.7629633" lon="-1.4591417"><ele>199.0</ele><time>2026-04-25T07:18:01.061Z</time></trkpt><trkpt lat="37.762715" lon="-1.459355"><ele>199.5</ele><time>2026-04-25T07:18:02.064Z</time></trkpt><trkpt lat="37.7624683" lon="-1.4595683"><ele>200.0</ele><time>2026-04-25T07:18:03.061Z</time></trkpt><trkpt lat="37.762225" lon="-1.4597817"><ele>200.0</ele><time>2026-04-25T07:18:04.064Z</time></trkpt><trkpt lat="37.7619833" lon="-1.4599967"><ele>200.0</ele><time>2026-04-25T07:18:05.069Z</time></trkpt><trkpt lat="37.7617433" lon="-1.460215"><ele>200.0</ele><time>2026-04-25T07:18:06.07Z</time></trkpt><trkpt lat="37.7615033" lon="-1.460435"><ele>200.0</ele><time>2026-04-25T07:18:07.063Z</time></trkpt><trkpt lat="37.7612667" lon="-1.4606567"><ele>199.5</ele><time>2026-04-25T07:18:08.059Z</time></trkpt><trkpt lat="37.7610333" lon="-1.4608817"><ele>199.0</ele><time>2026-04-25T07:18:09.059Z</time></trkpt><trkpt lat="37.7608017" lon="-1.46111"><ele>199.5</ele><time>2026-04-25T07:18:10.061Z</time></trkpt><trkpt lat="37.7605683" lon="-1.4613417"><ele>200.0</ele><time>2026-04-25T07:18:11.062Z</time></trkpt><trkpt lat="37.7603383" lon="-1.461575"><ele>200.5</ele><time>2026-04-25T07:18:12.062Z</time></trkpt><trkpt lat="37.76011" lon="-1.4618117"><ele>201.0</ele><time>2026-04-25T07:18:13.069Z</time></trkpt><trkpt lat="37.7598817" lon="-1.4620517"><ele>202.0</ele><time>2026-04-25T07:18:14.065Z</time></trkpt><trkpt lat="37.7596517" lon="-1.46229"><ele>203.0</ele><time>2026-04-25T07:18:15.064Z</time></trkpt><trkpt lat="37.7594217" lon="-1.4625267"><ele>202.0</ele><time>2026-04-25T07:18:16.058Z</time></trkpt><trkpt lat="37.7591983" lon="-1.4627617"><ele>201.0</ele><time>2026-04-25T07:18:17.06Z</time></trkpt><trkpt lat="37.7589833" lon="-1.4630017"><ele>200.5</ele><time>2026-04-25T07:18:18.057Z</time></trkpt><trkpt lat="37.7587717" lon="-1.4632417"><ele>200.0</ele><time>2026-04-25T07:18:19.063Z</time></trkpt><trkpt lat="37.7585617" lon="-1.463485"><ele>200.5</ele><time>2026-04-25T07:18:20.062Z</time></trkpt><trkpt lat="37.7583517" lon="-1.4637333"><ele>201.0</ele><time>2026-04-25T07:18:21.06Z</time></trkpt><trkpt lat="37.758145" lon="-1.46399"><ele>201.5</ele><time>2026-04-25T07:18:22.063Z</time></trkpt><trkpt lat="37.757945" lon="-1.4642567"><ele>202.0</ele><time>2026-04-25T07:18:23.06Z</time></trkpt><trkpt lat="37.757745" lon="-1.4645233"><ele>202.5</ele><time>2026-04-25T07:18:24.065Z</time></trkpt><trkpt lat="37.7575417" lon="-1.4647883"><ele>203.0</ele><time>2026-04-25T07:18:25.06Z</time></trkpt><trkpt lat="37.7573383" lon="-1.465055"><ele>203.0</ele><time>2026-04-25T07:18:26.063Z</time></trkpt><trkpt lat="37.757135" lon="-1.4653217"><ele>203.0</ele><time>2026-04-25T07:18:27.062Z</time></trkpt><trkpt lat="37.7569317" lon="-1.4655867"><ele>202.5</ele><time>2026-04-25T07:18:28.06Z</time></trkpt><trkpt lat="37.75673" lon="-1.4658533"><ele>202.0</ele><time>2026-04-25T07:18:29.06Z</time></trkpt><trkpt lat="37.7565333" lon="-1.4661233"><ele>202.0</ele><time>2026-04-25T07:18:30.064Z</time></trkpt><trkpt lat="37.756335" lon="-1.4664"><ele>202.0</ele><time>2026-04-25T07:18:31.065Z</time></trkpt><trkpt lat="37.7561367" lon="-1.466675"><ele>202.5</ele><time>2026-04-25T07:18:32.061Z</time></trkpt><trkpt lat="37.7559433" lon="-1.4669533"><ele>203.0</ele><time>2026-04-25T07:18:33.063Z</time></trkpt><trkpt lat="37.755755" lon="-1.4672317"><ele>203.0</ele><time>2026-04-25T07:18:34.062Z</time></trkpt><trkpt lat="37.7555667" lon="-1.4675083"><ele>203.0</ele><time>2026-04-25T07:18:35.059Z</time></trkpt><trkpt lat="37.75538" lon="-1.467785"><ele>204.5</ele><time>2026-04-25T07:18:36.062Z</time></trkpt><trkpt lat="37.7551967" lon="-1.4680617"><ele>206.0</ele><time>2026-04-25T07:18:37.06Z</time></trkpt><trkpt lat="37.755015" lon="-1.4683383"><ele>206.0</ele><time>2026-04-25T07:18:38.061Z</time></trkpt><trkpt lat="37.7548317" lon="-1.4686183"><ele>206.0</ele><time>2026-04-25T07:18:39.064Z</time></trkpt><trkpt lat="37.7546483" lon="-1.4689"><ele>206.0</ele><time>2026-04-25T07:18:40.061Z</time></trkpt><trkpt lat="37.7544683" lon="-1.469185"><ele>206.0</ele><time>2026-04-25T07:18:41.061Z</time></trkpt><trkpt lat="37.75429" lon="-1.469475"><ele>206.5</ele><time>2026-04-25T07:18:42.06Z</time></trkpt><trkpt lat="37.7541133" lon="-1.4697667"><ele>207.0</ele><time>2026-04-25T07:18:43.061Z</time></trkpt><trkpt lat="37.7539383" lon="-1.47006"><ele>207.0</ele><time>2026-04-25T07:18:44.061Z</time></trkpt><trkpt lat="37.7537633" lon="-1.4703533"><ele>207.0</ele><time>2026-04-25T07:18:45.058Z</time></trkpt><trkpt lat="37.7535883" lon="-1.470645"><ele>206.5</ele><time>2026-04-25T07:18:46.06Z</time></trkpt><trkpt lat="37.753415" lon="-1.470935"><ele>206.0</ele><time>2026-04-25T07:18:47.067Z</time></trkpt><trkpt lat="37.7532417" lon="-1.4712267"><ele>206.0</ele><time>2026-04-25T07:18:48.069Z</time></trkpt><trkpt lat="37.7530683" lon="-1.4715233"><ele>206.0</ele><time>2026-04-25T07:18:49.063Z</time></trkpt><trkpt lat="37.7528967" lon="-1.471825"><ele>207.0</ele><time>2026-04-25T07:18:50.062Z</time></trkpt><trkpt lat="37.752725" lon="-1.4721283"><ele>208.0</ele><time>2026-04-25T07:18:51.06Z</time></trkpt><trkpt lat="37.752555" lon="-1.4724333"><ele>208.0</ele><time>2026-04-25T07:18:52.061Z</time></trkpt><trkpt lat="37.7523883" lon="-1.4727417"><ele>208.0</ele><time>2026-04-25T07:18:53.06Z</time></trkpt><trkpt lat="37.752225" lon="-1.47305"><ele>208.5</ele><time>2026-04-25T07:18:54.057Z</time></trkpt><trkpt lat="37.7520633" lon="-1.4733633"><ele>209.0</ele><time>2026-04-25T07:18:55.064Z</time></trkpt><trkpt lat="37.75191" lon="-1.4736783"><ele>208.5</ele><time>2026-04-25T07:18:56.061Z</time></trkpt><trkpt lat="37.7517583" lon="-1.473995"><ele>208.0</ele><time>2026-04-25T07:18:57.067Z</time></trkpt><trkpt lat="37.7516117" lon="-1.4743133"><ele>209.0</ele><time>2026-04-25T07:18:58.064Z</time></trkpt><trkpt lat="37.7514667" lon="-1.4746317"><ele>210.0</ele><time>2026-04-25T07:18:59.065Z</time></trkpt><trkpt lat="37.75132" lon="-1.4749467"><ele>210.0</ele><time>2026-04-25T07:19:00.062Z</time></trkpt><trkpt lat="37.7511733" lon="-1.4752617"><ele>210.0</ele><time>2026-04-25T07:19:01.059Z</time></trkpt><trkpt lat="37.7510267" lon="-1.4755783"><ele>210.5</ele><time>2026-04-25T07:19:02.061Z</time></trkpt><trkpt lat="37.7508783" lon="-1.4758983"><ele>211.0</ele><time>2026-04-25T07:19:03.061Z</time></trkpt><trkpt lat="37.7507333" lon="-1.4762183"><ele>209.5</ele><time>2026-04-25T07:19:04.067Z</time></trkpt><trkpt lat="37.75059" lon="-1.4765383"><ele>208.0</ele><time>2026-04-25T07:19:05.084Z</time></trkpt><trkpt lat="37.75045" lon="-1.4768583"><ele>208.0</ele><time>2026-04-25T07:19:06.063Z</time></trkpt><trkpt lat="37.7503133" lon="-1.47718"><ele>208.0</ele><time>2026-04-25T07:19:07.065Z</time></trkpt><trkpt lat="37.75018" lon="-1.4775017"><ele>208.0</ele><time>2026-04-25T07:19:08.063Z</time></trkpt><trkpt lat="37.7500483" lon="-1.477825"><ele>208.0</ele><time>2026-04-25T07:19:09.06Z</time></trkpt><trkpt lat="37.7499183" lon="-1.4781467"><ele>209.0</ele><time>2026-04-25T07:19:10.06Z</time></trkpt><trkpt lat="37.7497883" lon="-1.4784717"><ele>210.0</ele><time>2026-04-25T07:19:11.063Z</time></trkpt><trkpt lat="37.74966" lon="-1.478795"><ele>210.5</ele><time>2026-04-25T07:19:12.058Z</time></trkpt><trkpt lat="37.7495317" lon="-1.4791217"><ele>211.0</ele><time>2026-04-25T07:19:13.069Z</time></trkpt><trkpt lat="37.7494033" lon="-1.47945"><ele>211.0</ele><time>2026-04-25T07:19:14.066Z</time></trkpt><trkpt lat="37.7492767" lon="-1.479775"><ele>211.0</ele><time>2026-04-25T07:19:15.062Z</time></trkpt><trkpt lat="37.7491533" lon="-1.4801"><ele>211.0</ele><time>2026-04-25T07:19:16.065Z</time></trkpt><trkpt lat="37.7490333" lon="-1.4804217"><ele>211.0</ele><time>2026-04-25T07:19:17.062Z</time></trkpt><trkpt lat="37.7489167" lon="-1.48074"><ele>211.0</ele><time>2026-04-25T07:19:18.062Z</time></trkpt><trkpt lat="37.7488017" lon="-1.48106"><ele>211.0</ele><time>2026-04-25T07:19:19.062Z</time></trkpt><trkpt lat="37.748685" lon="-1.48138"><ele>211.0</ele><time>2026-04-25T07:19:20.06Z</time></trkpt><trkpt lat="37.7485667" lon="-1.4817"><ele>211.0</ele><time>2026-04-25T07:19:21.062Z</time></trkpt><trkpt lat="37.74845" lon="-1.4820217"><ele>211.0</ele><time>2026-04-25T07:19:22.063Z</time></trkpt><trkpt lat="37.748335" lon="-1.482345"><ele>211.0</ele><time>2026-04-25T07:19:23.062Z</time></trkpt><trkpt lat="37.7482217" lon="-1.4826733"><ele>212.5</ele><time>2026-04-25T07:19:24.061Z</time></trkpt><trkpt lat="37.74811" lon="-1.4830033"><ele>214.0</ele><time>2026-04-25T07:19:25.06Z</time></trkpt><trkpt lat="37.748" lon="-1.4833383"><ele>214.0</ele><time>2026-04-25T07:19:26.062Z</time></trkpt><trkpt lat="37.7478967" lon="-1.4836717"><ele>214.0</ele><time>2026-04-25T07:19:27.065Z</time></trkpt><trkpt lat="37.7477967" lon="-1.4840083"><ele>213.0</ele><time>2026-04-25T07:19:28.06Z</time></trkpt><trkpt lat="37.7476983" lon="-1.4843533"><ele>212.0</ele><time>2026-04-25T07:19:29.069Z</time></trkpt><trkpt lat="37.7476033" lon="-1.4846967"><ele>211.5</ele><time>2026-04-25T07:19:30.062Z</time></trkpt><trkpt lat="37.74751" lon="-1.4850467"><ele>211.0</ele><time>2026-04-25T07:19:31.061Z</time></trkpt><trkpt lat="37.7474183" lon="-1.4853967"><ele>212.0</ele><time>2026-04-25T07:19:32.062Z</time></trkpt><trkpt lat="37.74733" lon="-1.48575"><ele>213.0</ele><time>2026-04-25T07:19:33.065Z</time></trkpt><trkpt lat="37.74724" lon="-1.4861017"><ele>213.5</ele><time>2026-04-25T07:19:34.06Z</time></trkpt><trkpt lat="37.74715" lon="-1.4864517"><ele>214.0</ele><time>2026-04-25T07:19:35.06Z</time></trkpt><trkpt lat="37.7470583" lon="-1.4868017"><ele>213.0</ele><time>2026-04-25T07:19:36.06Z</time></trkpt><trkpt lat="37.7469683" lon="-1.4871517"><ele>212.0</ele><time>2026-04-25T07:19:37.061Z</time></trkpt><trkpt lat="37.74688" lon="-1.4875"><ele>212.5</ele><time>2026-04-25T07:19:38.063Z</time></trkpt><trkpt lat="37.7467967" lon="-1.4878467"><ele>213.0</ele><time>2026-04-25T07:19:39.066Z</time></trkpt><trkpt lat="37.7467183" lon="-1.4881917"><ele>213.0</ele><time>2026-04-25T07:19:40.062Z</time></trkpt><trkpt lat="37.7466417" lon="-1.4885333"><ele>213.0</ele><time>2026-04-25T07:19:41.066Z</time></trkpt><trkpt lat="37.746565" lon="-1.4888733"><ele>214.0</ele><time>2026-04-25T07:19:42.06Z</time></trkpt><trkpt lat="37.7464883" lon="-1.4892083"><ele>215.0</ele><time>2026-04-25T07:19:43.06Z</time></trkpt><trkpt lat="37.7464133" lon="-1.4895467"><ele>215.0</ele><time>2026-04-25T07:19:44.062Z</time></trkpt><trkpt lat="37.74634" lon="-1.4898833"><ele>215.0</ele><time>2026-04-25T07:19:45.06Z</time></trkpt><trkpt lat="37.74627" lon="-1.4902217"><ele>215.5</ele><time>2026-04-25T07:19:46.063Z</time></trkpt><trkpt lat="37.746205" lon="-1.4905583"><ele>216.0</ele><time>2026-04-25T07:19:47.063Z</time></trkpt><trkpt lat="37.7461417" lon="-1.490895"><ele>216.0</ele><time>2026-04-25T07:19:48.062Z</time></trkpt><trkpt lat="37.74608" lon="-1.4912317"><ele>216.0</ele><time>2026-04-25T07:19:49.064Z</time></trkpt><trkpt lat="37.74602" lon="-1.4915667"><ele>217.0</ele><time>2026-04-25T07:19:50.062Z</time></trkpt><trkpt lat="37.7459633" lon="-1.4919033"><ele>218.0</ele><time>2026-04-25T07:19:51.062Z</time></trkpt><trkpt lat="37.7459083" lon="-1.4922383"><ele>219.0</ele><time>2026-04-25T07:19:52.062Z</time></trkpt><trkpt lat="37.7458533" lon="-1.492575"><ele>220.0</ele><time>2026-04-25T07:19:53.059Z</time></trkpt><trkpt lat="37.7457967" lon="-1.4929133"><ele>218.5</ele><time>2026-04-25T07:19:54.061Z</time></trkpt><trkpt lat="37.7457417" lon="-1.49325"><ele>217.0</ele><time>2026-04-25T07:19:55.064Z</time></trkpt><trkpt lat="37.7456917" lon="-1.493585"><ele>217.5</ele><time>2026-04-25T07:19:56.068Z</time></trkpt><trkpt lat="37.74564" lon="-1.49392"><ele>218.0</ele><time>2026-04-25T07:19:57.062Z</time></trkpt><trkpt lat="37.7455917" lon="-1.4942567"><ele>219.0</ele><time>2026-04-25T07:19:58.059Z</time></trkpt><trkpt lat="37.7455417" lon="-1.494595"><ele>220.0</ele><time>2026-04-25T07:19:59.062Z</time></trkpt><trkpt lat="37.7454933" lon="-1.4949333"><ele>220.0</ele><time>2026-04-25T07:20:00.059Z</time></trkpt><trkpt lat="37.7454467" lon="-1.4952717"><ele>220.0</ele><time>2026-04-25T07:20:01.061Z</time></trkpt><trkpt lat="37.7453983" lon="-1.4956117"><ele>220.0</ele><time>2026-04-25T07:20:02.061Z</time></trkpt><trkpt lat="37.7453517" lon="-1.495945"><ele>220.0</ele><time>2026-04-25T07:20:03.059Z</time></trkpt><trkpt lat="37.74531" lon="-1.49628"><ele>220.0</ele><time>2026-04-25T07:20:04.063Z</time></trkpt><trkpt lat="37.745265" lon="-1.496625"><ele>220.0</ele><time>2026-04-25T07:20:05.063Z</time></trkpt><trkpt lat="37.7452233" lon="-1.4969683"><ele>221.0</ele><time>2026-04-25T07:20:06.061Z</time></trkpt><trkpt lat="37.7451817" lon="-1.497315"><ele>222.0</ele><time>2026-04-25T07:20:07.064Z</time></trkpt><trkpt lat="37.7451417" lon="-1.4976667"><ele>221.5</ele><time>2026-04-25T07:20:08.062Z</time></trkpt><trkpt lat="37.745105" lon="-1.49802"><ele>221.0</ele><time>2026-04-25T07:20:09.062Z</time></trkpt><trkpt lat="37.7450683" lon="-1.498375"><ele>221.0</ele><time>2026-04-25T07:20:10.056Z</time></trkpt><trkpt lat="37.7450317" lon="-1.49873"><ele>221.0</ele><time>2026-04-25T07:20:11.061Z</time></trkpt><trkpt lat="37.7449933" lon="-1.4990883"><ele>221.0</ele><time>2026-04-25T07:20:12.063Z</time></trkpt><trkpt lat="37.7449567" lon="-1.4994467"><ele>221.0</ele><time>2026-04-25T07:20:13.058Z</time></trkpt><trkpt lat="37.74492" lon="-1.499805"><ele>221.5</ele><time>2026-04-25T07:20:14.063Z</time></trkpt><trkpt lat="37.7448867" lon="-1.5001633"><ele>222.0</ele><time>2026-04-25T07:20:15.063Z</time></trkpt><trkpt lat="37.744855" lon="-1.5005233"><ele>222.0</ele><time>2026-04-25T07:20:16.064Z</time></trkpt><trkpt lat="37.7448217" lon="-1.500885"><ele>222.0</ele><time>2026-04-25T07:20:17.064Z</time></trkpt><trkpt lat="37.7447917" lon="-1.501245"><ele>222.5</ele><time>2026-04-25T07:20:18.062Z</time></trkpt><trkpt lat="37.7447617" lon="-1.5016067"><ele>223.0</ele><time>2026-04-25T07:20:19.058Z</time></trkpt><trkpt lat="37.7447317" lon="-1.50197"><ele>224.5</ele><time>2026-04-25T07:20:20.061Z</time></trkpt><trkpt lat="37.7447017" lon="-1.5023333"><ele>226.0</ele><time>2026-04-25T07:20:21.067Z</time></trkpt><trkpt lat="37.744675" lon="-1.5026967"><ele>225.0</ele><time>2026-04-25T07:20:22.065Z</time></trkpt><trkpt lat="37.7446483" lon="-1.5030633"><ele>224.0</ele><time>2026-04-25T07:20:23.064Z</time></trkpt><trkpt lat="37.7446217" lon="-1.5034283"><ele>225.0</ele><time>2026-04-25T07:20:24.066Z</time></trkpt><trkpt lat="37.744595" lon="-1.5037917"><ele>226.0</ele><time>2026-04-25T07:20:25.062Z</time></trkpt><trkpt lat="37.74457" lon="-1.5041517"><ele>226.0</ele><time>2026-04-25T07:20:26.07Z</time></trkpt><trkpt lat="37.7445467" lon="-1.50451"><ele>226.0</ele><time>2026-04-25T07:20:27.061Z</time></trkpt><trkpt lat="37.7445217" lon="-1.5048683"><ele>226.5</ele><time>2026-04-25T07:20:28.071Z</time></trkpt><trkpt lat="37.7444983" lon="-1.5052217"><ele>227.0</ele><time>2026-04-25T07:20:29.061Z</time></trkpt><trkpt lat="37.7444767" lon="-1.505575"><ele>227.0</ele><time>2026-04-25T07:20:30.059Z</time></trkpt><trkpt lat="37.7444567" lon="-1.505925"><ele>227.0</ele><time>2026-04-25T07:20:31.062Z</time></trkpt><trkpt lat="37.7444367" lon="-1.5062783"><ele>227.0</ele><time>2026-04-25T07:20:32.066Z</time></trkpt><trkpt lat="37.7444183" lon="-1.5066267"><ele>227.0</ele><time>2026-04-25T07:20:33.062Z</time></trkpt><trkpt lat="37.7444" lon="-1.506975"><ele>229.0</ele><time>2026-04-25T07:20:34.059Z</time></trkpt><trkpt lat="37.7443783" lon="-1.5073183"><ele>231.0</ele><time>2026-04-25T07:20:35.061Z</time></trkpt><trkpt lat="37.7443567" lon="-1.5076633"><ele>230.5</ele><time>2026-04-25T07:20:36.061Z</time></trkpt><trkpt lat="37.7443383" lon="-1.50801"><ele>230.0</ele><time>2026-04-25T07:20:37.061Z</time></trkpt><trkpt lat="37.7443183" lon="-1.508355"><ele>230.0</ele><time>2026-04-25T07:20:38.064Z</time></trkpt><trkpt lat="37.7442983" lon="-1.5087033"><ele>230.0</ele><time>2026-04-25T07:20:39.062Z</time></trkpt><trkpt lat="37.74428" lon="-1.50905"><ele>230.5</ele><time>2026-04-25T07:20:40.064Z</time></trkpt><trkpt lat="37.7442617" lon="-1.5094"><ele>231.0</ele><time>2026-04-25T07:20:41.065Z</time></trkpt><trkpt lat="37.7442433" lon="-1.509745"><ele>232.0</ele><time>2026-04-25T07:20:42.064Z</time></trkpt><trkpt lat="37.744225" lon="-1.5100917"><ele>233.0</ele><time>2026-04-25T07:20:43.062Z</time></trkpt><trkpt lat="37.7442083" lon="-1.5104383"><ele>234.5</ele><time>2026-04-25T07:20:44.061Z</time></trkpt><trkpt lat="37.7441933" lon="-1.5107867"><ele>236.0</ele><time>2026-04-25T07:20:45.064Z</time></trkpt><trkpt lat="37.744175" lon="-1.5111317"><ele>235.5</ele><time>2026-04-25T07:20:46.059Z</time></trkpt><trkpt lat="37.7441567" lon="-1.5114767"><ele>235.0</ele><time>2026-04-25T07:20:47.063Z</time></trkpt><trkpt lat="37.7441367" lon="-1.5118233"><ele>234.5</ele><time>2026-04-25T07:20:48.059Z</time></trkpt><trkpt lat="37.7441183" lon="-1.5121717"><ele>234.0</ele><time>2026-04-25T07:20:49.061Z</time></trkpt><trkpt lat="37.7441" lon="-1.51252"><ele>234.0</ele><time>2026-04-25T07:20:50.064Z</time></trkpt><trkpt lat="37.744085" lon="-1.51287"><ele>234.0</ele><time>2026-04-25T07:20:51.065Z</time></trkpt><trkpt lat="37.74407" lon="-1.5132217"><ele>234.0</ele><time>2026-04-25T07:20:52.06Z</time></trkpt><trkpt lat="37.74405" lon="-1.5135717"><ele>234.0</ele><time>2026-04-25T07:20:53.067Z</time></trkpt><trkpt lat="37.7440283" lon="-1.51392"><ele>235.0</ele><time>2026-04-25T07:20:54.063Z</time></trkpt><trkpt lat="37.744005" lon="-1.514265"><ele>236.0</ele><time>2026-04-25T07:20:55.061Z</time></trkpt><trkpt lat="37.74398" lon="-1.5146067"><ele>236.0</ele><time>2026-04-25T07:20:56.063Z</time></trkpt><trkpt lat="37.743955" lon="-1.5149467"><ele>236.0</ele><time>2026-04-25T07:20:57.064Z</time></trkpt><trkpt lat="37.74393" lon="-1.5152867"><ele>237.0</ele><time>2026-04-25T07:20:58.066Z</time></trkpt><trkpt lat="37.743905" lon="-1.5156233"><ele>238.0</ele><time>2026-04-25T07:20:59.067Z</time></trkpt><trkpt lat="37.7438783" lon="-1.5159583"><ele>238.5</ele><time>2026-04-25T07:21:00.063Z</time></trkpt><trkpt lat="37.74385" lon="-1.5162917"><ele>239.0</ele><time>2026-04-25T07:21:01.064Z</time></trkpt><trkpt lat="37.7438183" lon="-1.5166233"><ele>239.0</ele><time>2026-04-25T07:21:02.062Z</time></trkpt><trkpt lat="37.7437867" lon="-1.5169583"><ele>239.0</ele><time>2026-04-25T07:21:03.06Z</time></trkpt><trkpt lat="37.7437517" lon="-1.5172967"><ele>239.5</ele><time>2026-04-25T07:21:04.059Z</time></trkpt><trkpt lat="37.743715" lon="-1.5176367"><ele>240.0</ele><time>2026-04-25T07:21:05.061Z</time></trkpt><trkpt lat="37.743675" lon="-1.51798"><ele>241.0</ele><time>2026-04-25T07:21:06.064Z</time></trkpt><trkpt lat="37.7436333" lon="-1.5183217"><ele>242.0</ele><time>2026-04-25T07:21:07.06Z</time></trkpt><trkpt lat="37.74359" lon="-1.5186633"><ele>243.0</ele><time>2026-04-25T07:21:08.064Z</time></trkpt><trkpt lat="37.7435433" lon="-1.5190033"><ele>244.0</ele><time>2026-04-25T07:21:09.063Z</time></trkpt><trkpt lat="37.7434917" lon="-1.5193433"><ele>243.0</ele><time>2026-04-25T07:21:10.062Z</time></trkpt><trkpt lat="37.74344" lon="-1.519685"><ele>242.0</ele><time>2026-04-25T07:21:11.061Z</time></trkpt><trkpt lat="37.743385" lon="-1.52003"><ele>242.0</ele><time>2026-04-25T07:21:12.064Z</time></trkpt><trkpt lat="37.743325" lon="-1.5203767"><ele>242.0</ele><time>2026-04-25T07:21:13.059Z</time></trkpt><trkpt lat="37.7432667" lon="-1.5207233"><ele>242.5</ele><time>2026-04-25T07:21:14.061Z</time></trkpt><trkpt lat="37.743205" lon="-1.5210717"><ele>243.0</ele><time>2026-04-25T07:21:15.062Z</time></trkpt><trkpt lat="37.7431383" lon="-1.5214183"><ele>244.5</ele><time>2026-04-25T07:21:16.066Z</time></trkpt><trkpt lat="37.7430633" lon="-1.521765"><ele>246.0</ele><time>2026-04-25T07:21:17.06Z</time></trkpt><trkpt lat="37.7429883" lon="-1.5221083"><ele>247.0</ele><time>2026-04-25T07:21:18.064Z</time></trkpt><trkpt lat="37.7429083" lon="-1.52245"><ele>248.0</ele><time>2026-04-25T07:21:19.059Z</time></trkpt><trkpt lat="37.7428233" lon="-1.52279"><ele>248.5</ele><time>2026-04-25T07:21:20.063Z</time></trkpt><trkpt lat="37.742735" lon="-1.52313"><ele>249.0</ele><time>2026-04-25T07:21:21.065Z</time></trkpt><trkpt lat="37.7426433" lon="-1.5234683"><ele>250.0</ele><time>2026-04-25T07:21:22.063Z</time></trkpt><trkpt lat="37.7425483" lon="-1.5238033"><ele>251.0</ele><time>2026-04-25T07:21:23.066Z</time></trkpt><trkpt lat="37.74245" lon="-1.524135"><ele>251.0</ele><time>2026-04-25T07:21:24.068Z</time></trkpt><trkpt lat="37.7423517" lon="-1.524465"><ele>251.0</ele><time>2026-04-25T07:21:25.063Z</time></trkpt><trkpt lat="37.74225" lon="-1.524795"><ele>252.5</ele><time>2026-04-25T07:21:26.063Z</time></trkpt><trkpt lat="37.742145" lon="-1.5251217"><ele>254.0</ele><time>2026-04-25T07:21:27.06Z</time></trkpt><trkpt lat="37.7420367" lon="-1.525445"><ele>255.0</ele><time>2026-04-25T07:21:28.062Z</time></trkpt><trkpt lat="37.741925" lon="-1.5257683"><ele>256.0</ele><time>2026-04-25T07:21:29.062Z</time></trkpt><trkpt lat="37.74181" lon="-1.5260917"><ele>256.5</ele><time>2026-04-25T07:21:30.061Z</time></trkpt><trkpt lat="37.7416917" lon="-1.5264117"><ele>257.0</ele><time>2026-04-25T07:21:31.059Z</time></trkpt><trkpt lat="37.7415717" lon="-1.52673"><ele>257.0</ele><time>2026-04-25T07:21:32.065Z</time></trkpt><trkpt lat="37.74145" lon="-1.527045"><ele>257.0</ele><time>2026-04-25T07:21:33.062Z</time></trkpt><trkpt lat="37.741325" lon="-1.5273583"><ele>257.5</ele><time>2026-04-25T07:21:34.059Z</time></trkpt><trkpt lat="37.7411983" lon="-1.5276667"><ele>258.0</ele><time>2026-04-25T07:21:35.062Z</time></trkpt><trkpt lat="37.7410667" lon="-1.5279733"><ele>258.5</ele><time>2026-04-25T07:21:36.062Z</time></trkpt><trkpt lat="37.7409283" lon="-1.5282783"><ele>259.0</ele><time>2026-04-25T07:21:37.062Z</time></trkpt><trkpt lat="37.7407867" lon="-1.52858"><ele>259.0</ele><time>2026-04-25T07:21:38.06Z</time></trkpt><trkpt lat="37.7406417" lon="-1.5288817"><ele>259.0</ele><time>2026-04-25T07:21:39.064Z</time></trkpt><trkpt lat="37.74049" lon="-1.5291767"><ele>259.0</ele><time>2026-04-25T07:21:40.061Z</time></trkpt><trkpt lat="37.7403317" lon="-1.5294733"><ele>259.0</ele><time>2026-04-25T07:21:41.061Z</time></trkpt><trkpt lat="37.7401683" lon="-1.5297683"><ele>260.5</ele><time>2026-04-25T07:21:42.063Z</time></trkpt><trkpt lat="37.7399983" lon="-1.5300617"><ele>262.0</ele><time>2026-04-25T07:21:43.062Z</time></trkpt><trkpt lat="37.7398183" lon="-1.53035"><ele>263.5</ele><time>2026-04-25T07:21:44.062Z</time></trkpt><trkpt lat="37.7396283" lon="-1.5306333"><ele>265.0</ele><time>2026-04-25T07:21:45.061Z</time></trkpt><trkpt lat="37.73943" lon="-1.53091"><ele>264.5</ele><time>2026-04-25T07:21:46.062Z</time></trkpt><trkpt lat="37.739225" lon="-1.5311817"><ele>264.0</ele><time>2026-04-25T07:21:47.067Z</time></trkpt><trkpt lat="37.7390167" lon="-1.5314483"><ele>265.0</ele><time>2026-04-25T07:21:48.064Z</time></trkpt><trkpt lat="37.7388033" lon="-1.53171"><ele>266.0</ele><time>2026-04-25T07:21:49.062Z</time></trkpt><trkpt lat="37.7385867" lon="-1.5319633"><ele>264.0</ele><time>2026-04-25T07:21:50.067Z</time></trkpt><trkpt lat="37.738365" lon="-1.5322117"><ele>262.0</ele><time>2026-04-25T07:21:51.062Z</time></trkpt><trkpt lat="37.73814" lon="-1.532455"><ele>262.0</ele><time>2026-04-25T07:21:52.062Z</time></trkpt><trkpt lat="37.7379117" lon="-1.532695"><ele>262.0</ele><time>2026-04-25T07:21:53.062Z</time></trkpt><trkpt lat="37.7376783" lon="-1.5329283"><ele>263.0</ele><time>2026-04-25T07:21:54.061Z</time></trkpt><trkpt lat="37.73744" lon="-1.5331533"><ele>264.0</ele><time>2026-04-25T07:21:55.06Z</time></trkpt><trkpt lat="37.7372" lon="-1.5333733"><ele>264.0</ele><time>2026-04-25T07:21:56.069Z</time></trkpt><trkpt lat="37.7369533" lon="-1.5335867"><ele>264.0</ele><time>2026-04-25T07:21:57.062Z</time></trkpt><trkpt lat="37.7367017" lon="-1.5337883"><ele>261.5</ele><time>2026-04-25T07:21:58.064Z</time></trkpt><trkpt lat="37.7364433" lon="-1.5339783"><ele>259.0</ele><time>2026-04-25T07:21:59.064Z</time></trkpt><trkpt lat="37.7361833" lon="-1.5341617"><ele>259.0</ele><time>2026-04-25T07:22:00.062Z</time></trkpt><trkpt lat="37.7359217" lon="-1.5343433"><ele>259.0</ele><time>2026-04-25T07:22:01.061Z</time></trkpt><trkpt lat="37.73566" lon="-1.5345233"><ele>259.5</ele><time>2026-04-25T07:22:02.061Z</time></trkpt><trkpt lat="37.7353983" lon="-1.5347083"><ele>260.0</ele><time>2026-04-25T07:22:03.063Z</time></trkpt><trkpt lat="37.7351417" lon="-1.5349"><ele>260.0</ele><time>2026-04-25T07:22:04.062Z</time></trkpt><trkpt lat="37.7348867" lon="-1.5351"><ele>260.0</ele><time>2026-04-25T07:22:05.08Z</time></trkpt><trkpt lat="37.73464" lon="-1.5353117"><ele>260.0</ele><time>2026-04-25T07:22:06.062Z</time></trkpt><trkpt lat="37.7343983" lon="-1.535535"><ele>260.0</ele><time>2026-04-25T07:22:07.061Z</time></trkpt><trkpt lat="37.734165" lon="-1.5357717"><ele>259.5</ele><time>2026-04-25T07:22:08.061Z</time></trkpt><trkpt lat="37.73394" lon="-1.5360217"><ele>259.0</ele><time>2026-04-25T07:22:09.063Z</time></trkpt><trkpt lat="37.733725" lon="-1.536285"><ele>258.5</ele><time>2026-04-25T07:22:10.063Z</time></trkpt><trkpt lat="37.7335167" lon="-1.5365567"><ele>258.0</ele><time>2026-04-25T07:22:11.062Z</time></trkpt><trkpt lat="37.7333167" lon="-1.536835"><ele>257.5</ele><time>2026-04-25T07:22:12.063Z</time></trkpt><trkpt lat="37.7331267" lon="-1.537125"><ele>257.0</ele><time>2026-04-25T07:22:13.06Z</time></trkpt><trkpt lat="37.732945" lon="-1.53742"><ele>257.0</ele><time>2026-04-25T07:22:14.062Z</time></trkpt><trkpt lat="37.73277" lon="-1.53772"><ele>257.0</ele><time>2026-04-25T07:22:15.067Z</time></trkpt><trkpt lat="37.7326017" lon="-1.53803"><ele>255.5</ele><time>2026-04-25T07:22:16.06Z</time></trkpt><trkpt lat="37.7324417" lon="-1.5383483"><ele>254.0</ele><time>2026-04-25T07:22:17.061Z</time></trkpt><trkpt lat="37.7322933" lon="-1.538675"><ele>254.5</ele><time>2026-04-25T07:22:18.063Z</time></trkpt><trkpt lat="37.7321517" lon="-1.539005"><ele>255.0</ele><time>2026-04-25T07:22:19.061Z</time></trkpt><trkpt lat="37.7320233" lon="-1.539345"><ele>255.0</ele><time>2026-04-25T07:22:20.059Z</time></trkpt><trkpt lat="37.7319067" lon="-1.53969"><ele>255.0</ele><time>2026-04-25T07:22:21.06Z</time></trkpt><trkpt lat="37.7318033" lon="-1.5400433"><ele>254.0</ele><time>2026-04-25T07:22:22.062Z</time></trkpt><trkpt lat="37.7317067" lon="-1.5404017"><ele>253.0</ele><time>2026-04-25T07:22:23.065Z</time></trkpt><trkpt lat="37.7316167" lon="-1.5407667"><ele>253.0</ele><time>2026-04-25T07:22:24.06Z</time></trkpt><trkpt lat="37.7315383" lon="-1.5411417"><ele>253.0</ele><time>2026-04-25T07:22:25.065Z</time></trkpt><trkpt lat="37.731475" lon="-1.5415267"><ele>253.0</ele><time>2026-04-25T07:22:26.062Z</time></trkpt><trkpt lat="37.7314217" lon="-1.5419167"><ele>253.0</ele><time>2026-04-25T07:22:27.061Z</time></trkpt><trkpt lat="37.7313783" lon="-1.5423133"><ele>253.0</ele><time>2026-04-25T07:22:28.057Z</time></trkpt><trkpt lat="37.73135" lon="-1.542715"><ele>253.0</ele><time>2026-04-25T07:22:29.059Z</time></trkpt><trkpt lat="37.7313317" lon="-1.5431217"><ele>253.0</ele><time>2026-04-25T07:22:30.062Z</time></trkpt><trkpt lat="37.7313267" lon="-1.5435317"><ele>253.0</ele><time>2026-04-25T07:22:31.069Z</time></trkpt><trkpt lat="37.731335" lon="-1.5439417"><ele>253.0</ele><time>2026-04-25T07:22:32.068Z</time></trkpt><trkpt lat="37.731355" lon="-1.5443483"><ele>253.0</ele><time>2026-04-25T07:22:33.062Z</time></trkpt><trkpt lat="37.7313817" lon="-1.544745"><ele>253.0</ele><time>2026-04-25T07:22:34.061Z</time></trkpt><trkpt lat="37.7314133" lon="-1.5451333"><ele>253.0</ele><time>2026-04-25T07:22:35.064Z</time></trkpt><trkpt lat="37.7314433" lon="-1.545515"><ele>252.0</ele><time>2026-04-25T07:22:36.062Z</time></trkpt><trkpt lat="37.7314733" lon="-1.5458983"><ele>251.0</ele><time>2026-04-25T07:22:37.061Z</time></trkpt><trkpt lat="37.7315017" lon="-1.5462767"><ele>250.0</ele><time>2026-04-25T07:22:38.061Z</time></trkpt><trkpt lat="37.7315267" lon="-1.5466517"><ele>249.0</ele><time>2026-04-25T07:22:39.063Z</time></trkpt><trkpt lat="37.731545" lon="-1.5470267"><ele>250.0</ele><time>2026-04-25T07:22:40.065Z</time></trkpt><trkpt lat="37.731555" lon="-1.5474"><ele>251.0</ele><time>2026-04-25T07:22:41.066Z</time></trkpt><trkpt lat="37.7315533" lon="-1.5477733"><ele>250.5</ele><time>2026-04-25T07:22:42.066Z</time></trkpt><trkpt lat="37.73154" lon="-1.548145"><ele>250.0</ele><time>2026-04-25T07:22:43.065Z</time></trkpt><trkpt lat="37.7315167" lon="-1.548515"><ele>250.5</ele><time>2026-04-25T07:22:44.061Z</time></trkpt><trkpt lat="37.7314867" lon="-1.5488817"><ele>251.0</ele><time>2026-04-25T07:22:45.062Z</time></trkpt><trkpt lat="37.731445" lon="-1.54925"><ele>252.0</ele><time>2026-04-25T07:22:46.064Z</time></trkpt><trkpt lat="37.7313933" lon="-1.5496167"><ele>253.0</ele><time>2026-04-25T07:22:47.062Z</time></trkpt><trkpt lat="37.7313333" lon="-1.5499833"><ele>253.0</ele><time>2026-04-25T07:22:48.067Z</time></trkpt><trkpt lat="37.7312617" lon="-1.5503483"><ele>253.0</ele><time>2026-04-25T07:22:49.063Z</time></trkpt><trkpt lat="37.731175" lon="-1.5507033"><ele>251.5</ele><time>2026-04-25T07:22:50.063Z</time></trkpt><trkpt lat="37.7310783" lon="-1.5510483"><ele>250.0</ele><time>2026-04-25T07:22:51.063Z</time></trkpt><trkpt lat="37.730975" lon="-1.5513817"><ele>249.0</ele><time>2026-04-25T07:22:52.064Z</time></trkpt><trkpt lat="37.7308633" lon="-1.5517067"><ele>248.0</ele><time>2026-04-25T07:22:53.06Z</time></trkpt><trkpt lat="37.7307467" lon="-1.5520233"><ele>249.0</ele><time>2026-04-25T07:22:54.061Z</time></trkpt><trkpt lat="37.7306267" lon="-1.5523317"><ele>250.0</ele><time>2026-04-25T07:22:55.062Z</time></trkpt><trkpt lat="37.7305" lon="-1.5526333"><ele>250.0</ele><time>2026-04-25T07:22:56.06Z</time></trkpt><trkpt lat="37.7303633" lon="-1.5529317"><ele>250.0</ele><time>2026-04-25T07:22:57.074Z</time></trkpt><trkpt lat="37.7302283" lon="-1.5532233"><ele>250.5</ele><time>2026-04-25T07:22:58.067Z</time></trkpt><trkpt lat="37.7300933" lon="-1.55351"><ele>251.0</ele><time>2026-04-25T07:22:59.065Z</time></trkpt><trkpt lat="37.72996" lon="-1.5537933"><ele>251.5</ele><time>2026-04-25T07:23:00.061Z</time></trkpt><trkpt lat="37.7298233" lon="-1.5540817"><ele>252.0</ele><time>2026-04-25T07:23:01.06Z</time></trkpt><trkpt lat="37.729685" lon="-1.554375"><ele>252.5</ele><time>2026-04-25T07:23:02.062Z</time></trkpt><trkpt lat="37.7295467" lon="-1.5546733"><ele>253.0</ele><time>2026-04-25T07:23:03.061Z</time></trkpt><trkpt lat="37.729405" lon="-1.5549783"><ele>253.0</ele><time>2026-04-25T07:23:04.059Z</time></trkpt><trkpt lat="37.72926" lon="-1.55529"><ele>253.0</ele><time>2026-04-25T07:23:05.061Z</time></trkpt><trkpt lat="37.7291117" lon="-1.5556067"><ele>253.0</ele><time>2026-04-25T07:23:06.063Z</time></trkpt><trkpt lat="37.72896" lon="-1.5559267"><ele>253.0</ele><time>2026-04-25T07:23:07.062Z</time></trkpt><trkpt lat="37.728805" lon="-1.5562533"><ele>252.5</ele><time>2026-04-25T07:23:08.063Z</time></trkpt><trkpt lat="37.7286467" lon="-1.556585"><ele>252.0</ele><time>2026-04-25T07:23:09.065Z</time></trkpt><trkpt lat="37.7284883" lon="-1.5569167"><ele>251.0</ele><time>2026-04-25T07:23:10.06Z</time></trkpt><trkpt lat="37.7283333" lon="-1.55725"><ele>250.0</ele><time>2026-04-25T07:23:11.063Z</time></trkpt><trkpt lat="37.72818" lon="-1.5575833"><ele>250.0</ele><time>2026-04-25T07:23:12.061Z</time></trkpt><trkpt lat="37.728025" lon="-1.5579183"><ele>250.0</ele><time>2026-04-25T07:23:13.061Z</time></trkpt><trkpt lat="37.7278683" lon="-1.5582533"><ele>250.0</ele><time>2026-04-25T07:23:14.063Z</time></trkpt><trkpt lat="37.727715" lon="-1.5585833"><ele>250.0</ele><time>2026-04-25T07:23:15.067Z</time></trkpt><trkpt lat="37.727565" lon="-1.5589033"><ele>250.0</ele><time>2026-04-25T07:23:16.064Z</time></trkpt><trkpt lat="37.7274183" lon="-1.55922"><ele>250.0</ele><time>2026-04-25T07:23:17.061Z</time></trkpt><trkpt lat="37.7272733" lon="-1.559535"><ele>250.0</ele><time>2026-04-25T07:23:18.063Z</time></trkpt><trkpt lat="37.7271283" lon="-1.5598467"><ele>250.0</ele><time>2026-04-25T07:23:19.061Z</time></trkpt><trkpt lat="37.7269833" lon="-1.56016"><ele>250.0</ele><time>2026-04-25T07:23:20.063Z</time></trkpt><trkpt lat="37.7268383" lon="-1.56047"><ele>250.0</ele><time>2026-04-25T07:23:21.065Z</time></trkpt><trkpt lat="37.7266933" lon="-1.5607767"><ele>250.0</ele><time>2026-04-25T07:23:22.058Z</time></trkpt><trkpt lat="37.72655" lon="-1.5610817"><ele>250.0</ele><time>2026-04-25T07:23:23.058Z</time></trkpt><trkpt lat="37.7264067" lon="-1.561385"><ele>249.5</ele><time>2026-04-25T07:23:24.058Z</time></trkpt><trkpt lat="37.726265" lon="-1.561685"><ele>249.0</ele><time>2026-04-25T07:23:25.061Z</time></trkpt><trkpt lat="37.7261233" lon="-1.5619833"><ele>249.0</ele><time>2026-04-25T07:23:26.066Z</time></trkpt><trkpt lat="37.7259833" lon="-1.56228"><ele>249.0</ele><time>2026-04-25T07:23:27.067Z</time></trkpt><trkpt lat="37.7258467" lon="-1.5625767"><ele>249.0</ele><time>2026-04-25T07:23:28.06Z</time></trkpt><trkpt lat="37.72571" lon="-1.56287"><ele>249.0</ele><time>2026-04-25T07:23:29.062Z</time></trkpt><trkpt lat="37.725575" lon="-1.563165"><ele>249.0</ele><time>2026-04-25T07:23:30.067Z</time></trkpt><trkpt lat="37.7254383" lon="-1.563455"><ele>249.0</ele><time>2026-04-25T07:23:31.061Z</time></trkpt><trkpt lat="37.725305" lon="-1.5637417"><ele>249.5</ele><time>2026-04-25T07:23:32.057Z</time></trkpt><trkpt lat="37.72517" lon="-1.56403"><ele>250.0</ele><time>2026-04-25T07:23:33.063Z</time></trkpt><trkpt lat="37.7250383" lon="-1.5643167"><ele>250.0</ele><time>2026-04-25T07:23:34.065Z</time></trkpt><trkpt lat="37.724905" lon="-1.5646"><ele>250.0</ele><time>2026-04-25T07:23:35.064Z</time></trkpt><trkpt lat="37.7247717" lon="-1.5648817"><ele>250.0</ele><time>2026-04-25T07:23:36.058Z</time></trkpt><trkpt lat="37.7246367" lon="-1.5651633"><ele>250.0</ele><time>2026-04-25T07:23:37.065Z</time></trkpt><trkpt lat="37.7245033" lon="-1.565445"><ele>249.5</ele><time>2026-04-25T07:23:38.064Z</time></trkpt><trkpt lat="37.7243683" lon="-1.5657283"><ele>249.0</ele><time>2026-04-25T07:23:39.066Z</time></trkpt><trkpt lat="37.724235" lon="-1.5660133"><ele>249.0</ele><time>2026-04-25T07:23:40.065Z</time></trkpt><trkpt lat="37.7240983" lon="-1.5663017"><ele>249.0</ele><time>2026-04-25T07:23:41.067Z</time></trkpt><trkpt lat="37.72396" lon="-1.5666017"><ele>249.0</ele><time>2026-04-25T07:23:42.065Z</time></trkpt><trkpt lat="37.7238183" lon="-1.5669067"><ele>249.0</ele><time>2026-04-25T07:23:43.066Z</time></trkpt><trkpt lat="37.723675" lon="-1.5672133"><ele>249.0</ele><time>2026-04-25T07:23:44.065Z</time></trkpt><trkpt lat="37.72353" lon="-1.567525"><ele>249.0</ele><time>2026-04-25T07:23:45.064Z</time></trkpt><trkpt lat="37.723385" lon="-1.56784"><ele>250.0</ele><time>2026-04-25T07:23:46.062Z</time></trkpt><trkpt lat="37.72324" lon="-1.5681517"><ele>251.0</ele><time>2026-04-25T07:23:47.067Z</time></trkpt><trkpt lat="37.7230967" lon="-1.56846"><ele>252.0</ele><time>2026-04-25T07:23:48.064Z</time></trkpt><trkpt lat="37.7229517" lon="-1.5687683"><ele>253.0</ele><time>2026-04-25T07:23:49.063Z</time></trkpt><trkpt lat="37.7228083" lon="-1.5690783"><ele>253.5</ele><time>2026-04-25T07:23:50.063Z</time></trkpt><trkpt lat="37.7226633" lon="-1.5693883"><ele>254.0</ele><time>2026-04-25T07:23:51.063Z</time></trkpt><trkpt lat="37.7225183" lon="-1.5697"><ele>254.5</ele><time>2026-04-25T07:23:52.065Z</time></trkpt><trkpt lat="37.7223733" lon="-1.5700067"><ele>255.0</ele><time>2026-04-25T07:23:53.063Z</time></trkpt><trkpt lat="37.7222317" lon="-1.5703117"><ele>255.5</ele><time>2026-04-25T07:23:54.06Z</time></trkpt><trkpt lat="37.7220917" lon="-1.570615"><ele>256.0</ele><time>2026-04-25T07:23:55.064Z</time></trkpt><trkpt lat="37.7219533" lon="-1.5709183"><ele>257.0</ele><time>2026-04-25T07:23:56.059Z</time></trkpt><trkpt lat="37.7218133" lon="-1.57122"><ele>258.0</ele><time>2026-04-25T07:23:57.062Z</time></trkpt><trkpt lat="37.7216733" lon="-1.5715167"><ele>258.0</ele><time>2026-04-25T07:23:58.062Z</time></trkpt><trkpt lat="37.7215383" lon="-1.571815"><ele>258.0</ele><time>2026-04-25T07:23:59.064Z</time></trkpt><trkpt lat="37.7214" lon="-1.5721133"><ele>259.5</ele><time>2026-04-25T07:24:00.064Z</time></trkpt><trkpt lat="37.7212583" lon="-1.5724133"><ele>261.0</ele><time>2026-04-25T07:24:01.064Z</time></trkpt><trkpt lat="37.7211183" lon="-1.5727133"><ele>261.5</ele><time>2026-04-25T07:24:02.064Z</time></trkpt><trkpt lat="37.7209783" lon="-1.5730167"><ele>262.0</ele><time>2026-04-25T07:24:03.063Z</time></trkpt><trkpt lat="37.7208383" lon="-1.57332"><ele>262.0</ele><time>2026-04-25T07:24:04.06Z</time></trkpt><trkpt lat="37.7207" lon="-1.5736233"><ele>262.0</ele><time>2026-04-25T07:24:05.057Z</time></trkpt><trkpt lat="37.7205583" lon="-1.573925"><ele>265.0</ele><time>2026-04-25T07:24:06.058Z</time></trkpt><trkpt lat="37.7204183" lon="-1.5742283"><ele>268.0</ele><time>2026-04-25T07:24:07.062Z</time></trkpt><trkpt lat="37.7202783" lon="-1.5745317"><ele>268.5</ele><time>2026-04-25T07:24:08.06Z</time></trkpt><trkpt lat="37.7201367" lon="-1.5748317"><ele>269.0</ele><time>2026-04-25T07:24:09.062Z</time></trkpt><trkpt lat="37.7199967" lon="-1.5751333"><ele>270.5</ele><time>2026-04-25T07:24:10.065Z</time></trkpt><trkpt lat="37.719855" lon="-1.5754333"><ele>272.0</ele><time>2026-04-25T07:24:11.062Z</time></trkpt><trkpt lat="37.7197133" lon="-1.5757333"><ele>272.0</ele><time>2026-04-25T07:24:12.065Z</time></trkpt><trkpt lat="37.7195717" lon="-1.5760367"><ele>272.0</ele><time>2026-04-25T07:24:13.063Z</time></trkpt><trkpt lat="37.71943" lon="-1.5763383"><ele>273.0</ele><time>2026-04-25T07:24:14.065Z</time></trkpt><trkpt lat="37.7192917" lon="-1.5766367"><ele>274.0</ele><time>2026-04-25T07:24:15.061Z</time></trkpt><trkpt lat="37.719155" lon="-1.5769283"><ele>274.5</ele><time>2026-04-25T07:24:16.065Z</time></trkpt><trkpt lat="37.7190167" lon="-1.5772217"><ele>275.0</ele><time>2026-04-25T07:24:17.067Z</time></trkpt><trkpt lat="37.7188783" lon="-1.5775133"><ele>275.0</ele><time>2026-04-25T07:24:18.064Z</time></trkpt><trkpt lat="37.7187383" lon="-1.5778083"><ele>275.0</ele><time>2026-04-25T07:24:19.065Z</time></trkpt><trkpt lat="37.7185967" lon="-1.5781067"><ele>274.5</ele><time>2026-04-25T07:24:20.063Z</time></trkpt><trkpt lat="37.718455" lon="-1.5784067"><ele>274.0</ele><time>2026-04-25T07:24:21.065Z</time></trkpt><trkpt lat="37.7183133" lon="-1.5787083"><ele>273.5</ele><time>2026-04-25T07:24:22.065Z</time></trkpt><trkpt lat="37.7181733" lon="-1.5790133"><ele>273.0</ele><time>2026-04-25T07:24:23.066Z</time></trkpt><trkpt lat="37.7180333" lon="-1.5793183"><ele>274.5</ele><time>2026-04-25T07:24:24.061Z</time></trkpt><trkpt lat="37.7178933" lon="-1.5796233"><ele>276.0</ele><time>2026-04-25T07:24:25.061Z</time></trkpt><trkpt lat="37.7177533" lon="-1.5799283"><ele>275.0</ele><time>2026-04-25T07:24:26.059Z</time></trkpt><trkpt lat="37.7176167" lon="-1.580235"><ele>274.0</ele><time>2026-04-25T07:24:27.063Z</time></trkpt><trkpt lat="37.717485" lon="-1.5805467"><ele>274.0</ele><time>2026-04-25T07:24:28.063Z</time></trkpt><trkpt lat="37.7173567" lon="-1.5808633"><ele>274.0</ele><time>2026-04-25T07:24:29.063Z</time></trkpt><trkpt lat="37.7172283" lon="-1.5811883"><ele>274.0</ele><time>2026-04-25T07:24:30.064Z</time></trkpt><trkpt lat="37.7171033" lon="-1.5815167"><ele>274.0</ele><time>2026-04-25T07:24:31.063Z</time></trkpt><trkpt lat="37.71698" lon="-1.5818483"><ele>272.0</ele><time>2026-04-25T07:24:32.061Z</time></trkpt><trkpt lat="37.7168567" lon="-1.5821783"><ele>270.0</ele><time>2026-04-25T07:24:33.065Z</time></trkpt><trkpt lat="37.7167383" lon="-1.5825117"><ele>270.0</ele><time>2026-04-25T07:24:34.061Z</time></trkpt><trkpt lat="37.7166233" lon="-1.5828467"><ele>270.0</ele><time>2026-04-25T07:24:35.066Z</time></trkpt><trkpt lat="37.7165117" lon="-1.5831883"><ele>271.0</ele><time>2026-04-25T07:24:36.067Z</time></trkpt><trkpt lat="37.716405" lon="-1.5835317"><ele>272.0</ele><time>2026-04-25T07:24:37.066Z</time></trkpt><trkpt lat="37.716305" lon="-1.58388"><ele>273.0</ele><time>2026-04-25T07:24:38.066Z</time></trkpt><trkpt lat="37.7162067" lon="-1.5842317"><ele>274.0</ele><time>2026-04-25T07:24:39.064Z</time></trkpt><trkpt lat="37.7161117" lon="-1.584585"><ele>275.0</ele><time>2026-04-25T07:24:40.062Z</time></trkpt><trkpt lat="37.71602" lon="-1.58494"><ele>276.0</ele><time>2026-04-25T07:24:41.062Z</time></trkpt><trkpt lat="37.7159317" lon="-1.5852983"><ele>276.5</ele><time>2026-04-25T07:24:42.064Z</time></trkpt><trkpt lat="37.7158483" lon="-1.5856617"><ele>277.0</ele><time>2026-04-25T07:24:43.061Z</time></trkpt><trkpt lat="37.71577" lon="-1.586025"><ele>277.5</ele><time>2026-04-25T07:24:44.063Z</time></trkpt><trkpt lat="37.7156983" lon="-1.5863917"><ele>278.0</ele><time>2026-04-25T07:24:45.065Z</time></trkpt><trkpt lat="37.7156267" lon="-1.58676"><ele>279.0</ele><time>2026-04-25T07:24:46.061Z</time></trkpt><trkpt lat="37.7155633" lon="-1.5871317"><ele>280.0</ele><time>2026-04-25T07:24:47.057Z</time></trkpt><trkpt lat="37.71551" lon="-1.5875067"><ele>280.5</ele><time>2026-04-25T07:24:48.063Z</time></trkpt><trkpt lat="37.71546" lon="-1.5878817"><ele>281.0</ele><time>2026-04-25T07:24:49.06Z</time></trkpt><trkpt lat="37.7154117" lon="-1.5882617"><ele>281.0</ele><time>2026-04-25T07:24:50.063Z</time></trkpt><trkpt lat="37.7153667" lon="-1.5886417"><ele>281.0</ele><time>2026-04-25T07:24:51.06Z</time></trkpt><trkpt lat="37.7153233" lon="-1.5890267"><ele>285.0</ele><time>2026-04-25T07:24:52.062Z</time></trkpt><trkpt lat="37.7152817" lon="-1.5894167"><ele>289.0</ele><time>2026-04-25T07:24:53.063Z</time></trkpt><trkpt lat="37.7152467" lon="-1.5898083"><ele>289.5</ele><time>2026-04-25T07:24:54.062Z</time></trkpt><trkpt lat="37.7152167" lon="-1.5901983"><ele>290.0</ele><time>2026-04-25T07:24:55.064Z</time></trkpt><trkpt lat="37.7151917" lon="-1.5905833"><ele>290.0</ele><time>2026-04-25T07:24:56.061Z</time></trkpt><trkpt lat="37.7151717" lon="-1.5909633"><ele>290.0</ele><time>2026-04-25T07:24:57.064Z</time></trkpt><trkpt lat="37.715155" lon="-1.5913333"><ele>290.5</ele><time>2026-04-25T07:24:58.06Z</time></trkpt><trkpt lat="37.7151417" lon="-1.5917017"><ele>291.0</ele><time>2026-04-25T07:24:59.062Z</time></trkpt><trkpt lat="37.71513" lon="-1.5920717"><ele>292.5</ele><time>2026-04-25T07:25:00.066Z</time></trkpt><trkpt lat="37.7151233" lon="-1.5924383"><ele>294.0</ele><time>2026-04-25T07:25:01.065Z</time></trkpt><trkpt lat="37.7151183" lon="-1.5928067"><ele>295.5</ele><time>2026-04-25T07:25:02.065Z</time></trkpt><trkpt lat="37.715115" lon="-1.5931717"><ele>297.0</ele><time>2026-04-25T07:25:03.061Z</time></trkpt><trkpt lat="37.71511" lon="-1.5935333"><ele>298.5</ele><time>2026-04-25T07:25:04.065Z</time></trkpt><trkpt lat="37.7151017" lon="-1.5938967"><ele>300.0</ele><time>2026-04-25T07:25:05.066Z</time></trkpt><trkpt lat="37.7150883" lon="-1.5942667"><ele>303.5</ele><time>2026-04-25T07:25:06.062Z</time></trkpt><trkpt lat="37.7150767" lon="-1.59464"><ele>307.0</ele><time>2026-04-25T07:25:07.063Z</time></trkpt><trkpt lat="37.7150633" lon="-1.5950133"><ele>308.5</ele><time>2026-04-25T07:25:08.062Z</time></trkpt><trkpt lat="37.7150483" lon="-1.5953833"><ele>310.0</ele><time>2026-04-25T07:25:09.064Z</time></trkpt><trkpt lat="37.7150317" lon="-1.5957567"><ele>310.0</ele><time>2026-04-25T07:25:10.064Z</time></trkpt><trkpt lat="37.71501" lon="-1.59613"><ele>310.0</ele><time>2026-04-25T07:25:11.061Z</time></trkpt><trkpt lat="37.7149833" lon="-1.5965033"><ele>311.0</ele><time>2026-04-25T07:25:12.062Z</time></trkpt><trkpt lat="37.7149517" lon="-1.5968783"><ele>312.0</ele><time>2026-04-25T07:25:13.063Z</time></trkpt><trkpt lat="37.7149133" lon="-1.5972517"><ele>314.5</ele><time>2026-04-25T07:25:14.058Z</time></trkpt><trkpt lat="37.7148667" lon="-1.5976233"><ele>317.0</ele><time>2026-04-25T07:25:15.061Z</time></trkpt><trkpt lat="37.7148167" lon="-1.5979867"><ele>317.0</ele><time>2026-04-25T07:25:16.062Z</time></trkpt><trkpt lat="37.7147583" lon="-1.5983383"><ele>317.0</ele><time>2026-04-25T07:25:17.063Z</time></trkpt><trkpt lat="37.7146967" lon="-1.598675"><ele>315.5</ele><time>2026-04-25T07:25:18.062Z</time></trkpt><trkpt lat="37.71463" lon="-1.5990033"><ele>314.0</ele><time>2026-04-25T07:25:19.061Z</time></trkpt><trkpt lat="37.7145583" lon="-1.59933"><ele>315.0</ele><time>2026-04-25T07:25:20.064Z</time></trkpt><trkpt lat="37.7144817" lon="-1.59966"><ele>316.0</ele><time>2026-04-25T07:25:21.063Z</time></trkpt><trkpt lat="37.7144" lon="-1.5999917"><ele>316.0</ele><time>2026-04-25T07:25:22.063Z</time></trkpt><trkpt lat="37.7143133" lon="-1.6003233"><ele>316.0</ele><time>2026-04-25T07:25:23.06Z</time></trkpt><trkpt lat="37.7142267" lon="-1.6006517"><ele>319.5</ele><time>2026-04-25T07:25:24.064Z</time></trkpt><trkpt lat="37.7141333" lon="-1.60098"><ele>323.0</ele><time>2026-04-25T07:25:25.062Z</time></trkpt><trkpt lat="37.7140317" lon="-1.6013067"><ele>324.0</ele><time>2026-04-25T07:25:26.057Z</time></trkpt><trkpt lat="37.7139233" lon="-1.6016333"><ele>325.0</ele><time>2026-04-25T07:25:27.063Z</time></trkpt><trkpt lat="37.713805" lon="-1.601955"><ele>325.5</ele><time>2026-04-25T07:25:28.058Z</time></trkpt><trkpt lat="37.713685" lon="-1.6022683"><ele>326.0</ele><time>2026-04-25T07:25:29.058Z</time></trkpt><trkpt lat="37.71356" lon="-1.602585"><ele>327.5</ele><time>2026-04-25T07:25:30.066Z</time></trkpt><trkpt lat="37.7134283" lon="-1.602895"><ele>329.0</ele><time>2026-04-25T07:25:31.057Z</time></trkpt><trkpt lat="37.7132917" lon="-1.6032083"><ele>329.0</ele><time>2026-04-25T07:25:32.058Z</time></trkpt><trkpt lat="37.7131517" lon="-1.603515"><ele>329.0</ele><time>2026-04-25T07:25:33.072Z</time></trkpt><trkpt lat="37.713005" lon="-1.6038183"><ele>329.5</ele><time>2026-04-25T07:25:34.063Z</time></trkpt><trkpt lat="37.712855" lon="-1.6041183"><ele>330.0</ele><time>2026-04-25T07:25:35.064Z</time></trkpt><trkpt lat="37.7127" lon="-1.6044133"><ele>328.0</ele><time>2026-04-25T07:25:36.062Z</time></trkpt><trkpt lat="37.7125417" lon="-1.604705"><ele>326.0</ele><time>2026-04-25T07:25:37.059Z</time></trkpt><trkpt lat="37.7123767" lon="-1.6049933"><ele>326.0</ele><time>2026-04-25T07:25:38.063Z</time></trkpt><trkpt lat="37.7122017" lon="-1.6052783"><ele>326.0</ele><time>2026-04-25T07:25:39.064Z</time></trkpt><trkpt lat="37.7118317" lon="-1.6058367"><ele>325.0</ele><time>2026-04-25T07:25:41.061Z</time></trkpt><trkpt lat="37.71164" lon="-1.6061117"><ele>324.0</ele><time>2026-04-25T07:25:42.065Z</time></trkpt><trkpt lat="37.711445" lon="-1.6063833"><ele>326.0</ele><time>2026-04-25T07:25:43.067Z</time></trkpt><trkpt lat="37.7112433" lon="-1.6066583"><ele>328.0</ele><time>2026-04-25T07:25:44.062Z</time></trkpt><trkpt lat="37.7110383" lon="-1.6069283"><ele>324.5</ele><time>2026-04-25T07:25:45.059Z</time></trkpt><trkpt lat="37.7108317" lon="-1.6071967"><ele>321.0</ele><time>2026-04-25T07:25:46.064Z</time></trkpt><trkpt lat="37.710625" lon="-1.6074717"><ele>321.0</ele><time>2026-04-25T07:25:47.06Z</time></trkpt><trkpt lat="37.710415" lon="-1.6077533"><ele>321.0</ele><time>2026-04-25T07:25:48.06Z</time></trkpt><trkpt lat="37.710205" lon="-1.60804"><ele>319.5</ele><time>2026-04-25T07:25:49.059Z</time></trkpt><trkpt lat="37.7099983" lon="-1.6083283"><ele>318.0</ele><time>2026-04-25T07:25:50.063Z</time></trkpt><trkpt lat="37.7098" lon="-1.608625"><ele>322.0</ele><time>2026-04-25T07:25:51.065Z</time></trkpt><trkpt lat="37.709615" lon="-1.6089317"><ele>326.0</ele><time>2026-04-25T07:25:52.064Z</time></trkpt><trkpt lat="37.7094333" lon="-1.6092467"><ele>322.0</ele><time>2026-04-25T07:25:53.058Z</time></trkpt><trkpt lat="37.7092583" lon="-1.6095717"><ele>318.0</ele><time>2026-04-25T07:25:54.058Z</time></trkpt><trkpt lat="37.709095" lon="-1.609905"><ele>318.0</ele><time>2026-04-25T07:25:55.064Z</time></trkpt><trkpt lat="37.7089367" lon="-1.6102417"><ele>318.0</ele><time>2026-04-25T07:25:56.062Z</time></trkpt><trkpt lat="37.7087883" lon="-1.6105833"><ele>317.5</ele><time>2026-04-25T07:25:57.061Z</time></trkpt><trkpt lat="37.7086483" lon="-1.61093"><ele>317.0</ele><time>2026-04-25T07:25:58.061Z</time></trkpt><trkpt lat="37.7085183" lon="-1.6112833"><ele>316.0</ele><time>2026-04-25T07:25:59.063Z</time></trkpt><trkpt lat="37.708395" lon="-1.6116417"><ele>315.0</ele><time>2026-04-25T07:26:00.059Z</time></trkpt><trkpt lat="37.70828" lon="-1.6120067"><ele>314.0</ele><time>2026-04-25T07:26:01.058Z</time></trkpt><trkpt lat="37.7081733" lon="-1.612375"><ele>313.0</ele><time>2026-04-25T07:26:02.062Z</time></trkpt><trkpt lat="37.7080733" lon="-1.6127483"><ele>313.5</ele><time>2026-04-25T07:26:03.061Z</time></trkpt><trkpt lat="37.70798" lon="-1.6131233"><ele>314.0</ele><time>2026-04-25T07:26:04.058Z</time></trkpt><trkpt lat="37.7078917" lon="-1.6135017"><ele>315.5</ele><time>2026-04-25T07:26:05.058Z</time></trkpt><trkpt lat="37.70781" lon="-1.6138783"><ele>317.0</ele><time>2026-04-25T07:26:06.062Z</time></trkpt><trkpt lat="37.707735" lon="-1.6142533"><ele>317.0</ele><time>2026-04-25T07:26:07.062Z</time></trkpt><trkpt lat="37.7076667" lon="-1.6146317"><ele>317.0</ele><time>2026-04-25T07:26:08.059Z</time></trkpt><trkpt lat="37.7076033" lon="-1.61501"><ele>317.0</ele><time>2026-04-25T07:26:09.061Z</time></trkpt><trkpt lat="37.7075417" lon="-1.6153917"><ele>317.0</ele><time>2026-04-25T07:26:10.064Z</time></trkpt><trkpt lat="37.7074833" lon="-1.61577"><ele>317.0</ele><time>2026-04-25T07:26:11.06Z</time></trkpt><trkpt lat="37.707425" lon="-1.6161467"><ele>317.0</ele><time>2026-04-25T07:26:12.057Z</time></trkpt><trkpt lat="37.7073667" lon="-1.6165217"><ele>320.0</ele><time>2026-04-25T07:26:13.059Z</time></trkpt><trkpt lat="37.70731" lon="-1.6168933"><ele>323.0</ele><time>2026-04-25T07:26:14.062Z</time></trkpt><trkpt lat="37.7072533" lon="-1.61726"><ele>324.0</ele><time>2026-04-25T07:26:15.058Z</time></trkpt><trkpt lat="37.707195" lon="-1.6176283"><ele>325.0</ele><time>2026-04-25T07:26:16.063Z</time></trkpt><trkpt lat="37.7071367" lon="-1.6179933"><ele>325.0</ele><time>2026-04-25T07:26:17.06Z</time></trkpt><trkpt lat="37.7070733" lon="-1.6183567"><ele>325.0</ele><time>2026-04-25T07:26:18.064Z</time></trkpt><trkpt lat="37.707005" lon="-1.6187167"><ele>325.5</ele><time>2026-04-25T07:26:19.058Z</time></trkpt><trkpt lat="37.7069317" lon="-1.6190733"><ele>326.0</ele><time>2026-04-25T07:26:20.064Z</time></trkpt><trkpt lat="37.7068533" lon="-1.6194267"><ele>324.0</ele><time>2026-04-25T07:26:21.057Z</time></trkpt><trkpt lat="37.7067717" lon="-1.6197717"><ele>322.0</ele><time>2026-04-25T07:26:22.058Z</time></trkpt><trkpt lat="37.70669" lon="-1.6201167"><ele>326.5</ele><time>2026-04-25T07:26:23.058Z</time></trkpt><trkpt lat="37.7066083" lon="-1.6204567"><ele>331.0</ele><time>2026-04-25T07:26:24.061Z</time></trkpt><trkpt lat="37.7065267" lon="-1.6208"><ele>331.0</ele><time>2026-04-25T07:26:25.06Z</time></trkpt><trkpt lat="37.706445" lon="-1.621145"><ele>331.0</ele><time>2026-04-25T07:26:26.062Z</time></trkpt><trkpt lat="37.70636" lon="-1.6214917"><ele>331.5</ele><time>2026-04-25T07:26:27.06Z</time></trkpt><trkpt lat="37.7062783" lon="-1.6218417"><ele>332.0</ele><time>2026-04-25T07:26:28.061Z</time></trkpt><trkpt lat="37.7062" lon="-1.6221933"><ele>332.0</ele><time>2026-04-25T07:26:29.059Z</time></trkpt><trkpt lat="37.706125" lon="-1.62255"><ele>332.0</ele><time>2026-04-25T07:26:30.058Z</time></trkpt><trkpt lat="37.7060617" lon="-1.6229117"><ele>332.0</ele><time>2026-04-25T07:26:31.064Z</time></trkpt><trkpt lat="37.7060067" lon="-1.62328"><ele>332.0</ele><time>2026-04-25T07:26:32.066Z</time></trkpt><trkpt lat="37.7059617" lon="-1.6236533"><ele>330.5</ele><time>2026-04-25T07:26:33.063Z</time></trkpt><trkpt lat="37.7059283" lon="-1.6240283"><ele>329.0</ele><time>2026-04-25T07:26:34.064Z</time></trkpt><trkpt lat="37.7059033" lon="-1.6244067"><ele>329.0</ele><time>2026-04-25T07:26:35.059Z</time></trkpt><trkpt lat="37.705885" lon="-1.6247883"><ele>329.0</ele><time>2026-04-25T07:26:36.06Z</time></trkpt><trkpt lat="37.7058767" lon="-1.6251733"><ele>331.0</ele><time>2026-04-25T07:26:37.064Z</time></trkpt><trkpt lat="37.705875" lon="-1.6255583"><ele>333.0</ele><time>2026-04-25T07:26:38.062Z</time></trkpt><trkpt lat="37.7058817" lon="-1.6259467"><ele>333.5</ele><time>2026-04-25T07:26:39.062Z</time></trkpt><trkpt lat="37.7058917" lon="-1.6263333"><ele>334.0</ele><time>2026-04-25T07:26:40.06Z</time></trkpt><trkpt lat="37.7059067" lon="-1.62672"><ele>333.5</ele><time>2026-04-25T07:26:41.06Z</time></trkpt><trkpt lat="37.705925" lon="-1.6271083"><ele>333.0</ele><time>2026-04-25T07:26:42.064Z</time></trkpt><trkpt lat="37.70594" lon="-1.6274967"><ele>331.0</ele><time>2026-04-25T07:26:43.06Z</time></trkpt><trkpt lat="37.7059583" lon="-1.6278833"><ele>329.0</ele><time>2026-04-25T07:26:44.063Z</time></trkpt><trkpt lat="37.7059717" lon="-1.62827"><ele>327.5</ele><time>2026-04-25T07:26:45.061Z</time></trkpt><trkpt lat="37.7059817" lon="-1.628655"><ele>326.0</ele><time>2026-04-25T07:26:46.061Z</time></trkpt><trkpt lat="37.7059833" lon="-1.6290383"><ele>326.0</ele><time>2026-04-25T07:26:47.06Z</time></trkpt><trkpt lat="37.70598" lon="-1.6294183"><ele>326.0</ele><time>2026-04-25T07:26:48.06Z</time></trkpt><trkpt lat="37.7059617" lon="-1.6297967"><ele>327.0</ele><time>2026-04-25T07:26:49.06Z</time></trkpt><trkpt lat="37.7059367" lon="-1.63017"><ele>328.0</ele><time>2026-04-25T07:26:50.064Z</time></trkpt><trkpt lat="37.7059" lon="-1.63054"><ele>329.0</ele><time>2026-04-25T07:26:51.061Z</time></trkpt><trkpt lat="37.7058483" lon="-1.6309083"><ele>330.0</ele><time>2026-04-25T07:26:52.063Z</time></trkpt><trkpt lat="37.7057867" lon="-1.6312767"><ele>330.0</ele><time>2026-04-25T07:26:53.061Z</time></trkpt><trkpt lat="37.70572" lon="-1.6316433"><ele>330.0</ele><time>2026-04-25T07:26:54.062Z</time></trkpt><trkpt lat="37.7056517" lon="-1.632005"><ele>331.5</ele><time>2026-04-25T07:26:55.061Z</time></trkpt><trkpt lat="37.7055783" lon="-1.6323567"><ele>333.0</ele><time>2026-04-25T07:26:56.062Z</time></trkpt><trkpt lat="37.7054967" lon="-1.6327033"><ele>332.0</ele><time>2026-04-25T07:26:57.062Z</time></trkpt><trkpt lat="37.7054067" lon="-1.6330467"><ele>331.0</ele><time>2026-04-25T07:26:58.057Z</time></trkpt><trkpt lat="37.7053133" lon="-1.6333833"><ele>329.5</ele><time>2026-04-25T07:26:59.067Z</time></trkpt><trkpt lat="37.7052117" lon="-1.6337133"><ele>328.0</ele><time>2026-04-25T07:27:00.058Z</time></trkpt><trkpt lat="37.7051017" lon="-1.6340367"><ele>328.0</ele><time>2026-04-25T07:27:01.058Z</time></trkpt><trkpt lat="37.7049883" lon="-1.634355"><ele>328.0</ele><time>2026-04-25T07:27:02.061Z</time></trkpt><trkpt lat="37.7048717" lon="-1.6346717"><ele>329.0</ele><time>2026-04-25T07:27:03.058Z</time></trkpt><trkpt lat="37.7047533" lon="-1.634985"><ele>330.0</ele><time>2026-04-25T07:27:04.062Z</time></trkpt><trkpt lat="37.70463" lon="-1.6353017"><ele>328.5</ele><time>2026-04-25T07:27:05.061Z</time></trkpt><trkpt lat="37.7045083" lon="-1.63562"><ele>327.0</ele><time>2026-04-25T07:27:06.059Z</time></trkpt><trkpt lat="37.7043883" lon="-1.6359433"><ele>326.5</ele><time>2026-04-25T07:27:07.062Z</time></trkpt><trkpt lat="37.7042717" lon="-1.63627"><ele>326.0</ele><time>2026-04-25T07:27:08.064Z</time></trkpt><trkpt lat="37.7041683" lon="-1.6366017"><ele>326.0</ele><time>2026-04-25T07:27:09.062Z</time></trkpt><trkpt lat="37.7040767" lon="-1.6369467"><ele>326.0</ele><time>2026-04-25T07:27:10.059Z</time></trkpt><trkpt lat="37.7039917" lon="-1.6372917"><ele>328.0</ele><time>2026-04-25T07:27:11.063Z</time></trkpt><trkpt lat="37.70391" lon="-1.6376367"><ele>330.0</ele><time>2026-04-25T07:27:12.075Z</time></trkpt><trkpt lat="37.7038267" lon="-1.637985"><ele>330.0</ele><time>2026-04-25T07:27:13.062Z</time></trkpt><trkpt lat="37.7037483" lon="-1.6383367"><ele>330.0</ele><time>2026-04-25T07:27:14.064Z</time></trkpt><trkpt lat="37.7036667" lon="-1.638685"><ele>330.5</ele><time>2026-04-25T07:27:15.066Z</time></trkpt><trkpt lat="37.703585" lon="-1.6390333"><ele>331.0</ele><time>2026-04-25T07:27:16.063Z</time></trkpt><trkpt lat="37.7035" lon="-1.6393783"><ele>329.5</ele><time>2026-04-25T07:27:17.067Z</time></trkpt><trkpt lat="37.7034033" lon="-1.63972"><ele>328.0</ele><time>2026-04-25T07:27:18.064Z</time></trkpt><trkpt lat="37.7032967" lon="-1.6400583"><ele>327.5</ele><time>2026-04-25T07:27:19.068Z</time></trkpt><trkpt lat="37.7031833" lon="-1.64039"><ele>327.0</ele><time>2026-04-25T07:27:20.066Z</time></trkpt><trkpt lat="37.703065" lon="-1.6407133"><ele>327.0</ele><time>2026-04-25T07:27:21.06Z</time></trkpt><trkpt lat="37.7029417" lon="-1.6410267"><ele>327.0</ele><time>2026-04-25T07:27:22.059Z</time></trkpt><trkpt lat="37.70281" lon="-1.6413367"><ele>326.5</ele><time>2026-04-25T07:27:23.063Z</time></trkpt><trkpt lat="37.7026717" lon="-1.6416417"><ele>326.0</ele><time>2026-04-25T07:27:24.067Z</time></trkpt><trkpt lat="37.70253" lon="-1.6419433"><ele>328.0</ele><time>2026-04-25T07:27:25.062Z</time></trkpt><trkpt lat="37.7023817" lon="-1.6422367"><ele>330.0</ele><time>2026-04-25T07:27:26.064Z</time></trkpt><trkpt lat="37.7022267" lon="-1.6425233"><ele>331.5</ele><time>2026-04-25T07:27:27.064Z</time></trkpt><trkpt lat="37.702065" lon="-1.6428"><ele>333.0</ele><time>2026-04-25T07:27:28.063Z</time></trkpt><trkpt lat="37.701895" lon="-1.643075"><ele>334.0</ele><time>2026-04-25T07:27:29.06Z</time></trkpt><trkpt lat="37.7017233" lon="-1.6433483"><ele>335.0</ele><time>2026-04-25T07:27:30.061Z</time></trkpt><trkpt lat="37.7015483" lon="-1.6436217"><ele>335.0</ele><time>2026-04-25T07:27:31.06Z</time></trkpt><trkpt lat="37.7013667" lon="-1.64389"><ele>335.0</ele><time>2026-04-25T07:27:32.063Z</time></trkpt><trkpt lat="37.7011783" lon="-1.6441617"><ele>335.5</ele><time>2026-04-25T07:27:33.066Z</time></trkpt><trkpt lat="37.7009883" lon="-1.6444333"><ele>336.0</ele><time>2026-04-25T07:27:34.062Z</time></trkpt><trkpt lat="37.7007967" lon="-1.6447017"><ele>333.0</ele><time>2026-04-25T07:27:35.067Z</time></trkpt><trkpt lat="37.7006" lon="-1.644965"><ele>330.0</ele><time>2026-04-25T07:27:36.063Z</time></trkpt><trkpt lat="37.700405" lon="-1.6452283"><ele>329.0</ele><time>2026-04-25T07:27:37.062Z</time></trkpt><trkpt lat="37.7002117" lon="-1.6454933"><ele>328.0</ele><time>2026-04-25T07:27:38.065Z</time></trkpt><trkpt lat="37.700025" lon="-1.6457667"><ele>328.0</ele><time>2026-04-25T07:27:39.062Z</time></trkpt><trkpt lat="37.6998383" lon="-1.6460483"><ele>328.0</ele><time>2026-04-25T07:27:40.061Z</time></trkpt><trkpt lat="37.699655" lon="-1.6463283"><ele>326.5</ele><time>2026-04-25T07:27:41.061Z</time></trkpt><trkpt lat="37.69948" lon="-1.6466167"><ele>325.0</ele><time>2026-04-25T07:27:42.064Z</time></trkpt><trkpt lat="37.699315" lon="-1.6469083"><ele>323.5</ele><time>2026-04-25T07:27:43.068Z</time></trkpt><trkpt lat="37.6991617" lon="-1.6472"><ele>322.0</ele><time>2026-04-25T07:27:44.065Z</time></trkpt><trkpt lat="37.6990217" lon="-1.647495"><ele>322.0</ele><time>2026-04-25T07:27:45.064Z</time></trkpt><trkpt lat="37.69889" lon="-1.6477933"><ele>322.0</ele><time>2026-04-25T07:27:46.063Z</time></trkpt><trkpt lat="37.698765" lon="-1.648095"><ele>322.5</ele><time>2026-04-25T07:27:47.06Z</time></trkpt><trkpt lat="37.6986483" lon="-1.6484033"><ele>323.0</ele><time>2026-04-25T07:27:48.069Z</time></trkpt><trkpt lat="37.6985367" lon="-1.64871"><ele>323.0</ele><time>2026-04-25T07:27:49.061Z</time></trkpt><trkpt lat="37.6984317" lon="-1.6490183"><ele>323.0</ele><time>2026-04-25T07:27:50.061Z</time></trkpt><trkpt lat="37.6983383" lon="-1.64933"><ele>323.0</ele><time>2026-04-25T07:27:51.058Z</time></trkpt><trkpt lat="37.6982517" lon="-1.6496433"><ele>323.0</ele><time>2026-04-25T07:27:52.061Z</time></trkpt><trkpt lat="37.6981733" lon="-1.64996"><ele>323.0</ele><time>2026-04-25T07:27:53.064Z</time></trkpt><trkpt lat="37.6981" lon="-1.65028"><ele>323.0</ele><time>2026-04-25T07:27:54.062Z</time></trkpt><trkpt lat="37.6980317" lon="-1.6506017"><ele>323.0</ele><time>2026-04-25T07:27:55.065Z</time></trkpt><trkpt lat="37.697975" lon="-1.650925"><ele>323.0</ele><time>2026-04-25T07:27:56.062Z</time></trkpt><trkpt lat="37.697925" lon="-1.651245"><ele>322.5</ele><time>2026-04-25T07:27:57.065Z</time></trkpt><trkpt lat="37.6978783" lon="-1.6515683"><ele>322.0</ele><time>2026-04-25T07:27:58.06Z</time></trkpt><trkpt lat="37.6978267" lon="-1.6518917"><ele>323.0</ele><time>2026-04-25T07:27:59.065Z</time></trkpt><trkpt lat="37.6977733" lon="-1.65222"><ele>324.0</ele><time>2026-04-25T07:28:00.065Z</time></trkpt><trkpt lat="37.6977267" lon="-1.6525483"><ele>325.0</ele><time>2026-04-25T07:28:01.063Z</time></trkpt><trkpt lat="37.69768" lon="-1.6528783"><ele>326.0</ele><time>2026-04-25T07:28:02.065Z</time></trkpt><trkpt lat="37.69763" lon="-1.65321"><ele>326.0</ele><time>2026-04-25T07:28:03.065Z</time></trkpt><trkpt lat="37.6975733" lon="-1.6535383"><ele>326.0</ele><time>2026-04-25T07:28:04.06Z</time></trkpt><trkpt lat="37.6975183" lon="-1.6538633"><ele>327.0</ele><time>2026-04-25T07:28:05.064Z</time></trkpt><trkpt lat="37.6974567" lon="-1.65419"><ele>328.0</ele><time>2026-04-25T07:28:06.06Z</time></trkpt><trkpt lat="37.697385" lon="-1.6545167"><ele>329.5</ele><time>2026-04-25T07:28:07.061Z</time></trkpt><trkpt lat="37.69731" lon="-1.65484"><ele>331.0</ele><time>2026-04-25T07:28:08.061Z</time></trkpt><trkpt lat="37.6972233" lon="-1.655155"><ele>333.5</ele><time>2026-04-25T07:28:09.067Z</time></trkpt><trkpt lat="37.6971333" lon="-1.6554683"><ele>336.0</ele><time>2026-04-25T07:28:10.061Z</time></trkpt><trkpt lat="37.6970367" lon="-1.6557767"><ele>336.0</ele><time>2026-04-25T07:28:11.062Z</time></trkpt><trkpt lat="37.6969333" lon="-1.6560817"><ele>336.0</ele><time>2026-04-25T07:28:12.065Z</time></trkpt><trkpt lat="37.6968267" lon="-1.6563833"><ele>333.0</ele><time>2026-04-25T07:28:13.061Z</time></trkpt><trkpt lat="37.6967167" lon="-1.656685"><ele>330.0</ele><time>2026-04-25T07:28:14.061Z</time></trkpt><trkpt lat="37.6966" lon="-1.6569867"><ele>327.0</ele><time>2026-04-25T07:28:15.064Z</time></trkpt><trkpt lat="37.6964783" lon="-1.6572867"><ele>324.0</ele><time>2026-04-25T07:28:16.065Z</time></trkpt><trkpt lat="37.6963517" lon="-1.657585"><ele>325.0</ele><time>2026-04-25T07:28:17.064Z</time></trkpt><trkpt lat="37.69622" lon="-1.6578833"><ele>326.0</ele><time>2026-04-25T07:28:18.067Z</time></trkpt><trkpt lat="37.6960833" lon="-1.6581717"><ele>326.0</ele><time>2026-04-25T07:28:19.062Z</time></trkpt><trkpt lat="37.6959467" lon="-1.6584533"><ele>326.0</ele><time>2026-04-25T07:28:20.062Z</time></trkpt><trkpt lat="37.695815" lon="-1.658725"><ele>326.5</ele><time>2026-04-25T07:28:21.062Z</time></trkpt><trkpt lat="37.6956833" lon="-1.65899"><ele>327.0</ele><time>2026-04-25T07:28:22.06Z</time></trkpt><trkpt lat="37.69555" lon="-1.6592567"><ele>328.0</ele><time>2026-04-25T07:28:23.062Z</time></trkpt><trkpt lat="37.6954167" lon="-1.6595217"><ele>329.0</ele><time>2026-04-25T07:28:24.061Z</time></trkpt><trkpt lat="37.695285" lon="-1.659785"><ele>328.0</ele><time>2026-04-25T07:28:25.064Z</time></trkpt><trkpt lat="37.6951533" lon="-1.660045"><ele>327.0</ele><time>2026-04-25T07:28:26.065Z</time></trkpt><trkpt lat="37.6950217" lon="-1.6603067"><ele>329.0</ele><time>2026-04-25T07:28:27.065Z</time></trkpt><trkpt lat="37.6948933" lon="-1.66057"><ele>331.0</ele><time>2026-04-25T07:28:28.064Z</time></trkpt><trkpt lat="37.6947683" lon="-1.6608333"><ele>331.0</ele><time>2026-04-25T07:28:29.063Z</time></trkpt><trkpt lat="37.6946433" lon="-1.6611017"><ele>331.0</ele><time>2026-04-25T07:28:30.06Z</time></trkpt><trkpt lat="37.69452" lon="-1.6613733"><ele>336.0</ele><time>2026-04-25T07:28:31.062Z</time></trkpt><trkpt lat="37.6943983" lon="-1.661645"><ele>341.0</ele><time>2026-04-25T07:28:32.063Z</time></trkpt><trkpt lat="37.694275" lon="-1.6619217"><ele>339.5</ele><time>2026-04-25T07:28:33.064Z</time></trkpt><trkpt lat="37.6941533" lon="-1.6622017"><ele>338.0</ele><time>2026-04-25T07:28:34.061Z</time></trkpt><trkpt lat="37.6940317" lon="-1.6624883"><ele>338.0</ele><time>2026-04-25T07:28:35.065Z</time></trkpt><trkpt lat="37.693915" lon="-1.662775"><ele>338.0</ele><time>2026-04-25T07:28:36.062Z</time></trkpt><trkpt lat="37.6938" lon="-1.663065"><ele>337.0</ele><time>2026-04-25T07:28:37.067Z</time></trkpt><trkpt lat="37.6936883" lon="-1.66336"><ele>336.0</ele><time>2026-04-25T07:28:38.059Z</time></trkpt><trkpt lat="37.6935783" lon="-1.6636583"><ele>334.5</ele><time>2026-04-25T07:28:39.062Z</time></trkpt><trkpt lat="37.6934683" lon="-1.6639583"><ele>333.0</ele><time>2026-04-25T07:28:40.059Z</time></trkpt><trkpt lat="37.6933633" lon="-1.66426"><ele>331.5</ele><time>2026-04-25T07:28:41.064Z</time></trkpt><trkpt lat="37.6932633" lon="-1.664565"><ele>330.0</ele><time>2026-04-25T07:28:42.06Z</time></trkpt><trkpt lat="37.6931683" lon="-1.664875"><ele>330.0</ele><time>2026-04-25T07:28:43.062Z</time></trkpt><trkpt lat="37.6930783" lon="-1.6651883"><ele>330.0</ele><time>2026-04-25T07:28:44.06Z</time></trkpt><trkpt lat="37.69299" lon="-1.6655"><ele>329.5</ele><time>2026-04-25T07:28:45.063Z</time></trkpt><trkpt lat="37.6929067" lon="-1.6658133"><ele>329.0</ele><time>2026-04-25T07:28:46.058Z</time></trkpt><trkpt lat="37.6928233" lon="-1.6661233"><ele>330.0</ele><time>2026-04-25T07:28:47.061Z</time></trkpt><trkpt lat="37.6927433" lon="-1.6664317"><ele>331.0</ele><time>2026-04-25T07:28:48.065Z</time></trkpt><trkpt lat="37.6926617" lon="-1.6667383"><ele>332.5</ele><time>2026-04-25T07:28:49.062Z</time></trkpt><trkpt lat="37.692585" lon="-1.667045"><ele>334.0</ele><time>2026-04-25T07:28:50.064Z</time></trkpt><trkpt lat="37.6925117" lon="-1.6673533"><ele>334.0</ele><time>2026-04-25T07:28:51.066Z</time></trkpt><trkpt lat="37.692445" lon="-1.66766"><ele>334.0</ele><time>2026-04-25T07:28:52.068Z</time></trkpt><trkpt lat="37.6923817" lon="-1.6679667"><ele>337.5</ele><time>2026-04-25T07:28:53.068Z</time></trkpt><trkpt lat="37.69232" lon="-1.6682717"><ele>341.0</ele><time>2026-04-25T07:28:54.063Z</time></trkpt><trkpt lat="37.6922617" lon="-1.66858"><ele>347.0</ele><time>2026-04-25T07:28:55.062Z</time></trkpt><trkpt lat="37.6922067" lon="-1.6688883"><ele>353.0</ele><time>2026-04-25T07:28:56.063Z</time></trkpt><trkpt lat="37.6921517" lon="-1.6692033"><ele>354.0</ele><time>2026-04-25T07:28:57.059Z</time></trkpt><trkpt lat="37.6921017" lon="-1.6695183"><ele>355.0</ele><time>2026-04-25T07:28:58.067Z</time></trkpt><trkpt lat="37.6920533" lon="-1.6698383"><ele>355.0</ele><time>2026-04-25T07:28:59.065Z</time></trkpt><trkpt lat="37.6920067" lon="-1.67016"><ele>355.0</ele><time>2026-04-25T07:29:00.062Z</time></trkpt><trkpt lat="37.6919633" lon="-1.6704817"><ele>348.5</ele><time>2026-04-25T07:29:01.061Z</time></trkpt><trkpt lat="37.6919217" lon="-1.6708017"><ele>342.0</ele><time>2026-04-25T07:29:02.063Z</time></trkpt><trkpt lat="37.6918833" lon="-1.6711167"><ele>342.0</ele><time>2026-04-25T07:29:03.061Z</time></trkpt><trkpt lat="37.6918467" lon="-1.6714283"><ele>342.0</ele><time>2026-04-25T07:29:04.057Z</time></trkpt><trkpt lat="37.6918167" lon="-1.67174"><ele>342.0</ele><time>2026-04-25T07:29:05.06Z</time></trkpt><trkpt lat="37.6917883" lon="-1.67205"><ele>342.0</ele><time>2026-04-25T07:29:06.059Z</time></trkpt><trkpt lat="37.691765" lon="-1.67236"><ele>342.0</ele><time>2026-04-25T07:29:07.063Z</time></trkpt><trkpt lat="37.6917433" lon="-1.6726667"><ele>342.0</ele><time>2026-04-25T07:29:08.064Z</time></trkpt><trkpt lat="37.691725" lon="-1.6729733"><ele>342.5</ele><time>2026-04-25T07:29:09.065Z</time></trkpt><trkpt lat="37.6917133" lon="-1.6732783"><ele>343.0</ele><time>2026-04-25T07:29:10.068Z</time></trkpt><trkpt lat="37.691705" lon="-1.6735783"><ele>346.5</ele><time>2026-04-25T07:29:11.064Z</time></trkpt><trkpt lat="37.6916983" lon="-1.6738783"><ele>350.0</ele><time>2026-04-25T07:29:12.064Z</time></trkpt><trkpt lat="37.6916917" lon="-1.6741783"><ele>352.0</ele><time>2026-04-25T07:29:13.063Z</time></trkpt><trkpt lat="37.691685" lon="-1.67448"><ele>354.0</ele><time>2026-04-25T07:29:14.063Z</time></trkpt><trkpt lat="37.6916767" lon="-1.674785"><ele>354.0</ele><time>2026-04-25T07:29:15.067Z</time></trkpt><trkpt lat="37.6916667" lon="-1.6750917"><ele>354.0</ele><time>2026-04-25T07:29:16.069Z</time></trkpt><trkpt lat="37.6916583" lon="-1.6754"><ele>355.5</ele><time>2026-04-25T07:29:17.066Z</time></trkpt><trkpt lat="37.6916483" lon="-1.6757083"><ele>357.0</ele><time>2026-04-25T07:29:18.065Z</time></trkpt><trkpt lat="37.6916417" lon="-1.67602"><ele>359.0</ele><time>2026-04-25T07:29:19.062Z</time></trkpt><trkpt lat="37.6916333" lon="-1.6763333"><ele>361.0</ele><time>2026-04-25T07:29:20.063Z</time></trkpt><trkpt lat="37.6916233" lon="-1.6766467"><ele>365.0</ele><time>2026-04-25T07:29:21.063Z</time></trkpt><trkpt lat="37.69161" lon="-1.6769617"><ele>369.0</ele><time>2026-04-25T07:29:22.06Z</time></trkpt><trkpt lat="37.69159" lon="-1.6772767"><ele>369.0</ele><time>2026-04-25T07:29:23.065Z</time></trkpt><trkpt lat="37.6915633" lon="-1.677595"><ele>369.0</ele><time>2026-04-25T07:29:24.07Z</time></trkpt><trkpt lat="37.6915233" lon="-1.6779133"><ele>372.5</ele><time>2026-04-25T07:29:25.065Z</time></trkpt><trkpt lat="37.69147" lon="-1.6782317"><ele>376.0</ele><time>2026-04-25T07:29:26.065Z</time></trkpt><trkpt lat="37.6914017" lon="-1.6785467"><ele>377.0</ele><time>2026-04-25T07:29:27.064Z</time></trkpt><trkpt lat="37.6913233" lon="-1.67886"><ele>378.0</ele><time>2026-04-25T07:29:28.064Z</time></trkpt><trkpt lat="37.6912333" lon="-1.6791683"><ele>377.0</ele><time>2026-04-25T07:29:29.064Z</time></trkpt><trkpt lat="37.6911333" lon="-1.6794733"><ele>376.0</ele><time>2026-04-25T07:29:30.062Z</time></trkpt><trkpt lat="37.691025" lon="-1.6797717"><ele>376.0</ele><time>2026-04-25T07:29:31.063Z</time></trkpt><trkpt lat="37.6909133" lon="-1.6800667"><ele>376.0</ele><time>2026-04-25T07:29:32.062Z</time></trkpt><trkpt lat="37.6907967" lon="-1.6803583"><ele>376.5</ele><time>2026-04-25T07:29:33.063Z</time></trkpt><trkpt lat="37.6906833" lon="-1.6806517"><ele>377.0</ele><time>2026-04-25T07:29:34.061Z</time></trkpt><trkpt lat="37.6905717" lon="-1.68095"><ele>378.5</ele><time>2026-04-25T07:29:35.066Z</time></trkpt><trkpt lat="37.69047" lon="-1.68125"><ele>380.0</ele><time>2026-04-25T07:29:36.062Z</time></trkpt><trkpt lat="37.69038" lon="-1.681555"><ele>380.0</ele><time>2026-04-25T07:29:37.06Z</time></trkpt><trkpt lat="37.69031" lon="-1.68186"><ele>380.0</ele><time>2026-04-25T07:29:38.064Z</time></trkpt><trkpt lat="37.6902533" lon="-1.6821717"><ele>384.5</ele><time>2026-04-25T07:29:39.061Z</time></trkpt><trkpt lat="37.6902117" lon="-1.6824883"><ele>389.0</ele><time>2026-04-25T07:29:40.062Z</time></trkpt><trkpt lat="37.6901867" lon="-1.6828033"><ele>389.0</ele><time>2026-04-25T07:29:41.065Z</time></trkpt><trkpt lat="37.6901783" lon="-1.6831217"><ele>389.0</ele><time>2026-04-25T07:29:42.062Z</time></trkpt><trkpt lat="37.6901833" lon="-1.683445"><ele>391.5</ele><time>2026-04-25T07:29:43.068Z</time></trkpt><trkpt lat="37.690205" lon="-1.6837667"><ele>394.0</ele><time>2026-04-25T07:29:44.064Z</time></trkpt><trkpt lat="37.690245" lon="-1.6840867"><ele>397.5</ele><time>2026-04-25T07:29:45.065Z</time></trkpt><trkpt lat="37.6902967" lon="-1.6844017"><ele>401.0</ele><time>2026-04-25T07:29:46.066Z</time></trkpt><trkpt lat="37.6903583" lon="-1.684715"><ele>402.5</ele><time>2026-04-25T07:29:47.063Z</time></trkpt><trkpt lat="37.6904333" lon="-1.6850233"><ele>404.0</ele><time>2026-04-25T07:29:48.064Z</time></trkpt><trkpt lat="37.6905233" lon="-1.685325"><ele>405.5</ele><time>2026-04-25T07:29:49.061Z</time></trkpt><trkpt lat="37.6906317" lon="-1.6856217"><ele>407.0</ele><time>2026-04-25T07:29:50.06Z</time></trkpt><trkpt lat="37.6907517" lon="-1.6859117"><ele>408.0</ele><time>2026-04-25T07:29:51.06Z</time></trkpt><trkpt lat="37.6908867" lon="-1.686195"><ele>409.0</ele><time>2026-04-25T07:29:52.059Z</time></trkpt><trkpt lat="37.691035" lon="-1.68647"><ele>412.0</ele><time>2026-04-25T07:29:53.063Z</time></trkpt><trkpt lat="37.691195" lon="-1.686735"><ele>415.0</ele><time>2026-04-25T07:29:54.06Z</time></trkpt><trkpt lat="37.6913633" lon="-1.6869867"><ele>415.0</ele><time>2026-04-25T07:29:55.06Z</time></trkpt><trkpt lat="37.6915417" lon="-1.6872233"><ele>415.0</ele><time>2026-04-25T07:29:56.06Z</time></trkpt><trkpt lat="37.6917283" lon="-1.687445"><ele>415.0</ele><time>2026-04-25T07:29:57.062Z</time></trkpt><trkpt lat="37.6919217" lon="-1.6876583"><ele>415.0</ele><time>2026-04-25T07:29:58.06Z</time></trkpt><trkpt lat="37.6921183" lon="-1.6878667"><ele>414.5</ele><time>2026-04-25T07:29:59.065Z</time></trkpt><trkpt lat="37.6923167" lon="-1.6880767"><ele>414.0</ele><time>2026-04-25T07:30:00.067Z</time></trkpt><trkpt lat="37.692515" lon="-1.6882867"><ele>414.0</ele><time>2026-04-25T07:30:01.063Z</time></trkpt><trkpt lat="37.6927117" lon="-1.6885033"><ele>414.0</ele><time>2026-04-25T07:30:02.069Z</time></trkpt><trkpt lat="37.6929083" lon="-1.6887233"><ele>409.5</ele><time>2026-04-25T07:30:03.06Z</time></trkpt><trkpt lat="37.6931017" lon="-1.688945"><ele>405.0</ele><time>2026-04-25T07:30:04.059Z</time></trkpt><trkpt lat="37.6932917" lon="-1.6891733"><ele>405.0</ele><time>2026-04-25T07:30:05.069Z</time></trkpt><trkpt lat="37.6934767" lon="-1.6894083"><ele>405.0</ele><time>2026-04-25T07:30:06.059Z</time></trkpt><trkpt lat="37.6936517" lon="-1.68965"><ele>401.5</ele><time>2026-04-25T07:30:07.061Z</time></trkpt><trkpt lat="37.6938183" lon="-1.6899033"><ele>398.0</ele><time>2026-04-25T07:30:08.065Z</time></trkpt><trkpt lat="37.6939783" lon="-1.690165"><ele>404.0</ele><time>2026-04-25T07:30:09.062Z</time></trkpt><trkpt lat="37.694135" lon="-1.6904367"><ele>410.0</ele><time>2026-04-25T07:30:10.064Z</time></trkpt><trkpt lat="37.694285" lon="-1.6907167"><ele>410.5</ele><time>2026-04-25T07:30:11.064Z</time></trkpt><trkpt lat="37.694425" lon="-1.691005"><ele>411.0</ele><time>2026-04-25T07:30:12.066Z</time></trkpt><trkpt lat="37.6945467" lon="-1.691295"><ele>411.0</ele><time>2026-04-25T07:30:13.063Z</time></trkpt><trkpt lat="37.694655" lon="-1.6915833"><ele>411.0</ele><time>2026-04-25T07:30:14.062Z</time></trkpt><trkpt lat="37.6947517" lon="-1.69187"><ele>412.5</ele><time>2026-04-25T07:30:15.061Z</time></trkpt><trkpt lat="37.69484" lon="-1.692165"><ele>414.0</ele><time>2026-04-25T07:30:16.064Z</time></trkpt><trkpt lat="37.694925" lon="-1.6924617"><ele>413.0</ele><time>2026-04-25T07:30:17.061Z</time></trkpt><trkpt lat="37.69501" lon="-1.69276"><ele>412.0</ele><time>2026-04-25T07:30:18.064Z</time></trkpt><trkpt lat="37.6950967" lon="-1.6930583"><ele>412.0</ele><time>2026-04-25T07:30:19.069Z</time></trkpt><trkpt lat="37.6951833" lon="-1.6933567"><ele>412.0</ele><time>2026-04-25T07:30:20.068Z</time></trkpt><trkpt lat="37.69527" lon="-1.693655"><ele>400.5</ele><time>2026-04-25T07:30:21.062Z</time></trkpt><trkpt lat="37.6953567" lon="-1.6939467"><ele>389.0</ele><time>2026-04-25T07:30:22.058Z</time></trkpt><trkpt lat="37.69544" lon="-1.694225"><ele>387.5</ele><time>2026-04-25T07:30:23.065Z</time></trkpt><trkpt lat="37.69552" lon="-1.6945"><ele>386.0</ele><time>2026-04-25T07:30:24.067Z</time></trkpt><trkpt lat="37.6956017" lon="-1.694775"><ele>386.0</ele><time>2026-04-25T07:30:25.063Z</time></trkpt><trkpt lat="37.6956817" lon="-1.6950533"><ele>386.0</ele><time>2026-04-25T07:30:26.063Z</time></trkpt><trkpt lat="37.6957617" lon="-1.6953317"><ele>386.5</ele><time>2026-04-25T07:30:27.065Z</time></trkpt><trkpt lat="37.6958467" lon="-1.69561"><ele>387.0</ele><time>2026-04-25T07:30:28.058Z</time></trkpt><trkpt lat="37.6959317" lon="-1.6958917"><ele>384.5</ele><time>2026-04-25T07:30:29.06Z</time></trkpt><trkpt lat="37.6960167" lon="-1.696175"><ele>382.0</ele><time>2026-04-25T07:30:30.061Z</time></trkpt><trkpt lat="37.6961017" lon="-1.6964617"><ele>382.0</ele><time>2026-04-25T07:30:31.064Z</time></trkpt><trkpt lat="37.696185" lon="-1.6967467"><ele>382.0</ele><time>2026-04-25T07:30:32.064Z</time></trkpt><trkpt lat="37.696265" lon="-1.697035"><ele>384.0</ele><time>2026-04-25T07:30:33.061Z</time></trkpt><trkpt lat="37.69634" lon="-1.697325"><ele>386.0</ele><time>2026-04-25T07:30:34.059Z</time></trkpt><trkpt lat="37.6964067" lon="-1.697615"><ele>383.5</ele><time>2026-04-25T07:30:35.068Z</time></trkpt><trkpt lat="37.696465" lon="-1.6979117"><ele>381.0</ele><time>2026-04-25T07:30:36.067Z</time></trkpt><trkpt lat="37.696515" lon="-1.6982083"><ele>381.0</ele><time>2026-04-25T07:30:37.057Z</time></trkpt><trkpt lat="37.6965583" lon="-1.6985083"><ele>381.0</ele><time>2026-04-25T07:30:38.059Z</time></trkpt><trkpt lat="37.6965917" lon="-1.6988117"><ele>375.5</ele><time>2026-04-25T07:30:39.063Z</time></trkpt><trkpt lat="37.696615" lon="-1.6991183"><ele>370.0</ele><time>2026-04-25T07:30:40.063Z</time></trkpt><trkpt lat="37.6966317" lon="-1.6994217"><ele>364.0</ele><time>2026-04-25T07:30:41.062Z</time></trkpt><trkpt lat="37.69664" lon="-1.6997217"><ele>358.0</ele><time>2026-04-25T07:30:42.064Z</time></trkpt><trkpt lat="37.6966367" lon="-1.700025"><ele>359.0</ele><time>2026-04-25T07:30:43.063Z</time></trkpt><trkpt lat="37.696625" lon="-1.700325"><ele>360.0</ele><time>2026-04-25T07:30:44.063Z</time></trkpt><trkpt lat="37.696605" lon="-1.7006267"><ele>360.0</ele><time>2026-04-25T07:30:45.064Z</time></trkpt><trkpt lat="37.696575" lon="-1.70093"><ele>360.0</ele><time>2026-04-25T07:30:46.066Z</time></trkpt><trkpt lat="37.696535" lon="-1.701235"><ele>363.0</ele><time>2026-04-25T07:30:47.063Z</time></trkpt><trkpt lat="37.6964867" lon="-1.70154"><ele>366.0</ele><time>2026-04-25T07:30:48.065Z</time></trkpt><trkpt lat="37.6964317" lon="-1.701845"><ele>366.5</ele><time>2026-04-25T07:30:49.065Z</time></trkpt><trkpt lat="37.6963633" lon="-1.702145"><ele>367.0</ele><time>2026-04-25T07:30:50.06Z</time></trkpt><trkpt lat="37.69628" lon="-1.7024383"><ele>367.0</ele><time>2026-04-25T07:30:51.061Z</time></trkpt><trkpt lat="37.696185" lon="-1.7027283"><ele>367.0</ele><time>2026-04-25T07:30:52.065Z</time></trkpt><trkpt lat="37.696075" lon="-1.70301"><ele>363.5</ele><time>2026-04-25T07:30:53.063Z</time></trkpt><trkpt lat="37.69596" lon="-1.7032883"><ele>360.0</ele><time>2026-04-25T07:30:54.061Z</time></trkpt><trkpt lat="37.6958383" lon="-1.7035617"><ele>358.5</ele><time>2026-04-25T07:30:55.069Z</time></trkpt><trkpt lat="37.6957083" lon="-1.7038317"><ele>357.0</ele><time>2026-04-25T07:30:56.061Z</time></trkpt><trkpt lat="37.69557" lon="-1.704095"><ele>357.0</ele><time>2026-04-25T07:30:57.061Z</time></trkpt><trkpt lat="37.695425" lon="-1.7043583"><ele>357.0</ele><time>2026-04-25T07:30:58.062Z</time></trkpt><trkpt lat="37.6952783" lon="-1.7046233"><ele>353.0</ele><time>2026-04-25T07:30:59.059Z</time></trkpt><trkpt lat="37.6951283" lon="-1.7048917"><ele>349.0</ele><time>2026-04-25T07:31:00.062Z</time></trkpt><trkpt lat="37.69498" lon="-1.70516"><ele>349.5</ele><time>2026-04-25T07:31:01.059Z</time></trkpt><trkpt lat="37.6948333" lon="-1.7054283"><ele>350.0</ele><time>2026-04-25T07:31:02.058Z</time></trkpt><trkpt lat="37.6946883" lon="-1.705695"><ele>350.0</ele><time>2026-04-25T07:31:03.062Z</time></trkpt><trkpt lat="37.6945483" lon="-1.705955"><ele>350.0</ele><time>2026-04-25T07:31:04.063Z</time></trkpt><trkpt lat="37.6944083" lon="-1.7062067"><ele>349.5</ele><time>2026-04-25T07:31:05.061Z</time></trkpt><trkpt lat="37.6942717" lon="-1.7064533"><ele>349.0</ele><time>2026-04-25T07:31:06.065Z</time></trkpt><trkpt lat="37.69414" lon="-1.7066967"><ele>349.0</ele><time>2026-04-25T07:31:07.061Z</time></trkpt><trkpt lat="37.69401" lon="-1.7069367"><ele>349.0</ele><time>2026-04-25T07:31:08.063Z</time></trkpt><trkpt lat="37.6938767" lon="-1.70717"><ele>349.0</ele><time>2026-04-25T07:31:09.067Z</time></trkpt><trkpt lat="37.6937417" lon="-1.7074"><ele>349.0</ele><time>2026-04-25T07:31:10.062Z</time></trkpt><trkpt lat="37.6936" lon="-1.707625"><ele>347.0</ele><time>2026-04-25T07:31:11.063Z</time></trkpt><trkpt lat="37.6934567" lon="-1.7078383"><ele>345.0</ele><time>2026-04-25T07:31:12.068Z</time></trkpt><trkpt lat="37.6933167" lon="-1.7080367"><ele>343.0</ele><time>2026-04-25T07:31:13.064Z</time></trkpt><trkpt lat="37.6931767" lon="-1.708225"><ele>343.0</ele><time>2026-04-25T07:31:14.065Z</time></trkpt><trkpt lat="37.693035" lon="-1.7084"><ele>343.0</ele><time>2026-04-25T07:31:15.06Z</time></trkpt><trkpt lat="37.69289" lon="-1.7085617"><ele>343.0</ele><time>2026-04-25T07:31:16.06Z</time></trkpt><trkpt lat="37.6927417" lon="-1.7087167"><ele>343.3333333333333</ele><time>2026-04-25T07:31:17.068Z</time></trkpt><trkpt lat="37.6925933" lon="-1.7088683"><ele>343.6666666666667</ele><time>2026-04-25T07:31:18.06Z</time></trkpt><trkpt lat="37.6924417" lon="-1.7090133"><ele>344.0</ele><time>2026-04-25T07:31:19.062Z</time></trkpt><trkpt lat="37.6922883" lon="-1.7091533"><ele>344.0</ele><time>2026-04-25T07:31:20.059Z</time></trkpt><trkpt lat="37.6921317" lon="-1.7092867"><ele>344.0</ele><time>2026-04-25T07:31:21.064Z</time></trkpt><trkpt lat="37.6919717" lon="-1.709415"><ele>344.0</ele><time>2026-04-25T07:31:22.06Z</time></trkpt><trkpt lat="37.6918067" lon="-1.70954"><ele>343.6666666666667</ele><time>2026-04-25T07:31:23.06Z</time></trkpt><trkpt lat="37.6916367" lon="-1.7096617"><ele>343.3333333333333</ele><time>2026-04-25T07:31:24.06Z</time></trkpt><trkpt lat="37.6914633" lon="-1.7097767"><ele>343.0</ele><time>2026-04-25T07:31:25.064Z</time></trkpt><trkpt lat="37.6912833" lon="-1.7098867"><ele>343.0</ele><time>2026-04-25T07:31:26.061Z</time></trkpt><trkpt lat="37.6911" lon="-1.70999"><ele>343.0</ele><time>2026-04-25T07:31:27.065Z</time></trkpt><trkpt lat="37.6909117" lon="-1.7100867"><ele>343.0</ele><time>2026-04-25T07:31:28.061Z</time></trkpt><trkpt lat="37.6907217" lon="-1.7101717"><ele>343.3333333333333</ele><time>2026-04-25T07:31:29.062Z</time></trkpt><trkpt lat="37.6905317" lon="-1.7102483"><ele>343.6666666666667</ele><time>2026-04-25T07:31:30.063Z</time></trkpt><trkpt lat="37.6903383" lon="-1.7103167"><ele>344.0</ele><time>2026-04-25T07:31:31.061Z</time></trkpt><trkpt lat="37.6901467" lon="-1.710375"><ele>344.0</ele><time>2026-04-25T07:31:32.063Z</time></trkpt><trkpt lat="37.689955" lon="-1.71043"><ele>344.0</ele><time>2026-04-25T07:31:33.061Z</time></trkpt><trkpt lat="37.6897617" lon="-1.710475"><ele>344.0</ele><time>2026-04-25T07:31:34.063Z</time></trkpt><trkpt lat="37.689565" lon="-1.710515"><ele>343.6666666666667</ele><time>2026-04-25T07:31:35.065Z</time></trkpt><trkpt lat="37.6893667" lon="-1.710545"><ele>343.3333333333333</ele><time>2026-04-25T07:31:36.063Z</time></trkpt><trkpt lat="37.6891667" lon="-1.71057"><ele>343.0</ele><time>2026-04-25T07:31:37.067Z</time></trkpt><trkpt lat="37.688965" lon="-1.71059"><ele>343.0</ele><time>2026-04-25T07:31:38.061Z</time></trkpt><trkpt lat="37.6887617" lon="-1.710605"><ele>343.0</ele><time>2026-04-25T07:31:39.061Z</time></trkpt><trkpt lat="37.6885533" lon="-1.710615"><ele>343.0</ele><time>2026-04-25T07:31:40.059Z</time></trkpt><trkpt lat="37.6883483" lon="-1.7106217"><ele>343.0</ele><time>2026-04-25T07:31:41.059Z</time></trkpt><trkpt lat="37.68815" lon="-1.7106283"><ele>343.0</ele><time>2026-04-25T07:31:42.065Z</time></trkpt><trkpt lat="37.68795" lon="-1.710635"><ele>343.0</ele><time>2026-04-25T07:31:43.062Z</time></trkpt><trkpt lat="37.68775" lon="-1.7106383"><ele>341.3333333333333</ele><time>2026-04-25T07:31:44.064Z</time></trkpt><trkpt lat="37.6875483" lon="-1.710645"><ele>339.6666666666667</ele><time>2026-04-25T07:31:45.082Z</time></trkpt><trkpt lat="37.68735" lon="-1.7106533"><ele>338.0</ele><time>2026-04-25T07:31:46.058Z</time></trkpt><trkpt lat="37.6871567" lon="-1.7106617"><ele>338.0</ele><time>2026-04-25T07:31:47.062Z</time></trkpt><trkpt lat="37.686965" lon="-1.71067"><ele>338.0</ele><time>2026-04-25T07:31:48.062Z</time></trkpt><trkpt lat="37.6867733" lon="-1.7106767"><ele>338.0</ele><time>2026-04-25T07:31:49.06Z</time></trkpt><trkpt lat="37.6865833" lon="-1.7106817"><ele>337.6666666666667</ele><time>2026-04-25T07:31:50.062Z</time></trkpt><trkpt lat="37.6863983" lon="-1.7106867"><ele>337.3333333333333</ele><time>2026-04-25T07:31:51.064Z</time></trkpt><trkpt lat="37.6862183" lon="-1.71069"><ele>337.0</ele><time>2026-04-25T07:31:52.064Z</time></trkpt><trkpt lat="37.6860367" lon="-1.7106933"><ele>337.66666666666663</ele><time>2026-04-25T07:31:53.062Z</time></trkpt><trkpt lat="37.685855" lon="-1.7106983"><ele>338.3333333333333</ele><time>2026-04-25T07:31:54.063Z</time></trkpt><trkpt lat="37.6856717" lon="-1.710705"><ele>339.0</ele><time>2026-04-25T07:31:55.061Z</time></trkpt><trkpt lat="37.685485" lon="-1.7107117"><ele>339.0</ele><time>2026-04-25T07:31:56.06Z</time></trkpt><trkpt lat="37.6852983" lon="-1.7107183"><ele>339.0</ele><time>2026-04-25T07:31:57.063Z</time></trkpt><trkpt lat="37.6851083" lon="-1.7107283"><ele>339.0</ele><time>2026-04-25T07:31:58.06Z</time></trkpt><trkpt lat="37.68492" lon="-1.7107367"><ele>338.6666666666667</ele><time>2026-04-25T07:31:59.06Z</time></trkpt><trkpt lat="37.6847317" lon="-1.7107433"><ele>338.33333333333337</ele><time>2026-04-25T07:32:00.065Z</time></trkpt><trkpt lat="37.684545" lon="-1.71075"><ele>338.0</ele><time>2026-04-25T07:32:01.063Z</time></trkpt><trkpt lat="37.6843567" lon="-1.7107567"><ele>338.6666666666667</ele><time>2026-04-25T07:32:02.06Z</time></trkpt><trkpt lat="37.68417" lon="-1.710765"><ele>339.3333333333333</ele><time>2026-04-25T07:32:03.066Z</time></trkpt><trkpt lat="37.6839817" lon="-1.7107733"><ele>340.0</ele><time>2026-04-25T07:32:04.064Z</time></trkpt><trkpt lat="37.683795" lon="-1.7107783"><ele>340.0</ele><time>2026-04-25T07:32:05.06Z</time></trkpt><trkpt lat="37.6836067" lon="-1.7107867"><ele>340.0</ele><time>2026-04-25T07:32:06.062Z</time></trkpt><trkpt lat="37.68342" lon="-1.7107933"><ele>340.0</ele><time>2026-04-25T07:32:07.062Z</time></trkpt><trkpt lat="37.6832333" lon="-1.7108017"><ele>339.3333333333333</ele><time>2026-04-25T07:32:08.063Z</time></trkpt><trkpt lat="37.6830467" lon="-1.71081"><ele>338.6666666666667</ele><time>2026-04-25T07:32:09.061Z</time></trkpt><trkpt lat="37.6828567" lon="-1.7108167"><ele>338.0</ele><time>2026-04-25T07:32:10.063Z</time></trkpt><trkpt lat="37.6826683" lon="-1.710825"><ele>336.0</ele><time>2026-04-25T07:32:11.061Z</time></trkpt><trkpt lat="37.68248" lon="-1.71083"><ele>334.0</ele><time>2026-04-25T07:32:12.061Z</time></trkpt><trkpt lat="37.6822917" lon="-1.7108383"><ele>332.0</ele><time>2026-04-25T07:32:13.062Z</time></trkpt><trkpt lat="37.6821017" lon="-1.7108417"><ele>332.6666666666667</ele><time>2026-04-25T07:32:14.06Z</time></trkpt><trkpt lat="37.6819133" lon="-1.7108433"><ele>333.3333333333333</ele><time>2026-04-25T07:32:15.061Z</time></trkpt><trkpt lat="37.681725" lon="-1.7108483"><ele>334.0</ele><time>2026-04-25T07:32:16.066Z</time></trkpt><trkpt lat="37.6815367" lon="-1.7108533"><ele>334.0</ele><time>2026-04-25T07:32:17.063Z</time></trkpt><trkpt lat="37.6813483" lon="-1.7108583"><ele>334.0</ele><time>2026-04-25T07:32:18.065Z</time></trkpt><trkpt lat="37.6811583" lon="-1.7108633"><ele>334.0</ele><time>2026-04-25T07:32:19.061Z</time></trkpt><trkpt lat="37.6809683" lon="-1.71087"><ele>335.3333333333333</ele><time>2026-04-25T07:32:20.062Z</time></trkpt><trkpt lat="37.6807817" lon="-1.7108767"><ele>336.6666666666667</ele><time>2026-04-25T07:32:21.064Z</time></trkpt><trkpt lat="37.6805917" lon="-1.710885"><ele>338.0</ele><time>2026-04-25T07:32:22.062Z</time></trkpt><trkpt lat="37.6804033" lon="-1.7108933"><ele>342.0</ele><time>2026-04-25T07:32:23.067Z</time></trkpt><trkpt lat="37.6802117" lon="-1.7108967"><ele>346.0</ele><time>2026-04-25T07:32:24.065Z</time></trkpt><trkpt lat="37.6800217" lon="-1.7109"><ele>350.0</ele><time>2026-04-25T07:32:25.063Z</time></trkpt><trkpt lat="37.6798333" lon="-1.7109"><ele>350.0</ele><time>2026-04-25T07:32:26.068Z</time></trkpt><trkpt lat="37.6796417" lon="-1.7108983"><ele>350.0</ele><time>2026-04-25T07:32:27.065Z</time></trkpt><trkpt lat="37.6794517" lon="-1.7109"><ele>350.0</ele><time>2026-04-25T07:32:28.058Z</time></trkpt><trkpt lat="37.6792683" lon="-1.7108933"><ele>361.0</ele><time>2026-04-25T07:32:29.061Z</time></trkpt><trkpt lat="37.6790833" lon="-1.7108767"><ele>372.0</ele><time>2026-04-25T07:32:30.066Z</time></trkpt><trkpt lat="37.6788933" lon="-1.7108567"><ele>383.0</ele><time>2026-04-25T07:32:31.06Z</time></trkpt><trkpt lat="37.6787033" lon="-1.710835"><ele>381.5</ele><time>2026-04-25T07:32:32.062Z</time></trkpt><trkpt lat="37.6785133" lon="-1.7108117"><ele>380.0</ele><time>2026-04-25T07:32:33.06Z</time></trkpt><trkpt lat="37.6709" lon="-1.70964"><ele>380.0</ele><time>2026-04-25T07:33:14.067Z</time></trkpt><trkpt lat="37.6707087" lon="-1.7096508"><ele>380.0</ele><time>2026-04-25T07:33:15.061Z</time></trkpt><trkpt lat="37.670514" lon="-1.7096611"><ele>380.0</ele><time>2026-04-25T07:33:16.061Z</time></trkpt><trkpt lat="37.670319" lon="-1.7096647"><ele>377.0</ele><time>2026-04-25T07:33:17.059Z</time></trkpt><trkpt lat="37.6701261" lon="-1.7096665"><ele>374.0</ele><time>2026-04-25T07:33:18.062Z</time></trkpt><trkpt lat="37.6699368" lon="-1.7096708"><ele>371.0</ele><time>2026-04-25T07:33:19.062Z</time></trkpt><trkpt lat="37.6697469" lon="-1.7096719"><ele>371.0</ele><time>2026-04-25T07:33:20.069Z</time></trkpt><trkpt lat="37.6695586" lon="-1.7096743"><ele>371.0</ele><time>2026-04-25T07:33:21.068Z</time></trkpt><trkpt lat="37.6693663" lon="-1.7096761"><ele>371.0</ele><time>2026-04-25T07:33:22.061Z</time></trkpt><trkpt lat="37.6691654" lon="-1.7096759"><ele>373.6666666666667</ele><time>2026-04-25T07:33:23.064Z</time></trkpt><trkpt lat="37.6689577" lon="-1.7096709"><ele>376.3333333333333</ele><time>2026-04-25T07:33:24.06Z</time></trkpt><trkpt lat="37.6687409" lon="-1.7096655"><ele>379.0</ele><time>2026-04-25T07:33:25.065Z</time></trkpt><trkpt lat="37.6685196" lon="-1.7096589"><ele>379.0</ele><time>2026-04-25T07:33:26.062Z</time></trkpt><trkpt lat="37.6682943" lon="-1.7096511"><ele>379.0</ele><time>2026-04-25T07:33:27.06Z</time></trkpt><trkpt lat="37.6680669" lon="-1.7096457"><ele>379.0</ele><time>2026-04-25T07:33:28.06Z</time></trkpt><trkpt lat="37.6678389" lon="-1.7096502"><ele>379.0</ele><time>2026-04-25T07:33:29.067Z</time></trkpt><trkpt lat="37.6676094" lon="-1.7096684"><ele>374.5</ele><time>2026-04-25T07:33:30.063Z</time></trkpt><trkpt lat="37.6673779" lon="-1.7096988"><ele>370.0</ele><time>2026-04-25T07:33:31.06Z</time></trkpt><trkpt lat="37.6671446" lon="-1.7097402"><ele>367.5</ele><time>2026-04-25T07:33:32.06Z</time></trkpt><trkpt lat="37.6669136" lon="-1.7097954"><ele>365.0</ele><time>2026-04-25T07:33:33.063Z</time></trkpt><trkpt lat="37.6666891" lon="-1.7098699"><ele>365.0</ele><time>2026-04-25T07:33:34.059Z</time></trkpt><trkpt lat="37.6664668" lon="-1.7099625"><ele>365.0</ele><time>2026-04-25T07:33:35.059Z</time></trkpt><trkpt lat="37.6662451" lon="-1.7100698"><ele>365.5</ele><time>2026-04-25T07:33:36.066Z</time></trkpt><trkpt lat="37.6660292" lon="-1.7101869"><ele>366.0</ele><time>2026-04-25T07:33:37.067Z</time></trkpt><trkpt lat="37.6658225" lon="-1.7103194"><ele>366.0</ele><time>2026-04-25T07:33:38.07Z</time></trkpt><trkpt lat="37.6656198" lon="-1.7104595"><ele>366.0</ele><time>2026-04-25T07:33:39.063Z</time></trkpt><trkpt lat="37.6654249" lon="-1.7106148"><ele>366.0</ele><time>2026-04-25T07:33:40.064Z</time></trkpt><trkpt lat="37.6652377" lon="-1.7107814"><ele>366.0</ele><time>2026-04-25T07:33:41.062Z</time></trkpt><trkpt lat="37.6650574" lon="-1.7109561"><ele>368.5</ele><time>2026-04-25T07:33:42.064Z</time></trkpt><trkpt lat="37.6648826" lon="-1.7111384"><ele>371.0</ele><time>2026-04-25T07:33:43.064Z</time></trkpt><trkpt lat="37.66471" lon="-1.7113255"><ele>371.0</ele><time>2026-04-25T07:33:44.062Z</time></trkpt><trkpt lat="37.6645412" lon="-1.711522"><ele>371.0</ele><time>2026-04-25T07:33:45.063Z</time></trkpt><trkpt lat="37.664375" lon="-1.7117255"><ele>370.5</ele><time>2026-04-25T07:33:46.063Z</time></trkpt><trkpt lat="37.6642112" lon="-1.7119357"><ele>370.0</ele><time>2026-04-25T07:33:47.068Z</time></trkpt><trkpt lat="37.6640504" lon="-1.7121503"><ele>370.0</ele><time>2026-04-25T07:33:48.061Z</time></trkpt><trkpt lat="37.6638904" lon="-1.7123734"><ele>370.0</ele><time>2026-04-25T07:33:49.063Z</time></trkpt><trkpt lat="37.663732" lon="-1.7125979"><ele>368.5</ele><time>2026-04-25T07:33:50.065Z</time></trkpt><trkpt lat="37.663578" lon="-1.7128237"><ele>367.0</ele><time>2026-04-25T07:33:51.066Z</time></trkpt><trkpt lat="37.6634253" lon="-1.7130505"><ele>367.0</ele><time>2026-04-25T07:33:52.063Z</time></trkpt><trkpt lat="37.66327" lon="-1.71328"><ele>367.0</ele><time>2026-04-25T07:33:53.066Z</time></trkpt><trkpt lat="37.6631083" lon="-1.713515"><ele>369.5</ele><time>2026-04-25T07:33:54.063Z</time></trkpt><trkpt lat="37.6629467" lon="-1.7137533"><ele>372.0</ele><time>2026-04-25T07:33:55.062Z</time></trkpt><trkpt lat="37.6627817" lon="-1.7139917"><ele>374.0</ele><time>2026-04-25T07:33:56.066Z</time></trkpt><trkpt lat="37.6626167" lon="-1.7142283"><ele>376.0</ele><time>2026-04-25T07:33:57.06Z</time></trkpt><trkpt lat="37.6624517" lon="-1.7144683"><ele>376.0</ele><time>2026-04-25T07:33:58.062Z</time></trkpt><trkpt lat="37.6622867" lon="-1.71471"><ele>376.0</ele><time>2026-04-25T07:33:59.06Z</time></trkpt><trkpt lat="37.6621233" lon="-1.7149533"><ele>376.0</ele><time>2026-04-25T07:34:00.062Z</time></trkpt><trkpt lat="37.66196" lon="-1.7151933"><ele>376.0</ele><time>2026-04-25T07:34:01.061Z</time></trkpt><trkpt lat="37.6617967" lon="-1.715435"><ele>372.0</ele><time>2026-04-25T07:34:02.065Z</time></trkpt><trkpt lat="37.6616333" lon="-1.7156767"><ele>368.0</ele><time>2026-04-25T07:34:03.063Z</time></trkpt><trkpt lat="37.6614683" lon="-1.7159133"><ele>373.0</ele><time>2026-04-25T07:34:04.06Z</time></trkpt><trkpt lat="37.6612983" lon="-1.7161433"><ele>378.0</ele><time>2026-04-25T07:34:05.063Z</time></trkpt><trkpt lat="37.66112" lon="-1.7163617"><ele>373.0</ele><time>2026-04-25T07:34:06.062Z</time></trkpt><trkpt lat="37.6609333" lon="-1.7165667"><ele>368.0</ele><time>2026-04-25T07:34:07.064Z</time></trkpt><trkpt lat="37.6607367" lon="-1.7167533"><ele>378.0</ele><time>2026-04-25T07:34:08.062Z</time></trkpt><trkpt lat="37.6605333" lon="-1.7169283"><ele>388.0</ele><time>2026-04-25T07:34:09.06Z</time></trkpt><trkpt lat="37.66032" lon="-1.7170867"><ele>384.0</ele><time>2026-04-25T07:34:10.067Z</time></trkpt><trkpt lat="37.6601033" lon="-1.7172333"><ele>380.0</ele><time>2026-04-25T07:34:11.063Z</time></trkpt><trkpt lat="37.6598833" lon="-1.7173667"><ele>380.0</ele><time>2026-04-25T07:34:12.061Z</time></trkpt><trkpt lat="37.6596583" lon="-1.717485"><ele>380.0</ele><time>2026-04-25T07:34:13.064Z</time></trkpt><trkpt lat="37.65943" lon="-1.7175917"><ele>373.5</ele><time>2026-04-25T07:34:14.073Z</time></trkpt><trkpt lat="37.6591983" lon="-1.7176883"><ele>367.0</ele><time>2026-04-25T07:34:15.061Z</time></trkpt><trkpt lat="37.6589633" lon="-1.7177633"><ele>367.0</ele><time>2026-04-25T07:34:16.06Z</time></trkpt><trkpt lat="37.6587283" lon="-1.7178267"><ele>367.0</ele><time>2026-04-25T07:34:17.064Z</time></trkpt><trkpt lat="37.6584933" lon="-1.7178867"><ele>369.5</ele><time>2026-04-25T07:34:18.062Z</time></trkpt><trkpt lat="37.6582583" lon="-1.7179467"><ele>372.0</ele><time>2026-04-25T07:34:19.061Z</time></trkpt><trkpt lat="37.6580217" lon="-1.718005"><ele>372.0</ele><time>2026-04-25T07:34:20.067Z</time></trkpt><trkpt lat="37.6577867" lon="-1.7180633"><ele>372.0</ele><time>2026-04-25T07:34:21.064Z</time></trkpt><trkpt lat="37.6575467" lon="-1.7181217"><ele>372.0</ele><time>2026-04-25T07:34:22.06Z</time></trkpt><trkpt lat="37.6573033" lon="-1.7181783"><ele>372.0</ele><time>2026-04-25T07:34:23.061Z</time></trkpt><trkpt lat="37.657055" lon="-1.718235"><ele>367.5</ele><time>2026-04-25T07:34:24.061Z</time></trkpt><trkpt lat="37.6568067" lon="-1.7182933"><ele>363.0</ele><time>2026-04-25T07:34:25.066Z</time></trkpt><trkpt lat="37.656555" lon="-1.718355"><ele>363.0</ele><time>2026-04-25T07:34:26.065Z</time></trkpt><trkpt lat="37.6563017" lon="-1.718415"><ele>363.0</ele><time>2026-04-25T07:34:27.065Z</time></trkpt><trkpt lat="37.6560467" lon="-1.7184767"><ele>361.5</ele><time>2026-04-25T07:34:28.062Z</time></trkpt><trkpt lat="37.6557917" lon="-1.7185383"><ele>360.0</ele><time>2026-04-25T07:34:29.063Z</time></trkpt><trkpt lat="37.65554" lon="-1.7186"><ele>359.5</ele><time>2026-04-25T07:34:30.062Z</time></trkpt><trkpt lat="37.65529" lon="-1.7186633"><ele>359.0</ele><time>2026-04-25T07:34:31.063Z</time></trkpt><trkpt lat="37.65504" lon="-1.7187317"><ele>359.0</ele><time>2026-04-25T07:34:32.064Z</time></trkpt><trkpt lat="37.65479" lon="-1.7188167"><ele>359.0</ele><time>2026-04-25T07:34:33.065Z</time></trkpt><trkpt lat="37.6545467" lon="-1.7189183"><ele>355.5</ele><time>2026-04-25T07:34:34.07Z</time></trkpt><trkpt lat="37.6543067" lon="-1.719035"><ele>352.0</ele><time>2026-04-25T07:34:35.06Z</time></trkpt><trkpt lat="37.6540733" lon="-1.7191667"><ele>352.0</ele><time>2026-04-25T07:34:36.063Z</time></trkpt><trkpt lat="37.6538417" lon="-1.7193117"><ele>352.0</ele><time>2026-04-25T07:34:37.068Z</time></trkpt><trkpt lat="37.65362" lon="-1.7194717"><ele>352.5</ele><time>2026-04-25T07:34:38.063Z</time></trkpt><trkpt lat="37.653405" lon="-1.7196483"><ele>353.0</ele><time>2026-04-25T07:34:39.064Z</time></trkpt><trkpt lat="37.6532" lon="-1.7198383"><ele>353.0</ele><time>2026-04-25T07:34:40.068Z</time></trkpt><trkpt lat="37.6530083" lon="-1.72005"><ele>353.0</ele><time>2026-04-25T07:34:41.06Z</time></trkpt><trkpt lat="37.652825" lon="-1.720275"><ele>350.5</ele><time>2026-04-25T07:34:42.063Z</time></trkpt><trkpt lat="37.6526483" lon="-1.7205083"><ele>348.0</ele><time>2026-04-25T07:34:43.064Z</time></trkpt><trkpt lat="37.6524833" lon="-1.72075"><ele>348.0</ele><time>2026-04-25T07:34:44.062Z</time></trkpt><trkpt lat="37.652325" lon="-1.721"><ele>348.0</ele><time>2026-04-25T07:34:45.062Z</time></trkpt><trkpt lat="37.6521867" lon="-1.7212733"><ele>347.5</ele><time>2026-04-25T07:34:46.063Z</time></trkpt><trkpt lat="37.65206" lon="-1.7215567"><ele>347.0</ele><time>2026-04-25T07:34:47.062Z</time></trkpt><trkpt lat="37.651945" lon="-1.7218467"><ele>349.5</ele><time>2026-04-25T07:34:48.068Z</time></trkpt><trkpt lat="37.651845" lon="-1.72214"><ele>352.0</ele><time>2026-04-25T07:34:49.062Z</time></trkpt><trkpt lat="37.651755" lon="-1.7224367"><ele>354.0</ele><time>2026-04-25T07:34:50.063Z</time></trkpt><trkpt lat="37.6516767" lon="-1.7227383"><ele>356.0</ele><time>2026-04-25T07:34:51.061Z</time></trkpt><trkpt lat="37.6516083" lon="-1.7230367"><ele>356.0</ele><time>2026-04-25T07:34:52.06Z</time></trkpt><trkpt lat="37.65154" lon="-1.7233333"><ele>356.0</ele><time>2026-04-25T07:34:53.06Z</time></trkpt><trkpt lat="37.65147" lon="-1.7236283"><ele>357.0</ele><time>2026-04-25T07:34:54.07Z</time></trkpt><trkpt lat="37.6513917" lon="-1.7239217"><ele>358.0</ele><time>2026-04-25T07:34:55.064Z</time></trkpt><trkpt lat="37.6513067" lon="-1.724215"><ele>357.5</ele><time>2026-04-25T07:34:56.062Z</time></trkpt><trkpt lat="37.6512083" lon="-1.7245017"><ele>357.0</ele><time>2026-04-25T07:34:57.062Z</time></trkpt><trkpt lat="37.6510983" lon="-1.724785"><ele>357.0</ele><time>2026-04-25T07:34:58.059Z</time></trkpt><trkpt lat="37.650975" lon="-1.7250633"><ele>357.0</ele><time>2026-04-25T07:34:59.061Z</time></trkpt><trkpt lat="37.6508417" lon="-1.725335"><ele>359.0</ele><time>2026-04-25T07:35:00.064Z</time></trkpt><trkpt lat="37.650695" lon="-1.7256"><ele>361.0</ele><time>2026-04-25T07:35:01.066Z</time></trkpt><trkpt lat="37.6505383" lon="-1.7258567"><ele>361.5</ele><time>2026-04-25T07:35:02.067Z</time></trkpt><trkpt lat="37.6503717" lon="-1.7261067"><ele>362.0</ele><time>2026-04-25T07:35:03.064Z</time></trkpt><trkpt lat="37.6501983" lon="-1.726345"><ele>362.0</ele><time>2026-04-25T07:35:04.062Z</time></trkpt><trkpt lat="37.65002" lon="-1.7265733"><ele>362.0</ele><time>2026-04-25T07:35:05.068Z</time></trkpt><trkpt lat="37.6498367" lon="-1.7267967"><ele>361.5</ele><time>2026-04-25T07:35:06.062Z</time></trkpt><trkpt lat="37.64965" lon="-1.7270167"><ele>361.0</ele><time>2026-04-25T07:35:07.061Z</time></trkpt><trkpt lat="37.649465" lon="-1.7272383"><ele>357.5</ele><time>2026-04-25T07:35:08.061Z</time></trkpt><trkpt lat="37.6492817" lon="-1.7274533"><ele>354.0</ele><time>2026-04-25T07:35:09.066Z</time></trkpt><trkpt lat="37.6491067" lon="-1.72767"><ele>356.0</ele><time>2026-04-25T07:35:10.064Z</time></trkpt><trkpt lat="37.6489367" lon="-1.727895"><ele>358.0</ele><time>2026-04-25T07:35:11.064Z</time></trkpt><trkpt lat="37.6487733" lon="-1.72813"><ele>359.0</ele><time>2026-04-25T07:35:12.06Z</time></trkpt><trkpt lat="37.6486133" lon="-1.72838"><ele>360.0</ele><time>2026-04-25T07:35:13.065Z</time></trkpt><trkpt lat="37.64846" lon="-1.72864"><ele>361.0</ele><time>2026-04-25T07:35:14.065Z</time></trkpt><trkpt lat="37.648315" lon="-1.72891"><ele>362.0</ele><time>2026-04-25T07:35:15.064Z</time></trkpt><trkpt lat="37.6481783" lon="-1.7291883"><ele>366.5</ele><time>2026-04-25T07:35:16.061Z</time></trkpt><trkpt lat="37.64805" lon="-1.729475"><ele>371.0</ele><time>2026-04-25T07:35:17.064Z</time></trkpt><trkpt lat="37.64793" lon="-1.72977"><ele>371.0</ele><time>2026-04-25T07:35:18.059Z</time></trkpt><trkpt lat="37.6478183" lon="-1.7300717"><ele>371.0</ele><time>2026-04-25T07:35:19.063Z</time></trkpt><trkpt lat="37.6477183" lon="-1.7303817"><ele>367.0</ele><time>2026-04-25T07:35:20.064Z</time></trkpt><trkpt lat="37.64763" lon="-1.7306983"><ele>363.0</ele><time>2026-04-25T07:35:21.061Z</time></trkpt><trkpt lat="37.6475517" lon="-1.7310217"><ele>367.0</ele><time>2026-04-25T07:35:22.067Z</time></trkpt><trkpt lat="37.647485" lon="-1.7313517"><ele>371.0</ele><time>2026-04-25T07:35:23.062Z</time></trkpt><trkpt lat="37.6474283" lon="-1.731685"><ele>375.0</ele><time>2026-04-25T07:35:24.063Z</time></trkpt><trkpt lat="37.6473733" lon="-1.7320183"><ele>379.0</ele><time>2026-04-25T07:35:25.064Z</time></trkpt><trkpt lat="37.647315" lon="-1.7323467"><ele>379.0</ele><time>2026-04-25T07:35:26.064Z</time></trkpt><trkpt lat="37.6472483" lon="-1.7326667"><ele>379.0</ele><time>2026-04-25T07:35:27.061Z</time></trkpt><trkpt lat="37.6471767" lon="-1.7329783"><ele>383.0</ele><time>2026-04-25T07:35:28.061Z</time></trkpt><trkpt lat="37.6470983" lon="-1.733285"><ele>387.0</ele><time>2026-04-25T07:35:29.065Z</time></trkpt><trkpt lat="37.6470133" lon="-1.7335917"><ele>380.0</ele><time>2026-04-25T07:35:30.061Z</time></trkpt><trkpt lat="37.64692" lon="-1.7338967"><ele>373.0</ele><time>2026-04-25T07:35:31.063Z</time></trkpt><trkpt lat="37.6468217" lon="-1.7342"><ele>380.5</ele><time>2026-04-25T07:35:32.065Z</time></trkpt><trkpt lat="37.6467117" lon="-1.7345"><ele>388.0</ele><time>2026-04-25T07:35:33.061Z</time></trkpt><trkpt lat="37.6465933" lon="-1.734795"><ele>388.0</ele><time>2026-04-25T07:35:34.064Z</time></trkpt><trkpt lat="37.6464633" lon="-1.7350883"><ele>388.0</ele><time>2026-04-25T07:35:35.066Z</time></trkpt><trkpt lat="37.646325" lon="-1.7353817"><ele>386.5</ele><time>2026-04-25T07:35:36.062Z</time></trkpt><trkpt lat="37.6461783" lon="-1.7356683"><ele>385.0</ele><time>2026-04-25T07:35:37.063Z</time></trkpt><trkpt lat="37.6460233" lon="-1.7359483"><ele>389.5</ele><time>2026-04-25T07:35:38.064Z</time></trkpt><trkpt lat="37.6458583" lon="-1.7362233"><ele>394.0</ele><time>2026-04-25T07:35:39.063Z</time></trkpt><trkpt lat="37.6456867" lon="-1.7364917"><ele>394.0</ele><time>2026-04-25T07:35:40.061Z</time></trkpt><trkpt lat="37.6455083" lon="-1.7367517"><ele>394.0</ele><time>2026-04-25T07:35:41.062Z</time></trkpt><trkpt lat="37.64532" lon="-1.7370017"><ele>392.0</ele><time>2026-04-25T07:35:42.062Z</time></trkpt><trkpt lat="37.645125" lon="-1.7372433"><ele>390.0</ele><time>2026-04-25T07:35:43.06Z</time></trkpt><trkpt lat="37.6449217" lon="-1.737475"><ele>390.0</ele><time>2026-04-25T07:35:44.061Z</time></trkpt><trkpt lat="37.6447117" lon="-1.7376983"><ele>390.0</ele><time>2026-04-25T07:35:45.058Z</time></trkpt><trkpt lat="37.6444983" lon="-1.7379117"><ele>388.0</ele><time>2026-04-25T07:35:46.062Z</time></trkpt><trkpt lat="37.6442783" lon="-1.73811"><ele>386.0</ele><time>2026-04-25T07:35:47.063Z</time></trkpt><trkpt lat="37.6440517" lon="-1.7383017"><ele>386.0</ele><time>2026-04-25T07:35:48.064Z</time></trkpt><trkpt lat="37.6438233" lon="-1.73848"><ele>386.0</ele><time>2026-04-25T07:35:49.063Z</time></trkpt><trkpt lat="37.6435867" lon="-1.738645"><ele>387.0</ele><time>2026-04-25T07:35:50.064Z</time></trkpt><trkpt lat="37.643345" lon="-1.7387983"><ele>388.0</ele><time>2026-04-25T07:35:51.061Z</time></trkpt><trkpt lat="37.6430983" lon="-1.738945"><ele>388.0</ele><time>2026-04-25T07:35:52.063Z</time></trkpt><trkpt lat="37.6428417" lon="-1.7390833"><ele>388.0</ele><time>2026-04-25T07:35:53.069Z</time></trkpt><trkpt lat="37.6425783" lon="-1.73921"><ele>386.5</ele><time>2026-04-25T07:35:54.063Z</time></trkpt><trkpt lat="37.6423067" lon="-1.7393233"><ele>385.0</ele><time>2026-04-25T07:35:55.064Z</time></trkpt><trkpt lat="37.6420333" lon="-1.739425"><ele>381.5</ele><time>2026-04-25T07:35:56.061Z</time></trkpt><trkpt lat="37.6417583" lon="-1.7395167"><ele>378.0</ele><time>2026-04-25T07:35:57.061Z</time></trkpt><trkpt lat="37.64148" lon="-1.739595"><ele>378.0</ele><time>2026-04-25T07:35:58.062Z</time></trkpt><trkpt lat="37.6411983" lon="-1.739655"><ele>378.0</ele><time>2026-04-25T07:35:59.059Z</time></trkpt><trkpt lat="37.640915" lon="-1.7397017"><ele>375.0</ele><time>2026-04-25T07:36:00.059Z</time></trkpt><trkpt lat="37.64063" lon="-1.7397383"><ele>372.0</ele><time>2026-04-25T07:36:01.066Z</time></trkpt><trkpt lat="37.6403467" lon="-1.7397683"><ele>369.0</ele><time>2026-04-25T07:36:02.058Z</time></trkpt><trkpt lat="37.6400617" lon="-1.7397933"><ele>366.0</ele><time>2026-04-25T07:36:03.064Z</time></trkpt><trkpt lat="37.639775" lon="-1.7398183"><ele>366.0</ele><time>2026-04-25T07:36:04.061Z</time></trkpt><trkpt lat="37.6394867" lon="-1.7398467"><ele>366.0</ele><time>2026-04-25T07:36:05.064Z</time></trkpt><trkpt lat="37.6392" lon="-1.7398833"><ele>365.5</ele><time>2026-04-25T07:36:06.064Z</time></trkpt><trkpt lat="37.638915" lon="-1.7399267"><ele>365.0</ele><time>2026-04-25T07:36:07.064Z</time></trkpt><trkpt lat="37.63863" lon="-1.7399667"><ele>366.0</ele><time>2026-04-25T07:36:08.065Z</time></trkpt><trkpt lat="37.638345" lon="-1.740015"><ele>367.0</ele><time>2026-04-25T07:36:09.06Z</time></trkpt><trkpt lat="37.6380583" lon="-1.74007"><ele>366.5</ele><time>2026-04-25T07:36:10.06Z</time></trkpt><trkpt lat="37.63777" lon="-1.740135"><ele>366.0</ele><time>2026-04-25T07:36:11.062Z</time></trkpt><trkpt lat="37.6374817" lon="-1.7402033"><ele>366.5</ele><time>2026-04-25T07:36:12.058Z</time></trkpt><trkpt lat="37.6371967" lon="-1.7402783"><ele>367.0</ele><time>2026-04-25T07:36:13.066Z</time></trkpt><trkpt lat="37.6369133" lon="-1.7403617"><ele>364.5</ele><time>2026-04-25T07:36:14.062Z</time></trkpt><trkpt lat="37.6366317" lon="-1.7404533"><ele>362.0</ele><time>2026-04-25T07:36:15.062Z</time></trkpt><trkpt lat="37.6363517" lon="-1.74055"><ele>361.5</ele><time>2026-04-25T07:36:16.061Z</time></trkpt><trkpt lat="37.6360733" lon="-1.7406533"><ele>361.0</ele><time>2026-04-25T07:36:17.062Z</time></trkpt><trkpt lat="37.6357983" lon="-1.7407617"><ele>361.0</ele><time>2026-04-25T07:36:18.062Z</time></trkpt><trkpt lat="37.6355283" lon="-1.7408783"><ele>361.0</ele><time>2026-04-25T07:36:19.063Z</time></trkpt><trkpt lat="37.6352617" lon="-1.741"><ele>362.0</ele><time>2026-04-25T07:36:20.067Z</time></trkpt><trkpt lat="37.634995" lon="-1.7411283"><ele>363.0</ele><time>2026-04-25T07:36:21.059Z</time></trkpt><trkpt lat="37.6347283" lon="-1.7412667"><ele>363.5</ele><time>2026-04-25T07:36:22.059Z</time></trkpt><trkpt lat="37.6344633" lon="-1.74141"><ele>364.0</ele><time>2026-04-25T07:36:23.061Z</time></trkpt><trkpt lat="37.6342" lon="-1.7415583"><ele>364.0</ele><time>2026-04-25T07:36:24.06Z</time></trkpt><trkpt lat="37.6339367" lon="-1.741715"><ele>364.0</ele><time>2026-04-25T07:36:25.064Z</time></trkpt><trkpt lat="37.6336733" lon="-1.7418767"><ele>364.0</ele><time>2026-04-25T07:36:26.061Z</time></trkpt><trkpt lat="37.63341" lon="-1.7420517"><ele>364.0</ele><time>2026-04-25T07:36:27.062Z</time></trkpt><trkpt lat="37.6331483" lon="-1.742235"><ele>364.0</ele><time>2026-04-25T07:36:28.065Z</time></trkpt><trkpt lat="37.63289" lon="-1.742425"><ele>364.0</ele><time>2026-04-25T07:36:29.062Z</time></trkpt><trkpt lat="37.63264" lon="-1.7426167"><ele>363.0</ele><time>2026-04-25T07:36:30.062Z</time></trkpt><trkpt lat="37.632395" lon="-1.7428117"><ele>362.0</ele><time>2026-04-25T07:36:31.066Z</time></trkpt><trkpt lat="37.6321583" lon="-1.7430083"><ele>361.0</ele><time>2026-04-25T07:36:32.059Z</time></trkpt><trkpt lat="37.631925" lon="-1.74321"><ele>360.0</ele><time>2026-04-25T07:36:33.063Z</time></trkpt><trkpt lat="37.6316983" lon="-1.7434183"><ele>360.5</ele><time>2026-04-25T07:36:34.059Z</time></trkpt><trkpt lat="37.631475" lon="-1.74363"><ele>361.0</ele><time>2026-04-25T07:36:35.063Z</time></trkpt><trkpt lat="37.631255" lon="-1.7438467"><ele>360.0</ele><time>2026-04-25T07:36:36.063Z</time></trkpt><trkpt lat="37.63104" lon="-1.7440683"><ele>359.0</ele><time>2026-04-25T07:36:37.068Z</time></trkpt><trkpt lat="37.6308283" lon="-1.74429"><ele>359.0</ele><time>2026-04-25T07:36:38.066Z</time></trkpt><trkpt lat="37.6306167" lon="-1.7445133"><ele>359.0</ele><time>2026-04-25T07:36:39.064Z</time></trkpt><trkpt lat="37.630405" lon="-1.74473"><ele>358.0</ele><time>2026-04-25T07:36:40.061Z</time></trkpt><trkpt lat="37.630195" lon="-1.744945"><ele>357.0</ele><time>2026-04-25T07:36:41.064Z</time></trkpt><trkpt lat="37.6299817" lon="-1.7451583"><ele>356.5</ele><time>2026-04-25T07:36:42.064Z</time></trkpt><trkpt lat="37.62977" lon="-1.74537"><ele>356.0</ele><time>2026-04-25T07:36:43.06Z</time></trkpt><trkpt lat="37.629555" lon="-1.7455783"><ele>355.0</ele><time>2026-04-25T07:36:44.062Z</time></trkpt><trkpt lat="37.62934" lon="-1.7457833"><ele>354.0</ele><time>2026-04-25T07:36:45.058Z</time></trkpt><trkpt lat="37.6291217" lon="-1.7459817"><ele>353.5</ele><time>2026-04-25T07:36:46.062Z</time></trkpt><trkpt lat="37.6289033" lon="-1.7461783"><ele>353.0</ele><time>2026-04-25T07:36:47.061Z</time></trkpt><trkpt lat="37.6286817" lon="-1.7463683"><ele>353.0</ele><time>2026-04-25T07:36:48.069Z</time></trkpt><trkpt lat="37.62846" lon="-1.7465533"><ele>353.0</ele><time>2026-04-25T07:36:49.064Z</time></trkpt><trkpt lat="37.6282367" lon="-1.74673"><ele>352.5</ele><time>2026-04-25T07:36:50.064Z</time></trkpt><trkpt lat="37.62801" lon="-1.7469033"><ele>352.0</ele><time>2026-04-25T07:36:51.059Z</time></trkpt><trkpt lat="37.627785" lon="-1.7470667"><ele>352.0</ele><time>2026-04-25T07:36:52.059Z</time></trkpt><trkpt lat="37.6275583" lon="-1.7472233"><ele>352.0</ele><time>2026-04-25T07:36:53.059Z</time></trkpt><trkpt lat="37.6273283" lon="-1.7473683"><ele>352.0</ele><time>2026-04-25T07:36:54.06Z</time></trkpt><trkpt lat="37.62709" lon="-1.747505"><ele>352.0</ele><time>2026-04-25T07:36:55.061Z</time></trkpt><trkpt lat="37.626845" lon="-1.7476367"><ele>353.5</ele><time>2026-04-25T07:36:56.065Z</time></trkpt><trkpt lat="37.6265967" lon="-1.74777"><ele>355.0</ele><time>2026-04-25T07:36:57.06Z</time></trkpt><trkpt lat="37.6263483" lon="-1.747905"><ele>355.0</ele><time>2026-04-25T07:36:58.062Z</time></trkpt><trkpt lat="37.6260967" lon="-1.7480383"><ele>355.0</ele><time>2026-04-25T07:36:59.059Z</time></trkpt><trkpt lat="37.6258417" lon="-1.7481667"><ele>355.0</ele><time>2026-04-25T07:37:00.059Z</time></trkpt><trkpt lat="37.6255817" lon="-1.74829"><ele>355.0</ele><time>2026-04-25T07:37:01.058Z</time></trkpt><trkpt lat="37.62532" lon="-1.7484083"><ele>355.5</ele><time>2026-04-25T07:37:02.059Z</time></trkpt><trkpt lat="37.6250567" lon="-1.748525"><ele>356.0</ele><time>2026-04-25T07:37:03.062Z</time></trkpt><trkpt lat="37.62479" lon="-1.7486417"><ele>357.5</ele><time>2026-04-25T07:37:04.065Z</time></trkpt><trkpt lat="37.624525" lon="-1.7487533"><ele>359.0</ele><time>2026-04-25T07:37:05.065Z</time></trkpt><trkpt lat="37.6242567" lon="-1.74886"><ele>359.5</ele><time>2026-04-25T07:37:06.066Z</time></trkpt><trkpt lat="37.6239883" lon="-1.7489583"><ele>360.0</ele><time>2026-04-25T07:37:07.061Z</time></trkpt><trkpt lat="37.623715" lon="-1.74905"><ele>359.0</ele><time>2026-04-25T07:37:08.061Z</time></trkpt><trkpt lat="37.6234417" lon="-1.7491317"><ele>358.0</ele><time>2026-04-25T07:37:09.062Z</time></trkpt><trkpt lat="37.623165" lon="-1.7492033"><ele>358.0</ele><time>2026-04-25T07:37:10.063Z</time></trkpt><trkpt lat="37.6228883" lon="-1.7492683"><ele>358.0</ele><time>2026-04-25T07:37:11.067Z</time></trkpt><trkpt lat="37.62261" lon="-1.7493283"><ele>358.0</ele><time>2026-04-25T07:37:12.066Z</time></trkpt><trkpt lat="37.6223283" lon="-1.7493817"><ele>358.0</ele><time>2026-04-25T07:37:13.062Z</time></trkpt><trkpt lat="37.6220467" lon="-1.749435"><ele>356.5</ele><time>2026-04-25T07:37:14.068Z</time></trkpt><trkpt lat="37.6217667" lon="-1.7494883"><ele>355.0</ele><time>2026-04-25T07:37:15.067Z</time></trkpt><trkpt lat="37.6214867" lon="-1.74954"><ele>355.0</ele><time>2026-04-25T07:37:16.061Z</time></trkpt><trkpt lat="37.6212017" lon="-1.74959"><ele>355.0</ele><time>2026-04-25T07:37:17.062Z</time></trkpt><trkpt lat="37.6209183" lon="-1.749645"><ele>354.5</ele><time>2026-04-25T07:37:18.064Z</time></trkpt><trkpt lat="37.6206367" lon="-1.7497017"><ele>354.0</ele><time>2026-04-25T07:37:19.069Z</time></trkpt><trkpt lat="37.6203533" lon="-1.7497633"><ele>354.5</ele><time>2026-04-25T07:37:20.061Z</time></trkpt><trkpt lat="37.620075" lon="-1.7498333"><ele>355.0</ele><time>2026-04-25T07:37:21.064Z</time></trkpt><trkpt lat="37.6198" lon="-1.7499167"><ele>355.0</ele><time>2026-04-25T07:37:22.061Z</time></trkpt><trkpt lat="37.6195283" lon="-1.750015"><ele>355.0</ele><time>2026-04-25T07:37:23.061Z</time></trkpt><trkpt lat="37.61926" lon="-1.7501283"><ele>355.0</ele><time>2026-04-25T07:37:24.065Z</time></trkpt><trkpt lat="37.618995" lon="-1.7502567"><ele>355.0</ele><time>2026-04-25T07:37:25.061Z</time></trkpt><trkpt lat="37.6187333" lon="-1.7503967"><ele>355.5</ele><time>2026-04-25T07:37:26.059Z</time></trkpt><trkpt lat="37.618475" lon="-1.7505467"><ele>356.0</ele><time>2026-04-25T07:37:27.062Z</time></trkpt><trkpt lat="37.6182217" lon="-1.7507117"><ele>356.0</ele><time>2026-04-25T07:37:28.063Z</time></trkpt><trkpt lat="37.617975" lon="-1.750885"><ele>356.0</ele><time>2026-04-25T07:37:29.062Z</time></trkpt><trkpt lat="37.6177317" lon="-1.7510717"><ele>357.0</ele><time>2026-04-25T07:37:30.063Z</time></trkpt><trkpt lat="37.6174933" lon="-1.75127"><ele>358.0</ele><time>2026-04-25T07:37:31.064Z</time></trkpt><trkpt lat="37.6172617" lon="-1.7514817"><ele>358.0</ele><time>2026-04-25T07:37:32.062Z</time></trkpt><trkpt lat="37.6170383" lon="-1.7516983"><ele>358.0</ele><time>2026-04-25T07:37:33.063Z</time></trkpt><trkpt lat="37.6168167" lon="-1.7519217"><ele>358.5</ele><time>2026-04-25T07:37:34.062Z</time></trkpt><trkpt lat="37.6165983" lon="-1.7521433"><ele>359.0</ele><time>2026-04-25T07:37:35.063Z</time></trkpt><trkpt lat="37.6163783" lon="-1.7523683"><ele>359.0</ele><time>2026-04-25T07:37:36.062Z</time></trkpt><trkpt lat="37.6161617" lon="-1.7525933"><ele>359.0</ele><time>2026-04-25T07:37:37.061Z</time></trkpt><trkpt lat="37.6159467" lon="-1.75282"><ele>360.5</ele><time>2026-04-25T07:37:38.057Z</time></trkpt><trkpt lat="37.61573" lon="-1.7530467"><ele>362.0</ele><time>2026-04-25T07:37:39.059Z</time></trkpt><trkpt lat="37.6155133" lon="-1.7532733"><ele>363.0</ele><time>2026-04-25T07:37:40.06Z</time></trkpt><trkpt lat="37.615295" lon="-1.7535"><ele>364.0</ele><time>2026-04-25T07:37:41.062Z</time></trkpt><trkpt lat="37.6150767" lon="-1.7537267"><ele>364.0</ele><time>2026-04-25T07:37:42.062Z</time></trkpt><trkpt lat="37.6148583" lon="-1.7539533"><ele>364.0</ele><time>2026-04-25T07:37:43.06Z</time></trkpt><trkpt lat="37.61464" lon="-1.75418"><ele>365.5</ele><time>2026-04-25T07:37:44.061Z</time></trkpt><trkpt lat="37.6144233" lon="-1.7544067"><ele>367.0</ele><time>2026-04-25T07:37:45.064Z</time></trkpt><trkpt lat="37.6142033" lon="-1.7546333"><ele>367.0</ele><time>2026-04-25T07:37:46.059Z</time></trkpt><trkpt lat="37.6139817" lon="-1.7548617"><ele>367.0</ele><time>2026-04-25T07:37:47.064Z</time></trkpt><trkpt lat="37.61376" lon="-1.7550883"><ele>368.0</ele><time>2026-04-25T07:37:48.067Z</time></trkpt><trkpt lat="37.61354" lon="-1.755315"><ele>369.0</ele><time>2026-04-25T07:37:49.063Z</time></trkpt><trkpt lat="37.61332" lon="-1.7555433"><ele>369.0</ele><time>2026-04-25T07:37:50.061Z</time></trkpt><trkpt lat="37.6131" lon="-1.7557717"><ele>369.0</ele><time>2026-04-25T07:37:51.06Z</time></trkpt><trkpt lat="37.61288" lon="-1.7560017"><ele>370.0</ele><time>2026-04-25T07:37:52.06Z</time></trkpt><trkpt lat="37.6126617" lon="-1.7562317"><ele>371.0</ele><time>2026-04-25T07:37:53.061Z</time></trkpt><trkpt lat="37.6124433" lon="-1.7564617"><ele>371.0</ele><time>2026-04-25T07:37:54.062Z</time></trkpt><trkpt lat="37.612225" lon="-1.7566917"><ele>371.0</ele><time>2026-04-25T07:37:55.061Z</time></trkpt><trkpt lat="37.61201" lon="-1.7569183"><ele>372.0</ele><time>2026-04-25T07:37:56.064Z</time></trkpt><trkpt lat="37.611795" lon="-1.757145"><ele>373.0</ele><time>2026-04-25T07:37:57.064Z</time></trkpt><trkpt lat="37.6115783" lon="-1.7573717"><ele>373.0</ele><time>2026-04-25T07:37:58.061Z</time></trkpt><trkpt lat="37.6113617" lon="-1.757595"><ele>373.0</ele><time>2026-04-25T07:37:59.068Z</time></trkpt><trkpt lat="37.6111433" lon="-1.7578183"><ele>374.5</ele><time>2026-04-25T07:38:00.058Z</time></trkpt><trkpt lat="37.610925" lon="-1.75804"><ele>376.0</ele><time>2026-04-25T07:38:01.065Z</time></trkpt><trkpt lat="37.6107067" lon="-1.7582617"><ele>376.0</ele><time>2026-04-25T07:38:02.063Z</time></trkpt><trkpt lat="37.61049" lon="-1.7584817"><ele>376.0</ele><time>2026-04-25T07:38:03.072Z</time></trkpt><trkpt lat="37.6102767" lon="-1.7587017"><ele>376.5</ele><time>2026-04-25T07:38:04.059Z</time></trkpt><trkpt lat="37.6100617" lon="-1.7589217"><ele>377.0</ele><time>2026-04-25T07:38:05.062Z</time></trkpt><trkpt lat="37.6098483" lon="-1.7591417"><ele>377.0</ele><time>2026-04-25T07:38:06.065Z</time></trkpt><trkpt lat="37.6096367" lon="-1.759365"><ele>377.0</ele><time>2026-04-25T07:38:07.062Z</time></trkpt><trkpt lat="37.6094233" lon="-1.7595883"><ele>379.0</ele><time>2026-04-25T07:38:08.062Z</time></trkpt><trkpt lat="37.6092117" lon="-1.75981"><ele>381.0</ele><time>2026-04-25T07:38:09.059Z</time></trkpt><trkpt lat="37.6089983" lon="-1.7600333"><ele>381.5</ele><time>2026-04-25T07:38:10.062Z</time></trkpt><trkpt lat="37.6087833" lon="-1.7602567"><ele>382.0</ele><time>2026-04-25T07:38:11.063Z</time></trkpt><trkpt lat="37.6085667" lon="-1.76048"><ele>382.0</ele><time>2026-04-25T07:38:12.063Z</time></trkpt><trkpt lat="37.6083483" lon="-1.7607067"><ele>382.0</ele><time>2026-04-25T07:38:13.07Z</time></trkpt><trkpt lat="37.6081317" lon="-1.760935"><ele>383.0</ele><time>2026-04-25T07:38:14.063Z</time></trkpt><trkpt lat="37.6079133" lon="-1.7611633"><ele>384.0</ele><time>2026-04-25T07:38:15.061Z</time></trkpt><trkpt lat="37.607695" lon="-1.76139"><ele>381.5</ele><time>2026-04-25T07:38:16.062Z</time></trkpt><trkpt lat="37.6074783" lon="-1.7616183"><ele>379.0</ele><time>2026-04-25T07:38:17.062Z</time></trkpt><trkpt lat="37.60726" lon="-1.7618483"><ele>380.5</ele><time>2026-04-25T07:38:18.063Z</time></trkpt><trkpt lat="37.60704" lon="-1.7620767"><ele>382.0</ele><time>2026-04-25T07:38:19.059Z</time></trkpt><trkpt lat="37.60682" lon="-1.7623033"><ele>382.0</ele><time>2026-04-25T07:38:20.059Z</time></trkpt><trkpt lat="37.6066017" lon="-1.7625333"><ele>382.0</ele><time>2026-04-25T07:38:21.065Z</time></trkpt><trkpt lat="37.6063833" lon="-1.7627667"><ele>382.0</ele><time>2026-04-25T07:38:22.069Z</time></trkpt><trkpt lat="37.6061667" lon="-1.7630033"><ele>382.0</ele><time>2026-04-25T07:38:23.064Z</time></trkpt><trkpt lat="37.6059483" lon="-1.7632417"><ele>380.5</ele><time>2026-04-25T07:38:24.06Z</time></trkpt><trkpt lat="37.6057283" lon="-1.7634833"><ele>379.0</ele><time>2026-04-25T07:38:25.062Z</time></trkpt><trkpt lat="37.6055033" lon="-1.763725"><ele>378.0</ele><time>2026-04-25T07:38:26.06Z</time></trkpt><trkpt lat="37.605275" lon="-1.7639633"><ele>377.0</ele><time>2026-04-25T07:38:27.063Z</time></trkpt><trkpt lat="37.6050433" lon="-1.7642033"><ele>376.5</ele><time>2026-04-25T07:38:28.06Z</time></trkpt><trkpt lat="37.6048133" lon="-1.7644417"><ele>376.0</ele><time>2026-04-25T07:38:29.061Z</time></trkpt><trkpt lat="37.6045833" lon="-1.7646817"><ele>378.0</ele><time>2026-04-25T07:38:30.066Z</time></trkpt><trkpt lat="37.6043567" lon="-1.7649217"><ele>380.0</ele><time>2026-04-25T07:38:31.059Z</time></trkpt><trkpt lat="37.60413" lon="-1.76516"><ele>379.0</ele><time>2026-04-25T07:38:32.066Z</time></trkpt><trkpt lat="37.603905" lon="-1.7653983"><ele>378.0</ele><time>2026-04-25T07:38:33.062Z</time></trkpt><trkpt lat="37.6036767" lon="-1.765635"><ele>379.5</ele><time>2026-04-25T07:38:34.061Z</time></trkpt><trkpt lat="37.6034483" lon="-1.7658733"><ele>381.0</ele><time>2026-04-25T07:38:35.061Z</time></trkpt><trkpt lat="37.603225" lon="-1.7661167"><ele>381.5</ele><time>2026-04-25T07:38:36.064Z</time></trkpt><trkpt lat="37.603" lon="-1.7663633"><ele>382.0</ele><time>2026-04-25T07:38:37.061Z</time></trkpt><trkpt lat="37.6027717" lon="-1.7666083"><ele>382.5</ele><time>2026-04-25T07:38:38.062Z</time></trkpt><trkpt lat="37.60254" lon="-1.7668467"><ele>383.0</ele><time>2026-04-25T07:38:39.062Z</time></trkpt><trkpt lat="37.6023067" lon="-1.7670867"><ele>383.0</ele><time>2026-04-25T07:38:40.068Z</time></trkpt><trkpt lat="37.6020733" lon="-1.7673267"><ele>383.0</ele><time>2026-04-25T07:38:41.06Z</time></trkpt><trkpt lat="37.6018417" lon="-1.7675683"><ele>384.0</ele><time>2026-04-25T07:38:42.062Z</time></trkpt><trkpt lat="37.6016083" lon="-1.76781"><ele>385.0</ele><time>2026-04-25T07:38:43.059Z</time></trkpt><trkpt lat="37.601375" lon="-1.76805"><ele>384.5</ele><time>2026-04-25T07:38:44.061Z</time></trkpt><trkpt lat="37.60114" lon="-1.7682883"><ele>384.0</ele><time>2026-04-25T07:38:45.064Z</time></trkpt><trkpt lat="37.600905" lon="-1.76853"><ele>384.0</ele><time>2026-04-25T07:38:46.061Z</time></trkpt><trkpt lat="37.60067" lon="-1.7687683"><ele>384.0</ele><time>2026-04-25T07:38:47.06Z</time></trkpt><trkpt lat="37.6004367" lon="-1.7690083"><ele>384.5</ele><time>2026-04-25T07:38:48.072Z</time></trkpt><trkpt lat="37.6002017" lon="-1.7692483"><ele>385.0</ele><time>2026-04-25T07:38:49.068Z</time></trkpt><trkpt lat="37.5999683" lon="-1.7694883"><ele>385.5</ele><time>2026-04-25T07:38:50.06Z</time></trkpt><trkpt lat="37.5997367" lon="-1.7697283"><ele>386.0</ele><time>2026-04-25T07:38:51.064Z</time></trkpt><trkpt lat="37.599505" lon="-1.7699667"><ele>386.5</ele><time>2026-04-25T07:38:52.063Z</time></trkpt><trkpt lat="37.5992767" lon="-1.7701983"><ele>387.0</ele><time>2026-04-25T07:38:53.063Z</time></trkpt><trkpt lat="37.5990517" lon="-1.7704267"><ele>387.0</ele><time>2026-04-25T07:38:54.06Z</time></trkpt><trkpt lat="37.5988317" lon="-1.7706533"><ele>387.0</ele><time>2026-04-25T07:38:55.06Z</time></trkpt><trkpt lat="37.5986117" lon="-1.77088"><ele>388.5</ele><time>2026-04-25T07:38:56.065Z</time></trkpt><trkpt lat="37.5983933" lon="-1.7711067"><ele>390.0</ele><time>2026-04-25T07:38:57.062Z</time></trkpt><trkpt lat="37.5981767" lon="-1.7713317"><ele>390.0</ele><time>2026-04-25T07:38:58.064Z</time></trkpt><trkpt lat="37.5979617" lon="-1.7715567"><ele>390.0</ele><time>2026-04-25T07:38:59.059Z</time></trkpt><trkpt lat="37.5977467" lon="-1.771785"><ele>389.5</ele><time>2026-04-25T07:39:00.063Z</time></trkpt><trkpt lat="37.5975317" lon="-1.7720133"><ele>389.0</ele><time>2026-04-25T07:39:01.065Z</time></trkpt><trkpt lat="37.597315" lon="-1.7722433"><ele>389.0</ele><time>2026-04-25T07:39:02.067Z</time></trkpt><trkpt lat="37.5970967" lon="-1.7724683"><ele>389.0</ele><time>2026-04-25T07:39:03.061Z</time></trkpt><trkpt lat="37.5968783" lon="-1.7726917"><ele>389.0</ele><time>2026-04-25T07:39:04.059Z</time></trkpt><trkpt lat="37.5966617" lon="-1.77291"><ele>389.0</ele><time>2026-04-25T07:39:05.065Z</time></trkpt><trkpt lat="37.5964483" lon="-1.7731267"><ele>389.0</ele><time>2026-04-25T07:39:06.064Z</time></trkpt><trkpt lat="37.596235" lon="-1.7733433"><ele>389.0</ele><time>2026-04-25T07:39:07.058Z</time></trkpt><trkpt lat="37.5960233" lon="-1.7735633"><ele>389.5</ele><time>2026-04-25T07:39:08.063Z</time></trkpt><trkpt lat="37.5958133" lon="-1.7737867"><ele>390.0</ele><time>2026-04-25T07:39:09.061Z</time></trkpt><trkpt lat="37.5956067" lon="-1.7740117"><ele>390.0</ele><time>2026-04-25T07:39:10.059Z</time></trkpt><trkpt lat="37.5954" lon="-1.774235"><ele>390.0</ele><time>2026-04-25T07:39:11.062Z</time></trkpt><trkpt lat="37.5951917" lon="-1.7744567"><ele>389.5</ele><time>2026-04-25T07:39:12.068Z</time></trkpt><trkpt lat="37.594985" lon="-1.7746767"><ele>389.0</ele><time>2026-04-25T07:39:13.065Z</time></trkpt><trkpt lat="37.5947783" lon="-1.774895"><ele>389.0</ele><time>2026-04-25T07:39:14.062Z</time></trkpt><trkpt lat="37.59457" lon="-1.77511"><ele>389.0</ele><time>2026-04-25T07:39:15.064Z</time></trkpt><trkpt lat="37.59436" lon="-1.7753233"><ele>390.0</ele><time>2026-04-25T07:39:16.057Z</time></trkpt><trkpt lat="37.59415" lon="-1.7755383"><ele>391.0</ele><time>2026-04-25T07:39:17.06Z</time></trkpt><trkpt lat="37.5939417" lon="-1.7757517"><ele>391.0</ele><time>2026-04-25T07:39:18.062Z</time></trkpt><trkpt lat="37.59373" lon="-1.775965"><ele>391.0</ele><time>2026-04-25T07:39:19.061Z</time></trkpt><trkpt lat="37.5935217" lon="-1.77618"><ele>392.0</ele><time>2026-04-25T07:39:20.066Z</time></trkpt><trkpt lat="37.5933133" lon="-1.776395"><ele>393.0</ele><time>2026-04-25T07:39:21.063Z</time></trkpt><trkpt lat="37.5931033" lon="-1.77661"><ele>393.0</ele><time>2026-04-25T07:39:22.062Z</time></trkpt><trkpt lat="37.592895" lon="-1.776825"><ele>393.0</ele><time>2026-04-25T07:39:23.063Z</time></trkpt><trkpt lat="37.592685" lon="-1.7770433"><ele>395.0</ele><time>2026-04-25T07:39:24.064Z</time></trkpt><trkpt lat="37.5924733" lon="-1.7772617"><ele>397.0</ele><time>2026-04-25T07:39:25.064Z</time></trkpt><trkpt lat="37.5922617" lon="-1.7774817"><ele>397.0</ele><time>2026-04-25T07:39:26.064Z</time></trkpt><trkpt lat="37.5920483" lon="-1.7777017"><ele>397.0</ele><time>2026-04-25T07:39:27.065Z</time></trkpt><trkpt lat="37.5918333" lon="-1.777925"><ele>397.0</ele><time>2026-04-25T07:39:28.06Z</time></trkpt><trkpt lat="37.5916183" lon="-1.7781483"><ele>397.0</ele><time>2026-04-25T07:39:29.061Z</time></trkpt><trkpt lat="37.5914017" lon="-1.7783717"><ele>396.5</ele><time>2026-04-25T07:39:30.062Z</time></trkpt><trkpt lat="37.5911817" lon="-1.7785933"><ele>396.0</ele><time>2026-04-25T07:39:31.07Z</time></trkpt><trkpt lat="37.5909617" lon="-1.7788183"><ele>396.0</ele><time>2026-04-25T07:39:32.066Z</time></trkpt><trkpt lat="37.5907417" lon="-1.7790467"><ele>396.0</ele><time>2026-04-25T07:39:33.064Z</time></trkpt><trkpt lat="37.5905217" lon="-1.7792767"><ele>396.0</ele><time>2026-04-25T07:39:34.06Z</time></trkpt><trkpt lat="37.5903017" lon="-1.779505"><ele>396.0</ele><time>2026-04-25T07:39:35.06Z</time></trkpt><trkpt lat="37.590085" lon="-1.7797333"><ele>396.0</ele><time>2026-04-25T07:39:36.064Z</time></trkpt><trkpt lat="37.5898683" lon="-1.7799633"><ele>396.0</ele><time>2026-04-25T07:39:37.057Z</time></trkpt><trkpt lat="37.58965" lon="-1.78019"><ele>397.0</ele><time>2026-04-25T07:39:38.063Z</time></trkpt><trkpt lat="37.5894317" lon="-1.7804167"><ele>398.0</ele><time>2026-04-25T07:39:39.063Z</time></trkpt><trkpt lat="37.5892133" lon="-1.7806433"><ele>398.0</ele><time>2026-04-25T07:39:40.061Z</time></trkpt><trkpt lat="37.5889917" lon="-1.7808717"><ele>398.0</ele><time>2026-04-25T07:39:41.065Z</time></trkpt><trkpt lat="37.5887733" lon="-1.7810983"><ele>397.5</ele><time>2026-04-25T07:39:42.063Z</time></trkpt><trkpt lat="37.5885533" lon="-1.781325"><ele>397.0</ele><time>2026-04-25T07:39:43.063Z</time></trkpt><trkpt lat="37.588335" lon="-1.7815533"><ele>397.0</ele><time>2026-04-25T07:39:44.061Z</time></trkpt><trkpt lat="37.5881183" lon="-1.7817817"><ele>397.0</ele><time>2026-04-25T07:39:45.059Z</time></trkpt><trkpt lat="37.5879017" lon="-1.78201"><ele>398.5</ele><time>2026-04-25T07:39:46.063Z</time></trkpt><trkpt lat="37.587685" lon="-1.7822367"><ele>400.0</ele><time>2026-04-25T07:39:47.06Z</time></trkpt><trkpt lat="37.5874683" lon="-1.7824633"><ele>400.5</ele><time>2026-04-25T07:39:48.067Z</time></trkpt><trkpt lat="37.5872533" lon="-1.7826883"><ele>401.0</ele><time>2026-04-25T07:39:49.061Z</time></trkpt><trkpt lat="37.5870367" lon="-1.7829133"><ele>400.5</ele><time>2026-04-25T07:39:50.064Z</time></trkpt><trkpt lat="37.586825" lon="-1.783135"><ele>400.0</ele><time>2026-04-25T07:39:51.064Z</time></trkpt><trkpt lat="37.5866133" lon="-1.7833567"><ele>402.5</ele><time>2026-04-25T07:39:52.06Z</time></trkpt><trkpt lat="37.586405" lon="-1.7835833"><ele>405.0</ele><time>2026-04-25T07:39:53.06Z</time></trkpt><trkpt lat="37.5862033" lon="-1.7838167"><ele>404.0</ele><time>2026-04-25T07:39:54.059Z</time></trkpt><trkpt lat="37.5860133" lon="-1.7840617"><ele>403.0</ele><time>2026-04-25T07:39:55.061Z</time></trkpt><trkpt lat="37.5858367" lon="-1.7843183"><ele>403.5</ele><time>2026-04-25T07:39:56.061Z</time></trkpt><trkpt lat="37.5856733" lon="-1.7845867"><ele>404.0</ele><time>2026-04-25T07:39:57.065Z</time></trkpt><trkpt lat="37.5855233" lon="-1.784865"><ele>404.0</ele><time>2026-04-25T07:39:58.063Z</time></trkpt><trkpt lat="37.5853833" lon="-1.7851483"><ele>404.0</ele><time>2026-04-25T07:39:59.067Z</time></trkpt><trkpt lat="37.585255" lon="-1.7854367"><ele>405.5</ele><time>2026-04-25T07:40:00.057Z</time></trkpt><trkpt lat="37.5851383" lon="-1.78573"><ele>407.0</ele><time>2026-04-25T07:40:01.061Z</time></trkpt><trkpt lat="37.5850317" lon="-1.7860217"><ele>409.0</ele><time>2026-04-25T07:40:02.061Z</time></trkpt><trkpt lat="37.5849267" lon="-1.786315"><ele>411.0</ele><time>2026-04-25T07:40:03.061Z</time></trkpt><trkpt lat="37.5848233" lon="-1.786605"><ele>413.5</ele><time>2026-04-25T07:40:04.064Z</time></trkpt><trkpt lat="37.5847133" lon="-1.78689"><ele>416.0</ele><time>2026-04-25T07:40:05.062Z</time></trkpt><trkpt lat="37.5846" lon="-1.78717"><ele>416.5</ele><time>2026-04-25T07:40:06.068Z</time></trkpt><trkpt lat="37.584475" lon="-1.7874433"><ele>417.0</ele><time>2026-04-25T07:40:07.061Z</time></trkpt><trkpt lat="37.58434" lon="-1.7877083"><ele>417.0</ele><time>2026-04-25T07:40:08.06Z</time></trkpt><trkpt lat="37.5841983" lon="-1.7879667"><ele>417.0</ele><time>2026-04-25T07:40:09.058Z</time></trkpt><trkpt lat="37.5840467" lon="-1.788215"><ele>417.0</ele><time>2026-04-25T07:40:10.058Z</time></trkpt><trkpt lat="37.583885" lon="-1.7884567"><ele>417.0</ele><time>2026-04-25T07:40:11.059Z</time></trkpt><trkpt lat="37.583715" lon="-1.7886883"><ele>418.5</ele><time>2026-04-25T07:40:12.061Z</time></trkpt><trkpt lat="37.5835383" lon="-1.7889083"><ele>420.0</ele><time>2026-04-25T07:40:13.06Z</time></trkpt><trkpt lat="37.5833583" lon="-1.7891183"><ele>420.0</ele><time>2026-04-25T07:40:14.063Z</time></trkpt><trkpt lat="37.58317" lon="-1.7893183"><ele>420.0</ele><time>2026-04-25T07:40:15.063Z</time></trkpt><trkpt lat="37.5829767" lon="-1.7895117"><ele>421.5</ele><time>2026-04-25T07:40:16.064Z</time></trkpt><trkpt lat="37.5827783" lon="-1.7897033"><ele>423.0</ele><time>2026-04-25T07:40:17.066Z</time></trkpt><trkpt lat="37.5825767" lon="-1.7898967"><ele>423.0</ele><time>2026-04-25T07:40:18.06Z</time></trkpt><trkpt lat="37.5823717" lon="-1.7900967"><ele>423.0</ele><time>2026-04-25T07:40:19.062Z</time></trkpt><trkpt lat="37.5821683" lon="-1.7903"><ele>423.0</ele><time>2026-04-25T07:40:20.067Z</time></trkpt><trkpt lat="37.581965" lon="-1.790505"><ele>423.0</ele><time>2026-04-25T07:40:21.064Z</time></trkpt><trkpt lat="37.5817583" lon="-1.7907067"><ele>423.0</ele><time>2026-04-25T07:40:22.061Z</time></trkpt><trkpt lat="37.5815533" lon="-1.7909067"><ele>423.0</ele><time>2026-04-25T07:40:23.064Z</time></trkpt><trkpt lat="37.5813483" lon="-1.7911067"><ele>423.5</ele><time>2026-04-25T07:40:24.062Z</time></trkpt><trkpt lat="37.581145" lon="-1.791305"><ele>424.0</ele><time>2026-04-25T07:40:25.062Z</time></trkpt><trkpt lat="37.58094" lon="-1.79151"><ele>424.0</ele><time>2026-04-25T07:40:26.06Z</time></trkpt><trkpt lat="37.580735" lon="-1.7917233"><ele>424.0</ele><time>2026-04-25T07:40:27.064Z</time></trkpt><trkpt lat="37.5805333" lon="-1.7919367"><ele>425.5</ele><time>2026-04-25T07:40:28.062Z</time></trkpt><trkpt lat="37.58033" lon="-1.7921517"><ele>427.0</ele><time>2026-04-25T07:40:29.063Z</time></trkpt><trkpt lat="37.58013" lon="-1.7923717"><ele>427.0</ele><time>2026-04-25T07:40:30.059Z</time></trkpt><trkpt lat="37.5799333" lon="-1.7925967"><ele>427.0</ele><time>2026-04-25T07:40:31.064Z</time></trkpt><trkpt lat="37.579745" lon="-1.7928317"><ele>428.0</ele><time>2026-04-25T07:40:32.069Z</time></trkpt><trkpt lat="37.5795633" lon="-1.793075"><ele>429.0</ele><time>2026-04-25T07:40:33.062Z</time></trkpt><trkpt lat="37.57939" lon="-1.7933267"><ele>431.5</ele><time>2026-04-25T07:40:34.058Z</time></trkpt><trkpt lat="37.5792233" lon="-1.793585"><ele>434.0</ele><time>2026-04-25T07:40:35.06Z</time></trkpt><trkpt lat="37.5790617" lon="-1.7938483"><ele>434.0</ele><time>2026-04-25T07:40:36.057Z</time></trkpt><trkpt lat="37.5789067" lon="-1.794115"><ele>434.0</ele><time>2026-04-25T07:40:37.058Z</time></trkpt><trkpt lat="37.5787533" lon="-1.7943817"><ele>434.0</ele><time>2026-04-25T07:40:38.065Z</time></trkpt><trkpt lat="37.578605" lon="-1.7946517"><ele>434.0</ele><time>2026-04-25T07:40:39.063Z</time></trkpt><trkpt lat="37.578455" lon="-1.7949217"><ele>436.0</ele><time>2026-04-25T07:40:40.061Z</time></trkpt><trkpt lat="37.578305" lon="-1.79519"><ele>438.0</ele><time>2026-04-25T07:40:41.061Z</time></trkpt><trkpt lat="37.5781533" lon="-1.7954567"><ele>438.0</ele><time>2026-04-25T07:40:42.061Z</time></trkpt><trkpt lat="37.578" lon="-1.7957233"><ele>438.0</ele><time>2026-04-25T07:40:43.061Z</time></trkpt><trkpt lat="37.57784" lon="-1.7959817"><ele>438.5</ele><time>2026-04-25T07:40:44.061Z</time></trkpt><trkpt lat="37.5776733" lon="-1.7962333"><ele>439.0</ele><time>2026-04-25T07:40:45.061Z</time></trkpt><trkpt lat="37.5774983" lon="-1.7964783"><ele>439.0</ele><time>2026-04-25T07:40:46.06Z</time></trkpt><trkpt lat="37.5773167" lon="-1.7967183"><ele>439.0</ele><time>2026-04-25T07:40:47.069Z</time></trkpt><trkpt lat="37.5771317" lon="-1.796955"><ele>440.5</ele><time>2026-04-25T07:40:48.062Z</time></trkpt><trkpt lat="37.57694" lon="-1.7971833"><ele>442.0</ele><time>2026-04-25T07:40:49.064Z</time></trkpt><trkpt lat="37.5767433" lon="-1.7974083"><ele>442.0</ele><time>2026-04-25T07:40:50.059Z</time></trkpt><trkpt lat="37.5765433" lon="-1.797625"><ele>442.0</ele><time>2026-04-25T07:40:51.062Z</time></trkpt><trkpt lat="37.5763383" lon="-1.79784"><ele>442.5</ele><time>2026-04-25T07:40:52.059Z</time></trkpt><trkpt lat="37.57613" lon="-1.79805"><ele>443.0</ele><time>2026-04-25T07:40:53.061Z</time></trkpt><trkpt lat="37.57592" lon="-1.7982617"><ele>443.0</ele><time>2026-04-25T07:40:54.06Z</time></trkpt><trkpt lat="37.57571" lon="-1.7984733"><ele>443.0</ele><time>2026-04-25T07:40:55.068Z</time></trkpt><trkpt lat="37.5755017" lon="-1.79869"><ele>445.0</ele><time>2026-04-25T07:40:56.062Z</time></trkpt><trkpt lat="37.575295" lon="-1.7989133"><ele>447.0</ele><time>2026-04-25T07:40:57.067Z</time></trkpt><trkpt lat="37.5750967" lon="-1.7991433"><ele>448.0</ele><time>2026-04-25T07:40:58.063Z</time></trkpt><trkpt lat="37.5749017" lon="-1.7993817"><ele>449.0</ele><time>2026-04-25T07:40:59.067Z</time></trkpt><trkpt lat="37.5747167" lon="-1.7996283"><ele>449.0</ele><time>2026-04-25T07:41:00.061Z</time></trkpt><trkpt lat="37.5745383" lon="-1.7998817"><ele>449.0</ele><time>2026-04-25T07:41:01.062Z</time></trkpt><trkpt lat="37.5743617" lon="-1.8001417"><ele>451.5</ele><time>2026-04-25T07:41:02.065Z</time></trkpt><trkpt lat="37.5741917" lon="-1.8004067"><ele>454.0</ele><time>2026-04-25T07:41:03.065Z</time></trkpt><trkpt lat="37.57403" lon="-1.80068"><ele>454.0</ele><time>2026-04-25T07:41:04.059Z</time></trkpt><trkpt lat="37.5738717" lon="-1.8009583"><ele>454.0</ele><time>2026-04-25T07:41:05.068Z</time></trkpt><trkpt lat="37.57372" lon="-1.8012417"><ele>456.5</ele><time>2026-04-25T07:41:06.065Z</time></trkpt><trkpt lat="37.57358" lon="-1.80153"><ele>459.0</ele><time>2026-04-25T07:41:07.064Z</time></trkpt><trkpt lat="37.573445" lon="-1.8018217"><ele>459.5</ele><time>2026-04-25T07:41:08.064Z</time></trkpt><trkpt lat="37.5733183" lon="-1.802115"><ele>460.0</ele><time>2026-04-25T07:41:09.064Z</time></trkpt><trkpt lat="37.5731967" lon="-1.802415"><ele>464.0</ele><time>2026-04-25T07:41:10.06Z</time></trkpt><trkpt lat="37.5730817" lon="-1.8027167"><ele>468.0</ele><time>2026-04-25T07:41:11.062Z</time></trkpt><trkpt lat="37.57297" lon="-1.80302"><ele>467.5</ele><time>2026-04-25T07:41:12.061Z</time></trkpt><trkpt lat="37.572855" lon="-1.803325"><ele>467.0</ele><time>2026-04-25T07:41:13.062Z</time></trkpt><trkpt lat="37.572735" lon="-1.8036283"><ele>468.0</ele><time>2026-04-25T07:41:14.064Z</time></trkpt><trkpt lat="37.57261" lon="-1.8039233"><ele>469.0</ele><time>2026-04-25T07:41:15.061Z</time></trkpt><trkpt lat="37.5724783" lon="-1.8042117"><ele>471.0</ele><time>2026-04-25T07:41:16.063Z</time></trkpt><trkpt lat="37.5723433" lon="-1.8044933"><ele>473.0</ele><time>2026-04-25T07:41:17.061Z</time></trkpt><trkpt lat="37.5721983" lon="-1.8047667"><ele>473.0</ele><time>2026-04-25T07:41:18.062Z</time></trkpt><trkpt lat="37.5720417" lon="-1.8050333"><ele>473.0</ele><time>2026-04-25T07:41:19.061Z</time></trkpt><trkpt lat="37.5718783" lon="-1.805295"><ele>479.5</ele><time>2026-04-25T07:41:20.063Z</time></trkpt><trkpt lat="37.5717083" lon="-1.8055467"><ele>486.0</ele><time>2026-04-25T07:41:21.062Z</time></trkpt><trkpt lat="37.5715317" lon="-1.8057933"><ele>485.5</ele><time>2026-04-25T07:41:22.062Z</time></trkpt><trkpt lat="37.5713483" lon="-1.8060317"><ele>485.0</ele><time>2026-04-25T07:41:23.063Z</time></trkpt><trkpt lat="37.57116" lon="-1.806265"><ele>485.0</ele><time>2026-04-25T07:41:24.064Z</time></trkpt><trkpt lat="37.5709683" lon="-1.80649"><ele>485.0</ele><time>2026-04-25T07:41:25.062Z</time></trkpt><trkpt lat="37.5707717" lon="-1.8067067"><ele>490.5</ele><time>2026-04-25T07:41:26.064Z</time></trkpt><trkpt lat="37.5705717" lon="-1.8069133"><ele>496.0</ele><time>2026-04-25T07:41:27.057Z</time></trkpt><trkpt lat="37.5703733" lon="-1.8071183"><ele>495.0</ele><time>2026-04-25T07:41:28.062Z</time></trkpt><trkpt lat="37.5701817" lon="-1.8073233"><ele>494.0</ele><time>2026-04-25T07:41:29.06Z</time></trkpt><trkpt lat="37.5699983" lon="-1.80753"><ele>503.0</ele><time>2026-04-25T07:41:30.066Z</time></trkpt><trkpt lat="37.56983" lon="-1.8077333"><ele>512.0</ele><time>2026-04-25T07:41:31.058Z</time></trkpt><trkpt lat="37.5696733" lon="-1.8079317"><ele>512.0</ele><time>2026-04-25T07:41:32.064Z</time></trkpt><trkpt lat="37.56953" lon="-1.8081283"><ele>512.0</ele><time>2026-04-25T07:41:33.062Z</time></trkpt><trkpt lat="37.56939" lon="-1.8083267"><ele>512.0</ele><time>2026-04-25T07:41:34.06Z</time></trkpt><trkpt lat="37.5692567" lon="-1.8085283"><ele>511.3333333333333</ele><time>2026-04-25T07:41:35.061Z</time></trkpt><trkpt lat="37.5691333" lon="-1.8087333"><ele>510.66666666666663</ele><time>2026-04-25T07:41:36.069Z</time></trkpt><trkpt lat="37.5690067" lon="-1.80895"><ele>510.0</ele><time>2026-04-25T07:41:37.061Z</time></trkpt><trkpt lat="37.5688733" lon="-1.80918"><ele>509.5</ele><time>2026-04-25T07:41:38.063Z</time></trkpt><trkpt lat="37.5687417" lon="-1.8094167"><ele>509.0</ele><time>2026-04-25T07:41:39.061Z</time></trkpt><trkpt lat="37.5686133" lon="-1.809665"><ele>509.0</ele><time>2026-04-25T07:41:40.067Z</time></trkpt><trkpt lat="37.5684933" lon="-1.8099333"><ele>509.0</ele><time>2026-04-25T07:41:41.06Z</time></trkpt><trkpt lat="37.568375" lon="-1.8102133"><ele>513.0</ele><time>2026-04-25T07:41:42.06Z</time></trkpt><trkpt lat="37.568265" lon="-1.810505"><ele>517.0</ele><time>2026-04-25T07:41:43.06Z</time></trkpt><trkpt lat="37.5681717" lon="-1.8108067"><ele>513.5</ele><time>2026-04-25T07:41:44.059Z</time></trkpt><trkpt lat="37.5680867" lon="-1.8111117"><ele>510.0</ele><time>2026-04-25T07:41:45.06Z</time></trkpt><trkpt lat="37.56801" lon="-1.8114167"><ele>510.0</ele><time>2026-04-25T07:41:46.063Z</time></trkpt><trkpt lat="37.567945" lon="-1.8117267"><ele>510.0</ele><time>2026-04-25T07:41:47.066Z</time></trkpt><trkpt lat="37.5678883" lon="-1.8120317"><ele>507.0</ele><time>2026-04-25T07:41:48.061Z</time></trkpt><trkpt lat="37.5678367" lon="-1.8123383"><ele>504.0</ele><time>2026-04-25T07:41:49.058Z</time></trkpt><trkpt lat="37.5677917" lon="-1.8126467"><ele>505.5</ele><time>2026-04-25T07:41:50.063Z</time></trkpt><trkpt lat="37.5677567" lon="-1.812955"><ele>507.0</ele><time>2026-04-25T07:41:51.064Z</time></trkpt><trkpt lat="37.5677317" lon="-1.81326"><ele>509.0</ele><time>2026-04-25T07:41:52.062Z</time></trkpt><trkpt lat="37.567715" lon="-1.813565"><ele>511.0</ele><time>2026-04-25T07:41:53.063Z</time></trkpt><trkpt lat="37.567705" lon="-1.8138767"><ele>511.0</ele><time>2026-04-25T07:41:54.063Z</time></trkpt><trkpt lat="37.5677033" lon="-1.8141817"><ele>511.0</ele><time>2026-04-25T07:41:55.061Z</time></trkpt><trkpt lat="37.567705" lon="-1.8144833"><ele>511.5</ele><time>2026-04-25T07:41:56.065Z</time></trkpt><trkpt lat="37.5677083" lon="-1.8147833"><ele>512.0</ele><time>2026-04-25T07:41:57.071Z</time></trkpt><trkpt lat="37.5677167" lon="-1.8150817"><ele>511.0</ele><time>2026-04-25T07:41:58.064Z</time></trkpt><trkpt lat="37.567725" lon="-1.8153767"><ele>510.0</ele><time>2026-04-25T07:41:59.064Z</time></trkpt><trkpt lat="37.567735" lon="-1.8156733"><ele>510.0</ele><time>2026-04-25T07:42:00.061Z</time></trkpt><trkpt lat="37.56774" lon="-1.81597"><ele>510.0</ele><time>2026-04-25T07:42:01.063Z</time></trkpt><trkpt lat="37.5677417" lon="-1.816265"><ele>508.0</ele><time>2026-04-25T07:42:02.062Z</time></trkpt><trkpt lat="37.5677383" lon="-1.81656"><ele>506.0</ele><time>2026-04-25T07:42:03.062Z</time></trkpt><trkpt lat="37.5677417" lon="-1.8168567"><ele>505.0</ele><time>2026-04-25T07:42:04.061Z</time></trkpt><trkpt lat="37.56775" lon="-1.81715"><ele>504.0</ele><time>2026-04-25T07:42:05.063Z</time></trkpt><trkpt lat="37.5677667" lon="-1.8174383"><ele>501.5</ele><time>2026-04-25T07:42:06.065Z</time></trkpt><trkpt lat="37.5677967" lon="-1.8177267"><ele>499.0</ele><time>2026-04-25T07:42:07.063Z</time></trkpt><trkpt lat="37.56784" lon="-1.8180167"><ele>501.5</ele><time>2026-04-25T07:42:08.061Z</time></trkpt><trkpt lat="37.567895" lon="-1.8183117"><ele>504.0</ele><time>2026-04-25T07:42:09.063Z</time></trkpt><trkpt lat="37.5679633" lon="-1.818605"><ele>504.0</ele><time>2026-04-25T07:42:10.061Z</time></trkpt><trkpt lat="37.5680433" lon="-1.8188967"><ele>504.0</ele><time>2026-04-25T07:42:11.062Z</time></trkpt><trkpt lat="37.5681333" lon="-1.81918"><ele>500.5</ele><time>2026-04-25T07:42:12.061Z</time></trkpt><trkpt lat="37.5682367" lon="-1.8194583"><ele>497.0</ele><time>2026-04-25T07:42:13.061Z</time></trkpt><trkpt lat="37.5683517" lon="-1.8197317"><ele>497.0</ele><time>2026-04-25T07:42:14.062Z</time></trkpt><trkpt lat="37.56848" lon="-1.8199967"><ele>497.0</ele><time>2026-04-25T07:42:15.071Z</time></trkpt><trkpt lat="37.5686183" lon="-1.8202517"><ele>499.0</ele><time>2026-04-25T07:42:16.06Z</time></trkpt><trkpt lat="37.5687667" lon="-1.8204917"><ele>501.0</ele><time>2026-04-25T07:42:17.068Z</time></trkpt><trkpt lat="37.5689267" lon="-1.82072"><ele>501.0</ele><time>2026-04-25T07:42:18.06Z</time></trkpt><trkpt lat="37.569095" lon="-1.8209367"><ele>501.0</ele><time>2026-04-25T07:42:19.06Z</time></trkpt><trkpt lat="37.5692683" lon="-1.8211433"><ele>501.0</ele><time>2026-04-25T07:42:20.059Z</time></trkpt><trkpt lat="37.56945" lon="-1.8213383"><ele>501.0</ele><time>2026-04-25T07:42:21.061Z</time></trkpt><trkpt lat="37.5696417" lon="-1.8215217"><ele>501.0</ele><time>2026-04-25T07:42:22.06Z</time></trkpt><trkpt lat="37.5698417" lon="-1.8216983"><ele>501.0</ele><time>2026-04-25T07:42:23.064Z</time></trkpt><trkpt lat="37.57005" lon="-1.8218667"><ele>504.0</ele><time>2026-04-25T07:42:24.063Z</time></trkpt><trkpt lat="37.5702633" lon="-1.82203"><ele>507.0</ele><time>2026-04-25T07:42:25.062Z</time></trkpt><trkpt lat="37.5704817" lon="-1.8221867"><ele>507.0</ele><time>2026-04-25T07:42:26.065Z</time></trkpt><trkpt lat="37.570705" lon="-1.82234"><ele>507.0</ele><time>2026-04-25T07:42:27.058Z</time></trkpt><trkpt lat="37.5709333" lon="-1.822485"><ele>507.0</ele><time>2026-04-25T07:42:28.059Z</time></trkpt><trkpt lat="37.5711667" lon="-1.82262"><ele>507.0</ele><time>2026-04-25T07:42:29.06Z</time></trkpt><trkpt lat="37.571405" lon="-1.822745"><ele>509.0</ele><time>2026-04-25T07:42:30.06Z</time></trkpt><trkpt lat="37.5716483" lon="-1.8228667"><ele>511.0</ele><time>2026-04-25T07:42:31.061Z</time></trkpt><trkpt lat="37.5718917" lon="-1.822985"><ele>514.0</ele><time>2026-04-25T07:42:32.064Z</time></trkpt><trkpt lat="37.5721383" lon="-1.8231033"><ele>517.0</ele><time>2026-04-25T07:42:33.059Z</time></trkpt><trkpt lat="37.572385" lon="-1.8232233"><ele>517.0</ele><time>2026-04-25T07:42:34.061Z</time></trkpt><trkpt lat="37.5726283" lon="-1.8233517"><ele>517.0</ele><time>2026-04-25T07:42:35.063Z</time></trkpt><trkpt lat="37.5728733" lon="-1.8234883"><ele>522.5</ele><time>2026-04-25T07:42:36.06Z</time></trkpt><trkpt lat="37.5731133" lon="-1.8236317"><ele>528.0</ele><time>2026-04-25T07:42:37.063Z</time></trkpt><trkpt lat="37.5733517" lon="-1.8237833"><ele>528.0</ele><time>2026-04-25T07:42:38.061Z</time></trkpt><trkpt lat="37.5735833" lon="-1.8239433"><ele>528.0</ele><time>2026-04-25T07:42:39.062Z</time></trkpt><trkpt lat="37.57381" lon="-1.8241167"><ele>530.5</ele><time>2026-04-25T07:42:40.061Z</time></trkpt><trkpt lat="37.5740333" lon="-1.8242983"><ele>533.0</ele><time>2026-04-25T07:42:41.062Z</time></trkpt><trkpt lat="37.574255" lon="-1.8244917"><ele>533.0</ele><time>2026-04-25T07:42:42.069Z</time></trkpt><trkpt lat="37.5744683" lon="-1.824695"><ele>533.0</ele><time>2026-04-25T07:42:43.063Z</time></trkpt><trkpt lat="37.5746783" lon="-1.8249067"><ele>534.0</ele><time>2026-04-25T07:42:44.062Z</time></trkpt><trkpt lat="37.5748817" lon="-1.82513"><ele>535.0</ele><time>2026-04-25T07:42:45.061Z</time></trkpt><trkpt lat="37.5750817" lon="-1.825365"><ele>537.5</ele><time>2026-04-25T07:42:46.06Z</time></trkpt><trkpt lat="37.5752767" lon="-1.8256083"><ele>540.0</ele><time>2026-04-25T07:42:47.063Z</time></trkpt><trkpt lat="37.575465" lon="-1.8258633"><ele>542.0</ele><time>2026-04-25T07:42:48.065Z</time></trkpt><trkpt lat="37.575645" lon="-1.8261283"><ele>544.0</ele><time>2026-04-25T07:42:49.062Z</time></trkpt><trkpt lat="37.5758183" lon="-1.82641"><ele>544.0</ele><time>2026-04-25T07:42:50.063Z</time></trkpt><trkpt lat="37.575985" lon="-1.8266983"><ele>544.0</ele><time>2026-04-25T07:42:51.065Z</time></trkpt><trkpt lat="37.5761467" lon="-1.8269967"><ele>547.5</ele><time>2026-04-25T07:42:52.064Z</time></trkpt><trkpt lat="37.5762983" lon="-1.8273067"><ele>551.0</ele><time>2026-04-25T07:42:53.062Z</time></trkpt><trkpt lat="37.5764417" lon="-1.82762"><ele>551.5</ele><time>2026-04-25T07:42:54.062Z</time></trkpt><trkpt lat="37.5765783" lon="-1.8279383"><ele>552.0</ele><time>2026-04-25T07:42:55.063Z</time></trkpt><trkpt lat="37.5767033" lon="-1.8282617"><ele>555.5</ele><time>2026-04-25T07:42:56.063Z</time></trkpt><trkpt lat="37.5768183" lon="-1.8285917"><ele>559.0</ele><time>2026-04-25T07:42:57.06Z</time></trkpt><trkpt lat="37.5769233" lon="-1.8289283"><ele>560.5</ele><time>2026-04-25T07:42:58.062Z</time></trkpt><trkpt lat="37.5770217" lon="-1.8292717"><ele>562.0</ele><time>2026-04-25T07:42:59.06Z</time></trkpt><trkpt lat="37.577115" lon="-1.82962"><ele>562.0</ele><time>2026-04-25T07:43:00.063Z</time></trkpt><trkpt lat="37.5772067" lon="-1.82997"><ele>562.0</ele><time>2026-04-25T07:43:01.06Z</time></trkpt><trkpt lat="37.5772983" lon="-1.83032"><ele>562.0</ele><time>2026-04-25T07:43:02.059Z</time></trkpt><trkpt lat="37.5773833" lon="-1.8306683"><ele>562.0</ele><time>2026-04-25T07:43:03.065Z</time></trkpt><trkpt lat="37.577465" lon="-1.83102"><ele>562.0</ele><time>2026-04-25T07:43:04.06Z</time></trkpt><trkpt lat="37.5775383" lon="-1.8313783"><ele>562.0</ele><time>2026-04-25T07:43:05.064Z</time></trkpt><trkpt lat="37.577605" lon="-1.83174"><ele>562.5</ele><time>2026-04-25T07:43:06.063Z</time></trkpt><trkpt lat="37.5776667" lon="-1.832105"><ele>563.0</ele><time>2026-04-25T07:43:07.06Z</time></trkpt><trkpt lat="37.5777233" lon="-1.8324733"><ele>563.0</ele><time>2026-04-25T07:43:08.063Z</time></trkpt><trkpt lat="37.5777767" lon="-1.83284"><ele>563.0</ele><time>2026-04-25T07:43:09.062Z</time></trkpt><trkpt lat="37.5778267" lon="-1.8332083"><ele>569.0</ele><time>2026-04-25T07:43:10.062Z</time></trkpt><trkpt lat="37.5778767" lon="-1.8335767"><ele>575.0</ele><time>2026-04-25T07:43:11.061Z</time></trkpt><trkpt lat="37.5779267" lon="-1.8339433"><ele>573.0</ele><time>2026-04-25T07:43:12.06Z</time></trkpt><trkpt lat="37.5779833" lon="-1.83431"><ele>571.0</ele><time>2026-04-25T07:43:13.067Z</time></trkpt><trkpt lat="37.578045" lon="-1.8346817"><ele>571.0</ele><time>2026-04-25T07:43:14.065Z</time></trkpt><trkpt lat="37.578125" lon="-1.83505"><ele>571.0</ele><time>2026-04-25T07:43:15.065Z</time></trkpt><trkpt lat="37.5782217" lon="-1.8354133"><ele>565.0</ele><time>2026-04-25T07:43:16.067Z</time></trkpt><trkpt lat="37.5783367" lon="-1.835765"><ele>559.0</ele><time>2026-04-25T07:43:17.061Z</time></trkpt><trkpt lat="37.578465" lon="-1.8361117"><ele>559.5</ele><time>2026-04-25T07:43:18.061Z</time></trkpt><trkpt lat="37.57861" lon="-1.8364483"><ele>560.0</ele><time>2026-04-25T07:43:19.058Z</time></trkpt><trkpt lat="37.57877" lon="-1.836775"><ele>552.5</ele><time>2026-04-25T07:43:20.063Z</time></trkpt><trkpt lat="37.57894" lon="-1.8370983"><ele>545.0</ele><time>2026-04-25T07:43:21.061Z</time></trkpt><trkpt lat="37.5791167" lon="-1.83742"><ele>541.0</ele><time>2026-04-25T07:43:22.064Z</time></trkpt><trkpt lat="37.5792917" lon="-1.837745"><ele>537.0</ele><time>2026-04-25T07:43:23.066Z</time></trkpt><trkpt lat="37.57947" lon="-1.83807"><ele>540.5</ele><time>2026-04-25T07:43:24.061Z</time></trkpt><trkpt lat="37.5796467" lon="-1.838395"><ele>544.0</ele><time>2026-04-25T07:43:25.064Z</time></trkpt><trkpt lat="37.5798267" lon="-1.8387217"><ele>544.0</ele><time>2026-04-25T07:43:26.06Z</time></trkpt><trkpt lat="37.5800067" lon="-1.8390483"><ele>544.0</ele><time>2026-04-25T07:43:27.062Z</time></trkpt><trkpt lat="37.5801867" lon="-1.8393717"><ele>547.5</ele><time>2026-04-25T07:43:28.059Z</time></trkpt><trkpt lat="37.5803683" lon="-1.8396917"><ele>551.0</ele><time>2026-04-25T07:43:29.061Z</time></trkpt><trkpt lat="37.5805533" lon="-1.84001"><ele>544.5</ele><time>2026-04-25T07:43:30.06Z</time></trkpt><trkpt lat="37.580735" lon="-1.8403233"><ele>538.0</ele><time>2026-04-25T07:43:31.061Z</time></trkpt><trkpt lat="37.5809083" lon="-1.8406383"><ele>538.0</ele><time>2026-04-25T07:43:32.064Z</time></trkpt><trkpt lat="37.5810783" lon="-1.8409517"><ele>538.0</ele><time>2026-04-25T07:43:33.064Z</time></trkpt><trkpt lat="37.581245" lon="-1.8412633"><ele>540.0</ele><time>2026-04-25T07:43:34.06Z</time></trkpt><trkpt lat="37.5814117" lon="-1.8415733"><ele>542.0</ele><time>2026-04-25T07:43:35.061Z</time></trkpt><trkpt lat="37.5815783" lon="-1.84188"><ele>542.0</ele><time>2026-04-25T07:43:36.064Z</time></trkpt><trkpt lat="37.5817467" lon="-1.8421817"><ele>542.0</ele><time>2026-04-25T07:43:37.062Z</time></trkpt><trkpt lat="37.5819117" lon="-1.84248"><ele>546.0</ele><time>2026-04-25T07:43:38.063Z</time></trkpt><trkpt lat="37.5820733" lon="-1.8427767"><ele>550.0</ele><time>2026-04-25T07:43:39.059Z</time></trkpt><trkpt lat="37.5822333" lon="-1.8430733"><ele>550.0</ele><time>2026-04-25T07:43:40.062Z</time></trkpt><trkpt lat="37.5823917" lon="-1.8433667"><ele>550.0</ele><time>2026-04-25T07:43:41.059Z</time></trkpt><trkpt lat="37.5825433" lon="-1.8436617"><ele>546.0</ele><time>2026-04-25T07:43:42.06Z</time></trkpt><trkpt lat="37.58269" lon="-1.8439617"><ele>542.0</ele><time>2026-04-25T07:43:43.062Z</time></trkpt><trkpt lat="37.58283" lon="-1.8442617"><ele>549.0</ele><time>2026-04-25T07:43:44.06Z</time></trkpt><trkpt lat="37.5829633" lon="-1.8445667"><ele>556.0</ele><time>2026-04-25T07:43:45.06Z</time></trkpt><trkpt lat="37.58309" lon="-1.8448733"><ele>553.5</ele><time>2026-04-25T07:43:46.062Z</time></trkpt><trkpt lat="37.5832083" lon="-1.8451833"><ele>551.0</ele><time>2026-04-25T07:43:47.058Z</time></trkpt><trkpt lat="37.583315" lon="-1.8455"><ele>551.0</ele><time>2026-04-25T07:43:48.063Z</time></trkpt><trkpt lat="37.5834133" lon="-1.8458233"><ele>551.0</ele><time>2026-04-25T07:43:49.062Z</time></trkpt><trkpt lat="37.5835033" lon="-1.84615"><ele>550.0</ele><time>2026-04-25T07:43:50.061Z</time></trkpt><trkpt lat="37.583585" lon="-1.8464817"><ele>549.0</ele><time>2026-04-25T07:43:51.063Z</time></trkpt><trkpt lat="37.5836567" lon="-1.846815"><ele>557.5</ele><time>2026-04-25T07:43:52.067Z</time></trkpt><trkpt lat="37.58372" lon="-1.8471533"><ele>566.0</ele><time>2026-04-25T07:43:53.061Z</time></trkpt><trkpt lat="37.583775" lon="-1.8474933"><ele>563.0</ele><time>2026-04-25T07:43:54.062Z</time></trkpt><trkpt lat="37.5838233" lon="-1.847835"><ele>560.0</ele><time>2026-04-25T07:43:55.064Z</time></trkpt><trkpt lat="37.583865" lon="-1.8481783"><ele>558.0</ele><time>2026-04-25T07:43:56.065Z</time></trkpt><trkpt lat="37.5838983" lon="-1.8485233"><ele>556.0</ele><time>2026-04-25T07:43:57.061Z</time></trkpt><trkpt lat="37.5839283" lon="-1.84887"><ele>556.0</ele><time>2026-04-25T07:43:58.061Z</time></trkpt><trkpt lat="37.583955" lon="-1.8492167"><ele>556.0</ele><time>2026-04-25T07:43:59.061Z</time></trkpt><trkpt lat="37.5839867" lon="-1.8495617"><ele>557.0</ele><time>2026-04-25T07:44:00.063Z</time></trkpt><trkpt lat="37.584015" lon="-1.8499067"><ele>558.0</ele><time>2026-04-25T07:44:01.063Z</time></trkpt><trkpt lat="37.5840433" lon="-1.8502517"><ele>558.0</ele><time>2026-04-25T07:44:02.068Z</time></trkpt><trkpt lat="37.5840733" lon="-1.8505933"><ele>558.0</ele><time>2026-04-25T07:44:03.062Z</time></trkpt><trkpt lat="37.5841083" lon="-1.850935"><ele>556.5</ele><time>2026-04-25T07:44:04.061Z</time></trkpt><trkpt lat="37.58415" lon="-1.8512767"><ele>555.0</ele><time>2026-04-25T07:44:05.067Z</time></trkpt><trkpt lat="37.584205" lon="-1.8516117"><ele>556.0</ele><time>2026-04-25T07:44:06.064Z</time></trkpt><trkpt lat="37.58427" lon="-1.8519367"><ele>557.0</ele><time>2026-04-25T07:44:07.063Z</time></trkpt><trkpt lat="37.5843467" lon="-1.85226"><ele>557.0</ele><time>2026-04-25T07:44:08.062Z</time></trkpt><trkpt lat="37.5844333" lon="-1.8525817"><ele>557.0</ele><time>2026-04-25T07:44:09.063Z</time></trkpt><trkpt lat="37.5845317" lon="-1.8529"><ele>561.0</ele><time>2026-04-25T07:44:10.062Z</time></trkpt><trkpt lat="37.58464" lon="-1.8532167"><ele>565.0</ele><time>2026-04-25T07:44:11.063Z</time></trkpt><trkpt lat="37.58476" lon="-1.8535233"><ele>566.0</ele><time>2026-04-25T07:44:12.062Z</time></trkpt><trkpt lat="37.58489" lon="-1.8538233"><ele>567.0</ele><time>2026-04-25T07:44:13.063Z</time></trkpt><trkpt lat="37.5850317" lon="-1.854115"><ele>569.0</ele><time>2026-04-25T07:44:14.061Z</time></trkpt><trkpt lat="37.5851817" lon="-1.8544"><ele>571.0</ele><time>2026-04-25T07:44:15.061Z</time></trkpt><trkpt lat="37.5853417" lon="-1.854675"><ele>572.0</ele><time>2026-04-25T07:44:16.063Z</time></trkpt><trkpt lat="37.58551" lon="-1.8549433"><ele>573.0</ele><time>2026-04-25T07:44:17.06Z</time></trkpt><trkpt lat="37.585685" lon="-1.8552033"><ele>576.0</ele><time>2026-04-25T07:44:18.061Z</time></trkpt><trkpt lat="37.58587" lon="-1.8554533"><ele>579.0</ele><time>2026-04-25T07:44:19.064Z</time></trkpt><trkpt lat="37.5860667" lon="-1.855695"><ele>580.5</ele><time>2026-04-25T07:44:20.062Z</time></trkpt><trkpt lat="37.5862667" lon="-1.85593"><ele>582.0</ele><time>2026-04-25T07:44:21.06Z</time></trkpt><trkpt lat="37.5864683" lon="-1.856165"><ele>583.0</ele><time>2026-04-25T07:44:22.064Z</time></trkpt><trkpt lat="37.58667" lon="-1.8564"><ele>584.0</ele><time>2026-04-25T07:44:23.065Z</time></trkpt><trkpt lat="37.58687" lon="-1.8566383"><ele>588.0</ele><time>2026-04-25T07:44:24.063Z</time></trkpt><trkpt lat="37.5870717" lon="-1.8568767"><ele>592.0</ele><time>2026-04-25T07:44:25.066Z</time></trkpt><trkpt lat="37.587275" lon="-1.857115"><ele>592.0</ele><time>2026-04-25T07:44:26.066Z</time></trkpt><trkpt lat="37.5874783" lon="-1.8573517"><ele>592.0</ele><time>2026-04-25T07:44:27.062Z</time></trkpt><trkpt lat="37.5876817" lon="-1.8575867"><ele>597.0</ele><time>2026-04-25T07:44:28.062Z</time></trkpt><trkpt lat="37.587885" lon="-1.8578233"><ele>602.0</ele><time>2026-04-25T07:44:29.064Z</time></trkpt><trkpt lat="37.5880883" lon="-1.85806"><ele>602.0</ele><time>2026-04-25T07:44:30.059Z</time></trkpt><trkpt lat="37.5882933" lon="-1.8582933"><ele>602.0</ele><time>2026-04-25T07:44:31.062Z</time></trkpt><trkpt lat="37.588495" lon="-1.8585283"><ele>603.0</ele><time>2026-04-25T07:44:32.068Z</time></trkpt><trkpt lat="37.5886983" lon="-1.8587633"><ele>604.0</ele><time>2026-04-25T07:44:33.068Z</time></trkpt><trkpt lat="37.5889033" lon="-1.859"><ele>604.0</ele><time>2026-04-25T07:44:34.06Z</time></trkpt><trkpt lat="37.58911" lon="-1.859235"><ele>604.0</ele><time>2026-04-25T07:44:35.064Z</time></trkpt><trkpt lat="37.58932" lon="-1.8594683"><ele>606.0</ele><time>2026-04-25T07:44:36.063Z</time></trkpt><trkpt lat="37.5895283" lon="-1.8597"><ele>608.0</ele><time>2026-04-25T07:44:37.06Z</time></trkpt><trkpt lat="37.5897383" lon="-1.859925"><ele>612.0</ele><time>2026-04-25T07:44:38.059Z</time></trkpt><trkpt lat="37.5899533" lon="-1.860145"><ele>616.0</ele><time>2026-04-25T07:44:39.062Z</time></trkpt><trkpt lat="37.5901717" lon="-1.8603583"><ele>614.5</ele><time>2026-04-25T07:44:40.06Z</time></trkpt><trkpt lat="37.590395" lon="-1.860565"><ele>613.0</ele><time>2026-04-25T07:44:41.063Z</time></trkpt><trkpt lat="37.5906233" lon="-1.8607683"><ele>618.5</ele><time>2026-04-25T07:44:42.066Z</time></trkpt><trkpt lat="37.5908533" lon="-1.8609683"><ele>624.0</ele><time>2026-04-25T07:44:43.063Z</time></trkpt><trkpt lat="37.5910817" lon="-1.8611683"><ele>622.0</ele><time>2026-04-25T07:44:44.06Z</time></trkpt><trkpt lat="37.5913133" lon="-1.8613667"><ele>620.0</ele><time>2026-04-25T07:44:45.063Z</time></trkpt><trkpt lat="37.591545" lon="-1.8615667"><ele>620.0</ele><time>2026-04-25T07:44:46.061Z</time></trkpt><trkpt lat="37.5917767" lon="-1.8617667"><ele>620.0</ele><time>2026-04-25T07:44:47.061Z</time></trkpt><trkpt lat="37.5920083" lon="-1.8619667"><ele>623.5</ele><time>2026-04-25T07:44:48.063Z</time></trkpt><trkpt lat="37.59224" lon="-1.8621683"><ele>627.0</ele><time>2026-04-25T07:44:49.062Z</time></trkpt><trkpt lat="37.5924717" lon="-1.8623683"><ele>627.0</ele><time>2026-04-25T07:44:50.059Z</time></trkpt><trkpt lat="37.592705" lon="-1.8625667"><ele>627.0</ele><time>2026-04-25T07:44:51.064Z</time></trkpt><trkpt lat="37.5929383" lon="-1.862765"><ele>629.5</ele><time>2026-04-25T07:44:52.062Z</time></trkpt><trkpt lat="37.59317" lon="-1.8629633"><ele>632.0</ele><time>2026-04-25T07:44:53.064Z</time></trkpt><trkpt lat="37.5934033" lon="-1.8631617"><ele>632.0</ele><time>2026-04-25T07:44:54.06Z</time></trkpt><trkpt lat="37.5936367" lon="-1.86336"><ele>632.0</ele><time>2026-04-25T07:44:55.064Z</time></trkpt><trkpt lat="37.5938717" lon="-1.8635567"><ele>636.5</ele><time>2026-04-25T07:44:56.061Z</time></trkpt><trkpt lat="37.5941033" lon="-1.8637533"><ele>641.0</ele><time>2026-04-25T07:44:57.065Z</time></trkpt><trkpt lat="37.594335" lon="-1.8639517"><ele>644.0</ele><time>2026-04-25T07:44:58.06Z</time></trkpt><trkpt lat="37.594565" lon="-1.8641517"><ele>647.0</ele><time>2026-04-25T07:44:59.062Z</time></trkpt><trkpt lat="37.59479" lon="-1.86436"><ele>647.0</ele><time>2026-04-25T07:45:00.063Z</time></trkpt><trkpt lat="37.59501" lon="-1.86458"><ele>647.0</ele><time>2026-04-25T07:45:01.062Z</time></trkpt><trkpt lat="37.59522" lon="-1.8648117"><ele>648.0</ele><time>2026-04-25T07:45:02.063Z</time></trkpt><trkpt lat="37.59542" lon="-1.8650583"><ele>649.0</ele><time>2026-04-25T07:45:03.065Z</time></trkpt><trkpt lat="37.59561" lon="-1.8653183"><ele>649.5</ele><time>2026-04-25T07:45:04.06Z</time></trkpt><trkpt lat="37.5957917" lon="-1.8655867"><ele>650.0</ele><time>2026-04-25T07:45:05.062Z</time></trkpt><trkpt lat="37.5959683" lon="-1.86586"><ele>650.5</ele><time>2026-04-25T07:45:06.065Z</time></trkpt><trkpt lat="37.5961433" lon="-1.866135"><ele>651.0</ele><time>2026-04-25T07:45:07.064Z</time></trkpt><trkpt lat="37.5963133" lon="-1.8664133"><ele>652.0</ele><time>2026-04-25T07:45:08.068Z</time></trkpt><trkpt lat="37.596485" lon="-1.8666917"><ele>653.0</ele><time>2026-04-25T07:45:09.062Z</time></trkpt><trkpt lat="37.5966533" lon="-1.8669683"><ele>655.0</ele><time>2026-04-25T07:45:10.06Z</time></trkpt><trkpt lat="37.5968217" lon="-1.8672417"><ele>657.0</ele><time>2026-04-25T07:45:11.06Z</time></trkpt><trkpt lat="37.5969917" lon="-1.867515"><ele>657.0</ele><time>2026-04-25T07:45:12.059Z</time></trkpt><trkpt lat="37.5971617" lon="-1.86779"><ele>657.0</ele><time>2026-04-25T07:45:13.065Z</time></trkpt><trkpt lat="37.5973333" lon="-1.8680633"><ele>657.0</ele><time>2026-04-25T07:45:14.059Z</time></trkpt><trkpt lat="37.5975017" lon="-1.8683367"><ele>657.0</ele><time>2026-04-25T07:45:15.065Z</time></trkpt><trkpt lat="37.5976733" lon="-1.86861"><ele>656.5</ele><time>2026-04-25T07:45:16.063Z</time></trkpt><trkpt lat="37.597845" lon="-1.8688867"><ele>656.0</ele><time>2026-04-25T07:45:17.066Z</time></trkpt><trkpt lat="37.5980183" lon="-1.8691633"><ele>660.5</ele><time>2026-04-25T07:45:18.061Z</time></trkpt><trkpt lat="37.5981917" lon="-1.86944"><ele>665.0</ele><time>2026-04-25T07:45:19.063Z</time></trkpt><trkpt lat="37.598365" lon="-1.869715"><ele>665.0</ele><time>2026-04-25T07:45:20.059Z</time></trkpt><trkpt lat="37.59854" lon="-1.86999"><ele>665.0</ele><time>2026-04-25T07:45:21.059Z</time></trkpt><trkpt lat="37.5987117" lon="-1.870265"><ele>668.0</ele><time>2026-04-25T07:45:22.066Z</time></trkpt><trkpt lat="37.59888" lon="-1.8705433"><ele>671.0</ele><time>2026-04-25T07:45:23.062Z</time></trkpt><trkpt lat="37.5990417" lon="-1.8708233"><ele>672.0</ele><time>2026-04-25T07:45:24.059Z</time></trkpt><trkpt lat="37.5991983" lon="-1.871105"><ele>673.0</ele><time>2026-04-25T07:45:25.062Z</time></trkpt><trkpt lat="37.5993517" lon="-1.87139"><ele>673.0</ele><time>2026-04-25T07:45:26.062Z</time></trkpt><trkpt lat="37.5994983" lon="-1.8716817"><ele>673.0</ele><time>2026-04-25T07:45:27.066Z</time></trkpt><trkpt lat="37.59964" lon="-1.8719783"><ele>675.0</ele><time>2026-04-25T07:45:28.061Z</time></trkpt><trkpt lat="37.599775" lon="-1.8722783"><ele>677.0</ele><time>2026-04-25T07:45:29.062Z</time></trkpt><trkpt lat="37.599905" lon="-1.8725817"><ele>680.0</ele><time>2026-04-25T07:45:30.061Z</time></trkpt><trkpt lat="37.6000317" lon="-1.8728867"><ele>683.0</ele><time>2026-04-25T07:45:31.06Z</time></trkpt><trkpt lat="37.6001517" lon="-1.8731967"><ele>685.5</ele><time>2026-04-25T07:45:32.062Z</time></trkpt><trkpt lat="37.600265" lon="-1.87351"><ele>688.0</ele><time>2026-04-25T07:45:33.062Z</time></trkpt><trkpt lat="37.6003717" lon="-1.87383"><ele>689.0</ele><time>2026-04-25T07:45:34.063Z</time></trkpt><trkpt lat="37.6004733" lon="-1.87415"><ele>690.0</ele><time>2026-04-25T07:45:35.062Z</time></trkpt><trkpt lat="37.6005667" lon="-1.8744733"><ele>690.0</ele><time>2026-04-25T07:45:36.062Z</time></trkpt><trkpt lat="37.600655" lon="-1.8748"><ele>690.0</ele><time>2026-04-25T07:45:37.062Z</time></trkpt><trkpt lat="37.6007367" lon="-1.87513"><ele>690.5</ele><time>2026-04-25T07:45:38.059Z</time></trkpt><trkpt lat="37.6008133" lon="-1.8754617"><ele>691.0</ele><time>2026-04-25T07:45:39.059Z</time></trkpt><trkpt lat="37.60088" lon="-1.8757967"><ele>692.0</ele><time>2026-04-25T07:45:40.061Z</time></trkpt><trkpt lat="37.6009383" lon="-1.87614"><ele>693.0</ele><time>2026-04-25T07:45:41.059Z</time></trkpt><trkpt lat="37.6009933" lon="-1.8764817"><ele>694.0</ele><time>2026-04-25T07:45:42.064Z</time></trkpt><trkpt lat="37.6010383" lon="-1.87683"><ele>695.0</ele><time>2026-04-25T07:45:43.062Z</time></trkpt><trkpt lat="37.6010833" lon="-1.877175"><ele>695.0</ele><time>2026-04-25T07:45:44.06Z</time></trkpt><trkpt lat="37.6011183" lon="-1.87752"><ele>695.0</ele><time>2026-04-25T07:45:45.061Z</time></trkpt><trkpt lat="37.6011467" lon="-1.8778667"><ele>698.5</ele><time>2026-04-25T07:45:46.06Z</time></trkpt><trkpt lat="37.6011683" lon="-1.878215"><ele>702.0</ele><time>2026-04-25T07:45:47.063Z</time></trkpt><trkpt lat="37.6011833" lon="-1.878565"><ele>703.5</ele><time>2026-04-25T07:45:48.063Z</time></trkpt><trkpt lat="37.60119" lon="-1.878915"><ele>705.0</ele><time>2026-04-25T07:45:49.065Z</time></trkpt><trkpt lat="37.6011867" lon="-1.8792683"><ele>705.0</ele><time>2026-04-25T07:45:50.064Z</time></trkpt><trkpt lat="37.6011767" lon="-1.87962"><ele>705.0</ele><time>2026-04-25T07:45:51.064Z</time></trkpt><trkpt lat="37.6011583" lon="-1.8799717"><ele>707.0</ele><time>2026-04-25T07:45:52.064Z</time></trkpt><trkpt lat="37.6011283" lon="-1.8803217"><ele>709.0</ele><time>2026-04-25T07:45:53.061Z</time></trkpt><trkpt lat="37.6010933" lon="-1.88067"><ele>709.5</ele><time>2026-04-25T07:45:54.062Z</time></trkpt><trkpt lat="37.601055" lon="-1.8810183"><ele>710.0</ele><time>2026-04-25T07:45:55.061Z</time></trkpt><trkpt lat="37.6010133" lon="-1.8813633"><ele>710.0</ele><time>2026-04-25T07:45:56.061Z</time></trkpt><trkpt lat="37.6009683" lon="-1.8817083"><ele>710.0</ele><time>2026-04-25T07:45:57.061Z</time></trkpt><trkpt lat="37.60092" lon="-1.88205"><ele>711.0</ele><time>2026-04-25T07:45:58.057Z</time></trkpt><trkpt lat="37.60087" lon="-1.8823883"><ele>712.0</ele><time>2026-04-25T07:45:59.065Z</time></trkpt><trkpt lat="37.60082" lon="-1.882725"><ele>714.0</ele><time>2026-04-25T07:46:00.065Z</time></trkpt><trkpt lat="37.600775" lon="-1.8830667"><ele>716.0</ele><time>2026-04-25T07:46:01.066Z</time></trkpt><trkpt lat="37.60074" lon="-1.8834133"><ele>717.0</ele><time>2026-04-25T07:46:02.062Z</time></trkpt><trkpt lat="37.6007167" lon="-1.88376"><ele>718.0</ele><time>2026-04-25T07:46:03.063Z</time></trkpt><trkpt lat="37.6007067" lon="-1.8841083"><ele>718.0</ele><time>2026-04-25T07:46:04.059Z</time></trkpt><trkpt lat="37.6007067" lon="-1.8844583"><ele>718.0</ele><time>2026-04-25T07:46:05.062Z</time></trkpt><trkpt lat="37.6007183" lon="-1.88481"><ele>720.0</ele><time>2026-04-25T07:46:06.06Z</time></trkpt><trkpt lat="37.6007433" lon="-1.8851617"><ele>722.0</ele><time>2026-04-25T07:46:07.062Z</time></trkpt><trkpt lat="37.60078" lon="-1.8855117"><ele>722.0</ele><time>2026-04-25T07:46:08.061Z</time></trkpt><trkpt lat="37.6008317" lon="-1.88586"><ele>722.0</ele><time>2026-04-25T07:46:09.06Z</time></trkpt><trkpt lat="37.600895" lon="-1.8862033"><ele>724.5</ele><time>2026-04-25T07:46:10.06Z</time></trkpt><trkpt lat="37.60097" lon="-1.8865417"><ele>727.0</ele><time>2026-04-25T07:46:11.061Z</time></trkpt><trkpt lat="37.6010567" lon="-1.8868717"><ele>725.0</ele><time>2026-04-25T07:46:12.063Z</time></trkpt><trkpt lat="37.6011567" lon="-1.887195"><ele>723.0</ele><time>2026-04-25T07:46:13.058Z</time></trkpt><trkpt lat="37.6012633" lon="-1.88751"><ele>726.0</ele><time>2026-04-25T07:46:14.062Z</time></trkpt><trkpt lat="37.6013733" lon="-1.8878233"><ele>729.0</ele><time>2026-04-25T07:46:15.064Z</time></trkpt><trkpt lat="37.6014867" lon="-1.8881383"><ele>731.0</ele><time>2026-04-25T07:46:16.063Z</time></trkpt><trkpt lat="37.6016017" lon="-1.88845"><ele>733.0</ele><time>2026-04-25T07:46:17.061Z</time></trkpt><trkpt lat="37.6017167" lon="-1.8887633"><ele>733.0</ele><time>2026-04-25T07:46:18.062Z</time></trkpt><trkpt lat="37.6018317" lon="-1.8890767"><ele>733.0</ele><time>2026-04-25T07:46:19.064Z</time></trkpt><trkpt lat="37.6019483" lon="-1.8893883"><ele>732.0</ele><time>2026-04-25T07:46:20.065Z</time></trkpt><trkpt lat="37.602065" lon="-1.8896983"><ele>731.0</ele><time>2026-04-25T07:46:21.066Z</time></trkpt><trkpt lat="37.6021833" lon="-1.890005"><ele>732.0</ele><time>2026-04-25T07:46:22.061Z</time></trkpt><trkpt lat="37.6023" lon="-1.8903117"><ele>733.0</ele><time>2026-04-25T07:46:23.063Z</time></trkpt><trkpt lat="37.602415" lon="-1.8906183"><ele>733.0</ele><time>2026-04-25T07:46:24.06Z</time></trkpt><trkpt lat="37.60253" lon="-1.89092"><ele>733.0</ele><time>2026-04-25T07:46:25.06Z</time></trkpt><trkpt lat="37.6026433" lon="-1.8912183"><ele>732.0</ele><time>2026-04-25T07:46:26.061Z</time></trkpt><trkpt lat="37.60275" lon="-1.8915083"><ele>731.0</ele><time>2026-04-25T07:46:27.062Z</time></trkpt><trkpt lat="37.6028583" lon="-1.89179"><ele>729.5</ele><time>2026-04-25T07:46:28.066Z</time></trkpt><trkpt lat="37.6029667" lon="-1.892065"><ele>728.0</ele><time>2026-04-25T07:46:29.064Z</time></trkpt><trkpt lat="37.603075" lon="-1.892335"><ele>728.0</ele><time>2026-04-25T07:46:30.059Z</time></trkpt><trkpt lat="37.60318" lon="-1.892605"><ele>728.0</ele><time>2026-04-25T07:46:31.063Z</time></trkpt><trkpt lat="37.60328" lon="-1.8928683"><ele>728.0</ele><time>2026-04-25T07:46:32.059Z</time></trkpt><trkpt lat="37.60337" lon="-1.893125"><ele>728.0</ele><time>2026-04-25T07:46:33.071Z</time></trkpt><trkpt lat="37.6034617" lon="-1.8933783"><ele>728.0</ele><time>2026-04-25T07:46:34.059Z</time></trkpt><trkpt lat="37.6035517" lon="-1.8936283"><ele>727.3333333333333</ele><time>2026-04-25T07:46:35.061Z</time></trkpt><trkpt lat="37.6036433" lon="-1.8938783"><ele>726.6666666666666</ele><time>2026-04-25T07:46:36.062Z</time></trkpt><trkpt lat="37.6037367" lon="-1.89413"><ele>726.0</ele><time>2026-04-25T07:46:37.062Z</time></trkpt><trkpt lat="37.6038317" lon="-1.89439"><ele>724.5</ele><time>2026-04-25T07:46:38.062Z</time></trkpt><trkpt lat="37.6039267" lon="-1.894655"><ele>723.0</ele><time>2026-04-25T07:46:39.059Z</time></trkpt><trkpt lat="37.6040283" lon="-1.8949267"><ele>723.5</ele><time>2026-04-25T07:46:40.059Z</time></trkpt><trkpt lat="37.604135" lon="-1.8952033"><ele>724.0</ele><time>2026-04-25T07:46:41.058Z</time></trkpt><trkpt lat="37.6042433" lon="-1.8954883"><ele>724.0</ele><time>2026-04-25T07:46:42.063Z</time></trkpt><trkpt lat="37.6043517" lon="-1.8957783"><ele>724.0</ele><time>2026-04-25T07:46:43.067Z</time></trkpt><trkpt lat="37.6044617" lon="-1.896075"><ele>724.5</ele><time>2026-04-25T07:46:44.065Z</time></trkpt><trkpt lat="37.6045767" lon="-1.8963733"><ele>725.0</ele><time>2026-04-25T07:46:45.06Z</time></trkpt><trkpt lat="37.6046967" lon="-1.896675"><ele>725.5</ele><time>2026-04-25T07:46:46.063Z</time></trkpt><trkpt lat="37.604825" lon="-1.8969733"><ele>726.0</ele><time>2026-04-25T07:46:47.066Z</time></trkpt><trkpt lat="37.6049617" lon="-1.897275"><ele>726.0</ele><time>2026-04-25T07:46:48.061Z</time></trkpt><trkpt lat="37.60511" lon="-1.8975683"><ele>726.0</ele><time>2026-04-25T07:46:49.062Z</time></trkpt><trkpt lat="37.6052717" lon="-1.897855"><ele>722.0</ele><time>2026-04-25T07:46:50.058Z</time></trkpt><trkpt lat="37.6054467" lon="-1.898135"><ele>718.0</ele><time>2026-04-25T07:46:51.059Z</time></trkpt><trkpt lat="37.6056333" lon="-1.8984033"><ele>719.0</ele><time>2026-04-25T07:46:52.061Z</time></trkpt><trkpt lat="37.6058283" lon="-1.89866"><ele>720.0</ele><time>2026-04-25T07:46:53.065Z</time></trkpt><trkpt lat="37.606025" lon="-1.8988967"><ele>721.0</ele><time>2026-04-25T07:46:54.063Z</time></trkpt><trkpt lat="37.60622" lon="-1.8991167"><ele>722.0</ele><time>2026-04-25T07:46:55.064Z</time></trkpt><trkpt lat="37.6064133" lon="-1.89932"><ele>722.0</ele><time>2026-04-25T07:46:56.064Z</time></trkpt><trkpt lat="37.6066083" lon="-1.8995167"><ele>722.0</ele><time>2026-04-25T07:46:57.063Z</time></trkpt><trkpt lat="37.606805" lon="-1.8997083"><ele>721.0</ele><time>2026-04-25T07:46:58.062Z</time></trkpt><trkpt lat="37.6070067" lon="-1.8999"><ele>720.0</ele><time>2026-04-25T07:46:59.067Z</time></trkpt><trkpt lat="37.6072083" lon="-1.90009"><ele>724.0</ele><time>2026-04-25T07:47:00.063Z</time></trkpt><trkpt lat="37.60741" lon="-1.9002833"><ele>728.0</ele><time>2026-04-25T07:47:01.06Z</time></trkpt><trkpt lat="37.60761" lon="-1.900475"><ele>728.0</ele><time>2026-04-25T07:47:02.062Z</time></trkpt><trkpt lat="37.6078083" lon="-1.9006717"><ele>728.0</ele><time>2026-04-25T07:47:03.062Z</time></trkpt><trkpt lat="37.6080083" lon="-1.9008667"><ele>727.5</ele><time>2026-04-25T07:47:04.061Z</time></trkpt><trkpt lat="37.6082083" lon="-1.9010617"><ele>727.0</ele><time>2026-04-25T07:47:05.062Z</time></trkpt><trkpt lat="37.6084117" lon="-1.90126"><ele>727.0</ele><time>2026-04-25T07:47:06.058Z</time></trkpt><trkpt lat="37.6086183" lon="-1.90146"><ele>727.0</ele><time>2026-04-25T07:47:07.061Z</time></trkpt><trkpt lat="37.60882" lon="-1.9016683"><ele>727.0</ele><time>2026-04-25T07:47:08.063Z</time></trkpt><trkpt lat="37.6090183" lon="-1.9018833"><ele>727.0</ele><time>2026-04-25T07:47:09.062Z</time></trkpt><trkpt lat="37.6092067" lon="-1.90211"><ele>727.0</ele><time>2026-04-25T07:47:10.061Z</time></trkpt><trkpt lat="37.60939" lon="-1.9023483"><ele>727.0</ele><time>2026-04-25T07:47:11.062Z</time></trkpt><trkpt lat="37.6095683" lon="-1.9025983"><ele>727.0</ele><time>2026-04-25T07:47:12.062Z</time></trkpt><trkpt lat="37.6097417" lon="-1.902855"><ele>727.0</ele><time>2026-04-25T07:47:13.062Z</time></trkpt><trkpt lat="37.6099067" lon="-1.9031233"><ele>727.0</ele><time>2026-04-25T07:47:14.064Z</time></trkpt><trkpt lat="37.6100633" lon="-1.9033983"><ele>727.0</ele><time>2026-04-25T07:47:15.066Z</time></trkpt><trkpt lat="37.6102083" lon="-1.903685"><ele>728.0</ele><time>2026-04-25T07:47:16.063Z</time></trkpt><trkpt lat="37.61034" lon="-1.9039817"><ele>729.0</ele><time>2026-04-25T07:47:17.062Z</time></trkpt><trkpt lat="37.6104633" lon="-1.9042833"><ele>729.0</ele><time>2026-04-25T07:47:18.061Z</time></trkpt><trkpt lat="37.610575" lon="-1.9045917"><ele>729.0</ele><time>2026-04-25T07:47:19.061Z</time></trkpt><trkpt lat="37.6106767" lon="-1.9049067"><ele>732.0</ele><time>2026-04-25T07:47:20.063Z</time></trkpt><trkpt lat="37.61077" lon="-1.905225"><ele>735.0</ele><time>2026-04-25T07:47:21.059Z</time></trkpt><trkpt lat="37.6108533" lon="-1.9055483"><ele>735.0</ele><time>2026-04-25T07:47:22.06Z</time></trkpt><trkpt lat="37.6109267" lon="-1.90588"><ele>735.0</ele><time>2026-04-25T07:47:23.063Z</time></trkpt><trkpt lat="37.61099" lon="-1.9062167"><ele>738.0</ele><time>2026-04-25T07:47:24.063Z</time></trkpt><trkpt lat="37.6110433" lon="-1.9065567"><ele>741.0</ele><time>2026-04-25T07:47:25.063Z</time></trkpt><trkpt lat="37.6110883" lon="-1.9069033"><ele>742.0</ele><time>2026-04-25T07:47:26.063Z</time></trkpt><trkpt lat="37.6111267" lon="-1.907255"><ele>743.0</ele><time>2026-04-25T07:47:27.068Z</time></trkpt><trkpt lat="37.6111617" lon="-1.907605"><ele>747.0</ele><time>2026-04-25T07:47:28.063Z</time></trkpt><trkpt lat="37.611195" lon="-1.9079567"><ele>751.0</ele><time>2026-04-25T07:47:29.059Z</time></trkpt><trkpt lat="37.6112283" lon="-1.9083033"><ele>751.5</ele><time>2026-04-25T07:47:30.064Z</time></trkpt><trkpt lat="37.6112633" lon="-1.90865"><ele>752.0</ele><time>2026-04-25T07:47:31.061Z</time></trkpt><trkpt lat="37.6112967" lon="-1.908995"><ele>750.0</ele><time>2026-04-25T07:47:32.057Z</time></trkpt><trkpt lat="37.6113317" lon="-1.9093383"><ele>748.0</ele><time>2026-04-25T07:47:33.057Z</time></trkpt><trkpt lat="37.6113667" lon="-1.90968"><ele>748.0</ele><time>2026-04-25T07:47:34.056Z</time></trkpt><trkpt lat="37.6114017" lon="-1.9100233"><ele>748.0</ele><time>2026-04-25T07:47:35.068Z</time></trkpt><trkpt lat="37.611435" lon="-1.9103667"><ele>749.0</ele><time>2026-04-25T07:47:36.064Z</time></trkpt><trkpt lat="37.6114667" lon="-1.910705"><ele>750.0</ele><time>2026-04-25T07:47:37.066Z</time></trkpt><trkpt lat="37.6115" lon="-1.9110417"><ele>750.5</ele><time>2026-04-25T07:47:38.058Z</time></trkpt><trkpt lat="37.6115333" lon="-1.9113767"><ele>751.0</ele><time>2026-04-25T07:47:39.063Z</time></trkpt><trkpt lat="37.6115667" lon="-1.91171"><ele>751.5</ele><time>2026-04-25T07:47:40.069Z</time></trkpt><trkpt lat="37.6116" lon="-1.912045"><ele>752.0</ele><time>2026-04-25T07:47:41.064Z</time></trkpt><trkpt lat="37.6116317" lon="-1.9123767"><ele>754.5</ele><time>2026-04-25T07:47:42.069Z</time></trkpt><trkpt lat="37.6116667" lon="-1.91271"><ele>757.0</ele><time>2026-04-25T07:47:43.065Z</time></trkpt><trkpt lat="37.6116983" lon="-1.9130417"><ele>757.0</ele><time>2026-04-25T07:47:44.065Z</time></trkpt><trkpt lat="37.61173" lon="-1.9133733"><ele>757.0</ele><time>2026-04-25T07:47:45.057Z</time></trkpt><trkpt lat="37.611755" lon="-1.913705"><ele>758.0</ele><time>2026-04-25T07:47:46.064Z</time></trkpt><trkpt lat="37.6117767" lon="-1.914035"><ele>759.0</ele><time>2026-04-25T07:47:47.065Z</time></trkpt><trkpt lat="37.61179" lon="-1.9143667"><ele>760.0</ele><time>2026-04-25T07:47:48.065Z</time></trkpt><trkpt lat="37.6117917" lon="-1.9147017"><ele>761.0</ele><time>2026-04-25T07:47:49.061Z</time></trkpt><trkpt lat="37.6117883" lon="-1.915035"><ele>762.5</ele><time>2026-04-25T07:47:50.065Z</time></trkpt><trkpt lat="37.611775" lon="-1.915365"><ele>764.0</ele><time>2026-04-25T07:47:51.064Z</time></trkpt><trkpt lat="37.6117567" lon="-1.9156983"><ele>765.5</ele><time>2026-04-25T07:47:52.059Z</time></trkpt><trkpt lat="37.61173" lon="-1.9160317"><ele>767.0</ele><time>2026-04-25T07:47:53.062Z</time></trkpt><trkpt lat="37.6117017" lon="-1.916365"><ele>767.0</ele><time>2026-04-25T07:47:54.063Z</time></trkpt><trkpt lat="37.6116717" lon="-1.9167017"><ele>767.0</ele><time>2026-04-25T07:47:55.061Z</time></trkpt><trkpt lat="37.61164" lon="-1.917045"><ele>768.0</ele><time>2026-04-25T07:47:56.064Z</time></trkpt><trkpt lat="37.6116083" lon="-1.9173883"><ele>769.0</ele><time>2026-04-25T07:47:57.059Z</time></trkpt><trkpt lat="37.61158" lon="-1.9177317"><ele>769.0</ele><time>2026-04-25T07:47:58.063Z</time></trkpt><trkpt lat="37.6115533" lon="-1.918075"><ele>769.0</ele><time>2026-04-25T07:47:59.06Z</time></trkpt><trkpt lat="37.6115217" lon="-1.91842"><ele>770.0</ele><time>2026-04-25T07:48:00.06Z</time></trkpt><trkpt lat="37.61149" lon="-1.918765"><ele>771.0</ele><time>2026-04-25T07:48:01.06Z</time></trkpt><trkpt lat="37.6114583" lon="-1.9191117"><ele>772.5</ele><time>2026-04-25T07:48:02.063Z</time></trkpt><trkpt lat="37.6114233" lon="-1.9194583"><ele>774.0</ele><time>2026-04-25T07:48:03.065Z</time></trkpt><trkpt lat="37.6113917" lon="-1.9198067"><ele>775.0</ele><time>2026-04-25T07:48:04.064Z</time></trkpt><trkpt lat="37.6113583" lon="-1.9201533"><ele>776.0</ele><time>2026-04-25T07:48:05.063Z</time></trkpt><trkpt lat="37.611325" lon="-1.9205017"><ele>776.0</ele><time>2026-04-25T07:48:06.062Z</time></trkpt><trkpt lat="37.6112933" lon="-1.9208533"><ele>776.0</ele><time>2026-04-25T07:48:07.063Z</time></trkpt><trkpt lat="37.61126" lon="-1.9212017"><ele>777.0</ele><time>2026-04-25T07:48:08.066Z</time></trkpt><trkpt lat="37.6112283" lon="-1.9215533"><ele>778.0</ele><time>2026-04-25T07:48:09.063Z</time></trkpt><trkpt lat="37.611195" lon="-1.9219067"><ele>779.5</ele><time>2026-04-25T07:48:10.063Z</time></trkpt><trkpt lat="37.6111617" lon="-1.922255"><ele>781.0</ele><time>2026-04-25T07:48:11.064Z</time></trkpt><trkpt lat="37.6111283" lon="-1.9226017"><ele>782.0</ele><time>2026-04-25T07:48:12.064Z</time></trkpt><trkpt lat="37.6110967" lon="-1.9229433"><ele>783.0</ele><time>2026-04-25T07:48:13.066Z</time></trkpt><trkpt lat="37.6110667" lon="-1.923285"><ele>781.0</ele><time>2026-04-25T07:48:14.065Z</time></trkpt><trkpt lat="37.6110367" lon="-1.9236283"><ele>779.0</ele><time>2026-04-25T07:48:15.059Z</time></trkpt><trkpt lat="37.6110083" lon="-1.9239717"><ele>779.0</ele><time>2026-04-25T07:48:16.065Z</time></trkpt><trkpt lat="37.6109817" lon="-1.9243167"><ele>779.0</ele><time>2026-04-25T07:48:17.064Z</time></trkpt><trkpt lat="37.6109583" lon="-1.92466"><ele>779.0</ele><time>2026-04-25T07:48:18.064Z</time></trkpt><trkpt lat="37.6109417" lon="-1.925005"><ele>779.0</ele><time>2026-04-25T07:48:19.064Z</time></trkpt><trkpt lat="37.6109333" lon="-1.9253517"><ele>780.0</ele><time>2026-04-25T07:48:20.062Z</time></trkpt><trkpt lat="37.61094" lon="-1.9256983"><ele>781.0</ele><time>2026-04-25T07:48:21.06Z</time></trkpt><trkpt lat="37.61096" lon="-1.9260433"><ele>783.0</ele><time>2026-04-25T07:48:22.068Z</time></trkpt><trkpt lat="37.6109917" lon="-1.9263833"><ele>785.0</ele><time>2026-04-25T07:48:23.064Z</time></trkpt><trkpt lat="37.611035" lon="-1.9267217"><ele>786.0</ele><time>2026-04-25T07:48:24.066Z</time></trkpt><trkpt lat="37.6110883" lon="-1.9270583"><ele>787.0</ele><time>2026-04-25T07:48:25.064Z</time></trkpt><trkpt lat="37.611155" lon="-1.927395"><ele>790.0</ele><time>2026-04-25T07:48:26.066Z</time></trkpt><trkpt lat="37.6112333" lon="-1.927725"><ele>793.0</ele><time>2026-04-25T07:48:27.065Z</time></trkpt><trkpt lat="37.611325" lon="-1.92805"><ele>793.0</ele><time>2026-04-25T07:48:28.061Z</time></trkpt><trkpt lat="37.611425" lon="-1.9283733"><ele>793.0</ele><time>2026-04-25T07:48:29.065Z</time></trkpt><trkpt lat="37.6115367" lon="-1.9286917"><ele>792.5</ele><time>2026-04-25T07:48:30.064Z</time></trkpt><trkpt lat="37.6116617" lon="-1.929005"><ele>792.0</ele><time>2026-04-25T07:48:31.061Z</time></trkpt><trkpt lat="37.6117967" lon="-1.9293133"><ele>792.0</ele><time>2026-04-25T07:48:32.06Z</time></trkpt><trkpt lat="37.6119467" lon="-1.92961"><ele>792.0</ele><time>2026-04-25T07:48:33.064Z</time></trkpt><trkpt lat="37.612105" lon="-1.9298967"><ele>794.0</ele><time>2026-04-25T07:48:34.057Z</time></trkpt><trkpt lat="37.6122683" lon="-1.9301783"><ele>796.0</ele><time>2026-04-25T07:48:35.059Z</time></trkpt><trkpt lat="37.61244" lon="-1.93045"><ele>796.0</ele><time>2026-04-25T07:48:36.067Z</time></trkpt><trkpt lat="37.6126267" lon="-1.9307"><ele>796.0</ele><time>2026-04-25T07:48:37.058Z</time></trkpt><trkpt lat="37.612825" lon="-1.930945"><ele>795.5</ele><time>2026-04-25T07:48:38.066Z</time></trkpt><trkpt lat="37.61303" lon="-1.9311833"><ele>795.0</ele><time>2026-04-25T07:48:39.061Z</time></trkpt><trkpt lat="37.61324" lon="-1.9314117"><ele>795.0</ele><time>2026-04-25T07:48:40.068Z</time></trkpt><trkpt lat="37.6134583" lon="-1.9316267"><ele>795.0</ele><time>2026-04-25T07:48:41.061Z</time></trkpt><trkpt lat="37.6136767" lon="-1.93183"><ele>797.0</ele><time>2026-04-25T07:48:42.07Z</time></trkpt><trkpt lat="37.6139033" lon="-1.9320267"><ele>799.0</ele><time>2026-04-25T07:48:43.064Z</time></trkpt><trkpt lat="37.6141267" lon="-1.932215"><ele>799.0</ele><time>2026-04-25T07:48:44.062Z</time></trkpt><trkpt lat="37.6143467" lon="-1.9323983"><ele>799.0</ele><time>2026-04-25T07:48:45.061Z</time></trkpt><trkpt lat="37.6145583" lon="-1.9325883"><ele>801.5</ele><time>2026-04-25T07:48:46.057Z</time></trkpt><trkpt lat="37.6147667" lon="-1.932785"><ele>804.0</ele><time>2026-04-25T07:48:47.067Z</time></trkpt><trkpt lat="37.614965" lon="-1.9329933"><ele>804.0</ele><time>2026-04-25T07:48:48.065Z</time></trkpt><trkpt lat="37.6151533" lon="-1.9332133"><ele>804.0</ele><time>2026-04-25T07:48:49.062Z</time></trkpt><trkpt lat="37.6153333" lon="-1.933445"><ele>807.5</ele><time>2026-04-25T07:48:50.064Z</time></trkpt><trkpt lat="37.6155117" lon="-1.93368"><ele>811.0</ele><time>2026-04-25T07:48:51.064Z</time></trkpt><trkpt lat="37.6156833" lon="-1.9339267"><ele>811.0</ele><time>2026-04-25T07:48:52.06Z</time></trkpt><trkpt lat="37.6158433" lon="-1.9341833"><ele>811.0</ele><time>2026-04-25T07:48:53.063Z</time></trkpt><trkpt lat="37.6159967" lon="-1.9344517"><ele>811.5</ele><time>2026-04-25T07:48:54.063Z</time></trkpt><trkpt lat="37.61614" lon="-1.9347267"><ele>812.0</ele><time>2026-04-25T07:48:55.057Z</time></trkpt><trkpt lat="37.6162733" lon="-1.935005"><ele>815.5</ele><time>2026-04-25T07:48:56.065Z</time></trkpt><trkpt lat="37.6163983" lon="-1.935295"><ele>819.0</ele><time>2026-04-25T07:48:57.062Z</time></trkpt><trkpt lat="37.616515" lon="-1.9355883"><ele>819.5</ele><time>2026-04-25T07:48:58.067Z</time></trkpt><trkpt lat="37.61662" lon="-1.9358883"><ele>820.0</ele><time>2026-04-25T07:48:59.065Z</time></trkpt><trkpt lat="37.6167133" lon="-1.9361967"><ele>820.0</ele><time>2026-04-25T07:49:00.065Z</time></trkpt><trkpt lat="37.6167983" lon="-1.93651"><ele>820.0</ele><time>2026-04-25T07:49:01.059Z</time></trkpt><trkpt lat="37.6168833" lon="-1.9368217"><ele>821.5</ele><time>2026-04-25T07:49:02.062Z</time></trkpt><trkpt lat="37.6169667" lon="-1.9371367"><ele>823.0</ele><time>2026-04-25T07:49:03.069Z</time></trkpt><trkpt lat="37.6170483" lon="-1.9374517"><ele>827.0</ele><time>2026-04-25T07:49:04.059Z</time></trkpt><trkpt lat="37.61713" lon="-1.93777"><ele>831.0</ele><time>2026-04-25T07:49:05.063Z</time></trkpt><trkpt lat="37.6172133" lon="-1.9380917"><ele>832.5</ele><time>2026-04-25T07:49:06.06Z</time></trkpt><trkpt lat="37.6173017" lon="-1.9384167"><ele>834.0</ele><time>2026-04-25T07:49:07.059Z</time></trkpt><trkpt lat="37.61739" lon="-1.9387467"><ele>834.0</ele><time>2026-04-25T07:49:08.061Z</time></trkpt><trkpt lat="37.6174817" lon="-1.9390817"><ele>834.0</ele><time>2026-04-25T07:49:09.061Z</time></trkpt><trkpt lat="37.6175717" lon="-1.9394233"><ele>835.0</ele><time>2026-04-25T07:49:10.06Z</time></trkpt><trkpt lat="37.6176617" lon="-1.93977"><ele>836.0</ele><time>2026-04-25T07:49:11.064Z</time></trkpt><trkpt lat="37.6177517" lon="-1.9401217"><ele>840.5</ele><time>2026-04-25T07:49:12.063Z</time></trkpt><trkpt lat="37.6178433" lon="-1.9404717"><ele>845.0</ele><time>2026-04-25T07:49:13.062Z</time></trkpt><trkpt lat="37.6179383" lon="-1.94082"><ele>847.0</ele><time>2026-04-25T07:49:14.065Z</time></trkpt><trkpt lat="37.61803" lon="-1.94117"><ele>849.0</ele><time>2026-04-25T07:49:15.062Z</time></trkpt><trkpt lat="37.6181217" lon="-1.94152"><ele>848.5</ele><time>2026-04-25T07:49:16.064Z</time></trkpt><trkpt lat="37.618215" lon="-1.9418683"><ele>848.0</ele><time>2026-04-25T07:49:17.065Z</time></trkpt><trkpt lat="37.6183083" lon="-1.9422167"><ele>848.0</ele><time>2026-04-25T07:49:18.066Z</time></trkpt><trkpt lat="37.6184" lon="-1.9425667"><ele>848.0</ele><time>2026-04-25T07:49:19.063Z</time></trkpt><trkpt lat="37.6184883" lon="-1.9429183"><ele>848.0</ele><time>2026-04-25T07:49:20.063Z</time></trkpt><trkpt lat="37.61858" lon="-1.9432683"><ele>848.0</ele><time>2026-04-25T07:49:21.064Z</time></trkpt><trkpt lat="37.6186717" lon="-1.9436167"><ele>852.0</ele><time>2026-04-25T07:49:22.06Z</time></trkpt><trkpt lat="37.6187633" lon="-1.9439633"><ele>856.0</ele><time>2026-04-25T07:49:23.061Z</time></trkpt><trkpt lat="37.6188533" lon="-1.9443133"><ele>856.0</ele><time>2026-04-25T07:49:24.063Z</time></trkpt><trkpt lat="37.6189383" lon="-1.9446667"><ele>856.0</ele><time>2026-04-25T07:49:25.067Z</time></trkpt><trkpt lat="37.6190267" lon="-1.9450183"><ele>856.0</ele><time>2026-04-25T07:49:26.061Z</time></trkpt><trkpt lat="37.6191167" lon="-1.94537"><ele>856.0</ele><time>2026-04-25T07:49:27.063Z</time></trkpt><trkpt lat="37.61921" lon="-1.9457167"><ele>855.0</ele><time>2026-04-25T07:49:28.063Z</time></trkpt><trkpt lat="37.6193017" lon="-1.946065"><ele>854.0</ele><time>2026-04-25T07:49:29.062Z</time></trkpt><trkpt lat="37.6193917" lon="-1.94641"><ele>853.0</ele><time>2026-04-25T07:49:30.064Z</time></trkpt><trkpt lat="37.6194817" lon="-1.946755"><ele>852.0</ele><time>2026-04-25T07:49:31.06Z</time></trkpt><trkpt lat="37.6195717" lon="-1.9470983"><ele>853.5</ele><time>2026-04-25T07:49:32.064Z</time></trkpt><trkpt lat="37.6196633" lon="-1.9474433"><ele>855.0</ele><time>2026-04-25T07:49:33.061Z</time></trkpt><trkpt lat="37.619755" lon="-1.947785"><ele>855.0</ele><time>2026-04-25T07:49:34.06Z</time></trkpt><trkpt lat="37.619845" lon="-1.9481317"><ele>855.0</ele><time>2026-04-25T07:49:35.065Z</time></trkpt><trkpt lat="37.619935" lon="-1.94848"><ele>855.0</ele><time>2026-04-25T07:49:36.061Z</time></trkpt><trkpt lat="37.6200267" lon="-1.9488283"><ele>855.0</ele><time>2026-04-25T07:49:37.065Z</time></trkpt><trkpt lat="37.6201183" lon="-1.949175"><ele>856.0</ele><time>2026-04-25T07:49:38.066Z</time></trkpt><trkpt lat="37.6202133" lon="-1.94952"><ele>857.0</ele><time>2026-04-25T07:49:39.064Z</time></trkpt><trkpt lat="37.6203067" lon="-1.9498633"><ele>858.5</ele><time>2026-04-25T07:49:40.059Z</time></trkpt><trkpt lat="37.6204033" lon="-1.9502067"><ele>860.0</ele><time>2026-04-25T07:49:41.063Z</time></trkpt><trkpt lat="37.6205067" lon="-1.95055"><ele>858.5</ele><time>2026-04-25T07:49:42.064Z</time></trkpt><trkpt lat="37.6206183" lon="-1.9508883"><ele>857.0</ele><time>2026-04-25T07:49:43.062Z</time></trkpt><trkpt lat="37.6207417" lon="-1.95122"><ele>857.0</ele><time>2026-04-25T07:49:44.063Z</time></trkpt><trkpt lat="37.6208767" lon="-1.9515467"><ele>857.0</ele><time>2026-04-25T07:49:45.059Z</time></trkpt><trkpt lat="37.62102" lon="-1.9518667"><ele>859.0</ele><time>2026-04-25T07:49:46.068Z</time></trkpt><trkpt lat="37.6211733" lon="-1.9521783"><ele>861.0</ele><time>2026-04-25T07:49:47.058Z</time></trkpt><trkpt lat="37.6213333" lon="-1.9524867"><ele>859.5</ele><time>2026-04-25T07:49:48.069Z</time></trkpt><trkpt lat="37.621495" lon="-1.9527917"><ele>858.0</ele><time>2026-04-25T07:49:49.058Z</time></trkpt><trkpt lat="37.621665" lon="-1.95309"><ele>857.5</ele><time>2026-04-25T07:49:50.067Z</time></trkpt><trkpt lat="37.6218417" lon="-1.9533817"><ele>857.0</ele><time>2026-04-25T07:49:51.066Z</time></trkpt><trkpt lat="37.6220233" lon="-1.953665"><ele>859.5</ele><time>2026-04-25T07:49:52.061Z</time></trkpt><trkpt lat="37.62221" lon="-1.953945"><ele>862.0</ele><time>2026-04-25T07:49:53.066Z</time></trkpt><trkpt lat="37.6224033" lon="-1.9542167"><ele>862.0</ele><time>2026-04-25T07:49:54.068Z</time></trkpt><trkpt lat="37.6225967" lon="-1.9544817"><ele>862.0</ele><time>2026-04-25T07:49:55.061Z</time></trkpt><trkpt lat="37.6227917" lon="-1.95474"><ele>863.0</ele><time>2026-04-25T07:49:56.065Z</time></trkpt><trkpt lat="37.6229867" lon="-1.9549967"><ele>864.0</ele><time>2026-04-25T07:49:57.062Z</time></trkpt><trkpt lat="37.6231817" lon="-1.95525"><ele>864.0</ele><time>2026-04-25T07:49:58.071Z</time></trkpt><trkpt lat="37.6233717" lon="-1.9555083"><ele>864.0</ele><time>2026-04-25T07:49:59.066Z</time></trkpt><trkpt lat="37.62355" lon="-1.9557717"><ele>867.5</ele><time>2026-04-25T07:50:00.064Z</time></trkpt><trkpt lat="37.6237233" lon="-1.9560383"><ele>871.0</ele><time>2026-04-25T07:50:01.063Z</time></trkpt><trkpt lat="37.623885" lon="-1.95631"><ele>871.0</ele><time>2026-04-25T07:50:02.063Z</time></trkpt><trkpt lat="37.62404" lon="-1.9565883"><ele>871.0</ele><time>2026-04-25T07:50:03.062Z</time></trkpt><trkpt lat="37.6241883" lon="-1.9568683"><ele>871.5</ele><time>2026-04-25T07:50:04.057Z</time></trkpt><trkpt lat="37.6243317" lon="-1.9571533"><ele>872.0</ele><time>2026-04-25T07:50:05.064Z</time></trkpt><trkpt lat="37.6244667" lon="-1.9574417"><ele>876.0</ele><time>2026-04-25T07:50:06.059Z</time></trkpt><trkpt lat="37.624595" lon="-1.9577333"><ele>880.0</ele><time>2026-04-25T07:50:07.071Z</time></trkpt><trkpt lat="37.6247183" lon="-1.95803"><ele>880.0</ele><time>2026-04-25T07:50:08.065Z</time></trkpt><trkpt lat="37.6248333" lon="-1.95833"><ele>880.0</ele><time>2026-04-25T07:50:09.06Z</time></trkpt><trkpt lat="37.6249383" lon="-1.9586367"><ele>880.5</ele><time>2026-04-25T07:50:10.058Z</time></trkpt><trkpt lat="37.6250367" lon="-1.9589483"><ele>881.0</ele><time>2026-04-25T07:50:11.06Z</time></trkpt><trkpt lat="37.6251267" lon="-1.9592633"><ele>882.0</ele><time>2026-04-25T07:50:12.065Z</time></trkpt><trkpt lat="37.6252117" lon="-1.9595817"><ele>883.0</ele><time>2026-04-25T07:50:13.061Z</time></trkpt><trkpt lat="37.6252917" lon="-1.9599"><ele>882.5</ele><time>2026-04-25T07:50:14.061Z</time></trkpt><trkpt lat="37.6253667" lon="-1.96022"><ele>882.0</ele><time>2026-04-25T07:50:15.065Z</time></trkpt><trkpt lat="37.625435" lon="-1.960545"><ele>885.5</ele><time>2026-04-25T07:50:16.061Z</time></trkpt><trkpt lat="37.6254983" lon="-1.9608733"><ele>889.0</ele><time>2026-04-25T07:50:17.062Z</time></trkpt><trkpt lat="37.62556" lon="-1.9612033"><ele>889.0</ele><time>2026-04-25T07:50:18.063Z</time></trkpt><trkpt lat="37.6256183" lon="-1.961535"><ele>889.0</ele><time>2026-04-25T07:50:19.063Z</time></trkpt><trkpt lat="37.625675" lon="-1.96187"><ele>890.0</ele><time>2026-04-25T07:50:20.064Z</time></trkpt><trkpt lat="37.6257283" lon="-1.9622083"><ele>891.0</ele><time>2026-04-25T07:50:21.065Z</time></trkpt><trkpt lat="37.62578" lon="-1.9625467"><ele>893.0</ele><time>2026-04-25T07:50:22.064Z</time></trkpt><trkpt lat="37.62583" lon="-1.9628867"><ele>895.0</ele><time>2026-04-25T07:50:23.064Z</time></trkpt><trkpt lat="37.6258783" lon="-1.9632283"><ele>894.5</ele><time>2026-04-25T07:50:24.065Z</time></trkpt><trkpt lat="37.6259267" lon="-1.9635733"><ele>894.0</ele><time>2026-04-25T07:50:25.064Z</time></trkpt><trkpt lat="37.6259767" lon="-1.9639183"><ele>895.0</ele><time>2026-04-25T07:50:26.064Z</time></trkpt><trkpt lat="37.6260267" lon="-1.9642683"><ele>896.0</ele><time>2026-04-25T07:50:27.068Z</time></trkpt><trkpt lat="37.6260783" lon="-1.96462"><ele>896.0</ele><time>2026-04-25T07:50:28.06Z</time></trkpt><trkpt lat="37.62613" lon="-1.964975"><ele>896.0</ele><time>2026-04-25T07:50:29.062Z</time></trkpt><trkpt lat="37.6261817" lon="-1.96533"><ele>896.0</ele><time>2026-04-25T07:50:30.061Z</time></trkpt><trkpt lat="37.6262317" lon="-1.965685"><ele>896.0</ele><time>2026-04-25T07:50:31.065Z</time></trkpt><trkpt lat="37.6262817" lon="-1.96604"><ele>899.5</ele><time>2026-04-25T07:50:32.062Z</time></trkpt><trkpt lat="37.62633" lon="-1.9663967"><ele>903.0</ele><time>2026-04-25T07:50:33.067Z</time></trkpt><trkpt lat="37.62638" lon="-1.9667533"><ele>906.5</ele><time>2026-04-25T07:50:34.064Z</time></trkpt><trkpt lat="37.6264283" lon="-1.96711"><ele>910.0</ele><time>2026-04-25T07:50:35.062Z</time></trkpt><trkpt lat="37.62648" lon="-1.96747"><ele>911.5</ele><time>2026-04-25T07:50:36.061Z</time></trkpt><trkpt lat="37.6265317" lon="-1.9678283"><ele>913.0</ele><time>2026-04-25T07:50:37.06Z</time></trkpt><trkpt lat="37.6265867" lon="-1.9681883"><ele>913.0</ele><time>2026-04-25T07:50:38.061Z</time></trkpt><trkpt lat="37.62664" lon="-1.9685483"><ele>913.0</ele><time>2026-04-25T07:50:39.063Z</time></trkpt><trkpt lat="37.62669" lon="-1.9689133"><ele>912.0</ele><time>2026-04-25T07:50:40.065Z</time></trkpt><trkpt lat="37.6267417" lon="-1.9692767"><ele>911.0</ele><time>2026-04-25T07:50:41.063Z</time></trkpt><trkpt lat="37.6267967" lon="-1.9696383"><ele>911.0</ele><time>2026-04-25T07:50:42.061Z</time></trkpt><trkpt lat="37.6268517" lon="-1.9700033"><ele>911.0</ele><time>2026-04-25T07:50:43.062Z</time></trkpt><trkpt lat="37.626905" lon="-1.9703667"><ele>910.5</ele><time>2026-04-25T07:50:44.064Z</time></trkpt><trkpt lat="37.626955" lon="-1.9707317"><ele>910.0</ele><time>2026-04-25T07:50:45.063Z</time></trkpt><trkpt lat="37.6270083" lon="-1.9710933"><ele>913.0</ele><time>2026-04-25T07:50:46.064Z</time></trkpt><trkpt lat="37.6270583" lon="-1.9714567"><ele>916.0</ele><time>2026-04-25T07:50:47.063Z</time></trkpt><trkpt lat="37.62711" lon="-1.9718183"><ele>916.0</ele><time>2026-04-25T07:50:48.064Z</time></trkpt><trkpt lat="37.6271617" lon="-1.9721833"><ele>916.0</ele><time>2026-04-25T07:50:49.067Z</time></trkpt><trkpt lat="37.6272117" lon="-1.9725483"><ele>915.5</ele><time>2026-04-25T07:50:50.066Z</time></trkpt><trkpt lat="37.6272633" lon="-1.972915"><ele>915.0</ele><time>2026-04-25T07:50:51.063Z</time></trkpt><trkpt lat="37.627315" lon="-1.9732783"><ele>916.5</ele><time>2026-04-25T07:50:52.063Z</time></trkpt><trkpt lat="37.6273667" lon="-1.9736433"><ele>918.0</ele><time>2026-04-25T07:50:53.065Z</time></trkpt><trkpt lat="37.62742" lon="-1.9740083"><ele>920.5</ele><time>2026-04-25T07:50:54.065Z</time></trkpt><trkpt lat="37.627475" lon="-1.9743733"><ele>923.0</ele><time>2026-04-25T07:50:55.064Z</time></trkpt><trkpt lat="37.627525" lon="-1.9747367"><ele>923.5</ele><time>2026-04-25T07:50:56.065Z</time></trkpt><trkpt lat="37.6275767" lon="-1.9751"><ele>924.0</ele><time>2026-04-25T07:50:57.058Z</time></trkpt><trkpt lat="37.6276233" lon="-1.9754633"><ele>924.0</ele><time>2026-04-25T07:50:58.062Z</time></trkpt><trkpt lat="37.6276683" lon="-1.9758267"><ele>924.0</ele><time>2026-04-25T07:50:59.063Z</time></trkpt><trkpt lat="37.62771" lon="-1.97619"><ele>923.5</ele><time>2026-04-25T07:51:00.064Z</time></trkpt><trkpt lat="37.6277483" lon="-1.976555"><ele>923.0</ele><time>2026-04-25T07:51:01.064Z</time></trkpt><trkpt lat="37.62778" lon="-1.97692"><ele>922.5</ele><time>2026-04-25T07:51:02.063Z</time></trkpt><trkpt lat="37.6278067" lon="-1.9772833"><ele>922.0</ele><time>2026-04-25T07:51:03.062Z</time></trkpt><trkpt lat="37.6278283" lon="-1.9776467"><ele>924.0</ele><time>2026-04-25T07:51:04.062Z</time></trkpt><trkpt lat="37.6278417" lon="-1.97801"><ele>926.0</ele><time>2026-04-25T07:51:05.065Z</time></trkpt><trkpt lat="37.6278483" lon="-1.978375"><ele>928.0</ele><time>2026-04-25T07:51:06.061Z</time></trkpt><trkpt lat="37.62785" lon="-1.9787383"><ele>930.0</ele><time>2026-04-25T07:51:07.065Z</time></trkpt><trkpt lat="37.627845" lon="-1.9791"><ele>930.0</ele><time>2026-04-25T07:51:08.063Z</time></trkpt><trkpt lat="37.627835" lon="-1.9794617"><ele>930.0</ele><time>2026-04-25T07:51:09.065Z</time></trkpt><trkpt lat="37.6278183" lon="-1.9798217"><ele>928.0</ele><time>2026-04-25T07:51:10.063Z</time></trkpt><trkpt lat="37.6277983" lon="-1.9801817"><ele>926.0</ele><time>2026-04-25T07:51:11.065Z</time></trkpt><trkpt lat="37.627775" lon="-1.98054"><ele>927.5</ele><time>2026-04-25T07:51:12.064Z</time></trkpt><trkpt lat="37.62775" lon="-1.9809"><ele>929.0</ele><time>2026-04-25T07:51:13.059Z</time></trkpt><trkpt lat="37.6277267" lon="-1.9812567"><ele>929.0</ele><time>2026-04-25T07:51:14.063Z</time></trkpt><trkpt lat="37.6276983" lon="-1.9816133"><ele>929.0</ele><time>2026-04-25T07:51:15.065Z</time></trkpt><trkpt lat="37.6276667" lon="-1.981965"><ele>929.0</ele><time>2026-04-25T07:51:16.065Z</time></trkpt><trkpt lat="37.6276333" lon="-1.9823167"><ele>929.0</ele><time>2026-04-25T07:51:17.062Z</time></trkpt><trkpt lat="37.627595" lon="-1.9826667"><ele>929.0</ele><time>2026-04-25T07:51:18.06Z</time></trkpt><trkpt lat="37.627555" lon="-1.9830183"><ele>929.0</ele><time>2026-04-25T07:51:19.064Z</time></trkpt><trkpt lat="37.627515" lon="-1.983365"><ele>928.0</ele><time>2026-04-25T07:51:20.064Z</time></trkpt><trkpt lat="37.6274733" lon="-1.9837117"><ele>927.0</ele><time>2026-04-25T07:51:21.061Z</time></trkpt><trkpt lat="37.6274317" lon="-1.9840617"><ele>926.0</ele><time>2026-04-25T07:51:22.059Z</time></trkpt><trkpt lat="37.6273933" lon="-1.9844133"><ele>925.0</ele><time>2026-04-25T07:51:23.061Z</time></trkpt><trkpt lat="37.627355" lon="-1.98477"><ele>923.0</ele><time>2026-04-25T07:51:24.06Z</time></trkpt><trkpt lat="37.627315" lon="-1.9851283"><ele>921.0</ele><time>2026-04-25T07:51:25.063Z</time></trkpt><trkpt lat="37.6272733" lon="-1.9854883"><ele>922.0</ele><time>2026-04-25T07:51:26.059Z</time></trkpt><trkpt lat="37.6272333" lon="-1.9858483"><ele>923.0</ele><time>2026-04-25T07:51:27.06Z</time></trkpt><trkpt lat="37.6271933" lon="-1.98621"><ele>923.0</ele><time>2026-04-25T07:51:28.062Z</time></trkpt><trkpt lat="37.62715" lon="-1.9865717"><ele>923.0</ele><time>2026-04-25T07:51:29.062Z</time></trkpt><trkpt lat="37.6271067" lon="-1.9869333"><ele>927.5</ele><time>2026-04-25T07:51:30.061Z</time></trkpt><trkpt lat="37.6270633" lon="-1.9872933"><ele>932.0</ele><time>2026-04-25T07:51:31.062Z</time></trkpt><trkpt lat="37.6270283" lon="-1.9876567"><ele>932.5</ele><time>2026-04-25T07:51:32.062Z</time></trkpt><trkpt lat="37.6270067" lon="-1.9880233"><ele>933.0</ele><time>2026-04-25T07:51:33.062Z</time></trkpt><trkpt lat="37.6270033" lon="-1.98839"><ele>933.0</ele><time>2026-04-25T07:51:34.064Z</time></trkpt><trkpt lat="37.6270217" lon="-1.988755"><ele>933.0</ele><time>2026-04-25T07:51:35.06Z</time></trkpt><trkpt lat="37.6270533" lon="-1.98912"><ele>928.0</ele><time>2026-04-25T07:51:36.061Z</time></trkpt><trkpt lat="37.6271" lon="-1.9894767"><ele>923.0</ele><time>2026-04-25T07:51:37.062Z</time></trkpt><trkpt lat="37.6271567" lon="-1.98983"><ele>920.0</ele><time>2026-04-25T07:51:38.062Z</time></trkpt><trkpt lat="37.6272283" lon="-1.9901767"><ele>917.0</ele><time>2026-04-25T07:51:39.061Z</time></trkpt><trkpt lat="37.627315" lon="-1.9905183"><ele>916.5</ele><time>2026-04-25T07:51:40.057Z</time></trkpt><trkpt lat="37.6274133" lon="-1.9908483"><ele>916.0</ele><time>2026-04-25T07:51:41.06Z</time></trkpt><trkpt lat="37.6275267" lon="-1.9911683"><ele>916.0</ele><time>2026-04-25T07:51:42.063Z</time></trkpt><trkpt lat="37.6276533" lon="-1.9914783"><ele>916.0</ele><time>2026-04-25T07:51:43.062Z</time></trkpt><trkpt lat="37.62779" lon="-1.99178"><ele>917.5</ele><time>2026-04-25T07:51:44.063Z</time></trkpt><trkpt lat="37.627925" lon="-1.99208"><ele>919.0</ele><time>2026-04-25T07:51:45.062Z</time></trkpt><trkpt lat="37.6280617" lon="-1.9923783"><ele>919.5</ele><time>2026-04-25T07:51:46.062Z</time></trkpt><trkpt lat="37.628195" lon="-1.992675"><ele>920.0</ele><time>2026-04-25T07:51:47.065Z</time></trkpt><trkpt lat="37.6283267" lon="-1.9929783"><ele>920.0</ele><time>2026-04-25T07:51:48.06Z</time></trkpt><trkpt lat="37.6284483" lon="-1.9932867"><ele>920.0</ele><time>2026-04-25T07:51:49.066Z</time></trkpt><trkpt lat="37.628565" lon="-1.9935983"><ele>922.0</ele><time>2026-04-25T07:51:50.06Z</time></trkpt><trkpt lat="37.6286733" lon="-1.9939183"><ele>924.0</ele><time>2026-04-25T07:51:51.061Z</time></trkpt><trkpt lat="37.628775" lon="-1.9942417"><ele>924.0</ele><time>2026-04-25T07:51:52.059Z</time></trkpt><trkpt lat="37.62887" lon="-1.994565"><ele>924.0</ele><time>2026-04-25T07:51:53.061Z</time></trkpt><trkpt lat="37.628955" lon="-1.9948967"><ele>924.0</ele><time>2026-04-25T07:51:54.062Z</time></trkpt><trkpt lat="37.629035" lon="-1.9952267"><ele>924.0</ele><time>2026-04-25T07:51:55.067Z</time></trkpt><trkpt lat="37.6291117" lon="-1.99556"><ele>924.5</ele><time>2026-04-25T07:51:56.058Z</time></trkpt><trkpt lat="37.6291867" lon="-1.9958967"><ele>925.0</ele><time>2026-04-25T07:51:57.066Z</time></trkpt><trkpt lat="37.6292617" lon="-1.996235"><ele>925.0</ele><time>2026-04-25T07:51:58.06Z</time></trkpt><trkpt lat="37.6293367" lon="-1.996575"><ele>925.0</ele><time>2026-04-25T07:51:59.064Z</time></trkpt><trkpt lat="37.6294117" lon="-1.9969183"><ele>924.5</ele><time>2026-04-25T07:52:00.064Z</time></trkpt><trkpt lat="37.6294883" lon="-1.9972617"><ele>924.0</ele><time>2026-04-25T07:52:01.065Z</time></trkpt><trkpt lat="37.6295633" lon="-1.997605"><ele>924.0</ele><time>2026-04-25T07:52:02.06Z</time></trkpt><trkpt lat="37.6296367" lon="-1.9979517"><ele>924.0</ele><time>2026-04-25T07:52:03.066Z</time></trkpt><trkpt lat="37.62971" lon="-1.9982967"><ele>923.5</ele><time>2026-04-25T07:52:04.063Z</time></trkpt><trkpt lat="37.6297833" lon="-1.9986433"><ele>923.0</ele><time>2026-04-25T07:52:05.061Z</time></trkpt><trkpt lat="37.6298583" lon="-1.9989867"><ele>921.5</ele><time>2026-04-25T07:52:06.061Z</time></trkpt><trkpt lat="37.6299317" lon="-1.9993317"><ele>920.0</ele><time>2026-04-25T07:52:07.061Z</time></trkpt><trkpt lat="37.630005" lon="-1.9996733"><ele>920.0</ele><time>2026-04-25T07:52:08.059Z</time></trkpt><trkpt lat="37.6300767" lon="-2.000015"><ele>920.0</ele><time>2026-04-25T07:52:09.066Z</time></trkpt><trkpt lat="37.6301483" lon="-2.0003567"><ele>920.0</ele><time>2026-04-25T07:52:10.062Z</time></trkpt><trkpt lat="37.63022" lon="-2.000695"><ele>920.0</ele><time>2026-04-25T07:52:11.064Z</time></trkpt><trkpt lat="37.6302917" lon="-2.001035"><ele>920.0</ele><time>2026-04-25T07:52:12.062Z</time></trkpt><trkpt lat="37.630365" lon="-2.0013717"><ele>920.0</ele><time>2026-04-25T07:52:13.061Z</time></trkpt><trkpt lat="37.6304383" lon="-2.00171"><ele>919.5</ele><time>2026-04-25T07:52:14.06Z</time></trkpt><trkpt lat="37.63051" lon="-2.00205"><ele>919.0</ele><time>2026-04-25T07:52:15.063Z</time></trkpt><trkpt lat="37.6305833" lon="-2.0023933"><ele>920.0</ele><time>2026-04-25T07:52:16.062Z</time></trkpt><trkpt lat="37.6306517" lon="-2.0027367"><ele>921.0</ele><time>2026-04-25T07:52:17.065Z</time></trkpt><trkpt lat="37.63072" lon="-2.0030767"><ele>920.0</ele><time>2026-04-25T07:52:18.06Z</time></trkpt><trkpt lat="37.6307883" lon="-2.0034167"><ele>919.0</ele><time>2026-04-25T07:52:19.06Z</time></trkpt><trkpt lat="37.6308533" lon="-2.0037533"><ele>919.0</ele><time>2026-04-25T07:52:20.064Z</time></trkpt><trkpt lat="37.6309183" lon="-2.00409"><ele>919.0</ele><time>2026-04-25T07:52:21.064Z</time></trkpt><trkpt lat="37.6309833" lon="-2.0044283"><ele>919.0</ele><time>2026-04-25T07:52:22.065Z</time></trkpt><trkpt lat="37.63105" lon="-2.00477"><ele>919.0</ele><time>2026-04-25T07:52:23.064Z</time></trkpt><trkpt lat="37.6311117" lon="-2.0051117"><ele>921.5</ele><time>2026-04-25T07:52:24.065Z</time></trkpt><trkpt lat="37.6311733" lon="-2.005455"><ele>924.0</ele><time>2026-04-25T07:52:25.064Z</time></trkpt><trkpt lat="37.631235" lon="-2.0058017"><ele>921.5</ele><time>2026-04-25T07:52:26.064Z</time></trkpt><trkpt lat="37.6312933" lon="-2.0061433"><ele>919.0</ele><time>2026-04-25T07:52:27.063Z</time></trkpt><trkpt lat="37.6313533" lon="-2.0064867"><ele>917.5</ele><time>2026-04-25T07:52:28.062Z</time></trkpt><trkpt lat="37.6314083" lon="-2.00683"><ele>916.0</ele><time>2026-04-25T07:52:29.066Z</time></trkpt><trkpt lat="37.6314633" lon="-2.007175"><ele>914.5</ele><time>2026-04-25T07:52:30.061Z</time></trkpt><trkpt lat="37.6315217" lon="-2.0075217"><ele>913.0</ele><time>2026-04-25T07:52:31.063Z</time></trkpt><trkpt lat="37.6315783" lon="-2.0078683"><ele>913.0</ele><time>2026-04-25T07:52:32.061Z</time></trkpt><trkpt lat="37.631635" lon="-2.0082133"><ele>913.0</ele><time>2026-04-25T07:52:33.063Z</time></trkpt><trkpt lat="37.6316917" lon="-2.0085617"><ele>911.5</ele><time>2026-04-25T07:52:34.059Z</time></trkpt><trkpt lat="37.6317483" lon="-2.0089067"><ele>910.0</ele><time>2026-04-25T07:52:35.064Z</time></trkpt><trkpt lat="37.6318033" lon="-2.0092533"><ele>908.0</ele><time>2026-04-25T07:52:36.062Z</time></trkpt><trkpt lat="37.6318583" lon="-2.0096"><ele>906.0</ele><time>2026-04-25T07:52:37.059Z</time></trkpt><trkpt lat="37.63191" lon="-2.0099467"><ele>906.0</ele><time>2026-04-25T07:52:38.059Z</time></trkpt><trkpt lat="37.63196" lon="-2.010295"><ele>906.0</ele><time>2026-04-25T07:52:39.059Z</time></trkpt><trkpt lat="37.6320117" lon="-2.0106417"><ele>906.0</ele><time>2026-04-25T07:52:40.061Z</time></trkpt><trkpt lat="37.6320617" lon="-2.01099"><ele>906.0</ele><time>2026-04-25T07:52:41.062Z</time></trkpt><trkpt lat="37.6321133" lon="-2.0113383"><ele>906.0</ele><time>2026-04-25T07:52:42.063Z</time></trkpt><trkpt lat="37.6321633" lon="-2.011685"><ele>906.0</ele><time>2026-04-25T07:52:43.062Z</time></trkpt><trkpt lat="37.6322133" lon="-2.012035"><ele>906.0</ele><time>2026-04-25T07:52:44.062Z</time></trkpt><trkpt lat="37.6322633" lon="-2.0123817"><ele>906.0</ele><time>2026-04-25T07:52:45.063Z</time></trkpt><trkpt lat="37.632315" lon="-2.0127283"><ele>905.0</ele><time>2026-04-25T07:52:46.064Z</time></trkpt><trkpt lat="37.6323667" lon="-2.0130733"><ele>904.0</ele><time>2026-04-25T07:52:47.065Z</time></trkpt><trkpt lat="37.6324183" lon="-2.0134167"><ele>904.0</ele><time>2026-04-25T07:52:48.06Z</time></trkpt><trkpt lat="37.632465" lon="-2.0137583"><ele>904.0</ele><time>2026-04-25T07:52:49.061Z</time></trkpt><trkpt lat="37.63251" lon="-2.0141033"><ele>902.5</ele><time>2026-04-25T07:52:50.065Z</time></trkpt><trkpt lat="37.632555" lon="-2.0144467"><ele>901.0</ele><time>2026-04-25T07:52:51.061Z</time></trkpt><trkpt lat="37.6326017" lon="-2.0147933"><ele>900.0</ele><time>2026-04-25T07:52:52.062Z</time></trkpt><trkpt lat="37.6326483" lon="-2.0151383"><ele>899.0</ele><time>2026-04-25T07:52:53.06Z</time></trkpt><trkpt lat="37.6326983" lon="-2.015485"><ele>898.0</ele><time>2026-04-25T07:52:54.062Z</time></trkpt><trkpt lat="37.63275" lon="-2.0158317"><ele>897.0</ele><time>2026-04-25T07:52:55.063Z</time></trkpt><trkpt lat="37.6328033" lon="-2.01618"><ele>897.5</ele><time>2026-04-25T07:52:56.061Z</time></trkpt><trkpt lat="37.632855" lon="-2.0165283"><ele>898.0</ele><time>2026-04-25T07:52:57.064Z</time></trkpt><trkpt lat="37.632905" lon="-2.0168783"><ele>898.0</ele><time>2026-04-25T07:52:58.061Z</time></trkpt><trkpt lat="37.6329567" lon="-2.01723"><ele>898.0</ele><time>2026-04-25T07:52:59.06Z</time></trkpt><trkpt lat="37.6330083" lon="-2.0175817"><ele>896.0</ele><time>2026-04-25T07:53:00.057Z</time></trkpt><trkpt lat="37.63306" lon="-2.01793"><ele>894.0</ele><time>2026-04-25T07:53:01.067Z</time></trkpt><trkpt lat="37.63311" lon="-2.0182783"><ele>890.5</ele><time>2026-04-25T07:53:02.06Z</time></trkpt><trkpt lat="37.6331617" lon="-2.0186283"><ele>887.0</ele><time>2026-04-25T07:53:03.064Z</time></trkpt><trkpt lat="37.633215" lon="-2.01898"><ele>884.0</ele><time>2026-04-25T07:53:04.06Z</time></trkpt><trkpt lat="37.6332783" lon="-2.0193283"><ele>881.0</ele><time>2026-04-25T07:53:05.062Z</time></trkpt><trkpt lat="37.6333567" lon="-2.0196717"><ele>879.5</ele><time>2026-04-25T07:53:06.06Z</time></trkpt><trkpt lat="37.63345" lon="-2.0200083"><ele>878.0</ele><time>2026-04-25T07:53:07.059Z</time></trkpt><trkpt lat="37.6335567" lon="-2.02034"><ele>877.0</ele><time>2026-04-25T07:53:08.06Z</time></trkpt><trkpt lat="37.633675" lon="-2.0206633"><ele>876.0</ele><time>2026-04-25T07:53:09.057Z</time></trkpt><trkpt lat="37.6338117" lon="-2.0209767"><ele>872.5</ele><time>2026-04-25T07:53:10.063Z</time></trkpt><trkpt lat="37.6339617" lon="-2.02128"><ele>869.0</ele><time>2026-04-25T07:53:11.063Z</time></trkpt><trkpt lat="37.6341217" lon="-2.0215733"><ele>869.0</ele><time>2026-04-25T07:53:12.064Z</time></trkpt><trkpt lat="37.6342933" lon="-2.0218583"><ele>869.0</ele><time>2026-04-25T07:53:13.067Z</time></trkpt><trkpt lat="37.6344767" lon="-2.02213"><ele>865.0</ele><time>2026-04-25T07:53:14.065Z</time></trkpt><trkpt lat="37.6346733" lon="-2.02239"><ele>861.0</ele><time>2026-04-25T07:53:15.063Z</time></trkpt><trkpt lat="37.63488" lon="-2.0226367"><ele>861.0</ele><time>2026-04-25T07:53:16.061Z</time></trkpt><trkpt lat="37.6350967" lon="-2.0228683"><ele>861.0</ele><time>2026-04-25T07:53:17.064Z</time></trkpt><trkpt lat="37.6353233" lon="-2.023085"><ele>856.5</ele><time>2026-04-25T07:53:18.063Z</time></trkpt><trkpt lat="37.63556" lon="-2.023285"><ele>852.0</ele><time>2026-04-25T07:53:19.066Z</time></trkpt><trkpt lat="37.6358017" lon="-2.0234717"><ele>852.0</ele><time>2026-04-25T07:53:20.064Z</time></trkpt><trkpt lat="37.6360483" lon="-2.0236417"><ele>852.0</ele><time>2026-04-25T07:53:21.059Z</time></trkpt><trkpt lat="37.6363" lon="-2.0237983"><ele>849.5</ele><time>2026-04-25T07:53:22.059Z</time></trkpt><trkpt lat="37.6365533" lon="-2.0239517"><ele>847.0</ele><time>2026-04-25T07:53:23.061Z</time></trkpt><trkpt lat="37.6368017" lon="-2.02411"><ele>844.5</ele><time>2026-04-25T07:53:24.063Z</time></trkpt><trkpt lat="37.6370433" lon="-2.0242833"><ele>842.0</ele><time>2026-04-25T07:53:25.065Z</time></trkpt><trkpt lat="37.6372783" lon="-2.0244683"><ele>842.0</ele><time>2026-04-25T07:53:26.061Z</time></trkpt><trkpt lat="37.6375067" lon="-2.02467"><ele>842.0</ele><time>2026-04-25T07:53:27.062Z</time></trkpt><trkpt lat="37.6377267" lon="-2.0248867"><ele>841.0</ele><time>2026-04-25T07:53:28.059Z</time></trkpt><trkpt lat="37.6379367" lon="-2.025115"><ele>840.0</ele><time>2026-04-25T07:53:29.065Z</time></trkpt><trkpt lat="37.6381383" lon="-2.0253583"><ele>840.0</ele><time>2026-04-25T07:53:30.069Z</time></trkpt><trkpt lat="37.6383283" lon="-2.0256117"><ele>840.0</ele><time>2026-04-25T07:53:31.061Z</time></trkpt><trkpt lat="37.6385083" lon="-2.0258783"><ele>837.5</ele><time>2026-04-25T07:53:32.06Z</time></trkpt><trkpt lat="37.6386783" lon="-2.026155"><ele>835.0</ele><time>2026-04-25T07:53:33.062Z</time></trkpt><trkpt lat="37.638835" lon="-2.0264417"><ele>833.5</ele><time>2026-04-25T07:53:34.057Z</time></trkpt><trkpt lat="37.6389817" lon="-2.02674"><ele>832.0</ele><time>2026-04-25T07:53:35.066Z</time></trkpt><trkpt lat="37.6391133" lon="-2.0270483"><ele>832.0</ele><time>2026-04-25T07:53:36.066Z</time></trkpt><trkpt lat="37.6392333" lon="-2.0273683"><ele>832.0</ele><time>2026-04-25T07:53:37.062Z</time></trkpt><trkpt lat="37.6393417" lon="-2.027695"><ele>833.0</ele><time>2026-04-25T07:53:38.06Z</time></trkpt><trkpt lat="37.6394367" lon="-2.0280283"><ele>834.0</ele><time>2026-04-25T07:53:39.065Z</time></trkpt><trkpt lat="37.63952" lon="-2.028365"><ele>832.0</ele><time>2026-04-25T07:53:40.066Z</time></trkpt><trkpt lat="37.63959" lon="-2.0287083"><ele>830.0</ele><time>2026-04-25T07:53:41.06Z</time></trkpt><trkpt lat="37.6396483" lon="-2.029055"><ele>830.5</ele><time>2026-04-25T07:53:42.063Z</time></trkpt><trkpt lat="37.6396933" lon="-2.029405"><ele>831.0</ele><time>2026-04-25T07:53:43.062Z</time></trkpt><trkpt lat="37.6397233" lon="-2.029755"><ele>828.5</ele><time>2026-04-25T07:53:44.059Z</time></trkpt><trkpt lat="37.639735" lon="-2.030105"><ele>826.0</ele><time>2026-04-25T07:53:45.062Z</time></trkpt><trkpt lat="37.6397333" lon="-2.0304583"><ele>824.5</ele><time>2026-04-25T07:53:46.065Z</time></trkpt><trkpt lat="37.6397183" lon="-2.03081"><ele>823.0</ele><time>2026-04-25T07:53:47.062Z</time></trkpt><trkpt lat="37.6396933" lon="-2.0311633"><ele>823.0</ele><time>2026-04-25T07:53:48.065Z</time></trkpt><trkpt lat="37.6396517" lon="-2.03151"><ele>823.0</ele><time>2026-04-25T07:53:49.063Z</time></trkpt><trkpt lat="37.6395967" lon="-2.0318517"><ele>821.5</ele><time>2026-04-25T07:53:50.063Z</time></trkpt><trkpt lat="37.6395233" lon="-2.032185"><ele>820.0</ele><time>2026-04-25T07:53:51.06Z</time></trkpt><trkpt lat="37.6394383" lon="-2.0325133"><ele>817.0</ele><time>2026-04-25T07:53:52.062Z</time></trkpt><trkpt lat="37.63934" lon="-2.0328317"><ele>814.0</ele><time>2026-04-25T07:53:53.058Z</time></trkpt><trkpt lat="37.6392317" lon="-2.0331433"><ele>814.5</ele><time>2026-04-25T07:53:54.06Z</time></trkpt><trkpt lat="37.63911" lon="-2.0334467"><ele>815.0</ele><time>2026-04-25T07:53:55.061Z</time></trkpt><trkpt lat="37.6389733" lon="-2.0337433"><ele>815.0</ele><time>2026-04-25T07:53:56.061Z</time></trkpt><trkpt lat="37.63883" lon="-2.0340333"><ele>815.0</ele><time>2026-04-25T07:53:57.062Z</time></trkpt><trkpt lat="37.63868" lon="-2.034315"><ele>813.0</ele><time>2026-04-25T07:53:58.064Z</time></trkpt><trkpt lat="37.6385267" lon="-2.0345983"><ele>811.0</ele><time>2026-04-25T07:53:59.062Z</time></trkpt><trkpt lat="37.638375" lon="-2.0348833"><ele>810.5</ele><time>2026-04-25T07:54:00.062Z</time></trkpt><trkpt lat="37.63823" lon="-2.0351767"><ele>810.0</ele><time>2026-04-25T07:54:01.063Z</time></trkpt><trkpt lat="37.6381" lon="-2.03548"><ele>810.0</ele><time>2026-04-25T07:54:02.058Z</time></trkpt><trkpt lat="37.6379833" lon="-2.0357917"><ele>810.0</ele><time>2026-04-25T07:54:03.062Z</time></trkpt><trkpt lat="37.63788" lon="-2.0361117"><ele>806.5</ele><time>2026-04-25T07:54:04.063Z</time></trkpt><trkpt lat="37.63779" lon="-2.0364383"><ele>803.0</ele><time>2026-04-25T07:54:05.063Z</time></trkpt><trkpt lat="37.6377117" lon="-2.036775"><ele>802.0</ele><time>2026-04-25T07:54:06.061Z</time></trkpt><trkpt lat="37.6376467" lon="-2.037115"><ele>801.0</ele><time>2026-04-25T07:54:07.061Z</time></trkpt><trkpt lat="37.6375967" lon="-2.0374633"><ele>801.0</ele><time>2026-04-25T07:54:08.061Z</time></trkpt><trkpt lat="37.63756" lon="-2.037815"><ele>801.0</ele><time>2026-04-25T07:54:09.06Z</time></trkpt><trkpt lat="37.6375367" lon="-2.0381717"><ele>799.5</ele><time>2026-04-25T07:54:10.057Z</time></trkpt><trkpt lat="37.6375267" lon="-2.0385317"><ele>798.0</ele><time>2026-04-25T07:54:11.058Z</time></trkpt><trkpt lat="37.6375317" lon="-2.0388967"><ele>796.5</ele><time>2026-04-25T07:54:12.063Z</time></trkpt><trkpt lat="37.6375517" lon="-2.03926"><ele>795.0</ele><time>2026-04-25T07:54:13.059Z</time></trkpt><trkpt lat="37.6375917" lon="-2.0396233"><ele>794.0</ele><time>2026-04-25T07:54:14.061Z</time></trkpt><trkpt lat="37.637645" lon="-2.0399833"><ele>793.0</ele><time>2026-04-25T07:54:15.065Z</time></trkpt><trkpt lat="37.6377183" lon="-2.0403383"><ele>790.5</ele><time>2026-04-25T07:54:16.063Z</time></trkpt><trkpt lat="37.637805" lon="-2.0406883"><ele>788.0</ele><time>2026-04-25T07:54:17.063Z</time></trkpt><trkpt lat="37.637895" lon="-2.041035"><ele>785.5</ele><time>2026-04-25T07:54:18.064Z</time></trkpt><trkpt lat="37.6379867" lon="-2.04138"><ele>783.0</ele><time>2026-04-25T07:54:19.065Z</time></trkpt><trkpt lat="37.638075" lon="-2.0417183"><ele>780.5</ele><time>2026-04-25T07:54:20.063Z</time></trkpt><trkpt lat="37.6381617" lon="-2.0420517"><ele>778.0</ele><time>2026-04-25T07:54:21.065Z</time></trkpt><trkpt lat="37.6382467" lon="-2.0423817"><ele>776.5</ele><time>2026-04-25T07:54:22.063Z</time></trkpt><trkpt lat="37.6383283" lon="-2.0427067"><ele>775.0</ele><time>2026-04-25T07:54:23.068Z</time></trkpt><trkpt lat="37.6384117" lon="-2.0430283"><ele>775.5</ele><time>2026-04-25T07:54:24.065Z</time></trkpt><trkpt lat="37.6384933" lon="-2.0433483"><ele>776.0</ele><time>2026-04-25T07:54:25.063Z</time></trkpt><trkpt lat="37.638575" lon="-2.0436683"><ele>775.0</ele><time>2026-04-25T07:54:26.065Z</time></trkpt><trkpt lat="37.6386533" lon="-2.0439867"><ele>774.0</ele><time>2026-04-25T07:54:27.061Z</time></trkpt><trkpt lat="37.6387317" lon="-2.0443033"><ele>774.0</ele><time>2026-04-25T07:54:28.063Z</time></trkpt><trkpt lat="37.63881" lon="-2.04462"><ele>774.0</ele><time>2026-04-25T07:54:29.063Z</time></trkpt><trkpt lat="37.63889" lon="-2.044935"><ele>774.0</ele><time>2026-04-25T07:54:30.063Z</time></trkpt><trkpt lat="37.63897" lon="-2.0452517"><ele>774.0</ele><time>2026-04-25T07:54:31.063Z</time></trkpt><trkpt lat="37.6390483" lon="-2.0455683"><ele>772.0</ele><time>2026-04-25T07:54:32.064Z</time></trkpt><trkpt lat="37.6391283" lon="-2.045885"><ele>770.0</ele><time>2026-04-25T07:54:33.063Z</time></trkpt><trkpt lat="37.6392067" lon="-2.0461983"><ele>770.0</ele><time>2026-04-25T07:54:34.058Z</time></trkpt><trkpt lat="37.6392867" lon="-2.04651"><ele>770.0</ele><time>2026-04-25T07:54:35.061Z</time></trkpt><trkpt lat="37.639365" lon="-2.04682"><ele>770.0</ele><time>2026-04-25T07:54:36.06Z</time></trkpt><trkpt lat="37.6394417" lon="-2.04713"><ele>770.0</ele><time>2026-04-25T07:54:37.061Z</time></trkpt><trkpt lat="37.63952" lon="-2.0474383"><ele>767.5</ele><time>2026-04-25T07:54:38.063Z</time></trkpt><trkpt lat="37.6396" lon="-2.0477433"><ele>765.0</ele><time>2026-04-25T07:54:39.061Z</time></trkpt><trkpt lat="37.639685" lon="-2.0480467"><ele>765.0</ele><time>2026-04-25T07:54:40.061Z</time></trkpt><trkpt lat="37.6397767" lon="-2.0483417"><ele>765.0</ele><time>2026-04-25T07:54:41.063Z</time></trkpt><trkpt lat="37.63987" lon="-2.0486267"><ele>765.0</ele><time>2026-04-25T07:54:42.063Z</time></trkpt><trkpt lat="37.639965" lon="-2.0489083"><ele>765.0</ele><time>2026-04-25T07:54:43.062Z</time></trkpt><trkpt lat="37.6400683" lon="-2.0491833"><ele>766.0</ele><time>2026-04-25T07:54:44.062Z</time></trkpt><trkpt lat="37.640175" lon="-2.0494517"><ele>767.0</ele><time>2026-04-25T07:54:45.062Z</time></trkpt><trkpt lat="37.640285" lon="-2.049715"><ele>764.5</ele><time>2026-04-25T07:54:46.06Z</time></trkpt><trkpt lat="37.640395" lon="-2.04998"><ele>762.0</ele><time>2026-04-25T07:54:47.064Z</time></trkpt><trkpt lat="37.6405083" lon="-2.05024"><ele>762.0</ele><time>2026-04-25T07:54:48.067Z</time></trkpt><trkpt lat="37.6406167" lon="-2.0504917"><ele>762.0</ele><time>2026-04-25T07:54:49.064Z</time></trkpt><trkpt lat="37.6407217" lon="-2.0507317"><ele>762.0</ele><time>2026-04-25T07:54:50.071Z</time></trkpt><trkpt lat="37.640825" lon="-2.0509683"><ele>763.3333333333334</ele><time>2026-04-25T07:54:51.065Z</time></trkpt><trkpt lat="37.6409267" lon="-2.0512017"><ele>764.6666666666667</ele><time>2026-04-25T07:54:52.064Z</time></trkpt><trkpt lat="37.6410267" lon="-2.051435"><ele>766.0</ele><time>2026-04-25T07:54:53.063Z</time></trkpt><trkpt lat="37.6411233" lon="-2.0516667"><ele>763.6666666666667</ele><time>2026-04-25T07:54:54.064Z</time></trkpt><trkpt lat="37.641215" lon="-2.05189"><ele>761.3333333333334</ele><time>2026-04-25T07:54:55.065Z</time></trkpt><trkpt lat="37.6412967" lon="-2.0521033"><ele>759.0</ele><time>2026-04-25T07:54:56.063Z</time></trkpt><trkpt lat="37.6413733" lon="-2.0523117"><ele>760.6666666666666</ele><time>2026-04-25T07:54:57.059Z</time></trkpt><trkpt lat="37.6414467" lon="-2.0525183"><ele>762.3333333333333</ele><time>2026-04-25T07:54:58.062Z</time></trkpt><trkpt lat="37.6415133" lon="-2.05272"><ele>764.0</ele><time>2026-04-25T07:54:59.067Z</time></trkpt><trkpt lat="37.6415767" lon="-2.0529033"><ele>764.0</ele><time>2026-04-25T07:55:00.064Z</time></trkpt><trkpt lat="37.64164" lon="-2.0530667"><ele>764.0</ele><time>2026-04-25T07:55:01.06Z</time></trkpt><trkpt lat="37.6417017" lon="-2.0532217"><ele>764.0</ele><time>2026-04-25T07:55:02.059Z</time></trkpt><trkpt lat="37.6417683" lon="-2.0533733"><ele>764.0</ele><time>2026-04-25T07:55:03.064Z</time></trkpt><trkpt lat="37.641845" lon="-2.05352"><ele>763.75</ele><time>2026-04-25T07:55:04.058Z</time></trkpt><trkpt lat="37.6419317" lon="-2.05366"><ele>763.5</ele><time>2026-04-25T07:55:05.062Z</time></trkpt><trkpt lat="37.6420217" lon="-2.0537967"><ele>763.25</ele><time>2026-04-25T07:55:06.06Z</time></trkpt><trkpt lat="37.6421183" lon="-2.05393"><ele>763.0</ele><time>2026-04-25T07:55:07.06Z</time></trkpt><trkpt lat="37.6422117" lon="-2.0540483"><ele>764.8</ele><time>2026-04-25T07:55:08.061Z</time></trkpt><trkpt lat="37.6422967" lon="-2.0541517"><ele>766.5999999999999</ele><time>2026-04-25T07:55:09.06Z</time></trkpt><trkpt lat="37.6423717" lon="-2.05424"><ele>768.4000000000001</ele><time>2026-04-25T07:55:10.062Z</time></trkpt><trkpt lat="37.6424433" lon="-2.0543233"><ele>770.2</ele><time>2026-04-25T07:55:11.066Z</time></trkpt><trkpt lat="37.6425083" lon="-2.0544067"><ele>772.0</ele><time>2026-04-25T07:55:12.061Z</time></trkpt><trkpt lat="37.6425667" lon="-2.0544933"><ele>772.0</ele><time>2026-04-25T07:55:13.061Z</time></trkpt><trkpt lat="37.6426117" lon="-2.0545867"><ele>772.0</ele><time>2026-04-25T07:55:14.061Z</time></trkpt><trkpt lat="37.64264" lon="-2.054685"><ele>772.0</ele><time>2026-04-25T07:55:15.064Z</time></trkpt><trkpt lat="37.6426583" lon="-2.0547683"><ele>772.0</ele><time>2026-04-25T07:55:16.064Z</time></trkpt><trkpt lat="37.642695" lon="-2.0549067"><ele>772.0</ele><time>2026-04-25T07:55:18.06Z</time></trkpt><trkpt lat="37.642755" lon="-2.0550117"><ele>771.9999999999999</ele><time>2026-04-25T07:55:20.06Z</time></trkpt><trkpt lat="37.6428267" lon="-2.0550733"><ele>772.0</ele><time>2026-04-25T07:55:22.063Z</time></trkpt><trkpt lat="37.6428883" lon="-2.055115"><ele>772.0</ele><time>2026-04-25T07:55:24.059Z</time></trkpt><trkpt lat="37.642915" lon="-2.05521"><ele>772.0</ele><time>2026-04-25T07:55:27.06Z</time></trkpt><trkpt lat="37.64286" lon="-2.05525"><ele>771.9999999999999</ele><time>2026-04-25T07:55:29.063Z</time></trkpt><trkpt lat="37.642795" lon="-2.0552633"><ele>772.0</ele><time>2026-04-25T07:55:31.058Z</time></trkpt><trkpt lat="37.642675" lon="-2.05522"><ele>772.0</ele><time>2026-04-25T08:02:50.057Z</time></trkpt><trkpt lat="37.6426017" lon="-2.05512"><ele>772.0</ele><time>2026-04-25T08:02:52.062Z</time></trkpt><trkpt lat="37.6425733" lon="-2.055035"><ele>772.0</ele><time>2026-04-25T08:02:53.059Z</time></trkpt><trkpt lat="37.642565" lon="-2.0549283"><ele>772.0</ele><time>2026-04-25T08:02:54.064Z</time></trkpt><trkpt lat="37.6425617" lon="-2.0548133"><ele>772.0</ele><time>2026-04-25T08:02:55.058Z</time></trkpt><trkpt lat="37.6425467" lon="-2.054685"><ele>772.0</ele><time>2026-04-25T08:02:56.06Z</time></trkpt><trkpt lat="37.6425133" lon="-2.0545583"><ele>772.0</ele><time>2026-04-25T08:02:57.061Z</time></trkpt><trkpt lat="37.642445" lon="-2.0544583"><ele>772.0</ele><time>2026-04-25T08:02:58.064Z</time></trkpt><trkpt lat="37.642365" lon="-2.0543883"><ele>772.0</ele><time>2026-04-25T08:02:59.058Z</time></trkpt><trkpt lat="37.6422667" lon="-2.0543517"><ele>772.0</ele><time>2026-04-25T08:03:00.059Z</time></trkpt><trkpt lat="37.6421617" lon="-2.0543517"><ele>772.0</ele><time>2026-04-25T08:03:01.058Z</time></trkpt><trkpt lat="37.6420617" lon="-2.054385"><ele>772.0</ele><time>2026-04-25T08:03:02.063Z</time></trkpt><trkpt lat="37.64197" lon="-2.05446"><ele>772.0</ele><time>2026-04-25T08:03:03.062Z</time></trkpt><trkpt lat="37.641895" lon="-2.05457"><ele>772.0</ele><time>2026-04-25T08:03:04.061Z</time></trkpt><trkpt lat="37.6418483" lon="-2.0547067"><ele>772.0</ele><time>2026-04-25T08:03:05.061Z</time></trkpt><trkpt lat="37.6418333" lon="-2.0548567"><ele>773.0</ele><time>2026-04-25T08:03:06.065Z</time></trkpt><trkpt lat="37.6418317" lon="-2.0550233"><ele>774.0</ele><time>2026-04-25T08:03:07.058Z</time></trkpt><trkpt lat="37.6418383" lon="-2.0552117"><ele>775.0</ele><time>2026-04-25T08:03:08.064Z</time></trkpt><trkpt lat="37.6418517" lon="-2.05542"><ele>776.0</ele><time>2026-04-25T08:03:09.06Z</time></trkpt><trkpt lat="37.64186" lon="-2.0556383"><ele>777.0</ele><time>2026-04-25T08:03:10.061Z</time></trkpt><trkpt lat="37.6418667" lon="-2.055875"><ele>778.0</ele><time>2026-04-25T08:03:11.058Z</time></trkpt><trkpt lat="37.641865" lon="-2.0561183"><ele>779.0</ele><time>2026-04-25T08:03:12.064Z</time></trkpt><trkpt lat="37.6418533" lon="-2.0563767"><ele>778.6666666666667</ele><time>2026-04-25T08:03:13.064Z</time></trkpt><trkpt lat="37.641835" lon="-2.0566467"><ele>778.3333333333333</ele><time>2026-04-25T08:03:14.062Z</time></trkpt><trkpt lat="37.641815" lon="-2.05693"><ele>778.0</ele><time>2026-04-25T08:03:15.061Z</time></trkpt><trkpt lat="37.6417883" lon="-2.0572217"><ele>777.5</ele><time>2026-04-25T08:03:16.063Z</time></trkpt><trkpt lat="37.641755" lon="-2.05752"><ele>777.0</ele><time>2026-04-25T08:03:17.061Z</time></trkpt><trkpt lat="37.6417117" lon="-2.057825"><ele>777.0</ele><time>2026-04-25T08:03:18.061Z</time></trkpt><trkpt lat="37.6416617" lon="-2.0581367"><ele>777.0</ele><time>2026-04-25T08:03:19.057Z</time></trkpt><trkpt lat="37.6416017" lon="-2.0584567"><ele>775.0</ele><time>2026-04-25T08:03:20.061Z</time></trkpt><trkpt lat="37.6415333" lon="-2.0587783"><ele>773.0</ele><time>2026-04-25T08:03:21.062Z</time></trkpt><trkpt lat="37.64146" lon="-2.0591017"><ele>770.0</ele><time>2026-04-25T08:03:22.059Z</time></trkpt><trkpt lat="37.6413783" lon="-2.0594233"><ele>767.0</ele><time>2026-04-25T08:03:23.065Z</time></trkpt><trkpt lat="37.6412867" lon="-2.0597383"><ele>767.0</ele><time>2026-04-25T08:03:24.063Z</time></trkpt><trkpt lat="37.641185" lon="-2.0600483"><ele>767.0</ele><time>2026-04-25T08:03:25.064Z</time></trkpt><trkpt lat="37.6410733" lon="-2.0603533"><ele>767.5</ele><time>2026-04-25T08:03:26.059Z</time></trkpt><trkpt lat="37.640955" lon="-2.0606533"><ele>768.0</ele><time>2026-04-25T08:03:27.063Z</time></trkpt><trkpt lat="37.64083" lon="-2.06095"><ele>770.5</ele><time>2026-04-25T08:03:28.062Z</time></trkpt><trkpt lat="37.6407033" lon="-2.0612433"><ele>773.0</ele><time>2026-04-25T08:03:29.063Z</time></trkpt><trkpt lat="37.6405817" lon="-2.0615383"><ele>774.5</ele><time>2026-04-25T08:03:30.063Z</time></trkpt><trkpt lat="37.64046" lon="-2.0618367"><ele>776.0</ele><time>2026-04-25T08:03:31.061Z</time></trkpt><trkpt lat="37.64034" lon="-2.0621367"><ele>776.5</ele><time>2026-04-25T08:03:32.062Z</time></trkpt><trkpt lat="37.6402283" lon="-2.0624383"><ele>777.0</ele><time>2026-04-25T08:03:33.064Z</time></trkpt><trkpt lat="37.6401233" lon="-2.0627433"><ele>777.0</ele><time>2026-04-25T08:03:34.061Z</time></trkpt><trkpt lat="37.6400267" lon="-2.06305"><ele>777.0</ele><time>2026-04-25T08:03:35.061Z</time></trkpt><trkpt lat="37.63994" lon="-2.0633617"><ele>778.5</ele><time>2026-04-25T08:03:36.061Z</time></trkpt><trkpt lat="37.6398617" lon="-2.063675"><ele>780.0</ele><time>2026-04-25T08:03:37.061Z</time></trkpt><trkpt lat="37.6397933" lon="-2.0639917"><ele>781.5</ele><time>2026-04-25T08:03:38.061Z</time></trkpt><trkpt lat="37.63973" lon="-2.0643117"><ele>783.0</ele><time>2026-04-25T08:03:39.059Z</time></trkpt><trkpt lat="37.639675" lon="-2.0646333"><ele>785.5</ele><time>2026-04-25T08:03:40.066Z</time></trkpt><trkpt lat="37.6396267" lon="-2.06495"><ele>788.0</ele><time>2026-04-25T08:03:41.063Z</time></trkpt><trkpt lat="37.639585" lon="-2.0652717"><ele>788.0</ele><time>2026-04-25T08:03:42.063Z</time></trkpt><trkpt lat="37.639555" lon="-2.0655917"><ele>788.0</ele><time>2026-04-25T08:03:43.062Z</time></trkpt><trkpt lat="37.6395317" lon="-2.0659117"><ele>789.5</ele><time>2026-04-25T08:03:44.057Z</time></trkpt><trkpt lat="37.6395183" lon="-2.06623"><ele>791.0</ele><time>2026-04-25T08:03:45.063Z</time></trkpt><trkpt lat="37.639515" lon="-2.06655"><ele>794.0</ele><time>2026-04-25T08:03:46.061Z</time></trkpt><trkpt lat="37.63952" lon="-2.06687"><ele>797.0</ele><time>2026-04-25T08:03:47.058Z</time></trkpt><trkpt lat="37.6395333" lon="-2.0671883"><ele>797.5</ele><time>2026-04-25T08:03:48.06Z</time></trkpt><trkpt lat="37.6395517" lon="-2.067505"><ele>798.0</ele><time>2026-04-25T08:03:49.057Z</time></trkpt><trkpt lat="37.6395833" lon="-2.06782"><ele>798.0</ele><time>2026-04-25T08:03:50.066Z</time></trkpt><trkpt lat="37.63962" lon="-2.0681333"><ele>798.0</ele><time>2026-04-25T08:03:51.063Z</time></trkpt><trkpt lat="37.639665" lon="-2.068445"><ele>796.5</ele><time>2026-04-25T08:03:52.059Z</time></trkpt><trkpt lat="37.639715" lon="-2.068755"><ele>795.0</ele><time>2026-04-25T08:03:53.063Z</time></trkpt><trkpt lat="37.6397733" lon="-2.0690633"><ele>796.0</ele><time>2026-04-25T08:03:54.059Z</time></trkpt><trkpt lat="37.6398417" lon="-2.06937"><ele>797.0</ele><time>2026-04-25T08:03:55.063Z</time></trkpt><trkpt lat="37.6399167" lon="-2.0696783"><ele>796.5</ele><time>2026-04-25T08:03:56.062Z</time></trkpt><trkpt lat="37.6400033" lon="-2.0699883"><ele>796.0</ele><time>2026-04-25T08:03:57.061Z</time></trkpt><trkpt lat="37.6400983" lon="-2.0702983"><ele>796.0</ele><time>2026-04-25T08:03:58.06Z</time></trkpt><trkpt lat="37.6402017" lon="-2.0706067"><ele>796.0</ele><time>2026-04-25T08:03:59.062Z</time></trkpt><trkpt lat="37.640315" lon="-2.0709133"><ele>798.0</ele><time>2026-04-25T08:04:00.065Z</time></trkpt><trkpt lat="37.6404333" lon="-2.0712183"><ele>800.0</ele><time>2026-04-25T08:04:01.061Z</time></trkpt><trkpt lat="37.64056" lon="-2.0715183"><ele>799.0</ele><time>2026-04-25T08:04:02.064Z</time></trkpt><trkpt lat="37.6406967" lon="-2.0718117"><ele>798.0</ele><time>2026-04-25T08:04:03.063Z</time></trkpt><trkpt lat="37.6408383" lon="-2.0720967"><ele>798.0</ele><time>2026-04-25T08:04:04.062Z</time></trkpt><trkpt lat="37.64099" lon="-2.0723717"><ele>798.0</ele><time>2026-04-25T08:04:05.064Z</time></trkpt><trkpt lat="37.6411483" lon="-2.0726417"><ele>801.0</ele><time>2026-04-25T08:04:06.063Z</time></trkpt><trkpt lat="37.641315" lon="-2.0729033"><ele>804.0</ele><time>2026-04-25T08:04:07.063Z</time></trkpt><trkpt lat="37.6414833" lon="-2.0731583"><ele>803.5</ele><time>2026-04-25T08:04:08.061Z</time></trkpt><trkpt lat="37.64166" lon="-2.073405"><ele>803.0</ele><time>2026-04-25T08:04:09.063Z</time></trkpt><trkpt lat="37.6418417" lon="-2.0736433"><ele>803.5</ele><time>2026-04-25T08:04:10.063Z</time></trkpt><trkpt lat="37.6420267" lon="-2.073875"><ele>804.0</ele><time>2026-04-25T08:04:11.061Z</time></trkpt><trkpt lat="37.6422183" lon="-2.0740983"><ele>803.0</ele><time>2026-04-25T08:04:12.059Z</time></trkpt><trkpt lat="37.6424117" lon="-2.0743133"><ele>802.0</ele><time>2026-04-25T08:04:13.06Z</time></trkpt><trkpt lat="37.642605" lon="-2.0745267"><ele>802.0</ele><time>2026-04-25T08:04:14.063Z</time></trkpt><trkpt lat="37.6427967" lon="-2.07474"><ele>802.0</ele><time>2026-04-25T08:04:15.063Z</time></trkpt><trkpt lat="37.64299" lon="-2.0749517"><ele>802.0</ele><time>2026-04-25T08:04:16.06Z</time></trkpt><trkpt lat="37.64318" lon="-2.075165"><ele>802.0</ele><time>2026-04-25T08:04:17.061Z</time></trkpt><trkpt lat="37.6433683" lon="-2.0753817"><ele>802.0</ele><time>2026-04-25T08:04:18.06Z</time></trkpt><trkpt lat="37.6435517" lon="-2.0756017"><ele>802.0</ele><time>2026-04-25T08:04:19.062Z</time></trkpt><trkpt lat="37.6437317" lon="-2.0758267"><ele>802.5</ele><time>2026-04-25T08:04:20.063Z</time></trkpt><trkpt lat="37.6439067" lon="-2.0760567"><ele>803.0</ele><time>2026-04-25T08:04:21.06Z</time></trkpt><trkpt lat="37.6440783" lon="-2.0762883"><ele>803.0</ele><time>2026-04-25T08:04:22.063Z</time></trkpt><trkpt lat="37.644245" lon="-2.0765283"><ele>803.0</ele><time>2026-04-25T08:04:23.064Z</time></trkpt><trkpt lat="37.6444117" lon="-2.0767733"><ele>807.0</ele><time>2026-04-25T08:04:24.062Z</time></trkpt><trkpt lat="37.644575" lon="-2.0770267"><ele>811.0</ele><time>2026-04-25T08:04:25.058Z</time></trkpt><trkpt lat="37.6447383" lon="-2.07729"><ele>812.0</ele><time>2026-04-25T08:04:26.062Z</time></trkpt><trkpt lat="37.6448967" lon="-2.0775617"><ele>813.0</ele><time>2026-04-25T08:04:27.062Z</time></trkpt><trkpt lat="37.6450517" lon="-2.0778383"><ele>813.0</ele><time>2026-04-25T08:04:28.064Z</time></trkpt><trkpt lat="37.6451983" lon="-2.0781267"><ele>813.0</ele><time>2026-04-25T08:04:29.068Z</time></trkpt><trkpt lat="37.6453383" lon="-2.0784183"><ele>815.5</ele><time>2026-04-25T08:04:30.063Z</time></trkpt><trkpt lat="37.6454733" lon="-2.078715"><ele>818.0</ele><time>2026-04-25T08:04:31.061Z</time></trkpt><trkpt lat="37.6456033" lon="-2.0790117"><ele>820.0</ele><time>2026-04-25T08:04:32.061Z</time></trkpt><trkpt lat="37.6457267" lon="-2.0793133"><ele>822.0</ele><time>2026-04-25T08:04:33.061Z</time></trkpt><trkpt lat="37.6458433" lon="-2.0796183"><ele>822.0</ele><time>2026-04-25T08:04:34.059Z</time></trkpt><trkpt lat="37.645955" lon="-2.0799267"><ele>822.0</ele><time>2026-04-25T08:04:35.062Z</time></trkpt><trkpt lat="37.6460617" lon="-2.0802383"><ele>823.5</ele><time>2026-04-25T08:04:36.059Z</time></trkpt><trkpt lat="37.64616" lon="-2.080555"><ele>825.0</ele><time>2026-04-25T08:04:37.063Z</time></trkpt><trkpt lat="37.6462533" lon="-2.0808733"><ele>826.5</ele><time>2026-04-25T08:04:38.064Z</time></trkpt><trkpt lat="37.64634" lon="-2.0811917"><ele>828.0</ele><time>2026-04-25T08:04:39.061Z</time></trkpt><trkpt lat="37.6464233" lon="-2.0815133"><ele>830.0</ele><time>2026-04-25T08:04:40.063Z</time></trkpt><trkpt lat="37.6464983" lon="-2.0818367"><ele>832.0</ele><time>2026-04-25T08:04:41.064Z</time></trkpt><trkpt lat="37.6465683" lon="-2.0821633"><ele>831.5</ele><time>2026-04-25T08:04:42.057Z</time></trkpt><trkpt lat="37.64663" lon="-2.0824967"><ele>831.0</ele><time>2026-04-25T08:04:43.064Z</time></trkpt><trkpt lat="37.646685" lon="-2.08283"><ele>831.0</ele><time>2026-04-25T08:04:44.06Z</time></trkpt><trkpt lat="37.646735" lon="-2.0831617"><ele>831.0</ele><time>2026-04-25T08:04:45.065Z</time></trkpt><trkpt lat="37.64678" lon="-2.0834933"><ele>830.5</ele><time>2026-04-25T08:04:46.068Z</time></trkpt><trkpt lat="37.646815" lon="-2.0838267"><ele>830.0</ele><time>2026-04-25T08:04:47.063Z</time></trkpt><trkpt lat="37.646845" lon="-2.0841617"><ele>834.0</ele><time>2026-04-25T08:04:48.06Z</time></trkpt><trkpt lat="37.6468683" lon="-2.0844983"><ele>838.0</ele><time>2026-04-25T08:04:49.063Z</time></trkpt><trkpt lat="37.646885" lon="-2.084835"><ele>840.5</ele><time>2026-04-25T08:04:50.064Z</time></trkpt><trkpt lat="37.646895" lon="-2.0851717"><ele>843.0</ele><time>2026-04-25T08:04:51.063Z</time></trkpt><trkpt lat="37.6468967" lon="-2.0855117"><ele>843.5</ele><time>2026-04-25T08:04:52.065Z</time></trkpt><trkpt lat="37.6468917" lon="-2.085855"><ele>844.0</ele><time>2026-04-25T08:04:53.062Z</time></trkpt><trkpt lat="37.64688" lon="-2.0861983"><ele>844.0</ele><time>2026-04-25T08:04:54.061Z</time></trkpt><trkpt lat="37.6468617" lon="-2.0865417"><ele>844.0</ele><time>2026-04-25T08:04:55.063Z</time></trkpt><trkpt lat="37.6468383" lon="-2.086885"><ele>845.0</ele><time>2026-04-25T08:04:56.066Z</time></trkpt><trkpt lat="37.6468083" lon="-2.08723"><ele>846.0</ele><time>2026-04-25T08:04:57.066Z</time></trkpt><trkpt lat="37.6467733" lon="-2.0875717"><ele>846.5</ele><time>2026-04-25T08:04:58.067Z</time></trkpt><trkpt lat="37.64673" lon="-2.0879133"><ele>847.0</ele><time>2026-04-25T08:04:59.061Z</time></trkpt><trkpt lat="37.6466783" lon="-2.0882517"><ele>847.5</ele><time>2026-04-25T08:05:00.064Z</time></trkpt><trkpt lat="37.6466183" lon="-2.0885867"><ele>848.0</ele><time>2026-04-25T08:05:01.06Z</time></trkpt><trkpt lat="37.6465533" lon="-2.0889217"><ele>848.5</ele><time>2026-04-25T08:05:02.062Z</time></trkpt><trkpt lat="37.64648" lon="-2.089255"><ele>849.0</ele><time>2026-04-25T08:05:03.058Z</time></trkpt><trkpt lat="37.6464033" lon="-2.0895883"><ele>849.0</ele><time>2026-04-25T08:05:04.059Z</time></trkpt><trkpt lat="37.6463183" lon="-2.0899183"><ele>849.0</ele><time>2026-04-25T08:05:05.061Z</time></trkpt><trkpt lat="37.646225" lon="-2.0902417"><ele>850.0</ele><time>2026-04-25T08:05:06.06Z</time></trkpt><trkpt lat="37.646125" lon="-2.0905617"><ele>851.0</ele><time>2026-04-25T08:05:07.065Z</time></trkpt><trkpt lat="37.64602" lon="-2.0908767"><ele>853.0</ele><time>2026-04-25T08:05:08.058Z</time></trkpt><trkpt lat="37.645915" lon="-2.0911917"><ele>855.0</ele><time>2026-04-25T08:05:09.062Z</time></trkpt><trkpt lat="37.6458117" lon="-2.091505"><ele>856.5</ele><time>2026-04-25T08:05:10.062Z</time></trkpt><trkpt lat="37.6457117" lon="-2.0918167"><ele>858.0</ele><time>2026-04-25T08:05:11.06Z</time></trkpt><trkpt lat="37.6456083" lon="-2.09213"><ele>860.0</ele><time>2026-04-25T08:05:12.064Z</time></trkpt><trkpt lat="37.645505" lon="-2.0924433"><ele>862.0</ele><time>2026-04-25T08:05:13.065Z</time></trkpt><trkpt lat="37.6454017" lon="-2.0927583"><ele>862.5</ele><time>2026-04-25T08:05:14.061Z</time></trkpt><trkpt lat="37.645295" lon="-2.0930717"><ele>863.0</ele><time>2026-04-25T08:05:15.062Z</time></trkpt><trkpt lat="37.6451917" lon="-2.0933883"><ele>863.0</ele><time>2026-04-25T08:05:16.063Z</time></trkpt><trkpt lat="37.6450883" lon="-2.0937033"><ele>863.0</ele><time>2026-04-25T08:05:17.065Z</time></trkpt><trkpt lat="37.6449833" lon="-2.09402"><ele>865.0</ele><time>2026-04-25T08:05:18.06Z</time></trkpt><trkpt lat="37.64488" lon="-2.0943333"><ele>867.0</ele><time>2026-04-25T08:05:19.061Z</time></trkpt><trkpt lat="37.644775" lon="-2.09465"><ele>867.5</ele><time>2026-04-25T08:05:20.063Z</time></trkpt><trkpt lat="37.6446733" lon="-2.094965"><ele>868.0</ele><time>2026-04-25T08:05:21.065Z</time></trkpt><trkpt lat="37.64457" lon="-2.09528"><ele>868.0</ele><time>2026-04-25T08:05:22.06Z</time></trkpt><trkpt lat="37.644465" lon="-2.0955967"><ele>868.0</ele><time>2026-04-25T08:05:23.063Z</time></trkpt><trkpt lat="37.6443583" lon="-2.0959133"><ele>869.5</ele><time>2026-04-25T08:05:24.062Z</time></trkpt><trkpt lat="37.644255" lon="-2.09623"><ele>871.0</ele><time>2026-04-25T08:05:25.062Z</time></trkpt><trkpt lat="37.64415" lon="-2.09655"><ele>871.0</ele><time>2026-04-25T08:05:26.06Z</time></trkpt><trkpt lat="37.6440467" lon="-2.0968733"><ele>871.0</ele><time>2026-04-25T08:05:27.062Z</time></trkpt><trkpt lat="37.6439417" lon="-2.0971967"><ele>872.0</ele><time>2026-04-25T08:05:28.06Z</time></trkpt><trkpt lat="37.6438317" lon="-2.0975233"><ele>873.0</ele><time>2026-04-25T08:05:29.058Z</time></trkpt><trkpt lat="37.6437217" lon="-2.097855"><ele>875.0</ele><time>2026-04-25T08:05:30.066Z</time></trkpt><trkpt lat="37.6436083" lon="-2.0981867"><ele>877.0</ele><time>2026-04-25T08:05:31.061Z</time></trkpt><trkpt lat="37.6434967" lon="-2.09852"><ele>877.0</ele><time>2026-04-25T08:05:32.059Z</time></trkpt><trkpt lat="37.6433867" lon="-2.0988517"><ele>877.0</ele><time>2026-04-25T08:05:33.062Z</time></trkpt><trkpt lat="37.6432783" lon="-2.0991833"><ele>876.0</ele><time>2026-04-25T08:05:34.059Z</time></trkpt><trkpt lat="37.64317" lon="-2.0995167"><ele>875.0</ele><time>2026-04-25T08:05:35.061Z</time></trkpt><trkpt lat="37.6430633" lon="-2.0998517"><ele>875.5</ele><time>2026-04-25T08:05:36.061Z</time></trkpt><trkpt lat="37.6429617" lon="-2.1001867"><ele>876.0</ele><time>2026-04-25T08:05:37.062Z</time></trkpt><trkpt lat="37.6428667" lon="-2.1005267"><ele>873.0</ele><time>2026-04-25T08:05:38.061Z</time></trkpt><trkpt lat="37.6427817" lon="-2.10087"><ele>870.0</ele><time>2026-04-25T08:05:39.062Z</time></trkpt><trkpt lat="37.6427083" lon="-2.101215"><ele>870.0</ele><time>2026-04-25T08:05:40.063Z</time></trkpt><trkpt lat="37.6426417" lon="-2.1015667"><ele>870.0</ele><time>2026-04-25T08:05:41.061Z</time></trkpt><trkpt lat="37.6425767" lon="-2.1019217"><ele>869.0</ele><time>2026-04-25T08:05:42.064Z</time></trkpt><trkpt lat="37.6425217" lon="-2.1022817"><ele>868.0</ele><time>2026-04-25T08:05:43.062Z</time></trkpt><trkpt lat="37.6424767" lon="-2.102645"><ele>867.0</ele><time>2026-04-25T08:05:44.063Z</time></trkpt><trkpt lat="37.6424433" lon="-2.1030117"><ele>866.0</ele><time>2026-04-25T08:05:45.066Z</time></trkpt><trkpt lat="37.6424183" lon="-2.10338"><ele>865.5</ele><time>2026-04-25T08:05:46.062Z</time></trkpt><trkpt lat="37.6424033" lon="-2.103745"><ele>865.0</ele><time>2026-04-25T08:05:47.065Z</time></trkpt><trkpt lat="37.6424" lon="-2.1041083"><ele>864.0</ele><time>2026-04-25T08:05:48.059Z</time></trkpt><trkpt lat="37.642405" lon="-2.1044683"><ele>863.0</ele><time>2026-04-25T08:05:49.064Z</time></trkpt><trkpt lat="37.6424167" lon="-2.104825"><ele>862.5</ele><time>2026-04-25T08:05:50.06Z</time></trkpt><trkpt lat="37.6424367" lon="-2.1051833"><ele>862.0</ele><time>2026-04-25T08:05:51.064Z</time></trkpt><trkpt lat="37.6424533" lon="-2.10554"><ele>861.5</ele><time>2026-04-25T08:05:52.065Z</time></trkpt><trkpt lat="37.6424733" lon="-2.1058933"><ele>861.0</ele><time>2026-04-25T08:05:53.061Z</time></trkpt><trkpt lat="37.64249" lon="-2.1062433"><ele>862.0</ele><time>2026-04-25T08:05:54.064Z</time></trkpt><trkpt lat="37.6424967" lon="-2.1065883"><ele>863.0</ele><time>2026-04-25T08:05:55.061Z</time></trkpt><trkpt lat="37.64249" lon="-2.1069283"><ele>863.0</ele><time>2026-04-25T08:05:56.061Z</time></trkpt><trkpt lat="37.6424683" lon="-2.1072633"><ele>863.0</ele><time>2026-04-25T08:05:57.064Z</time></trkpt><trkpt lat="37.6424383" lon="-2.1075967"><ele>863.5</ele><time>2026-04-25T08:05:58.064Z</time></trkpt><trkpt lat="37.642395" lon="-2.1079283"><ele>864.0</ele><time>2026-04-25T08:05:59.063Z</time></trkpt><trkpt lat="37.64234" lon="-2.1082567"><ele>863.0</ele><time>2026-04-25T08:06:00.064Z</time></trkpt><trkpt lat="37.64227" lon="-2.10858"><ele>862.0</ele><time>2026-04-25T08:06:01.063Z</time></trkpt><trkpt lat="37.6421883" lon="-2.1089017"><ele>864.0</ele><time>2026-04-25T08:06:02.06Z</time></trkpt><trkpt lat="37.6420933" lon="-2.1092183"><ele>866.0</ele><time>2026-04-25T08:06:03.064Z</time></trkpt><trkpt lat="37.6419867" lon="-2.1095283"><ele>862.5</ele><time>2026-04-25T08:06:04.064Z</time></trkpt><trkpt lat="37.6418667" lon="-2.1098317"><ele>859.0</ele><time>2026-04-25T08:06:05.062Z</time></trkpt><trkpt lat="37.641735" lon="-2.1101267"><ele>859.0</ele><time>2026-04-25T08:06:06.065Z</time></trkpt><trkpt lat="37.6415933" lon="-2.1104133"><ele>859.0</ele><time>2026-04-25T08:06:07.064Z</time></trkpt><trkpt lat="37.6414367" lon="-2.11069"><ele>858.5</ele><time>2026-04-25T08:06:08.066Z</time></trkpt><trkpt lat="37.641275" lon="-2.11096"><ele>858.0</ele><time>2026-04-25T08:06:09.063Z</time></trkpt><trkpt lat="37.6411" lon="-2.11122"><ele>858.5</ele><time>2026-04-25T08:06:10.062Z</time></trkpt><trkpt lat="37.6409133" lon="-2.111465"><ele>859.0</ele><time>2026-04-25T08:06:11.064Z</time></trkpt><trkpt lat="37.6407183" lon="-2.1116967"><ele>859.0</ele><time>2026-04-25T08:06:12.064Z</time></trkpt><trkpt lat="37.6405117" lon="-2.111915"><ele>859.0</ele><time>2026-04-25T08:06:13.064Z</time></trkpt><trkpt lat="37.6403" lon="-2.1121233"><ele>860.0</ele><time>2026-04-25T08:06:14.062Z</time></trkpt><trkpt lat="37.6400783" lon="-2.11232"><ele>861.0</ele><time>2026-04-25T08:06:15.061Z</time></trkpt><trkpt lat="37.6398533" lon="-2.1125117"><ele>861.0</ele><time>2026-04-25T08:06:16.06Z</time></trkpt><trkpt lat="37.6396283" lon="-2.112705"><ele>861.0</ele><time>2026-04-25T08:06:17.06Z</time></trkpt><trkpt lat="37.6394017" lon="-2.1128967"><ele>859.5</ele><time>2026-04-25T08:06:18.061Z</time></trkpt><trkpt lat="37.639175" lon="-2.1130883"><ele>858.0</ele><time>2026-04-25T08:06:19.063Z</time></trkpt><trkpt lat="37.6389517" lon="-2.1132817"><ele>858.0</ele><time>2026-04-25T08:06:20.061Z</time></trkpt><trkpt lat="37.6387267" lon="-2.1134717"><ele>858.0</ele><time>2026-04-25T08:06:21.059Z</time></trkpt><trkpt lat="37.6385017" lon="-2.1136617"><ele>854.5</ele><time>2026-04-25T08:06:22.059Z</time></trkpt><trkpt lat="37.638275" lon="-2.1138517"><ele>851.0</ele><time>2026-04-25T08:06:23.066Z</time></trkpt><trkpt lat="37.6380483" lon="-2.1140417"><ele>852.0</ele><time>2026-04-25T08:06:24.061Z</time></trkpt><trkpt lat="37.637825" lon="-2.1142317"><ele>853.0</ele><time>2026-04-25T08:06:25.062Z</time></trkpt><trkpt lat="37.6376017" lon="-2.114425"><ele>853.0</ele><time>2026-04-25T08:06:26.061Z</time></trkpt><trkpt lat="37.63738" lon="-2.11462"><ele>853.0</ele><time>2026-04-25T08:06:27.063Z</time></trkpt><trkpt lat="37.6371583" lon="-2.1148083"><ele>854.5</ele><time>2026-04-25T08:06:28.06Z</time></trkpt><trkpt lat="37.636935" lon="-2.1149983"><ele>856.0</ele><time>2026-04-25T08:06:29.062Z</time></trkpt><trkpt lat="37.63671" lon="-2.1151867"><ele>856.0</ele><time>2026-04-25T08:06:30.062Z</time></trkpt><trkpt lat="37.6364833" lon="-2.1153733"><ele>856.0</ele><time>2026-04-25T08:06:31.064Z</time></trkpt><trkpt lat="37.63626" lon="-2.1155633"><ele>858.5</ele><time>2026-04-25T08:06:32.066Z</time></trkpt><trkpt lat="37.636035" lon="-2.115755"><ele>861.0</ele><time>2026-04-25T08:06:33.065Z</time></trkpt><trkpt lat="37.63581" lon="-2.1159483"><ele>861.0</ele><time>2026-04-25T08:06:34.062Z</time></trkpt><trkpt lat="37.6355833" lon="-2.1161417"><ele>861.0</ele><time>2026-04-25T08:06:35.064Z</time></trkpt><trkpt lat="37.6353567" lon="-2.116335"><ele>860.0</ele><time>2026-04-25T08:06:36.063Z</time></trkpt><trkpt lat="37.6351283" lon="-2.1165317"><ele>859.0</ele><time>2026-04-25T08:06:37.059Z</time></trkpt><trkpt lat="37.6348983" lon="-2.116725"><ele>861.5</ele><time>2026-04-25T08:06:38.063Z</time></trkpt><trkpt lat="37.63467" lon="-2.1169183"><ele>864.0</ele><time>2026-04-25T08:06:39.063Z</time></trkpt><trkpt lat="37.6344417" lon="-2.1171117"><ele>864.0</ele><time>2026-04-25T08:06:40.062Z</time></trkpt><trkpt lat="37.6342133" lon="-2.117305"><ele>864.0</ele><time>2026-04-25T08:06:41.062Z</time></trkpt><trkpt lat="37.633985" lon="-2.1174967"><ele>865.0</ele><time>2026-04-25T08:06:42.061Z</time></trkpt><trkpt lat="37.6337583" lon="-2.1176883"><ele>866.0</ele><time>2026-04-25T08:06:43.064Z</time></trkpt><trkpt lat="37.6335317" lon="-2.1178833"><ele>866.5</ele><time>2026-04-25T08:06:44.062Z</time></trkpt><trkpt lat="37.6333067" lon="-2.11808"><ele>867.0</ele><time>2026-04-25T08:06:45.062Z</time></trkpt><trkpt lat="37.6330883" lon="-2.118285"><ele>868.0</ele><time>2026-04-25T08:06:46.061Z</time></trkpt><trkpt lat="37.6328783" lon="-2.1185"><ele>869.0</ele><time>2026-04-25T08:06:47.061Z</time></trkpt><trkpt lat="37.6326717" lon="-2.118725"><ele>869.0</ele><time>2026-04-25T08:06:48.063Z</time></trkpt><trkpt lat="37.632475" lon="-2.1189567"><ele>869.0</ele><time>2026-04-25T08:06:49.063Z</time></trkpt><trkpt lat="37.63228" lon="-2.11919"><ele>869.0</ele><time>2026-04-25T08:06:50.062Z</time></trkpt><trkpt lat="37.632085" lon="-2.1194267"><ele>869.0</ele><time>2026-04-25T08:06:51.063Z</time></trkpt><trkpt lat="37.6318917" lon="-2.1196633"><ele>870.0</ele><time>2026-04-25T08:06:52.061Z</time></trkpt><trkpt lat="37.6316967" lon="-2.1199033"><ele>871.0</ele><time>2026-04-25T08:06:53.063Z</time></trkpt><trkpt lat="37.6315017" lon="-2.1201417"><ele>871.0</ele><time>2026-04-25T08:06:54.061Z</time></trkpt><trkpt lat="37.631305" lon="-2.1203783"><ele>871.0</ele><time>2026-04-25T08:06:55.065Z</time></trkpt><trkpt lat="37.63111" lon="-2.1206167"><ele>872.5</ele><time>2026-04-25T08:06:56.063Z</time></trkpt><trkpt lat="37.630915" lon="-2.1208517"><ele>874.0</ele><time>2026-04-25T08:06:57.063Z</time></trkpt><trkpt lat="37.6307183" lon="-2.1210867"><ele>874.0</ele><time>2026-04-25T08:06:58.06Z</time></trkpt><trkpt lat="37.63052" lon="-2.1213233"><ele>874.0</ele><time>2026-04-25T08:06:59.064Z</time></trkpt><trkpt lat="37.6303233" lon="-2.1215567"><ele>875.0</ele><time>2026-04-25T08:07:00.063Z</time></trkpt><trkpt lat="37.63013" lon="-2.12179"><ele>876.0</ele><time>2026-04-25T08:07:01.062Z</time></trkpt><trkpt lat="37.6299383" lon="-2.1220267"><ele>876.0</ele><time>2026-04-25T08:07:02.062Z</time></trkpt><trkpt lat="37.6297533" lon="-2.12227"><ele>876.0</ele><time>2026-04-25T08:07:03.064Z</time></trkpt><trkpt lat="37.6295733" lon="-2.1225183"><ele>876.0</ele><time>2026-04-25T08:07:04.065Z</time></trkpt><trkpt lat="37.6293983" lon="-2.1227733"><ele>876.0</ele><time>2026-04-25T08:07:05.064Z</time></trkpt><trkpt lat="37.62923" lon="-2.1230367"><ele>877.0</ele><time>2026-04-25T08:07:06.062Z</time></trkpt><trkpt lat="37.629065" lon="-2.123305"><ele>878.0</ele><time>2026-04-25T08:07:07.061Z</time></trkpt><trkpt lat="37.62891" lon="-2.12358"><ele>878.0</ele><time>2026-04-25T08:07:08.066Z</time></trkpt><trkpt lat="37.6287617" lon="-2.1238633"><ele>878.0</ele><time>2026-04-25T08:07:09.066Z</time></trkpt><trkpt lat="37.6286167" lon="-2.12415"><ele>879.0</ele><time>2026-04-25T08:07:10.062Z</time></trkpt><trkpt lat="37.6284817" lon="-2.1244417"><ele>880.0</ele><time>2026-04-25T08:07:11.065Z</time></trkpt><trkpt lat="37.628355" lon="-2.1247433"><ele>881.0</ele><time>2026-04-25T08:07:12.065Z</time></trkpt><trkpt lat="37.6282333" lon="-2.1250483"><ele>882.0</ele><time>2026-04-25T08:07:13.063Z</time></trkpt><trkpt lat="37.6281183" lon="-2.1253633"><ele>882.0</ele><time>2026-04-25T08:07:14.063Z</time></trkpt><trkpt lat="37.6280083" lon="-2.125685"><ele>882.0</ele><time>2026-04-25T08:07:15.061Z</time></trkpt><trkpt lat="37.6279067" lon="-2.1260117"><ele>883.5</ele><time>2026-04-25T08:07:16.059Z</time></trkpt><trkpt lat="37.6278117" lon="-2.1263433"><ele>885.0</ele><time>2026-04-25T08:07:17.066Z</time></trkpt><trkpt lat="37.6277267" lon="-2.1266783"><ele>885.0</ele><time>2026-04-25T08:07:18.062Z</time></trkpt><trkpt lat="37.6276483" lon="-2.1270183"><ele>885.0</ele><time>2026-04-25T08:07:19.068Z</time></trkpt><trkpt lat="37.6275783" lon="-2.127365"><ele>886.5</ele><time>2026-04-25T08:07:20.065Z</time></trkpt><trkpt lat="37.627515" lon="-2.1277133"><ele>888.0</ele><time>2026-04-25T08:07:21.061Z</time></trkpt><trkpt lat="37.6274633" lon="-2.1280633"><ele>889.0</ele><time>2026-04-25T08:07:22.067Z</time></trkpt><trkpt lat="37.6274183" lon="-2.1284133"><ele>890.0</ele><time>2026-04-25T08:07:23.064Z</time></trkpt><trkpt lat="37.6273767" lon="-2.128765"><ele>891.0</ele><time>2026-04-25T08:07:24.069Z</time></trkpt><trkpt lat="37.6273367" lon="-2.1291167"><ele>892.0</ele><time>2026-04-25T08:07:25.062Z</time></trkpt><trkpt lat="37.6272933" lon="-2.12947"><ele>892.0</ele><time>2026-04-25T08:07:26.063Z</time></trkpt><trkpt lat="37.62725" lon="-2.1298233"><ele>892.0</ele><time>2026-04-25T08:07:27.065Z</time></trkpt><trkpt lat="37.627205" lon="-2.1301783"><ele>892.0</ele><time>2026-04-25T08:07:28.065Z</time></trkpt><trkpt lat="37.6271633" lon="-2.1305333"><ele>892.0</ele><time>2026-04-25T08:07:29.059Z</time></trkpt><trkpt lat="37.6271217" lon="-2.1308883"><ele>891.5</ele><time>2026-04-25T08:07:30.064Z</time></trkpt><trkpt lat="37.62708" lon="-2.1312417"><ele>891.0</ele><time>2026-04-25T08:07:31.064Z</time></trkpt><trkpt lat="37.6270383" lon="-2.131595"><ele>891.0</ele><time>2026-04-25T08:07:32.063Z</time></trkpt><trkpt lat="37.626995" lon="-2.1319467"><ele>891.0</ele><time>2026-04-25T08:07:33.061Z</time></trkpt><trkpt lat="37.626955" lon="-2.1323"><ele>888.5</ele><time>2026-04-25T08:07:34.062Z</time></trkpt><trkpt lat="37.626915" lon="-2.1326517"><ele>886.0</ele><time>2026-04-25T08:07:35.059Z</time></trkpt><trkpt lat="37.626875" lon="-2.1330033"><ele>887.0</ele><time>2026-04-25T08:07:36.062Z</time></trkpt><trkpt lat="37.6268333" lon="-2.1333533"><ele>888.0</ele><time>2026-04-25T08:07:37.063Z</time></trkpt><trkpt lat="37.62679" lon="-2.1337017"><ele>888.0</ele><time>2026-04-25T08:07:38.065Z</time></trkpt><trkpt lat="37.6267467" lon="-2.1340483"><ele>888.0</ele><time>2026-04-25T08:07:39.062Z</time></trkpt><trkpt lat="37.6267017" lon="-2.134395"><ele>889.0</ele><time>2026-04-25T08:07:40.062Z</time></trkpt><trkpt lat="37.6266517" lon="-2.1347367"><ele>890.0</ele><time>2026-04-25T08:07:41.063Z</time></trkpt><trkpt lat="37.6265917" lon="-2.1350767"><ele>890.0</ele><time>2026-04-25T08:07:42.063Z</time></trkpt><trkpt lat="37.6265217" lon="-2.1354133"><ele>890.0</ele><time>2026-04-25T08:07:43.068Z</time></trkpt><trkpt lat="37.6264417" lon="-2.1357483"><ele>892.0</ele><time>2026-04-25T08:07:44.065Z</time></trkpt><trkpt lat="37.626355" lon="-2.13608"><ele>894.0</ele><time>2026-04-25T08:07:45.065Z</time></trkpt><trkpt lat="37.6262583" lon="-2.1364117"><ele>894.0</ele><time>2026-04-25T08:07:46.066Z</time></trkpt><trkpt lat="37.6261583" lon="-2.13674"><ele>894.0</ele><time>2026-04-25T08:07:47.062Z</time></trkpt><trkpt lat="37.626055" lon="-2.1370683"><ele>892.0</ele><time>2026-04-25T08:07:48.064Z</time></trkpt><trkpt lat="37.62595" lon="-2.1373967"><ele>890.0</ele><time>2026-04-25T08:07:49.064Z</time></trkpt><trkpt lat="37.625845" lon="-2.1377233"><ele>890.0</ele><time>2026-04-25T08:07:50.065Z</time></trkpt><trkpt lat="37.6257417" lon="-2.1380533"><ele>890.0</ele><time>2026-04-25T08:07:51.062Z</time></trkpt><trkpt lat="37.6256383" lon="-2.1383833"><ele>893.0</ele><time>2026-04-25T08:07:52.062Z</time></trkpt><trkpt lat="37.625535" lon="-2.138715"><ele>896.0</ele><time>2026-04-25T08:07:53.06Z</time></trkpt><trkpt lat="37.6254317" lon="-2.13905"><ele>894.5</ele><time>2026-04-25T08:07:54.066Z</time></trkpt><trkpt lat="37.6253283" lon="-2.1393867"><ele>893.0</ele><time>2026-04-25T08:07:55.063Z</time></trkpt><trkpt lat="37.6252317" lon="-2.1397267"><ele>894.0</ele><time>2026-04-25T08:07:56.068Z</time></trkpt><trkpt lat="37.62514" lon="-2.14007"><ele>895.0</ele><time>2026-04-25T08:07:57.065Z</time></trkpt><trkpt lat="37.6250533" lon="-2.1404133"><ele>898.0</ele><time>2026-04-25T08:07:58.062Z</time></trkpt><trkpt lat="37.6249683" lon="-2.14076"><ele>901.0</ele><time>2026-04-25T08:07:59.062Z</time></trkpt><trkpt lat="37.6248867" lon="-2.1411117"><ele>901.0</ele><time>2026-04-25T08:08:00.059Z</time></trkpt><trkpt lat="37.62481" lon="-2.141465"><ele>901.0</ele><time>2026-04-25T08:08:01.058Z</time></trkpt><trkpt lat="37.62474" lon="-2.1418217"><ele>901.5</ele><time>2026-04-25T08:08:02.063Z</time></trkpt><trkpt lat="37.6246767" lon="-2.1421767"><ele>902.0</ele><time>2026-04-25T08:08:03.062Z</time></trkpt><trkpt lat="37.6246217" lon="-2.1425367"><ele>902.0</ele><time>2026-04-25T08:08:04.062Z</time></trkpt><trkpt lat="37.6245683" lon="-2.1428933"><ele>902.0</ele><time>2026-04-25T08:08:05.062Z</time></trkpt><trkpt lat="37.62452" lon="-2.1432533"><ele>901.5</ele><time>2026-04-25T08:08:06.063Z</time></trkpt><trkpt lat="37.6244717" lon="-2.1436117"><ele>901.0</ele><time>2026-04-25T08:08:07.062Z</time></trkpt><trkpt lat="37.6244217" lon="-2.14397"><ele>902.5</ele><time>2026-04-25T08:08:08.07Z</time></trkpt><trkpt lat="37.62437" lon="-2.14433"><ele>904.0</ele><time>2026-04-25T08:08:09.064Z</time></trkpt><trkpt lat="37.6243167" lon="-2.1446867"><ele>905.0</ele><time>2026-04-25T08:08:10.062Z</time></trkpt><trkpt lat="37.6242583" lon="-2.1450417"><ele>906.0</ele><time>2026-04-25T08:08:11.061Z</time></trkpt><trkpt lat="37.6241967" lon="-2.145395"><ele>907.0</ele><time>2026-04-25T08:08:12.063Z</time></trkpt><trkpt lat="37.6241317" lon="-2.1457433"><ele>908.0</ele><time>2026-04-25T08:08:13.063Z</time></trkpt><trkpt lat="37.6240617" lon="-2.1460917"><ele>908.0</ele><time>2026-04-25T08:08:14.064Z</time></trkpt><trkpt lat="37.6239867" lon="-2.1464367"><ele>908.0</ele><time>2026-04-25T08:08:15.06Z</time></trkpt><trkpt lat="37.6239083" lon="-2.14678"><ele>909.5</ele><time>2026-04-25T08:08:16.063Z</time></trkpt><trkpt lat="37.6238267" lon="-2.1471217"><ele>911.0</ele><time>2026-04-25T08:08:17.064Z</time></trkpt><trkpt lat="37.6237383" lon="-2.14746"><ele>910.5</ele><time>2026-04-25T08:08:18.059Z</time></trkpt><trkpt lat="37.6236433" lon="-2.1477983"><ele>910.0</ele><time>2026-04-25T08:08:19.06Z</time></trkpt><trkpt lat="37.6235417" lon="-2.1481317"><ele>909.5</ele><time>2026-04-25T08:08:20.061Z</time></trkpt><trkpt lat="37.6234333" lon="-2.1484617"><ele>909.0</ele><time>2026-04-25T08:08:21.06Z</time></trkpt><trkpt lat="37.6233183" lon="-2.1487883"><ele>911.0</ele><time>2026-04-25T08:08:22.067Z</time></trkpt><trkpt lat="37.6232" lon="-2.1491183"><ele>913.0</ele><time>2026-04-25T08:08:23.068Z</time></trkpt><trkpt lat="37.6230767" lon="-2.1494417"><ele>913.0</ele><time>2026-04-25T08:08:24.064Z</time></trkpt><trkpt lat="37.622945" lon="-2.14976"><ele>913.0</ele><time>2026-04-25T08:08:25.06Z</time></trkpt><trkpt lat="37.6228067" lon="-2.1500733"><ele>910.5</ele><time>2026-04-25T08:08:26.064Z</time></trkpt><trkpt lat="37.622665" lon="-2.1503833"><ele>908.0</ele><time>2026-04-25T08:08:27.062Z</time></trkpt><trkpt lat="37.6225167" lon="-2.1506883"><ele>909.0</ele><time>2026-04-25T08:08:28.062Z</time></trkpt><trkpt lat="37.622365" lon="-2.1509917"><ele>910.0</ele><time>2026-04-25T08:08:29.061Z</time></trkpt><trkpt lat="37.6222083" lon="-2.15129"><ele>909.0</ele><time>2026-04-25T08:08:30.058Z</time></trkpt><trkpt lat="37.622045" lon="-2.1515833"><ele>908.0</ele><time>2026-04-25T08:08:31.062Z</time></trkpt><trkpt lat="37.6218767" lon="-2.151875"><ele>908.0</ele><time>2026-04-25T08:08:32.061Z</time></trkpt><trkpt lat="37.6217033" lon="-2.15216"><ele>908.0</ele><time>2026-04-25T08:08:33.062Z</time></trkpt><trkpt lat="37.62153" lon="-2.152445"><ele>910.0</ele><time>2026-04-25T08:08:34.059Z</time></trkpt><trkpt lat="37.621355" lon="-2.15273"><ele>912.0</ele><time>2026-04-25T08:08:35.062Z</time></trkpt><trkpt lat="37.6211833" lon="-2.1530133"><ele>911.0</ele><time>2026-04-25T08:08:36.065Z</time></trkpt><trkpt lat="37.6210133" lon="-2.153295"><ele>910.0</ele><time>2026-04-25T08:08:37.059Z</time></trkpt><trkpt lat="37.6208467" lon="-2.153575"><ele>910.0</ele><time>2026-04-25T08:08:38.064Z</time></trkpt><trkpt lat="37.62068" lon="-2.1538533"><ele>910.0</ele><time>2026-04-25T08:08:39.06Z</time></trkpt><trkpt lat="37.6205117" lon="-2.15413"><ele>910.0</ele><time>2026-04-25T08:08:40.069Z</time></trkpt><trkpt lat="37.6203433" lon="-2.154405"><ele>910.0</ele><time>2026-04-25T08:08:41.063Z</time></trkpt><trkpt lat="37.6201767" lon="-2.1546833"><ele>914.0</ele><time>2026-04-25T08:08:42.064Z</time></trkpt><trkpt lat="37.6200117" lon="-2.1549633"><ele>918.0</ele><time>2026-04-25T08:08:43.068Z</time></trkpt><trkpt lat="37.6198517" lon="-2.1552433"><ele>918.0</ele><time>2026-04-25T08:08:44.06Z</time></trkpt><trkpt lat="37.619695" lon="-2.1555267"><ele>918.0</ele><time>2026-04-25T08:08:45.061Z</time></trkpt><trkpt lat="37.61955" lon="-2.1558217"><ele>917.0</ele><time>2026-04-25T08:08:46.064Z</time></trkpt><trkpt lat="37.6194117" lon="-2.1561233"><ele>916.0</ele><time>2026-04-25T08:08:47.061Z</time></trkpt><trkpt lat="37.61928" lon="-2.1564333"><ele>918.0</ele><time>2026-04-25T08:08:48.066Z</time></trkpt><trkpt lat="37.6191567" lon="-2.1567467"><ele>920.0</ele><time>2026-04-25T08:08:49.062Z</time></trkpt><trkpt lat="37.6190417" lon="-2.1570683"><ele>921.5</ele><time>2026-04-25T08:08:50.061Z</time></trkpt><trkpt lat="37.6189333" lon="-2.15739"><ele>923.0</ele><time>2026-04-25T08:08:51.062Z</time></trkpt><trkpt lat="37.618835" lon="-2.15772"><ele>923.0</ele><time>2026-04-25T08:08:52.063Z</time></trkpt><trkpt lat="37.6187467" lon="-2.1580533"><ele>923.0</ele><time>2026-04-25T08:08:53.062Z</time></trkpt><trkpt lat="37.6186633" lon="-2.1583883"><ele>921.5</ele><time>2026-04-25T08:08:54.063Z</time></trkpt><trkpt lat="37.6185883" lon="-2.1587267"><ele>920.0</ele><time>2026-04-25T08:08:55.062Z</time></trkpt><trkpt lat="37.61852" lon="-2.1590667"><ele>920.0</ele><time>2026-04-25T08:08:56.063Z</time></trkpt><trkpt lat="37.6184633" lon="-2.1594117"><ele>920.0</ele><time>2026-04-25T08:08:57.064Z</time></trkpt><trkpt lat="37.618415" lon="-2.1597567"><ele>922.0</ele><time>2026-04-25T08:08:58.063Z</time></trkpt><trkpt lat="37.6183783" lon="-2.160105"><ele>924.0</ele><time>2026-04-25T08:08:59.064Z</time></trkpt><trkpt lat="37.6183483" lon="-2.1604517"><ele>924.5</ele><time>2026-04-25T08:09:00.061Z</time></trkpt><trkpt lat="37.6183233" lon="-2.1607967"><ele>925.0</ele><time>2026-04-25T08:09:01.067Z</time></trkpt><trkpt lat="37.6183017" lon="-2.1611417"><ele>925.0</ele><time>2026-04-25T08:09:02.065Z</time></trkpt><trkpt lat="37.6182833" lon="-2.161485"><ele>925.0</ele><time>2026-04-25T08:09:03.065Z</time></trkpt><trkpt lat="37.6182667" lon="-2.16183"><ele>925.0</ele><time>2026-04-25T08:09:04.064Z</time></trkpt><trkpt lat="37.6182533" lon="-2.162175"><ele>925.0</ele><time>2026-04-25T08:09:05.064Z</time></trkpt><trkpt lat="37.61824" lon="-2.1625167"><ele>925.0</ele><time>2026-04-25T08:09:06.058Z</time></trkpt><trkpt lat="37.6182267" lon="-2.162855"><ele>925.0</ele><time>2026-04-25T08:09:07.059Z</time></trkpt><trkpt lat="37.6182133" lon="-2.1631917"><ele>926.5</ele><time>2026-04-25T08:09:08.063Z</time></trkpt><trkpt lat="37.6181983" lon="-2.163525"><ele>928.0</ele><time>2026-04-25T08:09:09.062Z</time></trkpt><trkpt lat="37.6181783" lon="-2.1638617"><ele>929.0</ele><time>2026-04-25T08:09:10.06Z</time></trkpt><trkpt lat="37.6181583" lon="-2.1642"><ele>930.0</ele><time>2026-04-25T08:09:11.062Z</time></trkpt><trkpt lat="37.6181433" lon="-2.1645467"><ele>930.5</ele><time>2026-04-25T08:09:12.062Z</time></trkpt><trkpt lat="37.61813" lon="-2.1648983"><ele>931.0</ele><time>2026-04-25T08:09:13.068Z</time></trkpt><trkpt lat="37.6181183" lon="-2.1652383"><ele>931.0</ele><time>2026-04-25T08:09:14.061Z</time></trkpt><trkpt lat="37.618105" lon="-2.1655583"><ele>931.0</ele><time>2026-04-25T08:09:15.066Z</time></trkpt><trkpt lat="37.6180967" lon="-2.1658583"><ele>931.6666666666666</ele><time>2026-04-25T08:09:16.062Z</time></trkpt><trkpt lat="37.6180867" lon="-2.1661417"><ele>932.3333333333333</ele><time>2026-04-25T08:09:17.063Z</time></trkpt><trkpt lat="37.61808" lon="-2.1664233"><ele>933.0</ele><time>2026-04-25T08:09:18.064Z</time></trkpt><trkpt lat="37.6180783" lon="-2.16671"><ele>935.0</ele><time>2026-04-25T08:09:19.064Z</time></trkpt><trkpt lat="37.6180817" lon="-2.1670067"><ele>937.0</ele><time>2026-04-25T08:09:20.066Z</time></trkpt><trkpt lat="37.61809" lon="-2.1673133"><ele>938.0</ele><time>2026-04-25T08:09:21.059Z</time></trkpt><trkpt lat="37.6181017" lon="-2.1676317"><ele>939.0</ele><time>2026-04-25T08:09:22.064Z</time></trkpt><trkpt lat="37.6181183" lon="-2.1679633"><ele>940.0</ele><time>2026-04-25T08:09:23.06Z</time></trkpt><trkpt lat="37.6181383" lon="-2.1683017"><ele>941.0</ele><time>2026-04-25T08:09:24.064Z</time></trkpt><trkpt lat="37.6181633" lon="-2.1686483"><ele>941.0</ele><time>2026-04-25T08:09:25.061Z</time></trkpt><trkpt lat="37.6181933" lon="-2.169005"><ele>941.0</ele><time>2026-04-25T08:09:26.062Z</time></trkpt><trkpt lat="37.6182283" lon="-2.1693683"><ele>941.5</ele><time>2026-04-25T08:09:27.063Z</time></trkpt><trkpt lat="37.6182633" lon="-2.1697367"><ele>942.0</ele><time>2026-04-25T08:09:28.059Z</time></trkpt><trkpt lat="37.6183" lon="-2.1701033"><ele>942.5</ele><time>2026-04-25T08:09:29.064Z</time></trkpt><trkpt lat="37.6183367" lon="-2.1704667"><ele>943.0</ele><time>2026-04-25T08:09:30.057Z</time></trkpt><trkpt lat="37.6183717" lon="-2.1708267"><ele>942.5</ele><time>2026-04-25T08:09:31.066Z</time></trkpt><trkpt lat="37.6184067" lon="-2.1711817"><ele>942.0</ele><time>2026-04-25T08:09:32.065Z</time></trkpt><trkpt lat="37.6184417" lon="-2.1715333"><ele>942.0</ele><time>2026-04-25T08:09:33.062Z</time></trkpt><trkpt lat="37.61848" lon="-2.1718833"><ele>942.0</ele><time>2026-04-25T08:09:34.061Z</time></trkpt><trkpt lat="37.6185183" lon="-2.17223"><ele>942.0</ele><time>2026-04-25T08:09:35.064Z</time></trkpt><trkpt lat="37.618555" lon="-2.1725767"><ele>942.0</ele><time>2026-04-25T08:09:36.063Z</time></trkpt><trkpt lat="37.61859" lon="-2.1729217"><ele>940.5</ele><time>2026-04-25T08:09:37.067Z</time></trkpt><trkpt lat="37.618625" lon="-2.173265"><ele>939.0</ele><time>2026-04-25T08:09:38.065Z</time></trkpt><trkpt lat="37.61866" lon="-2.1736083"><ele>941.5</ele><time>2026-04-25T08:09:39.065Z</time></trkpt><trkpt lat="37.6186967" lon="-2.1739533"><ele>944.0</ele><time>2026-04-25T08:09:40.064Z</time></trkpt><trkpt lat="37.6187317" lon="-2.1742967"><ele>944.0</ele><time>2026-04-25T08:09:41.063Z</time></trkpt><trkpt lat="37.6187683" lon="-2.1746433"><ele>944.0</ele><time>2026-04-25T08:09:42.066Z</time></trkpt><trkpt lat="37.6188033" lon="-2.1749867"><ele>946.0</ele><time>2026-04-25T08:09:43.064Z</time></trkpt><trkpt lat="37.6188367" lon="-2.17533"><ele>948.0</ele><time>2026-04-25T08:09:44.059Z</time></trkpt><trkpt lat="37.6188667" lon="-2.1756717"><ele>948.0</ele><time>2026-04-25T08:09:45.06Z</time></trkpt><trkpt lat="37.6188917" lon="-2.1760117"><ele>948.0</ele><time>2026-04-25T08:09:46.061Z</time></trkpt><trkpt lat="37.61891" lon="-2.17635"><ele>949.5</ele><time>2026-04-25T08:09:47.06Z</time></trkpt><trkpt lat="37.61892" lon="-2.1766883"><ele>951.0</ele><time>2026-04-25T08:09:48.06Z</time></trkpt><trkpt lat="37.6189267" lon="-2.177025"><ele>952.0</ele><time>2026-04-25T08:09:49.064Z</time></trkpt><trkpt lat="37.6189267" lon="-2.1773617"><ele>953.0</ele><time>2026-04-25T08:09:50.061Z</time></trkpt><trkpt lat="37.6189183" lon="-2.177695"><ele>953.0</ele><time>2026-04-25T08:09:51.065Z</time></trkpt><trkpt lat="37.618905" lon="-2.1780267"><ele>953.0</ele><time>2026-04-25T08:09:52.061Z</time></trkpt><trkpt lat="37.6188883" lon="-2.178355"><ele>952.5</ele><time>2026-04-25T08:09:53.064Z</time></trkpt><trkpt lat="37.618865" lon="-2.1786817"><ele>952.0</ele><time>2026-04-25T08:09:54.064Z</time></trkpt><trkpt lat="37.6188367" lon="-2.17901"><ele>955.0</ele><time>2026-04-25T08:09:55.061Z</time></trkpt><trkpt lat="37.6188017" lon="-2.1793383"><ele>958.0</ele><time>2026-04-25T08:09:56.066Z</time></trkpt><trkpt lat="37.61876" lon="-2.1796683"><ele>959.0</ele><time>2026-04-25T08:09:57.06Z</time></trkpt><trkpt lat="37.6187117" lon="-2.1799967"><ele>960.0</ele><time>2026-04-25T08:09:58.065Z</time></trkpt><trkpt lat="37.618655" lon="-2.180325"><ele>957.0</ele><time>2026-04-25T08:09:59.065Z</time></trkpt><trkpt lat="37.6185933" lon="-2.1806533"><ele>954.0</ele><time>2026-04-25T08:10:00.064Z</time></trkpt><trkpt lat="37.6185233" lon="-2.1809817"><ele>954.0</ele><time>2026-04-25T08:10:01.064Z</time></trkpt><trkpt lat="37.61845" lon="-2.1813117"><ele>954.0</ele><time>2026-04-25T08:10:02.063Z</time></trkpt><trkpt lat="37.6183667" lon="-2.1816383"><ele>955.0</ele><time>2026-04-25T08:10:03.063Z</time></trkpt><trkpt lat="37.6182783" lon="-2.1819633"><ele>956.0</ele><time>2026-04-25T08:10:04.064Z</time></trkpt><trkpt lat="37.618185" lon="-2.1822867"><ele>958.0</ele><time>2026-04-25T08:10:05.064Z</time></trkpt><trkpt lat="37.6180867" lon="-2.1826117"><ele>960.0</ele><time>2026-04-25T08:10:06.064Z</time></trkpt><trkpt lat="37.617985" lon="-2.1829333"><ele>960.5</ele><time>2026-04-25T08:10:07.062Z</time></trkpt><trkpt lat="37.617875" lon="-2.183255"><ele>961.0</ele><time>2026-04-25T08:10:08.063Z</time></trkpt><trkpt lat="37.61776" lon="-2.1835717"><ele>959.5</ele><time>2026-04-25T08:10:09.067Z</time></trkpt><trkpt lat="37.6176383" lon="-2.1838817"><ele>958.0</ele><time>2026-04-25T08:10:10.072Z</time></trkpt><trkpt lat="37.6175083" lon="-2.1841883"><ele>958.0</ele><time>2026-04-25T08:10:11.062Z</time></trkpt><trkpt lat="37.6173717" lon="-2.1844933"><ele>958.0</ele><time>2026-04-25T08:10:12.066Z</time></trkpt><trkpt lat="37.6172283" lon="-2.184795"><ele>958.0</ele><time>2026-04-25T08:10:13.065Z</time></trkpt><trkpt lat="37.6170783" lon="-2.185095"><ele>958.0</ele><time>2026-04-25T08:10:14.063Z</time></trkpt><trkpt lat="37.61692" lon="-2.18539"><ele>958.5</ele><time>2026-04-25T08:10:15.066Z</time></trkpt><trkpt lat="37.6167567" lon="-2.18568"><ele>959.0</ele><time>2026-04-25T08:10:16.061Z</time></trkpt><trkpt lat="37.61659" lon="-2.1859667"><ele>959.0</ele><time>2026-04-25T08:10:17.063Z</time></trkpt><trkpt lat="37.6164167" lon="-2.1862517"><ele>959.0</ele><time>2026-04-25T08:10:18.063Z</time></trkpt><trkpt lat="37.61624" lon="-2.18653"><ele>959.0</ele><time>2026-04-25T08:10:19.061Z</time></trkpt><trkpt lat="37.616055" lon="-2.1868033"><ele>959.0</ele><time>2026-04-25T08:10:20.063Z</time></trkpt><trkpt lat="37.615865" lon="-2.1870767"><ele>959.0</ele><time>2026-04-25T08:10:21.062Z</time></trkpt><trkpt lat="37.6156717" lon="-2.1873433"><ele>959.0</ele><time>2026-04-25T08:10:22.06Z</time></trkpt><trkpt lat="37.61548" lon="-2.1876033"><ele>959.0</ele><time>2026-04-25T08:10:23.064Z</time></trkpt><trkpt lat="37.6152883" lon="-2.1878617"><ele>959.0</ele><time>2026-04-25T08:10:24.064Z</time></trkpt><trkpt lat="37.6151017" lon="-2.18812"><ele>960.5</ele><time>2026-04-25T08:10:25.063Z</time></trkpt><trkpt lat="37.6149167" lon="-2.1883833"><ele>962.0</ele><time>2026-04-25T08:10:26.065Z</time></trkpt><trkpt lat="37.61474" lon="-2.18865"><ele>962.0</ele><time>2026-04-25T08:10:27.057Z</time></trkpt><trkpt lat="37.6145717" lon="-2.188925"><ele>962.0</ele><time>2026-04-25T08:10:28.059Z</time></trkpt><trkpt lat="37.614415" lon="-2.18921"><ele>962.0</ele><time>2026-04-25T08:10:29.064Z</time></trkpt><trkpt lat="37.6142717" lon="-2.189505"><ele>962.0</ele><time>2026-04-25T08:10:30.065Z</time></trkpt><trkpt lat="37.6141417" lon="-2.1898067"><ele>962.5</ele><time>2026-04-25T08:10:31.058Z</time></trkpt><trkpt lat="37.61402" lon="-2.190115"><ele>963.0</ele><time>2026-04-25T08:10:32.062Z</time></trkpt><trkpt lat="37.6139083" lon="-2.1904283"><ele>963.0</ele><time>2026-04-25T08:10:33.062Z</time></trkpt><trkpt lat="37.6138083" lon="-2.1907483"><ele>963.0</ele><time>2026-04-25T08:10:34.061Z</time></trkpt><trkpt lat="37.6137183" lon="-2.191075"><ele>962.0</ele><time>2026-04-25T08:10:35.063Z</time></trkpt><trkpt lat="37.61364" lon="-2.191405"><ele>961.0</ele><time>2026-04-25T08:10:36.063Z</time></trkpt><trkpt lat="37.6135667" lon="-2.191735"><ele>961.0</ele><time>2026-04-25T08:10:37.064Z</time></trkpt><trkpt lat="37.613495" lon="-2.1920667"><ele>961.0</ele><time>2026-04-25T08:10:38.061Z</time></trkpt><trkpt lat="37.613425" lon="-2.1923967"><ele>962.5</ele><time>2026-04-25T08:10:39.063Z</time></trkpt><trkpt lat="37.6133533" lon="-2.192725"><ele>964.0</ele><time>2026-04-25T08:10:40.063Z</time></trkpt><trkpt lat="37.613285" lon="-2.1930567"><ele>964.0</ele><time>2026-04-25T08:10:41.06Z</time></trkpt><trkpt lat="37.6132167" lon="-2.1933883"><ele>964.0</ele><time>2026-04-25T08:10:42.064Z</time></trkpt><trkpt lat="37.6131467" lon="-2.1937217"><ele>965.5</ele><time>2026-04-25T08:10:43.065Z</time></trkpt><trkpt lat="37.613075" lon="-2.19405"><ele>967.0</ele><time>2026-04-25T08:10:44.063Z</time></trkpt><trkpt lat="37.6129967" lon="-2.1943817"><ele>967.0</ele><time>2026-04-25T08:10:45.058Z</time></trkpt><trkpt lat="37.6129133" lon="-2.1947133"><ele>967.0</ele><time>2026-04-25T08:10:46.062Z</time></trkpt><trkpt lat="37.6128233" lon="-2.1950433"><ele>967.0</ele><time>2026-04-25T08:10:47.064Z</time></trkpt><trkpt lat="37.6127267" lon="-2.1953733"><ele>967.0</ele><time>2026-04-25T08:10:48.061Z</time></trkpt><trkpt lat="37.61262" lon="-2.1956967"><ele>967.0</ele><time>2026-04-25T08:10:49.065Z</time></trkpt><trkpt lat="37.6125033" lon="-2.1960183"><ele>967.0</ele><time>2026-04-25T08:10:50.06Z</time></trkpt><trkpt lat="37.61238" lon="-2.1963367"><ele>968.0</ele><time>2026-04-25T08:10:51.064Z</time></trkpt><trkpt lat="37.6122517" lon="-2.19665"><ele>969.0</ele><time>2026-04-25T08:10:52.066Z</time></trkpt><trkpt lat="37.612115" lon="-2.19696"><ele>967.5</ele><time>2026-04-25T08:10:53.066Z</time></trkpt><trkpt lat="37.6119733" lon="-2.1972683"><ele>966.0</ele><time>2026-04-25T08:10:54.064Z</time></trkpt><trkpt lat="37.6118267" lon="-2.197575"><ele>966.0</ele><time>2026-04-25T08:10:55.066Z</time></trkpt><trkpt lat="37.611675" lon="-2.1978767"><ele>966.0</ele><time>2026-04-25T08:10:56.064Z</time></trkpt><trkpt lat="37.611525" lon="-2.1981767"><ele>967.5</ele><time>2026-04-25T08:10:57.061Z</time></trkpt><trkpt lat="37.6113717" lon="-2.198475"><ele>969.0</ele><time>2026-04-25T08:10:58.062Z</time></trkpt><trkpt lat="37.6112167" lon="-2.198775"><ele>969.5</ele><time>2026-04-25T08:10:59.065Z</time></trkpt><trkpt lat="37.611065" lon="-2.199075"><ele>970.0</ele><time>2026-04-25T08:11:00.064Z</time></trkpt><trkpt lat="37.6109117" lon="-2.1993767"><ele>970.0</ele><time>2026-04-25T08:11:01.062Z</time></trkpt><trkpt lat="37.6107583" lon="-2.1996817"><ele>970.0</ele><time>2026-04-25T08:11:02.063Z</time></trkpt><trkpt lat="37.6106017" lon="-2.1999867"><ele>969.5</ele><time>2026-04-25T08:11:03.063Z</time></trkpt><trkpt lat="37.610445" lon="-2.2002917"><ele>969.0</ele><time>2026-04-25T08:11:04.061Z</time></trkpt><trkpt lat="37.610285" lon="-2.2006"><ele>971.0</ele><time>2026-04-25T08:11:05.06Z</time></trkpt><trkpt lat="37.6101267" lon="-2.2009083"><ele>973.0</ele><time>2026-04-25T08:11:06.059Z</time></trkpt><trkpt lat="37.6099683" lon="-2.2012217"><ele>974.0</ele><time>2026-04-25T08:11:07.063Z</time></trkpt><trkpt lat="37.60981" lon="-2.2015367"><ele>975.0</ele><time>2026-04-25T08:11:08.06Z</time></trkpt><trkpt lat="37.6096533" lon="-2.2018517"><ele>975.0</ele><time>2026-04-25T08:11:09.063Z</time></trkpt><trkpt lat="37.609495" lon="-2.2021667"><ele>975.0</ele><time>2026-04-25T08:11:10.061Z</time></trkpt><trkpt lat="37.609335" lon="-2.2024817"><ele>975.5</ele><time>2026-04-25T08:11:11.065Z</time></trkpt><trkpt lat="37.609175" lon="-2.2027967"><ele>976.0</ele><time>2026-04-25T08:11:12.062Z</time></trkpt><trkpt lat="37.6090117" lon="-2.2031133"><ele>978.0</ele><time>2026-04-25T08:11:13.061Z</time></trkpt><trkpt lat="37.60885" lon="-2.2034283"><ele>980.0</ele><time>2026-04-25T08:11:14.062Z</time></trkpt><trkpt lat="37.60869" lon="-2.203745"><ele>978.5</ele><time>2026-04-25T08:11:15.064Z</time></trkpt><trkpt lat="37.6085317" lon="-2.20406"><ele>977.0</ele><time>2026-04-25T08:11:16.061Z</time></trkpt><trkpt lat="37.6083767" lon="-2.204375"><ele>977.0</ele><time>2026-04-25T08:11:17.062Z</time></trkpt><trkpt lat="37.6082217" lon="-2.2046867"><ele>977.0</ele><time>2026-04-25T08:11:18.065Z</time></trkpt><trkpt lat="37.6080683" lon="-2.205"><ele>978.0</ele><time>2026-04-25T08:11:19.063Z</time></trkpt><trkpt lat="37.607915" lon="-2.2053067"><ele>979.0</ele><time>2026-04-25T08:11:20.065Z</time></trkpt><trkpt lat="37.6077617" lon="-2.20561"><ele>979.0</ele><time>2026-04-25T08:11:21.064Z</time></trkpt><trkpt lat="37.6076117" lon="-2.20591"><ele>979.0</ele><time>2026-04-25T08:11:22.059Z</time></trkpt><trkpt lat="37.6074617" lon="-2.2062133"><ele>981.5</ele><time>2026-04-25T08:11:23.06Z</time></trkpt><trkpt lat="37.6073183" lon="-2.206515"><ele>984.0</ele><time>2026-04-25T08:11:24.064Z</time></trkpt><trkpt lat="37.6071783" lon="-2.206825"><ele>984.0</ele><time>2026-04-25T08:11:25.058Z</time></trkpt><trkpt lat="37.6070433" lon="-2.2071383"><ele>984.0</ele><time>2026-04-25T08:11:26.061Z</time></trkpt><trkpt lat="37.6069167" lon="-2.2074533"><ele>981.0</ele><time>2026-04-25T08:11:27.063Z</time></trkpt><trkpt lat="37.6067967" lon="-2.20777"><ele>978.0</ele><time>2026-04-25T08:11:28.064Z</time></trkpt><trkpt lat="37.6066817" lon="-2.2080917"><ele>980.0</ele><time>2026-04-25T08:11:29.062Z</time></trkpt><trkpt lat="37.606575" lon="-2.2084133"><ele>982.0</ele><time>2026-04-25T08:11:30.062Z</time></trkpt><trkpt lat="37.60647" lon="-2.20874"><ele>983.5</ele><time>2026-04-25T08:11:31.064Z</time></trkpt><trkpt lat="37.6063717" lon="-2.2090667"><ele>985.0</ele><time>2026-04-25T08:11:32.059Z</time></trkpt><trkpt lat="37.60628" lon="-2.2093967"><ele>985.0</ele><time>2026-04-25T08:11:33.063Z</time></trkpt><trkpt lat="37.6061933" lon="-2.2097233"><ele>985.0</ele><time>2026-04-25T08:11:34.06Z</time></trkpt><trkpt lat="37.60611" lon="-2.2100517"><ele>984.0</ele><time>2026-04-25T08:11:35.057Z</time></trkpt><trkpt lat="37.6060333" lon="-2.2103817"><ele>983.0</ele><time>2026-04-25T08:11:36.063Z</time></trkpt><trkpt lat="37.605955" lon="-2.2107117"><ele>983.0</ele><time>2026-04-25T08:11:37.06Z</time></trkpt><trkpt lat="37.605885" lon="-2.2110433"><ele>983.0</ele><time>2026-04-25T08:11:38.063Z</time></trkpt><trkpt lat="37.605825" lon="-2.2113767"><ele>983.5</ele><time>2026-04-25T08:11:39.061Z</time></trkpt><trkpt lat="37.60577" lon="-2.21171"><ele>984.0</ele><time>2026-04-25T08:11:40.063Z</time></trkpt><trkpt lat="37.605715" lon="-2.212045"><ele>986.5</ele><time>2026-04-25T08:11:41.065Z</time></trkpt><trkpt lat="37.6056617" lon="-2.21238"><ele>989.0</ele><time>2026-04-25T08:11:42.065Z</time></trkpt><trkpt lat="37.60561" lon="-2.2127133"><ele>989.0</ele><time>2026-04-25T08:11:43.063Z</time></trkpt><trkpt lat="37.6055567" lon="-2.2130483"><ele>989.0</ele><time>2026-04-25T08:11:44.063Z</time></trkpt><trkpt lat="37.6055033" lon="-2.2133833"><ele>990.5</ele><time>2026-04-25T08:11:45.064Z</time></trkpt><trkpt lat="37.6054517" lon="-2.2137217"><ele>992.0</ele><time>2026-04-25T08:11:46.06Z</time></trkpt><trkpt lat="37.6054033" lon="-2.2140633"><ele>992.0</ele><time>2026-04-25T08:11:47.065Z</time></trkpt><trkpt lat="37.605355" lon="-2.2144083"><ele>992.0</ele><time>2026-04-25T08:11:48.064Z</time></trkpt><trkpt lat="37.605305" lon="-2.214755"><ele>990.0</ele><time>2026-04-25T08:11:49.062Z</time></trkpt><trkpt lat="37.605255" lon="-2.2150983"><ele>988.0</ele><time>2026-04-25T08:11:50.062Z</time></trkpt><trkpt lat="37.6052033" lon="-2.2154433"><ele>989.5</ele><time>2026-04-25T08:11:51.062Z</time></trkpt><trkpt lat="37.6051483" lon="-2.2157883"><ele>991.0</ele><time>2026-04-25T08:11:52.062Z</time></trkpt><trkpt lat="37.60509" lon="-2.2161317"><ele>991.0</ele><time>2026-04-25T08:11:53.059Z</time></trkpt><trkpt lat="37.6050267" lon="-2.2164683"><ele>991.0</ele><time>2026-04-25T08:11:54.063Z</time></trkpt><trkpt lat="37.604955" lon="-2.2168017"><ele>991.5</ele><time>2026-04-25T08:11:55.062Z</time></trkpt><trkpt lat="37.6048767" lon="-2.2171317"><ele>992.0</ele><time>2026-04-25T08:11:56.067Z</time></trkpt><trkpt lat="37.6047883" lon="-2.2174583"><ele>993.0</ele><time>2026-04-25T08:11:57.063Z</time></trkpt><trkpt lat="37.6046933" lon="-2.2177833"><ele>994.0</ele><time>2026-04-25T08:11:58.063Z</time></trkpt><trkpt lat="37.6045883" lon="-2.2181067"><ele>994.5</ele><time>2026-04-25T08:11:59.063Z</time></trkpt><trkpt lat="37.6044767" lon="-2.2184283"><ele>995.0</ele><time>2026-04-25T08:12:00.063Z</time></trkpt><trkpt lat="37.604355" lon="-2.2187483"><ele>996.0</ele><time>2026-04-25T08:12:01.061Z</time></trkpt><trkpt lat="37.6042267" lon="-2.219065"><ele>997.0</ele><time>2026-04-25T08:12:02.062Z</time></trkpt><trkpt lat="37.6040967" lon="-2.219375"><ele>997.0</ele><time>2026-04-25T08:12:03.061Z</time></trkpt><trkpt lat="37.6039583" lon="-2.21968"><ele>997.0</ele><time>2026-04-25T08:12:04.064Z</time></trkpt><trkpt lat="37.6038183" lon="-2.2199817"><ele>996.5</ele><time>2026-04-25T08:12:05.064Z</time></trkpt><trkpt lat="37.6036767" lon="-2.22028"><ele>996.0</ele><time>2026-04-25T08:12:06.063Z</time></trkpt><trkpt lat="37.6035333" lon="-2.22058"><ele>997.5</ele><time>2026-04-25T08:12:07.063Z</time></trkpt><trkpt lat="37.6033917" lon="-2.22088"><ele>999.0</ele><time>2026-04-25T08:12:08.062Z</time></trkpt><trkpt lat="37.6032483" lon="-2.2211833"><ele>1000.0</ele><time>2026-04-25T08:12:09.062Z</time></trkpt><trkpt lat="37.603105" lon="-2.2214867"><ele>1001.0</ele><time>2026-04-25T08:12:10.063Z</time></trkpt><trkpt lat="37.6029583" lon="-2.22179"><ele>1000.5</ele><time>2026-04-25T08:12:11.06Z</time></trkpt><trkpt lat="37.6028133" lon="-2.222095"><ele>1000.0</ele><time>2026-04-25T08:12:12.064Z</time></trkpt><trkpt lat="37.6026667" lon="-2.2224"><ele>1002.0</ele><time>2026-04-25T08:12:13.064Z</time></trkpt><trkpt lat="37.6025167" lon="-2.2226967"><ele>1004.0</ele><time>2026-04-25T08:12:14.061Z</time></trkpt><trkpt lat="37.6023717" lon="-2.2229917"><ele>1004.5</ele><time>2026-04-25T08:12:15.069Z</time></trkpt><trkpt lat="37.6022283" lon="-2.2232867"><ele>1005.0</ele><time>2026-04-25T08:12:16.064Z</time></trkpt><trkpt lat="37.602085" lon="-2.22358"><ele>1005.5</ele><time>2026-04-25T08:12:17.063Z</time></trkpt><trkpt lat="37.6019433" lon="-2.223875"><ele>1006.0</ele><time>2026-04-25T08:12:18.067Z</time></trkpt><trkpt lat="37.601805" lon="-2.2241683"><ele>1006.5</ele><time>2026-04-25T08:12:19.059Z</time></trkpt><trkpt lat="37.6016667" lon="-2.224465"><ele>1007.0</ele><time>2026-04-25T08:12:20.063Z</time></trkpt><trkpt lat="37.60153" lon="-2.2247517"><ele>1009.0</ele><time>2026-04-25T08:12:21.059Z</time></trkpt><trkpt lat="37.601395" lon="-2.2250367"><ele>1011.0</ele><time>2026-04-25T08:12:22.056Z</time></trkpt><trkpt lat="37.60126" lon="-2.2253283"><ele>1009.0</ele><time>2026-04-25T08:12:23.067Z</time></trkpt><trkpt lat="37.6011283" lon="-2.22562"><ele>1007.0</ele><time>2026-04-25T08:12:24.066Z</time></trkpt><trkpt lat="37.6009933" lon="-2.225915"><ele>1007.0</ele><time>2026-04-25T08:12:25.058Z</time></trkpt><trkpt lat="37.60086" lon="-2.22621"><ele>1007.0</ele><time>2026-04-25T08:12:26.065Z</time></trkpt><trkpt lat="37.6007217" lon="-2.2265067"><ele>1006.0</ele><time>2026-04-25T08:12:27.061Z</time></trkpt><trkpt lat="37.6005867" lon="-2.2268033"><ele>1005.0</ele><time>2026-04-25T08:12:28.063Z</time></trkpt><trkpt lat="37.6004467" lon="-2.2270983"><ele>1004.5</ele><time>2026-04-25T08:12:29.062Z</time></trkpt><trkpt lat="37.6003067" lon="-2.2273967"><ele>1004.0</ele><time>2026-04-25T08:12:30.071Z</time></trkpt><trkpt lat="37.6000267" lon="-2.2279967"><ele>1006.0</ele><time>2026-04-25T08:12:32.061Z</time></trkpt><trkpt lat="37.5998867" lon="-2.2282933"><ele>1008.0</ele><time>2026-04-25T08:12:33.063Z</time></trkpt><trkpt lat="37.599745" lon="-2.22859"><ele>1008.0</ele><time>2026-04-25T08:12:34.062Z</time></trkpt><trkpt lat="37.5996033" lon="-2.2288867"><ele>1008.0</ele><time>2026-04-25T08:12:35.064Z</time></trkpt><trkpt lat="37.5994633" lon="-2.2291833"><ele>1005.0</ele><time>2026-04-25T08:12:36.066Z</time></trkpt><trkpt lat="37.5993217" lon="-2.22948"><ele>1002.0</ele><time>2026-04-25T08:12:37.063Z</time></trkpt><trkpt lat="37.5991817" lon="-2.2297767"><ele>1003.0</ele><time>2026-04-25T08:12:38.064Z</time></trkpt><trkpt lat="37.5990417" lon="-2.2300717"><ele>1004.0</ele><time>2026-04-25T08:12:39.064Z</time></trkpt><trkpt lat="37.598905" lon="-2.230365"><ele>1004.0</ele><time>2026-04-25T08:12:40.064Z</time></trkpt><trkpt lat="37.5987667" lon="-2.23066"><ele>1004.0</ele><time>2026-04-25T08:12:41.068Z</time></trkpt><trkpt lat="37.59863" lon="-2.2309567"><ele>1004.0</ele><time>2026-04-25T08:12:42.068Z</time></trkpt><trkpt lat="37.598495" lon="-2.2312517"><ele>1004.0</ele><time>2026-04-25T08:12:43.061Z</time></trkpt><trkpt lat="37.5983617" lon="-2.2315467"><ele>1004.5</ele><time>2026-04-25T08:12:44.064Z</time></trkpt><trkpt lat="37.5982333" lon="-2.231845"><ele>1005.0</ele><time>2026-04-25T08:12:45.067Z</time></trkpt><trkpt lat="37.5981117" lon="-2.2321417"><ele>1004.5</ele><time>2026-04-25T08:12:46.064Z</time></trkpt><trkpt lat="37.5979917" lon="-2.2324383"><ele>1004.0</ele><time>2026-04-25T08:12:47.067Z</time></trkpt><trkpt lat="37.597875" lon="-2.2327383"><ele>1004.0</ele><time>2026-04-25T08:12:48.059Z</time></trkpt><trkpt lat="37.597765" lon="-2.2330417"><ele>1004.0</ele><time>2026-04-25T08:12:49.06Z</time></trkpt><trkpt lat="37.5976567" lon="-2.2333467"><ele>1004.5</ele><time>2026-04-25T08:12:50.061Z</time></trkpt><trkpt lat="37.5975533" lon="-2.2336583"><ele>1005.0</ele><time>2026-04-25T08:12:51.063Z</time></trkpt><trkpt lat="37.597455" lon="-2.2339733"><ele>1006.5</ele><time>2026-04-25T08:12:52.062Z</time></trkpt><trkpt lat="37.5973617" lon="-2.2342933"><ele>1008.0</ele><time>2026-04-25T08:12:53.063Z</time></trkpt><trkpt lat="37.5972717" lon="-2.23462"><ele>1009.0</ele><time>2026-04-25T08:12:54.062Z</time></trkpt><trkpt lat="37.5971883" lon="-2.23495"><ele>1010.0</ele><time>2026-04-25T08:12:55.064Z</time></trkpt><trkpt lat="37.5971117" lon="-2.2352833"><ele>1010.0</ele><time>2026-04-25T08:12:56.064Z</time></trkpt><trkpt lat="37.59704" lon="-2.2356217"><ele>1010.0</ele><time>2026-04-25T08:12:57.065Z</time></trkpt><trkpt lat="37.596975" lon="-2.23596"><ele>1012.0</ele><time>2026-04-25T08:12:58.062Z</time></trkpt><trkpt lat="37.5969133" lon="-2.2363"><ele>1014.0</ele><time>2026-04-25T08:12:59.065Z</time></trkpt><trkpt lat="37.5968567" lon="-2.23664"><ele>1015.0</ele><time>2026-04-25T08:13:00.071Z</time></trkpt><trkpt lat="37.5968083" lon="-2.2369783"><ele>1016.0</ele><time>2026-04-25T08:13:01.059Z</time></trkpt><trkpt lat="37.5967633" lon="-2.237315"><ele>1016.5</ele><time>2026-04-25T08:13:02.064Z</time></trkpt><trkpt lat="37.5967233" lon="-2.2376517"><ele>1017.0</ele><time>2026-04-25T08:13:03.06Z</time></trkpt><trkpt lat="37.59669" lon="-2.2379867"><ele>1018.5</ele><time>2026-04-25T08:13:04.063Z</time></trkpt><trkpt lat="37.5966617" lon="-2.2383233"><ele>1020.0</ele><time>2026-04-25T08:13:05.064Z</time></trkpt><trkpt lat="37.5966417" lon="-2.23866"><ele>1020.0</ele><time>2026-04-25T08:13:06.063Z</time></trkpt><trkpt lat="37.5966267" lon="-2.2390017"><ele>1020.0</ele><time>2026-04-25T08:13:07.061Z</time></trkpt><trkpt lat="37.5966167" lon="-2.239345"><ele>1020.0</ele><time>2026-04-25T08:13:08.067Z</time></trkpt><trkpt lat="37.59661" lon="-2.2396883"><ele>1020.0</ele><time>2026-04-25T08:13:09.067Z</time></trkpt><trkpt lat="37.59661" lon="-2.240035"><ele>1019.5</ele><time>2026-04-25T08:13:10.06Z</time></trkpt><trkpt lat="37.596615" lon="-2.2403817"><ele>1019.0</ele><time>2026-04-25T08:13:11.062Z</time></trkpt><trkpt lat="37.596625" lon="-2.24073"><ele>1020.0</ele><time>2026-04-25T08:13:12.059Z</time></trkpt><trkpt lat="37.5966417" lon="-2.24108"><ele>1021.0</ele><time>2026-04-25T08:13:13.059Z</time></trkpt><trkpt lat="37.596665" lon="-2.2414267"><ele>1022.5</ele><time>2026-04-25T08:13:14.064Z</time></trkpt><trkpt lat="37.596695" lon="-2.241775"><ele>1024.0</ele><time>2026-04-25T08:13:15.063Z</time></trkpt><trkpt lat="37.5967317" lon="-2.24212"><ele>1024.5</ele><time>2026-04-25T08:13:16.062Z</time></trkpt><trkpt lat="37.596775" lon="-2.2424617"><ele>1025.0</ele><time>2026-04-25T08:13:17.064Z</time></trkpt><trkpt lat="37.5968217" lon="-2.2428017"><ele>1026.5</ele><time>2026-04-25T08:13:18.06Z</time></trkpt><trkpt lat="37.596875" lon="-2.24314"><ele>1028.0</ele><time>2026-04-25T08:13:19.065Z</time></trkpt><trkpt lat="37.5969317" lon="-2.2434767"><ele>1028.0</ele><time>2026-04-25T08:13:20.065Z</time></trkpt><trkpt lat="37.5969933" lon="-2.24381"><ele>1028.0</ele><time>2026-04-25T08:13:21.061Z</time></trkpt><trkpt lat="37.5970617" lon="-2.2441433"><ele>1028.5</ele><time>2026-04-25T08:13:22.063Z</time></trkpt><trkpt lat="37.597135" lon="-2.244475"><ele>1029.0</ele><time>2026-04-25T08:13:23.059Z</time></trkpt><trkpt lat="37.5972083" lon="-2.2448067"><ele>1029.0</ele><time>2026-04-25T08:13:24.077Z</time></trkpt><trkpt lat="37.5972833" lon="-2.2451383"><ele>1029.0</ele><time>2026-04-25T08:13:25.061Z</time></trkpt><trkpt lat="37.5973633" lon="-2.24547"><ele>1031.0</ele><time>2026-04-25T08:13:26.065Z</time></trkpt><trkpt lat="37.5974467" lon="-2.2457983"><ele>1033.0</ele><time>2026-04-25T08:13:27.066Z</time></trkpt><trkpt lat="37.5975333" lon="-2.2461267"><ele>1033.0</ele><time>2026-04-25T08:13:28.062Z</time></trkpt><trkpt lat="37.5976217" lon="-2.2464567"><ele>1033.0</ele><time>2026-04-25T08:13:29.06Z</time></trkpt><trkpt lat="37.5977133" lon="-2.2467833"><ele>1035.0</ele><time>2026-04-25T08:13:30.061Z</time></trkpt><trkpt lat="37.5978067" lon="-2.2471083"><ele>1037.0</ele><time>2026-04-25T08:13:31.062Z</time></trkpt><trkpt lat="37.5979033" lon="-2.2474333"><ele>1040.0</ele><time>2026-04-25T08:13:32.065Z</time></trkpt><trkpt lat="37.5980017" lon="-2.247755"><ele>1043.0</ele><time>2026-04-25T08:13:33.065Z</time></trkpt><trkpt lat="37.5981033" lon="-2.2480733"><ele>1043.0</ele><time>2026-04-25T08:13:34.062Z</time></trkpt><trkpt lat="37.5982067" lon="-2.2483917"><ele>1043.0</ele><time>2026-04-25T08:13:35.06Z</time></trkpt><trkpt lat="37.5983117" lon="-2.2487067"><ele>1042.5</ele><time>2026-04-25T08:13:36.061Z</time></trkpt><trkpt lat="37.59842" lon="-2.249025"><ele>1042.0</ele><time>2026-04-25T08:13:37.062Z</time></trkpt><trkpt lat="37.59853" lon="-2.2493433"><ele>1042.0</ele><time>2026-04-25T08:13:38.075Z</time></trkpt><trkpt lat="37.598645" lon="-2.24966"><ele>1042.0</ele><time>2026-04-25T08:13:39.061Z</time></trkpt><trkpt lat="37.5987633" lon="-2.2499767"><ele>1044.5</ele><time>2026-04-25T08:13:40.064Z</time></trkpt><trkpt lat="37.5988833" lon="-2.25029"><ele>1047.0</ele><time>2026-04-25T08:13:41.061Z</time></trkpt><trkpt lat="37.5990083" lon="-2.250605"><ele>1045.0</ele><time>2026-04-25T08:13:42.059Z</time></trkpt><trkpt lat="37.5991333" lon="-2.2509167"><ele>1043.0</ele><time>2026-04-25T08:13:43.064Z</time></trkpt><trkpt lat="37.59926" lon="-2.2512283"><ele>1043.0</ele><time>2026-04-25T08:13:44.062Z</time></trkpt><trkpt lat="37.59939" lon="-2.2515383"><ele>1043.0</ele><time>2026-04-25T08:13:45.065Z</time></trkpt><trkpt lat="37.5995217" lon="-2.251845"><ele>1043.5</ele><time>2026-04-25T08:13:46.06Z</time></trkpt><trkpt lat="37.599655" lon="-2.2521517"><ele>1044.0</ele><time>2026-04-25T08:13:47.065Z</time></trkpt><trkpt lat="37.59979" lon="-2.252455"><ele>1044.0</ele><time>2026-04-25T08:13:48.061Z</time></trkpt><trkpt lat="37.5999283" lon="-2.252755"><ele>1044.0</ele><time>2026-04-25T08:13:49.062Z</time></trkpt><trkpt lat="37.60007" lon="-2.2530517"><ele>1045.0</ele><time>2026-04-25T08:13:50.061Z</time></trkpt><trkpt lat="37.60021" lon="-2.2533433"><ele>1046.0</ele><time>2026-04-25T08:13:51.064Z</time></trkpt><trkpt lat="37.6003533" lon="-2.25363"><ele>1046.0</ele><time>2026-04-25T08:13:52.062Z</time></trkpt><trkpt lat="37.6005" lon="-2.2539167"><ele>1046.0</ele><time>2026-04-25T08:13:53.06Z</time></trkpt><trkpt lat="37.60065" lon="-2.2541983"><ele>1047.5</ele><time>2026-04-25T08:13:54.065Z</time></trkpt><trkpt lat="37.6008017" lon="-2.25448"><ele>1049.0</ele><time>2026-04-25T08:13:55.062Z</time></trkpt><trkpt lat="37.6009533" lon="-2.25476"><ele>1050.5</ele><time>2026-04-25T08:13:56.064Z</time></trkpt><trkpt lat="37.6011083" lon="-2.2550367"><ele>1052.0</ele><time>2026-04-25T08:13:57.063Z</time></trkpt><trkpt lat="37.6012633" lon="-2.25531"><ele>1053.5</ele><time>2026-04-25T08:13:58.063Z</time></trkpt><trkpt lat="37.6014217" lon="-2.25558"><ele>1055.0</ele><time>2026-04-25T08:13:59.062Z</time></trkpt><trkpt lat="37.6015783" lon="-2.25585"><ele>1055.5</ele><time>2026-04-25T08:14:00.063Z</time></trkpt><trkpt lat="37.601735" lon="-2.25612"><ele>1056.0</ele><time>2026-04-25T08:14:01.063Z</time></trkpt><trkpt lat="37.6018867" lon="-2.2563917"><ele>1059.0</ele><time>2026-04-25T08:14:02.059Z</time></trkpt><trkpt lat="37.602035" lon="-2.2566667"><ele>1062.0</ele><time>2026-04-25T08:14:03.064Z</time></trkpt><trkpt lat="37.6021767" lon="-2.256945"><ele>1062.0</ele><time>2026-04-25T08:14:04.062Z</time></trkpt><trkpt lat="37.6023117" lon="-2.2572283"><ele>1062.0</ele><time>2026-04-25T08:14:05.06Z</time></trkpt><trkpt lat="37.6024433" lon="-2.2575167"><ele>1061.0</ele><time>2026-04-25T08:14:06.06Z</time></trkpt><trkpt lat="37.6025717" lon="-2.25781"><ele>1060.0</ele><time>2026-04-25T08:14:07.066Z</time></trkpt><trkpt lat="37.6026983" lon="-2.2581083"><ele>1059.0</ele><time>2026-04-25T08:14:08.062Z</time></trkpt><trkpt lat="37.6028217" lon="-2.2584133"><ele>1058.0</ele><time>2026-04-25T08:14:09.061Z</time></trkpt><trkpt lat="37.60294" lon="-2.2587217"><ele>1059.0</ele><time>2026-04-25T08:14:10.069Z</time></trkpt><trkpt lat="37.6030533" lon="-2.2590367"><ele>1060.0</ele><time>2026-04-25T08:14:11.06Z</time></trkpt><trkpt lat="37.6031617" lon="-2.2593533"><ele>1060.0</ele><time>2026-04-25T08:14:12.069Z</time></trkpt><trkpt lat="37.603265" lon="-2.25967"><ele>1060.0</ele><time>2026-04-25T08:14:13.064Z</time></trkpt><trkpt lat="37.603365" lon="-2.2599883"><ele>1060.0</ele><time>2026-04-25T08:14:14.063Z</time></trkpt><trkpt lat="37.6034583" lon="-2.2603083"><ele>1060.0</ele><time>2026-04-25T08:14:15.064Z</time></trkpt><trkpt lat="37.603545" lon="-2.2606317"><ele>1061.0</ele><time>2026-04-25T08:14:16.061Z</time></trkpt><trkpt lat="37.6036283" lon="-2.260955"><ele>1062.0</ele><time>2026-04-25T08:14:17.061Z</time></trkpt><trkpt lat="37.603705" lon="-2.26128"><ele>1064.5</ele><time>2026-04-25T08:14:18.062Z</time></trkpt><trkpt lat="37.6037783" lon="-2.261605"><ele>1067.0</ele><time>2026-04-25T08:14:19.061Z</time></trkpt><trkpt lat="37.6038483" lon="-2.2619317"><ele>1067.0</ele><time>2026-04-25T08:14:20.065Z</time></trkpt><trkpt lat="37.6039083" lon="-2.26226"><ele>1067.0</ele><time>2026-04-25T08:14:21.061Z</time></trkpt><trkpt lat="37.6039633" lon="-2.2625933"><ele>1068.0</ele><time>2026-04-25T08:14:22.061Z</time></trkpt><trkpt lat="37.6040133" lon="-2.262925"><ele>1069.0</ele><time>2026-04-25T08:14:23.064Z</time></trkpt><trkpt lat="37.6040567" lon="-2.2632617"><ele>1069.0</ele><time>2026-04-25T08:14:24.063Z</time></trkpt><trkpt lat="37.6040983" lon="-2.2635983"><ele>1069.0</ele><time>2026-04-25T08:14:25.064Z</time></trkpt><trkpt lat="37.604135" lon="-2.2639367"><ele>1070.0</ele><time>2026-04-25T08:14:26.06Z</time></trkpt><trkpt lat="37.6041667" lon="-2.264275"><ele>1071.0</ele><time>2026-04-25T08:14:27.062Z</time></trkpt><trkpt lat="37.6041917" lon="-2.2646167"><ele>1071.5</ele><time>2026-04-25T08:14:28.058Z</time></trkpt><trkpt lat="37.60421" lon="-2.26496"><ele>1072.0</ele><time>2026-04-25T08:14:29.059Z</time></trkpt><trkpt lat="37.6042233" lon="-2.2653083"><ele>1072.5</ele><time>2026-04-25T08:14:30.061Z</time></trkpt><trkpt lat="37.60423" lon="-2.2656567"><ele>1073.0</ele><time>2026-04-25T08:14:31.062Z</time></trkpt><trkpt lat="37.6042317" lon="-2.2660083"><ele>1073.0</ele><time>2026-04-25T08:14:32.061Z</time></trkpt><trkpt lat="37.6042267" lon="-2.2663617"><ele>1073.0</ele><time>2026-04-25T08:14:33.063Z</time></trkpt><trkpt lat="37.6042167" lon="-2.2667167"><ele>1073.5</ele><time>2026-04-25T08:14:34.062Z</time></trkpt><trkpt lat="37.6042033" lon="-2.2670733"><ele>1074.0</ele><time>2026-04-25T08:14:35.06Z</time></trkpt><trkpt lat="37.604185" lon="-2.2674283"><ele>1074.0</ele><time>2026-04-25T08:14:36.064Z</time></trkpt><trkpt lat="37.60416" lon="-2.2677833"><ele>1074.0</ele><time>2026-04-25T08:14:37.07Z</time></trkpt><trkpt lat="37.6041267" lon="-2.2681383"><ele>1075.5</ele><time>2026-04-25T08:14:38.064Z</time></trkpt><trkpt lat="37.6040883" lon="-2.26849"><ele>1077.0</ele><time>2026-04-25T08:14:39.064Z</time></trkpt><trkpt lat="37.6040417" lon="-2.268845"><ele>1077.5</ele><time>2026-04-25T08:14:40.061Z</time></trkpt><trkpt lat="37.60399" lon="-2.2691983"><ele>1078.0</ele><time>2026-04-25T08:14:41.064Z</time></trkpt><trkpt lat="37.6039317" lon="-2.26955"><ele>1078.0</ele><time>2026-04-25T08:14:42.064Z</time></trkpt><trkpt lat="37.6038667" lon="-2.2699017"><ele>1078.0</ele><time>2026-04-25T08:14:43.062Z</time></trkpt><trkpt lat="37.603795" lon="-2.2702517"><ele>1078.0</ele><time>2026-04-25T08:14:44.064Z</time></trkpt><trkpt lat="37.6037183" lon="-2.2706"><ele>1078.0</ele><time>2026-04-25T08:14:45.06Z</time></trkpt><trkpt lat="37.6036383" lon="-2.270945"><ele>1076.5</ele><time>2026-04-25T08:14:46.065Z</time></trkpt><trkpt lat="37.6035517" lon="-2.2712883"><ele>1075.0</ele><time>2026-04-25T08:14:47.066Z</time></trkpt><trkpt lat="37.6034617" lon="-2.27163"><ele>1075.0</ele><time>2026-04-25T08:14:48.061Z</time></trkpt><trkpt lat="37.6033683" lon="-2.27197"><ele>1075.0</ele><time>2026-04-25T08:14:49.065Z</time></trkpt><trkpt lat="37.6032683" lon="-2.2723067"><ele>1076.5</ele><time>2026-04-25T08:14:50.072Z</time></trkpt><trkpt lat="37.6031633" lon="-2.27264"><ele>1078.0</ele><time>2026-04-25T08:14:51.063Z</time></trkpt><trkpt lat="37.6030483" lon="-2.2729717"><ele>1078.0</ele><time>2026-04-25T08:14:52.062Z</time></trkpt><trkpt lat="37.6029283" lon="-2.2733"><ele>1078.0</ele><time>2026-04-25T08:14:53.062Z</time></trkpt><trkpt lat="37.6028017" lon="-2.2736283"><ele>1077.5</ele><time>2026-04-25T08:14:54.06Z</time></trkpt><trkpt lat="37.60267" lon="-2.2739533"><ele>1077.0</ele><time>2026-04-25T08:14:55.066Z</time></trkpt><trkpt lat="37.6025317" lon="-2.2742733"><ele>1077.0</ele><time>2026-04-25T08:14:56.065Z</time></trkpt><trkpt lat="37.6023867" lon="-2.27459"><ele>1077.0</ele><time>2026-04-25T08:14:57.076Z</time></trkpt><trkpt lat="37.6022333" lon="-2.2749033"><ele>1077.5</ele><time>2026-04-25T08:14:58.061Z</time></trkpt><trkpt lat="37.6020733" lon="-2.2752117"><ele>1078.0</ele><time>2026-04-25T08:14:59.061Z</time></trkpt><trkpt lat="37.60191" lon="-2.27552"><ele>1078.0</ele><time>2026-04-25T08:15:00.058Z</time></trkpt><trkpt lat="37.6017433" lon="-2.275825"><ele>1078.0</ele><time>2026-04-25T08:15:01.062Z</time></trkpt><trkpt lat="37.6015733" lon="-2.2761233"><ele>1078.0</ele><time>2026-04-25T08:15:02.063Z</time></trkpt><trkpt lat="37.6014" lon="-2.27642"><ele>1078.0</ele><time>2026-04-25T08:15:03.06Z</time></trkpt><trkpt lat="37.6012217" lon="-2.27671"><ele>1077.0</ele><time>2026-04-25T08:15:04.06Z</time></trkpt><trkpt lat="37.60104" lon="-2.2769917"><ele>1076.0</ele><time>2026-04-25T08:15:05.066Z</time></trkpt><trkpt lat="37.6008517" lon="-2.27727"><ele>1076.0</ele><time>2026-04-25T08:15:06.065Z</time></trkpt><trkpt lat="37.60066" lon="-2.27754"><ele>1076.0</ele><time>2026-04-25T08:15:07.064Z</time></trkpt><trkpt lat="37.6004617" lon="-2.277805"><ele>1074.5</ele><time>2026-04-25T08:15:08.071Z</time></trkpt><trkpt lat="37.6002583" lon="-2.278065"><ele>1073.0</ele><time>2026-04-25T08:15:09.063Z</time></trkpt><trkpt lat="37.6000483" lon="-2.2783217"><ele>1073.0</ele><time>2026-04-25T08:15:10.062Z</time></trkpt><trkpt lat="37.5998333" lon="-2.2785733"><ele>1073.0</ele><time>2026-04-25T08:15:11.062Z</time></trkpt><trkpt lat="37.5996167" lon="-2.2788233"><ele>1072.0</ele><time>2026-04-25T08:15:12.062Z</time></trkpt><trkpt lat="37.5994017" lon="-2.27908"><ele>1071.0</ele><time>2026-04-25T08:15:13.061Z</time></trkpt><trkpt lat="37.5991883" lon="-2.2793383"><ele>1071.0</ele><time>2026-04-25T08:15:14.06Z</time></trkpt><trkpt lat="37.5989783" lon="-2.2796017"><ele>1071.0</ele><time>2026-04-25T08:15:15.058Z</time></trkpt><trkpt lat="37.5987733" lon="-2.279875"><ele>1070.0</ele><time>2026-04-25T08:15:16.057Z</time></trkpt><trkpt lat="37.5985733" lon="-2.2801567"><ele>1069.0</ele><time>2026-04-25T08:15:17.062Z</time></trkpt><trkpt lat="37.5983767" lon="-2.2804417"><ele>1069.5</ele><time>2026-04-25T08:15:18.058Z</time></trkpt><trkpt lat="37.5981833" lon="-2.280735"><ele>1070.0</ele><time>2026-04-25T08:15:19.063Z</time></trkpt><trkpt lat="37.597995" lon="-2.2810317"><ele>1068.0</ele><time>2026-04-25T08:15:20.061Z</time></trkpt><trkpt lat="37.5978133" lon="-2.2813367"><ele>1066.0</ele><time>2026-04-25T08:15:21.07Z</time></trkpt><trkpt lat="37.5976367" lon="-2.281645"><ele>1066.0</ele><time>2026-04-25T08:15:22.064Z</time></trkpt><trkpt lat="37.5974667" lon="-2.2819583"><ele>1066.0</ele><time>2026-04-25T08:15:23.065Z</time></trkpt><trkpt lat="37.5973033" lon="-2.282275"><ele>1066.0</ele><time>2026-04-25T08:15:24.062Z</time></trkpt><trkpt lat="37.5971467" lon="-2.2825983"><ele>1066.0</ele><time>2026-04-25T08:15:25.062Z</time></trkpt><trkpt lat="37.5969967" lon="-2.2829267"><ele>1064.5</ele><time>2026-04-25T08:15:26.064Z</time></trkpt><trkpt lat="37.59685" lon="-2.2832583"><ele>1063.0</ele><time>2026-04-25T08:15:27.062Z</time></trkpt><trkpt lat="37.59671" lon="-2.283595"><ele>1063.0</ele><time>2026-04-25T08:15:28.06Z</time></trkpt><trkpt lat="37.596575" lon="-2.2839333"><ele>1063.0</ele><time>2026-04-25T08:15:29.061Z</time></trkpt><trkpt lat="37.5964467" lon="-2.2842783"><ele>1063.0</ele><time>2026-04-25T08:15:30.061Z</time></trkpt><trkpt lat="37.5963217" lon="-2.284625"><ele>1063.0</ele><time>2026-04-25T08:15:31.062Z</time></trkpt><trkpt lat="37.5962017" lon="-2.2849767"><ele>1062.5</ele><time>2026-04-25T08:15:32.066Z</time></trkpt><trkpt lat="37.59609" lon="-2.2853283"><ele>1062.0</ele><time>2026-04-25T08:15:33.06Z</time></trkpt><trkpt lat="37.5959833" lon="-2.2856883"><ele>1062.0</ele><time>2026-04-25T08:15:34.058Z</time></trkpt><trkpt lat="37.595885" lon="-2.2860517"><ele>1062.0</ele><time>2026-04-25T08:15:35.06Z</time></trkpt><trkpt lat="37.595795" lon="-2.286415"><ele>1062.0</ele><time>2026-04-25T08:15:36.062Z</time></trkpt><trkpt lat="37.5957133" lon="-2.28678"><ele>1062.0</ele><time>2026-04-25T08:15:37.063Z</time></trkpt><trkpt lat="37.5956367" lon="-2.2871467"><ele>1062.0</ele><time>2026-04-25T08:15:38.063Z</time></trkpt><trkpt lat="37.5955667" lon="-2.287515"><ele>1062.0</ele><time>2026-04-25T08:15:39.061Z</time></trkpt><trkpt lat="37.5955033" lon="-2.287885"><ele>1062.5</ele><time>2026-04-25T08:15:40.06Z</time></trkpt><trkpt lat="37.5954467" lon="-2.2882567"><ele>1063.0</ele><time>2026-04-25T08:15:41.059Z</time></trkpt><trkpt lat="37.5953933" lon="-2.2886283"><ele>1064.5</ele><time>2026-04-25T08:15:42.064Z</time></trkpt><trkpt lat="37.5953483" lon="-2.2890017"><ele>1066.0</ele><time>2026-04-25T08:15:43.062Z</time></trkpt><trkpt lat="37.5953083" lon="-2.289375"><ele>1066.0</ele><time>2026-04-25T08:15:44.064Z</time></trkpt><trkpt lat="37.5952783" lon="-2.2897483"><ele>1066.0</ele><time>2026-04-25T08:15:45.065Z</time></trkpt><trkpt lat="37.5952567" lon="-2.2901233"><ele>1066.0</ele><time>2026-04-25T08:15:46.059Z</time></trkpt><trkpt lat="37.59524" lon="-2.2904967"><ele>1066.0</ele><time>2026-04-25T08:15:47.073Z</time></trkpt><trkpt lat="37.59523" lon="-2.29087"><ele>1066.5</ele><time>2026-04-25T08:15:48.067Z</time></trkpt><trkpt lat="37.5952283" lon="-2.2912433"><ele>1067.0</ele><time>2026-04-25T08:15:49.063Z</time></trkpt><trkpt lat="37.59523" lon="-2.2916167"><ele>1067.5</ele><time>2026-04-25T08:15:50.065Z</time></trkpt><trkpt lat="37.5952383" lon="-2.2919917"><ele>1068.0</ele><time>2026-04-25T08:15:51.066Z</time></trkpt><trkpt lat="37.5952483" lon="-2.2923683"><ele>1068.0</ele><time>2026-04-25T08:15:52.066Z</time></trkpt><trkpt lat="37.5952583" lon="-2.2927417"><ele>1068.0</ele><time>2026-04-25T08:15:53.062Z</time></trkpt><trkpt lat="37.5952717" lon="-2.2931183"><ele>1069.0</ele><time>2026-04-25T08:15:54.065Z</time></trkpt><trkpt lat="37.5952833" lon="-2.2934933"><ele>1070.0</ele><time>2026-04-25T08:15:55.061Z</time></trkpt><trkpt lat="37.595295" lon="-2.2938683"><ele>1070.0</ele><time>2026-04-25T08:15:56.062Z</time></trkpt><trkpt lat="37.5953033" lon="-2.2942433"><ele>1070.0</ele><time>2026-04-25T08:15:57.061Z</time></trkpt><trkpt lat="37.5953117" lon="-2.2946183"><ele>1070.5</ele><time>2026-04-25T08:15:58.061Z</time></trkpt><trkpt lat="37.5953217" lon="-2.2949933"><ele>1071.0</ele><time>2026-04-25T08:15:59.06Z</time></trkpt><trkpt lat="37.5953333" lon="-2.2953683"><ele>1072.5</ele><time>2026-04-25T08:16:00.06Z</time></trkpt><trkpt lat="37.595345" lon="-2.295745"><ele>1074.0</ele><time>2026-04-25T08:16:01.061Z</time></trkpt><trkpt lat="37.595355" lon="-2.29612"><ele>1074.0</ele><time>2026-04-25T08:16:02.061Z</time></trkpt><trkpt lat="37.595365" lon="-2.296495"><ele>1074.0</ele><time>2026-04-25T08:16:03.059Z</time></trkpt><trkpt lat="37.595375" lon="-2.2968717"><ele>1074.0</ele><time>2026-04-25T08:16:04.059Z</time></trkpt><trkpt lat="37.595385" lon="-2.29725"><ele>1074.0</ele><time>2026-04-25T08:16:05.062Z</time></trkpt><trkpt lat="37.5953967" lon="-2.2976267"><ele>1074.5</ele><time>2026-04-25T08:16:06.06Z</time></trkpt><trkpt lat="37.5954083" lon="-2.298005"><ele>1075.0</ele><time>2026-04-25T08:16:07.061Z</time></trkpt><trkpt lat="37.5954183" lon="-2.2983833"><ele>1076.5</ele><time>2026-04-25T08:16:08.06Z</time></trkpt><trkpt lat="37.59543" lon="-2.2987633"><ele>1078.0</ele><time>2026-04-25T08:16:09.065Z</time></trkpt><trkpt lat="37.59544" lon="-2.2991433"><ele>1078.5</ele><time>2026-04-25T08:16:10.062Z</time></trkpt><trkpt lat="37.59545" lon="-2.2995233"><ele>1079.0</ele><time>2026-04-25T08:16:11.07Z</time></trkpt><trkpt lat="37.59546" lon="-2.299905"><ele>1079.0</ele><time>2026-04-25T08:16:12.064Z</time></trkpt><trkpt lat="37.5954683" lon="-2.300285"><ele>1079.0</ele><time>2026-04-25T08:16:13.063Z</time></trkpt><trkpt lat="37.5954783" lon="-2.300665"><ele>1079.5</ele><time>2026-04-25T08:16:14.067Z</time></trkpt><trkpt lat="37.59549" lon="-2.301045"><ele>1080.0</ele><time>2026-04-25T08:16:15.066Z</time></trkpt><trkpt lat="37.5955017" lon="-2.301425"><ele>1081.0</ele><time>2026-04-25T08:16:16.064Z</time></trkpt><trkpt lat="37.5955117" lon="-2.3018067"><ele>1082.0</ele><time>2026-04-25T08:16:17.065Z</time></trkpt><trkpt lat="37.5955217" lon="-2.302185"><ele>1082.0</ele><time>2026-04-25T08:16:18.065Z</time></trkpt><trkpt lat="37.5955283" lon="-2.3025633"><ele>1082.0</ele><time>2026-04-25T08:16:19.068Z</time></trkpt><trkpt lat="37.5955367" lon="-2.30294"><ele>1082.0</ele><time>2026-04-25T08:16:20.064Z</time></trkpt><trkpt lat="37.5955433" lon="-2.3033167"><ele>1082.0</ele><time>2026-04-25T08:16:21.061Z</time></trkpt><trkpt lat="37.5955533" lon="-2.3036917"><ele>1084.5</ele><time>2026-04-25T08:16:22.058Z</time></trkpt><trkpt lat="37.595565" lon="-2.3040667"><ele>1087.0</ele><time>2026-04-25T08:16:23.06Z</time></trkpt><trkpt lat="37.595575" lon="-2.30444"><ele>1087.0</ele><time>2026-04-25T08:16:24.064Z</time></trkpt><trkpt lat="37.5955867" lon="-2.3048133"><ele>1087.0</ele><time>2026-04-25T08:16:25.061Z</time></trkpt><trkpt lat="37.595595" lon="-2.3051867"><ele>1087.0</ele><time>2026-04-25T08:16:26.06Z</time></trkpt><trkpt lat="37.5956033" lon="-2.3055567"><ele>1087.0</ele><time>2026-04-25T08:16:27.062Z</time></trkpt><trkpt lat="37.5956117" lon="-2.3059283"><ele>1087.0</ele><time>2026-04-25T08:16:28.06Z</time></trkpt><trkpt lat="37.5956217" lon="-2.3063"><ele>1087.0</ele><time>2026-04-25T08:16:29.059Z</time></trkpt><trkpt lat="37.5956333" lon="-2.30667"><ele>1087.0</ele><time>2026-04-25T08:16:30.059Z</time></trkpt><trkpt lat="37.5956433" lon="-2.3070417"><ele>1087.0</ele><time>2026-04-25T08:16:31.06Z</time></trkpt><trkpt lat="37.5956533" lon="-2.3074133"><ele>1088.0</ele><time>2026-04-25T08:16:32.059Z</time></trkpt><trkpt lat="37.5956617" lon="-2.307785"><ele>1089.0</ele><time>2026-04-25T08:16:33.061Z</time></trkpt><trkpt lat="37.5956717" lon="-2.308155"><ele>1089.5</ele><time>2026-04-25T08:16:34.063Z</time></trkpt><trkpt lat="37.5956817" lon="-2.3085233"><ele>1090.0</ele><time>2026-04-25T08:16:35.062Z</time></trkpt><trkpt lat="37.595695" lon="-2.308895"><ele>1091.0</ele><time>2026-04-25T08:16:36.07Z</time></trkpt><trkpt lat="37.5957033" lon="-2.3092633"><ele>1092.0</ele><time>2026-04-25T08:16:37.062Z</time></trkpt><trkpt lat="37.5957133" lon="-2.30963"><ele>1092.0</ele><time>2026-04-25T08:16:38.063Z</time></trkpt><trkpt lat="37.5957233" lon="-2.3099967"><ele>1092.0</ele><time>2026-04-25T08:16:39.06Z</time></trkpt><trkpt lat="37.5957333" lon="-2.31036"><ele>1092.0</ele><time>2026-04-25T08:16:40.062Z</time></trkpt><trkpt lat="37.5957433" lon="-2.3107233"><ele>1092.0</ele><time>2026-04-25T08:16:41.06Z</time></trkpt><trkpt lat="37.59575" lon="-2.311085"><ele>1092.5</ele><time>2026-04-25T08:16:42.061Z</time></trkpt><trkpt lat="37.59576" lon="-2.3114467"><ele>1093.0</ele><time>2026-04-25T08:16:43.062Z</time></trkpt><trkpt lat="37.59577" lon="-2.3118067"><ele>1093.0</ele><time>2026-04-25T08:16:44.062Z</time></trkpt><trkpt lat="37.5957833" lon="-2.3121667"><ele>1093.0</ele><time>2026-04-25T08:16:45.057Z</time></trkpt><trkpt lat="37.5957933" lon="-2.3125283"><ele>1094.0</ele><time>2026-04-25T08:16:46.06Z</time></trkpt><trkpt lat="37.595805" lon="-2.3128883"><ele>1095.0</ele><time>2026-04-25T08:16:47.062Z</time></trkpt><trkpt lat="37.5958117" lon="-2.31325"><ele>1095.5</ele><time>2026-04-25T08:16:48.063Z</time></trkpt><trkpt lat="37.59582" lon="-2.31361"><ele>1096.0</ele><time>2026-04-25T08:16:49.059Z</time></trkpt><trkpt lat="37.5958283" lon="-2.3139717"><ele>1097.0</ele><time>2026-04-25T08:16:50.062Z</time></trkpt><trkpt lat="37.5958383" lon="-2.314335"><ele>1098.0</ele><time>2026-04-25T08:16:51.059Z</time></trkpt><trkpt lat="37.5958467" lon="-2.3147"><ele>1098.0</ele><time>2026-04-25T08:16:52.059Z</time></trkpt><trkpt lat="37.5958533" lon="-2.315065"><ele>1098.0</ele><time>2026-04-25T08:16:53.06Z</time></trkpt><trkpt lat="37.5958617" lon="-2.3154317"><ele>1098.5</ele><time>2026-04-25T08:16:54.062Z</time></trkpt><trkpt lat="37.5958667" lon="-2.3157983"><ele>1099.0</ele><time>2026-04-25T08:16:55.062Z</time></trkpt><trkpt lat="37.5958717" lon="-2.3161633"><ele>1100.0</ele><time>2026-04-25T08:16:56.063Z</time></trkpt><trkpt lat="37.595875" lon="-2.31653"><ele>1101.0</ele><time>2026-04-25T08:16:57.064Z</time></trkpt><trkpt lat="37.5958767" lon="-2.3168933"><ele>1101.0</ele><time>2026-04-25T08:16:58.061Z</time></trkpt><trkpt lat="37.5958783" lon="-2.3172583"><ele>1101.0</ele><time>2026-04-25T08:16:59.062Z</time></trkpt><trkpt lat="37.5958833" lon="-2.3176217"><ele>1101.0</ele><time>2026-04-25T08:17:00.064Z</time></trkpt><trkpt lat="37.595885" lon="-2.317985"><ele>1101.0</ele><time>2026-04-25T08:17:01.067Z</time></trkpt><trkpt lat="37.5958867" lon="-2.3183483"><ele>1102.0</ele><time>2026-04-25T08:17:02.061Z</time></trkpt><trkpt lat="37.5958867" lon="-2.3187117"><ele>1103.0</ele><time>2026-04-25T08:17:03.063Z</time></trkpt><trkpt lat="37.5958867" lon="-2.319075"><ele>1103.0</ele><time>2026-04-25T08:17:04.059Z</time></trkpt><trkpt lat="37.5958833" lon="-2.3194383"><ele>1103.0</ele><time>2026-04-25T08:17:05.063Z</time></trkpt><trkpt lat="37.5958817" lon="-2.319805"><ele>1103.0</ele><time>2026-04-25T08:17:06.06Z</time></trkpt><trkpt lat="37.5958783" lon="-2.3201717"><ele>1103.0</ele><time>2026-04-25T08:17:07.06Z</time></trkpt><trkpt lat="37.5958767" lon="-2.32054"><ele>1101.5</ele><time>2026-04-25T08:17:08.059Z</time></trkpt><trkpt lat="37.5958733" lon="-2.32091"><ele>1100.0</ele><time>2026-04-25T08:17:09.064Z</time></trkpt><trkpt lat="37.5958683" lon="-2.3212833"><ele>1100.5</ele><time>2026-04-25T08:17:10.06Z</time></trkpt><trkpt lat="37.595865" lon="-2.321655"><ele>1101.0</ele><time>2026-04-25T08:17:11.065Z</time></trkpt><trkpt lat="37.59586" lon="-2.32203"><ele>1101.5</ele><time>2026-04-25T08:17:12.06Z</time></trkpt><trkpt lat="37.5958533" lon="-2.3224067"><ele>1102.0</ele><time>2026-04-25T08:17:13.065Z</time></trkpt><trkpt lat="37.5958467" lon="-2.322785"><ele>1101.5</ele><time>2026-04-25T08:17:14.061Z</time></trkpt><trkpt lat="37.5958383" lon="-2.3231617"><ele>1101.0</ele><time>2026-04-25T08:17:15.06Z</time></trkpt><trkpt lat="37.5958283" lon="-2.32354"><ele>1101.5</ele><time>2026-04-25T08:17:16.059Z</time></trkpt><trkpt lat="37.5958183" lon="-2.3239167"><ele>1102.0</ele><time>2026-04-25T08:17:17.062Z</time></trkpt><trkpt lat="37.5958083" lon="-2.3242917"><ele>1102.0</ele><time>2026-04-25T08:17:18.062Z</time></trkpt><trkpt lat="37.5958" lon="-2.324665"><ele>1102.0</ele><time>2026-04-25T08:17:19.06Z</time></trkpt><trkpt lat="37.5957917" lon="-2.3250383"><ele>1101.5</ele><time>2026-04-25T08:17:20.061Z</time></trkpt><trkpt lat="37.595785" lon="-2.3254117"><ele>1101.0</ele><time>2026-04-25T08:17:21.065Z</time></trkpt><trkpt lat="37.595775" lon="-2.325785"><ele>1102.0</ele><time>2026-04-25T08:17:22.061Z</time></trkpt><trkpt lat="37.595765" lon="-2.3261583"><ele>1103.0</ele><time>2026-04-25T08:17:23.061Z</time></trkpt><trkpt lat="37.595755" lon="-2.3265317"><ele>1103.5</ele><time>2026-04-25T08:17:24.062Z</time></trkpt><trkpt lat="37.595745" lon="-2.3269067"><ele>1104.0</ele><time>2026-04-25T08:17:25.069Z</time></trkpt><trkpt lat="37.5957367" lon="-2.3272833"><ele>1104.0</ele><time>2026-04-25T08:17:26.061Z</time></trkpt><trkpt lat="37.5957283" lon="-2.32766"><ele>1104.0</ele><time>2026-04-25T08:17:27.068Z</time></trkpt><trkpt lat="37.59572" lon="-2.3280367"><ele>1103.0</ele><time>2026-04-25T08:17:28.061Z</time></trkpt><trkpt lat="37.5957117" lon="-2.3284117"><ele>1102.0</ele><time>2026-04-25T08:17:29.061Z</time></trkpt><trkpt lat="37.5957033" lon="-2.3287883"><ele>1102.5</ele><time>2026-04-25T08:17:30.065Z</time></trkpt><trkpt lat="37.595695" lon="-2.3291617"><ele>1103.0</ele><time>2026-04-25T08:17:31.062Z</time></trkpt><trkpt lat="37.5956867" lon="-2.329535"><ele>1104.5</ele><time>2026-04-25T08:17:32.062Z</time></trkpt><trkpt lat="37.5956767" lon="-2.329905"><ele>1106.0</ele><time>2026-04-25T08:17:33.059Z</time></trkpt><trkpt lat="37.5956683" lon="-2.330275"><ele>1106.5</ele><time>2026-04-25T08:17:34.06Z</time></trkpt><trkpt lat="37.59566" lon="-2.330645"><ele>1107.0</ele><time>2026-04-25T08:17:35.058Z</time></trkpt><trkpt lat="37.5956517" lon="-2.331015"><ele>1107.0</ele><time>2026-04-25T08:17:36.06Z</time></trkpt><trkpt lat="37.5956433" lon="-2.3313833"><ele>1107.0</ele><time>2026-04-25T08:17:37.063Z</time></trkpt><trkpt lat="37.595635" lon="-2.3317517"><ele>1107.5</ele><time>2026-04-25T08:17:38.06Z</time></trkpt><trkpt lat="37.5956283" lon="-2.3321233"><ele>1108.0</ele><time>2026-04-25T08:17:39.067Z</time></trkpt><trkpt lat="37.59562" lon="-2.332495"><ele>1108.5</ele><time>2026-04-25T08:17:40.061Z</time></trkpt><trkpt lat="37.5956117" lon="-2.3328667"><ele>1109.0</ele><time>2026-04-25T08:17:41.06Z</time></trkpt><trkpt lat="37.5956033" lon="-2.3332417"><ele>1109.5</ele><time>2026-04-25T08:17:42.063Z</time></trkpt><trkpt lat="37.5955967" lon="-2.3336167"><ele>1110.0</ele><time>2026-04-25T08:17:43.066Z</time></trkpt><trkpt lat="37.59559" lon="-2.3339933"><ele>1110.0</ele><time>2026-04-25T08:17:44.061Z</time></trkpt><trkpt lat="37.5955833" lon="-2.334375"><ele>1110.0</ele><time>2026-04-25T08:17:45.06Z</time></trkpt><trkpt lat="37.595575" lon="-2.3347583"><ele>1111.0</ele><time>2026-04-25T08:17:46.065Z</time></trkpt><trkpt lat="37.5955667" lon="-2.3351417"><ele>1112.0</ele><time>2026-04-25T08:17:47.063Z</time></trkpt><trkpt lat="37.59556" lon="-2.3355283"><ele>1113.0</ele><time>2026-04-25T08:17:48.063Z</time></trkpt><trkpt lat="37.5955533" lon="-2.3359167"><ele>1114.0</ele><time>2026-04-25T08:17:49.062Z</time></trkpt><trkpt lat="37.595545" lon="-2.3363067"><ele>1114.5</ele><time>2026-04-25T08:17:50.067Z</time></trkpt><trkpt lat="37.595535" lon="-2.3367"><ele>1115.0</ele><time>2026-04-25T08:17:51.064Z</time></trkpt><trkpt lat="37.595525" lon="-2.337095"><ele>1114.5</ele><time>2026-04-25T08:17:52.075Z</time></trkpt><trkpt lat="37.5955167" lon="-2.3374883"><ele>1114.0</ele><time>2026-04-25T08:17:53.061Z</time></trkpt><trkpt lat="37.59551" lon="-2.3378817"><ele>1115.0</ele><time>2026-04-25T08:17:54.063Z</time></trkpt><trkpt lat="37.5955017" lon="-2.338275"><ele>1116.0</ele><time>2026-04-25T08:17:55.067Z</time></trkpt><trkpt lat="37.595495" lon="-2.3386667"><ele>1116.5</ele><time>2026-04-25T08:17:56.059Z</time></trkpt><trkpt lat="37.5954867" lon="-2.33906"><ele>1117.0</ele><time>2026-04-25T08:17:57.061Z</time></trkpt><trkpt lat="37.5954767" lon="-2.3394517"><ele>1117.5</ele><time>2026-04-25T08:17:58.063Z</time></trkpt><trkpt lat="37.5954667" lon="-2.3398417"><ele>1118.0</ele><time>2026-04-25T08:17:59.062Z</time></trkpt><trkpt lat="37.5954583" lon="-2.3402283"><ele>1118.5</ele><time>2026-04-25T08:18:00.063Z</time></trkpt><trkpt lat="37.59545" lon="-2.3406167"><ele>1119.0</ele><time>2026-04-25T08:18:01.063Z</time></trkpt><trkpt lat="37.5954417" lon="-2.341005"><ele>1119.5</ele><time>2026-04-25T08:18:02.062Z</time></trkpt><trkpt lat="37.5954317" lon="-2.3413917"><ele>1120.0</ele><time>2026-04-25T08:18:03.063Z</time></trkpt><trkpt lat="37.5954233" lon="-2.34178"><ele>1120.0</ele><time>2026-04-25T08:18:04.062Z</time></trkpt><trkpt lat="37.595415" lon="-2.3421683"><ele>1120.0</ele><time>2026-04-25T08:18:05.062Z</time></trkpt><trkpt lat="37.595405" lon="-2.3425567"><ele>1120.5</ele><time>2026-04-25T08:18:06.062Z</time></trkpt><trkpt lat="37.595395" lon="-2.342945"><ele>1121.0</ele><time>2026-04-25T08:18:07.063Z</time></trkpt><trkpt lat="37.595385" lon="-2.3433333"><ele>1121.5</ele><time>2026-04-25T08:18:08.058Z</time></trkpt><trkpt lat="37.5953783" lon="-2.3437217"><ele>1122.0</ele><time>2026-04-25T08:18:09.062Z</time></trkpt><trkpt lat="37.5953733" lon="-2.3441067"><ele>1123.0</ele><time>2026-04-25T08:18:10.064Z</time></trkpt><trkpt lat="37.5953683" lon="-2.34449"><ele>1124.0</ele><time>2026-04-25T08:18:11.062Z</time></trkpt><trkpt lat="37.59536" lon="-2.3448733"><ele>1124.5</ele><time>2026-04-25T08:18:12.065Z</time></trkpt><trkpt lat="37.59535" lon="-2.345255"><ele>1125.0</ele><time>2026-04-25T08:18:13.064Z</time></trkpt><trkpt lat="37.5953433" lon="-2.3456367"><ele>1123.0</ele><time>2026-04-25T08:18:14.072Z</time></trkpt><trkpt lat="37.5953333" lon="-2.3460183"><ele>1121.0</ele><time>2026-04-25T08:18:15.066Z</time></trkpt><trkpt lat="37.5953233" lon="-2.3463983"><ele>1121.0</ele><time>2026-04-25T08:18:16.061Z</time></trkpt><trkpt lat="37.5953133" lon="-2.34678"><ele>1121.0</ele><time>2026-04-25T08:18:17.065Z</time></trkpt><trkpt lat="37.595305" lon="-2.3471617"><ele>1122.0</ele><time>2026-04-25T08:18:18.065Z</time></trkpt><trkpt lat="37.5952967" lon="-2.347545"><ele>1123.0</ele><time>2026-04-25T08:18:19.063Z</time></trkpt><trkpt lat="37.5952867" lon="-2.34793"><ele>1123.5</ele><time>2026-04-25T08:18:20.063Z</time></trkpt><trkpt lat="37.5952783" lon="-2.3483133"><ele>1124.0</ele><time>2026-04-25T08:18:21.065Z</time></trkpt><trkpt lat="37.59527" lon="-2.3486967"><ele>1124.5</ele><time>2026-04-25T08:18:22.06Z</time></trkpt><trkpt lat="37.5952617" lon="-2.3490783"><ele>1125.0</ele><time>2026-04-25T08:18:23.062Z</time></trkpt><trkpt lat="37.5952533" lon="-2.3494617"><ele>1125.0</ele><time>2026-04-25T08:18:24.06Z</time></trkpt><trkpt lat="37.595245" lon="-2.3498433"><ele>1125.0</ele><time>2026-04-25T08:18:25.061Z</time></trkpt><trkpt lat="37.5952367" lon="-2.350225"><ele>1125.0</ele><time>2026-04-25T08:18:26.064Z</time></trkpt><trkpt lat="37.59523" lon="-2.3506067"><ele>1125.0</ele><time>2026-04-25T08:18:27.06Z</time></trkpt><trkpt lat="37.59522" lon="-2.35099"><ele>1125.0</ele><time>2026-04-25T08:18:28.061Z</time></trkpt><trkpt lat="37.59521" lon="-2.3513733"><ele>1125.0</ele><time>2026-04-25T08:18:29.061Z</time></trkpt><trkpt lat="37.5952" lon="-2.3517567"><ele>1125.0</ele><time>2026-04-25T08:18:30.062Z</time></trkpt><trkpt lat="37.59519" lon="-2.3521417"><ele>1125.0</ele><time>2026-04-25T08:18:31.062Z</time></trkpt><trkpt lat="37.5951817" lon="-2.3525267"><ele>1125.0</ele><time>2026-04-25T08:18:32.064Z</time></trkpt><trkpt lat="37.5951717" lon="-2.3529117"><ele>1125.0</ele><time>2026-04-25T08:18:33.064Z</time></trkpt><trkpt lat="37.5951633" lon="-2.353295"><ele>1124.5</ele><time>2026-04-25T08:18:34.06Z</time></trkpt><trkpt lat="37.5951533" lon="-2.3536767"><ele>1124.0</ele><time>2026-04-25T08:18:35.065Z</time></trkpt><trkpt lat="37.5951433" lon="-2.3540583"><ele>1124.0</ele><time>2026-04-25T08:18:36.062Z</time></trkpt><trkpt lat="37.595135" lon="-2.3544383"><ele>1124.0</ele><time>2026-04-25T08:18:37.065Z</time></trkpt><trkpt lat="37.5951283" lon="-2.3548183"><ele>1124.5</ele><time>2026-04-25T08:18:38.06Z</time></trkpt><trkpt lat="37.5951217" lon="-2.3551983"><ele>1125.0</ele><time>2026-04-25T08:18:39.064Z</time></trkpt><trkpt lat="37.5951133" lon="-2.3555783"><ele>1125.5</ele><time>2026-04-25T08:18:40.064Z</time></trkpt><trkpt lat="37.595105" lon="-2.3559567"><ele>1126.0</ele><time>2026-04-25T08:18:41.062Z</time></trkpt><trkpt lat="37.595095" lon="-2.356335"><ele>1125.5</ele><time>2026-04-25T08:18:42.065Z</time></trkpt><trkpt lat="37.595085" lon="-2.3567117"><ele>1125.0</ele><time>2026-04-25T08:18:43.067Z</time></trkpt><trkpt lat="37.5950733" lon="-2.3570867"><ele>1125.5</ele><time>2026-04-25T08:18:44.063Z</time></trkpt><trkpt lat="37.5950667" lon="-2.35746"><ele>1126.0</ele><time>2026-04-25T08:18:45.062Z</time></trkpt><trkpt lat="37.59506" lon="-2.3578317"><ele>1127.0</ele><time>2026-04-25T08:18:46.059Z</time></trkpt><trkpt lat="37.595055" lon="-2.3582033"><ele>1128.0</ele><time>2026-04-25T08:18:47.064Z</time></trkpt><trkpt lat="37.5950483" lon="-2.3585733"><ele>1129.0</ele><time>2026-04-25T08:18:48.062Z</time></trkpt><trkpt lat="37.59504" lon="-2.3589433"><ele>1130.0</ele><time>2026-04-25T08:18:49.06Z</time></trkpt><trkpt lat="37.5950317" lon="-2.359315"><ele>1130.0</ele><time>2026-04-25T08:18:50.058Z</time></trkpt><trkpt lat="37.5950233" lon="-2.359685"><ele>1130.0</ele><time>2026-04-25T08:18:51.065Z</time></trkpt><trkpt lat="37.5950133" lon="-2.3600533"><ele>1130.5</ele><time>2026-04-25T08:18:52.059Z</time></trkpt><trkpt lat="37.5950017" lon="-2.36042"><ele>1131.0</ele><time>2026-04-25T08:18:53.072Z</time></trkpt><trkpt lat="37.59499" lon="-2.3607883"><ele>1130.5</ele><time>2026-04-25T08:18:54.06Z</time></trkpt><trkpt lat="37.5949767" lon="-2.3611567"><ele>1130.0</ele><time>2026-04-25T08:18:55.058Z</time></trkpt><trkpt lat="37.594965" lon="-2.361525"><ele>1130.0</ele><time>2026-04-25T08:18:56.062Z</time></trkpt><trkpt lat="37.5949567" lon="-2.3618883"><ele>1130.0</ele><time>2026-04-25T08:18:57.065Z</time></trkpt><trkpt lat="37.59495" lon="-2.3622583"><ele>1130.5</ele><time>2026-04-25T08:18:58.062Z</time></trkpt><trkpt lat="37.5949417" lon="-2.3626283"><ele>1131.0</ele><time>2026-04-25T08:18:59.065Z</time></trkpt><trkpt lat="37.5949317" lon="-2.3630033"><ele>1131.0</ele><time>2026-04-25T08:19:00.063Z</time></trkpt><trkpt lat="37.5949233" lon="-2.3633767"><ele>1131.0</ele><time>2026-04-25T08:19:01.071Z</time></trkpt><trkpt lat="37.5949133" lon="-2.363755"><ele>1130.5</ele><time>2026-04-25T08:19:02.066Z</time></trkpt><trkpt lat="37.5949033" lon="-2.3641317"><ele>1130.0</ele><time>2026-04-25T08:19:03.064Z</time></trkpt><trkpt lat="37.5948917" lon="-2.36451"><ele>1130.5</ele><time>2026-04-25T08:19:04.062Z</time></trkpt><trkpt lat="37.5948817" lon="-2.3648867"><ele>1131.0</ele><time>2026-04-25T08:19:05.066Z</time></trkpt><trkpt lat="37.5948717" lon="-2.3652617"><ele>1131.5</ele><time>2026-04-25T08:19:06.063Z</time></trkpt><trkpt lat="37.5948633" lon="-2.3656367"><ele>1132.0</ele><time>2026-04-25T08:19:07.069Z</time></trkpt><trkpt lat="37.5948567" lon="-2.36601"><ele>1132.5</ele><time>2026-04-25T08:19:08.062Z</time></trkpt><trkpt lat="37.59485" lon="-2.366385"><ele>1133.0</ele><time>2026-04-25T08:19:09.066Z</time></trkpt><trkpt lat="37.5948417" lon="-2.3667583"><ele>1133.0</ele><time>2026-04-25T08:19:10.059Z</time></trkpt><trkpt lat="37.594835" lon="-2.36713"><ele>1133.0</ele><time>2026-04-25T08:19:11.062Z</time></trkpt><trkpt lat="37.594825" lon="-2.3675"><ele>1133.5</ele><time>2026-04-25T08:19:12.061Z</time></trkpt><trkpt lat="37.594815" lon="-2.36787"><ele>1134.0</ele><time>2026-04-25T08:19:13.058Z</time></trkpt><trkpt lat="37.594805" lon="-2.3682367"><ele>1134.5</ele><time>2026-04-25T08:19:14.062Z</time></trkpt><trkpt lat="37.594795" lon="-2.3686017"><ele>1135.0</ele><time>2026-04-25T08:19:15.061Z</time></trkpt><trkpt lat="37.5947833" lon="-2.368965"><ele>1135.5</ele><time>2026-04-25T08:19:16.061Z</time></trkpt><trkpt lat="37.5947733" lon="-2.3693283"><ele>1136.0</ele><time>2026-04-25T08:19:17.065Z</time></trkpt><trkpt lat="37.5947633" lon="-2.3696917"><ele>1136.5</ele><time>2026-04-25T08:19:18.062Z</time></trkpt><trkpt lat="37.594755" lon="-2.3700517"><ele>1137.0</ele><time>2026-04-25T08:19:19.063Z</time></trkpt><trkpt lat="37.5947483" lon="-2.3704117"><ele>1136.5</ele><time>2026-04-25T08:19:20.061Z</time></trkpt><trkpt lat="37.5947417" lon="-2.3707733"><ele>1136.0</ele><time>2026-04-25T08:19:21.061Z</time></trkpt><trkpt lat="37.594735" lon="-2.3711367"><ele>1135.0</ele><time>2026-04-25T08:19:22.063Z</time></trkpt><trkpt lat="37.5947267" lon="-2.3715017"><ele>1134.0</ele><time>2026-04-25T08:19:23.067Z</time></trkpt><trkpt lat="37.59472" lon="-2.3718683"><ele>1134.5</ele><time>2026-04-25T08:19:24.065Z</time></trkpt><trkpt lat="37.5947117" lon="-2.3722367"><ele>1135.0</ele><time>2026-04-25T08:19:25.064Z</time></trkpt><trkpt lat="37.5947033" lon="-2.372605"><ele>1135.0</ele><time>2026-04-25T08:19:26.061Z</time></trkpt><trkpt lat="37.5946933" lon="-2.3729767"><ele>1135.0</ele><time>2026-04-25T08:19:27.067Z</time></trkpt><trkpt lat="37.594685" lon="-2.3733483"><ele>1135.0</ele><time>2026-04-25T08:19:28.064Z</time></trkpt><trkpt lat="37.594675" lon="-2.3737217"><ele>1135.0</ele><time>2026-04-25T08:19:29.07Z</time></trkpt><trkpt lat="37.594665" lon="-2.3740967"><ele>1135.0</ele><time>2026-04-25T08:19:30.065Z</time></trkpt><trkpt lat="37.5946533" lon="-2.374475"><ele>1135.0</ele><time>2026-04-25T08:19:31.066Z</time></trkpt><trkpt lat="37.5946417" lon="-2.374855"><ele>1134.5</ele><time>2026-04-25T08:19:32.068Z</time></trkpt><trkpt lat="37.59463" lon="-2.3752367"><ele>1134.0</ele><time>2026-04-25T08:19:33.063Z</time></trkpt><trkpt lat="37.5946183" lon="-2.3756183"><ele>1133.0</ele><time>2026-04-25T08:19:34.062Z</time></trkpt><trkpt lat="37.5946083" lon="-2.3760033"><ele>1132.0</ele><time>2026-04-25T08:19:35.062Z</time></trkpt><trkpt lat="37.5945983" lon="-2.3763883"><ele>1131.0</ele><time>2026-04-25T08:19:36.061Z</time></trkpt><trkpt lat="37.5945917" lon="-2.3767733"><ele>1130.0</ele><time>2026-04-25T08:19:37.06Z</time></trkpt><trkpt lat="37.5945883" lon="-2.37716"><ele>1130.0</ele><time>2026-04-25T08:19:38.061Z</time></trkpt><trkpt lat="37.59459" lon="-2.3775483"><ele>1130.0</ele><time>2026-04-25T08:19:39.061Z</time></trkpt><trkpt lat="37.5945983" lon="-2.3779383"><ele>1130.0</ele><time>2026-04-25T08:19:40.061Z</time></trkpt><trkpt lat="37.5946167" lon="-2.3783283"><ele>1130.0</ele><time>2026-04-25T08:19:41.064Z</time></trkpt><trkpt lat="37.5946383" lon="-2.3787183"><ele>1130.0</ele><time>2026-04-25T08:19:42.059Z</time></trkpt><trkpt lat="37.594665" lon="-2.3791083"><ele>1130.0</ele><time>2026-04-25T08:19:43.059Z</time></trkpt><trkpt lat="37.5946933" lon="-2.3794967"><ele>1129.5</ele><time>2026-04-25T08:19:44.061Z</time></trkpt><trkpt lat="37.59472" lon="-2.379885"><ele>1129.0</ele><time>2026-04-25T08:19:45.063Z</time></trkpt><trkpt lat="37.594745" lon="-2.380275"><ele>1128.5</ele><time>2026-04-25T08:19:46.062Z</time></trkpt><trkpt lat="37.5947683" lon="-2.3806617"><ele>1128.0</ele><time>2026-04-25T08:19:47.065Z</time></trkpt><trkpt lat="37.59479" lon="-2.38105"><ele>1128.0</ele><time>2026-04-25T08:19:48.061Z</time></trkpt><trkpt lat="37.5948117" lon="-2.3814367"><ele>1128.0</ele><time>2026-04-25T08:19:49.06Z</time></trkpt><trkpt lat="37.5948333" lon="-2.3818217"><ele>1128.0</ele><time>2026-04-25T08:19:50.06Z</time></trkpt><trkpt lat="37.5948567" lon="-2.3822067"><ele>1128.0</ele><time>2026-04-25T08:19:51.063Z</time></trkpt><trkpt lat="37.59488" lon="-2.3825883"><ele>1128.0</ele><time>2026-04-25T08:19:52.07Z</time></trkpt><trkpt lat="37.5949033" lon="-2.3829667"><ele>1128.0</ele><time>2026-04-25T08:19:53.063Z</time></trkpt><trkpt lat="37.594925" lon="-2.383345"><ele>1128.0</ele><time>2026-04-25T08:19:54.062Z</time></trkpt><trkpt lat="37.5949467" lon="-2.3837233"><ele>1128.0</ele><time>2026-04-25T08:19:55.066Z</time></trkpt><trkpt lat="37.594965" lon="-2.3841017"><ele>1128.0</ele><time>2026-04-25T08:19:56.067Z</time></trkpt><trkpt lat="37.594985" lon="-2.3844767"><ele>1128.0</ele><time>2026-04-25T08:19:57.063Z</time></trkpt><trkpt lat="37.59501" lon="-2.3848517"><ele>1128.0</ele><time>2026-04-25T08:19:58.063Z</time></trkpt><trkpt lat="37.5950383" lon="-2.3852233"><ele>1128.0</ele><time>2026-04-25T08:19:59.068Z</time></trkpt><trkpt lat="37.5950783" lon="-2.3855933"><ele>1126.5</ele><time>2026-04-25T08:20:00.064Z</time></trkpt><trkpt lat="37.59513" lon="-2.3859617"><ele>1125.0</ele><time>2026-04-25T08:20:01.061Z</time></trkpt><trkpt lat="37.5951917" lon="-2.3863283"><ele>1125.0</ele><time>2026-04-25T08:20:02.062Z</time></trkpt><trkpt lat="37.5952667" lon="-2.3866933"><ele>1125.0</ele><time>2026-04-25T08:20:03.063Z</time></trkpt><trkpt lat="37.595355" lon="-2.387055"><ele>1127.0</ele><time>2026-04-25T08:20:04.058Z</time></trkpt><trkpt lat="37.5954533" lon="-2.38741"><ele>1129.0</ele><time>2026-04-25T08:20:05.062Z</time></trkpt><trkpt lat="37.5955617" lon="-2.3877567"><ele>1129.0</ele><time>2026-04-25T08:20:06.062Z</time></trkpt><trkpt lat="37.5956733" lon="-2.3881"><ele>1129.0</ele><time>2026-04-25T08:20:07.061Z</time></trkpt><trkpt lat="37.59579" lon="-2.3884383"><ele>1129.0</ele><time>2026-04-25T08:20:08.064Z</time></trkpt><trkpt lat="37.5959117" lon="-2.3887733"><ele>1129.0</ele><time>2026-04-25T08:20:09.068Z</time></trkpt><trkpt lat="37.5960417" lon="-2.3891017"><ele>1129.0</ele><time>2026-04-25T08:20:10.064Z</time></trkpt><trkpt lat="37.59618" lon="-2.3894233"><ele>1129.0</ele><time>2026-04-25T08:20:11.064Z</time></trkpt><trkpt lat="37.5963283" lon="-2.389735"><ele>1129.0</ele><time>2026-04-25T08:20:12.062Z</time></trkpt><trkpt lat="37.5964767" lon="-2.390045"><ele>1129.0</ele><time>2026-04-25T08:20:13.068Z</time></trkpt><trkpt lat="37.5966233" lon="-2.3903583"><ele>1128.5</ele><time>2026-04-25T08:20:14.063Z</time></trkpt><trkpt lat="37.5967717" lon="-2.3906717"><ele>1128.0</ele><time>2026-04-25T08:20:15.061Z</time></trkpt><trkpt lat="37.5969183" lon="-2.3909917"><ele>1130.0</ele><time>2026-04-25T08:20:16.064Z</time></trkpt><trkpt lat="37.5970567" lon="-2.3913167"><ele>1132.0</ele><time>2026-04-25T08:20:17.063Z</time></trkpt><trkpt lat="37.597185" lon="-2.3916467"><ele>1132.0</ele><time>2026-04-25T08:20:18.061Z</time></trkpt><trkpt lat="37.5973067" lon="-2.391985"><ele>1132.0</ele><time>2026-04-25T08:20:19.061Z</time></trkpt><trkpt lat="37.5974167" lon="-2.3923233"><ele>1132.0</ele><time>2026-04-25T08:20:20.062Z</time></trkpt><trkpt lat="37.59752" lon="-2.3926717"><ele>1132.0</ele><time>2026-04-25T08:20:21.065Z</time></trkpt><trkpt lat="37.5976167" lon="-2.3930217"><ele>1132.0</ele><time>2026-04-25T08:20:22.06Z</time></trkpt><trkpt lat="37.597705" lon="-2.3933767"><ele>1132.0</ele><time>2026-04-25T08:20:23.065Z</time></trkpt><trkpt lat="37.597785" lon="-2.3937333"><ele>1134.5</ele><time>2026-04-25T08:20:24.061Z</time></trkpt><trkpt lat="37.59786" lon="-2.3940933"><ele>1137.0</ele><time>2026-04-25T08:20:25.062Z</time></trkpt><trkpt lat="37.5979283" lon="-2.394455"><ele>1137.0</ele><time>2026-04-25T08:20:26.065Z</time></trkpt><trkpt lat="37.5979917" lon="-2.3948183"><ele>1137.0</ele><time>2026-04-25T08:20:27.067Z</time></trkpt><trkpt lat="37.5980467" lon="-2.395185"><ele>1137.0</ele><time>2026-04-25T08:20:28.068Z</time></trkpt><trkpt lat="37.5981" lon="-2.3955533"><ele>1137.0</ele><time>2026-04-25T08:20:29.061Z</time></trkpt><trkpt lat="37.5981483" lon="-2.395925"><ele>1137.0</ele><time>2026-04-25T08:20:30.062Z</time></trkpt><trkpt lat="37.59819" lon="-2.3962983"><ele>1137.0</ele><time>2026-04-25T08:20:31.063Z</time></trkpt><trkpt lat="37.5982217" lon="-2.3966733"><ele>1137.0</ele><time>2026-04-25T08:20:32.057Z</time></trkpt><trkpt lat="37.598245" lon="-2.39705"><ele>1137.0</ele><time>2026-04-25T08:20:33.061Z</time></trkpt><trkpt lat="37.59826" lon="-2.3974283"><ele>1136.5</ele><time>2026-04-25T08:20:34.06Z</time></trkpt><trkpt lat="37.5982667" lon="-2.3978067"><ele>1136.0</ele><time>2026-04-25T08:20:35.064Z</time></trkpt><trkpt lat="37.5982667" lon="-2.3981867"><ele>1136.0</ele><time>2026-04-25T08:20:36.06Z</time></trkpt><trkpt lat="37.5982633" lon="-2.3985683"><ele>1136.0</ele><time>2026-04-25T08:20:37.06Z</time></trkpt><trkpt lat="37.5982567" lon="-2.39895"><ele>1135.5</ele><time>2026-04-25T08:20:38.063Z</time></trkpt><trkpt lat="37.598245" lon="-2.3993317"><ele>1135.0</ele><time>2026-04-25T08:20:39.063Z</time></trkpt><trkpt lat="37.598225" lon="-2.3997183"><ele>1133.5</ele><time>2026-04-25T08:20:40.06Z</time></trkpt><trkpt lat="37.5981933" lon="-2.4001067"><ele>1132.0</ele><time>2026-04-25T08:20:41.064Z</time></trkpt><trkpt lat="37.5981533" lon="-2.400495"><ele>1132.5</ele><time>2026-04-25T08:20:42.063Z</time></trkpt><trkpt lat="37.5981017" lon="-2.4008817"><ele>1133.0</ele><time>2026-04-25T08:20:43.064Z</time></trkpt><trkpt lat="37.598035" lon="-2.401265"><ele>1132.5</ele><time>2026-04-25T08:20:44.066Z</time></trkpt><trkpt lat="37.597955" lon="-2.401645"><ele>1132.0</ele><time>2026-04-25T08:20:45.067Z</time></trkpt><trkpt lat="37.59786" lon="-2.4020233"><ele>1130.5</ele><time>2026-04-25T08:20:46.064Z</time></trkpt><trkpt lat="37.5977517" lon="-2.402395"><ele>1129.0</ele><time>2026-04-25T08:20:47.07Z</time></trkpt><trkpt lat="37.5976267" lon="-2.4027583"><ele>1128.0</ele><time>2026-04-25T08:20:48.059Z</time></trkpt><trkpt lat="37.5974883" lon="-2.403115"><ele>1127.0</ele><time>2026-04-25T08:20:49.062Z</time></trkpt><trkpt lat="37.597335" lon="-2.4034583"><ele>1127.0</ele><time>2026-04-25T08:20:50.061Z</time></trkpt><trkpt lat="37.5971667" lon="-2.403795"><ele>1127.0</ele><time>2026-04-25T08:20:51.065Z</time></trkpt><trkpt lat="37.59699" lon="-2.40412"><ele>1124.5</ele><time>2026-04-25T08:20:52.061Z</time></trkpt><trkpt lat="37.5968067" lon="-2.4044333"><ele>1122.0</ele><time>2026-04-25T08:20:53.059Z</time></trkpt><trkpt lat="37.59662" lon="-2.40474"><ele>1121.5</ele><time>2026-04-25T08:20:54.061Z</time></trkpt><trkpt lat="37.5964317" lon="-2.405045"><ele>1121.0</ele><time>2026-04-25T08:20:55.063Z</time></trkpt><trkpt lat="37.596245" lon="-2.40535"><ele>1118.5</ele><time>2026-04-25T08:20:56.061Z</time></trkpt><trkpt lat="37.596065" lon="-2.4056583"><ele>1116.0</ele><time>2026-04-25T08:20:57.061Z</time></trkpt><trkpt lat="37.595895" lon="-2.4059767"><ele>1116.0</ele><time>2026-04-25T08:20:58.062Z</time></trkpt><trkpt lat="37.5957383" lon="-2.4063033"><ele>1116.0</ele><time>2026-04-25T08:20:59.064Z</time></trkpt><trkpt lat="37.595595" lon="-2.406645"><ele>1116.0</ele><time>2026-04-25T08:21:00.062Z</time></trkpt><trkpt lat="37.59547" lon="-2.406995"><ele>1116.0</ele><time>2026-04-25T08:21:01.063Z</time></trkpt><trkpt lat="37.5953583" lon="-2.4073533"><ele>1114.0</ele><time>2026-04-25T08:21:02.062Z</time></trkpt><trkpt lat="37.5952583" lon="-2.40772"><ele>1112.0</ele><time>2026-04-25T08:21:03.059Z</time></trkpt><trkpt lat="37.5951733" lon="-2.4080917"><ele>1112.0</ele><time>2026-04-25T08:21:04.06Z</time></trkpt><trkpt lat="37.5951017" lon="-2.40847"><ele>1112.0</ele><time>2026-04-25T08:21:05.081Z</time></trkpt><trkpt lat="37.595045" lon="-2.4088517"><ele>1112.0</ele><time>2026-04-25T08:21:06.059Z</time></trkpt><trkpt lat="37.5950017" lon="-2.409235"><ele>1112.0</ele><time>2026-04-25T08:21:07.067Z</time></trkpt><trkpt lat="37.59497" lon="-2.4096233"><ele>1111.0</ele><time>2026-04-25T08:21:08.068Z</time></trkpt><trkpt lat="37.594945" lon="-2.41001"><ele>1110.0</ele><time>2026-04-25T08:21:09.069Z</time></trkpt><trkpt lat="37.5949217" lon="-2.4103967"><ele>1110.5</ele><time>2026-04-25T08:21:10.058Z</time></trkpt><trkpt lat="37.5948967" lon="-2.4107833"><ele>1111.0</ele><time>2026-04-25T08:21:11.065Z</time></trkpt><trkpt lat="37.5948733" lon="-2.41117"><ele>1111.0</ele><time>2026-04-25T08:21:12.061Z</time></trkpt><trkpt lat="37.59485" lon="-2.4115583"><ele>1111.0</ele><time>2026-04-25T08:21:13.062Z</time></trkpt><trkpt lat="37.5948233" lon="-2.4119467"><ele>1111.0</ele><time>2026-04-25T08:21:14.063Z</time></trkpt><trkpt lat="37.5947983" lon="-2.4123333"><ele>1111.0</ele><time>2026-04-25T08:21:15.068Z</time></trkpt><trkpt lat="37.5947717" lon="-2.41272"><ele>1110.0</ele><time>2026-04-25T08:21:16.071Z</time></trkpt><trkpt lat="37.5947433" lon="-2.4131067"><ele>1109.0</ele><time>2026-04-25T08:21:17.066Z</time></trkpt><trkpt lat="37.5947183" lon="-2.4134933"><ele>1108.5</ele><time>2026-04-25T08:21:18.062Z</time></trkpt><trkpt lat="37.59469" lon="-2.41388"><ele>1108.0</ele><time>2026-04-25T08:21:19.063Z</time></trkpt><trkpt lat="37.5946617" lon="-2.41427"><ele>1107.5</ele><time>2026-04-25T08:21:20.063Z</time></trkpt><trkpt lat="37.5946333" lon="-2.4146617"><ele>1107.0</ele><time>2026-04-25T08:21:21.065Z</time></trkpt><trkpt lat="37.5946067" lon="-2.4150517"><ele>1107.0</ele><time>2026-04-25T08:21:22.061Z</time></trkpt><trkpt lat="37.59458" lon="-2.4154367"><ele>1107.0</ele><time>2026-04-25T08:21:23.064Z</time></trkpt><trkpt lat="37.5945533" lon="-2.4158233"><ele>1107.0</ele><time>2026-04-25T08:21:24.064Z</time></trkpt><trkpt lat="37.59453" lon="-2.4162067"><ele>1107.0</ele><time>2026-04-25T08:21:25.062Z</time></trkpt><trkpt lat="37.5945067" lon="-2.41659"><ele>1105.0</ele><time>2026-04-25T08:21:26.066Z</time></trkpt><trkpt lat="37.5944833" lon="-2.41697"><ele>1103.0</ele><time>2026-04-25T08:21:27.065Z</time></trkpt><trkpt lat="37.5944583" lon="-2.4173483"><ele>1102.0</ele><time>2026-04-25T08:21:28.06Z</time></trkpt><trkpt lat="37.5944333" lon="-2.417725"><ele>1101.0</ele><time>2026-04-25T08:21:29.061Z</time></trkpt><trkpt lat="37.5944067" lon="-2.4180983"><ele>1101.0</ele><time>2026-04-25T08:21:30.066Z</time></trkpt><trkpt lat="37.5943783" lon="-2.418475"><ele>1101.0</ele><time>2026-04-25T08:21:31.067Z</time></trkpt><trkpt lat="37.594345" lon="-2.4188517"><ele>1100.5</ele><time>2026-04-25T08:21:32.063Z</time></trkpt><trkpt lat="37.59431" lon="-2.41923"><ele>1100.0</ele><time>2026-04-25T08:21:33.064Z</time></trkpt><trkpt lat="37.59427" lon="-2.4196083"><ele>1099.0</ele><time>2026-04-25T08:21:34.066Z</time></trkpt><trkpt lat="37.594235" lon="-2.4199883"><ele>1098.0</ele><time>2026-04-25T08:21:35.065Z</time></trkpt><trkpt lat="37.5942067" lon="-2.4203683"><ele>1098.0</ele><time>2026-04-25T08:21:36.06Z</time></trkpt><trkpt lat="37.5941817" lon="-2.4207533"><ele>1098.0</ele><time>2026-04-25T08:21:37.058Z</time></trkpt><trkpt lat="37.594155" lon="-2.421135"><ele>1097.5</ele><time>2026-04-25T08:21:38.073Z</time></trkpt><trkpt lat="37.5941317" lon="-2.4215167"><ele>1097.0</ele><time>2026-04-25T08:21:39.059Z</time></trkpt><trkpt lat="37.5941067" lon="-2.4219"><ele>1097.5</ele><time>2026-04-25T08:21:40.064Z</time></trkpt><trkpt lat="37.5940867" lon="-2.422285"><ele>1098.0</ele><time>2026-04-25T08:21:41.068Z</time></trkpt><trkpt lat="37.5940717" lon="-2.4226717"><ele>1097.5</ele><time>2026-04-25T08:21:42.071Z</time></trkpt><trkpt lat="37.5940517" lon="-2.4230583"><ele>1097.0</ele><time>2026-04-25T08:21:43.066Z</time></trkpt><trkpt lat="37.5940317" lon="-2.4234433"><ele>1096.5</ele><time>2026-04-25T08:21:44.064Z</time></trkpt><trkpt lat="37.594005" lon="-2.4238267"><ele>1096.0</ele><time>2026-04-25T08:21:45.062Z</time></trkpt><trkpt lat="37.5939767" lon="-2.4242083"><ele>1096.0</ele><time>2026-04-25T08:21:46.061Z</time></trkpt><trkpt lat="37.5939467" lon="-2.4245883"><ele>1096.0</ele><time>2026-04-25T08:21:47.063Z</time></trkpt><trkpt lat="37.59392" lon="-2.4249683"><ele>1095.0</ele><time>2026-04-25T08:21:48.065Z</time></trkpt><trkpt lat="37.593895" lon="-2.42535"><ele>1094.0</ele><time>2026-04-25T08:21:49.063Z</time></trkpt><trkpt lat="37.59387" lon="-2.4257333"><ele>1094.0</ele><time>2026-04-25T08:21:50.064Z</time></trkpt><trkpt lat="37.5938467" lon="-2.42612"><ele>1094.0</ele><time>2026-04-25T08:21:51.062Z</time></trkpt><trkpt lat="37.59382" lon="-2.4265033"><ele>1094.0</ele><time>2026-04-25T08:21:52.062Z</time></trkpt><trkpt lat="37.5937933" lon="-2.426885"><ele>1094.0</ele><time>2026-04-25T08:21:53.062Z</time></trkpt><trkpt lat="37.5937633" lon="-2.4272617"><ele>1094.0</ele><time>2026-04-25T08:21:54.06Z</time></trkpt><trkpt lat="37.59374" lon="-2.42764"><ele>1094.0</ele><time>2026-04-25T08:21:55.06Z</time></trkpt><trkpt lat="37.593715" lon="-2.4280167"><ele>1094.0</ele><time>2026-04-25T08:21:56.062Z</time></trkpt><trkpt lat="37.5936917" lon="-2.428395"><ele>1094.0</ele><time>2026-04-25T08:21:57.062Z</time></trkpt><trkpt lat="37.593665" lon="-2.4287717"><ele>1092.0</ele><time>2026-04-25T08:21:58.06Z</time></trkpt><trkpt lat="37.59364" lon="-2.429145"><ele>1090.0</ele><time>2026-04-25T08:21:59.069Z</time></trkpt><trkpt lat="37.5936133" lon="-2.4295183"><ele>1090.0</ele><time>2026-04-25T08:22:00.061Z</time></trkpt><trkpt lat="37.5935883" lon="-2.4298917"><ele>1090.0</ele><time>2026-04-25T08:22:01.061Z</time></trkpt><trkpt lat="37.593565" lon="-2.4302667"><ele>1090.0</ele><time>2026-04-25T08:22:02.061Z</time></trkpt><trkpt lat="37.59354" lon="-2.4306383"><ele>1090.0</ele><time>2026-04-25T08:22:03.059Z</time></trkpt><trkpt lat="37.5935133" lon="-2.43101"><ele>1089.5</ele><time>2026-04-25T08:22:04.064Z</time></trkpt><trkpt lat="37.5934867" lon="-2.4313867"><ele>1089.0</ele><time>2026-04-25T08:22:05.059Z</time></trkpt><trkpt lat="37.59346" lon="-2.4317617"><ele>1089.0</ele><time>2026-04-25T08:22:06.061Z</time></trkpt><trkpt lat="37.5934333" lon="-2.4321367"><ele>1089.0</ele><time>2026-04-25T08:22:07.062Z</time></trkpt><trkpt lat="37.5934083" lon="-2.4325167"><ele>1088.0</ele><time>2026-04-25T08:22:08.064Z</time></trkpt><trkpt lat="37.593385" lon="-2.4328967"><ele>1087.0</ele><time>2026-04-25T08:22:09.063Z</time></trkpt><trkpt lat="37.5933583" lon="-2.4332783"><ele>1086.5</ele><time>2026-04-25T08:22:10.059Z</time></trkpt><trkpt lat="37.5933333" lon="-2.4336583"><ele>1086.0</ele><time>2026-04-25T08:22:11.06Z</time></trkpt><trkpt lat="37.5933083" lon="-2.43404"><ele>1086.0</ele><time>2026-04-25T08:22:12.062Z</time></trkpt><trkpt lat="37.5932817" lon="-2.43442"><ele>1086.0</ele><time>2026-04-25T08:22:13.062Z</time></trkpt><trkpt lat="37.5932567" lon="-2.4348017"><ele>1085.0</ele><time>2026-04-25T08:22:14.063Z</time></trkpt><trkpt lat="37.5932317" lon="-2.4351817"><ele>1084.0</ele><time>2026-04-25T08:22:15.068Z</time></trkpt><trkpt lat="37.593205" lon="-2.4355617"><ele>1083.5</ele><time>2026-04-25T08:22:16.065Z</time></trkpt><trkpt lat="37.5931783" lon="-2.4359433"><ele>1083.0</ele><time>2026-04-25T08:22:17.065Z</time></trkpt><trkpt lat="37.5931517" lon="-2.4363267"><ele>1082.5</ele><time>2026-04-25T08:22:18.062Z</time></trkpt><trkpt lat="37.593125" lon="-2.4367083"><ele>1082.0</ele><time>2026-04-25T08:22:19.066Z</time></trkpt><trkpt lat="37.593095" lon="-2.43709"><ele>1081.0</ele><time>2026-04-25T08:22:20.063Z</time></trkpt><trkpt lat="37.5930617" lon="-2.4374717"><ele>1080.0</ele><time>2026-04-25T08:22:21.065Z</time></trkpt><trkpt lat="37.5930267" lon="-2.43785"><ele>1080.0</ele><time>2026-04-25T08:22:22.061Z</time></trkpt><trkpt lat="37.5929933" lon="-2.4382283"><ele>1080.0</ele><time>2026-04-25T08:22:23.062Z</time></trkpt><trkpt lat="37.5929617" lon="-2.438605"><ele>1080.0</ele><time>2026-04-25T08:22:24.064Z</time></trkpt><trkpt lat="37.5929333" lon="-2.4389817"><ele>1080.0</ele><time>2026-04-25T08:22:25.064Z</time></trkpt><trkpt lat="37.5929067" lon="-2.4393567"><ele>1080.0</ele><time>2026-04-25T08:22:26.062Z</time></trkpt><trkpt lat="37.59288" lon="-2.4397317"><ele>1080.0</ele><time>2026-04-25T08:22:27.062Z</time></trkpt><trkpt lat="37.5928533" lon="-2.440105"><ele>1079.0</ele><time>2026-04-25T08:22:28.063Z</time></trkpt><trkpt lat="37.5928283" lon="-2.4404783"><ele>1078.0</ele><time>2026-04-25T08:22:29.072Z</time></trkpt><trkpt lat="37.592805" lon="-2.4408517"><ele>1078.0</ele><time>2026-04-25T08:22:30.064Z</time></trkpt><trkpt lat="37.5927867" lon="-2.4412267"><ele>1078.0</ele><time>2026-04-25T08:22:31.06Z</time></trkpt><trkpt lat="37.59277" lon="-2.4416017"><ele>1078.0</ele><time>2026-04-25T08:22:32.061Z</time></trkpt><trkpt lat="37.5927533" lon="-2.4419783"><ele>1078.0</ele><time>2026-04-25T08:22:33.061Z</time></trkpt><trkpt lat="37.59273" lon="-2.442355"><ele>1077.5</ele><time>2026-04-25T08:22:34.061Z</time></trkpt><trkpt lat="37.592705" lon="-2.4427317"><ele>1077.0</ele><time>2026-04-25T08:22:35.063Z</time></trkpt><trkpt lat="37.5926767" lon="-2.44311"><ele>1077.0</ele><time>2026-04-25T08:22:36.066Z</time></trkpt><trkpt lat="37.59265" lon="-2.44349"><ele>1077.0</ele><time>2026-04-25T08:22:37.07Z</time></trkpt><trkpt lat="37.5926233" lon="-2.4438717"><ele>1077.0</ele><time>2026-04-25T08:22:38.069Z</time></trkpt><trkpt lat="37.5925983" lon="-2.4442567"><ele>1077.0</ele><time>2026-04-25T08:22:39.062Z</time></trkpt><trkpt lat="37.592575" lon="-2.4446417"><ele>1077.0</ele><time>2026-04-25T08:22:40.061Z</time></trkpt><trkpt lat="37.59255" lon="-2.4450267"><ele>1077.0</ele><time>2026-04-25T08:22:41.064Z</time></trkpt><trkpt lat="37.592525" lon="-2.44541"><ele>1077.0</ele><time>2026-04-25T08:22:42.065Z</time></trkpt><trkpt lat="37.5924983" lon="-2.445795"><ele>1077.0</ele><time>2026-04-25T08:22:43.066Z</time></trkpt><trkpt lat="37.5924717" lon="-2.4461783"><ele>1077.5</ele><time>2026-04-25T08:22:44.064Z</time></trkpt><trkpt lat="37.592445" lon="-2.44656"><ele>1078.0</ele><time>2026-04-25T08:22:45.064Z</time></trkpt><trkpt lat="37.5924183" lon="-2.4469383"><ele>1078.0</ele><time>2026-04-25T08:22:46.064Z</time></trkpt><trkpt lat="37.5923917" lon="-2.4473167"><ele>1078.0</ele><time>2026-04-25T08:22:47.064Z</time></trkpt><trkpt lat="37.592365" lon="-2.44769"><ele>1078.0</ele><time>2026-04-25T08:22:48.063Z</time></trkpt><trkpt lat="37.5923383" lon="-2.4480617"><ele>1078.0</ele><time>2026-04-25T08:22:49.063Z</time></trkpt><trkpt lat="37.5923133" lon="-2.4484317"><ele>1078.5</ele><time>2026-04-25T08:22:50.062Z</time></trkpt><trkpt lat="37.5922867" lon="-2.4487983"><ele>1079.0</ele><time>2026-04-25T08:22:51.064Z</time></trkpt><trkpt lat="37.5922617" lon="-2.449165"><ele>1079.0</ele><time>2026-04-25T08:22:52.06Z</time></trkpt><trkpt lat="37.5922367" lon="-2.4495267"><ele>1079.0</ele><time>2026-04-25T08:22:53.062Z</time></trkpt><trkpt lat="37.5922117" lon="-2.4498883"><ele>1079.5</ele><time>2026-04-25T08:22:54.063Z</time></trkpt><trkpt lat="37.5921867" lon="-2.4502467"><ele>1080.0</ele><time>2026-04-25T08:22:55.063Z</time></trkpt><trkpt lat="37.5921583" lon="-2.4506033"><ele>1080.5</ele><time>2026-04-25T08:22:56.063Z</time></trkpt><trkpt lat="37.59213" lon="-2.45096"><ele>1081.0</ele><time>2026-04-25T08:22:57.06Z</time></trkpt><trkpt lat="37.5921033" lon="-2.4513133"><ele>1082.0</ele><time>2026-04-25T08:22:58.06Z</time></trkpt><trkpt lat="37.592075" lon="-2.4516717"><ele>1083.0</ele><time>2026-04-25T08:22:59.064Z</time></trkpt><trkpt lat="37.5920483" lon="-2.45203"><ele>1083.0</ele><time>2026-04-25T08:23:00.064Z</time></trkpt><trkpt lat="37.592025" lon="-2.4523933"><ele>1083.0</ele><time>2026-04-25T08:23:01.064Z</time></trkpt><trkpt lat="37.592" lon="-2.4527567"><ele>1079.5</ele><time>2026-04-25T08:23:02.065Z</time></trkpt><trkpt lat="37.591975" lon="-2.4531217"><ele>1076.0</ele><time>2026-04-25T08:23:03.07Z</time></trkpt><trkpt lat="37.5919517" lon="-2.4534883"><ele>1076.5</ele><time>2026-04-25T08:23:04.064Z</time></trkpt><trkpt lat="37.5919267" lon="-2.4538583"><ele>1077.0</ele><time>2026-04-25T08:23:05.061Z</time></trkpt><trkpt lat="37.5919" lon="-2.4542283"><ele>1077.0</ele><time>2026-04-25T08:23:06.065Z</time></trkpt><trkpt lat="37.5918733" lon="-2.4546017"><ele>1077.0</ele><time>2026-04-25T08:23:07.063Z</time></trkpt><trkpt lat="37.591845" lon="-2.4549767"><ele>1076.5</ele><time>2026-04-25T08:23:08.064Z</time></trkpt><trkpt lat="37.5918183" lon="-2.4553517"><ele>1076.0</ele><time>2026-04-25T08:23:09.062Z</time></trkpt><trkpt lat="37.5917917" lon="-2.455725"><ele>1075.0</ele><time>2026-04-25T08:23:10.066Z</time></trkpt><trkpt lat="37.5917667" lon="-2.4560983"><ele>1074.0</ele><time>2026-04-25T08:23:11.065Z</time></trkpt><trkpt lat="37.5917383" lon="-2.45647"><ele>1074.0</ele><time>2026-04-25T08:23:12.061Z</time></trkpt><trkpt lat="37.5917067" lon="-2.45684"><ele>1074.0</ele><time>2026-04-25T08:23:13.062Z</time></trkpt><trkpt lat="37.591675" lon="-2.4572117"><ele>1074.0</ele><time>2026-04-25T08:23:14.06Z</time></trkpt><trkpt lat="37.591645" lon="-2.4575833"><ele>1074.0</ele><time>2026-04-25T08:23:15.061Z</time></trkpt><trkpt lat="37.5916167" lon="-2.4579533"><ele>1072.5</ele><time>2026-04-25T08:23:16.059Z</time></trkpt><trkpt lat="37.5915883" lon="-2.458325"><ele>1071.0</ele><time>2026-04-25T08:23:17.062Z</time></trkpt><trkpt lat="37.5915633" lon="-2.4586983"><ele>1070.5</ele><time>2026-04-25T08:23:18.065Z</time></trkpt><trkpt lat="37.5915417" lon="-2.4590733"><ele>1070.0</ele><time>2026-04-25T08:23:19.069Z</time></trkpt><trkpt lat="37.5915267" lon="-2.4594483"><ele>1070.0</ele><time>2026-04-25T08:23:20.061Z</time></trkpt><trkpt lat="37.591515" lon="-2.4598267"><ele>1070.0</ele><time>2026-04-25T08:23:21.064Z</time></trkpt><trkpt lat="37.591495" lon="-2.4602067"><ele>1069.5</ele><time>2026-04-25T08:23:22.063Z</time></trkpt><trkpt lat="37.59147" lon="-2.460585"><ele>1069.0</ele><time>2026-04-25T08:23:23.06Z</time></trkpt><trkpt lat="37.5914433" lon="-2.4609583"><ele>1068.0</ele><time>2026-04-25T08:23:24.063Z</time></trkpt><trkpt lat="37.5914183" lon="-2.4613317"><ele>1067.0</ele><time>2026-04-25T08:23:25.06Z</time></trkpt><trkpt lat="37.5913933" lon="-2.4617067"><ele>1067.0</ele><time>2026-04-25T08:23:26.065Z</time></trkpt><trkpt lat="37.5913667" lon="-2.46208"><ele>1067.0</ele><time>2026-04-25T08:23:27.061Z</time></trkpt><trkpt lat="37.59134" lon="-2.4624567"><ele>1066.0</ele><time>2026-04-25T08:23:28.062Z</time></trkpt><trkpt lat="37.5913133" lon="-2.46283"><ele>1065.0</ele><time>2026-04-25T08:23:29.063Z</time></trkpt><trkpt lat="37.5912883" lon="-2.4632017"><ele>1064.5</ele><time>2026-04-25T08:23:30.064Z</time></trkpt><trkpt lat="37.5912633" lon="-2.463575"><ele>1064.0</ele><time>2026-04-25T08:23:31.06Z</time></trkpt><trkpt lat="37.5912383" lon="-2.4639483"><ele>1064.0</ele><time>2026-04-25T08:23:32.064Z</time></trkpt><trkpt lat="37.5912117" lon="-2.46432"><ele>1064.0</ele><time>2026-04-25T08:23:33.065Z</time></trkpt><trkpt lat="37.5911867" lon="-2.4646917"><ele>1062.0</ele><time>2026-04-25T08:23:34.068Z</time></trkpt><trkpt lat="37.5911617" lon="-2.465065"><ele>1060.0</ele><time>2026-04-25T08:23:35.064Z</time></trkpt><trkpt lat="37.5911367" lon="-2.4654383"><ele>1060.0</ele><time>2026-04-25T08:23:36.067Z</time></trkpt><trkpt lat="37.59111" lon="-2.46581"><ele>1060.0</ele><time>2026-04-25T08:23:37.064Z</time></trkpt><trkpt lat="37.59108" lon="-2.4661817"><ele>1059.5</ele><time>2026-04-25T08:23:38.061Z</time></trkpt><trkpt lat="37.59105" lon="-2.4665517"><ele>1059.0</ele><time>2026-04-25T08:23:39.062Z</time></trkpt><trkpt lat="37.59102" lon="-2.4669217"><ele>1058.5</ele><time>2026-04-25T08:23:40.062Z</time></trkpt><trkpt lat="37.59099" lon="-2.46729"><ele>1058.0</ele><time>2026-04-25T08:23:41.063Z</time></trkpt><trkpt lat="37.590965" lon="-2.4676567"><ele>1058.0</ele><time>2026-04-25T08:23:42.062Z</time></trkpt><trkpt lat="37.5909433" lon="-2.4680217"><ele>1058.0</ele><time>2026-04-25T08:23:43.066Z</time></trkpt><trkpt lat="37.59092" lon="-2.4683867"><ele>1058.0</ele><time>2026-04-25T08:23:44.063Z</time></trkpt><trkpt lat="37.5908967" lon="-2.46875"><ele>1058.0</ele><time>2026-04-25T08:23:45.061Z</time></trkpt><trkpt lat="37.5908717" lon="-2.4691133"><ele>1058.0</ele><time>2026-04-25T08:23:46.059Z</time></trkpt><trkpt lat="37.5908467" lon="-2.469475"><ele>1058.0</ele><time>2026-04-25T08:23:47.062Z</time></trkpt><trkpt lat="37.5908233" lon="-2.4698333"><ele>1057.5</ele><time>2026-04-25T08:23:48.061Z</time></trkpt><trkpt lat="37.5907983" lon="-2.47019"><ele>1057.0</ele><time>2026-04-25T08:23:49.059Z</time></trkpt><trkpt lat="37.5907717" lon="-2.4705467"><ele>1057.0</ele><time>2026-04-25T08:23:50.063Z</time></trkpt><trkpt lat="37.590745" lon="-2.4709"><ele>1057.0</ele><time>2026-04-25T08:23:51.062Z</time></trkpt><trkpt lat="37.59072" lon="-2.4712533"><ele>1056.5</ele><time>2026-04-25T08:23:52.063Z</time></trkpt><trkpt lat="37.5906917" lon="-2.4716067"><ele>1056.0</ele><time>2026-04-25T08:23:53.06Z</time></trkpt><trkpt lat="37.5906683" lon="-2.4719583"><ele>1056.5</ele><time>2026-04-25T08:23:54.068Z</time></trkpt><trkpt lat="37.5906433" lon="-2.47231"><ele>1057.0</ele><time>2026-04-25T08:23:55.07Z</time></trkpt><trkpt lat="37.59062" lon="-2.4726667"><ele>1056.0</ele><time>2026-04-25T08:23:56.068Z</time></trkpt><trkpt lat="37.5905967" lon="-2.473025"><ele>1055.0</ele><time>2026-04-25T08:23:57.065Z</time></trkpt><trkpt lat="37.5905733" lon="-2.4733883"><ele>1055.0</ele><time>2026-04-25T08:23:58.064Z</time></trkpt><trkpt lat="37.5905483" lon="-2.4737517"><ele>1055.0</ele><time>2026-04-25T08:23:59.06Z</time></trkpt><trkpt lat="37.5905217" lon="-2.47412"><ele>1054.0</ele><time>2026-04-25T08:24:00.066Z</time></trkpt><trkpt lat="37.5904933" lon="-2.47449"><ele>1053.0</ele><time>2026-04-25T08:24:01.064Z</time></trkpt><trkpt lat="37.5904667" lon="-2.4748617"><ele>1052.5</ele><time>2026-04-25T08:24:02.062Z</time></trkpt><trkpt lat="37.59044" lon="-2.475235"><ele>1052.0</ele><time>2026-04-25T08:24:03.061Z</time></trkpt><trkpt lat="37.5904167" lon="-2.4756067"><ele>1050.0</ele><time>2026-04-25T08:24:04.062Z</time></trkpt><trkpt lat="37.5903917" lon="-2.4759817"><ele>1048.0</ele><time>2026-04-25T08:24:05.062Z</time></trkpt><trkpt lat="37.5903633" lon="-2.47636"><ele>1047.5</ele><time>2026-04-25T08:24:06.062Z</time></trkpt><trkpt lat="37.5903383" lon="-2.4767367"><ele>1047.0</ele><time>2026-04-25T08:24:07.063Z</time></trkpt><trkpt lat="37.59031" lon="-2.477115"><ele>1047.0</ele><time>2026-04-25T08:24:08.06Z</time></trkpt><trkpt lat="37.5902833" lon="-2.4774917"><ele>1047.0</ele><time>2026-04-25T08:24:09.06Z</time></trkpt><trkpt lat="37.5902567" lon="-2.4778683"><ele>1042.5</ele><time>2026-04-25T08:24:10.063Z</time></trkpt><trkpt lat="37.5902283" lon="-2.4782433"><ele>1038.0</ele><time>2026-04-25T08:24:11.063Z</time></trkpt><trkpt lat="37.5902017" lon="-2.4786167"><ele>1036.5</ele><time>2026-04-25T08:24:12.062Z</time></trkpt><trkpt lat="37.5901733" lon="-2.4789917"><ele>1035.0</ele><time>2026-04-25T08:24:13.063Z</time></trkpt><trkpt lat="37.5901483" lon="-2.479365"><ele>1036.0</ele><time>2026-04-25T08:24:14.06Z</time></trkpt><trkpt lat="37.590125" lon="-2.4797383"><ele>1037.0</ele><time>2026-04-25T08:24:15.06Z</time></trkpt><trkpt lat="37.5900983" lon="-2.480115"><ele>1037.5</ele><time>2026-04-25T08:24:16.066Z</time></trkpt><trkpt lat="37.59007" lon="-2.48049"><ele>1038.0</ele><time>2026-04-25T08:24:17.065Z</time></trkpt><trkpt lat="37.590045" lon="-2.4808617"><ele>1038.0</ele><time>2026-04-25T08:24:18.063Z</time></trkpt><trkpt lat="37.59002" lon="-2.4812317"><ele>1038.0</ele><time>2026-04-25T08:24:19.063Z</time></trkpt><trkpt lat="37.5899933" lon="-2.4816033"><ele>1038.0</ele><time>2026-04-25T08:24:20.063Z</time></trkpt><trkpt lat="37.5899683" lon="-2.4819767"><ele>1038.0</ele><time>2026-04-25T08:24:21.063Z</time></trkpt><trkpt lat="37.5899433" lon="-2.4823483"><ele>1038.0</ele><time>2026-04-25T08:24:22.064Z</time></trkpt><trkpt lat="37.5899183" lon="-2.48272"><ele>1038.0</ele><time>2026-04-25T08:24:23.061Z</time></trkpt><trkpt lat="37.5898933" lon="-2.4830917"><ele>1038.0</ele><time>2026-04-25T08:24:24.065Z</time></trkpt><trkpt lat="37.589865" lon="-2.4834633"><ele>1038.0</ele><time>2026-04-25T08:24:25.06Z</time></trkpt><trkpt lat="37.5898367" lon="-2.483835"><ele>1037.5</ele><time>2026-04-25T08:24:26.067Z</time></trkpt><trkpt lat="37.58981" lon="-2.48421"><ele>1037.0</ele><time>2026-04-25T08:24:27.061Z</time></trkpt><trkpt lat="37.58978" lon="-2.48459"><ele>1036.5</ele><time>2026-04-25T08:24:28.059Z</time></trkpt><trkpt lat="37.5897533" lon="-2.4849683"><ele>1036.0</ele><time>2026-04-25T08:24:29.061Z</time></trkpt><trkpt lat="37.5897267" lon="-2.48535"><ele>1035.0</ele><time>2026-04-25T08:24:30.063Z</time></trkpt><trkpt lat="37.5896983" lon="-2.4857317"><ele>1034.0</ele><time>2026-04-25T08:24:31.064Z</time></trkpt><trkpt lat="37.5896717" lon="-2.4861167"><ele>1033.5</ele><time>2026-04-25T08:24:32.062Z</time></trkpt><trkpt lat="37.589645" lon="-2.4865033"><ele>1033.0</ele><time>2026-04-25T08:24:33.062Z</time></trkpt><trkpt lat="37.5896167" lon="-2.486895"><ele>1032.0</ele><time>2026-04-25T08:24:34.061Z</time></trkpt><trkpt lat="37.5895917" lon="-2.48729"><ele>1031.0</ele><time>2026-04-25T08:24:35.067Z</time></trkpt><trkpt lat="37.5895633" lon="-2.4876883"><ele>1032.0</ele><time>2026-04-25T08:24:36.062Z</time></trkpt><trkpt lat="37.5895383" lon="-2.4880867"><ele>1033.0</ele><time>2026-04-25T08:24:37.062Z</time></trkpt><trkpt lat="37.5895117" lon="-2.4884867"><ele>1030.5</ele><time>2026-04-25T08:24:38.07Z</time></trkpt><trkpt lat="37.5894833" lon="-2.4888867"><ele>1028.0</ele><time>2026-04-25T08:24:39.059Z</time></trkpt><trkpt lat="37.5894567" lon="-2.4892833"><ele>1028.0</ele><time>2026-04-25T08:24:40.064Z</time></trkpt><trkpt lat="37.5894267" lon="-2.4896767"><ele>1028.0</ele><time>2026-04-25T08:24:41.069Z</time></trkpt><trkpt lat="37.5893967" lon="-2.49007"><ele>1029.0</ele><time>2026-04-25T08:24:42.064Z</time></trkpt><trkpt lat="37.5893667" lon="-2.4904633"><ele>1030.0</ele><time>2026-04-25T08:24:43.064Z</time></trkpt><trkpt lat="37.58934" lon="-2.4908533"><ele>1030.0</ele><time>2026-04-25T08:24:44.061Z</time></trkpt><trkpt lat="37.589315" lon="-2.4912433"><ele>1030.0</ele><time>2026-04-25T08:24:45.062Z</time></trkpt><trkpt lat="37.5892883" lon="-2.4916333"><ele>1029.5</ele><time>2026-04-25T08:24:46.063Z</time></trkpt><trkpt lat="37.5892617" lon="-2.492025"><ele>1029.0</ele><time>2026-04-25T08:24:47.065Z</time></trkpt><trkpt lat="37.5892367" lon="-2.492415"><ele>1028.5</ele><time>2026-04-25T08:24:48.064Z</time></trkpt><trkpt lat="37.5892083" lon="-2.4928067"><ele>1028.0</ele><time>2026-04-25T08:24:49.071Z</time></trkpt><trkpt lat="37.5891767" lon="-2.4932017"><ele>1027.5</ele><time>2026-04-25T08:24:50.064Z</time></trkpt><trkpt lat="37.5891467" lon="-2.4935933"><ele>1027.0</ele><time>2026-04-25T08:24:51.065Z</time></trkpt><trkpt lat="37.5891167" lon="-2.493985"><ele>1026.0</ele><time>2026-04-25T08:24:52.06Z</time></trkpt><trkpt lat="37.5890883" lon="-2.494375"><ele>1025.0</ele><time>2026-04-25T08:24:53.061Z</time></trkpt><trkpt lat="37.58906" lon="-2.4947683"><ele>1024.5</ele><time>2026-04-25T08:24:54.061Z</time></trkpt><trkpt lat="37.589035" lon="-2.4951583"><ele>1024.0</ele><time>2026-04-25T08:24:55.06Z</time></trkpt><trkpt lat="37.5890067" lon="-2.4955483"><ele>1023.5</ele><time>2026-04-25T08:24:56.061Z</time></trkpt><trkpt lat="37.58898" lon="-2.4959383"><ele>1023.0</ele><time>2026-04-25T08:24:57.059Z</time></trkpt><trkpt lat="37.5889517" lon="-2.4963267"><ele>1023.0</ele><time>2026-04-25T08:24:58.062Z</time></trkpt><trkpt lat="37.5889233" lon="-2.496715"><ele>1023.0</ele><time>2026-04-25T08:24:59.062Z</time></trkpt><trkpt lat="37.588895" lon="-2.4971017"><ele>1022.5</ele><time>2026-04-25T08:25:00.063Z</time></trkpt><trkpt lat="37.5888683" lon="-2.4974883"><ele>1022.0</ele><time>2026-04-25T08:25:01.062Z</time></trkpt><trkpt lat="37.5888417" lon="-2.4978767"><ele>1021.5</ele><time>2026-04-25T08:25:02.062Z</time></trkpt><trkpt lat="37.5888133" lon="-2.498265"><ele>1021.0</ele><time>2026-04-25T08:25:03.071Z</time></trkpt><trkpt lat="37.588785" lon="-2.4986533"><ele>1021.0</ele><time>2026-04-25T08:25:04.062Z</time></trkpt><trkpt lat="37.58876" lon="-2.49904"><ele>1021.0</ele><time>2026-04-25T08:25:05.064Z</time></trkpt><trkpt lat="37.5887333" lon="-2.4994267"><ele>1020.5</ele><time>2026-04-25T08:25:06.065Z</time></trkpt><trkpt lat="37.5887083" lon="-2.4998117"><ele>1020.0</ele><time>2026-04-25T08:25:07.064Z</time></trkpt><trkpt lat="37.58868" lon="-2.5001967"><ele>1019.0</ele><time>2026-04-25T08:25:08.065Z</time></trkpt><trkpt lat="37.5886517" lon="-2.50058"><ele>1018.0</ele><time>2026-04-25T08:25:09.063Z</time></trkpt><trkpt lat="37.5886233" lon="-2.5009617"><ele>1017.5</ele><time>2026-04-25T08:25:10.064Z</time></trkpt><trkpt lat="37.5885967" lon="-2.5013433"><ele>1017.0</ele><time>2026-04-25T08:25:11.064Z</time></trkpt><trkpt lat="37.5885683" lon="-2.5017267"><ele>1016.5</ele><time>2026-04-25T08:25:12.066Z</time></trkpt><trkpt lat="37.5885417" lon="-2.5021117"><ele>1016.0</ele><time>2026-04-25T08:25:13.062Z</time></trkpt><trkpt lat="37.588515" lon="-2.502495"><ele>1016.0</ele><time>2026-04-25T08:25:14.063Z</time></trkpt><trkpt lat="37.58849" lon="-2.5028783"><ele>1016.0</ele><time>2026-04-25T08:25:15.058Z</time></trkpt><trkpt lat="37.5884667" lon="-2.5032617"><ele>1016.0</ele><time>2026-04-25T08:25:16.064Z</time></trkpt><trkpt lat="37.5884417" lon="-2.503645"><ele>1016.0</ele><time>2026-04-25T08:25:17.06Z</time></trkpt><trkpt lat="37.588415" lon="-2.5040283"><ele>1016.0</ele><time>2026-04-25T08:25:18.064Z</time></trkpt><trkpt lat="37.5883833" lon="-2.5044117"><ele>1016.0</ele><time>2026-04-25T08:25:19.057Z</time></trkpt><trkpt lat="37.588355" lon="-2.504795"><ele>1015.0</ele><time>2026-04-25T08:25:20.063Z</time></trkpt><trkpt lat="37.5883267" lon="-2.50518"><ele>1014.0</ele><time>2026-04-25T08:25:21.063Z</time></trkpt><trkpt lat="37.5883" lon="-2.5055633"><ele>1013.5</ele><time>2026-04-25T08:25:22.059Z</time></trkpt><trkpt lat="37.588275" lon="-2.5059433"><ele>1013.0</ele><time>2026-04-25T08:25:23.063Z</time></trkpt><trkpt lat="37.5882483" lon="-2.5063233"><ele>1013.0</ele><time>2026-04-25T08:25:24.061Z</time></trkpt><trkpt lat="37.5882217" lon="-2.5067017"><ele>1013.0</ele><time>2026-04-25T08:25:25.062Z</time></trkpt><trkpt lat="37.5881933" lon="-2.5070767"><ele>1013.0</ele><time>2026-04-25T08:25:26.064Z</time></trkpt><trkpt lat="37.5881667" lon="-2.5074517"><ele>1013.0</ele><time>2026-04-25T08:25:27.062Z</time></trkpt><trkpt lat="37.5881383" lon="-2.5078267"><ele>1013.0</ele><time>2026-04-25T08:25:28.065Z</time></trkpt><trkpt lat="37.5881117" lon="-2.5082033"><ele>1013.0</ele><time>2026-04-25T08:25:29.064Z</time></trkpt><trkpt lat="37.588085" lon="-2.5085783"><ele>1013.5</ele><time>2026-04-25T08:25:30.065Z</time></trkpt><trkpt lat="37.5880633" lon="-2.5089533"><ele>1014.0</ele><time>2026-04-25T08:25:31.063Z</time></trkpt><trkpt lat="37.5880417" lon="-2.5093267"><ele>1013.5</ele><time>2026-04-25T08:25:32.062Z</time></trkpt><trkpt lat="37.5880183" lon="-2.5097"><ele>1013.0</ele><time>2026-04-25T08:25:33.063Z</time></trkpt><trkpt lat="37.587995" lon="-2.510075"><ele>1013.0</ele><time>2026-04-25T08:25:34.065Z</time></trkpt><trkpt lat="37.58797" lon="-2.5104483"><ele>1013.0</ele><time>2026-04-25T08:25:35.06Z</time></trkpt><trkpt lat="37.587945" lon="-2.5108217"><ele>1013.0</ele><time>2026-04-25T08:25:36.066Z</time></trkpt><trkpt lat="37.5879183" lon="-2.5111967"><ele>1013.0</ele><time>2026-04-25T08:25:37.061Z</time></trkpt><trkpt lat="37.5878917" lon="-2.5115717"><ele>1013.0</ele><time>2026-04-25T08:25:38.062Z</time></trkpt><trkpt lat="37.587865" lon="-2.511945"><ele>1013.0</ele><time>2026-04-25T08:25:39.062Z</time></trkpt><trkpt lat="37.5878383" lon="-2.5123183"><ele>1012.0</ele><time>2026-04-25T08:25:40.058Z</time></trkpt><trkpt lat="37.58781" lon="-2.5126917"><ele>1011.0</ele><time>2026-04-25T08:25:41.064Z</time></trkpt><trkpt lat="37.58778" lon="-2.513065"><ele>1011.0</ele><time>2026-04-25T08:25:42.064Z</time></trkpt><trkpt lat="37.587755" lon="-2.5134383"><ele>1011.0</ele><time>2026-04-25T08:25:43.066Z</time></trkpt><trkpt lat="37.58773" lon="-2.51381"><ele>1010.0</ele><time>2026-04-25T08:25:44.062Z</time></trkpt><trkpt lat="37.587705" lon="-2.51418"><ele>1009.0</ele><time>2026-04-25T08:25:45.061Z</time></trkpt><trkpt lat="37.5876783" lon="-2.51455"><ele>1009.5</ele><time>2026-04-25T08:25:46.066Z</time></trkpt><trkpt lat="37.5876533" lon="-2.5149167"><ele>1010.0</ele><time>2026-04-25T08:25:47.062Z</time></trkpt><trkpt lat="37.5876283" lon="-2.5152833"><ele>1009.5</ele><time>2026-04-25T08:25:48.062Z</time></trkpt><trkpt lat="37.5876033" lon="-2.51565"><ele>1009.0</ele><time>2026-04-25T08:25:49.062Z</time></trkpt><trkpt lat="37.5875783" lon="-2.51602"><ele>1008.0</ele><time>2026-04-25T08:25:50.061Z</time></trkpt><trkpt lat="37.5875533" lon="-2.5163917"><ele>1007.0</ele><time>2026-04-25T08:25:51.06Z</time></trkpt><trkpt lat="37.5875283" lon="-2.516765"><ele>1006.5</ele><time>2026-04-25T08:25:52.06Z</time></trkpt><trkpt lat="37.5875017" lon="-2.51714"><ele>1006.0</ele><time>2026-04-25T08:25:53.06Z</time></trkpt><trkpt lat="37.5874767" lon="-2.5175133"><ele>1006.0</ele><time>2026-04-25T08:25:54.069Z</time></trkpt><trkpt lat="37.587455" lon="-2.5178867"><ele>1006.0</ele><time>2026-04-25T08:25:55.061Z</time></trkpt><trkpt lat="37.58743" lon="-2.51826"><ele>1006.0</ele><time>2026-04-25T08:25:56.062Z</time></trkpt><trkpt lat="37.5874067" lon="-2.5186333"><ele>1006.0</ele><time>2026-04-25T08:25:57.064Z</time></trkpt><trkpt lat="37.5873833" lon="-2.51901"><ele>1006.5</ele><time>2026-04-25T08:25:58.059Z</time></trkpt><trkpt lat="37.58736" lon="-2.5193867"><ele>1007.0</ele><time>2026-04-25T08:25:59.063Z</time></trkpt><trkpt lat="37.5873333" lon="-2.519765"><ele>1007.0</ele><time>2026-04-25T08:26:00.063Z</time></trkpt><trkpt lat="37.5873067" lon="-2.520145"><ele>1007.0</ele><time>2026-04-25T08:26:01.062Z</time></trkpt><trkpt lat="37.5872783" lon="-2.5205267"><ele>1006.5</ele><time>2026-04-25T08:26:02.062Z</time></trkpt><trkpt lat="37.5872533" lon="-2.5209067"><ele>1006.0</ele><time>2026-04-25T08:26:03.063Z</time></trkpt><trkpt lat="37.5872283" lon="-2.5212867"><ele>1005.5</ele><time>2026-04-25T08:26:04.063Z</time></trkpt><trkpt lat="37.5872017" lon="-2.52167"><ele>1005.0</ele><time>2026-04-25T08:26:05.06Z</time></trkpt><trkpt lat="37.5871733" lon="-2.52205"><ele>1004.0</ele><time>2026-04-25T08:26:06.064Z</time></trkpt><trkpt lat="37.5871483" lon="-2.52243"><ele>1003.0</ele><time>2026-04-25T08:26:07.06Z</time></trkpt><trkpt lat="37.5871217" lon="-2.52281"><ele>1002.0</ele><time>2026-04-25T08:26:08.062Z</time></trkpt><trkpt lat="37.587095" lon="-2.52319"><ele>1001.0</ele><time>2026-04-25T08:26:09.06Z</time></trkpt><trkpt lat="37.5870683" lon="-2.5235717"><ele>1000.5</ele><time>2026-04-25T08:26:10.061Z</time></trkpt><trkpt lat="37.5870417" lon="-2.5239533"><ele>1000.0</ele><time>2026-04-25T08:26:11.064Z</time></trkpt><trkpt lat="37.5870167" lon="-2.5243367"><ele>1001.0</ele><time>2026-04-25T08:26:12.064Z</time></trkpt><trkpt lat="37.5869917" lon="-2.5247217"><ele>1002.0</ele><time>2026-04-25T08:26:13.065Z</time></trkpt><trkpt lat="37.5869667" lon="-2.5251117"><ele>1002.0</ele><time>2026-04-25T08:26:14.06Z</time></trkpt><trkpt lat="37.5869417" lon="-2.5255017"><ele>1002.0</ele><time>2026-04-25T08:26:15.063Z</time></trkpt><trkpt lat="37.5869167" lon="-2.525895"><ele>1003.0</ele><time>2026-04-25T08:26:16.06Z</time></trkpt><trkpt lat="37.5868917" lon="-2.5262867"><ele>1004.0</ele><time>2026-04-25T08:26:17.064Z</time></trkpt><trkpt lat="37.5868633" lon="-2.5266767"><ele>1003.5</ele><time>2026-04-25T08:26:18.061Z</time></trkpt><trkpt lat="37.5868333" lon="-2.52707"><ele>1003.0</ele><time>2026-04-25T08:26:19.061Z</time></trkpt><trkpt lat="37.5868033" lon="-2.52746"><ele>1003.0</ele><time>2026-04-25T08:26:20.067Z</time></trkpt><trkpt lat="37.5867733" lon="-2.5278517"><ele>1003.0</ele><time>2026-04-25T08:26:21.061Z</time></trkpt><trkpt lat="37.586745" lon="-2.5282433"><ele>1002.0</ele><time>2026-04-25T08:26:22.062Z</time></trkpt><trkpt lat="37.5867183" lon="-2.528635"><ele>1001.0</ele><time>2026-04-25T08:26:23.06Z</time></trkpt><trkpt lat="37.586695" lon="-2.529025"><ele>999.5</ele><time>2026-04-25T08:26:24.061Z</time></trkpt><trkpt lat="37.5866733" lon="-2.5294133"><ele>998.0</ele><time>2026-04-25T08:26:25.066Z</time></trkpt><trkpt lat="37.5866483" lon="-2.5298017"><ele>997.5</ele><time>2026-04-25T08:26:26.064Z</time></trkpt><trkpt lat="37.5866233" lon="-2.5301883"><ele>997.0</ele><time>2026-04-25T08:26:27.062Z</time></trkpt><trkpt lat="37.5865983" lon="-2.530575"><ele>997.0</ele><time>2026-04-25T08:26:28.059Z</time></trkpt><trkpt lat="37.58657" lon="-2.5309633"><ele>997.0</ele><time>2026-04-25T08:26:29.063Z</time></trkpt><trkpt lat="37.5865417" lon="-2.5313517"><ele>996.5</ele><time>2026-04-25T08:26:30.057Z</time></trkpt><trkpt lat="37.58651" lon="-2.5317367"><ele>996.0</ele><time>2026-04-25T08:26:31.067Z</time></trkpt><trkpt lat="37.5864817" lon="-2.5321233"><ele>995.0</ele><time>2026-04-25T08:26:32.062Z</time></trkpt><trkpt lat="37.5864517" lon="-2.5325133"><ele>994.0</ele><time>2026-04-25T08:26:33.058Z</time></trkpt><trkpt lat="37.586425" lon="-2.5329017"><ele>994.0</ele><time>2026-04-25T08:26:34.058Z</time></trkpt><trkpt lat="37.5863983" lon="-2.5332883"><ele>994.0</ele><time>2026-04-25T08:26:35.058Z</time></trkpt><trkpt lat="37.5863733" lon="-2.5336767"><ele>993.0</ele><time>2026-04-25T08:26:36.061Z</time></trkpt><trkpt lat="37.586345" lon="-2.534065"><ele>992.0</ele><time>2026-04-25T08:26:37.061Z</time></trkpt><trkpt lat="37.5863183" lon="-2.5344517"><ele>992.0</ele><time>2026-04-25T08:26:38.066Z</time></trkpt><trkpt lat="37.5862917" lon="-2.534835"><ele>992.0</ele><time>2026-04-25T08:26:39.064Z</time></trkpt><trkpt lat="37.5862667" lon="-2.5352217"><ele>992.0</ele><time>2026-04-25T08:26:40.065Z</time></trkpt><trkpt lat="37.5862367" lon="-2.5356083"><ele>992.0</ele><time>2026-04-25T08:26:41.066Z</time></trkpt><trkpt lat="37.586205" lon="-2.5359933"><ele>988.5</ele><time>2026-04-25T08:26:42.062Z</time></trkpt><trkpt lat="37.5861733" lon="-2.5363817"><ele>985.0</ele><time>2026-04-25T08:26:43.06Z</time></trkpt><trkpt lat="37.5861433" lon="-2.5367683"><ele>984.5</ele><time>2026-04-25T08:26:44.064Z</time></trkpt><trkpt lat="37.586115" lon="-2.5371567"><ele>984.0</ele><time>2026-04-25T08:26:45.059Z</time></trkpt><trkpt lat="37.5860883" lon="-2.537545"><ele>983.0</ele><time>2026-04-25T08:26:46.061Z</time></trkpt><trkpt lat="37.58606" lon="-2.5379367"><ele>982.0</ele><time>2026-04-25T08:26:47.065Z</time></trkpt><trkpt lat="37.5860333" lon="-2.5383267"><ele>982.0</ele><time>2026-04-25T08:26:48.066Z</time></trkpt><trkpt lat="37.586005" lon="-2.5387133"><ele>982.0</ele><time>2026-04-25T08:26:49.067Z</time></trkpt><trkpt lat="37.5859783" lon="-2.5390983"><ele>981.5</ele><time>2026-04-25T08:26:50.062Z</time></trkpt><trkpt lat="37.5859533" lon="-2.5394783"><ele>981.0</ele><time>2026-04-25T08:26:51.061Z</time></trkpt><trkpt lat="37.5859267" lon="-2.5398567"><ele>981.0</ele><time>2026-04-25T08:26:52.062Z</time></trkpt><trkpt lat="37.5859033" lon="-2.540235"><ele>981.0</ele><time>2026-04-25T08:26:53.062Z</time></trkpt><trkpt lat="37.58588" lon="-2.54061"><ele>981.0</ele><time>2026-04-25T08:26:54.062Z</time></trkpt><trkpt lat="37.5858533" lon="-2.5409833"><ele>981.0</ele><time>2026-04-25T08:26:55.059Z</time></trkpt><trkpt lat="37.5858183" lon="-2.541355"><ele>981.0</ele><time>2026-04-25T08:26:56.061Z</time></trkpt><trkpt lat="37.5857767" lon="-2.5417233"><ele>981.0</ele><time>2026-04-25T08:26:57.059Z</time></trkpt><trkpt lat="37.5857267" lon="-2.54209"><ele>981.0</ele><time>2026-04-25T08:26:58.06Z</time></trkpt><trkpt lat="37.58567" lon="-2.542455"><ele>981.0</ele><time>2026-04-25T08:26:59.064Z</time></trkpt><trkpt lat="37.5856017" lon="-2.542815"><ele>981.5</ele><time>2026-04-25T08:27:00.069Z</time></trkpt><trkpt lat="37.5855233" lon="-2.5431717"><ele>982.0</ele><time>2026-04-25T08:27:01.06Z</time></trkpt><trkpt lat="37.5854367" lon="-2.543525"><ele>981.0</ele><time>2026-04-25T08:27:02.065Z</time></trkpt><trkpt lat="37.5853433" lon="-2.5438783"><ele>980.0</ele><time>2026-04-25T08:27:03.062Z</time></trkpt><trkpt lat="37.5852433" lon="-2.544225"><ele>979.5</ele><time>2026-04-25T08:27:04.06Z</time></trkpt><trkpt lat="37.5851367" lon="-2.5445667"><ele>979.0</ele><time>2026-04-25T08:27:05.062Z</time></trkpt><trkpt lat="37.5850217" lon="-2.5449033"><ele>979.0</ele><time>2026-04-25T08:27:06.065Z</time></trkpt><trkpt lat="37.5848983" lon="-2.5452333"><ele>979.0</ele><time>2026-04-25T08:27:07.06Z</time></trkpt><trkpt lat="37.5847667" lon="-2.5455567"><ele>978.0</ele><time>2026-04-25T08:27:08.069Z</time></trkpt><trkpt lat="37.584625" lon="-2.545875"><ele>977.0</ele><time>2026-04-25T08:27:09.071Z</time></trkpt><trkpt lat="37.5844733" lon="-2.5461883"><ele>976.0</ele><time>2026-04-25T08:27:10.061Z</time></trkpt><trkpt lat="37.5843133" lon="-2.5464967"><ele>975.0</ele><time>2026-04-25T08:27:11.059Z</time></trkpt><trkpt lat="37.5841433" lon="-2.5468"><ele>975.0</ele><time>2026-04-25T08:27:12.065Z</time></trkpt><trkpt lat="37.5839667" lon="-2.5471017"><ele>975.0</ele><time>2026-04-25T08:27:13.063Z</time></trkpt><trkpt lat="37.5837817" lon="-2.5473967"><ele>972.0</ele><time>2026-04-25T08:27:14.061Z</time></trkpt><trkpt lat="37.5835883" lon="-2.547685"><ele>969.0</ele><time>2026-04-25T08:27:15.061Z</time></trkpt><trkpt lat="37.5833867" lon="-2.547965"><ele>969.0</ele><time>2026-04-25T08:27:16.06Z</time></trkpt><trkpt lat="37.5831783" lon="-2.5482367"><ele>969.0</ele><time>2026-04-25T08:27:17.061Z</time></trkpt><trkpt lat="37.5829633" lon="-2.5485033"><ele>965.0</ele><time>2026-04-25T08:27:18.059Z</time></trkpt><trkpt lat="37.582745" lon="-2.5487617"><ele>961.0</ele><time>2026-04-25T08:27:19.067Z</time></trkpt><trkpt lat="37.5825233" lon="-2.5490167"><ele>961.0</ele><time>2026-04-25T08:27:20.065Z</time></trkpt><trkpt lat="37.5822967" lon="-2.5492667"><ele>961.0</ele><time>2026-04-25T08:27:21.059Z</time></trkpt><trkpt lat="37.58207" lon="-2.549515"><ele>959.0</ele><time>2026-04-25T08:27:22.06Z</time></trkpt><trkpt lat="37.581845" lon="-2.5497617"><ele>957.0</ele><time>2026-04-25T08:27:23.062Z</time></trkpt><trkpt lat="37.581615" lon="-2.5500083"><ele>957.0</ele><time>2026-04-25T08:27:24.061Z</time></trkpt><trkpt lat="37.581385" lon="-2.550255"><ele>957.0</ele><time>2026-04-25T08:27:25.059Z</time></trkpt><trkpt lat="37.5811567" lon="-2.5505017"><ele>954.0</ele><time>2026-04-25T08:27:26.064Z</time></trkpt><trkpt lat="37.5809283" lon="-2.5507483"><ele>951.0</ele><time>2026-04-25T08:27:27.062Z</time></trkpt><trkpt lat="37.5807017" lon="-2.551"><ele>952.5</ele><time>2026-04-25T08:27:28.062Z</time></trkpt><trkpt lat="37.5804767" lon="-2.5512567"><ele>954.0</ele><time>2026-04-25T08:27:29.061Z</time></trkpt><trkpt lat="37.580255" lon="-2.5515167"><ele>951.0</ele><time>2026-04-25T08:27:30.06Z</time></trkpt><trkpt lat="37.58004" lon="-2.5517833"><ele>948.0</ele><time>2026-04-25T08:27:31.061Z</time></trkpt><trkpt lat="37.57983" lon="-2.5520533"><ele>948.0</ele><time>2026-04-25T08:27:32.065Z</time></trkpt><trkpt lat="37.5796233" lon="-2.5523317"><ele>948.0</ele><time>2026-04-25T08:27:33.069Z</time></trkpt><trkpt lat="37.579425" lon="-2.5526133"><ele>944.0</ele><time>2026-04-25T08:27:34.062Z</time></trkpt><trkpt lat="37.5792333" lon="-2.552905"><ele>940.0</ele><time>2026-04-25T08:27:35.063Z</time></trkpt><trkpt lat="37.5790533" lon="-2.5532033"><ele>940.0</ele><time>2026-04-25T08:27:36.063Z</time></trkpt><trkpt lat="37.5788833" lon="-2.5535083"><ele>940.0</ele><time>2026-04-25T08:27:37.063Z</time></trkpt><trkpt lat="37.57872" lon="-2.5538217"><ele>936.5</ele><time>2026-04-25T08:27:38.061Z</time></trkpt><trkpt lat="37.578565" lon="-2.55414"><ele>933.0</ele><time>2026-04-25T08:27:39.066Z</time></trkpt><trkpt lat="37.5784167" lon="-2.554465"><ele>936.0</ele><time>2026-04-25T08:27:40.062Z</time></trkpt><trkpt lat="37.57827" lon="-2.554795"><ele>939.0</ele><time>2026-04-25T08:27:41.065Z</time></trkpt><trkpt lat="37.5781267" lon="-2.5551317"><ele>938.5</ele><time>2026-04-25T08:27:42.066Z</time></trkpt><trkpt lat="37.5779817" lon="-2.5554683"><ele>938.0</ele><time>2026-04-25T08:27:43.061Z</time></trkpt><trkpt lat="37.5778367" lon="-2.5558067"><ele>934.5</ele><time>2026-04-25T08:27:44.061Z</time></trkpt><trkpt lat="37.57769" lon="-2.55614"><ele>931.0</ele><time>2026-04-25T08:27:45.064Z</time></trkpt><trkpt lat="37.57754" lon="-2.5564767"><ele>927.5</ele><time>2026-04-25T08:27:46.06Z</time></trkpt><trkpt lat="37.577385" lon="-2.5568083"><ele>924.0</ele><time>2026-04-25T08:27:47.063Z</time></trkpt><trkpt lat="37.5772283" lon="-2.5571367"><ele>918.5</ele><time>2026-04-25T08:27:48.064Z</time></trkpt><trkpt lat="37.577065" lon="-2.5574617"><ele>913.0</ele><time>2026-04-25T08:27:49.062Z</time></trkpt><trkpt lat="37.57689" lon="-2.5577783"><ele>907.0</ele><time>2026-04-25T08:27:50.062Z</time></trkpt><trkpt lat="37.5767133" lon="-2.5580917"><ele>901.0</ele><time>2026-04-25T08:27:51.064Z</time></trkpt><trkpt lat="37.5765283" lon="-2.5583983"><ele>900.5</ele><time>2026-04-25T08:27:52.06Z</time></trkpt><trkpt lat="37.57634" lon="-2.5587033"><ele>900.0</ele><time>2026-04-25T08:27:53.063Z</time></trkpt><trkpt lat="37.5761483" lon="-2.5590017"><ele>906.5</ele><time>2026-04-25T08:27:54.062Z</time></trkpt><trkpt lat="37.575955" lon="-2.559295"><ele>913.0</ele><time>2026-04-25T08:27:55.064Z</time></trkpt><trkpt lat="37.5757617" lon="-2.5595817"><ele>913.0</ele><time>2026-04-25T08:27:56.063Z</time></trkpt><trkpt lat="37.57557" lon="-2.559865"><ele>913.0</ele><time>2026-04-25T08:27:57.064Z</time></trkpt><trkpt lat="37.5753783" lon="-2.5601433"><ele>918.0</ele><time>2026-04-25T08:27:58.067Z</time></trkpt><trkpt lat="37.5751883" lon="-2.5604183"><ele>923.0</ele><time>2026-04-25T08:27:59.064Z</time></trkpt><trkpt lat="37.5750017" lon="-2.5606917"><ele>923.0</ele><time>2026-04-25T08:28:00.066Z</time></trkpt><trkpt lat="37.574815" lon="-2.5609633"><ele>923.0</ele><time>2026-04-25T08:28:01.06Z</time></trkpt><trkpt lat="37.5746317" lon="-2.561235"><ele>928.5</ele><time>2026-04-25T08:28:02.074Z</time></trkpt><trkpt lat="37.5744517" lon="-2.56151"><ele>934.0</ele><time>2026-04-25T08:28:03.059Z</time></trkpt><trkpt lat="37.5742767" lon="-2.5617883"><ele>934.5</ele><time>2026-04-25T08:28:04.065Z</time></trkpt><trkpt lat="37.5741067" lon="-2.5620717"><ele>935.0</ele><time>2026-04-25T08:28:05.065Z</time></trkpt><trkpt lat="37.5739433" lon="-2.5623633"><ele>935.0</ele><time>2026-04-25T08:28:06.059Z</time></trkpt><trkpt lat="37.5737867" lon="-2.5626633"><ele>935.0</ele><time>2026-04-25T08:28:07.064Z</time></trkpt><trkpt lat="37.5736367" lon="-2.5629717"><ele>937.5</ele><time>2026-04-25T08:28:08.063Z</time></trkpt><trkpt lat="37.5734983" lon="-2.56329"><ele>940.0</ele><time>2026-04-25T08:28:09.061Z</time></trkpt><trkpt lat="37.5733733" lon="-2.5636167"><ele>940.0</ele><time>2026-04-25T08:28:10.061Z</time></trkpt><trkpt lat="37.5732567" lon="-2.56395"><ele>940.0</ele><time>2026-04-25T08:28:11.06Z</time></trkpt><trkpt lat="37.5731483" lon="-2.56429"><ele>939.0</ele><time>2026-04-25T08:28:12.057Z</time></trkpt><trkpt lat="37.57305" lon="-2.5646333"><ele>938.0</ele><time>2026-04-25T08:28:13.059Z</time></trkpt><trkpt lat="37.5729567" lon="-2.56498"><ele>938.0</ele><time>2026-04-25T08:28:14.062Z</time></trkpt><trkpt lat="37.5728767" lon="-2.56533"><ele>938.0</ele><time>2026-04-25T08:28:15.064Z</time></trkpt><trkpt lat="37.5728067" lon="-2.5656833"><ele>941.5</ele><time>2026-04-25T08:28:16.061Z</time></trkpt><trkpt lat="37.5727467" lon="-2.5660417"><ele>945.0</ele><time>2026-04-25T08:28:17.06Z</time></trkpt><trkpt lat="37.5726983" lon="-2.5664"><ele>945.0</ele><time>2026-04-25T08:28:18.062Z</time></trkpt><trkpt lat="37.572655" lon="-2.5667617"><ele>945.0</ele><time>2026-04-25T08:28:19.064Z</time></trkpt><trkpt lat="37.572625" lon="-2.567125"><ele>945.0</ele><time>2026-04-25T08:28:20.062Z</time></trkpt><trkpt lat="37.572605" lon="-2.56749"><ele>945.0</ele><time>2026-04-25T08:28:21.063Z</time></trkpt><trkpt lat="37.5725967" lon="-2.5678567"><ele>946.0</ele><time>2026-04-25T08:28:22.069Z</time></trkpt><trkpt lat="37.5726" lon="-2.568225"><ele>947.0</ele><time>2026-04-25T08:28:23.064Z</time></trkpt><trkpt lat="37.5726133" lon="-2.568595"><ele>947.5</ele><time>2026-04-25T08:28:24.071Z</time></trkpt><trkpt lat="37.5726367" lon="-2.568965"><ele>948.0</ele><time>2026-04-25T08:28:25.063Z</time></trkpt><trkpt lat="37.57267" lon="-2.5693333"><ele>948.5</ele><time>2026-04-25T08:28:26.072Z</time></trkpt><trkpt lat="37.5727167" lon="-2.5697"><ele>949.0</ele><time>2026-04-25T08:28:27.066Z</time></trkpt><trkpt lat="37.5727733" lon="-2.5700633"><ele>948.5</ele><time>2026-04-25T08:28:28.06Z</time></trkpt><trkpt lat="37.5728333" lon="-2.570425"><ele>948.0</ele><time>2026-04-25T08:28:29.061Z</time></trkpt><trkpt lat="37.5728983" lon="-2.5707867"><ele>948.0</ele><time>2026-04-25T08:28:30.061Z</time></trkpt><trkpt lat="37.5729667" lon="-2.5711517"><ele>948.0</ele><time>2026-04-25T08:28:31.06Z</time></trkpt><trkpt lat="37.5730383" lon="-2.5715183"><ele>947.5</ele><time>2026-04-25T08:28:32.064Z</time></trkpt><trkpt lat="37.57311" lon="-2.5718867"><ele>947.0</ele><time>2026-04-25T08:28:33.06Z</time></trkpt><trkpt lat="37.57318" lon="-2.57226"><ele>946.5</ele><time>2026-04-25T08:28:34.058Z</time></trkpt><trkpt lat="37.573245" lon="-2.5726383"><ele>946.0</ele><time>2026-04-25T08:28:35.059Z</time></trkpt><trkpt lat="37.5733033" lon="-2.5730167"><ele>945.0</ele><time>2026-04-25T08:28:36.058Z</time></trkpt><trkpt lat="37.5733533" lon="-2.5733933"><ele>944.0</ele><time>2026-04-25T08:28:37.064Z</time></trkpt><trkpt lat="37.5733983" lon="-2.57377"><ele>943.0</ele><time>2026-04-25T08:28:38.062Z</time></trkpt><trkpt lat="37.5734383" lon="-2.574145"><ele>942.0</ele><time>2026-04-25T08:28:39.061Z</time></trkpt><trkpt lat="37.573475" lon="-2.57452"><ele>942.5</ele><time>2026-04-25T08:28:40.062Z</time></trkpt><trkpt lat="37.5735083" lon="-2.5748917"><ele>943.0</ele><time>2026-04-25T08:28:41.063Z</time></trkpt><trkpt lat="37.5735367" lon="-2.5752617"><ele>942.0</ele><time>2026-04-25T08:28:42.063Z</time></trkpt><trkpt lat="37.5735583" lon="-2.5756317"><ele>941.0</ele><time>2026-04-25T08:28:43.059Z</time></trkpt><trkpt lat="37.573575" lon="-2.576"><ele>941.5</ele><time>2026-04-25T08:28:44.064Z</time></trkpt><trkpt lat="37.573585" lon="-2.576365"><ele>942.0</ele><time>2026-04-25T08:28:45.062Z</time></trkpt><trkpt lat="37.57359" lon="-2.5767333"><ele>941.0</ele><time>2026-04-25T08:28:46.062Z</time></trkpt><trkpt lat="37.57359" lon="-2.5771"><ele>940.0</ele><time>2026-04-25T08:28:47.063Z</time></trkpt><trkpt lat="37.573585" lon="-2.5774683"><ele>940.0</ele><time>2026-04-25T08:28:48.061Z</time></trkpt><trkpt lat="37.5735733" lon="-2.57784"><ele>940.0</ele><time>2026-04-25T08:28:49.06Z</time></trkpt><trkpt lat="37.5735533" lon="-2.5782133"><ele>940.5</ele><time>2026-04-25T08:28:50.061Z</time></trkpt><trkpt lat="37.5735283" lon="-2.578585"><ele>941.0</ele><time>2026-04-25T08:28:51.071Z</time></trkpt><trkpt lat="37.5735" lon="-2.578955"><ele>941.5</ele><time>2026-04-25T08:28:52.058Z</time></trkpt><trkpt lat="37.5734717" lon="-2.579325"><ele>942.0</ele><time>2026-04-25T08:28:53.062Z</time></trkpt><trkpt lat="37.5734417" lon="-2.5796967"><ele>942.0</ele><time>2026-04-25T08:28:54.064Z</time></trkpt><trkpt lat="37.57341" lon="-2.5800683"><ele>942.0</ele><time>2026-04-25T08:28:55.061Z</time></trkpt><trkpt lat="37.5733767" lon="-2.58044"><ele>941.0</ele><time>2026-04-25T08:28:56.063Z</time></trkpt><trkpt lat="37.5733383" lon="-2.5808133"><ele>940.0</ele><time>2026-04-25T08:28:57.061Z</time></trkpt><trkpt lat="37.573295" lon="-2.5811817"><ele>939.5</ele><time>2026-04-25T08:28:58.06Z</time></trkpt><trkpt lat="37.57324" lon="-2.5815483"><ele>939.0</ele><time>2026-04-25T08:28:59.065Z</time></trkpt><trkpt lat="37.573185" lon="-2.581915"><ele>938.5</ele><time>2026-04-25T08:29:00.062Z</time></trkpt><trkpt lat="37.5731233" lon="-2.58228"><ele>938.0</ele><time>2026-04-25T08:29:01.066Z</time></trkpt><trkpt lat="37.5730567" lon="-2.5826417"><ele>936.0</ele><time>2026-04-25T08:29:02.062Z</time></trkpt><trkpt lat="37.5729817" lon="-2.5829983"><ele>934.0</ele><time>2026-04-25T08:29:03.064Z</time></trkpt><trkpt lat="37.5729033" lon="-2.5833583"><ele>932.0</ele><time>2026-04-25T08:29:04.066Z</time></trkpt><trkpt lat="37.5728183" lon="-2.5837167"><ele>930.0</ele><time>2026-04-25T08:29:05.06Z</time></trkpt><trkpt lat="37.5727317" lon="-2.584075"><ele>930.0</ele><time>2026-04-25T08:29:06.064Z</time></trkpt><trkpt lat="37.57264" lon="-2.58443"><ele>930.0</ele><time>2026-04-25T08:29:07.06Z</time></trkpt><trkpt lat="37.572545" lon="-2.5847833"><ele>928.0</ele><time>2026-04-25T08:29:08.061Z</time></trkpt><trkpt lat="37.572445" lon="-2.585135"><ele>926.0</ele><time>2026-04-25T08:29:09.064Z</time></trkpt><trkpt lat="37.5723383" lon="-2.585485"><ele>923.5</ele><time>2026-04-25T08:29:10.063Z</time></trkpt><trkpt lat="37.5722267" lon="-2.5858283"><ele>921.0</ele><time>2026-04-25T08:29:11.069Z</time></trkpt><trkpt lat="37.57211" lon="-2.58617"><ele>923.0</ele><time>2026-04-25T08:29:12.066Z</time></trkpt><trkpt lat="37.5719867" lon="-2.58651"><ele>925.0</ele><time>2026-04-25T08:29:13.064Z</time></trkpt><trkpt lat="37.5718633" lon="-2.586845"><ele>923.0</ele><time>2026-04-25T08:29:14.061Z</time></trkpt><trkpt lat="37.571735" lon="-2.5871767"><ele>921.0</ele><time>2026-04-25T08:29:15.064Z</time></trkpt><trkpt lat="37.571605" lon="-2.5875067"><ele>921.0</ele><time>2026-04-25T08:29:16.061Z</time></trkpt><trkpt lat="37.5714683" lon="-2.587835"><ele>921.0</ele><time>2026-04-25T08:29:17.061Z</time></trkpt><trkpt lat="37.5713283" lon="-2.5881617"><ele>921.0</ele><time>2026-04-25T08:29:18.06Z</time></trkpt><trkpt lat="37.571185" lon="-2.588485"><ele>921.0</ele><time>2026-04-25T08:29:19.069Z</time></trkpt><trkpt lat="37.5710367" lon="-2.5888033"><ele>920.0</ele><time>2026-04-25T08:29:20.06Z</time></trkpt><trkpt lat="37.570885" lon="-2.5891167"><ele>919.0</ele><time>2026-04-25T08:29:21.064Z</time></trkpt><trkpt lat="37.5707283" lon="-2.589425"><ele>917.0</ele><time>2026-04-25T08:29:22.063Z</time></trkpt><trkpt lat="37.5705667" lon="-2.58973"><ele>915.0</ele><time>2026-04-25T08:29:23.064Z</time></trkpt><trkpt lat="37.570405" lon="-2.5900283"><ele>915.5</ele><time>2026-04-25T08:29:24.06Z</time></trkpt><trkpt lat="37.5702417" lon="-2.59032"><ele>916.0</ele><time>2026-04-25T08:29:25.058Z</time></trkpt><trkpt lat="37.5700783" lon="-2.5906067"><ele>915.0</ele><time>2026-04-25T08:29:26.064Z</time></trkpt><trkpt lat="37.56991" lon="-2.5908917"><ele>914.0</ele><time>2026-04-25T08:29:27.062Z</time></trkpt><trkpt lat="37.56974" lon="-2.5911733"><ele>913.5</ele><time>2026-04-25T08:29:28.061Z</time></trkpt><trkpt lat="37.5695633" lon="-2.591455"><ele>913.0</ele><time>2026-04-25T08:29:29.066Z</time></trkpt><trkpt lat="37.5693833" lon="-2.59173"><ele>915.0</ele><time>2026-04-25T08:29:30.062Z</time></trkpt><trkpt lat="37.5692033" lon="-2.592"><ele>917.0</ele><time>2026-04-25T08:29:31.064Z</time></trkpt><trkpt lat="37.56902" lon="-2.592265"><ele>917.0</ele><time>2026-04-25T08:29:32.065Z</time></trkpt><trkpt lat="37.5688333" lon="-2.592525"><ele>917.0</ele><time>2026-04-25T08:29:33.068Z</time></trkpt><trkpt lat="37.568645" lon="-2.5927783"><ele>918.0</ele><time>2026-04-25T08:29:34.062Z</time></trkpt><trkpt lat="37.5684533" lon="-2.59303"><ele>919.0</ele><time>2026-04-25T08:29:35.062Z</time></trkpt><trkpt lat="37.5682617" lon="-2.5932767"><ele>919.0</ele><time>2026-04-25T08:29:36.064Z</time></trkpt><trkpt lat="37.568065" lon="-2.5935217"><ele>919.0</ele><time>2026-04-25T08:29:37.061Z</time></trkpt><trkpt lat="37.5678667" lon="-2.593765"><ele>919.5</ele><time>2026-04-25T08:29:38.066Z</time></trkpt><trkpt lat="37.5676617" lon="-2.5940033"><ele>920.0</ele><time>2026-04-25T08:29:39.063Z</time></trkpt><trkpt lat="37.5674517" lon="-2.594235"><ele>920.0</ele><time>2026-04-25T08:29:40.062Z</time></trkpt><trkpt lat="37.5672367" lon="-2.5944633"><ele>920.0</ele><time>2026-04-25T08:29:41.066Z</time></trkpt><trkpt lat="37.5670167" lon="-2.59469"><ele>918.0</ele><time>2026-04-25T08:29:42.068Z</time></trkpt><trkpt lat="37.5667967" lon="-2.5949133"><ele>916.0</ele><time>2026-04-25T08:29:43.063Z</time></trkpt><trkpt lat="37.5665733" lon="-2.5951333"><ele>916.0</ele><time>2026-04-25T08:29:44.059Z</time></trkpt><trkpt lat="37.56635" lon="-2.59535"><ele>916.0</ele><time>2026-04-25T08:29:45.06Z</time></trkpt><trkpt lat="37.5661233" lon="-2.59556"><ele>915.5</ele><time>2026-04-25T08:29:46.061Z</time></trkpt><trkpt lat="37.5658933" lon="-2.5957667"><ele>915.0</ele><time>2026-04-25T08:29:47.065Z</time></trkpt><trkpt lat="37.5656633" lon="-2.5959717"><ele>914.5</ele><time>2026-04-25T08:29:48.063Z</time></trkpt><trkpt lat="37.5654317" lon="-2.5961783"><ele>914.0</ele><time>2026-04-25T08:29:49.062Z</time></trkpt><trkpt lat="37.5652033" lon="-2.5963883"><ele>914.0</ele><time>2026-04-25T08:29:50.068Z</time></trkpt><trkpt lat="37.5649783" lon="-2.5966033"><ele>914.0</ele><time>2026-04-25T08:29:51.064Z</time></trkpt><trkpt lat="37.5647583" lon="-2.5968217"><ele>913.5</ele><time>2026-04-25T08:29:52.063Z</time></trkpt><trkpt lat="37.5645367" lon="-2.597045"><ele>913.0</ele><time>2026-04-25T08:29:53.063Z</time></trkpt><trkpt lat="37.5643217" lon="-2.5972683"><ele>914.0</ele><time>2026-04-25T08:29:54.065Z</time></trkpt><trkpt lat="37.56411" lon="-2.5974917"><ele>915.0</ele><time>2026-04-25T08:29:55.063Z</time></trkpt><trkpt lat="37.5639033" lon="-2.59772"><ele>914.5</ele><time>2026-04-25T08:29:56.063Z</time></trkpt><trkpt lat="37.5636983" lon="-2.59796"><ele>914.0</ele><time>2026-04-25T08:29:57.063Z</time></trkpt><trkpt lat="37.5635" lon="-2.5982083"><ele>914.0</ele><time>2026-04-25T08:29:58.063Z</time></trkpt><trkpt lat="37.563305" lon="-2.5984633"><ele>914.0</ele><time>2026-04-25T08:29:59.063Z</time></trkpt><trkpt lat="37.563115" lon="-2.598725"><ele>913.0</ele><time>2026-04-25T08:30:00.065Z</time></trkpt><trkpt lat="37.56293" lon="-2.598995"><ele>912.0</ele><time>2026-04-25T08:30:01.067Z</time></trkpt><trkpt lat="37.5627483" lon="-2.5992683"><ele>911.5</ele><time>2026-04-25T08:30:02.061Z</time></trkpt><trkpt lat="37.56257" lon="-2.5995517"><ele>911.0</ele><time>2026-04-25T08:30:03.063Z</time></trkpt><trkpt lat="37.5623967" lon="-2.5998383"><ele>911.0</ele><time>2026-04-25T08:30:04.059Z</time></trkpt><trkpt lat="37.5622233" lon="-2.6001283"><ele>911.0</ele><time>2026-04-25T08:30:05.059Z</time></trkpt><trkpt lat="37.5620533" lon="-2.6004217"><ele>909.5</ele><time>2026-04-25T08:30:06.061Z</time></trkpt><trkpt lat="37.5618867" lon="-2.6007217"><ele>908.0</ele><time>2026-04-25T08:30:07.063Z</time></trkpt><trkpt lat="37.5617233" lon="-2.601025"><ele>906.5</ele><time>2026-04-25T08:30:08.06Z</time></trkpt><trkpt lat="37.5615667" lon="-2.6013317"><ele>905.0</ele><time>2026-04-25T08:30:09.068Z</time></trkpt><trkpt lat="37.561415" lon="-2.6016417"><ele>905.0</ele><time>2026-04-25T08:30:10.063Z</time></trkpt><trkpt lat="37.5612633" lon="-2.6019517"><ele>905.0</ele><time>2026-04-25T08:30:11.066Z</time></trkpt><trkpt lat="37.5611167" lon="-2.602265"><ele>907.0</ele><time>2026-04-25T08:30:12.059Z</time></trkpt><trkpt lat="37.5609717" lon="-2.6025783"><ele>909.0</ele><time>2026-04-25T08:30:13.062Z</time></trkpt><trkpt lat="37.5608283" lon="-2.6028917"><ele>909.0</ele><time>2026-04-25T08:30:14.064Z</time></trkpt><trkpt lat="37.560685" lon="-2.6032067"><ele>909.0</ele><time>2026-04-25T08:30:15.061Z</time></trkpt><trkpt lat="37.5605433" lon="-2.6035167"><ele>909.5</ele><time>2026-04-25T08:30:16.066Z</time></trkpt><trkpt lat="37.5604033" lon="-2.6038267"><ele>910.0</ele><time>2026-04-25T08:30:17.065Z</time></trkpt><trkpt lat="37.560265" lon="-2.6041383"><ele>910.5</ele><time>2026-04-25T08:30:18.062Z</time></trkpt><trkpt lat="37.5601267" lon="-2.6044517"><ele>911.0</ele><time>2026-04-25T08:30:19.065Z</time></trkpt><trkpt lat="37.5599867" lon="-2.604765"><ele>911.0</ele><time>2026-04-25T08:30:20.066Z</time></trkpt><trkpt lat="37.5598467" lon="-2.6050783"><ele>911.0</ele><time>2026-04-25T08:30:21.063Z</time></trkpt><trkpt lat="37.559705" lon="-2.60539"><ele>909.5</ele><time>2026-04-25T08:30:22.062Z</time></trkpt><trkpt lat="37.5595583" lon="-2.6057"><ele>908.0</ele><time>2026-04-25T08:30:23.062Z</time></trkpt><trkpt lat="37.55941" lon="-2.60601"><ele>907.5</ele><time>2026-04-25T08:30:24.063Z</time></trkpt><trkpt lat="37.5592583" lon="-2.6063183"><ele>907.0</ele><time>2026-04-25T08:30:25.065Z</time></trkpt><trkpt lat="37.559105" lon="-2.6066233"><ele>907.0</ele><time>2026-04-25T08:30:26.06Z</time></trkpt><trkpt lat="37.55895" lon="-2.6069267"><ele>907.0</ele><time>2026-04-25T08:30:27.066Z</time></trkpt><trkpt lat="37.5587867" lon="-2.6072283"><ele>907.0</ele><time>2026-04-25T08:30:28.063Z</time></trkpt><trkpt lat="37.5586183" lon="-2.6075233"><ele>907.0</ele><time>2026-04-25T08:30:29.061Z</time></trkpt><trkpt lat="37.5584417" lon="-2.6078167"><ele>906.5</ele><time>2026-04-25T08:30:30.063Z</time></trkpt><trkpt lat="37.5582567" lon="-2.6081083"><ele>906.0</ele><time>2026-04-25T08:30:31.063Z</time></trkpt><trkpt lat="37.5580667" lon="-2.6083967"><ele>906.0</ele><time>2026-04-25T08:30:32.06Z</time></trkpt><trkpt lat="37.55787" lon="-2.60868"><ele>906.0</ele><time>2026-04-25T08:30:33.061Z</time></trkpt><trkpt lat="37.5576683" lon="-2.6089583"><ele>903.5</ele><time>2026-04-25T08:30:34.058Z</time></trkpt><trkpt lat="37.557465" lon="-2.6092317"><ele>901.0</ele><time>2026-04-25T08:30:35.061Z</time></trkpt><trkpt lat="37.5572567" lon="-2.6095033"><ele>899.5</ele><time>2026-04-25T08:30:36.06Z</time></trkpt><trkpt lat="37.5570417" lon="-2.6097683"><ele>898.0</ele><time>2026-04-25T08:30:37.059Z</time></trkpt><trkpt lat="37.5568217" lon="-2.6100267"><ele>896.0</ele><time>2026-04-25T08:30:38.063Z</time></trkpt><trkpt lat="37.5566" lon="-2.6102767"><ele>894.0</ele><time>2026-04-25T08:30:39.064Z</time></trkpt><trkpt lat="37.556375" lon="-2.6105183"><ele>893.5</ele><time>2026-04-25T08:30:40.062Z</time></trkpt><trkpt lat="37.5561467" lon="-2.6107533"><ele>893.0</ele><time>2026-04-25T08:30:41.064Z</time></trkpt><trkpt lat="37.55592" lon="-2.6109833"><ele>892.0</ele><time>2026-04-25T08:30:42.067Z</time></trkpt><trkpt lat="37.5556883" lon="-2.61121"><ele>891.0</ele><time>2026-04-25T08:30:43.063Z</time></trkpt><trkpt lat="37.555455" lon="-2.61143"><ele>892.0</ele><time>2026-04-25T08:30:44.061Z</time></trkpt><trkpt lat="37.5552217" lon="-2.6116483"><ele>893.0</ele><time>2026-04-25T08:30:45.063Z</time></trkpt><trkpt lat="37.554985" lon="-2.61186"><ele>892.5</ele><time>2026-04-25T08:30:46.06Z</time></trkpt><trkpt lat="37.5547483" lon="-2.61207"><ele>892.0</ele><time>2026-04-25T08:30:47.061Z</time></trkpt><trkpt lat="37.554515" lon="-2.6122783"><ele>893.5</ele><time>2026-04-25T08:30:48.062Z</time></trkpt><trkpt lat="37.554285" lon="-2.6124867"><ele>895.0</ele><time>2026-04-25T08:30:49.066Z</time></trkpt><trkpt lat="37.554055" lon="-2.6126933"><ele>894.5</ele><time>2026-04-25T08:30:50.072Z</time></trkpt><trkpt lat="37.5538267" lon="-2.612905"><ele>894.0</ele><time>2026-04-25T08:30:51.062Z</time></trkpt><trkpt lat="37.5536" lon="-2.61312"><ele>895.0</ele><time>2026-04-25T08:30:52.06Z</time></trkpt><trkpt lat="37.553375" lon="-2.6133383"><ele>896.0</ele><time>2026-04-25T08:30:53.06Z</time></trkpt><trkpt lat="37.5531533" lon="-2.6135617"><ele>895.5</ele><time>2026-04-25T08:30:54.06Z</time></trkpt><trkpt lat="37.5529367" lon="-2.6137867"><ele>895.0</ele><time>2026-04-25T08:30:55.06Z</time></trkpt><trkpt lat="37.552725" lon="-2.6140167"><ele>895.0</ele><time>2026-04-25T08:30:56.059Z</time></trkpt><trkpt lat="37.5525167" lon="-2.614255"><ele>895.0</ele><time>2026-04-25T08:30:57.059Z</time></trkpt><trkpt lat="37.5523133" lon="-2.6145017"><ele>895.5</ele><time>2026-04-25T08:30:58.058Z</time></trkpt><trkpt lat="37.5521183" lon="-2.614755"><ele>896.0</ele><time>2026-04-25T08:30:59.062Z</time></trkpt><trkpt lat="37.5519283" lon="-2.6150133"><ele>896.0</ele><time>2026-04-25T08:31:00.058Z</time></trkpt><trkpt lat="37.5517467" lon="-2.61528"><ele>896.0</ele><time>2026-04-25T08:31:01.062Z</time></trkpt><trkpt lat="37.551575" lon="-2.615555"><ele>895.0</ele><time>2026-04-25T08:31:02.06Z</time></trkpt><trkpt lat="37.551405" lon="-2.6158383"><ele>894.0</ele><time>2026-04-25T08:31:03.061Z</time></trkpt><trkpt lat="37.5512383" lon="-2.61613"><ele>895.5</ele><time>2026-04-25T08:31:04.061Z</time></trkpt><trkpt lat="37.5510717" lon="-2.6164233"><ele>897.0</ele><time>2026-04-25T08:31:05.063Z</time></trkpt><trkpt lat="37.5509083" lon="-2.6167217"><ele>897.0</ele><time>2026-04-25T08:31:06.067Z</time></trkpt><trkpt lat="37.5507433" lon="-2.6170233"><ele>897.0</ele><time>2026-04-25T08:31:07.065Z</time></trkpt><trkpt lat="37.5505767" lon="-2.617325"><ele>897.0</ele><time>2026-04-25T08:31:08.064Z</time></trkpt><trkpt lat="37.55041" lon="-2.61763"><ele>897.0</ele><time>2026-04-25T08:31:09.062Z</time></trkpt><trkpt lat="37.5502433" lon="-2.6179333"><ele>895.5</ele><time>2026-04-25T08:31:10.06Z</time></trkpt><trkpt lat="37.5500767" lon="-2.61824"><ele>894.0</ele><time>2026-04-25T08:31:11.067Z</time></trkpt><trkpt lat="37.5499117" lon="-2.6185467"><ele>893.5</ele><time>2026-04-25T08:31:12.064Z</time></trkpt><trkpt lat="37.5497467" lon="-2.6188567"><ele>893.0</ele><time>2026-04-25T08:31:13.061Z</time></trkpt><trkpt lat="37.5495767" lon="-2.619165"><ele>893.5</ele><time>2026-04-25T08:31:14.062Z</time></trkpt><trkpt lat="37.549405" lon="-2.6194733"><ele>894.0</ele><time>2026-04-25T08:31:15.066Z</time></trkpt><trkpt lat="37.549235" lon="-2.6197833"><ele>894.0</ele><time>2026-04-25T08:31:16.061Z</time></trkpt><trkpt lat="37.549065" lon="-2.6200933"><ele>894.0</ele><time>2026-04-25T08:31:17.064Z</time></trkpt><trkpt lat="37.5488967" lon="-2.6204033"><ele>893.5</ele><time>2026-04-25T08:31:18.06Z</time></trkpt><trkpt lat="37.5487283" lon="-2.6207133"><ele>893.0</ele><time>2026-04-25T08:31:19.068Z</time></trkpt><trkpt lat="37.54856" lon="-2.6210217"><ele>894.5</ele><time>2026-04-25T08:31:20.057Z</time></trkpt><trkpt lat="37.54839" lon="-2.6213283"><ele>896.0</ele><time>2026-04-25T08:31:21.061Z</time></trkpt><trkpt lat="37.5482217" lon="-2.6216367"><ele>896.0</ele><time>2026-04-25T08:31:22.057Z</time></trkpt><trkpt lat="37.5480517" lon="-2.6219467"><ele>896.0</ele><time>2026-04-25T08:31:23.063Z</time></trkpt><trkpt lat="37.5478817" lon="-2.62226"><ele>896.5</ele><time>2026-04-25T08:31:24.059Z</time></trkpt><trkpt lat="37.547715" lon="-2.6225717"><ele>897.0</ele><time>2026-04-25T08:31:25.065Z</time></trkpt><trkpt lat="37.5475483" lon="-2.6228833"><ele>897.0</ele><time>2026-04-25T08:31:26.064Z</time></trkpt><trkpt lat="37.5473817" lon="-2.623195"><ele>897.0</ele><time>2026-04-25T08:31:27.063Z</time></trkpt><trkpt lat="37.5472167" lon="-2.6235"><ele>896.5</ele><time>2026-04-25T08:31:28.06Z</time></trkpt><trkpt lat="37.5470517" lon="-2.6238083"><ele>896.0</ele><time>2026-04-25T08:31:29.061Z</time></trkpt><trkpt lat="37.5468867" lon="-2.6241133"><ele>899.0</ele><time>2026-04-25T08:31:30.066Z</time></trkpt><trkpt lat="37.5467233" lon="-2.6244167"><ele>902.0</ele><time>2026-04-25T08:31:31.07Z</time></trkpt><trkpt lat="37.54656" lon="-2.6247167"><ele>902.5</ele><time>2026-04-25T08:31:32.062Z</time></trkpt><trkpt lat="37.5463967" lon="-2.6250167"><ele>903.0</ele><time>2026-04-25T08:31:33.064Z</time></trkpt><trkpt lat="37.5462317" lon="-2.62531"><ele>903.5</ele><time>2026-04-25T08:31:34.063Z</time></trkpt><trkpt lat="37.54607" lon="-2.6256017"><ele>904.0</ele><time>2026-04-25T08:31:35.066Z</time></trkpt><trkpt lat="37.5459083" lon="-2.6258983"><ele>904.5</ele><time>2026-04-25T08:31:36.06Z</time></trkpt><trkpt lat="37.5457483" lon="-2.6261933"><ele>905.0</ele><time>2026-04-25T08:31:37.058Z</time></trkpt><trkpt lat="37.54559" lon="-2.626485"><ele>905.0</ele><time>2026-04-25T08:31:38.063Z</time></trkpt><trkpt lat="37.5454333" lon="-2.626775"><ele>905.0</ele><time>2026-04-25T08:31:39.06Z</time></trkpt><trkpt lat="37.5452767" lon="-2.627065"><ele>905.5</ele><time>2026-04-25T08:31:40.061Z</time></trkpt><trkpt lat="37.5451217" lon="-2.627355"><ele>906.0</ele><time>2026-04-25T08:31:41.067Z</time></trkpt><trkpt lat="37.5449667" lon="-2.6276417"><ele>905.0</ele><time>2026-04-25T08:31:42.059Z</time></trkpt><trkpt lat="37.54481" lon="-2.6279267"><ele>904.0</ele><time>2026-04-25T08:31:43.064Z</time></trkpt><trkpt lat="37.544655" lon="-2.6282133"><ele>904.0</ele><time>2026-04-25T08:31:44.071Z</time></trkpt><trkpt lat="37.5444983" lon="-2.6285017"><ele>904.0</ele><time>2026-04-25T08:31:45.061Z</time></trkpt><trkpt lat="37.5443417" lon="-2.6287917"><ele>903.5</ele><time>2026-04-25T08:31:46.062Z</time></trkpt><trkpt lat="37.5441833" lon="-2.6290817"><ele>903.0</ele><time>2026-04-25T08:31:47.062Z</time></trkpt><trkpt lat="37.544025" lon="-2.62937"><ele>902.5</ele><time>2026-04-25T08:31:48.062Z</time></trkpt><trkpt lat="37.5438683" lon="-2.62966"><ele>902.0</ele><time>2026-04-25T08:31:49.063Z</time></trkpt><trkpt lat="37.5437117" lon="-2.6299517"><ele>902.0</ele><time>2026-04-25T08:31:50.061Z</time></trkpt><trkpt lat="37.5435533" lon="-2.6302417"><ele>902.0</ele><time>2026-04-25T08:31:51.071Z</time></trkpt><trkpt lat="37.5433933" lon="-2.6305333"><ele>902.5</ele><time>2026-04-25T08:31:52.065Z</time></trkpt><trkpt lat="37.5432333" lon="-2.6308267"><ele>903.0</ele><time>2026-04-25T08:31:53.065Z</time></trkpt><trkpt lat="37.5430717" lon="-2.6311233"><ele>902.0</ele><time>2026-04-25T08:31:54.062Z</time></trkpt><trkpt lat="37.54291" lon="-2.6314217"><ele>901.0</ele><time>2026-04-25T08:31:55.065Z</time></trkpt><trkpt lat="37.5427483" lon="-2.63172"><ele>899.5</ele><time>2026-04-25T08:31:56.062Z</time></trkpt><trkpt lat="37.5425867" lon="-2.6320167"><ele>898.0</ele><time>2026-04-25T08:31:57.067Z</time></trkpt><trkpt lat="37.542425" lon="-2.6323167"><ele>898.0</ele><time>2026-04-25T08:31:58.06Z</time></trkpt><trkpt lat="37.5422617" lon="-2.6326167"><ele>898.0</ele><time>2026-04-25T08:31:59.062Z</time></trkpt><trkpt lat="37.5421" lon="-2.632915"><ele>897.0</ele><time>2026-04-25T08:32:00.063Z</time></trkpt><trkpt lat="37.5419367" lon="-2.6332133"><ele>896.0</ele><time>2026-04-25T08:32:01.065Z</time></trkpt><trkpt lat="37.5417733" lon="-2.6335083"><ele>894.5</ele><time>2026-04-25T08:32:02.066Z</time></trkpt><trkpt lat="37.5416117" lon="-2.6338067"><ele>893.0</ele><time>2026-04-25T08:32:03.069Z</time></trkpt><trkpt lat="37.54145" lon="-2.6341033"><ele>893.0</ele><time>2026-04-25T08:32:04.064Z</time></trkpt><trkpt lat="37.5412883" lon="-2.6344"><ele>893.0</ele><time>2026-04-25T08:32:05.061Z</time></trkpt><trkpt lat="37.5411283" lon="-2.6346967"><ele>892.5</ele><time>2026-04-25T08:32:06.064Z</time></trkpt><trkpt lat="37.540965" lon="-2.634995"><ele>892.0</ele><time>2026-04-25T08:32:07.061Z</time></trkpt><trkpt lat="37.5408017" lon="-2.635295"><ele>891.5</ele><time>2026-04-25T08:32:08.06Z</time></trkpt><trkpt lat="37.54064" lon="-2.6355983"><ele>891.0</ele><time>2026-04-25T08:32:09.061Z</time></trkpt><trkpt lat="37.540475" lon="-2.6359"><ele>890.0</ele><time>2026-04-25T08:32:10.065Z</time></trkpt><trkpt lat="37.54031" lon="-2.6362017"><ele>889.0</ele><time>2026-04-25T08:32:11.059Z</time></trkpt><trkpt lat="37.5401467" lon="-2.6365033"><ele>889.0</ele><time>2026-04-25T08:32:12.065Z</time></trkpt><trkpt lat="37.53998" lon="-2.6368033"><ele>889.0</ele><time>2026-04-25T08:32:13.061Z</time></trkpt><trkpt lat="37.539815" lon="-2.6371033"><ele>889.5</ele><time>2026-04-25T08:32:14.062Z</time></trkpt><trkpt lat="37.53965" lon="-2.6374033"><ele>890.0</ele><time>2026-04-25T08:32:15.068Z</time></trkpt><trkpt lat="37.539485" lon="-2.6377033"><ele>888.5</ele><time>2026-04-25T08:32:16.06Z</time></trkpt><trkpt lat="37.5393217" lon="-2.638005"><ele>887.0</ele><time>2026-04-25T08:32:17.063Z</time></trkpt><trkpt lat="37.5391567" lon="-2.6383083"><ele>887.0</ele><time>2026-04-25T08:32:18.064Z</time></trkpt><trkpt lat="37.5389917" lon="-2.6386117"><ele>887.0</ele><time>2026-04-25T08:32:19.068Z</time></trkpt><trkpt lat="37.538825" lon="-2.6389167"><ele>884.5</ele><time>2026-04-25T08:32:20.064Z</time></trkpt><trkpt lat="37.53866" lon="-2.6392233"><ele>882.0</ele><time>2026-04-25T08:32:21.063Z</time></trkpt><trkpt lat="37.5384933" lon="-2.6395283"><ele>881.5</ele><time>2026-04-25T08:32:22.069Z</time></trkpt><trkpt lat="37.5383283" lon="-2.6398317"><ele>881.0</ele><time>2026-04-25T08:32:23.063Z</time></trkpt><trkpt lat="37.5381633" lon="-2.6401367"><ele>881.5</ele><time>2026-04-25T08:32:24.067Z</time></trkpt><trkpt lat="37.5379983" lon="-2.64044"><ele>882.0</ele><time>2026-04-25T08:32:25.062Z</time></trkpt><trkpt lat="37.537835" lon="-2.6407433"><ele>882.0</ele><time>2026-04-25T08:32:26.07Z</time></trkpt><trkpt lat="37.5376717" lon="-2.6410467"><ele>882.0</ele><time>2026-04-25T08:32:27.062Z</time></trkpt><trkpt lat="37.5375067" lon="-2.64135"><ele>881.0</ele><time>2026-04-25T08:32:28.064Z</time></trkpt><trkpt lat="37.53734" lon="-2.641655"><ele>880.0</ele><time>2026-04-25T08:32:29.064Z</time></trkpt><trkpt lat="37.5371733" lon="-2.6419617"><ele>878.5</ele><time>2026-04-25T08:32:30.062Z</time></trkpt><trkpt lat="37.5370067" lon="-2.6422683"><ele>877.0</ele><time>2026-04-25T08:32:31.067Z</time></trkpt><trkpt lat="37.53684" lon="-2.642575"><ele>876.0</ele><time>2026-04-25T08:32:32.064Z</time></trkpt><trkpt lat="37.5366733" lon="-2.6428817"><ele>875.0</ele><time>2026-04-25T08:32:33.062Z</time></trkpt><trkpt lat="37.5365067" lon="-2.6431883"><ele>875.0</ele><time>2026-04-25T08:32:34.061Z</time></trkpt><trkpt lat="37.5363383" lon="-2.643495"><ele>875.0</ele><time>2026-04-25T08:32:35.062Z</time></trkpt><trkpt lat="37.5361717" lon="-2.6438017"><ele>874.5</ele><time>2026-04-25T08:32:36.059Z</time></trkpt><trkpt lat="37.5360033" lon="-2.6441067"><ele>874.0</ele><time>2026-04-25T08:32:37.062Z</time></trkpt><trkpt lat="37.535835" lon="-2.6444083"><ele>873.5</ele><time>2026-04-25T08:32:38.064Z</time></trkpt><trkpt lat="37.53567" lon="-2.64471"><ele>873.0</ele><time>2026-04-25T08:32:39.063Z</time></trkpt><trkpt lat="37.5355083" lon="-2.6450117"><ele>872.5</ele><time>2026-04-25T08:32:40.065Z</time></trkpt><trkpt lat="37.5353467" lon="-2.64531"><ele>872.0</ele><time>2026-04-25T08:32:41.063Z</time></trkpt><trkpt lat="37.535185" lon="-2.6456083"><ele>872.0</ele><time>2026-04-25T08:32:42.061Z</time></trkpt><trkpt lat="37.5350233" lon="-2.6459033"><ele>872.0</ele><time>2026-04-25T08:32:43.061Z</time></trkpt><trkpt lat="37.534865" lon="-2.6461967"><ele>870.5</ele><time>2026-04-25T08:32:44.061Z</time></trkpt><trkpt lat="37.5347083" lon="-2.6464883"><ele>869.0</ele><time>2026-04-25T08:32:45.066Z</time></trkpt><trkpt lat="37.5345517" lon="-2.6467767"><ele>869.0</ele><time>2026-04-25T08:32:46.063Z</time></trkpt><trkpt lat="37.5343967" lon="-2.647065"><ele>869.0</ele><time>2026-04-25T08:32:47.064Z</time></trkpt><trkpt lat="37.5342417" lon="-2.6473533"><ele>869.0</ele><time>2026-04-25T08:32:48.068Z</time></trkpt><trkpt lat="37.534085" lon="-2.6476417"><ele>869.0</ele><time>2026-04-25T08:32:49.062Z</time></trkpt><trkpt lat="37.5339267" lon="-2.64793"><ele>868.5</ele><time>2026-04-25T08:32:50.067Z</time></trkpt><trkpt lat="37.5337667" lon="-2.648225"><ele>868.0</ele><time>2026-04-25T08:32:51.062Z</time></trkpt><trkpt lat="37.533605" lon="-2.64852"><ele>866.5</ele><time>2026-04-25T08:32:52.061Z</time></trkpt><trkpt lat="37.5334433" lon="-2.6488183"><ele>865.0</ele><time>2026-04-25T08:32:53.062Z</time></trkpt><trkpt lat="37.5332817" lon="-2.6491167"><ele>865.0</ele><time>2026-04-25T08:32:54.067Z</time></trkpt><trkpt lat="37.53312" lon="-2.6494167"><ele>865.0</ele><time>2026-04-25T08:32:55.06Z</time></trkpt><trkpt lat="37.53296" lon="-2.6497183"><ele>865.0</ele><time>2026-04-25T08:32:56.063Z</time></trkpt><trkpt lat="37.5328" lon="-2.6500183"><ele>865.0</ele><time>2026-04-25T08:32:57.063Z</time></trkpt><trkpt lat="37.53264" lon="-2.6503167"><ele>865.5</ele><time>2026-04-25T08:32:58.061Z</time></trkpt><trkpt lat="37.5324783" lon="-2.6506133"><ele>866.0</ele><time>2026-04-25T08:32:59.06Z</time></trkpt><trkpt lat="37.53232" lon="-2.6509117"><ele>866.0</ele><time>2026-04-25T08:33:00.063Z</time></trkpt><trkpt lat="37.5321617" lon="-2.65121"><ele>866.0</ele><time>2026-04-25T08:33:01.06Z</time></trkpt><trkpt lat="37.5320033" lon="-2.6515017"><ele>867.0</ele><time>2026-04-25T08:33:02.064Z</time></trkpt><trkpt lat="37.531845" lon="-2.6517933"><ele>868.0</ele><time>2026-04-25T08:33:03.062Z</time></trkpt><trkpt lat="37.5316883" lon="-2.65208"><ele>868.0</ele><time>2026-04-25T08:33:04.063Z</time></trkpt><trkpt lat="37.53153" lon="-2.652365"><ele>868.0</ele><time>2026-04-25T08:33:05.064Z</time></trkpt><trkpt lat="37.5313733" lon="-2.6526467"><ele>871.0</ele><time>2026-04-25T08:33:06.065Z</time></trkpt><trkpt lat="37.5312183" lon="-2.65293"><ele>874.0</ele><time>2026-04-25T08:33:07.066Z</time></trkpt><trkpt lat="37.5310667" lon="-2.65321"><ele>874.0</ele><time>2026-04-25T08:33:08.066Z</time></trkpt><trkpt lat="37.530915" lon="-2.6534883"><ele>874.0</ele><time>2026-04-25T08:33:09.069Z</time></trkpt><trkpt lat="37.5307617" lon="-2.653765"><ele>873.5</ele><time>2026-04-25T08:33:10.063Z</time></trkpt><trkpt lat="37.5306083" lon="-2.65404"><ele>873.0</ele><time>2026-04-25T08:33:11.069Z</time></trkpt><trkpt lat="37.53045" lon="-2.6543133"><ele>871.5</ele><time>2026-04-25T08:33:12.063Z</time></trkpt><trkpt lat="37.5302867" lon="-2.65459"><ele>870.0</ele><time>2026-04-25T08:33:13.064Z</time></trkpt><trkpt lat="37.53012" lon="-2.6548667"><ele>870.0</ele><time>2026-04-25T08:33:14.063Z</time></trkpt><trkpt lat="37.52995" lon="-2.6551433"><ele>870.0</ele><time>2026-04-25T08:33:15.061Z</time></trkpt><trkpt lat="37.5297767" lon="-2.65542"><ele>870.0</ele><time>2026-04-25T08:33:16.061Z</time></trkpt><trkpt lat="37.5296" lon="-2.6556967"><ele>870.0</ele><time>2026-04-25T08:33:17.067Z</time></trkpt><trkpt lat="37.52942" lon="-2.6559717"><ele>866.0</ele><time>2026-04-25T08:33:18.064Z</time></trkpt><trkpt lat="37.52924" lon="-2.656245"><ele>862.0</ele><time>2026-04-25T08:33:19.062Z</time></trkpt><trkpt lat="37.5290583" lon="-2.656515"><ele>862.0</ele><time>2026-04-25T08:33:20.068Z</time></trkpt><trkpt lat="37.5288767" lon="-2.6567817"><ele>862.0</ele><time>2026-04-25T08:33:21.061Z</time></trkpt><trkpt lat="37.528695" lon="-2.6570433"><ele>860.0</ele><time>2026-04-25T08:33:22.064Z</time></trkpt><trkpt lat="37.5285117" lon="-2.6573033"><ele>858.0</ele><time>2026-04-25T08:33:23.065Z</time></trkpt><trkpt lat="37.5283317" lon="-2.6575633"><ele>856.0</ele><time>2026-04-25T08:33:24.06Z</time></trkpt><trkpt lat="37.5281567" lon="-2.657825"><ele>854.0</ele><time>2026-04-25T08:33:25.066Z</time></trkpt><trkpt lat="37.5279917" lon="-2.6580933"><ele>854.0</ele><time>2026-04-25T08:33:26.06Z</time></trkpt><trkpt lat="37.5278333" lon="-2.6583667"><ele>854.0</ele><time>2026-04-25T08:33:27.06Z</time></trkpt><trkpt lat="37.5276833" lon="-2.6586467"><ele>854.0</ele><time>2026-04-25T08:33:28.067Z</time></trkpt><trkpt lat="37.5275433" lon="-2.6589367"><ele>854.0</ele><time>2026-04-25T08:33:29.064Z</time></trkpt><trkpt lat="37.5274167" lon="-2.6592367"><ele>851.5</ele><time>2026-04-25T08:33:30.062Z</time></trkpt><trkpt lat="37.5273033" lon="-2.6595433"><ele>849.0</ele><time>2026-04-25T08:33:31.063Z</time></trkpt><trkpt lat="37.5272017" lon="-2.659855"><ele>849.0</ele><time>2026-04-25T08:33:32.064Z</time></trkpt><trkpt lat="37.527115" lon="-2.660175"><ele>849.0</ele><time>2026-04-25T08:33:33.069Z</time></trkpt><trkpt lat="37.5270417" lon="-2.6604983"><ele>850.0</ele><time>2026-04-25T08:33:34.058Z</time></trkpt><trkpt lat="37.52698" lon="-2.660825"><ele>851.0</ele><time>2026-04-25T08:33:35.06Z</time></trkpt><trkpt lat="37.5269283" lon="-2.6611533"><ele>849.0</ele><time>2026-04-25T08:33:36.062Z</time></trkpt><trkpt lat="37.5268933" lon="-2.661485"><ele>847.0</ele><time>2026-04-25T08:33:37.065Z</time></trkpt><trkpt lat="37.5268717" lon="-2.66182"><ele>846.0</ele><time>2026-04-25T08:33:38.067Z</time></trkpt><trkpt lat="37.526865" lon="-2.6621567"><ele>845.0</ele><time>2026-04-25T08:33:39.067Z</time></trkpt><trkpt lat="37.5268717" lon="-2.6624967"><ele>843.5</ele><time>2026-04-25T08:33:40.062Z</time></trkpt><trkpt lat="37.5268833" lon="-2.662835"><ele>842.0</ele><time>2026-04-25T08:33:41.066Z</time></trkpt><trkpt lat="37.5269017" lon="-2.663175"><ele>842.0</ele><time>2026-04-25T08:33:42.068Z</time></trkpt><trkpt lat="37.526925" lon="-2.6635133"><ele>842.0</ele><time>2026-04-25T08:33:43.062Z</time></trkpt><trkpt lat="37.5269533" lon="-2.66385"><ele>840.5</ele><time>2026-04-25T08:33:44.065Z</time></trkpt><trkpt lat="37.5269833" lon="-2.664185"><ele>839.0</ele><time>2026-04-25T08:33:45.063Z</time></trkpt><trkpt lat="37.5270117" lon="-2.6645217"><ele>838.0</ele><time>2026-04-25T08:33:46.061Z</time></trkpt><trkpt lat="37.5270417" lon="-2.6648567"><ele>837.0</ele><time>2026-04-25T08:33:47.072Z</time></trkpt><trkpt lat="37.5270667" lon="-2.6651967"><ele>836.0</ele><time>2026-04-25T08:33:48.062Z</time></trkpt><trkpt lat="37.52709" lon="-2.66554"><ele>835.0</ele><time>2026-04-25T08:33:49.06Z</time></trkpt><trkpt lat="37.527105" lon="-2.665885"><ele>835.0</ele><time>2026-04-25T08:33:50.062Z</time></trkpt><trkpt lat="37.5271133" lon="-2.6662333"><ele>835.0</ele><time>2026-04-25T08:33:51.067Z</time></trkpt><trkpt lat="37.527115" lon="-2.6665817"><ele>835.0</ele><time>2026-04-25T08:33:52.062Z</time></trkpt><trkpt lat="37.5271083" lon="-2.66693"><ele>835.0</ele><time>2026-04-25T08:33:53.065Z</time></trkpt><trkpt lat="37.527095" lon="-2.6672767"><ele>834.5</ele><time>2026-04-25T08:33:54.059Z</time></trkpt><trkpt lat="37.5270717" lon="-2.6676233"><ele>834.0</ele><time>2026-04-25T08:33:55.063Z</time></trkpt><trkpt lat="37.52704" lon="-2.66797"><ele>828.5</ele><time>2026-04-25T08:33:56.063Z</time></trkpt><trkpt lat="37.5270017" lon="-2.66832"><ele>823.0</ele><time>2026-04-25T08:33:57.063Z</time></trkpt><trkpt lat="37.5269567" lon="-2.66867"><ele>821.0</ele><time>2026-04-25T08:33:58.061Z</time></trkpt><trkpt lat="37.526905" lon="-2.6690183"><ele>819.0</ele><time>2026-04-25T08:33:59.061Z</time></trkpt><trkpt lat="37.5268467" lon="-2.6693667"><ele>818.0</ele><time>2026-04-25T08:34:00.062Z</time></trkpt><trkpt lat="37.5267783" lon="-2.669715"><ele>817.0</ele><time>2026-04-25T08:34:01.062Z</time></trkpt><trkpt lat="37.5267067" lon="-2.67007"><ele>815.0</ele><time>2026-04-25T08:34:02.061Z</time></trkpt><trkpt lat="37.526635" lon="-2.67043"><ele>813.0</ele><time>2026-04-25T08:34:03.067Z</time></trkpt><trkpt lat="37.52656" lon="-2.6707933"><ele>810.0</ele><time>2026-04-25T08:34:04.062Z</time></trkpt><trkpt lat="37.5264883" lon="-2.6711617"><ele>807.0</ele><time>2026-04-25T08:34:05.062Z</time></trkpt><trkpt lat="37.5264233" lon="-2.6715317"><ele>807.0</ele><time>2026-04-25T08:34:06.065Z</time></trkpt><trkpt lat="37.526365" lon="-2.671905"><ele>807.0</ele><time>2026-04-25T08:34:07.062Z</time></trkpt><trkpt lat="37.526325" lon="-2.6722817"><ele>804.5</ele><time>2026-04-25T08:34:08.063Z</time></trkpt><trkpt lat="37.5263017" lon="-2.6726617"><ele>802.0</ele><time>2026-04-25T08:34:09.063Z</time></trkpt><trkpt lat="37.526295" lon="-2.67304"><ele>802.0</ele><time>2026-04-25T08:34:10.061Z</time></trkpt><trkpt lat="37.526305" lon="-2.6734167"><ele>802.0</ele><time>2026-04-25T08:34:11.061Z</time></trkpt><trkpt lat="37.5263317" lon="-2.6737917"><ele>801.5</ele><time>2026-04-25T08:34:12.064Z</time></trkpt><trkpt lat="37.526375" lon="-2.6741617"><ele>801.0</ele><time>2026-04-25T08:34:13.059Z</time></trkpt><trkpt lat="37.52643" lon="-2.67453"><ele>800.5</ele><time>2026-04-25T08:34:14.06Z</time></trkpt><trkpt lat="37.526495" lon="-2.6748933"><ele>800.0</ele><time>2026-04-25T08:34:15.06Z</time></trkpt><trkpt lat="37.5265667" lon="-2.6752533"><ele>799.5</ele><time>2026-04-25T08:34:16.061Z</time></trkpt><trkpt lat="37.5266467" lon="-2.6756117"><ele>799.0</ele><time>2026-04-25T08:34:17.061Z</time></trkpt><trkpt lat="37.5267233" lon="-2.6759733"><ele>798.5</ele><time>2026-04-25T08:34:18.069Z</time></trkpt><trkpt lat="37.5267917" lon="-2.67634"><ele>798.0</ele><time>2026-04-25T08:34:19.063Z</time></trkpt><trkpt lat="37.52685" lon="-2.6767083"><ele>796.5</ele><time>2026-04-25T08:34:20.063Z</time></trkpt><trkpt lat="37.5268967" lon="-2.67708"><ele>795.0</ele><time>2026-04-25T08:34:21.062Z</time></trkpt><trkpt lat="37.5269217" lon="-2.677455"><ele>794.5</ele><time>2026-04-25T08:34:22.062Z</time></trkpt><trkpt lat="37.526925" lon="-2.6778267"><ele>794.0</ele><time>2026-04-25T08:34:23.061Z</time></trkpt><trkpt lat="37.526915" lon="-2.6781967"><ele>794.0</ele><time>2026-04-25T08:34:24.064Z</time></trkpt><trkpt lat="37.526885" lon="-2.6785667"><ele>794.0</ele><time>2026-04-25T08:34:25.068Z</time></trkpt><trkpt lat="37.5268417" lon="-2.6789283"><ele>792.0</ele><time>2026-04-25T08:34:26.068Z</time></trkpt><trkpt lat="37.5267833" lon="-2.6792867"><ele>790.0</ele><time>2026-04-25T08:34:27.061Z</time></trkpt><trkpt lat="37.52671" lon="-2.679635"><ele>789.0</ele><time>2026-04-25T08:34:28.062Z</time></trkpt><trkpt lat="37.5266267" lon="-2.6799783"><ele>788.0</ele><time>2026-04-25T08:34:29.065Z</time></trkpt><trkpt lat="37.5265333" lon="-2.6803167"><ele>787.0</ele><time>2026-04-25T08:34:30.062Z</time></trkpt><trkpt lat="37.526425" lon="-2.680645"><ele>786.0</ele><time>2026-04-25T08:34:31.063Z</time></trkpt><trkpt lat="37.5262967" lon="-2.68096"><ele>791.5</ele><time>2026-04-25T08:34:32.062Z</time></trkpt><trkpt lat="37.5261567" lon="-2.6812667"><ele>797.0</ele><time>2026-04-25T08:34:33.073Z</time></trkpt><trkpt lat="37.5260067" lon="-2.6815667"><ele>797.0</ele><time>2026-04-25T08:34:34.061Z</time></trkpt><trkpt lat="37.5258433" lon="-2.6818583"><ele>797.0</ele><time>2026-04-25T08:34:35.063Z</time></trkpt><trkpt lat="37.5256683" lon="-2.6821417"><ele>797.5</ele><time>2026-04-25T08:34:36.065Z</time></trkpt><trkpt lat="37.52548" lon="-2.6824183"><ele>798.0</ele><time>2026-04-25T08:34:37.064Z</time></trkpt><trkpt lat="37.52528" lon="-2.6826883"><ele>795.5</ele><time>2026-04-25T08:34:38.064Z</time></trkpt><trkpt lat="37.5250783" lon="-2.6829533"><ele>793.0</ele><time>2026-04-25T08:34:39.061Z</time></trkpt><trkpt lat="37.524875" lon="-2.683215"><ele>793.0</ele><time>2026-04-25T08:34:40.061Z</time></trkpt><trkpt lat="37.5246717" lon="-2.683475"><ele>793.0</ele><time>2026-04-25T08:34:41.062Z</time></trkpt><trkpt lat="37.5244717" lon="-2.6837367"><ele>792.0</ele><time>2026-04-25T08:34:42.063Z</time></trkpt><trkpt lat="37.5242783" lon="-2.684"><ele>791.0</ele><time>2026-04-25T08:34:43.061Z</time></trkpt><trkpt lat="37.52409" lon="-2.6842683"><ele>788.0</ele><time>2026-04-25T08:34:44.067Z</time></trkpt><trkpt lat="37.5239083" lon="-2.6845383"><ele>785.0</ele><time>2026-04-25T08:34:45.062Z</time></trkpt><trkpt lat="37.5237317" lon="-2.6848117"><ele>789.0</ele><time>2026-04-25T08:34:46.06Z</time></trkpt><trkpt lat="37.5235583" lon="-2.6850917"><ele>793.0</ele><time>2026-04-25T08:34:47.072Z</time></trkpt><trkpt lat="37.5233917" lon="-2.6853783"><ele>795.0</ele><time>2026-04-25T08:34:48.068Z</time></trkpt><trkpt lat="37.5232317" lon="-2.68567"><ele>797.0</ele><time>2026-04-25T08:34:49.065Z</time></trkpt><trkpt lat="37.52308" lon="-2.6859683"><ele>796.5</ele><time>2026-04-25T08:34:50.062Z</time></trkpt><trkpt lat="37.5229367" lon="-2.686275"><ele>796.0</ele><time>2026-04-25T08:34:51.064Z</time></trkpt><trkpt lat="37.5228017" lon="-2.6865917"><ele>796.0</ele><time>2026-04-25T08:34:52.063Z</time></trkpt><trkpt lat="37.5226783" lon="-2.6869133"><ele>796.0</ele><time>2026-04-25T08:34:53.063Z</time></trkpt><trkpt lat="37.52256" lon="-2.6872417"><ele>796.0</ele><time>2026-04-25T08:34:54.062Z</time></trkpt><trkpt lat="37.5224533" lon="-2.6875783"><ele>796.0</ele><time>2026-04-25T08:34:55.063Z</time></trkpt><trkpt lat="37.522355" lon="-2.6879217"><ele>796.0</ele><time>2026-04-25T08:34:56.061Z</time></trkpt><trkpt lat="37.5222667" lon="-2.6882733"><ele>796.0</ele><time>2026-04-25T08:34:57.061Z</time></trkpt><trkpt lat="37.5221867" lon="-2.6886317"><ele>796.0</ele><time>2026-04-25T08:34:58.065Z</time></trkpt><trkpt lat="37.5221183" lon="-2.6889917"><ele>796.0</ele><time>2026-04-25T08:34:59.062Z</time></trkpt><trkpt lat="37.52206" lon="-2.689355"><ele>792.0</ele><time>2026-04-25T08:35:00.059Z</time></trkpt><trkpt lat="37.522005" lon="-2.68973"><ele>788.0</ele><time>2026-04-25T08:35:01.062Z</time></trkpt><trkpt lat="37.5219583" lon="-2.6901133"><ele>788.0</ele><time>2026-04-25T08:35:02.061Z</time></trkpt><trkpt lat="37.5219183" lon="-2.6904983"><ele>788.0</ele><time>2026-04-25T08:35:03.064Z</time></trkpt><trkpt lat="37.521885" lon="-2.6908783"><ele>786.0</ele><time>2026-04-25T08:35:04.063Z</time></trkpt><trkpt lat="37.5218533" lon="-2.69126"><ele>784.0</ele><time>2026-04-25T08:35:05.068Z</time></trkpt><trkpt lat="37.52182" lon="-2.69164"><ele>782.5</ele><time>2026-04-25T08:35:06.063Z</time></trkpt><trkpt lat="37.5217883" lon="-2.6920217"><ele>781.0</ele><time>2026-04-25T08:35:07.061Z</time></trkpt><trkpt lat="37.5217533" lon="-2.6924017"><ele>779.0</ele><time>2026-04-25T08:35:08.06Z</time></trkpt><trkpt lat="37.5217133" lon="-2.6927817"><ele>777.0</ele><time>2026-04-25T08:35:09.073Z</time></trkpt><trkpt lat="37.521665" lon="-2.69316"><ele>777.0</ele><time>2026-04-25T08:35:10.063Z</time></trkpt><trkpt lat="37.52161" lon="-2.69353"><ele>777.0</ele><time>2026-04-25T08:35:11.065Z</time></trkpt><trkpt lat="37.52154" lon="-2.6938967"><ele>775.5</ele><time>2026-04-25T08:35:12.064Z</time></trkpt><trkpt lat="37.5214583" lon="-2.694265"><ele>774.0</ele><time>2026-04-25T08:35:13.061Z</time></trkpt><trkpt lat="37.5213683" lon="-2.6946317"><ele>774.0</ele><time>2026-04-25T08:35:14.061Z</time></trkpt><trkpt lat="37.5212683" lon="-2.6949917"><ele>774.0</ele><time>2026-04-25T08:35:15.063Z</time></trkpt><trkpt lat="37.521165" lon="-2.6953467"><ele>770.5</ele><time>2026-04-25T08:35:16.058Z</time></trkpt><trkpt lat="37.5210533" lon="-2.6956933"><ele>767.0</ele><time>2026-04-25T08:35:17.058Z</time></trkpt><trkpt lat="37.520935" lon="-2.6960333"><ele>766.0</ele><time>2026-04-25T08:35:18.066Z</time></trkpt><trkpt lat="37.520815" lon="-2.6963683"><ele>765.0</ele><time>2026-04-25T08:35:19.063Z</time></trkpt><trkpt lat="37.520695" lon="-2.6966983"><ele>764.5</ele><time>2026-04-25T08:35:20.059Z</time></trkpt><trkpt lat="37.520575" lon="-2.6970283"><ele>764.0</ele><time>2026-04-25T08:35:21.064Z</time></trkpt><trkpt lat="37.5204533" lon="-2.69736"><ele>766.0</ele><time>2026-04-25T08:35:22.06Z</time></trkpt><trkpt lat="37.5203333" lon="-2.6976883"><ele>768.0</ele><time>2026-04-25T08:35:23.063Z</time></trkpt><trkpt lat="37.520215" lon="-2.6980167"><ele>768.0</ele><time>2026-04-25T08:35:24.064Z</time></trkpt><trkpt lat="37.5201017" lon="-2.6983483"><ele>768.0</ele><time>2026-04-25T08:35:25.065Z</time></trkpt><trkpt lat="37.519995" lon="-2.6986783"><ele>767.5</ele><time>2026-04-25T08:35:26.064Z</time></trkpt><trkpt lat="37.5199017" lon="-2.6990133"><ele>767.0</ele><time>2026-04-25T08:35:27.062Z</time></trkpt><trkpt lat="37.5198217" lon="-2.6993533"><ele>768.5</ele><time>2026-04-25T08:35:28.061Z</time></trkpt><trkpt lat="37.5197533" lon="-2.6996967"><ele>770.0</ele><time>2026-04-25T08:35:29.064Z</time></trkpt><trkpt lat="37.5196983" lon="-2.700045"><ele>769.5</ele><time>2026-04-25T08:35:30.062Z</time></trkpt><trkpt lat="37.5196517" lon="-2.700395"><ele>769.0</ele><time>2026-04-25T08:35:31.061Z</time></trkpt><trkpt lat="37.5196233" lon="-2.7007483"><ele>768.0</ele><time>2026-04-25T08:35:32.067Z</time></trkpt><trkpt lat="37.5196033" lon="-2.7011017"><ele>767.0</ele><time>2026-04-25T08:35:33.065Z</time></trkpt><trkpt lat="37.519595" lon="-2.701455"><ele>767.0</ele><time>2026-04-25T08:35:34.06Z</time></trkpt><trkpt lat="37.5195967" lon="-2.7018083"><ele>767.0</ele><time>2026-04-25T08:35:35.059Z</time></trkpt><trkpt lat="37.5196067" lon="-2.7021667"><ele>767.0</ele><time>2026-04-25T08:35:36.068Z</time></trkpt><trkpt lat="37.519625" lon="-2.7025283"><ele>767.0</ele><time>2026-04-25T08:35:37.062Z</time></trkpt><trkpt lat="37.51966" lon="-2.7028933"><ele>765.0</ele><time>2026-04-25T08:35:38.065Z</time></trkpt><trkpt lat="37.519705" lon="-2.7032633"><ele>763.0</ele><time>2026-04-25T08:35:39.064Z</time></trkpt><trkpt lat="37.5197633" lon="-2.7036333"><ele>761.5</ele><time>2026-04-25T08:35:40.062Z</time></trkpt><trkpt lat="37.5198283" lon="-2.704"><ele>760.0</ele><time>2026-04-25T08:35:41.063Z</time></trkpt><trkpt lat="37.5198967" lon="-2.7043633"><ele>760.0</ele><time>2026-04-25T08:35:42.066Z</time></trkpt><trkpt lat="37.5199633" lon="-2.7047283"><ele>760.0</ele><time>2026-04-25T08:35:43.063Z</time></trkpt><trkpt lat="37.520035" lon="-2.7050917"><ele>758.5</ele><time>2026-04-25T08:35:44.061Z</time></trkpt><trkpt lat="37.5201117" lon="-2.7054567"><ele>757.0</ele><time>2026-04-25T08:35:45.066Z</time></trkpt><trkpt lat="37.5201883" lon="-2.705825"><ele>756.0</ele><time>2026-04-25T08:35:46.062Z</time></trkpt><trkpt lat="37.5202517" lon="-2.706195"><ele>755.0</ele><time>2026-04-25T08:35:47.061Z</time></trkpt><trkpt lat="37.5202983" lon="-2.70657"><ele>755.5</ele><time>2026-04-25T08:35:48.06Z</time></trkpt><trkpt lat="37.5203233" lon="-2.7069467"><ele>756.0</ele><time>2026-04-25T08:35:49.06Z</time></trkpt><trkpt lat="37.5203333" lon="-2.70732"><ele>756.0</ele><time>2026-04-25T08:35:50.061Z</time></trkpt><trkpt lat="37.520325" lon="-2.707695"><ele>756.0</ele><time>2026-04-25T08:35:51.063Z</time></trkpt><trkpt lat="37.5202983" lon="-2.70807"><ele>755.0</ele><time>2026-04-25T08:35:52.06Z</time></trkpt><trkpt lat="37.5202617" lon="-2.70844"><ele>754.0</ele><time>2026-04-25T08:35:53.064Z</time></trkpt><trkpt lat="37.5202133" lon="-2.7088083"><ele>752.5</ele><time>2026-04-25T08:35:54.064Z</time></trkpt><trkpt lat="37.52015" lon="-2.7091683"><ele>751.0</ele><time>2026-04-25T08:35:55.065Z</time></trkpt><trkpt lat="37.52007" lon="-2.7095233"><ele>746.5</ele><time>2026-04-25T08:35:56.061Z</time></trkpt><trkpt lat="37.51998" lon="-2.7098717"><ele>742.0</ele><time>2026-04-25T08:35:57.065Z</time></trkpt><trkpt lat="37.519875" lon="-2.7102167"><ele>742.0</ele><time>2026-04-25T08:35:58.064Z</time></trkpt><trkpt lat="37.51976" lon="-2.7105567"><ele>742.0</ele><time>2026-04-25T08:35:59.064Z</time></trkpt><trkpt lat="37.51963" lon="-2.71089"><ele>741.5</ele><time>2026-04-25T08:36:00.061Z</time></trkpt><trkpt lat="37.5194883" lon="-2.711215"><ele>741.0</ele><time>2026-04-25T08:36:01.063Z</time></trkpt><trkpt lat="37.519335" lon="-2.71153"><ele>741.0</ele><time>2026-04-25T08:36:02.067Z</time></trkpt><trkpt lat="37.5191733" lon="-2.7118417"><ele>741.0</ele><time>2026-04-25T08:36:03.066Z</time></trkpt><trkpt lat="37.5190133" lon="-2.7121517"><ele>741.0</ele><time>2026-04-25T08:36:04.06Z</time></trkpt><trkpt lat="37.5188467" lon="-2.71246"><ele>741.0</ele><time>2026-04-25T08:36:05.059Z</time></trkpt><trkpt lat="37.5186783" lon="-2.712765"><ele>741.0</ele><time>2026-04-25T08:36:06.06Z</time></trkpt><trkpt lat="37.5185083" lon="-2.71307"><ele>741.0</ele><time>2026-04-25T08:36:07.064Z</time></trkpt><trkpt lat="37.5183383" lon="-2.7133767"><ele>742.0</ele><time>2026-04-25T08:36:08.065Z</time></trkpt><trkpt lat="37.51817" lon="-2.713685"><ele>743.0</ele><time>2026-04-25T08:36:09.061Z</time></trkpt><trkpt lat="37.5180017" lon="-2.7139917"><ele>742.5</ele><time>2026-04-25T08:36:10.058Z</time></trkpt><trkpt lat="37.517835" lon="-2.7143"><ele>742.0</ele><time>2026-04-25T08:36:11.061Z</time></trkpt><trkpt lat="37.5176683" lon="-2.7146067"><ele>744.5</ele><time>2026-04-25T08:36:12.061Z</time></trkpt><trkpt lat="37.5175033" lon="-2.7149117"><ele>747.0</ele><time>2026-04-25T08:36:13.058Z</time></trkpt><trkpt lat="37.5173383" lon="-2.7152133"><ele>746.5</ele><time>2026-04-25T08:36:14.059Z</time></trkpt><trkpt lat="37.5171717" lon="-2.7155133"><ele>746.0</ele><time>2026-04-25T08:36:15.061Z</time></trkpt><trkpt lat="37.5170033" lon="-2.7158133"><ele>748.0</ele><time>2026-04-25T08:36:16.062Z</time></trkpt><trkpt lat="37.5168383" lon="-2.7161133"><ele>750.0</ele><time>2026-04-25T08:36:17.064Z</time></trkpt><trkpt lat="37.516675" lon="-2.7164133"><ele>750.0</ele><time>2026-04-25T08:36:18.061Z</time></trkpt><trkpt lat="37.5165117" lon="-2.7167133"><ele>750.0</ele><time>2026-04-25T08:36:19.063Z</time></trkpt><trkpt lat="37.51635" lon="-2.7170117"><ele>749.5</ele><time>2026-04-25T08:36:20.062Z</time></trkpt><trkpt lat="37.5161867" lon="-2.71731"><ele>749.0</ele><time>2026-04-25T08:36:21.063Z</time></trkpt><trkpt lat="37.516025" lon="-2.717605"><ele>750.5</ele><time>2026-04-25T08:36:22.063Z</time></trkpt><trkpt lat="37.5158633" lon="-2.7178983"><ele>752.0</ele><time>2026-04-25T08:36:23.067Z</time></trkpt><trkpt lat="37.5157017" lon="-2.7181933"><ele>752.0</ele><time>2026-04-25T08:36:24.062Z</time></trkpt><trkpt lat="37.51554" lon="-2.718485"><ele>752.0</ele><time>2026-04-25T08:36:25.062Z</time></trkpt><trkpt lat="37.51538" lon="-2.7187733"><ele>754.0</ele><time>2026-04-25T08:36:26.066Z</time></trkpt><trkpt lat="37.5152183" lon="-2.7190633"><ele>756.0</ele><time>2026-04-25T08:36:27.058Z</time></trkpt><trkpt lat="37.5150567" lon="-2.7193517"><ele>758.0</ele><time>2026-04-25T08:36:28.068Z</time></trkpt><trkpt lat="37.5148933" lon="-2.71964"><ele>760.0</ele><time>2026-04-25T08:36:29.066Z</time></trkpt><trkpt lat="37.5147317" lon="-2.71993"><ele>759.5</ele><time>2026-04-25T08:36:30.064Z</time></trkpt><trkpt lat="37.5145683" lon="-2.7202233"><ele>759.0</ele><time>2026-04-25T08:36:31.065Z</time></trkpt><trkpt lat="37.5144033" lon="-2.7205183"><ele>759.0</ele><time>2026-04-25T08:36:32.059Z</time></trkpt><trkpt lat="37.51424" lon="-2.7208133"><ele>759.0</ele><time>2026-04-25T08:36:33.068Z</time></trkpt><trkpt lat="37.5140767" lon="-2.7211083"><ele>761.0</ele><time>2026-04-25T08:36:34.058Z</time></trkpt><trkpt lat="37.5139133" lon="-2.721405"><ele>763.0</ele><time>2026-04-25T08:36:35.064Z</time></trkpt><trkpt lat="37.5137517" lon="-2.7217"><ele>763.0</ele><time>2026-04-25T08:36:36.059Z</time></trkpt><trkpt lat="37.5135883" lon="-2.7219967"><ele>763.0</ele><time>2026-04-25T08:36:37.064Z</time></trkpt><trkpt lat="37.5134233" lon="-2.7222933"><ele>763.0</ele><time>2026-04-25T08:36:38.058Z</time></trkpt><trkpt lat="37.5132583" lon="-2.7225883"><ele>763.0</ele><time>2026-04-25T08:36:39.064Z</time></trkpt><trkpt lat="37.513095" lon="-2.722885"><ele>763.5</ele><time>2026-04-25T08:36:40.061Z</time></trkpt><trkpt lat="37.5129317" lon="-2.7231833"><ele>764.0</ele><time>2026-04-25T08:36:41.067Z</time></trkpt><trkpt lat="37.5127717" lon="-2.7234767"><ele>765.5</ele><time>2026-04-25T08:36:42.063Z</time></trkpt><trkpt lat="37.5126117" lon="-2.7237633"><ele>767.0</ele><time>2026-04-25T08:36:43.063Z</time></trkpt><trkpt lat="37.512455" lon="-2.7240467"><ele>767.0</ele><time>2026-04-25T08:36:44.057Z</time></trkpt><trkpt lat="37.512295" lon="-2.724325"><ele>767.0</ele><time>2026-04-25T08:36:45.061Z</time></trkpt><trkpt lat="37.51214" lon="-2.7246033"><ele>770.0</ele><time>2026-04-25T08:36:46.06Z</time></trkpt><trkpt lat="37.511985" lon="-2.7248833"><ele>773.0</ele><time>2026-04-25T08:36:47.06Z</time></trkpt><trkpt lat="37.51183" lon="-2.7251617"><ele>773.0</ele><time>2026-04-25T08:36:48.065Z</time></trkpt><trkpt lat="37.5116767" lon="-2.72544"><ele>773.0</ele><time>2026-04-25T08:36:49.063Z</time></trkpt><trkpt lat="37.5115217" lon="-2.7257167"><ele>773.0</ele><time>2026-04-25T08:36:50.07Z</time></trkpt><trkpt lat="37.5113683" lon="-2.7259933"><ele>773.0</ele><time>2026-04-25T08:36:51.061Z</time></trkpt><trkpt lat="37.5112133" lon="-2.7262717"><ele>774.5</ele><time>2026-04-25T08:36:52.06Z</time></trkpt><trkpt lat="37.5110583" lon="-2.7265533"><ele>776.0</ele><time>2026-04-25T08:36:53.063Z</time></trkpt><trkpt lat="37.5109033" lon="-2.7268333"><ele>776.0</ele><time>2026-04-25T08:36:54.058Z</time></trkpt><trkpt lat="37.510745" lon="-2.727115"><ele>776.0</ele><time>2026-04-25T08:36:55.062Z</time></trkpt><trkpt lat="37.5105867" lon="-2.7273983"><ele>776.0</ele><time>2026-04-25T08:36:56.069Z</time></trkpt><trkpt lat="37.510425" lon="-2.7276833"><ele>776.0</ele><time>2026-04-25T08:36:57.06Z</time></trkpt><trkpt lat="37.510265" lon="-2.7279683"><ele>775.5</ele><time>2026-04-25T08:36:58.063Z</time></trkpt><trkpt lat="37.510105" lon="-2.7282533"><ele>775.0</ele><time>2026-04-25T08:36:59.065Z</time></trkpt><trkpt lat="37.509945" lon="-2.7285383"><ele>776.0</ele><time>2026-04-25T08:37:00.07Z</time></trkpt><trkpt lat="37.5097867" lon="-2.728825"><ele>777.0</ele><time>2026-04-25T08:37:01.06Z</time></trkpt><trkpt lat="37.5096283" lon="-2.72911"><ele>777.5</ele><time>2026-04-25T08:37:02.062Z</time></trkpt><trkpt lat="37.50947" lon="-2.7293933"><ele>778.0</ele><time>2026-04-25T08:37:03.063Z</time></trkpt><trkpt lat="37.5093117" lon="-2.7296783"><ele>778.0</ele><time>2026-04-25T08:37:04.063Z</time></trkpt><trkpt lat="37.509155" lon="-2.72996"><ele>778.0</ele><time>2026-04-25T08:37:05.058Z</time></trkpt><trkpt lat="37.509" lon="-2.7302417"><ele>778.0</ele><time>2026-04-25T08:37:06.06Z</time></trkpt><trkpt lat="37.508845" lon="-2.7305217"><ele>778.0</ele><time>2026-04-25T08:37:07.063Z</time></trkpt><trkpt lat="37.50869" lon="-2.7307983"><ele>778.5</ele><time>2026-04-25T08:37:08.066Z</time></trkpt><trkpt lat="37.5085367" lon="-2.731075"><ele>779.0</ele><time>2026-04-25T08:37:09.065Z</time></trkpt><trkpt lat="37.5083833" lon="-2.7313517"><ele>779.0</ele><time>2026-04-25T08:37:10.061Z</time></trkpt><trkpt lat="37.50823" lon="-2.7316267"><ele>779.0</ele><time>2026-04-25T08:37:11.061Z</time></trkpt><trkpt lat="37.5080767" lon="-2.7319033"><ele>780.0</ele><time>2026-04-25T08:37:12.067Z</time></trkpt><trkpt lat="37.5079217" lon="-2.73218"><ele>781.0</ele><time>2026-04-25T08:37:13.066Z</time></trkpt><trkpt lat="37.5077667" lon="-2.73246"><ele>782.5</ele><time>2026-04-25T08:37:14.064Z</time></trkpt><trkpt lat="37.5076117" lon="-2.7327433"><ele>784.0</ele><time>2026-04-25T08:37:15.064Z</time></trkpt><trkpt lat="37.5074567" lon="-2.7330267"><ele>784.0</ele><time>2026-04-25T08:37:16.063Z</time></trkpt><trkpt lat="37.5073033" lon="-2.7333133"><ele>784.0</ele><time>2026-04-25T08:37:17.065Z</time></trkpt><trkpt lat="37.5071517" lon="-2.7336"><ele>784.5</ele><time>2026-04-25T08:37:18.068Z</time></trkpt><trkpt lat="37.507" lon="-2.7338933"><ele>785.0</ele><time>2026-04-25T08:37:19.061Z</time></trkpt><trkpt lat="37.506855" lon="-2.7341883"><ele>784.5</ele><time>2026-04-25T08:37:20.06Z</time></trkpt><trkpt lat="37.506715" lon="-2.73449"><ele>784.0</ele><time>2026-04-25T08:37:21.064Z</time></trkpt><trkpt lat="37.5065783" lon="-2.7347917"><ele>784.0</ele><time>2026-04-25T08:37:22.06Z</time></trkpt><trkpt lat="37.506445" lon="-2.7350983"><ele>784.0</ele><time>2026-04-25T08:37:23.067Z</time></trkpt><trkpt lat="37.5063183" lon="-2.7354067"><ele>784.5</ele><time>2026-04-25T08:37:24.064Z</time></trkpt><trkpt lat="37.5061983" lon="-2.73572"><ele>785.0</ele><time>2026-04-25T08:37:25.064Z</time></trkpt><trkpt lat="37.5060867" lon="-2.73604"><ele>785.5</ele><time>2026-04-25T08:37:26.065Z</time></trkpt><trkpt lat="37.5059867" lon="-2.7363633"><ele>786.0</ele><time>2026-04-25T08:37:27.062Z</time></trkpt><trkpt lat="37.505895" lon="-2.7366867"><ele>786.0</ele><time>2026-04-25T08:37:28.062Z</time></trkpt><trkpt lat="37.5058117" lon="-2.737015"><ele>786.0</ele><time>2026-04-25T08:37:29.059Z</time></trkpt><trkpt lat="37.5057333" lon="-2.737345"><ele>786.0</ele><time>2026-04-25T08:37:30.063Z</time></trkpt><trkpt lat="37.5056617" lon="-2.7376783"><ele>786.0</ele><time>2026-04-25T08:37:31.06Z</time></trkpt><trkpt lat="37.5055967" lon="-2.7380117"><ele>786.5</ele><time>2026-04-25T08:37:32.07Z</time></trkpt><trkpt lat="37.5055383" lon="-2.7383483"><ele>787.0</ele><time>2026-04-25T08:37:33.062Z</time></trkpt><trkpt lat="37.505485" lon="-2.7386883"><ele>787.5</ele><time>2026-04-25T08:37:34.066Z</time></trkpt><trkpt lat="37.50544" lon="-2.73903"><ele>788.0</ele><time>2026-04-25T08:37:35.066Z</time></trkpt><trkpt lat="37.5054067" lon="-2.739375"><ele>788.0</ele><time>2026-04-25T08:37:36.061Z</time></trkpt><trkpt lat="37.5053783" lon="-2.7397267"><ele>788.0</ele><time>2026-04-25T08:37:37.066Z</time></trkpt><trkpt lat="37.50536" lon="-2.7400767"><ele>787.5</ele><time>2026-04-25T08:37:38.063Z</time></trkpt><trkpt lat="37.5053533" lon="-2.74043"><ele>787.0</ele><time>2026-04-25T08:37:39.061Z</time></trkpt><trkpt lat="37.5053533" lon="-2.740785"><ele>787.0</ele><time>2026-04-25T08:37:40.061Z</time></trkpt><trkpt lat="37.5053633" lon="-2.7411383"><ele>787.0</ele><time>2026-04-25T08:37:41.066Z</time></trkpt><trkpt lat="37.50538" lon="-2.7414917"><ele>787.0</ele><time>2026-04-25T08:37:42.063Z</time></trkpt><trkpt lat="37.5054017" lon="-2.7418417"><ele>787.0</ele><time>2026-04-25T08:37:43.057Z</time></trkpt><trkpt lat="37.5054267" lon="-2.7421933"><ele>788.0</ele><time>2026-04-25T08:37:44.063Z</time></trkpt><trkpt lat="37.5054533" lon="-2.7425433"><ele>789.0</ele><time>2026-04-25T08:37:45.062Z</time></trkpt><trkpt lat="37.505485" lon="-2.7428933"><ele>789.0</ele><time>2026-04-25T08:37:46.063Z</time></trkpt><trkpt lat="37.50552" lon="-2.743245"><ele>789.0</ele><time>2026-04-25T08:37:47.061Z</time></trkpt><trkpt lat="37.5055567" lon="-2.7435983"><ele>788.0</ele><time>2026-04-25T08:37:48.061Z</time></trkpt><trkpt lat="37.5055933" lon="-2.743955"><ele>787.0</ele><time>2026-04-25T08:37:49.059Z</time></trkpt><trkpt lat="37.50563" lon="-2.744315"><ele>787.0</ele><time>2026-04-25T08:37:50.062Z</time></trkpt><trkpt lat="37.505665" lon="-2.744675"><ele>787.0</ele><time>2026-04-25T08:37:51.065Z</time></trkpt><trkpt lat="37.5057" lon="-2.7450383"><ele>787.0</ele><time>2026-04-25T08:37:52.063Z</time></trkpt><trkpt lat="37.505735" lon="-2.7454033"><ele>787.0</ele><time>2026-04-25T08:37:53.064Z</time></trkpt><trkpt lat="37.5057667" lon="-2.74577"><ele>786.0</ele><time>2026-04-25T08:37:54.063Z</time></trkpt><trkpt lat="37.5057967" lon="-2.7461367"><ele>785.0</ele><time>2026-04-25T08:37:55.063Z</time></trkpt><trkpt lat="37.5058217" lon="-2.746505"><ele>785.0</ele><time>2026-04-25T08:37:56.063Z</time></trkpt><trkpt lat="37.505845" lon="-2.7468733"><ele>785.0</ele><time>2026-04-25T08:37:57.065Z</time></trkpt><trkpt lat="37.5058633" lon="-2.7472467"><ele>785.0</ele><time>2026-04-25T08:37:58.063Z</time></trkpt><trkpt lat="37.5058767" lon="-2.7476167"><ele>785.0</ele><time>2026-04-25T08:37:59.062Z</time></trkpt><trkpt lat="37.5058867" lon="-2.7479883"><ele>785.0</ele><time>2026-04-25T08:38:00.063Z</time></trkpt><trkpt lat="37.5058917" lon="-2.74836"><ele>785.0</ele><time>2026-04-25T08:38:01.064Z</time></trkpt><trkpt lat="37.5058933" lon="-2.7487283"><ele>784.5</ele><time>2026-04-25T08:38:02.062Z</time></trkpt><trkpt lat="37.5058883" lon="-2.7490933"><ele>784.0</ele><time>2026-04-25T08:38:03.062Z</time></trkpt><trkpt lat="37.5058817" lon="-2.7494583"><ele>784.0</ele><time>2026-04-25T08:38:04.065Z</time></trkpt><trkpt lat="37.50587" lon="-2.7498233"><ele>784.0</ele><time>2026-04-25T08:38:05.063Z</time></trkpt><trkpt lat="37.5058517" lon="-2.7501917"><ele>783.5</ele><time>2026-04-25T08:38:06.066Z</time></trkpt><trkpt lat="37.5058283" lon="-2.750555"><ele>783.0</ele><time>2026-04-25T08:38:07.063Z</time></trkpt><trkpt lat="37.5058017" lon="-2.75092"><ele>784.0</ele><time>2026-04-25T08:38:08.061Z</time></trkpt><trkpt lat="37.5057733" lon="-2.751285"><ele>785.0</ele><time>2026-04-25T08:38:09.065Z</time></trkpt><trkpt lat="37.50574" lon="-2.75165"><ele>783.5</ele><time>2026-04-25T08:38:10.062Z</time></trkpt><trkpt lat="37.505705" lon="-2.7520167"><ele>782.0</ele><time>2026-04-25T08:38:11.058Z</time></trkpt><trkpt lat="37.505665" lon="-2.7523833"><ele>783.0</ele><time>2026-04-25T08:38:12.062Z</time></trkpt><trkpt lat="37.5056217" lon="-2.75275"><ele>784.0</ele><time>2026-04-25T08:38:13.063Z</time></trkpt><trkpt lat="37.505575" lon="-2.753115"><ele>784.0</ele><time>2026-04-25T08:38:14.06Z</time></trkpt><trkpt lat="37.5055267" lon="-2.75348"><ele>784.0</ele><time>2026-04-25T08:38:15.062Z</time></trkpt><trkpt lat="37.5054767" lon="-2.7538433"><ele>785.0</ele><time>2026-04-25T08:38:16.061Z</time></trkpt><trkpt lat="37.5054233" lon="-2.75421"><ele>786.0</ele><time>2026-04-25T08:38:17.064Z</time></trkpt><trkpt lat="37.5053683" lon="-2.7545733"><ele>786.0</ele><time>2026-04-25T08:38:18.068Z</time></trkpt><trkpt lat="37.505315" lon="-2.7549383"><ele>786.0</ele><time>2026-04-25T08:38:19.063Z</time></trkpt><trkpt lat="37.50526" lon="-2.7553017"><ele>785.5</ele><time>2026-04-25T08:38:20.07Z</time></trkpt><trkpt lat="37.505205" lon="-2.7556633"><ele>785.0</ele><time>2026-04-25T08:38:21.065Z</time></trkpt><trkpt lat="37.5051467" lon="-2.7560233"><ele>785.5</ele><time>2026-04-25T08:38:22.062Z</time></trkpt><trkpt lat="37.5050867" lon="-2.7563817"><ele>786.0</ele><time>2026-04-25T08:38:23.063Z</time></trkpt><trkpt lat="37.5050233" lon="-2.7567367"><ele>786.0</ele><time>2026-04-25T08:38:24.072Z</time></trkpt><trkpt lat="37.5049667" lon="-2.7570867"><ele>786.0</ele><time>2026-04-25T08:38:25.063Z</time></trkpt><trkpt lat="37.5049067" lon="-2.7574383"><ele>785.5</ele><time>2026-04-25T08:38:26.062Z</time></trkpt><trkpt lat="37.504845" lon="-2.75779"><ele>785.0</ele><time>2026-04-25T08:38:27.058Z</time></trkpt><trkpt lat="37.5047833" lon="-2.7581417"><ele>785.0</ele><time>2026-04-25T08:38:28.062Z</time></trkpt><trkpt lat="37.5047233" lon="-2.7584933"><ele>785.0</ele><time>2026-04-25T08:38:29.062Z</time></trkpt><trkpt lat="37.50467" lon="-2.7588433"><ele>785.5</ele><time>2026-04-25T08:38:30.066Z</time></trkpt><trkpt lat="37.5046183" lon="-2.7591967"><ele>786.0</ele><time>2026-04-25T08:38:31.062Z</time></trkpt><trkpt lat="37.504575" lon="-2.7595467"><ele>786.0</ele><time>2026-04-25T08:38:32.064Z</time></trkpt><trkpt lat="37.5045317" lon="-2.7598967"><ele>786.0</ele><time>2026-04-25T08:38:33.061Z</time></trkpt><trkpt lat="37.504495" lon="-2.760245"><ele>786.0</ele><time>2026-04-25T08:38:34.063Z</time></trkpt><trkpt lat="37.5044617" lon="-2.7605933"><ele>786.0</ele><time>2026-04-25T08:38:35.06Z</time></trkpt><trkpt lat="37.504435" lon="-2.7609383"><ele>786.0</ele><time>2026-04-25T08:38:36.063Z</time></trkpt><trkpt lat="37.5044117" lon="-2.7612833"><ele>786.0</ele><time>2026-04-25T08:38:37.06Z</time></trkpt><trkpt lat="37.504395" lon="-2.76163"><ele>786.0</ele><time>2026-04-25T08:38:38.063Z</time></trkpt><trkpt lat="37.5043867" lon="-2.7619767"><ele>786.0</ele><time>2026-04-25T08:38:39.059Z</time></trkpt><trkpt lat="37.5043867" lon="-2.7623233"><ele>786.0</ele><time>2026-04-25T08:38:40.061Z</time></trkpt><trkpt lat="37.50439" lon="-2.7626717"><ele>786.0</ele><time>2026-04-25T08:38:41.062Z</time></trkpt><trkpt lat="37.5044083" lon="-2.76302"><ele>787.0</ele><time>2026-04-25T08:38:42.063Z</time></trkpt><trkpt lat="37.5044383" lon="-2.7633667"><ele>788.0</ele><time>2026-04-25T08:38:43.062Z</time></trkpt><trkpt lat="37.504475" lon="-2.7637133"><ele>788.5</ele><time>2026-04-25T08:38:44.063Z</time></trkpt><trkpt lat="37.5045217" lon="-2.764055"><ele>789.0</ele><time>2026-04-25T08:38:45.06Z</time></trkpt><trkpt lat="37.5045783" lon="-2.7643933"><ele>789.5</ele><time>2026-04-25T08:38:46.064Z</time></trkpt><trkpt lat="37.5046417" lon="-2.76473"><ele>790.0</ele><time>2026-04-25T08:38:47.067Z</time></trkpt><trkpt lat="37.504715" lon="-2.7650633"><ele>792.0</ele><time>2026-04-25T08:38:48.061Z</time></trkpt><trkpt lat="37.5047967" lon="-2.765395"><ele>794.0</ele><time>2026-04-25T08:38:49.062Z</time></trkpt><trkpt lat="37.5048833" lon="-2.765725"><ele>795.5</ele><time>2026-04-25T08:38:50.061Z</time></trkpt><trkpt lat="37.5049767" lon="-2.766055"><ele>797.0</ele><time>2026-04-25T08:38:51.066Z</time></trkpt><trkpt lat="37.50508" lon="-2.7663817"><ele>797.0</ele><time>2026-04-25T08:38:52.061Z</time></trkpt><trkpt lat="37.505195" lon="-2.7667017"><ele>797.0</ele><time>2026-04-25T08:38:53.068Z</time></trkpt><trkpt lat="37.5053167" lon="-2.767015"><ele>797.5</ele><time>2026-04-25T08:38:54.06Z</time></trkpt><trkpt lat="37.5054467" lon="-2.7673217"><ele>798.0</ele><time>2026-04-25T08:38:55.065Z</time></trkpt><trkpt lat="37.505585" lon="-2.7676217"><ele>799.0</ele><time>2026-04-25T08:38:56.061Z</time></trkpt><trkpt lat="37.5057333" lon="-2.76792"><ele>800.0</ele><time>2026-04-25T08:38:57.061Z</time></trkpt><trkpt lat="37.5058883" lon="-2.7682133"><ele>800.0</ele><time>2026-04-25T08:38:58.059Z</time></trkpt><trkpt lat="37.5060517" lon="-2.7685017"><ele>800.0</ele><time>2026-04-25T08:38:59.063Z</time></trkpt><trkpt lat="37.50622" lon="-2.7687883"><ele>802.5</ele><time>2026-04-25T08:39:00.06Z</time></trkpt><trkpt lat="37.5063883" lon="-2.7690767"><ele>805.0</ele><time>2026-04-25T08:39:01.058Z</time></trkpt><trkpt lat="37.5065583" lon="-2.7693633"><ele>806.0</ele><time>2026-04-25T08:39:02.064Z</time></trkpt><trkpt lat="37.5067317" lon="-2.7696483"><ele>807.0</ele><time>2026-04-25T08:39:03.062Z</time></trkpt><trkpt lat="37.5069067" lon="-2.7699333"><ele>810.0</ele><time>2026-04-25T08:39:04.061Z</time></trkpt><trkpt lat="37.5070817" lon="-2.7702167"><ele>813.0</ele><time>2026-04-25T08:39:05.064Z</time></trkpt><trkpt lat="37.5072567" lon="-2.7705033"><ele>813.0</ele><time>2026-04-25T08:39:06.064Z</time></trkpt><trkpt lat="37.5074283" lon="-2.7707917"><ele>813.0</ele><time>2026-04-25T08:39:07.062Z</time></trkpt><trkpt lat="37.5076" lon="-2.77108"><ele>813.5</ele><time>2026-04-25T08:39:08.058Z</time></trkpt><trkpt lat="37.5077667" lon="-2.7713617"><ele>814.0</ele><time>2026-04-25T08:39:09.062Z</time></trkpt><trkpt lat="37.5079233" lon="-2.771645"><ele>817.5</ele><time>2026-04-25T08:39:10.061Z</time></trkpt><trkpt lat="37.5080767" lon="-2.7719317"><ele>821.0</ele><time>2026-04-25T08:39:11.064Z</time></trkpt><trkpt lat="37.5082267" lon="-2.7722217"><ele>821.0</ele><time>2026-04-25T08:39:12.068Z</time></trkpt><trkpt lat="37.5083767" lon="-2.77251"><ele>821.0</ele><time>2026-04-25T08:39:13.066Z</time></trkpt><trkpt lat="37.5085333" lon="-2.7727967"><ele>823.0</ele><time>2026-04-25T08:39:14.07Z</time></trkpt><trkpt lat="37.5086883" lon="-2.7730867"><ele>825.0</ele><time>2026-04-25T08:39:15.061Z</time></trkpt><trkpt lat="37.5088433" lon="-2.7733783"><ele>826.0</ele><time>2026-04-25T08:39:16.064Z</time></trkpt><trkpt lat="37.509" lon="-2.7736717"><ele>827.0</ele><time>2026-04-25T08:39:17.057Z</time></trkpt><trkpt lat="37.509155" lon="-2.77397"><ele>827.0</ele><time>2026-04-25T08:39:18.061Z</time></trkpt><trkpt lat="37.5093083" lon="-2.7742717"><ele>827.0</ele><time>2026-04-25T08:39:19.065Z</time></trkpt><trkpt lat="37.5094583" lon="-2.77458"><ele>828.0</ele><time>2026-04-25T08:39:20.061Z</time></trkpt><trkpt lat="37.509605" lon="-2.77489"><ele>829.0</ele><time>2026-04-25T08:39:21.063Z</time></trkpt><trkpt lat="37.5097467" lon="-2.775205"><ele>829.0</ele><time>2026-04-25T08:39:22.06Z</time></trkpt><trkpt lat="37.509885" lon="-2.775525"><ele>829.0</ele><time>2026-04-25T08:39:23.072Z</time></trkpt><trkpt lat="37.51002" lon="-2.7758467"><ele>829.0</ele><time>2026-04-25T08:39:24.059Z</time></trkpt><trkpt lat="37.5101517" lon="-2.7761683"><ele>829.0</ele><time>2026-04-25T08:39:25.062Z</time></trkpt><trkpt lat="37.5102817" lon="-2.7764917"><ele>827.5</ele><time>2026-04-25T08:39:26.06Z</time></trkpt><trkpt lat="37.51041" lon="-2.7768167"><ele>826.0</ele><time>2026-04-25T08:39:27.059Z</time></trkpt><trkpt lat="37.510535" lon="-2.7771417"><ele>826.0</ele><time>2026-04-25T08:39:28.063Z</time></trkpt><trkpt lat="37.5106567" lon="-2.7774683"><ele>826.0</ele><time>2026-04-25T08:39:29.061Z</time></trkpt><trkpt lat="37.5107767" lon="-2.777795"><ele>828.0</ele><time>2026-04-25T08:39:30.062Z</time></trkpt><trkpt lat="37.510895" lon="-2.7781233"><ele>830.0</ele><time>2026-04-25T08:39:31.068Z</time></trkpt><trkpt lat="37.51101" lon="-2.7784533"><ele>831.5</ele><time>2026-04-25T08:39:32.064Z</time></trkpt><trkpt lat="37.5111233" lon="-2.7787867"><ele>833.0</ele><time>2026-04-25T08:39:33.065Z</time></trkpt><trkpt lat="37.5112383" lon="-2.7791217"><ele>833.5</ele><time>2026-04-25T08:39:34.061Z</time></trkpt><trkpt lat="37.5113533" lon="-2.779455"><ele>834.0</ele><time>2026-04-25T08:39:35.064Z</time></trkpt><trkpt lat="37.5114667" lon="-2.7797933"><ele>834.0</ele><time>2026-04-25T08:39:36.067Z</time></trkpt><trkpt lat="37.5115817" lon="-2.7801317"><ele>834.0</ele><time>2026-04-25T08:39:37.06Z</time></trkpt><trkpt lat="37.511695" lon="-2.7804683"><ele>835.0</ele><time>2026-04-25T08:39:38.064Z</time></trkpt><trkpt lat="37.5118083" lon="-2.7808083"><ele>836.0</ele><time>2026-04-25T08:39:39.062Z</time></trkpt><trkpt lat="37.5119233" lon="-2.7811483"><ele>836.5</ele><time>2026-04-25T08:39:40.067Z</time></trkpt><trkpt lat="37.51204" lon="-2.7814883"><ele>837.0</ele><time>2026-04-25T08:39:41.065Z</time></trkpt><trkpt lat="37.51216" lon="-2.78183"><ele>838.5</ele><time>2026-04-25T08:39:42.065Z</time></trkpt><trkpt lat="37.5122783" lon="-2.7821717"><ele>840.0</ele><time>2026-04-25T08:39:43.066Z</time></trkpt><trkpt lat="37.5124" lon="-2.7825117"><ele>841.5</ele><time>2026-04-25T08:39:44.059Z</time></trkpt><trkpt lat="37.5125267" lon="-2.78285"><ele>843.0</ele><time>2026-04-25T08:39:45.063Z</time></trkpt><trkpt lat="37.5126533" lon="-2.783185"><ele>843.0</ele><time>2026-04-25T08:39:46.062Z</time></trkpt><trkpt lat="37.5127817" lon="-2.78352"><ele>843.0</ele><time>2026-04-25T08:39:47.061Z</time></trkpt><trkpt lat="37.51291" lon="-2.783855"><ele>843.0</ele><time>2026-04-25T08:39:48.07Z</time></trkpt><trkpt lat="37.51304" lon="-2.7841867"><ele>843.0</ele><time>2026-04-25T08:39:49.065Z</time></trkpt><trkpt lat="37.51318" lon="-2.7845167"><ele>843.0</ele><time>2026-04-25T08:39:50.06Z</time></trkpt><trkpt lat="37.5133183" lon="-2.7848467"><ele>843.0</ele><time>2026-04-25T08:39:51.061Z</time></trkpt><trkpt lat="37.5134533" lon="-2.7851783"><ele>844.0</ele><time>2026-04-25T08:39:52.058Z</time></trkpt><trkpt lat="37.5135833" lon="-2.7855117"><ele>845.0</ele><time>2026-04-25T08:39:53.062Z</time></trkpt><trkpt lat="37.51371" lon="-2.7858467"><ele>844.0</ele><time>2026-04-25T08:39:54.062Z</time></trkpt><trkpt lat="37.5138383" lon="-2.7861817"><ele>843.0</ele><time>2026-04-25T08:39:55.063Z</time></trkpt><trkpt lat="37.5139633" lon="-2.78652"><ele>844.0</ele><time>2026-04-25T08:39:56.064Z</time></trkpt><trkpt lat="37.5140883" lon="-2.786855"><ele>845.0</ele><time>2026-04-25T08:39:57.063Z</time></trkpt><trkpt lat="37.514215" lon="-2.7871917"><ele>845.0</ele><time>2026-04-25T08:39:58.066Z</time></trkpt><trkpt lat="37.5143367" lon="-2.7875267"><ele>845.0</ele><time>2026-04-25T08:39:59.061Z</time></trkpt><trkpt lat="37.514455" lon="-2.787865"><ele>846.0</ele><time>2026-04-25T08:40:00.063Z</time></trkpt><trkpt lat="37.5145683" lon="-2.7882067"><ele>847.0</ele><time>2026-04-25T08:40:01.063Z</time></trkpt><trkpt lat="37.514675" lon="-2.78855"><ele>850.0</ele><time>2026-04-25T08:40:02.062Z</time></trkpt><trkpt lat="37.514775" lon="-2.7888933"><ele>853.0</ele><time>2026-04-25T08:40:03.065Z</time></trkpt><trkpt lat="37.5148733" lon="-2.7892417"><ele>854.0</ele><time>2026-04-25T08:40:04.065Z</time></trkpt><trkpt lat="37.5149667" lon="-2.78959"><ele>855.0</ele><time>2026-04-25T08:40:05.058Z</time></trkpt><trkpt lat="37.5150567" lon="-2.7899417"><ele>855.5</ele><time>2026-04-25T08:40:06.063Z</time></trkpt><trkpt lat="37.51514" lon="-2.790295"><ele>856.0</ele><time>2026-04-25T08:40:07.064Z</time></trkpt><trkpt lat="37.5152183" lon="-2.7906483"><ele>856.0</ele><time>2026-04-25T08:40:08.065Z</time></trkpt><trkpt lat="37.5152883" lon="-2.7910033"><ele>856.0</ele><time>2026-04-25T08:40:09.06Z</time></trkpt><trkpt lat="37.5153534" lon="-2.7913608"><ele>856.0</ele><time>2026-04-25T08:40:10.06Z</time></trkpt><trkpt lat="37.5154111" lon="-2.7917203"><ele>856.0</ele><time>2026-04-25T08:40:11.062Z</time></trkpt><trkpt lat="37.5154583" lon="-2.7920819"><ele>857.0</ele><time>2026-04-25T08:40:12.061Z</time></trkpt><trkpt lat="37.5154986" lon="-2.7924434"><ele>858.0</ele><time>2026-04-25T08:40:13.065Z</time></trkpt><trkpt lat="37.5155335" lon="-2.7928023"><ele>860.0</ele><time>2026-04-25T08:40:14.062Z</time></trkpt><trkpt lat="37.5155587" lon="-2.7931607"><ele>862.0</ele><time>2026-04-25T08:40:15.061Z</time></trkpt><trkpt lat="37.5155739" lon="-2.7935174"><ele>862.5</ele><time>2026-04-25T08:40:16.06Z</time></trkpt><trkpt lat="37.515579" lon="-2.793874"><ele>863.0</ele><time>2026-04-25T08:40:17.062Z</time></trkpt><trkpt lat="37.5155775" lon="-2.7942286"><ele>866.5</ele><time>2026-04-25T08:40:18.062Z</time></trkpt><trkpt lat="37.5155684" lon="-2.7945818"><ele>870.0</ele><time>2026-04-25T08:40:19.06Z</time></trkpt><trkpt lat="37.5155524" lon="-2.7949315"><ele>870.5</ele><time>2026-04-25T08:40:20.062Z</time></trkpt><trkpt lat="37.5155286" lon="-2.7952788"><ele>871.0</ele><time>2026-04-25T08:40:21.06Z</time></trkpt><trkpt lat="37.5154976" lon="-2.7956236"><ele>871.0</ele><time>2026-04-25T08:40:22.063Z</time></trkpt><trkpt lat="37.5154575" lon="-2.7959674"><ele>871.0</ele><time>2026-04-25T08:40:23.066Z</time></trkpt><trkpt lat="37.5154101" lon="-2.7963082"><ele>878.0</ele><time>2026-04-25T08:40:24.062Z</time></trkpt><trkpt lat="37.5153558" lon="-2.7966474"><ele>885.0</ele><time>2026-04-25T08:40:25.063Z</time></trkpt><trkpt lat="37.5152948" lon="-2.7969873"><ele>885.0</ele><time>2026-04-25T08:40:26.063Z</time></trkpt><trkpt lat="37.5152258" lon="-2.7973259"><ele>885.0</ele><time>2026-04-25T08:40:27.065Z</time></trkpt><trkpt lat="37.5151452" lon="-2.7976608"><ele>887.5</ele><time>2026-04-25T08:40:28.061Z</time></trkpt><trkpt lat="37.5150571" lon="-2.7979963"><ele>890.0</ele><time>2026-04-25T08:40:29.066Z</time></trkpt><trkpt lat="37.5149621" lon="-2.7983215"><ele>898.0</ele><time>2026-04-25T08:40:30.061Z</time></trkpt><trkpt lat="37.5148623" lon="-2.7986429"><ele>906.0</ele><time>2026-04-25T08:40:31.064Z</time></trkpt><trkpt lat="37.5147588" lon="-2.7989591"><ele>906.0</ele><time>2026-04-25T08:40:32.06Z</time></trkpt><trkpt lat="37.5146498" lon="-2.7992669"><ele>906.0</ele><time>2026-04-25T08:40:33.061Z</time></trkpt><trkpt lat="37.5145366" lon="-2.7995725"><ele>904.0</ele><time>2026-04-25T08:40:34.061Z</time></trkpt><trkpt lat="37.514417" lon="-2.7998785"><ele>902.0</ele><time>2026-04-25T08:40:35.059Z</time></trkpt><trkpt lat="37.5142885" lon="-2.8001807"><ele>909.5</ele><time>2026-04-25T08:40:36.06Z</time></trkpt><trkpt lat="37.5141505" lon="-2.8004752"><ele>917.0</ele><time>2026-04-25T08:40:37.059Z</time></trkpt><trkpt lat="37.5140038" lon="-2.8007653"><ele>915.0</ele><time>2026-04-25T08:40:38.061Z</time></trkpt><trkpt lat="37.5138484" lon="-2.8010529"><ele>913.0</ele><time>2026-04-25T08:40:39.063Z</time></trkpt><trkpt lat="37.5136835" lon="-2.8013376"><ele>913.0</ele><time>2026-04-25T08:40:40.061Z</time></trkpt><trkpt lat="37.5135097" lon="-2.8016207"><ele>913.0</ele><time>2026-04-25T08:40:41.062Z</time></trkpt><trkpt lat="37.5133283" lon="-2.801895"><ele>920.5</ele><time>2026-04-25T08:40:42.059Z</time></trkpt><trkpt lat="37.5131433" lon="-2.8021667"><ele>928.0</ele><time>2026-04-25T08:40:43.062Z</time></trkpt><trkpt lat="37.5129483" lon="-2.80243"><ele>926.0</ele><time>2026-04-25T08:40:44.061Z</time></trkpt><trkpt lat="37.512745" lon="-2.8026867"><ele>924.0</ele><time>2026-04-25T08:40:45.065Z</time></trkpt><trkpt lat="37.5125333" lon="-2.80294"><ele>924.0</ele><time>2026-04-25T08:40:46.064Z</time></trkpt><trkpt lat="37.5123167" lon="-2.80318"><ele>924.0</ele><time>2026-04-25T08:40:47.063Z</time></trkpt><trkpt lat="37.5120967" lon="-2.8034183"><ele>924.5</ele><time>2026-04-25T08:40:48.064Z</time></trkpt><trkpt lat="37.511875" lon="-2.8036483"><ele>925.0</ele><time>2026-04-25T08:40:49.061Z</time></trkpt><trkpt lat="37.5116517" lon="-2.8038733"><ele>925.0</ele><time>2026-04-25T08:40:50.064Z</time></trkpt><trkpt lat="37.51143" lon="-2.804095"><ele>925.0</ele><time>2026-04-25T08:40:51.064Z</time></trkpt><trkpt lat="37.5112067" lon="-2.8043083"><ele>928.5</ele><time>2026-04-25T08:40:52.06Z</time></trkpt><trkpt lat="37.51098" lon="-2.8045183"><ele>932.0</ele><time>2026-04-25T08:40:53.063Z</time></trkpt><trkpt lat="37.51075" lon="-2.8047217"><ele>932.0</ele><time>2026-04-25T08:40:54.067Z</time></trkpt><trkpt lat="37.51052" lon="-2.80492"><ele>932.0</ele><time>2026-04-25T08:40:55.064Z</time></trkpt><trkpt lat="37.5102867" lon="-2.805105"><ele>937.0</ele><time>2026-04-25T08:40:56.065Z</time></trkpt><trkpt lat="37.5100517" lon="-2.805285"><ele>942.0</ele><time>2026-04-25T08:40:57.063Z</time></trkpt><trkpt lat="37.5098183" lon="-2.8054583"><ele>942.0</ele><time>2026-04-25T08:40:58.062Z</time></trkpt><trkpt lat="37.5095833" lon="-2.80563"><ele>942.0</ele><time>2026-04-25T08:40:59.06Z</time></trkpt><trkpt lat="37.5093517" lon="-2.8058"><ele>945.0</ele><time>2026-04-25T08:41:00.06Z</time></trkpt><trkpt lat="37.50912" lon="-2.8059667"><ele>948.0</ele><time>2026-04-25T08:41:01.058Z</time></trkpt><trkpt lat="37.50889" lon="-2.806125"><ele>951.5</ele><time>2026-04-25T08:41:02.06Z</time></trkpt><trkpt lat="37.50866" lon="-2.8062833"><ele>955.0</ele><time>2026-04-25T08:41:03.064Z</time></trkpt><trkpt lat="37.5084317" lon="-2.806435"><ele>955.0</ele><time>2026-04-25T08:41:04.061Z</time></trkpt><trkpt lat="37.5082083" lon="-2.8065867"><ele>955.0</ele><time>2026-04-25T08:41:05.059Z</time></trkpt><trkpt lat="37.5079833" lon="-2.806735"><ele>960.5</ele><time>2026-04-25T08:41:06.061Z</time></trkpt><trkpt lat="37.5077583" lon="-2.806885"><ele>966.0</ele><time>2026-04-25T08:41:07.064Z</time></trkpt><trkpt lat="37.507535" lon="-2.8070333"><ele>966.0</ele><time>2026-04-25T08:41:08.061Z</time></trkpt><trkpt lat="37.50731" lon="-2.8071833"><ele>966.0</ele><time>2026-04-25T08:41:09.062Z</time></trkpt><trkpt lat="37.5070867" lon="-2.807335"><ele>965.0</ele><time>2026-04-25T08:41:10.062Z</time></trkpt><trkpt lat="37.506865" lon="-2.8074883"><ele>964.0</ele><time>2026-04-25T08:41:11.062Z</time></trkpt><trkpt lat="37.50664" lon="-2.8076417"><ele>966.0</ele><time>2026-04-25T08:41:12.062Z</time></trkpt><trkpt lat="37.5064117" lon="-2.8077967"><ele>968.0</ele><time>2026-04-25T08:41:13.061Z</time></trkpt><trkpt lat="37.50618" lon="-2.807955"><ele>968.0</ele><time>2026-04-25T08:41:14.061Z</time></trkpt><trkpt lat="37.505945" lon="-2.808115"><ele>968.0</ele><time>2026-04-25T08:41:15.061Z</time></trkpt><trkpt lat="37.50571" lon="-2.8082817"><ele>968.0</ele><time>2026-04-25T08:41:16.062Z</time></trkpt><trkpt lat="37.5054717" lon="-2.8084533"><ele>968.0</ele><time>2026-04-25T08:41:17.06Z</time></trkpt><trkpt lat="37.5052283" lon="-2.8086233"><ele>970.5</ele><time>2026-04-25T08:41:18.062Z</time></trkpt><trkpt lat="37.5049833" lon="-2.808795"><ele>973.0</ele><time>2026-04-25T08:41:19.06Z</time></trkpt><trkpt lat="37.5047383" lon="-2.8089717"><ele>976.0</ele><time>2026-04-25T08:41:20.06Z</time></trkpt><trkpt lat="37.5044917" lon="-2.8091467"><ele>979.0</ele><time>2026-04-25T08:41:21.063Z</time></trkpt><trkpt lat="37.504245" lon="-2.809325"><ele>979.5</ele><time>2026-04-25T08:41:22.061Z</time></trkpt><trkpt lat="37.5040017" lon="-2.80951"><ele>980.0</ele><time>2026-04-25T08:41:23.06Z</time></trkpt><trkpt lat="37.5037567" lon="-2.809695"><ele>982.0</ele><time>2026-04-25T08:41:24.067Z</time></trkpt><trkpt lat="37.5035133" lon="-2.8098833"><ele>984.0</ele><time>2026-04-25T08:41:25.058Z</time></trkpt><trkpt lat="37.50327" lon="-2.810075"><ele>985.5</ele><time>2026-04-25T08:41:26.064Z</time></trkpt><trkpt lat="37.5030283" lon="-2.8102667"><ele>987.0</ele><time>2026-04-25T08:41:27.059Z</time></trkpt><trkpt lat="37.5027883" lon="-2.8104617"><ele>990.5</ele><time>2026-04-25T08:41:28.064Z</time></trkpt><trkpt lat="37.50255" lon="-2.81066"><ele>994.0</ele><time>2026-04-25T08:41:29.062Z</time></trkpt><trkpt lat="37.5023117" lon="-2.8108583"><ele>996.0</ele><time>2026-04-25T08:41:30.063Z</time></trkpt><trkpt lat="37.5020717" lon="-2.8110567"><ele>998.0</ele><time>2026-04-25T08:41:31.066Z</time></trkpt><trkpt lat="37.5018333" lon="-2.8112567"><ele>998.0</ele><time>2026-04-25T08:41:32.06Z</time></trkpt><trkpt lat="37.501595" lon="-2.8114583"><ele>998.0</ele><time>2026-04-25T08:41:33.059Z</time></trkpt><trkpt lat="37.5013617" lon="-2.811665"><ele>999.5</ele><time>2026-04-25T08:41:34.065Z</time></trkpt><trkpt lat="37.501135" lon="-2.811885"><ele>1001.0</ele><time>2026-04-25T08:41:35.059Z</time></trkpt><trkpt lat="37.5009133" lon="-2.8121117"><ele>1001.0</ele><time>2026-04-25T08:41:36.058Z</time></trkpt><trkpt lat="37.500695" lon="-2.8123433"><ele>1001.0</ele><time>2026-04-25T08:41:37.063Z</time></trkpt><trkpt lat="37.5004783" lon="-2.8125717"><ele>1002.5</ele><time>2026-04-25T08:41:38.058Z</time></trkpt><trkpt lat="37.5002667" lon="-2.8128033"><ele>1004.0</ele><time>2026-04-25T08:41:39.067Z</time></trkpt><trkpt lat="37.5000583" lon="-2.8130367"><ele>1004.0</ele><time>2026-04-25T08:41:40.063Z</time></trkpt><trkpt lat="37.4998533" lon="-2.8132717"><ele>1004.0</ele><time>2026-04-25T08:41:41.063Z</time></trkpt><trkpt lat="37.4996533" lon="-2.8135033"><ele>1006.0</ele><time>2026-04-25T08:41:42.062Z</time></trkpt><trkpt lat="37.499455" lon="-2.8137367"><ele>1008.0</ele><time>2026-04-25T08:41:43.064Z</time></trkpt><trkpt lat="37.4992617" lon="-2.8139717"><ele>1008.0</ele><time>2026-04-25T08:41:44.063Z</time></trkpt><trkpt lat="37.49907" lon="-2.81421"><ele>1008.0</ele><time>2026-04-25T08:41:45.062Z</time></trkpt><trkpt lat="37.4988833" lon="-2.81445"><ele>1009.5</ele><time>2026-04-25T08:41:46.063Z</time></trkpt><trkpt lat="37.4987" lon="-2.8146967"><ele>1011.0</ele><time>2026-04-25T08:41:47.061Z</time></trkpt><trkpt lat="37.4985217" lon="-2.8149467"><ele>1011.0</ele><time>2026-04-25T08:41:48.061Z</time></trkpt><trkpt lat="37.4983467" lon="-2.8152"><ele>1011.0</ele><time>2026-04-25T08:41:49.062Z</time></trkpt><trkpt lat="37.498175" lon="-2.81546"><ele>1011.0</ele><time>2026-04-25T08:41:50.062Z</time></trkpt><trkpt lat="37.4980067" lon="-2.8157217"><ele>1011.0</ele><time>2026-04-25T08:41:51.065Z</time></trkpt><trkpt lat="37.4978383" lon="-2.8159883"><ele>1013.5</ele><time>2026-04-25T08:41:52.062Z</time></trkpt><trkpt lat="37.4976717" lon="-2.81626"><ele>1016.0</ele><time>2026-04-25T08:41:53.057Z</time></trkpt><trkpt lat="37.4975083" lon="-2.8165383"><ele>1016.0</ele><time>2026-04-25T08:41:54.059Z</time></trkpt><trkpt lat="37.4973483" lon="-2.8168217"><ele>1016.0</ele><time>2026-04-25T08:41:55.062Z</time></trkpt><trkpt lat="37.4971917" lon="-2.81711"><ele>1016.5</ele><time>2026-04-25T08:41:56.063Z</time></trkpt><trkpt lat="37.4970383" lon="-2.8174"><ele>1017.0</ele><time>2026-04-25T08:41:57.063Z</time></trkpt><trkpt lat="37.4968883" lon="-2.817695"><ele>1017.0</ele><time>2026-04-25T08:41:58.066Z</time></trkpt><trkpt lat="37.4967433" lon="-2.817995"><ele>1017.0</ele><time>2026-04-25T08:41:59.063Z</time></trkpt><trkpt lat="37.4966033" lon="-2.8182983"><ele>1016.5</ele><time>2026-04-25T08:42:00.067Z</time></trkpt><trkpt lat="37.4964667" lon="-2.8186067"><ele>1016.0</ele><time>2026-04-25T08:42:01.062Z</time></trkpt><trkpt lat="37.496335" lon="-2.8189183"><ele>1017.0</ele><time>2026-04-25T08:42:02.061Z</time></trkpt><trkpt lat="37.4962083" lon="-2.8192367"><ele>1018.0</ele><time>2026-04-25T08:42:03.06Z</time></trkpt><trkpt lat="37.496085" lon="-2.819555"><ele>1018.5</ele><time>2026-04-25T08:42:04.067Z</time></trkpt><trkpt lat="37.495965" lon="-2.8198783"><ele>1019.0</ele><time>2026-04-25T08:42:05.063Z</time></trkpt><trkpt lat="37.4958483" lon="-2.8202017"><ele>1019.0</ele><time>2026-04-25T08:42:06.065Z</time></trkpt><trkpt lat="37.495735" lon="-2.8205283"><ele>1019.0</ele><time>2026-04-25T08:42:07.062Z</time></trkpt><trkpt lat="37.495625" lon="-2.8208583"><ele>1019.0</ele><time>2026-04-25T08:42:08.068Z</time></trkpt><trkpt lat="37.4955183" lon="-2.82119"><ele>1019.0</ele><time>2026-04-25T08:42:09.064Z</time></trkpt><trkpt lat="37.4954117" lon="-2.8215233"><ele>1019.0</ele><time>2026-04-25T08:42:10.063Z</time></trkpt><trkpt lat="37.4953083" lon="-2.82186"><ele>1019.0</ele><time>2026-04-25T08:42:11.062Z</time></trkpt><trkpt lat="37.4952083" lon="-2.8221983"><ele>1019.0</ele><time>2026-04-25T08:42:12.061Z</time></trkpt><trkpt lat="37.49511" lon="-2.8225383"><ele>1019.0</ele><time>2026-04-25T08:42:13.067Z</time></trkpt><trkpt lat="37.49501" lon="-2.8228817"><ele>1018.5</ele><time>2026-04-25T08:42:14.06Z</time></trkpt><trkpt lat="37.4949083" lon="-2.8232283"><ele>1018.0</ele><time>2026-04-25T08:42:15.062Z</time></trkpt><trkpt lat="37.4948033" lon="-2.8235767"><ele>1019.0</ele><time>2026-04-25T08:42:16.063Z</time></trkpt><trkpt lat="37.4947017" lon="-2.8239267"><ele>1020.0</ele><time>2026-04-25T08:42:17.063Z</time></trkpt><trkpt lat="37.4946033" lon="-2.82428"><ele>1021.5</ele><time>2026-04-25T08:42:18.059Z</time></trkpt><trkpt lat="37.4945083" lon="-2.8246367"><ele>1023.0</ele><time>2026-04-25T08:42:19.06Z</time></trkpt><trkpt lat="37.4944183" lon="-2.8249917"><ele>1023.5</ele><time>2026-04-25T08:42:20.063Z</time></trkpt><trkpt lat="37.49433" lon="-2.8253467"><ele>1024.0</ele><time>2026-04-25T08:42:21.06Z</time></trkpt><trkpt lat="37.494245" lon="-2.8257033"><ele>1024.0</ele><time>2026-04-25T08:42:22.061Z</time></trkpt><trkpt lat="37.49416" lon="-2.82606"><ele>1024.0</ele><time>2026-04-25T08:42:23.062Z</time></trkpt><trkpt lat="37.494075" lon="-2.8264167"><ele>1024.0</ele><time>2026-04-25T08:42:24.065Z</time></trkpt><trkpt lat="37.4939895" lon="-2.8267729"><ele>1024.0</ele><time>2026-04-25T08:42:25.062Z</time></trkpt><trkpt lat="37.4939054" lon="-2.8271291"><ele>1025.0</ele><time>2026-04-25T08:42:26.067Z</time></trkpt><trkpt lat="37.4938232" lon="-2.8274848"><ele>1026.0</ele><time>2026-04-25T08:42:27.063Z</time></trkpt><trkpt lat="37.4937403" lon="-2.8278428"><ele>1027.0</ele><time>2026-04-25T08:42:28.063Z</time></trkpt><trkpt lat="37.4936593" lon="-2.8282014"><ele>1028.0</ele><time>2026-04-25T08:42:29.06Z</time></trkpt><trkpt lat="37.4935753" lon="-2.8285606"><ele>1028.0</ele><time>2026-04-25T08:42:30.066Z</time></trkpt><trkpt lat="37.4934907" lon="-2.8289185"><ele>1028.0</ele><time>2026-04-25T08:42:31.066Z</time></trkpt><trkpt lat="37.4934046" lon="-2.8292766"><ele>1029.0</ele><time>2026-04-25T08:42:32.065Z</time></trkpt><trkpt lat="37.4933194" lon="-2.8296334"><ele>1030.0</ele><time>2026-04-25T08:42:33.064Z</time></trkpt><trkpt lat="37.4932344" lon="-2.8299887"><ele>1029.0</ele><time>2026-04-25T08:42:34.062Z</time></trkpt><trkpt lat="37.4931493" lon="-2.8303452"><ele>1028.0</ele><time>2026-04-25T08:42:35.063Z</time></trkpt><trkpt lat="37.4930641" lon="-2.8307031"><ele>1027.5</ele><time>2026-04-25T08:42:36.065Z</time></trkpt><trkpt lat="37.4929766" lon="-2.8310594"><ele>1027.0</ele><time>2026-04-25T08:42:37.062Z</time></trkpt><trkpt lat="37.4928898" lon="-2.8314144"><ele>1030.0</ele><time>2026-04-25T08:42:38.06Z</time></trkpt><trkpt lat="37.4928019" lon="-2.8317684"><ele>1033.0</ele><time>2026-04-25T08:42:39.061Z</time></trkpt><trkpt lat="37.4927185" lon="-2.8321246"><ele>1033.0</ele><time>2026-04-25T08:42:40.06Z</time></trkpt><trkpt lat="37.492634" lon="-2.8324815"><ele>1033.0</ele><time>2026-04-25T08:42:41.06Z</time></trkpt><trkpt lat="37.492548" lon="-2.8328383"><ele>1033.0</ele><time>2026-04-25T08:42:42.059Z</time></trkpt><trkpt lat="37.4924638" lon="-2.8331944"><ele>1033.0</ele><time>2026-04-25T08:42:43.065Z</time></trkpt><trkpt lat="37.4923781" lon="-2.8335485"><ele>1033.5</ele><time>2026-04-25T08:42:44.063Z</time></trkpt><trkpt lat="37.4922908" lon="-2.8339024"><ele>1034.0</ele><time>2026-04-25T08:42:45.063Z</time></trkpt><trkpt lat="37.4922036" lon="-2.8342557"><ele>1036.0</ele><time>2026-04-25T08:42:46.063Z</time></trkpt><trkpt lat="37.4921145" lon="-2.8346057"><ele>1038.0</ele><time>2026-04-25T08:42:47.064Z</time></trkpt><trkpt lat="37.4920284" lon="-2.8349549"><ele>1042.0</ele><time>2026-04-25T08:42:48.063Z</time></trkpt><trkpt lat="37.4919443" lon="-2.8353064"><ele>1046.0</ele><time>2026-04-25T08:42:49.062Z</time></trkpt><trkpt lat="37.4918607" lon="-2.8356587"><ele>1048.5</ele><time>2026-04-25T08:42:50.067Z</time></trkpt><trkpt lat="37.4917786" lon="-2.836011"><ele>1051.0</ele><time>2026-04-25T08:42:51.063Z</time></trkpt><trkpt lat="37.4916944" lon="-2.8363657"><ele>1051.0</ele><time>2026-04-25T08:42:52.063Z</time></trkpt><trkpt lat="37.4916095" lon="-2.8367201"><ele>1051.0</ele><time>2026-04-25T08:42:53.063Z</time></trkpt><trkpt lat="37.4915235" lon="-2.8370728"><ele>1054.0</ele><time>2026-04-25T08:42:54.059Z</time></trkpt><trkpt lat="37.4914365" lon="-2.8374269"><ele>1057.0</ele><time>2026-04-25T08:42:55.064Z</time></trkpt><trkpt lat="37.4913513" lon="-2.8377811"><ele>1058.5</ele><time>2026-04-25T08:42:56.059Z</time></trkpt><trkpt lat="37.4912662" lon="-2.8381365"><ele>1060.0</ele><time>2026-04-25T08:42:57.059Z</time></trkpt><trkpt lat="37.4911817" lon="-2.83849"><ele>1060.0</ele><time>2026-04-25T08:42:58.061Z</time></trkpt><trkpt lat="37.4910983" lon="-2.8388433"><ele>1060.0</ele><time>2026-04-25T08:42:59.062Z</time></trkpt><trkpt lat="37.4910117" lon="-2.8391983"><ele>1065.0</ele><time>2026-04-25T08:43:00.065Z</time></trkpt><trkpt lat="37.4909267" lon="-2.8395533"><ele>1070.0</ele><time>2026-04-25T08:43:01.061Z</time></trkpt><trkpt lat="37.4908383" lon="-2.8399083"><ele>1071.5</ele><time>2026-04-25T08:43:02.063Z</time></trkpt><trkpt lat="37.49075" lon="-2.8402633"><ele>1073.0</ele><time>2026-04-25T08:43:03.059Z</time></trkpt><trkpt lat="37.4906633" lon="-2.84062"><ele>1072.5</ele><time>2026-04-25T08:43:04.061Z</time></trkpt><trkpt lat="37.4905783" lon="-2.8409783"><ele>1072.0</ele><time>2026-04-25T08:43:05.061Z</time></trkpt><trkpt lat="37.490495" lon="-2.8413383"><ele>1068.0</ele><time>2026-04-25T08:43:06.062Z</time></trkpt><trkpt lat="37.490415" lon="-2.8416983"><ele>1064.0</ele><time>2026-04-25T08:43:07.063Z</time></trkpt><trkpt lat="37.49034" lon="-2.8420567"><ele>1064.0</ele><time>2026-04-25T08:43:08.062Z</time></trkpt><trkpt lat="37.4902667" lon="-2.842415"><ele>1064.0</ele><time>2026-04-25T08:43:09.062Z</time></trkpt><trkpt lat="37.4901967" lon="-2.84277"><ele>1066.5</ele><time>2026-04-25T08:43:10.06Z</time></trkpt><trkpt lat="37.49013" lon="-2.84312"><ele>1069.0</ele><time>2026-04-25T08:43:11.06Z</time></trkpt><trkpt lat="37.490065" lon="-2.8434667"><ele>1071.0</ele><time>2026-04-25T08:43:12.065Z</time></trkpt><trkpt lat="37.4900017" lon="-2.8438117"><ele>1073.0</ele><time>2026-04-25T08:43:13.07Z</time></trkpt><trkpt lat="37.4899367" lon="-2.84416"><ele>1075.0</ele><time>2026-04-25T08:43:14.071Z</time></trkpt><trkpt lat="37.4898667" lon="-2.84451"><ele>1077.0</ele><time>2026-04-25T08:43:15.064Z</time></trkpt><trkpt lat="37.4897917" lon="-2.84486"><ele>1078.0</ele><time>2026-04-25T08:43:16.065Z</time></trkpt><trkpt lat="37.48971" lon="-2.8452067"><ele>1079.0</ele><time>2026-04-25T08:43:17.063Z</time></trkpt><trkpt lat="37.4896233" lon="-2.8455517"><ele>1079.0</ele><time>2026-04-25T08:43:18.068Z</time></trkpt><trkpt lat="37.4895267" lon="-2.8458933"><ele>1079.0</ele><time>2026-04-25T08:43:19.068Z</time></trkpt><trkpt lat="37.4894133" lon="-2.846225"><ele>1079.0</ele><time>2026-04-25T08:43:20.065Z</time></trkpt><trkpt lat="37.4892817" lon="-2.846545"><ele>1079.0</ele><time>2026-04-25T08:43:21.067Z</time></trkpt><trkpt lat="37.4891317" lon="-2.8468533"><ele>1080.0</ele><time>2026-04-25T08:43:22.06Z</time></trkpt><trkpt lat="37.4889617" lon="-2.8471467"><ele>1081.0</ele><time>2026-04-25T08:43:23.06Z</time></trkpt><trkpt lat="37.4887783" lon="-2.8474317"><ele>1081.5</ele><time>2026-04-25T08:43:24.064Z</time></trkpt><trkpt lat="37.4885767" lon="-2.8477033"><ele>1082.0</ele><time>2026-04-25T08:43:25.058Z</time></trkpt><trkpt lat="37.4883583" lon="-2.8479583"><ele>1082.0</ele><time>2026-04-25T08:43:26.061Z</time></trkpt><trkpt lat="37.48813" lon="-2.8481967"><ele>1082.0</ele><time>2026-04-25T08:43:27.062Z</time></trkpt><trkpt lat="37.4878917" lon="-2.84841"><ele>1084.5</ele><time>2026-04-25T08:43:28.06Z</time></trkpt><trkpt lat="37.4876433" lon="-2.8486017"><ele>1087.0</ele><time>2026-04-25T08:43:29.063Z</time></trkpt><trkpt lat="37.4873883" lon="-2.848775"><ele>1087.0</ele><time>2026-04-25T08:43:30.06Z</time></trkpt><trkpt lat="37.4871333" lon="-2.84894"><ele>1087.0</ele><time>2026-04-25T08:43:31.062Z</time></trkpt><trkpt lat="37.486875" lon="-2.8491017"><ele>1088.0</ele><time>2026-04-25T08:43:32.062Z</time></trkpt><trkpt lat="37.4866217" lon="-2.8492683"><ele>1089.0</ele><time>2026-04-25T08:43:33.062Z</time></trkpt><trkpt lat="37.4863683" lon="-2.8494367"><ele>1090.0</ele><time>2026-04-25T08:43:34.061Z</time></trkpt><trkpt lat="37.4861133" lon="-2.8496067"><ele>1091.0</ele><time>2026-04-25T08:43:35.064Z</time></trkpt><trkpt lat="37.4858567" lon="-2.84978"><ele>1091.0</ele><time>2026-04-25T08:43:36.066Z</time></trkpt><trkpt lat="37.4856017" lon="-2.8499533"><ele>1091.0</ele><time>2026-04-25T08:43:37.061Z</time></trkpt><trkpt lat="37.485345" lon="-2.8501267"><ele>1091.0</ele><time>2026-04-25T08:43:38.063Z</time></trkpt><trkpt lat="37.4850883" lon="-2.850295"><ele>1091.0</ele><time>2026-04-25T08:43:39.064Z</time></trkpt><trkpt lat="37.4848283" lon="-2.8504633"><ele>1092.5</ele><time>2026-04-25T08:43:40.062Z</time></trkpt><trkpt lat="37.4845667" lon="-2.8506317"><ele>1094.0</ele><time>2026-04-25T08:43:41.063Z</time></trkpt><trkpt lat="37.4843067" lon="-2.8508033"><ele>1093.0</ele><time>2026-04-25T08:43:42.061Z</time></trkpt><trkpt lat="37.4840467" lon="-2.850975"><ele>1092.0</ele><time>2026-04-25T08:43:43.066Z</time></trkpt><trkpt lat="37.4837867" lon="-2.8511467"><ele>1093.5</ele><time>2026-04-25T08:43:44.065Z</time></trkpt><trkpt lat="37.4835267" lon="-2.8513183"><ele>1095.0</ele><time>2026-04-25T08:43:45.07Z</time></trkpt><trkpt lat="37.4832633" lon="-2.8514883"><ele>1095.0</ele><time>2026-04-25T08:43:46.063Z</time></trkpt><trkpt lat="37.4830017" lon="-2.85166"><ele>1095.0</ele><time>2026-04-25T08:43:47.062Z</time></trkpt><trkpt lat="37.4827383" lon="-2.8518283"><ele>1096.5</ele><time>2026-04-25T08:43:48.066Z</time></trkpt><trkpt lat="37.482475" lon="-2.8519983"><ele>1098.0</ele><time>2026-04-25T08:43:49.06Z</time></trkpt><trkpt lat="37.4822117" lon="-2.8521683"><ele>1100.0</ele><time>2026-04-25T08:43:50.065Z</time></trkpt><trkpt lat="37.48195" lon="-2.8523417"><ele>1102.0</ele><time>2026-04-25T08:43:51.059Z</time></trkpt><trkpt lat="37.4816867" lon="-2.852515"><ele>1102.0</ele><time>2026-04-25T08:43:52.059Z</time></trkpt><trkpt lat="37.4814267" lon="-2.85269"><ele>1102.0</ele><time>2026-04-25T08:43:53.061Z</time></trkpt><trkpt lat="37.481165" lon="-2.8528667"><ele>1102.0</ele><time>2026-04-25T08:43:54.06Z</time></trkpt><trkpt lat="37.4809033" lon="-2.85304"><ele>1102.0</ele><time>2026-04-25T08:43:55.063Z</time></trkpt><trkpt lat="37.4806417" lon="-2.8532133"><ele>1103.0</ele><time>2026-04-25T08:43:56.059Z</time></trkpt><trkpt lat="37.4803817" lon="-2.8533867"><ele>1104.0</ele><time>2026-04-25T08:43:57.062Z</time></trkpt><trkpt lat="37.4801233" lon="-2.8535617"><ele>1104.0</ele><time>2026-04-25T08:43:58.062Z</time></trkpt><trkpt lat="37.479865" lon="-2.853735"><ele>1104.0</ele><time>2026-04-25T08:43:59.061Z</time></trkpt><trkpt lat="37.4796067" lon="-2.8539083"><ele>1105.0</ele><time>2026-04-25T08:44:00.063Z</time></trkpt><trkpt lat="37.4793483" lon="-2.8540783"><ele>1106.0</ele><time>2026-04-25T08:44:01.063Z</time></trkpt><trkpt lat="37.4790917" lon="-2.8542483"><ele>1106.5</ele><time>2026-04-25T08:44:02.064Z</time></trkpt><trkpt lat="37.4788333" lon="-2.8544167"><ele>1107.0</ele><time>2026-04-25T08:44:03.06Z</time></trkpt><trkpt lat="37.478575" lon="-2.854585"><ele>1107.0</ele><time>2026-04-25T08:44:04.062Z</time></trkpt><trkpt lat="37.4783183" lon="-2.8547533"><ele>1107.0</ele><time>2026-04-25T08:44:05.059Z</time></trkpt><trkpt lat="37.478062" lon="-2.8549222"><ele>1107.5</ele><time>2026-04-25T08:44:06.062Z</time></trkpt><trkpt lat="37.4778078" lon="-2.8550942"><ele>1108.0</ele><time>2026-04-25T08:44:07.062Z</time></trkpt><trkpt lat="37.4775525" lon="-2.8552666"><ele>1107.0</ele><time>2026-04-25T08:44:08.067Z</time></trkpt><trkpt lat="37.4772981" lon="-2.855438"><ele>1106.0</ele><time>2026-04-25T08:44:09.063Z</time></trkpt><trkpt lat="37.4770429" lon="-2.8556111"><ele>1106.0</ele><time>2026-04-25T08:44:10.066Z</time></trkpt><trkpt lat="37.476787" lon="-2.8557841"><ele>1106.0</ele><time>2026-04-25T08:44:11.063Z</time></trkpt><trkpt lat="37.4765281" lon="-2.8559571"><ele>1104.5</ele><time>2026-04-25T08:44:12.071Z</time></trkpt><trkpt lat="37.4762711" lon="-2.8561268"><ele>1103.0</ele><time>2026-04-25T08:44:13.059Z</time></trkpt><trkpt lat="37.4760128" lon="-2.8562958"><ele>1103.0</ele><time>2026-04-25T08:44:14.061Z</time></trkpt><trkpt lat="37.4757532" lon="-2.8564655"><ele>1103.0</ele><time>2026-04-25T08:44:15.063Z</time></trkpt><trkpt lat="37.4754944" lon="-2.8566366"><ele>1102.5</ele><time>2026-04-25T08:44:16.065Z</time></trkpt><trkpt lat="37.4752355" lon="-2.8568095"><ele>1102.0</ele><time>2026-04-25T08:44:17.061Z</time></trkpt><trkpt lat="37.4749745" lon="-2.8569795"><ele>1102.0</ele><time>2026-04-25T08:44:18.069Z</time></trkpt><trkpt lat="37.4747161" lon="-2.8571488"><ele>1102.0</ele><time>2026-04-25T08:44:19.065Z</time></trkpt><trkpt lat="37.4744565" lon="-2.8573187"><ele>1103.0</ele><time>2026-04-25T08:44:20.064Z</time></trkpt><trkpt lat="37.474198" lon="-2.8574885"><ele>1104.0</ele><time>2026-04-25T08:44:21.062Z</time></trkpt><trkpt lat="37.4739421" lon="-2.8576582"><ele>1107.0</ele><time>2026-04-25T08:44:22.062Z</time></trkpt><trkpt lat="37.4736867" lon="-2.8578271"><ele>1110.0</ele><time>2026-04-25T08:44:23.065Z</time></trkpt><trkpt lat="37.4734352" lon="-2.8579925"><ele>1110.0</ele><time>2026-04-25T08:44:24.064Z</time></trkpt><trkpt lat="37.4731846" lon="-2.8581569"><ele>1110.0</ele><time>2026-04-25T08:44:25.06Z</time></trkpt><trkpt lat="37.4729341" lon="-2.8583233"><ele>1110.5</ele><time>2026-04-25T08:44:26.064Z</time></trkpt><trkpt lat="37.4726863" lon="-2.8584909"><ele>1111.0</ele><time>2026-04-25T08:44:27.063Z</time></trkpt><trkpt lat="37.4724356" lon="-2.8586579"><ele>1111.0</ele><time>2026-04-25T08:44:28.063Z</time></trkpt><trkpt lat="37.4721835" lon="-2.8588223"><ele>1111.0</ele><time>2026-04-25T08:44:29.062Z</time></trkpt><trkpt lat="37.4719304" lon="-2.858986"><ele>1112.0</ele><time>2026-04-25T08:44:30.061Z</time></trkpt><trkpt lat="37.4716795" lon="-2.8591504"><ele>1113.0</ele><time>2026-04-25T08:44:31.06Z</time></trkpt><trkpt lat="37.471428" lon="-2.8593166"><ele>1114.0</ele><time>2026-04-25T08:44:32.062Z</time></trkpt><trkpt lat="37.4711786" lon="-2.8594831"><ele>1115.0</ele><time>2026-04-25T08:44:33.058Z</time></trkpt><trkpt lat="37.4709269" lon="-2.8596504"><ele>1115.0</ele><time>2026-04-25T08:44:34.062Z</time></trkpt><trkpt lat="37.4706792" lon="-2.8598268"><ele>1115.0</ele><time>2026-04-25T08:44:35.06Z</time></trkpt><trkpt lat="37.4704398" lon="-2.8600194"><ele>1115.5</ele><time>2026-04-25T08:44:36.06Z</time></trkpt><trkpt lat="37.4702099" lon="-2.8602306"><ele>1116.0</ele><time>2026-04-25T08:44:37.069Z</time></trkpt><trkpt lat="37.469991" lon="-2.8604547"><ele>1116.0</ele><time>2026-04-25T08:44:38.061Z</time></trkpt><trkpt lat="37.4697805" lon="-2.8606949"><ele>1116.0</ele><time>2026-04-25T08:44:39.061Z</time></trkpt><trkpt lat="37.4695767" lon="-2.8609411"><ele>1115.5</ele><time>2026-04-25T08:44:40.062Z</time></trkpt><trkpt lat="37.4693746" lon="-2.8611903"><ele>1115.0</ele><time>2026-04-25T08:44:41.061Z</time></trkpt><trkpt lat="37.4691738" lon="-2.8614405"><ele>1115.0</ele><time>2026-04-25T08:44:42.063Z</time></trkpt><trkpt lat="37.4689726" lon="-2.8616903"><ele>1115.0</ele><time>2026-04-25T08:44:43.059Z</time></trkpt><trkpt lat="37.4687694" lon="-2.861942"><ele>1114.5</ele><time>2026-04-25T08:44:44.06Z</time></trkpt><trkpt lat="37.4685645" lon="-2.8621943"><ele>1114.0</ele><time>2026-04-25T08:44:45.063Z</time></trkpt><trkpt lat="37.4683606" lon="-2.8624474"><ele>1109.5</ele><time>2026-04-25T08:44:46.061Z</time></trkpt><trkpt lat="37.4681531" lon="-2.8627013"><ele>1105.0</ele><time>2026-04-25T08:44:47.064Z</time></trkpt><trkpt lat="37.4679451" lon="-2.862956"><ele>1104.0</ele><time>2026-04-25T08:44:48.059Z</time></trkpt><trkpt lat="37.4677374" lon="-2.8632126"><ele>1103.0</ele><time>2026-04-25T08:44:49.059Z</time></trkpt><trkpt lat="37.4675314" lon="-2.8634683"><ele>1103.0</ele><time>2026-04-25T08:44:50.065Z</time></trkpt><trkpt lat="37.4673273" lon="-2.8637186"><ele>1103.0</ele><time>2026-04-25T08:44:51.063Z</time></trkpt><trkpt lat="37.4671254" lon="-2.8639681"><ele>1105.5</ele><time>2026-04-25T08:44:52.065Z</time></trkpt><trkpt lat="37.4669254" lon="-2.8642138"><ele>1108.0</ele><time>2026-04-25T08:44:53.061Z</time></trkpt><trkpt lat="37.4667289" lon="-2.864459"><ele>1108.0</ele><time>2026-04-25T08:44:54.062Z</time></trkpt><trkpt lat="37.4665378" lon="-2.8646994"><ele>1108.0</ele><time>2026-04-25T08:44:55.063Z</time></trkpt><trkpt lat="37.4663488" lon="-2.8649407"><ele>1110.5</ele><time>2026-04-25T08:44:56.063Z</time></trkpt><trkpt lat="37.4661562" lon="-2.8651776"><ele>1113.0</ele><time>2026-04-25T08:44:57.064Z</time></trkpt><trkpt lat="37.4659574" lon="-2.8654097"><ele>1113.0</ele><time>2026-04-25T08:44:58.065Z</time></trkpt><trkpt lat="37.4657519" lon="-2.86564"><ele>1113.0</ele><time>2026-04-25T08:44:59.064Z</time></trkpt><trkpt lat="37.4655462" lon="-2.8658803"><ele>1113.0</ele><time>2026-04-25T08:45:00.066Z</time></trkpt><trkpt lat="37.4653354" lon="-2.8661279"><ele>1113.0</ele><time>2026-04-25T08:45:01.06Z</time></trkpt><trkpt lat="37.4651225" lon="-2.8663881"><ele>1113.0</ele><time>2026-04-25T08:45:02.062Z</time></trkpt><trkpt lat="37.4649065" lon="-2.866657"><ele>1113.0</ele><time>2026-04-25T08:45:03.061Z</time></trkpt><trkpt lat="37.4646891" lon="-2.8669296"><ele>1112.5</ele><time>2026-04-25T08:45:04.062Z</time></trkpt><trkpt lat="37.4644754" lon="-2.8672098"><ele>1112.0</ele><time>2026-04-25T08:45:05.061Z</time></trkpt><trkpt lat="37.4642627" lon="-2.8674926"><ele>1112.5</ele><time>2026-04-25T08:45:06.061Z</time></trkpt><trkpt lat="37.464047" lon="-2.8677766"><ele>1113.0</ele><time>2026-04-25T08:45:07.058Z</time></trkpt><trkpt lat="37.4638312" lon="-2.8680583"><ele>1115.5</ele><time>2026-04-25T08:45:08.062Z</time></trkpt><trkpt lat="37.4636145" lon="-2.8683336"><ele>1118.0</ele><time>2026-04-25T08:45:09.062Z</time></trkpt><trkpt lat="37.4633978" lon="-2.8686044"><ele>1118.0</ele><time>2026-04-25T08:45:10.063Z</time></trkpt><trkpt lat="37.463182" lon="-2.8688716"><ele>1118.0</ele><time>2026-04-25T08:45:11.065Z</time></trkpt><trkpt lat="37.4629662" lon="-2.8691364"><ele>1119.0</ele><time>2026-04-25T08:45:12.061Z</time></trkpt><trkpt lat="37.4627509" lon="-2.8694014"><ele>1120.0</ele><time>2026-04-25T08:45:13.063Z</time></trkpt><trkpt lat="37.4625358" lon="-2.8696676"><ele>1120.0</ele><time>2026-04-25T08:45:14.066Z</time></trkpt><trkpt lat="37.4623198" lon="-2.8699339"><ele>1120.0</ele><time>2026-04-25T08:45:15.064Z</time></trkpt><trkpt lat="37.4621044" lon="-2.8702006"><ele>1121.5</ele><time>2026-04-25T08:45:16.061Z</time></trkpt><trkpt lat="37.4618888" lon="-2.8704691"><ele>1123.0</ele><time>2026-04-25T08:45:17.063Z</time></trkpt><trkpt lat="37.46167" lon="-2.8707375"><ele>1123.0</ele><time>2026-04-25T08:45:18.061Z</time></trkpt><trkpt lat="37.4614486" lon="-2.8710065"><ele>1123.0</ele><time>2026-04-25T08:45:19.063Z</time></trkpt><trkpt lat="37.4612282" lon="-2.871275"><ele>1124.0</ele><time>2026-04-25T08:45:20.064Z</time></trkpt><trkpt lat="37.4610068" lon="-2.8715447"><ele>1125.0</ele><time>2026-04-25T08:45:21.064Z</time></trkpt><trkpt lat="37.4607851" lon="-2.8718148"><ele>1125.0</ele><time>2026-04-25T08:45:22.066Z</time></trkpt><trkpt lat="37.4605648" lon="-2.872087"><ele>1125.0</ele><time>2026-04-25T08:45:23.063Z</time></trkpt><trkpt lat="37.4603457" lon="-2.8723591"><ele>1126.5</ele><time>2026-04-25T08:45:24.066Z</time></trkpt><trkpt lat="37.4601264" lon="-2.8726304"><ele>1128.0</ele><time>2026-04-25T08:45:25.061Z</time></trkpt><trkpt lat="37.4599051" lon="-2.8729022"><ele>1128.0</ele><time>2026-04-25T08:45:26.062Z</time></trkpt><trkpt lat="37.4596845" lon="-2.8731742"><ele>1128.0</ele><time>2026-04-25T08:45:27.064Z</time></trkpt><trkpt lat="37.4594658" lon="-2.8734457"><ele>1129.0</ele><time>2026-04-25T08:45:28.059Z</time></trkpt><trkpt lat="37.4592469" lon="-2.8737177"><ele>1130.0</ele><time>2026-04-25T08:45:29.065Z</time></trkpt><trkpt lat="37.4590279" lon="-2.8739887"><ele>1130.0</ele><time>2026-04-25T08:45:30.06Z</time></trkpt><trkpt lat="37.4588086" lon="-2.8742594"><ele>1130.0</ele><time>2026-04-25T08:45:31.064Z</time></trkpt><trkpt lat="37.4585872" lon="-2.8745273"><ele>1131.5</ele><time>2026-04-25T08:45:32.06Z</time></trkpt><trkpt lat="37.4583652" lon="-2.8747987"><ele>1133.0</ele><time>2026-04-25T08:45:33.065Z</time></trkpt><trkpt lat="37.4581452" lon="-2.875071"><ele>1133.5</ele><time>2026-04-25T08:45:34.064Z</time></trkpt><trkpt lat="37.4579254" lon="-2.8753442"><ele>1134.0</ele><time>2026-04-25T08:45:35.062Z</time></trkpt><trkpt lat="37.4577054" lon="-2.8756165"><ele>1134.0</ele><time>2026-04-25T08:45:36.063Z</time></trkpt><trkpt lat="37.4574823" lon="-2.8758885"><ele>1134.0</ele><time>2026-04-25T08:45:37.07Z</time></trkpt><trkpt lat="37.4572597" lon="-2.8761563"><ele>1135.0</ele><time>2026-04-25T08:45:38.062Z</time></trkpt><trkpt lat="37.4570375" lon="-2.8764252"><ele>1136.0</ele><time>2026-04-25T08:45:39.07Z</time></trkpt><trkpt lat="37.4568161" lon="-2.8766897"><ele>1135.5</ele><time>2026-04-25T08:45:40.068Z</time></trkpt><trkpt lat="37.4565961" lon="-2.8769514"><ele>1135.0</ele><time>2026-04-25T08:45:41.066Z</time></trkpt><trkpt lat="37.4563791" lon="-2.8772109"><ele>1137.5</ele><time>2026-04-25T08:45:42.063Z</time></trkpt><trkpt lat="37.4561638" lon="-2.8774693"><ele>1140.0</ele><time>2026-04-25T08:45:43.061Z</time></trkpt><trkpt lat="37.4559487" lon="-2.8777284"><ele>1140.0</ele><time>2026-04-25T08:45:44.068Z</time></trkpt><trkpt lat="37.4557371" lon="-2.8779879"><ele>1140.0</ele><time>2026-04-25T08:45:45.068Z</time></trkpt><trkpt lat="37.4555251" lon="-2.8782461"><ele>1142.0</ele><time>2026-04-25T08:45:46.061Z</time></trkpt><trkpt lat="37.4553133" lon="-2.8785033"><ele>1144.0</ele><time>2026-04-25T08:45:47.062Z</time></trkpt><trkpt lat="37.4551" lon="-2.8787583"><ele>1144.0</ele><time>2026-04-25T08:45:48.061Z</time></trkpt><trkpt lat="37.4548883" lon="-2.8790133"><ele>1144.0</ele><time>2026-04-25T08:45:49.062Z</time></trkpt><trkpt lat="37.454675" lon="-2.87927"><ele>1145.0</ele><time>2026-04-25T08:45:50.061Z</time></trkpt><trkpt lat="37.4544633" lon="-2.879525"><ele>1146.0</ele><time>2026-04-25T08:45:51.061Z</time></trkpt><trkpt lat="37.4542517" lon="-2.8797817"><ele>1146.0</ele><time>2026-04-25T08:45:52.064Z</time></trkpt><trkpt lat="37.45404" lon="-2.8800367"><ele>1146.0</ele><time>2026-04-25T08:45:53.058Z</time></trkpt><trkpt lat="37.4538317" lon="-2.8802933"><ele>1146.0</ele><time>2026-04-25T08:45:54.058Z</time></trkpt><trkpt lat="37.4536217" lon="-2.88055"><ele>1146.0</ele><time>2026-04-25T08:45:55.061Z</time></trkpt><trkpt lat="37.4534083" lon="-2.8808033"><ele>1144.5</ele><time>2026-04-25T08:45:56.059Z</time></trkpt><trkpt lat="37.453195" lon="-2.8810583"><ele>1143.0</ele><time>2026-04-25T08:45:57.06Z</time></trkpt><trkpt lat="37.452985" lon="-2.881315"><ele>1144.5</ele><time>2026-04-25T08:45:58.059Z</time></trkpt><trkpt lat="37.4527783" lon="-2.8815717"><ele>1146.0</ele><time>2026-04-25T08:45:59.065Z</time></trkpt><trkpt lat="37.45257" lon="-2.8818283"><ele>1146.0</ele><time>2026-04-25T08:46:00.062Z</time></trkpt><trkpt lat="37.4523583" lon="-2.88208"><ele>1146.0</ele><time>2026-04-25T08:46:01.058Z</time></trkpt><trkpt lat="37.4521467" lon="-2.8823333"><ele>1146.5</ele><time>2026-04-25T08:46:02.063Z</time></trkpt><trkpt lat="37.4519383" lon="-2.8825867"><ele>1147.0</ele><time>2026-04-25T08:46:03.063Z</time></trkpt><trkpt lat="37.4517283" lon="-2.8828417"><ele>1147.0</ele><time>2026-04-25T08:46:04.061Z</time></trkpt><trkpt lat="37.4515167" lon="-2.8830983"><ele>1147.0</ele><time>2026-04-25T08:46:05.064Z</time></trkpt><trkpt lat="37.4513033" lon="-2.883355"><ele>1147.0</ele><time>2026-04-25T08:46:06.064Z</time></trkpt><trkpt lat="37.45109" lon="-2.8836133"><ele>1147.0</ele><time>2026-04-25T08:46:07.062Z</time></trkpt><trkpt lat="37.450875" lon="-2.88387"><ele>1147.0</ele><time>2026-04-25T08:46:08.061Z</time></trkpt><trkpt lat="37.45066" lon="-2.8841283"><ele>1147.0</ele><time>2026-04-25T08:46:09.061Z</time></trkpt><trkpt lat="37.450445" lon="-2.8843867"><ele>1147.5</ele><time>2026-04-25T08:46:10.061Z</time></trkpt><trkpt lat="37.4502317" lon="-2.884645"><ele>1148.0</ele><time>2026-04-25T08:46:11.064Z</time></trkpt><trkpt lat="37.4500167" lon="-2.8849033"><ele>1148.0</ele><time>2026-04-25T08:46:12.063Z</time></trkpt><trkpt lat="37.4498033" lon="-2.8851617"><ele>1148.0</ele><time>2026-04-25T08:46:13.065Z</time></trkpt><trkpt lat="37.44959" lon="-2.8854183"><ele>1148.0</ele><time>2026-04-25T08:46:14.06Z</time></trkpt><trkpt lat="37.449375" lon="-2.8856733"><ele>1148.0</ele><time>2026-04-25T08:46:15.061Z</time></trkpt><trkpt lat="37.4491617" lon="-2.8859283"><ele>1148.5</ele><time>2026-04-25T08:46:16.062Z</time></trkpt><trkpt lat="37.4489483" lon="-2.8861833"><ele>1149.0</ele><time>2026-04-25T08:46:17.061Z</time></trkpt><trkpt lat="37.4487383" lon="-2.88644"><ele>1149.0</ele><time>2026-04-25T08:46:18.066Z</time></trkpt><trkpt lat="37.44853" lon="-2.8866967"><ele>1149.0</ele><time>2026-04-25T08:46:19.063Z</time></trkpt><trkpt lat="37.44832" lon="-2.8869533"><ele>1148.0</ele><time>2026-04-25T08:46:20.063Z</time></trkpt><trkpt lat="37.4481117" lon="-2.8872067"><ele>1147.0</ele><time>2026-04-25T08:46:21.06Z</time></trkpt><trkpt lat="37.4479036" lon="-2.8874566"><ele>1146.0</ele><time>2026-04-25T08:46:22.059Z</time></trkpt><trkpt lat="37.4476955" lon="-2.8877058"><ele>1145.0</ele><time>2026-04-25T08:46:23.06Z</time></trkpt><trkpt lat="37.4474901" lon="-2.8879526"><ele>1145.0</ele><time>2026-04-25T08:46:24.061Z</time></trkpt><trkpt lat="37.4472868" lon="-2.8881963"><ele>1145.0</ele><time>2026-04-25T08:46:25.062Z</time></trkpt><trkpt lat="37.4470843" lon="-2.8884375"><ele>1148.0</ele><time>2026-04-25T08:46:26.059Z</time></trkpt><trkpt lat="37.446882" lon="-2.8886806"><ele>1151.0</ele><time>2026-04-25T08:46:27.063Z</time></trkpt><trkpt lat="37.4466819" lon="-2.8889247"><ele>1151.0</ele><time>2026-04-25T08:46:28.063Z</time></trkpt><trkpt lat="37.4464825" lon="-2.8891716"><ele>1151.0</ele><time>2026-04-25T08:46:29.062Z</time></trkpt><trkpt lat="37.4462779" lon="-2.889418"><ele>1151.0</ele><time>2026-04-25T08:46:30.062Z</time></trkpt><trkpt lat="37.4460713" lon="-2.8896663"><ele>1151.0</ele><time>2026-04-25T08:46:31.059Z</time></trkpt><trkpt lat="37.4458613" lon="-2.8899169"><ele>1151.0</ele><time>2026-04-25T08:46:32.063Z</time></trkpt><trkpt lat="37.4456513" lon="-2.8901683"><ele>1151.0</ele><time>2026-04-25T08:46:33.062Z</time></trkpt><trkpt lat="37.445442" lon="-2.8904204"><ele>1153.0</ele><time>2026-04-25T08:46:34.064Z</time></trkpt><trkpt lat="37.4452334" lon="-2.8906735"><ele>1155.0</ele><time>2026-04-25T08:46:35.062Z</time></trkpt><trkpt lat="37.4450247" lon="-2.8909277"><ele>1155.5</ele><time>2026-04-25T08:46:36.061Z</time></trkpt><trkpt lat="37.4448119" lon="-2.8911805"><ele>1156.0</ele><time>2026-04-25T08:46:37.063Z</time></trkpt><trkpt lat="37.4445981" lon="-2.8914341"><ele>1158.5</ele><time>2026-04-25T08:46:38.064Z</time></trkpt><trkpt lat="37.4443864" lon="-2.8916871"><ele>1161.0</ele><time>2026-04-25T08:46:39.06Z</time></trkpt><trkpt lat="37.4441776" lon="-2.8919419"><ele>1162.0</ele><time>2026-04-25T08:46:40.064Z</time></trkpt><trkpt lat="37.4439696" lon="-2.8921952"><ele>1163.0</ele><time>2026-04-25T08:46:41.063Z</time></trkpt><trkpt lat="37.4437617" lon="-2.8924482"><ele>1164.5</ele><time>2026-04-25T08:46:42.061Z</time></trkpt><trkpt lat="37.4435548" lon="-2.8927001"><ele>1166.0</ele><time>2026-04-25T08:46:43.062Z</time></trkpt><trkpt lat="37.443347" lon="-2.8929503"><ele>1166.0</ele><time>2026-04-25T08:46:44.06Z</time></trkpt><trkpt lat="37.4431381" lon="-2.8931979"><ele>1166.0</ele><time>2026-04-25T08:46:45.059Z</time></trkpt><trkpt lat="37.4429296" lon="-2.8934446"><ele>1168.0</ele><time>2026-04-25T08:46:46.058Z</time></trkpt><trkpt lat="37.4427212" lon="-2.8936914"><ele>1170.0</ele><time>2026-04-25T08:46:47.062Z</time></trkpt><trkpt lat="37.4425154" lon="-2.8939388"><ele>1170.0</ele><time>2026-04-25T08:46:48.061Z</time></trkpt><trkpt lat="37.4423105" lon="-2.8941856"><ele>1170.0</ele><time>2026-04-25T08:46:49.061Z</time></trkpt><trkpt lat="37.4421065" lon="-2.8944346"><ele>1174.0</ele><time>2026-04-25T08:46:50.061Z</time></trkpt><trkpt lat="37.4419015" lon="-2.8946836"><ele>1178.0</ele><time>2026-04-25T08:46:51.063Z</time></trkpt><trkpt lat="37.4416952" lon="-2.8949347"><ele>1178.0</ele><time>2026-04-25T08:46:52.063Z</time></trkpt><trkpt lat="37.4414858" lon="-2.8951866"><ele>1178.0</ele><time>2026-04-25T08:46:53.062Z</time></trkpt><trkpt lat="37.4412758" lon="-2.8954377"><ele>1181.0</ele><time>2026-04-25T08:46:54.064Z</time></trkpt><trkpt lat="37.4410667" lon="-2.8956917"><ele>1184.0</ele><time>2026-04-25T08:46:55.064Z</time></trkpt><trkpt lat="37.4408567" lon="-2.8959433"><ele>1184.0</ele><time>2026-04-25T08:46:56.062Z</time></trkpt><trkpt lat="37.440645" lon="-2.8961967"><ele>1184.0</ele><time>2026-04-25T08:46:57.061Z</time></trkpt><trkpt lat="37.4404333" lon="-2.89645"><ele>1185.5</ele><time>2026-04-25T08:46:58.058Z</time></trkpt><trkpt lat="37.4402233" lon="-2.896705"><ele>1187.0</ele><time>2026-04-25T08:46:59.063Z</time></trkpt><trkpt lat="37.4400117" lon="-2.8969583"><ele>1188.5</ele><time>2026-04-25T08:47:00.06Z</time></trkpt><trkpt lat="37.4398" lon="-2.8972133"><ele>1190.0</ele><time>2026-04-25T08:47:01.058Z</time></trkpt><trkpt lat="37.4395883" lon="-2.897465"><ele>1190.5</ele><time>2026-04-25T08:47:02.064Z</time></trkpt><trkpt lat="37.4393783" lon="-2.8977183"><ele>1191.0</ele><time>2026-04-25T08:47:03.061Z</time></trkpt><trkpt lat="37.4391683" lon="-2.8979717"><ele>1191.0</ele><time>2026-04-25T08:47:04.063Z</time></trkpt><trkpt lat="37.43896" lon="-2.898225"><ele>1191.0</ele><time>2026-04-25T08:47:05.064Z</time></trkpt><trkpt lat="37.4387533" lon="-2.8984783"><ele>1193.5</ele><time>2026-04-25T08:47:06.061Z</time></trkpt><trkpt lat="37.4385483" lon="-2.89873"><ele>1196.0</ele><time>2026-04-25T08:47:07.064Z</time></trkpt><trkpt lat="37.438345" lon="-2.8989767"><ele>1196.0</ele><time>2026-04-25T08:47:08.064Z</time></trkpt><trkpt lat="37.4381417" lon="-2.89922"><ele>1196.0</ele><time>2026-04-25T08:47:09.063Z</time></trkpt><trkpt lat="37.43794" lon="-2.8994633"><ele>1198.5</ele><time>2026-04-25T08:47:10.061Z</time></trkpt><trkpt lat="37.4377367" lon="-2.899705"><ele>1201.0</ele><time>2026-04-25T08:47:11.061Z</time></trkpt><trkpt lat="37.4375367" lon="-2.8999483"><ele>1199.5</ele><time>2026-04-25T08:47:12.066Z</time></trkpt><trkpt lat="37.4373367" lon="-2.90019"><ele>1198.0</ele><time>2026-04-25T08:47:13.062Z</time></trkpt><trkpt lat="37.4371367" lon="-2.9004317"><ele>1199.5</ele><time>2026-04-25T08:47:14.061Z</time></trkpt><trkpt lat="37.43694" lon="-2.9006683"><ele>1201.0</ele><time>2026-04-25T08:47:15.059Z</time></trkpt><trkpt lat="37.4367483" lon="-2.900905"><ele>1199.0</ele><time>2026-04-25T08:47:16.06Z</time></trkpt><trkpt lat="37.4365567" lon="-2.90114"><ele>1197.0</ele><time>2026-04-25T08:47:17.061Z</time></trkpt><trkpt lat="37.4363633" lon="-2.901375"><ele>1200.0</ele><time>2026-04-25T08:47:18.061Z</time></trkpt><trkpt lat="37.43617" lon="-2.9016067"><ele>1203.0</ele><time>2026-04-25T08:47:19.061Z</time></trkpt><trkpt lat="37.435975" lon="-2.9018383"><ele>1203.0</ele><time>2026-04-25T08:47:20.064Z</time></trkpt><trkpt lat="37.4357833" lon="-2.9020667"><ele>1203.0</ele><time>2026-04-25T08:47:21.061Z</time></trkpt><trkpt lat="37.4355967" lon="-2.9022933"><ele>1204.5</ele><time>2026-04-25T08:47:22.062Z</time></trkpt><trkpt lat="37.4354133" lon="-2.9025133"><ele>1206.0</ele><time>2026-04-25T08:47:23.063Z</time></trkpt><trkpt lat="37.435235" lon="-2.9027317"><ele>1206.0</ele><time>2026-04-25T08:47:24.063Z</time></trkpt><trkpt lat="37.4350617" lon="-2.9029483"><ele>1206.0</ele><time>2026-04-25T08:47:25.061Z</time></trkpt><trkpt lat="37.4348933" lon="-2.9031667"><ele>1206.0</ele><time>2026-04-25T08:47:26.062Z</time></trkpt><trkpt lat="37.4347283" lon="-2.9033867"><ele>1206.0</ele><time>2026-04-25T08:47:27.063Z</time></trkpt><trkpt lat="37.4345717" lon="-2.9036033"><ele>1206.0</ele><time>2026-04-25T08:47:28.061Z</time></trkpt><trkpt lat="37.434425" lon="-2.9038083"><ele>1206.0</ele><time>2026-04-25T08:47:29.066Z</time></trkpt><trkpt lat="37.434295" lon="-2.9039967"><ele>1206.0</ele><time>2026-04-25T08:47:30.059Z</time></trkpt><trkpt lat="37.4341783" lon="-2.9041683"><ele>1206.5</ele><time>2026-04-25T08:47:31.068Z</time></trkpt><trkpt lat="37.434075" lon="-2.9043217"><ele>1207.0</ele><time>2026-04-25T08:47:32.063Z</time></trkpt><trkpt lat="37.4339883" lon="-2.9044533"><ele>1207.5</ele><time>2026-04-25T08:47:33.059Z</time></trkpt><trkpt lat="37.433925" lon="-2.904555"><ele>1208.0</ele><time>2026-04-25T08:47:34.061Z</time></trkpt><trkpt lat="37.4338783" lon="-2.9046367"><ele>1208.0</ele><time>2026-04-25T08:47:35.062Z</time></trkpt><trkpt lat="37.4338517" lon="-2.90471"><ele>1208.0</ele><time>2026-04-25T08:47:36.063Z</time></trkpt><trkpt lat="37.4338433" lon="-2.904795"><ele>1208.0</ele><time>2026-04-25T08:47:38.06Z</time></trkpt><trkpt lat="37.4337967" lon="-2.90493"><ele>1208.0</ele><time>2026-04-25T08:53:09.061Z</time></trkpt><trkpt lat="37.4337567" lon="-2.9050567"><ele>1208.0</ele><time>2026-04-25T08:53:11.061Z</time></trkpt><trkpt lat="37.4337683" lon="-2.9051633"><ele>1208.0</ele><time>2026-04-25T08:53:13.06Z</time></trkpt><trkpt lat="37.433785" lon="-2.9052517"><ele>1208.75</ele><time>2026-04-25T08:53:16.062Z</time></trkpt><trkpt lat="37.4337183" lon="-2.90534"><ele>1209.5</ele><time>2026-04-25T09:14:24.057Z</time></trkpt><trkpt lat="37.43362" lon="-2.90541"><ele>1210.25</ele><time>2026-04-25T09:14:26.059Z</time></trkpt><trkpt lat="37.4335117" lon="-2.905485"><ele>1211.0</ele><time>2026-04-25T09:14:28.06Z</time></trkpt><trkpt lat="37.43339" lon="-2.9055183"><ele>1211.0</ele><time>2026-04-25T09:14:30.066Z</time></trkpt><trkpt lat="37.4332817" lon="-2.9055083"><ele>1211.0</ele><time>2026-04-25T09:14:32.059Z</time></trkpt><trkpt lat="37.4331717" lon="-2.9055383"><ele>1211.0</ele><time>2026-04-25T09:14:34.061Z</time></trkpt><trkpt lat="37.4331083" lon="-2.9056"><ele>1211.0</ele><time>2026-04-25T09:14:35.06Z</time></trkpt><trkpt lat="37.433045" lon="-2.905685"><ele>1211.0</ele><time>2026-04-25T09:14:36.06Z</time></trkpt><trkpt lat="37.43298" lon="-2.9057833"><ele>1211.5</ele><time>2026-04-25T09:14:37.06Z</time></trkpt><trkpt lat="37.432905" lon="-2.90589"><ele>1212.0</ele><time>2026-04-25T09:14:38.06Z</time></trkpt><trkpt lat="37.43282" lon="-2.9060067"><ele>1212.5</ele><time>2026-04-25T09:14:39.062Z</time></trkpt><trkpt lat="37.43273" lon="-2.9061333"><ele>1213.0</ele><time>2026-04-25T09:14:40.064Z</time></trkpt><trkpt lat="37.43263" lon="-2.9062767"><ele>1213.0</ele><time>2026-04-25T09:14:41.058Z</time></trkpt><trkpt lat="37.43252" lon="-2.9064317"><ele>1213.0</ele><time>2026-04-25T09:14:42.058Z</time></trkpt><trkpt lat="37.432395" lon="-2.9066"><ele>1213.0</ele><time>2026-04-25T09:14:43.06Z</time></trkpt><trkpt lat="37.4322617" lon="-2.9067783"><ele>1214.0</ele><time>2026-04-25T09:14:44.058Z</time></trkpt><trkpt lat="37.4321233" lon="-2.906965"><ele>1215.0</ele><time>2026-04-25T09:14:45.067Z</time></trkpt><trkpt lat="37.4319767" lon="-2.9071517"><ele>1216.0</ele><time>2026-04-25T09:14:46.065Z</time></trkpt><trkpt lat="37.431825" lon="-2.9073383"><ele>1216.0</ele><time>2026-04-25T09:14:47.06Z</time></trkpt><trkpt lat="37.43166" lon="-2.9075217"><ele>1216.0</ele><time>2026-04-25T09:14:48.062Z</time></trkpt><trkpt lat="37.4314833" lon="-2.9077"><ele>1216.0</ele><time>2026-04-25T09:14:49.061Z</time></trkpt><trkpt lat="37.4312917" lon="-2.90787"><ele>1214.5</ele><time>2026-04-25T09:14:50.071Z</time></trkpt><trkpt lat="37.43109" lon="-2.90803"><ele>1213.0</ele><time>2026-04-25T09:14:51.061Z</time></trkpt><trkpt lat="37.43088" lon="-2.9081817"><ele>1213.0</ele><time>2026-04-25T09:14:52.061Z</time></trkpt><trkpt lat="37.430665" lon="-2.9083233"><ele>1213.0</ele><time>2026-04-25T09:14:53.065Z</time></trkpt><trkpt lat="37.4304433" lon="-2.9084617"><ele>1211.0</ele><time>2026-04-25T09:14:54.061Z</time></trkpt><trkpt lat="37.4302167" lon="-2.9085983"><ele>1209.0</ele><time>2026-04-25T09:14:55.06Z</time></trkpt><trkpt lat="37.4299867" lon="-2.908735"><ele>1209.0</ele><time>2026-04-25T09:14:56.062Z</time></trkpt><trkpt lat="37.42976" lon="-2.9088817"><ele>1209.0</ele><time>2026-04-25T09:14:57.062Z</time></trkpt><trkpt lat="37.4295317" lon="-2.9090417"><ele>1210.0</ele><time>2026-04-25T09:14:58.057Z</time></trkpt><trkpt lat="37.4293033" lon="-2.9092167"><ele>1211.0</ele><time>2026-04-25T09:14:59.06Z</time></trkpt><trkpt lat="37.42908" lon="-2.90941"><ele>1211.0</ele><time>2026-04-25T09:15:00.061Z</time></trkpt><trkpt lat="37.42887" lon="-2.9096233"><ele>1211.0</ele><time>2026-04-25T09:15:01.063Z</time></trkpt><trkpt lat="37.4286717" lon="-2.9098517"><ele>1213.5</ele><time>2026-04-25T09:15:02.062Z</time></trkpt><trkpt lat="37.4284867" lon="-2.9100917"><ele>1216.0</ele><time>2026-04-25T09:15:03.06Z</time></trkpt><trkpt lat="37.4283133" lon="-2.910345"><ele>1216.0</ele><time>2026-04-25T09:15:04.062Z</time></trkpt><trkpt lat="37.42815" lon="-2.9106067"><ele>1216.0</ele><time>2026-04-25T09:15:05.062Z</time></trkpt><trkpt lat="37.4279967" lon="-2.9108767"><ele>1220.5</ele><time>2026-04-25T09:15:06.062Z</time></trkpt><trkpt lat="37.4278533" lon="-2.911155"><ele>1225.0</ele><time>2026-04-25T09:15:07.062Z</time></trkpt><trkpt lat="37.42771" lon="-2.9114333"><ele>1225.0</ele><time>2026-04-25T09:15:08.064Z</time></trkpt><trkpt lat="37.4275667" lon="-2.91171"><ele>1225.0</ele><time>2026-04-25T09:15:09.063Z</time></trkpt><trkpt lat="37.427415" lon="-2.9119783"><ele>1225.0</ele><time>2026-04-25T09:15:10.059Z</time></trkpt><trkpt lat="37.4272533" lon="-2.9122367"><ele>1225.0</ele><time>2026-04-25T09:15:11.062Z</time></trkpt><trkpt lat="37.4270833" lon="-2.9124867"><ele>1227.5</ele><time>2026-04-25T09:15:12.059Z</time></trkpt><trkpt lat="37.426905" lon="-2.9127267"><ele>1230.0</ele><time>2026-04-25T09:15:13.058Z</time></trkpt><trkpt lat="37.42672" lon="-2.912955"><ele>1230.0</ele><time>2026-04-25T09:15:14.065Z</time></trkpt><trkpt lat="37.4265233" lon="-2.9131733"><ele>1230.0</ele><time>2026-04-25T09:15:15.06Z</time></trkpt><trkpt lat="37.4263167" lon="-2.9133817"><ele>1232.0</ele><time>2026-04-25T09:15:16.061Z</time></trkpt><trkpt lat="37.4261" lon="-2.9135783"><ele>1234.0</ele><time>2026-04-25T09:15:17.06Z</time></trkpt><trkpt lat="37.425875" lon="-2.91376"><ele>1234.0</ele><time>2026-04-25T09:15:18.06Z</time></trkpt><trkpt lat="37.4256467" lon="-2.9139367"><ele>1234.0</ele><time>2026-04-25T09:15:19.059Z</time></trkpt><trkpt lat="37.425415" lon="-2.9141117"><ele>1232.5</ele><time>2026-04-25T09:15:20.062Z</time></trkpt><trkpt lat="37.4251817" lon="-2.9142833"><ele>1231.0</ele><time>2026-04-25T09:15:21.059Z</time></trkpt><trkpt lat="37.4249483" lon="-2.9144567"><ele>1231.0</ele><time>2026-04-25T09:15:22.064Z</time></trkpt><trkpt lat="37.424715" lon="-2.91463"><ele>1231.0</ele><time>2026-04-25T09:15:23.064Z</time></trkpt><trkpt lat="37.42448" lon="-2.9148017"><ele>1231.5</ele><time>2026-04-25T09:15:24.061Z</time></trkpt><trkpt lat="37.424245" lon="-2.9149733"><ele>1232.0</ele><time>2026-04-25T09:15:25.063Z</time></trkpt><trkpt lat="37.4240083" lon="-2.9151433"><ele>1236.5</ele><time>2026-04-25T09:15:26.061Z</time></trkpt><trkpt lat="37.4237717" lon="-2.915315"><ele>1241.0</ele><time>2026-04-25T09:15:27.062Z</time></trkpt><trkpt lat="37.4235333" lon="-2.9154867"><ele>1241.0</ele><time>2026-04-25T09:15:28.062Z</time></trkpt><trkpt lat="37.423295" lon="-2.9156567"><ele>1241.0</ele><time>2026-04-25T09:15:29.064Z</time></trkpt><trkpt lat="37.4230567" lon="-2.9158283"><ele>1243.5</ele><time>2026-04-25T09:15:30.062Z</time></trkpt><trkpt lat="37.42282" lon="-2.9160017"><ele>1246.0</ele><time>2026-04-25T09:15:31.058Z</time></trkpt><trkpt lat="37.4225817" lon="-2.91617"><ele>1246.0</ele><time>2026-04-25T09:15:32.061Z</time></trkpt><trkpt lat="37.4223417" lon="-2.91634"><ele>1246.0</ele><time>2026-04-25T09:15:33.057Z</time></trkpt><trkpt lat="37.4221" lon="-2.916505"><ele>1247.0</ele><time>2026-04-25T09:15:34.064Z</time></trkpt><trkpt lat="37.421855" lon="-2.9166583"><ele>1248.0</ele><time>2026-04-25T09:15:35.06Z</time></trkpt><trkpt lat="37.421605" lon="-2.9168"><ele>1248.0</ele><time>2026-04-25T09:15:36.063Z</time></trkpt><trkpt lat="37.4213517" lon="-2.9169217"><ele>1248.0</ele><time>2026-04-25T09:15:37.06Z</time></trkpt><trkpt lat="37.42109" lon="-2.91702"><ele>1248.0</ele><time>2026-04-25T09:15:38.062Z</time></trkpt><trkpt lat="37.4208217" lon="-2.91711"><ele>1248.0</ele><time>2026-04-25T09:15:39.06Z</time></trkpt><trkpt lat="37.420555" lon="-2.917195"><ele>1250.5</ele><time>2026-04-25T09:15:40.06Z</time></trkpt><trkpt lat="37.4202867" lon="-2.9172817"><ele>1253.0</ele><time>2026-04-25T09:15:41.059Z</time></trkpt><trkpt lat="37.4200183" lon="-2.9173683"><ele>1253.0</ele><time>2026-04-25T09:15:42.061Z</time></trkpt><trkpt lat="37.4197483" lon="-2.917455"><ele>1253.0</ele><time>2026-04-25T09:15:43.059Z</time></trkpt><trkpt lat="37.4194783" lon="-2.9175417"><ele>1253.0</ele><time>2026-04-25T09:15:44.06Z</time></trkpt><trkpt lat="37.4192067" lon="-2.9176283"><ele>1253.0</ele><time>2026-04-25T09:15:45.059Z</time></trkpt><trkpt lat="37.418935" lon="-2.917715"><ele>1254.5</ele><time>2026-04-25T09:15:46.062Z</time></trkpt><trkpt lat="37.4186617" lon="-2.9178033"><ele>1256.0</ele><time>2026-04-25T09:15:47.062Z</time></trkpt><trkpt lat="37.4183883" lon="-2.91789"><ele>1256.0</ele><time>2026-04-25T09:15:48.059Z</time></trkpt><trkpt lat="37.4181133" lon="-2.917975"><ele>1256.0</ele><time>2026-04-25T09:15:49.061Z</time></trkpt><trkpt lat="37.4178417" lon="-2.9180617"><ele>1257.0</ele><time>2026-04-25T09:15:50.062Z</time></trkpt><trkpt lat="37.4175683" lon="-2.9181467"><ele>1258.0</ele><time>2026-04-25T09:15:51.066Z</time></trkpt><trkpt lat="37.4172967" lon="-2.9182333"><ele>1257.5</ele><time>2026-04-25T09:15:52.059Z</time></trkpt><trkpt lat="37.4170233" lon="-2.9183167"><ele>1257.0</ele><time>2026-04-25T09:15:53.06Z</time></trkpt><trkpt lat="37.4167517" lon="-2.9184017"><ele>1257.0</ele><time>2026-04-25T09:15:54.064Z</time></trkpt><trkpt lat="37.4164817" lon="-2.918485"><ele>1257.0</ele><time>2026-04-25T09:15:55.067Z</time></trkpt><trkpt lat="37.4162133" lon="-2.91857"><ele>1258.5</ele><time>2026-04-25T09:15:56.058Z</time></trkpt><trkpt lat="37.4159467" lon="-2.918655"><ele>1260.0</ele><time>2026-04-25T09:15:57.063Z</time></trkpt><trkpt lat="37.4156783" lon="-2.9187367"><ele>1263.0</ele><time>2026-04-25T09:15:58.06Z</time></trkpt><trkpt lat="37.415415" lon="-2.91882"><ele>1266.0</ele><time>2026-04-25T09:15:59.06Z</time></trkpt><trkpt lat="37.415155" lon="-2.9188983"><ele>1266.0</ele><time>2026-04-25T09:16:00.064Z</time></trkpt><trkpt lat="37.4148933" lon="-2.9189717"><ele>1266.0</ele><time>2026-04-25T09:16:01.063Z</time></trkpt><trkpt lat="37.4146333" lon="-2.919035"><ele>1266.0</ele><time>2026-04-25T09:16:02.065Z</time></trkpt><trkpt lat="37.41437" lon="-2.9190833"><ele>1266.0</ele><time>2026-04-25T09:16:03.059Z</time></trkpt><trkpt lat="37.4141067" lon="-2.919115"><ele>1266.0</ele><time>2026-04-25T09:16:04.059Z</time></trkpt><trkpt lat="37.4138417" lon="-2.9191317"><ele>1266.0</ele><time>2026-04-25T09:16:05.062Z</time></trkpt><trkpt lat="37.4135767" lon="-2.91913"><ele>1264.5</ele><time>2026-04-25T09:16:06.062Z</time></trkpt><trkpt lat="37.4133133" lon="-2.9191167"><ele>1263.0</ele><time>2026-04-25T09:16:07.063Z</time></trkpt><trkpt lat="37.41305" lon="-2.9190883"><ele>1264.5</ele><time>2026-04-25T09:16:08.061Z</time></trkpt><trkpt lat="37.4127867" lon="-2.919045"><ele>1266.0</ele><time>2026-04-25T09:16:09.063Z</time></trkpt><trkpt lat="37.4125233" lon="-2.918995"><ele>1266.0</ele><time>2026-04-25T09:16:10.061Z</time></trkpt><trkpt lat="37.4122633" lon="-2.9189417"><ele>1266.0</ele><time>2026-04-25T09:16:11.062Z</time></trkpt><trkpt lat="37.4120017" lon="-2.918895"><ele>1266.0</ele><time>2026-04-25T09:16:12.064Z</time></trkpt><trkpt lat="37.41174" lon="-2.9188567"><ele>1266.0</ele><time>2026-04-25T09:16:13.066Z</time></trkpt><trkpt lat="37.41148" lon="-2.91883"><ele>1263.0</ele><time>2026-04-25T09:16:14.067Z</time></trkpt><trkpt lat="37.4112167" lon="-2.9188183"><ele>1260.0</ele><time>2026-04-25T09:16:15.06Z</time></trkpt><trkpt lat="37.4109533" lon="-2.9188233"><ele>1260.0</ele><time>2026-04-25T09:16:16.059Z</time></trkpt><trkpt lat="37.41069" lon="-2.9188433"><ele>1260.0</ele><time>2026-04-25T09:16:17.058Z</time></trkpt><trkpt lat="37.41043" lon="-2.9188817"><ele>1259.0</ele><time>2026-04-25T09:16:18.068Z</time></trkpt><trkpt lat="37.4101717" lon="-2.918935"><ele>1258.0</ele><time>2026-04-25T09:16:19.06Z</time></trkpt><trkpt lat="37.4099183" lon="-2.9190033"><ele>1258.0</ele><time>2026-04-25T09:16:20.065Z</time></trkpt><trkpt lat="37.409665" lon="-2.91909"><ele>1258.0</ele><time>2026-04-25T09:16:21.06Z</time></trkpt><trkpt lat="37.409415" lon="-2.9191883"><ele>1260.0</ele><time>2026-04-25T09:16:22.063Z</time></trkpt><trkpt lat="37.4091667" lon="-2.9193017"><ele>1262.0</ele><time>2026-04-25T09:16:23.06Z</time></trkpt><trkpt lat="37.4089233" lon="-2.9194267"><ele>1260.5</ele><time>2026-04-25T09:16:24.064Z</time></trkpt><trkpt lat="37.4086833" lon="-2.91957"><ele>1259.0</ele><time>2026-04-25T09:16:25.06Z</time></trkpt><trkpt lat="37.4084467" lon="-2.9197283"><ele>1259.0</ele><time>2026-04-25T09:16:26.059Z</time></trkpt><trkpt lat="37.40822" lon="-2.9199067"><ele>1259.0</ele><time>2026-04-25T09:16:27.058Z</time></trkpt><trkpt lat="37.4079967" lon="-2.9201033"><ele>1254.5</ele><time>2026-04-25T09:16:28.059Z</time></trkpt><trkpt lat="37.4077817" lon="-2.9203133"><ele>1250.0</ele><time>2026-04-25T09:16:29.063Z</time></trkpt><trkpt lat="37.407575" lon="-2.9205333"><ele>1250.0</ele><time>2026-04-25T09:16:30.067Z</time></trkpt><trkpt lat="37.4073767" lon="-2.9207633"><ele>1250.0</ele><time>2026-04-25T09:16:31.061Z</time></trkpt><trkpt lat="37.4071883" lon="-2.9210017"><ele>1253.5</ele><time>2026-04-25T09:16:32.063Z</time></trkpt><trkpt lat="37.4070083" lon="-2.9212483"><ele>1257.0</ele><time>2026-04-25T09:16:33.061Z</time></trkpt><trkpt lat="37.4068333" lon="-2.9215017"><ele>1259.0</ele><time>2026-04-25T09:16:34.059Z</time></trkpt><trkpt lat="37.4066617" lon="-2.9217567"><ele>1261.0</ele><time>2026-04-25T09:16:35.06Z</time></trkpt><trkpt lat="37.40649" lon="-2.9220067"><ele>1264.5</ele><time>2026-04-25T09:16:36.059Z</time></trkpt><trkpt lat="37.40632" lon="-2.92226"><ele>1268.0</ele><time>2026-04-25T09:16:37.062Z</time></trkpt><trkpt lat="37.40615" lon="-2.9225133"><ele>1270.0</ele><time>2026-04-25T09:16:38.063Z</time></trkpt><trkpt lat="37.40598" lon="-2.9227633"><ele>1272.0</ele><time>2026-04-25T09:16:39.059Z</time></trkpt><trkpt lat="37.405805" lon="-2.9230117"><ele>1272.0</ele><time>2026-04-25T09:16:40.058Z</time></trkpt><trkpt lat="37.4056333" lon="-2.9232583"><ele>1272.0</ele><time>2026-04-25T09:16:41.058Z</time></trkpt><trkpt lat="37.4054617" lon="-2.9235067"><ele>1273.0</ele><time>2026-04-25T09:16:42.061Z</time></trkpt><trkpt lat="37.40529" lon="-2.923755"><ele>1274.0</ele><time>2026-04-25T09:16:43.06Z</time></trkpt><trkpt lat="37.4051183" lon="-2.924005"><ele>1273.0</ele><time>2026-04-25T09:16:44.06Z</time></trkpt><trkpt lat="37.4049467" lon="-2.9242583"><ele>1272.0</ele><time>2026-04-25T09:16:45.058Z</time></trkpt><trkpt lat="37.4047717" lon="-2.9245117"><ele>1272.0</ele><time>2026-04-25T09:16:46.061Z</time></trkpt><trkpt lat="37.4045967" lon="-2.92477"><ele>1272.0</ele><time>2026-04-25T09:16:47.066Z</time></trkpt><trkpt lat="37.4044217" lon="-2.92503"><ele>1270.5</ele><time>2026-04-25T09:16:48.063Z</time></trkpt><trkpt lat="37.4042433" lon="-2.925295"><ele>1269.0</ele><time>2026-04-25T09:16:49.063Z</time></trkpt><trkpt lat="37.4040667" lon="-2.92556"><ele>1269.0</ele><time>2026-04-25T09:16:50.062Z</time></trkpt><trkpt lat="37.4038883" lon="-2.9258267"><ele>1269.0</ele><time>2026-04-25T09:16:51.065Z</time></trkpt><trkpt lat="37.40371" lon="-2.9260933"><ele>1267.0</ele><time>2026-04-25T09:16:52.06Z</time></trkpt><trkpt lat="37.40353" lon="-2.9263583"><ele>1265.0</ele><time>2026-04-25T09:16:53.06Z</time></trkpt><trkpt lat="37.4033517" lon="-2.926625"><ele>1264.0</ele><time>2026-04-25T09:16:54.059Z</time></trkpt><trkpt lat="37.4031717" lon="-2.9268867"><ele>1263.0</ele><time>2026-04-25T09:16:55.06Z</time></trkpt><trkpt lat="37.4029933" lon="-2.9271517"><ele>1263.0</ele><time>2026-04-25T09:16:56.061Z</time></trkpt><trkpt lat="37.402815" lon="-2.927415"><ele>1263.0</ele><time>2026-04-25T09:16:57.06Z</time></trkpt><trkpt lat="37.40264" lon="-2.9276767"><ele>1261.5</ele><time>2026-04-25T09:16:58.059Z</time></trkpt><trkpt lat="37.4024683" lon="-2.9279433"><ele>1260.0</ele><time>2026-04-25T09:16:59.06Z</time></trkpt><trkpt lat="37.4023083" lon="-2.9282183"><ele>1262.0</ele><time>2026-04-25T09:17:00.059Z</time></trkpt><trkpt lat="37.4021617" lon="-2.928505"><ele>1264.0</ele><time>2026-04-25T09:17:01.066Z</time></trkpt><trkpt lat="37.4020267" lon="-2.9287967"><ele>1264.0</ele><time>2026-04-25T09:17:02.063Z</time></trkpt><trkpt lat="37.401905" lon="-2.9290983"><ele>1264.0</ele><time>2026-04-25T09:17:03.061Z</time></trkpt><trkpt lat="37.401795" lon="-2.9294067"><ele>1263.5</ele><time>2026-04-25T09:17:04.06Z</time></trkpt><trkpt lat="37.4017" lon="-2.9297217"><ele>1263.0</ele><time>2026-04-25T09:17:05.059Z</time></trkpt><trkpt lat="37.4016167" lon="-2.93004"><ele>1262.5</ele><time>2026-04-25T09:17:06.061Z</time></trkpt><trkpt lat="37.401545" lon="-2.9303617"><ele>1262.0</ele><time>2026-04-25T09:17:07.068Z</time></trkpt><trkpt lat="37.4014883" lon="-2.9306867"><ele>1261.0</ele><time>2026-04-25T09:17:08.059Z</time></trkpt><trkpt lat="37.401445" lon="-2.9310117"><ele>1260.0</ele><time>2026-04-25T09:17:09.062Z</time></trkpt><trkpt lat="37.4014133" lon="-2.9313417"><ele>1260.0</ele><time>2026-04-25T09:17:10.058Z</time></trkpt><trkpt lat="37.4013867" lon="-2.9316733"><ele>1260.0</ele><time>2026-04-25T09:17:11.064Z</time></trkpt><trkpt lat="37.4013617" lon="-2.9320067"><ele>1259.5</ele><time>2026-04-25T09:17:12.057Z</time></trkpt><trkpt lat="37.4013367" lon="-2.9323417"><ele>1259.0</ele><time>2026-04-25T09:17:13.064Z</time></trkpt><trkpt lat="37.401315" lon="-2.9326767"><ele>1260.0</ele><time>2026-04-25T09:17:14.061Z</time></trkpt><trkpt lat="37.4012933" lon="-2.9330133"><ele>1261.0</ele><time>2026-04-25T09:17:15.057Z</time></trkpt><trkpt lat="37.4012717" lon="-2.9333517"><ele>1260.0</ele><time>2026-04-25T09:17:16.061Z</time></trkpt><trkpt lat="37.4012483" lon="-2.9336883"><ele>1259.0</ele><time>2026-04-25T09:17:17.062Z</time></trkpt><trkpt lat="37.4012283" lon="-2.9340283"><ele>1260.5</ele><time>2026-04-25T09:17:18.06Z</time></trkpt><trkpt lat="37.4012067" lon="-2.9343683"><ele>1262.0</ele><time>2026-04-25T09:17:19.062Z</time></trkpt><trkpt lat="37.4011833" lon="-2.93471"><ele>1262.0</ele><time>2026-04-25T09:17:20.06Z</time></trkpt><trkpt lat="37.4011617" lon="-2.9350483"><ele>1262.0</ele><time>2026-04-25T09:17:21.065Z</time></trkpt><trkpt lat="37.40114" lon="-2.93539"><ele>1262.0</ele><time>2026-04-25T09:17:22.06Z</time></trkpt><trkpt lat="37.40112" lon="-2.9357333"><ele>1262.0</ele><time>2026-04-25T09:17:23.06Z</time></trkpt><trkpt lat="37.4010967" lon="-2.9360767"><ele>1261.0</ele><time>2026-04-25T09:17:24.062Z</time></trkpt><trkpt lat="37.4010717" lon="-2.9364183"><ele>1260.0</ele><time>2026-04-25T09:17:25.057Z</time></trkpt><trkpt lat="37.4010483" lon="-2.9367633"><ele>1259.5</ele><time>2026-04-25T09:17:26.064Z</time></trkpt><trkpt lat="37.4010233" lon="-2.9371067"><ele>1259.0</ele><time>2026-04-25T09:17:27.059Z</time></trkpt><trkpt lat="37.401" lon="-2.937455"><ele>1258.5</ele><time>2026-04-25T09:17:28.063Z</time></trkpt><trkpt lat="37.4009767" lon="-2.9378"><ele>1258.0</ele><time>2026-04-25T09:17:29.065Z</time></trkpt><trkpt lat="37.40095" lon="-2.9381483"><ele>1255.5</ele><time>2026-04-25T09:17:30.06Z</time></trkpt><trkpt lat="37.40093" lon="-2.9385"><ele>1253.0</ele><time>2026-04-25T09:17:31.063Z</time></trkpt><trkpt lat="37.4009083" lon="-2.9388517"><ele>1253.0</ele><time>2026-04-25T09:17:32.061Z</time></trkpt><trkpt lat="37.4008867" lon="-2.9392033"><ele>1253.0</ele><time>2026-04-25T09:17:33.057Z</time></trkpt><trkpt lat="37.4008633" lon="-2.9395517"><ele>1253.0</ele><time>2026-04-25T09:17:34.061Z</time></trkpt><trkpt lat="37.4008367" lon="-2.9399017"><ele>1253.0</ele><time>2026-04-25T09:17:35.062Z</time></trkpt><trkpt lat="37.4008117" lon="-2.9402483"><ele>1253.0</ele><time>2026-04-25T09:17:36.061Z</time></trkpt><trkpt lat="37.40079" lon="-2.9405933"><ele>1253.0</ele><time>2026-04-25T09:17:37.059Z</time></trkpt><trkpt lat="37.4007683" lon="-2.9409367"><ele>1252.0</ele><time>2026-04-25T09:17:38.062Z</time></trkpt><trkpt lat="37.400745" lon="-2.9412783"><ele>1251.0</ele><time>2026-04-25T09:17:39.063Z</time></trkpt><trkpt lat="37.4007217" lon="-2.94162"><ele>1251.5</ele><time>2026-04-25T09:17:40.06Z</time></trkpt><trkpt lat="37.4006983" lon="-2.9419583"><ele>1252.0</ele><time>2026-04-25T09:17:41.065Z</time></trkpt><trkpt lat="37.4006783" lon="-2.9422967"><ele>1252.5</ele><time>2026-04-25T09:17:42.063Z</time></trkpt><trkpt lat="37.40066" lon="-2.9426317"><ele>1253.0</ele><time>2026-04-25T09:17:43.062Z</time></trkpt><trkpt lat="37.4006367" lon="-2.9429683"><ele>1253.0</ele><time>2026-04-25T09:17:44.058Z</time></trkpt><trkpt lat="37.400615" lon="-2.943305"><ele>1253.0</ele><time>2026-04-25T09:17:45.064Z</time></trkpt><trkpt lat="37.4005933" lon="-2.9436467"><ele>1251.0</ele><time>2026-04-25T09:17:46.06Z</time></trkpt><trkpt lat="37.40057" lon="-2.94399"><ele>1249.0</ele><time>2026-04-25T09:17:47.061Z</time></trkpt><trkpt lat="37.4005433" lon="-2.944335"><ele>1248.0</ele><time>2026-04-25T09:17:48.062Z</time></trkpt><trkpt lat="37.4005117" lon="-2.9446817"><ele>1247.0</ele><time>2026-04-25T09:17:49.065Z</time></trkpt><trkpt lat="37.4004767" lon="-2.9450333"><ele>1248.5</ele><time>2026-04-25T09:17:50.06Z</time></trkpt><trkpt lat="37.40044" lon="-2.9453833"><ele>1250.0</ele><time>2026-04-25T09:17:51.061Z</time></trkpt><trkpt lat="37.4003917" lon="-2.9457383"><ele>1250.0</ele><time>2026-04-25T09:17:52.059Z</time></trkpt><trkpt lat="37.400335" lon="-2.9460967"><ele>1250.0</ele><time>2026-04-25T09:17:53.063Z</time></trkpt><trkpt lat="37.40027" lon="-2.9464583"><ele>1252.0</ele><time>2026-04-25T09:17:54.063Z</time></trkpt><trkpt lat="37.4001983" lon="-2.9468217"><ele>1254.0</ele><time>2026-04-25T09:17:55.067Z</time></trkpt><trkpt lat="37.4001233" lon="-2.9471883"><ele>1255.0</ele><time>2026-04-25T09:17:56.062Z</time></trkpt><trkpt lat="37.4000433" lon="-2.947555"><ele>1256.0</ele><time>2026-04-25T09:17:57.062Z</time></trkpt><trkpt lat="37.399955" lon="-2.9479233"><ele>1256.0</ele><time>2026-04-25T09:17:58.064Z</time></trkpt><trkpt lat="37.3998617" lon="-2.94829"><ele>1256.0</ele><time>2026-04-25T09:17:59.064Z</time></trkpt><trkpt lat="37.3997617" lon="-2.94866"><ele>1258.0</ele><time>2026-04-25T09:18:00.065Z</time></trkpt><trkpt lat="37.399655" lon="-2.9490267"><ele>1260.0</ele><time>2026-04-25T09:18:01.063Z</time></trkpt><trkpt lat="37.3995417" lon="-2.9493933"><ele>1260.0</ele><time>2026-04-25T09:18:02.065Z</time></trkpt><trkpt lat="37.3994233" lon="-2.9497567"><ele>1260.0</ele><time>2026-04-25T09:18:03.064Z</time></trkpt><trkpt lat="37.3993" lon="-2.9501167"><ele>1260.5</ele><time>2026-04-25T09:18:04.065Z</time></trkpt><trkpt lat="37.3991617" lon="-2.950475"><ele>1261.0</ele><time>2026-04-25T09:18:05.065Z</time></trkpt><trkpt lat="37.3990167" lon="-2.9508267"><ele>1260.5</ele><time>2026-04-25T09:18:06.059Z</time></trkpt><trkpt lat="37.3988667" lon="-2.9511733"><ele>1260.0</ele><time>2026-04-25T09:18:07.062Z</time></trkpt><trkpt lat="37.39871" lon="-2.9515117"><ele>1262.5</ele><time>2026-04-25T09:18:08.062Z</time></trkpt><trkpt lat="37.3985483" lon="-2.9518433"><ele>1265.0</ele><time>2026-04-25T09:18:09.063Z</time></trkpt><trkpt lat="37.3983833" lon="-2.95217"><ele>1265.0</ele><time>2026-04-25T09:18:10.063Z</time></trkpt><trkpt lat="37.3982117" lon="-2.9524917"><ele>1265.0</ele><time>2026-04-25T09:18:11.06Z</time></trkpt><trkpt lat="37.3980367" lon="-2.95281"><ele>1266.0</ele><time>2026-04-25T09:18:12.063Z</time></trkpt><trkpt lat="37.39786" lon="-2.9531233"><ele>1267.0</ele><time>2026-04-25T09:18:13.062Z</time></trkpt><trkpt lat="37.39768" lon="-2.9534333"><ele>1267.0</ele><time>2026-04-25T09:18:14.066Z</time></trkpt><trkpt lat="37.3975" lon="-2.9537417"><ele>1267.0</ele><time>2026-04-25T09:18:15.065Z</time></trkpt><trkpt lat="37.3973183" lon="-2.95405"><ele>1267.0</ele><time>2026-04-25T09:18:16.061Z</time></trkpt><trkpt lat="37.3971333" lon="-2.9543517"><ele>1267.0</ele><time>2026-04-25T09:18:17.061Z</time></trkpt><trkpt lat="37.3969517" lon="-2.954655"><ele>1267.0</ele><time>2026-04-25T09:18:18.061Z</time></trkpt><trkpt lat="37.3967717" lon="-2.95496"><ele>1267.0</ele><time>2026-04-25T09:18:19.062Z</time></trkpt><trkpt lat="37.396595" lon="-2.9552683"><ele>1267.5</ele><time>2026-04-25T09:18:20.066Z</time></trkpt><trkpt lat="37.3964183" lon="-2.955575"><ele>1268.0</ele><time>2026-04-25T09:18:21.063Z</time></trkpt><trkpt lat="37.3962417" lon="-2.9558817"><ele>1268.0</ele><time>2026-04-25T09:18:22.065Z</time></trkpt><trkpt lat="37.3960633" lon="-2.9561817"><ele>1268.0</ele><time>2026-04-25T09:18:23.071Z</time></trkpt><trkpt lat="37.39588" lon="-2.9564733"><ele>1268.0</ele><time>2026-04-25T09:18:24.064Z</time></trkpt><trkpt lat="37.3956883" lon="-2.9567533"><ele>1268.0</ele><time>2026-04-25T09:18:25.06Z</time></trkpt><trkpt lat="37.3954867" lon="-2.9570183"><ele>1268.0</ele><time>2026-04-25T09:18:26.063Z</time></trkpt><trkpt lat="37.3952817" lon="-2.9572717"><ele>1268.0</ele><time>2026-04-25T09:18:27.058Z</time></trkpt><trkpt lat="37.3950733" lon="-2.9575217"><ele>1268.5</ele><time>2026-04-25T09:18:28.059Z</time></trkpt><trkpt lat="37.3948667" lon="-2.9577733"><ele>1269.0</ele><time>2026-04-25T09:18:29.061Z</time></trkpt><trkpt lat="37.39467" lon="-2.9580367"><ele>1269.0</ele><time>2026-04-25T09:18:30.06Z</time></trkpt><trkpt lat="37.3944833" lon="-2.958315"><ele>1269.0</ele><time>2026-04-25T09:18:31.065Z</time></trkpt><trkpt lat="37.3943117" lon="-2.95861"><ele>1269.0</ele><time>2026-04-25T09:18:32.064Z</time></trkpt><trkpt lat="37.3941533" lon="-2.958915"><ele>1269.0</ele><time>2026-04-25T09:18:33.063Z</time></trkpt><trkpt lat="37.3940067" lon="-2.9592317"><ele>1270.0</ele><time>2026-04-25T09:18:34.063Z</time></trkpt><trkpt lat="37.393875" lon="-2.95956"><ele>1271.0</ele><time>2026-04-25T09:18:35.06Z</time></trkpt><trkpt lat="37.39376" lon="-2.9599"><ele>1268.5</ele><time>2026-04-25T09:18:36.059Z</time></trkpt><trkpt lat="37.393655" lon="-2.9602483"><ele>1266.0</ele><time>2026-04-25T09:18:37.059Z</time></trkpt><trkpt lat="37.393565" lon="-2.9606067"><ele>1265.0</ele><time>2026-04-25T09:18:38.065Z</time></trkpt><trkpt lat="37.3934867" lon="-2.9609717"><ele>1264.0</ele><time>2026-04-25T09:18:39.062Z</time></trkpt><trkpt lat="37.3934283" lon="-2.9613433"><ele>1261.5</ele><time>2026-04-25T09:18:40.059Z</time></trkpt><trkpt lat="37.3933867" lon="-2.961725"><ele>1259.0</ele><time>2026-04-25T09:18:41.063Z</time></trkpt><trkpt lat="37.3933667" lon="-2.9621117"><ele>1259.0</ele><time>2026-04-25T09:18:42.064Z</time></trkpt><trkpt lat="37.393365" lon="-2.962505"><ele>1259.0</ele><time>2026-04-25T09:18:43.06Z</time></trkpt><trkpt lat="37.3933817" lon="-2.9629"><ele>1256.5</ele><time>2026-04-25T09:18:44.063Z</time></trkpt><trkpt lat="37.3934167" lon="-2.9632967"><ele>1254.0</ele><time>2026-04-25T09:18:45.062Z</time></trkpt><trkpt lat="37.3934633" lon="-2.9636917"><ele>1252.5</ele><time>2026-04-25T09:18:46.057Z</time></trkpt><trkpt lat="37.3935233" lon="-2.964085"><ele>1251.0</ele><time>2026-04-25T09:18:47.064Z</time></trkpt><trkpt lat="37.39359" lon="-2.964475"><ele>1251.0</ele><time>2026-04-25T09:18:48.063Z</time></trkpt><trkpt lat="37.3936583" lon="-2.9648633"><ele>1251.0</ele><time>2026-04-25T09:18:49.063Z</time></trkpt><trkpt lat="37.3937217" lon="-2.96525"><ele>1251.0</ele><time>2026-04-25T09:18:50.06Z</time></trkpt><trkpt lat="37.39378" lon="-2.96564"><ele>1251.0</ele><time>2026-04-25T09:18:51.062Z</time></trkpt><trkpt lat="37.393835" lon="-2.9660333"><ele>1247.5</ele><time>2026-04-25T09:18:52.061Z</time></trkpt><trkpt lat="37.3938883" lon="-2.9664267"><ele>1244.0</ele><time>2026-04-25T09:18:53.062Z</time></trkpt><trkpt lat="37.3939417" lon="-2.9668217"><ele>1244.0</ele><time>2026-04-25T09:18:54.061Z</time></trkpt><trkpt lat="37.393995" lon="-2.967215"><ele>1244.0</ele><time>2026-04-25T09:18:55.061Z</time></trkpt><trkpt lat="37.39405" lon="-2.9676083"><ele>1244.0</ele><time>2026-04-25T09:18:56.06Z</time></trkpt><trkpt lat="37.3941033" lon="-2.9680017"><ele>1244.0</ele><time>2026-04-25T09:18:57.06Z</time></trkpt><trkpt lat="37.3941567" lon="-2.9683917"><ele>1243.5</ele><time>2026-04-25T09:18:58.06Z</time></trkpt><trkpt lat="37.39421" lon="-2.96878"><ele>1243.0</ele><time>2026-04-25T09:18:59.063Z</time></trkpt><trkpt lat="37.3942617" lon="-2.969165"><ele>1242.0</ele><time>2026-04-25T09:19:00.064Z</time></trkpt><trkpt lat="37.394315" lon="-2.9695433"><ele>1241.0</ele><time>2026-04-25T09:19:01.06Z</time></trkpt><trkpt lat="37.3943683" lon="-2.96992"><ele>1239.0</ele><time>2026-04-25T09:19:02.066Z</time></trkpt><trkpt lat="37.3944183" lon="-2.9702967"><ele>1237.0</ele><time>2026-04-25T09:19:03.06Z</time></trkpt><trkpt lat="37.3944683" lon="-2.9706733"><ele>1234.5</ele><time>2026-04-25T09:19:04.058Z</time></trkpt><trkpt lat="37.3945183" lon="-2.9710467"><ele>1232.0</ele><time>2026-04-25T09:19:05.059Z</time></trkpt><trkpt lat="37.39457" lon="-2.9714167"><ele>1232.5</ele><time>2026-04-25T09:19:06.059Z</time></trkpt><trkpt lat="37.394625" lon="-2.9717817"><ele>1233.0</ele><time>2026-04-25T09:19:07.059Z</time></trkpt><trkpt lat="37.3946817" lon="-2.9721483"><ele>1233.0</ele><time>2026-04-25T09:19:08.06Z</time></trkpt><trkpt lat="37.394745" lon="-2.9725167"><ele>1233.0</ele><time>2026-04-25T09:19:09.063Z</time></trkpt><trkpt lat="37.3948117" lon="-2.9728867"><ele>1230.0</ele><time>2026-04-25T09:19:10.061Z</time></trkpt><trkpt lat="37.3948817" lon="-2.9732567"><ele>1227.0</ele><time>2026-04-25T09:19:11.06Z</time></trkpt><trkpt lat="37.3949567" lon="-2.9736267"><ele>1225.0</ele><time>2026-04-25T09:19:12.062Z</time></trkpt><trkpt lat="37.39504" lon="-2.9739967"><ele>1223.0</ele><time>2026-04-25T09:19:13.07Z</time></trkpt><trkpt lat="37.39513" lon="-2.9743633"><ele>1223.0</ele><time>2026-04-25T09:19:14.065Z</time></trkpt><trkpt lat="37.3952217" lon="-2.974725"><ele>1223.0</ele><time>2026-04-25T09:19:15.059Z</time></trkpt><trkpt lat="37.3953183" lon="-2.9750867"><ele>1223.0</ele><time>2026-04-25T09:19:16.057Z</time></trkpt><trkpt lat="37.3954183" lon="-2.9754433"><ele>1223.0</ele><time>2026-04-25T09:19:17.059Z</time></trkpt><trkpt lat="37.39552" lon="-2.9757967"><ele>1220.0</ele><time>2026-04-25T09:19:18.059Z</time></trkpt><trkpt lat="37.3956283" lon="-2.9761433"><ele>1217.0</ele><time>2026-04-25T09:19:19.062Z</time></trkpt><trkpt lat="37.3957367" lon="-2.9764883"><ele>1219.5</ele><time>2026-04-25T09:19:20.062Z</time></trkpt><trkpt lat="37.395845" lon="-2.9768333"><ele>1222.0</ele><time>2026-04-25T09:19:21.061Z</time></trkpt><trkpt lat="37.395955" lon="-2.9771783"><ele>1224.0</ele><time>2026-04-25T09:19:22.061Z</time></trkpt><trkpt lat="37.396065" lon="-2.9775267"><ele>1226.0</ele><time>2026-04-25T09:19:23.062Z</time></trkpt><trkpt lat="37.3961733" lon="-2.977875"><ele>1226.0</ele><time>2026-04-25T09:19:24.064Z</time></trkpt><trkpt lat="37.3962767" lon="-2.978225"><ele>1226.0</ele><time>2026-04-25T09:19:25.066Z</time></trkpt><trkpt lat="37.3963817" lon="-2.978575"><ele>1220.0</ele><time>2026-04-25T09:19:26.062Z</time></trkpt><trkpt lat="37.3964867" lon="-2.9789267"><ele>1214.0</ele><time>2026-04-25T09:19:27.062Z</time></trkpt><trkpt lat="37.3965917" lon="-2.979275"><ele>1214.0</ele><time>2026-04-25T09:19:28.06Z</time></trkpt><trkpt lat="37.3967" lon="-2.979625"><ele>1214.0</ele><time>2026-04-25T09:19:29.065Z</time></trkpt><trkpt lat="37.3968067" lon="-2.9799783"><ele>1216.0</ele><time>2026-04-25T09:19:30.058Z</time></trkpt><trkpt lat="37.3969117" lon="-2.9803317"><ele>1218.0</ele><time>2026-04-25T09:19:31.064Z</time></trkpt><trkpt lat="37.3970167" lon="-2.9806883"><ele>1218.5</ele><time>2026-04-25T09:19:32.064Z</time></trkpt><trkpt lat="37.3971233" lon="-2.9810467"><ele>1219.0</ele><time>2026-04-25T09:19:33.061Z</time></trkpt><trkpt lat="37.39723" lon="-2.981405"><ele>1214.5</ele><time>2026-04-25T09:19:34.058Z</time></trkpt><trkpt lat="37.3973367" lon="-2.9817633"><ele>1210.0</ele><time>2026-04-25T09:19:35.06Z</time></trkpt><trkpt lat="37.3974433" lon="-2.9821217"><ele>1210.0</ele><time>2026-04-25T09:19:36.06Z</time></trkpt><trkpt lat="37.3975517" lon="-2.9824817"><ele>1210.0</ele><time>2026-04-25T09:19:37.064Z</time></trkpt><trkpt lat="37.3976583" lon="-2.9828433"><ele>1211.0</ele><time>2026-04-25T09:19:38.06Z</time></trkpt><trkpt lat="37.3977667" lon="-2.9832017"><ele>1212.0</ele><time>2026-04-25T09:19:39.059Z</time></trkpt><trkpt lat="37.397875" lon="-2.9835617"><ele>1209.5</ele><time>2026-04-25T09:19:40.06Z</time></trkpt><trkpt lat="37.3979817" lon="-2.98392"><ele>1207.0</ele><time>2026-04-25T09:19:41.06Z</time></trkpt><trkpt lat="37.3980867" lon="-2.98428"><ele>1207.0</ele><time>2026-04-25T09:19:42.06Z</time></trkpt><trkpt lat="37.39819" lon="-2.9846383"><ele>1207.0</ele><time>2026-04-25T09:19:43.06Z</time></trkpt><trkpt lat="37.398295" lon="-2.9849967"><ele>1208.5</ele><time>2026-04-25T09:19:44.059Z</time></trkpt><trkpt lat="37.3983983" lon="-2.9853517"><ele>1210.0</ele><time>2026-04-25T09:19:45.063Z</time></trkpt><trkpt lat="37.3985033" lon="-2.9857033"><ele>1209.5</ele><time>2026-04-25T09:19:46.061Z</time></trkpt><trkpt lat="37.3986083" lon="-2.9860533"><ele>1209.0</ele><time>2026-04-25T09:19:47.064Z</time></trkpt><trkpt lat="37.3987133" lon="-2.9864017"><ele>1209.0</ele><time>2026-04-25T09:19:48.058Z</time></trkpt><trkpt lat="37.398815" lon="-2.98675"><ele>1209.0</ele><time>2026-04-25T09:19:49.06Z</time></trkpt><trkpt lat="37.3989117" lon="-2.9871"><ele>1209.5</ele><time>2026-04-25T09:19:50.06Z</time></trkpt><trkpt lat="37.398995" lon="-2.9874517"><ele>1210.0</ele><time>2026-04-25T09:19:51.061Z</time></trkpt><trkpt lat="37.3990567" lon="-2.9878133"><ele>1210.0</ele><time>2026-04-25T09:19:52.059Z</time></trkpt><trkpt lat="37.3990983" lon="-2.9881767"><ele>1210.0</ele><time>2026-04-25T09:19:53.06Z</time></trkpt><trkpt lat="37.3991167" lon="-2.9885467"><ele>1210.5</ele><time>2026-04-25T09:19:54.061Z</time></trkpt><trkpt lat="37.3991083" lon="-2.9889183"><ele>1211.0</ele><time>2026-04-25T09:19:55.066Z</time></trkpt><trkpt lat="37.3990833" lon="-2.9892883"><ele>1211.0</ele><time>2026-04-25T09:19:56.062Z</time></trkpt><trkpt lat="37.3990367" lon="-2.9896583"><ele>1211.0</ele><time>2026-04-25T09:19:57.059Z</time></trkpt><trkpt lat="37.39897" lon="-2.990025"><ele>1210.5</ele><time>2026-04-25T09:19:58.062Z</time></trkpt><trkpt lat="37.3988833" lon="-2.9903917"><ele>1210.0</ele><time>2026-04-25T09:19:59.062Z</time></trkpt><trkpt lat="37.398775" lon="-2.9907467"><ele>1210.5</ele><time>2026-04-25T09:20:00.061Z</time></trkpt><trkpt lat="37.3986417" lon="-2.9910917"><ele>1211.0</ele><time>2026-04-25T09:20:01.06Z</time></trkpt><trkpt lat="37.3984883" lon="-2.9914233"><ele>1212.0</ele><time>2026-04-25T09:20:02.061Z</time></trkpt><trkpt lat="37.398315" lon="-2.9917417"><ele>1213.0</ele><time>2026-04-25T09:20:03.06Z</time></trkpt><trkpt lat="37.3981267" lon="-2.9920417"><ele>1212.5</ele><time>2026-04-25T09:20:04.06Z</time></trkpt><trkpt lat="37.3979167" lon="-2.99233"><ele>1212.0</ele><time>2026-04-25T09:20:05.06Z</time></trkpt><trkpt lat="37.3976867" lon="-2.9925967"><ele>1210.5</ele><time>2026-04-25T09:20:06.063Z</time></trkpt><trkpt lat="37.3974433" lon="-2.9928433"><ele>1209.0</ele><time>2026-04-25T09:20:07.063Z</time></trkpt><trkpt lat="37.3971867" lon="-2.993065"><ele>1208.5</ele><time>2026-04-25T09:20:08.061Z</time></trkpt><trkpt lat="37.3969183" lon="-2.9932633"><ele>1208.0</ele><time>2026-04-25T09:20:09.058Z</time></trkpt><trkpt lat="37.3966383" lon="-2.9934333"><ele>1208.0</ele><time>2026-04-25T09:20:10.059Z</time></trkpt><trkpt lat="37.39635" lon="-2.9935767"><ele>1208.0</ele><time>2026-04-25T09:20:11.058Z</time></trkpt><trkpt lat="37.396055" lon="-2.9936933"><ele>1204.5</ele><time>2026-04-25T09:20:12.062Z</time></trkpt><trkpt lat="37.3957517" lon="-2.9937867"><ele>1201.0</ele><time>2026-04-25T09:20:13.062Z</time></trkpt><trkpt lat="37.3954483" lon="-2.99388"><ele>1197.0</ele><time>2026-04-25T09:20:14.061Z</time></trkpt><trkpt lat="37.3951517" lon="-2.99399"><ele>1193.0</ele><time>2026-04-25T09:20:15.065Z</time></trkpt><trkpt lat="37.3948617" lon="-2.9941167"><ele>1170.0</ele><time>2026-04-25T09:20:16.062Z</time></trkpt><trkpt lat="37.3945817" lon="-2.9942617"><ele>1147.0</ele><time>2026-04-25T09:20:17.061Z</time></trkpt><trkpt lat="37.3943117" lon="-2.994425"><ele>1147.0</ele><time>2026-04-25T09:20:18.059Z</time></trkpt><trkpt lat="37.39405" lon="-2.994605"><ele>1147.0</ele><time>2026-04-25T09:20:19.062Z</time></trkpt><trkpt lat="37.3937983" lon="-2.9948067"><ele>1140.5</ele><time>2026-04-25T09:20:20.06Z</time></trkpt><trkpt lat="37.3935567" lon="-2.9950283"><ele>1134.0</ele><time>2026-04-25T09:20:21.062Z</time></trkpt><trkpt lat="37.393325" lon="-2.9952617"><ele>1134.0</ele><time>2026-04-25T09:20:22.065Z</time></trkpt><trkpt lat="37.3931033" lon="-2.9955117"><ele>1134.0</ele><time>2026-04-25T09:20:23.062Z</time></trkpt><trkpt lat="37.3928917" lon="-2.9957733"><ele>1157.5</ele><time>2026-04-25T09:20:24.062Z</time></trkpt><trkpt lat="37.3926933" lon="-2.9960483"><ele>1181.0</ele><time>2026-04-25T09:20:25.061Z</time></trkpt><trkpt lat="37.392505" lon="-2.9963383"><ele>1181.0</ele><time>2026-04-25T09:20:26.059Z</time></trkpt><trkpt lat="37.39233" lon="-2.99664"><ele>1181.0</ele><time>2026-04-25T09:20:27.069Z</time></trkpt><trkpt lat="37.392165" lon="-2.996955"><ele>1194.0</ele><time>2026-04-25T09:20:28.058Z</time></trkpt><trkpt lat="37.3920117" lon="-2.9972783"><ele>1207.0</ele><time>2026-04-25T09:20:29.06Z</time></trkpt><trkpt lat="37.3918733" lon="-2.99761"><ele>1207.0</ele><time>2026-04-25T09:20:30.059Z</time></trkpt><trkpt lat="37.3917483" lon="-2.9979517"><ele>1207.0</ele><time>2026-04-25T09:20:31.06Z</time></trkpt><trkpt lat="37.39164" lon="-2.998305"><ele>1206.0</ele><time>2026-04-25T09:20:32.062Z</time></trkpt><trkpt lat="37.39155" lon="-2.9986667"><ele>1205.0</ele><time>2026-04-25T09:20:33.064Z</time></trkpt><trkpt lat="37.3914783" lon="-2.9990333"><ele>1201.0</ele><time>2026-04-25T09:20:34.061Z</time></trkpt><trkpt lat="37.3914283" lon="-2.9994067"><ele>1197.0</ele><time>2026-04-25T09:20:35.059Z</time></trkpt><trkpt lat="37.391395" lon="-2.99978"><ele>1197.0</ele><time>2026-04-25T09:20:36.062Z</time></trkpt><trkpt lat="37.391385" lon="-3.0001567"><ele>1197.0</ele><time>2026-04-25T09:20:37.059Z</time></trkpt><trkpt lat="37.391395" lon="-3.0005333"><ele>1198.0</ele><time>2026-04-25T09:20:38.061Z</time></trkpt><trkpt lat="37.3914133" lon="-3.0009067"><ele>1199.0</ele><time>2026-04-25T09:20:39.061Z</time></trkpt><trkpt lat="37.391435" lon="-3.0012783"><ele>1199.0</ele><time>2026-04-25T09:20:40.06Z</time></trkpt><trkpt lat="37.3914533" lon="-3.0016483"><ele>1199.0</ele><time>2026-04-25T09:20:41.064Z</time></trkpt><trkpt lat="37.3914683" lon="-3.00202"><ele>1203.5</ele><time>2026-04-25T09:20:42.061Z</time></trkpt><trkpt lat="37.39147" lon="-3.0023917"><ele>1208.0</ele><time>2026-04-25T09:20:43.06Z</time></trkpt><trkpt lat="37.391455" lon="-3.0027667"><ele>1208.0</ele><time>2026-04-25T09:20:44.061Z</time></trkpt><trkpt lat="37.391425" lon="-3.0031383"><ele>1208.0</ele><time>2026-04-25T09:20:45.062Z</time></trkpt><trkpt lat="37.39138" lon="-3.003505"><ele>1209.5</ele><time>2026-04-25T09:20:46.057Z</time></trkpt><trkpt lat="37.3913183" lon="-3.0038683"><ele>1211.0</ele><time>2026-04-25T09:20:47.061Z</time></trkpt><trkpt lat="37.39124" lon="-3.0042267"><ele>1211.0</ele><time>2026-04-25T09:20:48.067Z</time></trkpt><trkpt lat="37.3911483" lon="-3.00458"><ele>1211.0</ele><time>2026-04-25T09:20:49.062Z</time></trkpt><trkpt lat="37.3910383" lon="-3.0049233"><ele>1208.5</ele><time>2026-04-25T09:20:50.061Z</time></trkpt><trkpt lat="37.3909133" lon="-3.005255"><ele>1206.0</ele><time>2026-04-25T09:20:51.064Z</time></trkpt><trkpt lat="37.3907733" lon="-3.0055783"><ele>1204.0</ele><time>2026-04-25T09:20:52.062Z</time></trkpt><trkpt lat="37.3906217" lon="-3.0058933"><ele>1202.0</ele><time>2026-04-25T09:20:53.062Z</time></trkpt><trkpt lat="37.3904617" lon="-3.0062017"><ele>1202.0</ele><time>2026-04-25T09:20:54.062Z</time></trkpt><trkpt lat="37.390295" lon="-3.0065033"><ele>1202.0</ele><time>2026-04-25T09:20:55.058Z</time></trkpt><trkpt lat="37.390125" lon="-3.006805"><ele>1199.0</ele><time>2026-04-25T09:20:56.057Z</time></trkpt><trkpt lat="37.38996" lon="-3.0071133"><ele>1196.0</ele><time>2026-04-25T09:20:57.061Z</time></trkpt><trkpt lat="37.3898" lon="-3.007425"><ele>1198.0</ele><time>2026-04-25T09:20:58.06Z</time></trkpt><trkpt lat="37.3896517" lon="-3.007745"><ele>1200.0</ele><time>2026-04-25T09:20:59.057Z</time></trkpt><trkpt lat="37.3895167" lon="-3.0080733"><ele>1203.5</ele><time>2026-04-25T09:21:00.064Z</time></trkpt><trkpt lat="37.3893933" lon="-3.0084083"><ele>1207.0</ele><time>2026-04-25T09:21:01.062Z</time></trkpt><trkpt lat="37.3892817" lon="-3.008755"><ele>1207.0</ele><time>2026-04-25T09:21:02.065Z</time></trkpt><trkpt lat="37.389185" lon="-3.009105"><ele>1207.0</ele><time>2026-04-25T09:21:03.061Z</time></trkpt><trkpt lat="37.389105" lon="-3.009465"><ele>1206.5</ele><time>2026-04-25T09:21:04.059Z</time></trkpt><trkpt lat="37.389045" lon="-3.0098317"><ele>1206.0</ele><time>2026-04-25T09:21:05.063Z</time></trkpt><trkpt lat="37.389005" lon="-3.0102033"><ele>1207.0</ele><time>2026-04-25T09:21:06.063Z</time></trkpt><trkpt lat="37.388985" lon="-3.0105783"><ele>1208.0</ele><time>2026-04-25T09:21:07.071Z</time></trkpt><trkpt lat="37.3889767" lon="-3.0109567"><ele>1209.0</ele><time>2026-04-25T09:21:08.061Z</time></trkpt><trkpt lat="37.3889883" lon="-3.011335"><ele>1210.0</ele><time>2026-04-25T09:21:09.063Z</time></trkpt><trkpt lat="37.3890183" lon="-3.01171"><ele>1210.0</ele><time>2026-04-25T09:21:10.062Z</time></trkpt><trkpt lat="37.389065" lon="-3.012085"><ele>1210.0</ele><time>2026-04-25T09:21:11.062Z</time></trkpt><trkpt lat="37.3891283" lon="-3.012455"><ele>1209.5</ele><time>2026-04-25T09:21:12.059Z</time></trkpt><trkpt lat="37.3892117" lon="-3.012815"><ele>1209.0</ele><time>2026-04-25T09:21:13.058Z</time></trkpt><trkpt lat="37.389315" lon="-3.0131717"><ele>1207.5</ele><time>2026-04-25T09:21:14.062Z</time></trkpt><trkpt lat="37.3894333" lon="-3.01352"><ele>1206.0</ele><time>2026-04-25T09:21:15.063Z</time></trkpt><trkpt lat="37.3895617" lon="-3.0138633"><ele>1201.0</ele><time>2026-04-25T09:21:16.062Z</time></trkpt><trkpt lat="37.389695" lon="-3.0142083"><ele>1196.0</ele><time>2026-04-25T09:21:17.062Z</time></trkpt><trkpt lat="37.3898333" lon="-3.01455"><ele>1196.0</ele><time>2026-04-25T09:21:18.062Z</time></trkpt><trkpt lat="37.38997" lon="-3.0148933"><ele>1196.0</ele><time>2026-04-25T09:21:19.061Z</time></trkpt><trkpt lat="37.3901083" lon="-3.01524"><ele>1196.0</ele><time>2026-04-25T09:21:20.06Z</time></trkpt><trkpt lat="37.390245" lon="-3.0155833"><ele>1196.0</ele><time>2026-04-25T09:21:21.06Z</time></trkpt><trkpt lat="37.3903833" lon="-3.0159267"><ele>1195.5</ele><time>2026-04-25T09:21:22.059Z</time></trkpt><trkpt lat="37.3905267" lon="-3.0162667"><ele>1195.0</ele><time>2026-04-25T09:21:23.061Z</time></trkpt><trkpt lat="37.3906717" lon="-3.016605"><ele>1195.5</ele><time>2026-04-25T09:21:24.061Z</time></trkpt><trkpt lat="37.3908167" lon="-3.0169467"><ele>1196.0</ele><time>2026-04-25T09:21:25.06Z</time></trkpt><trkpt lat="37.3909583" lon="-3.01729"><ele>1193.5</ele><time>2026-04-25T09:21:26.058Z</time></trkpt><trkpt lat="37.3910967" lon="-3.017635"><ele>1191.0</ele><time>2026-04-25T09:21:27.061Z</time></trkpt><trkpt lat="37.391235" lon="-3.01798"><ele>1189.5</ele><time>2026-04-25T09:21:28.061Z</time></trkpt><trkpt lat="37.391375" lon="-3.0183217"><ele>1188.0</ele><time>2026-04-25T09:21:29.062Z</time></trkpt><trkpt lat="37.3915133" lon="-3.0186617"><ele>1188.0</ele><time>2026-04-25T09:21:30.061Z</time></trkpt><trkpt lat="37.39165" lon="-3.0190033"><ele>1188.0</ele><time>2026-04-25T09:21:31.061Z</time></trkpt><trkpt lat="37.391785" lon="-3.0193433"><ele>1188.5</ele><time>2026-04-25T09:21:32.062Z</time></trkpt><trkpt lat="37.3919217" lon="-3.0196833"><ele>1189.0</ele><time>2026-04-25T09:21:33.062Z</time></trkpt><trkpt lat="37.392055" lon="-3.0200233"><ele>1187.5</ele><time>2026-04-25T09:21:34.062Z</time></trkpt><trkpt lat="37.39219" lon="-3.0203633"><ele>1186.0</ele><time>2026-04-25T09:21:35.061Z</time></trkpt><trkpt lat="37.3923267" lon="-3.0207017"><ele>1185.0</ele><time>2026-04-25T09:21:36.062Z</time></trkpt><trkpt lat="37.3924617" lon="-3.02104"><ele>1184.0</ele><time>2026-04-25T09:21:37.067Z</time></trkpt><trkpt lat="37.392595" lon="-3.0213817"><ele>1182.5</ele><time>2026-04-25T09:21:38.059Z</time></trkpt><trkpt lat="37.3927217" lon="-3.021725"><ele>1181.0</ele><time>2026-04-25T09:21:39.059Z</time></trkpt><trkpt lat="37.392845" lon="-3.0220733"><ele>1181.0</ele><time>2026-04-25T09:21:40.063Z</time></trkpt><trkpt lat="37.3929617" lon="-3.0224267"><ele>1181.0</ele><time>2026-04-25T09:21:41.066Z</time></trkpt><trkpt lat="37.393075" lon="-3.022785"><ele>1180.5</ele><time>2026-04-25T09:21:42.063Z</time></trkpt><trkpt lat="37.393185" lon="-3.023145"><ele>1180.0</ele><time>2026-04-25T09:21:43.06Z</time></trkpt><trkpt lat="37.39329" lon="-3.0235117"><ele>1178.5</ele><time>2026-04-25T09:21:44.061Z</time></trkpt><trkpt lat="37.3933883" lon="-3.02388"><ele>1177.0</ele><time>2026-04-25T09:21:45.059Z</time></trkpt><trkpt lat="37.3934817" lon="-3.02425"><ele>1177.0</ele><time>2026-04-25T09:21:46.062Z</time></trkpt><trkpt lat="37.39357" lon="-3.0246217"><ele>1177.0</ele><time>2026-04-25T09:21:47.062Z</time></trkpt><trkpt lat="37.39365" lon="-3.024995"><ele>1176.5</ele><time>2026-04-25T09:21:48.061Z</time></trkpt><trkpt lat="37.3937233" lon="-3.02537"><ele>1176.0</ele><time>2026-04-25T09:21:49.063Z</time></trkpt><trkpt lat="37.3937917" lon="-3.0257433"><ele>1174.0</ele><time>2026-04-25T09:21:50.061Z</time></trkpt><trkpt lat="37.3938533" lon="-3.026115"><ele>1172.0</ele><time>2026-04-25T09:21:51.059Z</time></trkpt><trkpt lat="37.39391" lon="-3.0264867"><ele>1172.0</ele><time>2026-04-25T09:21:52.06Z</time></trkpt><trkpt lat="37.3939617" lon="-3.02686"><ele>1172.0</ele><time>2026-04-25T09:21:53.068Z</time></trkpt><trkpt lat="37.39401" lon="-3.0272317"><ele>1170.5</ele><time>2026-04-25T09:21:54.062Z</time></trkpt><trkpt lat="37.3940533" lon="-3.0276017"><ele>1169.0</ele><time>2026-04-25T09:21:55.059Z</time></trkpt><trkpt lat="37.3940917" lon="-3.0279733"><ele>1167.0</ele><time>2026-04-25T09:21:56.063Z</time></trkpt><trkpt lat="37.3941233" lon="-3.028345"><ele>1165.0</ele><time>2026-04-25T09:21:57.065Z</time></trkpt><trkpt lat="37.39415" lon="-3.0287167"><ele>1165.0</ele><time>2026-04-25T09:21:58.059Z</time></trkpt><trkpt lat="37.3941683" lon="-3.0290917"><ele>1165.0</ele><time>2026-04-25T09:21:59.062Z</time></trkpt><trkpt lat="37.3941817" lon="-3.0294667"><ele>1164.5</ele><time>2026-04-25T09:22:00.062Z</time></trkpt><trkpt lat="37.39419" lon="-3.029845"><ele>1164.0</ele><time>2026-04-25T09:22:01.062Z</time></trkpt><trkpt lat="37.39419" lon="-3.0302233"><ele>1162.0</ele><time>2026-04-25T09:22:02.061Z</time></trkpt><trkpt lat="37.3941867" lon="-3.0306067"><ele>1160.0</ele><time>2026-04-25T09:22:03.064Z</time></trkpt><trkpt lat="37.3941783" lon="-3.0309883"><ele>1159.0</ele><time>2026-04-25T09:22:04.059Z</time></trkpt><trkpt lat="37.3941617" lon="-3.0313717"><ele>1158.0</ele><time>2026-04-25T09:22:05.061Z</time></trkpt><trkpt lat="37.39414" lon="-3.0317517"><ele>1156.5</ele><time>2026-04-25T09:22:06.059Z</time></trkpt><trkpt lat="37.3941117" lon="-3.03213"><ele>1155.0</ele><time>2026-04-25T09:22:07.062Z</time></trkpt><trkpt lat="37.3940783" lon="-3.0325067"><ele>1154.0</ele><time>2026-04-25T09:22:08.058Z</time></trkpt><trkpt lat="37.3940417" lon="-3.0328817"><ele>1153.0</ele><time>2026-04-25T09:22:09.064Z</time></trkpt><trkpt lat="37.3940017" lon="-3.0332533"><ele>1151.5</ele><time>2026-04-25T09:22:10.061Z</time></trkpt><trkpt lat="37.393955" lon="-3.0336233"><ele>1150.0</ele><time>2026-04-25T09:22:11.061Z</time></trkpt><trkpt lat="37.3939067" lon="-3.0339917"><ele>1149.5</ele><time>2026-04-25T09:22:12.06Z</time></trkpt><trkpt lat="37.3938533" lon="-3.0343583"><ele>1149.0</ele><time>2026-04-25T09:22:13.06Z</time></trkpt><trkpt lat="37.3937933" lon="-3.0347233"><ele>1149.5</ele><time>2026-04-25T09:22:14.062Z</time></trkpt><trkpt lat="37.3937317" lon="-3.0350867"><ele>1150.0</ele><time>2026-04-25T09:22:15.06Z</time></trkpt><trkpt lat="37.3936633" lon="-3.0354483"><ele>1149.5</ele><time>2026-04-25T09:22:16.059Z</time></trkpt><trkpt lat="37.3935867" lon="-3.03581"><ele>1149.0</ele><time>2026-04-25T09:22:17.06Z</time></trkpt><trkpt lat="37.3935033" lon="-3.0361667"><ele>1149.0</ele><time>2026-04-25T09:22:18.059Z</time></trkpt><trkpt lat="37.3934133" lon="-3.03652"><ele>1149.0</ele><time>2026-04-25T09:22:19.064Z</time></trkpt><trkpt lat="37.3933183" lon="-3.0368767"><ele>1148.0</ele><time>2026-04-25T09:22:20.064Z</time></trkpt><trkpt lat="37.39322" lon="-3.037225"><ele>1147.0</ele><time>2026-04-25T09:22:21.058Z</time></trkpt><trkpt lat="37.393115" lon="-3.0375717"><ele>1145.5</ele><time>2026-04-25T09:22:22.059Z</time></trkpt><trkpt lat="37.393005" lon="-3.0379167"><ele>1144.0</ele><time>2026-04-25T09:22:23.061Z</time></trkpt><trkpt lat="37.39289" lon="-3.03826"><ele>1144.5</ele><time>2026-04-25T09:22:24.057Z</time></trkpt><trkpt lat="37.3927683" lon="-3.0385983"><ele>1145.0</ele><time>2026-04-25T09:22:25.062Z</time></trkpt><trkpt lat="37.392645" lon="-3.038935"><ele>1145.5</ele><time>2026-04-25T09:22:26.06Z</time></trkpt><trkpt lat="37.39252" lon="-3.0392717"><ele>1146.0</ele><time>2026-04-25T09:22:27.059Z</time></trkpt><trkpt lat="37.3923883" lon="-3.039605"><ele>1146.0</ele><time>2026-04-25T09:22:28.061Z</time></trkpt><trkpt lat="37.3922533" lon="-3.039935"><ele>1146.0</ele><time>2026-04-25T09:22:29.06Z</time></trkpt><trkpt lat="37.39211" lon="-3.0402567"><ele>1146.5</ele><time>2026-04-25T09:22:30.062Z</time></trkpt><trkpt lat="37.391965" lon="-3.040575"><ele>1147.0</ele><time>2026-04-25T09:22:31.061Z</time></trkpt><trkpt lat="37.391815" lon="-3.0408917"><ele>1147.5</ele><time>2026-04-25T09:22:32.06Z</time></trkpt><trkpt lat="37.39166" lon="-3.0412033"><ele>1148.0</ele><time>2026-04-25T09:22:33.061Z</time></trkpt><trkpt lat="37.3915" lon="-3.0415117"><ele>1149.5</ele><time>2026-04-25T09:22:34.056Z</time></trkpt><trkpt lat="37.3913367" lon="-3.041815"><ele>1151.0</ele><time>2026-04-25T09:22:35.061Z</time></trkpt><trkpt lat="37.3911667" lon="-3.0421133"><ele>1151.0</ele><time>2026-04-25T09:22:36.062Z</time></trkpt><trkpt lat="37.3909933" lon="-3.04241"><ele>1151.0</ele><time>2026-04-25T09:22:37.061Z</time></trkpt><trkpt lat="37.3908183" lon="-3.0427017"><ele>1151.0</ele><time>2026-04-25T09:22:38.059Z</time></trkpt><trkpt lat="37.39064" lon="-3.0429867"><ele>1151.0</ele><time>2026-04-25T09:22:39.063Z</time></trkpt><trkpt lat="37.390455" lon="-3.0432717"><ele>1149.5</ele><time>2026-04-25T09:22:40.06Z</time></trkpt><trkpt lat="37.390265" lon="-3.043555"><ele>1148.0</ele><time>2026-04-25T09:22:41.066Z</time></trkpt><trkpt lat="37.3900733" lon="-3.0438383"><ele>1148.0</ele><time>2026-04-25T09:22:42.058Z</time></trkpt><trkpt lat="37.389875" lon="-3.0441183"><ele>1148.0</ele><time>2026-04-25T09:22:43.061Z</time></trkpt><trkpt lat="37.3896733" lon="-3.0444"><ele>1144.5</ele><time>2026-04-25T09:22:44.06Z</time></trkpt><trkpt lat="37.3894683" lon="-3.0446783"><ele>1141.0</ele><time>2026-04-25T09:22:45.062Z</time></trkpt><trkpt lat="37.3892633" lon="-3.044955"><ele>1140.5</ele><time>2026-04-25T09:22:46.071Z</time></trkpt><trkpt lat="37.389055" lon="-3.045225"><ele>1140.0</ele><time>2026-04-25T09:22:47.062Z</time></trkpt><trkpt lat="37.388845" lon="-3.0454933"><ele>1139.0</ele><time>2026-04-25T09:22:48.062Z</time></trkpt><trkpt lat="37.3886383" lon="-3.0457617"><ele>1138.0</ele><time>2026-04-25T09:22:49.061Z</time></trkpt><trkpt lat="37.38843" lon="-3.04603"><ele>1136.5</ele><time>2026-04-25T09:22:50.064Z</time></trkpt><trkpt lat="37.3882217" lon="-3.0462983"><ele>1135.0</ele><time>2026-04-25T09:22:51.06Z</time></trkpt><trkpt lat="37.3880133" lon="-3.046565"><ele>1134.5</ele><time>2026-04-25T09:22:52.057Z</time></trkpt><trkpt lat="37.387805" lon="-3.0468317"><ele>1134.0</ele><time>2026-04-25T09:22:53.061Z</time></trkpt><trkpt lat="37.3875983" lon="-3.047095"><ele>1134.0</ele><time>2026-04-25T09:22:54.067Z</time></trkpt><trkpt lat="37.3873917" lon="-3.0473567"><ele>1134.0</ele><time>2026-04-25T09:22:55.057Z</time></trkpt><trkpt lat="37.387185" lon="-3.04762"><ele>1134.0</ele><time>2026-04-25T09:22:56.063Z</time></trkpt><trkpt lat="37.38698" lon="-3.04788"><ele>1134.0</ele><time>2026-04-25T09:22:57.058Z</time></trkpt><trkpt lat="37.3867767" lon="-3.04814"><ele>1133.0</ele><time>2026-04-25T09:22:58.063Z</time></trkpt><trkpt lat="37.3865717" lon="-3.0484017"><ele>1132.0</ele><time>2026-04-25T09:22:59.061Z</time></trkpt><trkpt lat="37.3863683" lon="-3.048665"><ele>1132.0</ele><time>2026-04-25T09:23:00.061Z</time></trkpt><trkpt lat="37.386165" lon="-3.0489283"><ele>1132.0</ele><time>2026-04-25T09:23:01.058Z</time></trkpt><trkpt lat="37.3859633" lon="-3.04919"><ele>1132.0</ele><time>2026-04-25T09:23:02.061Z</time></trkpt><trkpt lat="37.3857633" lon="-3.0494517"><ele>1132.0</ele><time>2026-04-25T09:23:03.064Z</time></trkpt><trkpt lat="37.38556" lon="-3.0497133"><ele>1132.0</ele><time>2026-04-25T09:23:04.058Z</time></trkpt><trkpt lat="37.3853583" lon="-3.0499733"><ele>1132.0</ele><time>2026-04-25T09:23:05.064Z</time></trkpt><trkpt lat="37.3851567" lon="-3.0502317"><ele>1132.0</ele><time>2026-04-25T09:23:06.064Z</time></trkpt><trkpt lat="37.3849533" lon="-3.05049"><ele>1132.0</ele><time>2026-04-25T09:23:07.062Z</time></trkpt><trkpt lat="37.38475" lon="-3.0507483"><ele>1132.0</ele><time>2026-04-25T09:23:08.066Z</time></trkpt><trkpt lat="37.384545" lon="-3.0510067"><ele>1132.0</ele><time>2026-04-25T09:23:09.06Z</time></trkpt><trkpt lat="37.38434" lon="-3.051265"><ele>1132.0</ele><time>2026-04-25T09:23:10.061Z</time></trkpt><trkpt lat="37.3841367" lon="-3.0515233"><ele>1132.0</ele><time>2026-04-25T09:23:11.064Z</time></trkpt><trkpt lat="37.3839317" lon="-3.0517817"><ele>1133.0</ele><time>2026-04-25T09:23:12.062Z</time></trkpt><trkpt lat="37.3837267" lon="-3.05204"><ele>1134.0</ele><time>2026-04-25T09:23:13.06Z</time></trkpt><trkpt lat="37.3835233" lon="-3.0523017"><ele>1133.0</ele><time>2026-04-25T09:23:14.061Z</time></trkpt><trkpt lat="37.38332" lon="-3.0525667"><ele>1132.0</ele><time>2026-04-25T09:23:15.058Z</time></trkpt><trkpt lat="37.383115" lon="-3.0528333"><ele>1132.5</ele><time>2026-04-25T09:23:16.057Z</time></trkpt><trkpt lat="37.3829083" lon="-3.0531"><ele>1133.0</ele><time>2026-04-25T09:23:17.063Z</time></trkpt><trkpt lat="37.3827" lon="-3.0533667"><ele>1133.0</ele><time>2026-04-25T09:23:18.062Z</time></trkpt><trkpt lat="37.3824917" lon="-3.053635"><ele>1133.0</ele><time>2026-04-25T09:23:19.062Z</time></trkpt><trkpt lat="37.38228" lon="-3.0539017"><ele>1133.0</ele><time>2026-04-25T09:23:20.06Z</time></trkpt><trkpt lat="37.3820683" lon="-3.0541717"><ele>1133.0</ele><time>2026-04-25T09:23:21.062Z</time></trkpt><trkpt lat="37.3818583" lon="-3.0544433"><ele>1133.0</ele><time>2026-04-25T09:23:22.061Z</time></trkpt><trkpt lat="37.3816483" lon="-3.0547167"><ele>1133.0</ele><time>2026-04-25T09:23:23.062Z</time></trkpt><trkpt lat="37.38144" lon="-3.0549883"><ele>1132.0</ele><time>2026-04-25T09:23:24.062Z</time></trkpt><trkpt lat="37.38123" lon="-3.05526"><ele>1131.0</ele><time>2026-04-25T09:23:25.058Z</time></trkpt><trkpt lat="37.3810183" lon="-3.0555333"><ele>1130.0</ele><time>2026-04-25T09:23:26.064Z</time></trkpt><trkpt lat="37.3808067" lon="-3.0558033"><ele>1129.0</ele><time>2026-04-25T09:23:27.062Z</time></trkpt><trkpt lat="37.3805933" lon="-3.056075"><ele>1132.0</ele><time>2026-04-25T09:23:28.059Z</time></trkpt><trkpt lat="37.38038" lon="-3.0563433"><ele>1135.0</ele><time>2026-04-25T09:23:29.058Z</time></trkpt><trkpt lat="37.3801717" lon="-3.05661"><ele>1135.5</ele><time>2026-04-25T09:23:30.059Z</time></trkpt><trkpt lat="37.3799667" lon="-3.0568683"><ele>1136.0</ele><time>2026-04-25T09:23:31.062Z</time></trkpt><trkpt lat="37.3797667" lon="-3.0571217"><ele>1136.0</ele><time>2026-04-25T09:23:32.061Z</time></trkpt><trkpt lat="37.3795683" lon="-3.0573717"><ele>1136.0</ele><time>2026-04-25T09:23:33.063Z</time></trkpt><trkpt lat="37.3793733" lon="-3.05762"><ele>1136.0</ele><time>2026-04-25T09:23:34.065Z</time></trkpt><trkpt lat="37.3791767" lon="-3.0578667"><ele>1136.0</ele><time>2026-04-25T09:23:35.058Z</time></trkpt><trkpt lat="37.3789817" lon="-3.0581167"><ele>1136.5</ele><time>2026-04-25T09:23:36.059Z</time></trkpt><trkpt lat="37.3787867" lon="-3.0583683"><ele>1137.0</ele><time>2026-04-25T09:23:37.059Z</time></trkpt><trkpt lat="37.3785933" lon="-3.0586233"><ele>1137.0</ele><time>2026-04-25T09:23:38.06Z</time></trkpt><trkpt lat="37.3784017" lon="-3.0588817"><ele>1137.0</ele><time>2026-04-25T09:23:39.068Z</time></trkpt><trkpt lat="37.3782133" lon="-3.05915"><ele>1137.0</ele><time>2026-04-25T09:23:40.063Z</time></trkpt><trkpt lat="37.3780317" lon="-3.0594283"><ele>1137.0</ele><time>2026-04-25T09:23:41.06Z</time></trkpt><trkpt lat="37.377855" lon="-3.0597167"><ele>1135.5</ele><time>2026-04-25T09:23:42.061Z</time></trkpt><trkpt lat="37.377685" lon="-3.0600133"><ele>1134.0</ele><time>2026-04-25T09:23:43.066Z</time></trkpt><trkpt lat="37.3775183" lon="-3.060315"><ele>1134.0</ele><time>2026-04-25T09:23:44.065Z</time></trkpt><trkpt lat="37.3773567" lon="-3.0606267"><ele>1134.0</ele><time>2026-04-25T09:23:45.061Z</time></trkpt><trkpt lat="37.3772067" lon="-3.06095"><ele>1133.5</ele><time>2026-04-25T09:23:46.062Z</time></trkpt><trkpt lat="37.3770667" lon="-3.0612817"><ele>1133.0</ele><time>2026-04-25T09:23:47.062Z</time></trkpt><trkpt lat="37.376935" lon="-3.0616217"><ele>1131.0</ele><time>2026-04-25T09:23:48.066Z</time></trkpt><trkpt lat="37.3768067" lon="-3.0619667"><ele>1129.0</ele><time>2026-04-25T09:23:49.063Z</time></trkpt><trkpt lat="37.37669" lon="-3.062315"><ele>1128.0</ele><time>2026-04-25T09:23:50.061Z</time></trkpt><trkpt lat="37.3765817" lon="-3.0626667"><ele>1127.0</ele><time>2026-04-25T09:23:51.059Z</time></trkpt><trkpt lat="37.3764867" lon="-3.0630217"><ele>1127.0</ele><time>2026-04-25T09:23:52.06Z</time></trkpt><trkpt lat="37.3763983" lon="-3.063375"><ele>1127.0</ele><time>2026-04-25T09:23:53.062Z</time></trkpt><trkpt lat="37.3763217" lon="-3.0637317"><ele>1127.5</ele><time>2026-04-25T09:23:54.063Z</time></trkpt><trkpt lat="37.3762567" lon="-3.0640867"><ele>1128.0</ele><time>2026-04-25T09:23:55.063Z</time></trkpt><trkpt lat="37.3762017" lon="-3.06444"><ele>1127.0</ele><time>2026-04-25T09:23:56.059Z</time></trkpt><trkpt lat="37.37615" lon="-3.0647933"><ele>1126.0</ele><time>2026-04-25T09:23:57.068Z</time></trkpt><trkpt lat="37.376105" lon="-3.0651433"><ele>1125.0</ele><time>2026-04-25T09:23:58.06Z</time></trkpt><trkpt lat="37.37606" lon="-3.0654933"><ele>1124.0</ele><time>2026-04-25T09:23:59.059Z</time></trkpt><trkpt lat="37.37601" lon="-3.0658517"><ele>1123.5</ele><time>2026-04-25T09:24:00.062Z</time></trkpt><trkpt lat="37.3759617" lon="-3.0662117"><ele>1123.0</ele><time>2026-04-25T09:24:01.062Z</time></trkpt><trkpt lat="37.37591" lon="-3.0665717"><ele>1121.5</ele><time>2026-04-25T09:24:02.06Z</time></trkpt><trkpt lat="37.3758467" lon="-3.0669333"><ele>1120.0</ele><time>2026-04-25T09:24:03.066Z</time></trkpt><trkpt lat="37.3757667" lon="-3.0672917"><ele>1118.0</ele><time>2026-04-25T09:24:04.062Z</time></trkpt><trkpt lat="37.3756667" lon="-3.0676417"><ele>1116.0</ele><time>2026-04-25T09:24:05.058Z</time></trkpt><trkpt lat="37.3755483" lon="-3.0679817"><ele>1116.5</ele><time>2026-04-25T09:24:06.064Z</time></trkpt><trkpt lat="37.3754133" lon="-3.068315"><ele>1117.0</ele><time>2026-04-25T09:24:07.062Z</time></trkpt><trkpt lat="37.375265" lon="-3.06864"><ele>1117.0</ele><time>2026-04-25T09:24:08.064Z</time></trkpt><trkpt lat="37.3751017" lon="-3.0689517"><ele>1117.0</ele><time>2026-04-25T09:24:09.06Z</time></trkpt><trkpt lat="37.3749233" lon="-3.0692483"><ele>1117.5</ele><time>2026-04-25T09:24:10.063Z</time></trkpt><trkpt lat="37.3747317" lon="-3.069535"><ele>1118.0</ele><time>2026-04-25T09:24:11.066Z</time></trkpt><trkpt lat="37.37453" lon="-3.069805"><ele>1118.5</ele><time>2026-04-25T09:24:12.062Z</time></trkpt><trkpt lat="37.374315" lon="-3.0700617"><ele>1119.0</ele><time>2026-04-25T09:24:13.063Z</time></trkpt><trkpt lat="37.37409" lon="-3.0703033"><ele>1119.0</ele><time>2026-04-25T09:24:14.061Z</time></trkpt><trkpt lat="37.373855" lon="-3.0705267"><ele>1119.0</ele><time>2026-04-25T09:24:15.058Z</time></trkpt><trkpt lat="37.37361" lon="-3.07073"><ele>1119.0</ele><time>2026-04-25T09:24:16.062Z</time></trkpt><trkpt lat="37.373355" lon="-3.070915"><ele>1119.0</ele><time>2026-04-25T09:24:17.06Z</time></trkpt><trkpt lat="37.3730917" lon="-3.07108"><ele>1120.0</ele><time>2026-04-25T09:24:18.06Z</time></trkpt><trkpt lat="37.37282" lon="-3.0712233"><ele>1121.0</ele><time>2026-04-25T09:24:19.058Z</time></trkpt><trkpt lat="37.3725433" lon="-3.0713483"><ele>1121.0</ele><time>2026-04-25T09:24:20.068Z</time></trkpt><trkpt lat="37.3722617" lon="-3.0714517"><ele>1121.0</ele><time>2026-04-25T09:24:21.061Z</time></trkpt><trkpt lat="37.371975" lon="-3.0715367"><ele>1121.5</ele><time>2026-04-25T09:24:22.059Z</time></trkpt><trkpt lat="37.371685" lon="-3.071605"><ele>1122.0</ele><time>2026-04-25T09:24:23.063Z</time></trkpt><trkpt lat="37.3713933" lon="-3.071655"><ele>1121.0</ele><time>2026-04-25T09:24:24.062Z</time></trkpt><trkpt lat="37.3711033" lon="-3.0716933"><ele>1120.0</ele><time>2026-04-25T09:24:25.063Z</time></trkpt><trkpt lat="37.370815" lon="-3.0717267"><ele>1120.0</ele><time>2026-04-25T09:24:26.062Z</time></trkpt><trkpt lat="37.370525" lon="-3.07176"><ele>1120.0</ele><time>2026-04-25T09:24:27.062Z</time></trkpt><trkpt lat="37.370235" lon="-3.0717967"><ele>1120.0</ele><time>2026-04-25T09:24:28.061Z</time></trkpt><trkpt lat="37.369945" lon="-3.071835"><ele>1120.0</ele><time>2026-04-25T09:24:29.061Z</time></trkpt><trkpt lat="37.3696567" lon="-3.07188"><ele>1120.0</ele><time>2026-04-25T09:24:30.059Z</time></trkpt><trkpt lat="37.3693667" lon="-3.0719317"><ele>1120.0</ele><time>2026-04-25T09:24:31.062Z</time></trkpt><trkpt lat="37.36908" lon="-3.0719983"><ele>1120.5</ele><time>2026-04-25T09:24:32.06Z</time></trkpt><trkpt lat="37.3687933" lon="-3.0720767"><ele>1121.0</ele><time>2026-04-25T09:24:33.063Z</time></trkpt><trkpt lat="37.3685083" lon="-3.072165"><ele>1121.0</ele><time>2026-04-25T09:24:34.065Z</time></trkpt><trkpt lat="37.3682233" lon="-3.0722633"><ele>1121.0</ele><time>2026-04-25T09:24:35.06Z</time></trkpt><trkpt lat="37.36794" lon="-3.072375"><ele>1122.5</ele><time>2026-04-25T09:24:36.063Z</time></trkpt><trkpt lat="37.36766" lon="-3.0725"><ele>1124.0</ele><time>2026-04-25T09:24:37.062Z</time></trkpt><trkpt lat="37.367385" lon="-3.072635"><ele>1124.5</ele><time>2026-04-25T09:24:38.063Z</time></trkpt><trkpt lat="37.3671133" lon="-3.0727833"><ele>1125.0</ele><time>2026-04-25T09:24:39.062Z</time></trkpt><trkpt lat="37.366845" lon="-3.07294"><ele>1125.0</ele><time>2026-04-25T09:24:40.06Z</time></trkpt><trkpt lat="37.36658" lon="-3.0731083"><ele>1125.0</ele><time>2026-04-25T09:24:41.066Z</time></trkpt><trkpt lat="37.3663167" lon="-3.0732833"><ele>1125.0</ele><time>2026-04-25T09:24:42.062Z</time></trkpt><trkpt lat="37.3660567" lon="-3.07347"><ele>1125.0</ele><time>2026-04-25T09:24:43.062Z</time></trkpt><trkpt lat="37.3658033" lon="-3.0736717"><ele>1125.0</ele><time>2026-04-25T09:24:44.063Z</time></trkpt><trkpt lat="37.365555" lon="-3.07389"><ele>1125.0</ele><time>2026-04-25T09:24:45.06Z</time></trkpt><trkpt lat="37.36531" lon="-3.074115"><ele>1123.5</ele><time>2026-04-25T09:24:46.06Z</time></trkpt><trkpt lat="37.36507" lon="-3.07435"><ele>1122.0</ele><time>2026-04-25T09:24:47.064Z</time></trkpt><trkpt lat="37.364835" lon="-3.074595"><ele>1121.5</ele><time>2026-04-25T09:24:48.062Z</time></trkpt><trkpt lat="37.3646033" lon="-3.0748467"><ele>1121.0</ele><time>2026-04-25T09:24:49.066Z</time></trkpt><trkpt lat="37.36437" lon="-3.0751017"><ele>1121.0</ele><time>2026-04-25T09:24:50.058Z</time></trkpt><trkpt lat="37.3641383" lon="-3.0753583"><ele>1121.0</ele><time>2026-04-25T09:24:51.063Z</time></trkpt><trkpt lat="37.3639" lon="-3.0756083"><ele>1119.5</ele><time>2026-04-25T09:24:52.059Z</time></trkpt><trkpt lat="37.36366" lon="-3.0758567"><ele>1118.0</ele><time>2026-04-25T09:24:53.061Z</time></trkpt><trkpt lat="37.3634217" lon="-3.076105"><ele>1118.0</ele><time>2026-04-25T09:24:54.06Z</time></trkpt><trkpt lat="37.3631833" lon="-3.0763533"><ele>1118.0</ele><time>2026-04-25T09:24:55.062Z</time></trkpt><trkpt lat="37.362945" lon="-3.0766033"><ele>1118.5</ele><time>2026-04-25T09:24:56.063Z</time></trkpt><trkpt lat="37.3627067" lon="-3.0768533"><ele>1119.0</ele><time>2026-04-25T09:24:57.065Z</time></trkpt><trkpt lat="37.3624683" lon="-3.0771033"><ele>1119.0</ele><time>2026-04-25T09:24:58.065Z</time></trkpt><trkpt lat="37.36223" lon="-3.0773533"><ele>1119.0</ele><time>2026-04-25T09:24:59.063Z</time></trkpt><trkpt lat="37.36199" lon="-3.0776033"><ele>1117.0</ele><time>2026-04-25T09:25:00.063Z</time></trkpt><trkpt lat="37.36175" lon="-3.077855"><ele>1115.0</ele><time>2026-04-25T09:25:01.061Z</time></trkpt><trkpt lat="37.3615083" lon="-3.0781067"><ele>1114.0</ele><time>2026-04-25T09:25:02.069Z</time></trkpt><trkpt lat="37.3612683" lon="-3.0783617"><ele>1113.0</ele><time>2026-04-25T09:25:03.061Z</time></trkpt><trkpt lat="37.3610283" lon="-3.078615"><ele>1113.0</ele><time>2026-04-25T09:25:04.059Z</time></trkpt><trkpt lat="37.360785" lon="-3.0788667"><ele>1113.0</ele><time>2026-04-25T09:25:05.062Z</time></trkpt><trkpt lat="37.3605433" lon="-3.0791167"><ele>1112.5</ele><time>2026-04-25T09:25:06.063Z</time></trkpt><trkpt lat="37.360305" lon="-3.0793683"><ele>1112.0</ele><time>2026-04-25T09:25:07.066Z</time></trkpt><trkpt lat="37.3600667" lon="-3.07962"><ele>1112.0</ele><time>2026-04-25T09:25:08.063Z</time></trkpt><trkpt lat="37.359825" lon="-3.0798717"><ele>1112.0</ele><time>2026-04-25T09:25:09.062Z</time></trkpt><trkpt lat="37.3595817" lon="-3.0801217"><ele>1110.5</ele><time>2026-04-25T09:25:10.066Z</time></trkpt><trkpt lat="37.3593367" lon="-3.080375"><ele>1109.0</ele><time>2026-04-25T09:25:11.06Z</time></trkpt><trkpt lat="37.35909" lon="-3.0806283"><ele>1107.5</ele><time>2026-04-25T09:25:12.063Z</time></trkpt><trkpt lat="37.3588467" lon="-3.0808867"><ele>1106.0</ele><time>2026-04-25T09:25:13.061Z</time></trkpt><trkpt lat="37.3586017" lon="-3.08114"><ele>1106.0</ele><time>2026-04-25T09:25:14.061Z</time></trkpt><trkpt lat="37.35836" lon="-3.0813933"><ele>1106.0</ele><time>2026-04-25T09:25:15.06Z</time></trkpt><trkpt lat="37.3581233" lon="-3.081645"><ele>1104.5</ele><time>2026-04-25T09:25:16.058Z</time></trkpt><trkpt lat="37.357885" lon="-3.0818933"><ele>1103.0</ele><time>2026-04-25T09:25:17.058Z</time></trkpt><trkpt lat="37.3576483" lon="-3.08214"><ele>1103.0</ele><time>2026-04-25T09:25:18.06Z</time></trkpt><trkpt lat="37.3574117" lon="-3.0823833"><ele>1103.0</ele><time>2026-04-25T09:25:19.065Z</time></trkpt><trkpt lat="37.3571767" lon="-3.0826267"><ele>1102.0</ele><time>2026-04-25T09:25:20.058Z</time></trkpt><trkpt lat="37.3569417" lon="-3.0828683"><ele>1101.0</ele><time>2026-04-25T09:25:21.063Z</time></trkpt><trkpt lat="37.3567083" lon="-3.08311"><ele>1099.5</ele><time>2026-04-25T09:25:22.062Z</time></trkpt><trkpt lat="37.3564767" lon="-3.08335"><ele>1098.0</ele><time>2026-04-25T09:25:23.064Z</time></trkpt><trkpt lat="37.356245" lon="-3.08359"><ele>1097.0</ele><time>2026-04-25T09:25:24.064Z</time></trkpt><trkpt lat="37.356015" lon="-3.0838283"><ele>1096.0</ele><time>2026-04-25T09:25:25.062Z</time></trkpt><trkpt lat="37.355785" lon="-3.084065"><ele>1095.0</ele><time>2026-04-25T09:25:26.064Z</time></trkpt><trkpt lat="37.3555567" lon="-3.0843017"><ele>1094.0</ele><time>2026-04-25T09:25:27.063Z</time></trkpt><trkpt lat="37.3553283" lon="-3.0845367"><ele>1093.5</ele><time>2026-04-25T09:25:28.065Z</time></trkpt><trkpt lat="37.3551017" lon="-3.08477"><ele>1093.0</ele><time>2026-04-25T09:25:29.064Z</time></trkpt><trkpt lat="37.3548767" lon="-3.0850067"><ele>1092.0</ele><time>2026-04-25T09:25:30.061Z</time></trkpt><trkpt lat="37.35465" lon="-3.0852417"><ele>1091.0</ele><time>2026-04-25T09:25:31.059Z</time></trkpt><trkpt lat="37.3544233" lon="-3.085475"><ele>1091.0</ele><time>2026-04-25T09:25:32.064Z</time></trkpt><trkpt lat="37.354195" lon="-3.0857083"><ele>1091.0</ele><time>2026-04-25T09:25:33.06Z</time></trkpt><trkpt lat="37.353965" lon="-3.085935"><ele>1088.5</ele><time>2026-04-25T09:25:34.061Z</time></trkpt><trkpt lat="37.3537317" lon="-3.0861617"><ele>1086.0</ele><time>2026-04-25T09:25:35.06Z</time></trkpt><trkpt lat="37.3534933" lon="-3.086385"><ele>1085.5</ele><time>2026-04-25T09:25:36.062Z</time></trkpt><trkpt lat="37.353255" lon="-3.086605"><ele>1085.0</ele><time>2026-04-25T09:25:37.06Z</time></trkpt><trkpt lat="37.3530133" lon="-3.0868233"><ele>1083.5</ele><time>2026-04-25T09:25:38.057Z</time></trkpt><trkpt lat="37.35277" lon="-3.0870383"><ele>1082.0</ele><time>2026-04-25T09:25:39.057Z</time></trkpt><trkpt lat="37.3525217" lon="-3.08725"><ele>1081.0</ele><time>2026-04-25T09:25:40.06Z</time></trkpt><trkpt lat="37.3522733" lon="-3.0874567"><ele>1080.0</ele><time>2026-04-25T09:25:41.063Z</time></trkpt><trkpt lat="37.352025" lon="-3.0876583"><ele>1080.0</ele><time>2026-04-25T09:25:42.065Z</time></trkpt><trkpt lat="37.3517767" lon="-3.0878583"><ele>1080.0</ele><time>2026-04-25T09:25:43.061Z</time></trkpt><trkpt lat="37.351525" lon="-3.0880517"><ele>1079.5</ele><time>2026-04-25T09:25:44.066Z</time></trkpt><trkpt lat="37.3512733" lon="-3.0882433"><ele>1079.0</ele><time>2026-04-25T09:25:45.061Z</time></trkpt><trkpt lat="37.3510217" lon="-3.088435"><ele>1079.0</ele><time>2026-04-25T09:25:46.06Z</time></trkpt><trkpt lat="37.35077" lon="-3.0886217"><ele>1079.0</ele><time>2026-04-25T09:25:47.062Z</time></trkpt><trkpt lat="37.3505183" lon="-3.0888033"><ele>1079.0</ele><time>2026-04-25T09:25:48.057Z</time></trkpt><trkpt lat="37.3502633" lon="-3.0889817"><ele>1079.0</ele><time>2026-04-25T09:25:49.061Z</time></trkpt><trkpt lat="37.350005" lon="-3.0891567"><ele>1079.0</ele><time>2026-04-25T09:25:50.061Z</time></trkpt><trkpt lat="37.3497433" lon="-3.08933"><ele>1079.0</ele><time>2026-04-25T09:25:51.06Z</time></trkpt><trkpt lat="37.3494783" lon="-3.0895"><ele>1077.5</ele><time>2026-04-25T09:25:52.062Z</time></trkpt><trkpt lat="37.34921" lon="-3.0896683"><ele>1076.0</ele><time>2026-04-25T09:25:53.06Z</time></trkpt><trkpt lat="37.34894" lon="-3.089835"><ele>1070.0</ele><time>2026-04-25T09:25:54.062Z</time></trkpt><trkpt lat="37.3486667" lon="-3.0899983"><ele>1064.0</ele><time>2026-04-25T09:25:55.061Z</time></trkpt><trkpt lat="37.3483867" lon="-3.0901583"><ele>1064.0</ele><time>2026-04-25T09:25:56.065Z</time></trkpt><trkpt lat="37.348105" lon="-3.0903167"><ele>1064.0</ele><time>2026-04-25T09:25:57.061Z</time></trkpt><trkpt lat="37.3478233" lon="-3.0904717"><ele>1066.0</ele><time>2026-04-25T09:25:58.061Z</time></trkpt><trkpt lat="37.34754" lon="-3.090625"><ele>1068.0</ele><time>2026-04-25T09:25:59.06Z</time></trkpt><trkpt lat="37.3472583" lon="-3.0907733"><ele>1068.5</ele><time>2026-04-25T09:26:00.059Z</time></trkpt><trkpt lat="37.346975" lon="-3.09092"><ele>1069.0</ele><time>2026-04-25T09:26:01.063Z</time></trkpt><trkpt lat="37.3466883" lon="-3.0910617"><ele>1069.0</ele><time>2026-04-25T09:26:02.06Z</time></trkpt><trkpt lat="37.3464017" lon="-3.0911983"><ele>1069.0</ele><time>2026-04-25T09:26:03.064Z</time></trkpt><trkpt lat="37.3461133" lon="-3.0913283"><ele>1070.5</ele><time>2026-04-25T09:26:04.061Z</time></trkpt><trkpt lat="37.3458267" lon="-3.0914567"><ele>1072.0</ele><time>2026-04-25T09:26:05.061Z</time></trkpt><trkpt lat="37.3455417" lon="-3.0915783"><ele>1070.5</ele><time>2026-04-25T09:26:06.064Z</time></trkpt><trkpt lat="37.3452567" lon="-3.091695"><ele>1069.0</ele><time>2026-04-25T09:26:07.059Z</time></trkpt><trkpt lat="37.3449733" lon="-3.0918083"><ele>1069.5</ele><time>2026-04-25T09:26:08.061Z</time></trkpt><trkpt lat="37.34469" lon="-3.0919183"><ele>1070.0</ele><time>2026-04-25T09:26:09.059Z</time></trkpt><trkpt lat="37.344405" lon="-3.092025"><ele>1070.0</ele><time>2026-04-25T09:26:10.061Z</time></trkpt><trkpt lat="37.3441217" lon="-3.0921283"><ele>1070.0</ele><time>2026-04-25T09:26:11.058Z</time></trkpt><trkpt lat="37.3438383" lon="-3.0922267"><ele>1071.5</ele><time>2026-04-25T09:26:12.062Z</time></trkpt><trkpt lat="37.3435533" lon="-3.09232"><ele>1073.0</ele><time>2026-04-25T09:26:13.066Z</time></trkpt><trkpt lat="37.3432683" lon="-3.09241"><ele>1073.0</ele><time>2026-04-25T09:26:14.063Z</time></trkpt><trkpt lat="37.3429817" lon="-3.0924967"><ele>1073.0</ele><time>2026-04-25T09:26:15.064Z</time></trkpt><trkpt lat="37.3426933" lon="-3.0925817"><ele>1073.0</ele><time>2026-04-25T09:26:16.058Z</time></trkpt><trkpt lat="37.342405" lon="-3.0926633"><ele>1073.0</ele><time>2026-04-25T09:26:17.06Z</time></trkpt><trkpt lat="37.3421167" lon="-3.0927433"><ele>1073.0</ele><time>2026-04-25T09:26:18.062Z</time></trkpt><trkpt lat="37.34183" lon="-3.0928217"><ele>1073.0</ele><time>2026-04-25T09:26:19.059Z</time></trkpt><trkpt lat="37.34154" lon="-3.0928983"><ele>1073.5</ele><time>2026-04-25T09:26:20.062Z</time></trkpt><trkpt lat="37.34125" lon="-3.0929717"><ele>1074.0</ele><time>2026-04-25T09:26:21.059Z</time></trkpt><trkpt lat="37.3409617" lon="-3.0930467"><ele>1074.0</ele><time>2026-04-25T09:26:22.063Z</time></trkpt><trkpt lat="37.3406733" lon="-3.0931217"><ele>1074.0</ele><time>2026-04-25T09:26:23.06Z</time></trkpt><trkpt lat="37.3403817" lon="-3.0931967"><ele>1073.5</ele><time>2026-04-25T09:26:24.063Z</time></trkpt><trkpt lat="37.34009" lon="-3.0932717"><ele>1073.0</ele><time>2026-04-25T09:26:25.065Z</time></trkpt><trkpt lat="37.3398" lon="-3.0933483"><ele>1074.0</ele><time>2026-04-25T09:26:26.067Z</time></trkpt><trkpt lat="37.3395117" lon="-3.093425"><ele>1075.0</ele><time>2026-04-25T09:26:27.064Z</time></trkpt><trkpt lat="37.3392233" lon="-3.0935033"><ele>1075.0</ele><time>2026-04-25T09:26:28.062Z</time></trkpt><trkpt lat="37.338935" lon="-3.09358"><ele>1075.0</ele><time>2026-04-25T09:26:29.064Z</time></trkpt><trkpt lat="37.3386467" lon="-3.0936583"><ele>1077.5</ele><time>2026-04-25T09:26:30.06Z</time></trkpt><trkpt lat="37.3383583" lon="-3.0937367"><ele>1080.0</ele><time>2026-04-25T09:26:31.066Z</time></trkpt><trkpt lat="37.3380717" lon="-3.0938117"><ele>1080.5</ele><time>2026-04-25T09:26:32.062Z</time></trkpt><trkpt lat="37.337785" lon="-3.0938883"><ele>1081.0</ele><time>2026-04-25T09:26:33.062Z</time></trkpt><trkpt lat="37.3374983" lon="-3.0939617"><ele>1080.5</ele><time>2026-04-25T09:26:34.06Z</time></trkpt><trkpt lat="37.3372133" lon="-3.094035"><ele>1080.0</ele><time>2026-04-25T09:26:35.059Z</time></trkpt><trkpt lat="37.33693" lon="-3.0941117"><ele>1080.0</ele><time>2026-04-25T09:26:36.061Z</time></trkpt><trkpt lat="37.3366467" lon="-3.0941867"><ele>1080.0</ele><time>2026-04-25T09:26:37.059Z</time></trkpt><trkpt lat="37.3363667" lon="-3.0942633"><ele>1081.0</ele><time>2026-04-25T09:26:38.061Z</time></trkpt><trkpt lat="37.3360883" lon="-3.09434"><ele>1082.0</ele><time>2026-04-25T09:26:39.061Z</time></trkpt><trkpt lat="37.3358083" lon="-3.0944133"><ele>1083.0</ele><time>2026-04-25T09:26:40.059Z</time></trkpt><trkpt lat="37.33553" lon="-3.0944883"><ele>1084.0</ele><time>2026-04-25T09:26:41.059Z</time></trkpt><trkpt lat="37.33525" lon="-3.0945617"><ele>1084.0</ele><time>2026-04-25T09:26:42.061Z</time></trkpt><trkpt lat="37.33497" lon="-3.094635"><ele>1084.0</ele><time>2026-04-25T09:26:43.061Z</time></trkpt><trkpt lat="37.3346883" lon="-3.0947067"><ele>1084.5</ele><time>2026-04-25T09:26:44.061Z</time></trkpt><trkpt lat="37.3344067" lon="-3.09478"><ele>1085.0</ele><time>2026-04-25T09:26:45.062Z</time></trkpt><trkpt lat="37.334125" lon="-3.0948533"><ele>1082.0</ele><time>2026-04-25T09:26:46.06Z</time></trkpt><trkpt lat="37.3338417" lon="-3.094925"><ele>1079.0</ele><time>2026-04-25T09:26:47.063Z</time></trkpt><trkpt lat="37.3335567" lon="-3.0949967"><ele>1079.0</ele><time>2026-04-25T09:26:48.058Z</time></trkpt><trkpt lat="37.3332717" lon="-3.0950683"><ele>1079.0</ele><time>2026-04-25T09:26:49.064Z</time></trkpt><trkpt lat="37.33299" lon="-3.095145"><ele>1079.0</ele><time>2026-04-25T09:26:50.06Z</time></trkpt><trkpt lat="37.332705" lon="-3.09522"><ele>1079.0</ele><time>2026-04-25T09:26:51.058Z</time></trkpt><trkpt lat="37.33242" lon="-3.0952967"><ele>1077.5</ele><time>2026-04-25T09:26:52.06Z</time></trkpt><trkpt lat="37.3321367" lon="-3.0953767"><ele>1076.0</ele><time>2026-04-25T09:26:53.06Z</time></trkpt><trkpt lat="37.3318533" lon="-3.095465"><ele>1076.0</ele><time>2026-04-25T09:26:54.063Z</time></trkpt><trkpt lat="37.3315717" lon="-3.0955667"><ele>1076.0</ele><time>2026-04-25T09:26:55.063Z</time></trkpt><trkpt lat="37.331295" lon="-3.0956833"><ele>1072.5</ele><time>2026-04-25T09:26:56.06Z</time></trkpt><trkpt lat="37.3310217" lon="-3.09581"><ele>1069.0</ele><time>2026-04-25T09:26:57.063Z</time></trkpt><trkpt lat="37.3307533" lon="-3.0959467"><ele>1072.0</ele><time>2026-04-25T09:26:58.062Z</time></trkpt><trkpt lat="37.3304883" lon="-3.0960933"><ele>1075.0</ele><time>2026-04-25T09:26:59.06Z</time></trkpt><trkpt lat="37.330235" lon="-3.096255"><ele>1075.0</ele><time>2026-04-25T09:27:00.059Z</time></trkpt><trkpt lat="37.329985" lon="-3.096425"><ele>1075.0</ele><time>2026-04-25T09:27:01.062Z</time></trkpt><trkpt lat="37.3297433" lon="-3.0966033"><ele>1075.5</ele><time>2026-04-25T09:27:02.062Z</time></trkpt><trkpt lat="37.329505" lon="-3.0967933"><ele>1076.0</ele><time>2026-04-25T09:27:03.06Z</time></trkpt><trkpt lat="37.3292683" lon="-3.0969933"><ele>1076.0</ele><time>2026-04-25T09:27:04.06Z</time></trkpt><trkpt lat="37.3290367" lon="-3.0972033"><ele>1076.0</ele><time>2026-04-25T09:27:05.062Z</time></trkpt><trkpt lat="37.3288133" lon="-3.0974283"><ele>1075.5</ele><time>2026-04-25T09:27:06.061Z</time></trkpt><trkpt lat="37.3285967" lon="-3.097665"><ele>1075.0</ele><time>2026-04-25T09:27:07.061Z</time></trkpt><trkpt lat="37.328385" lon="-3.0979083"><ele>1075.0</ele><time>2026-04-25T09:27:08.061Z</time></trkpt><trkpt lat="37.3281783" lon="-3.0981617"><ele>1075.0</ele><time>2026-04-25T09:27:09.059Z</time></trkpt><trkpt lat="37.3279767" lon="-3.0984233"><ele>1073.0</ele><time>2026-04-25T09:27:10.059Z</time></trkpt><trkpt lat="37.3277833" lon="-3.0986883"><ele>1071.0</ele><time>2026-04-25T09:27:11.063Z</time></trkpt><trkpt lat="37.3275917" lon="-3.0989567"><ele>1071.5</ele><time>2026-04-25T09:27:12.059Z</time></trkpt><trkpt lat="37.3274017" lon="-3.0992267"><ele>1072.0</ele><time>2026-04-25T09:27:13.061Z</time></trkpt><trkpt lat="37.3272067" lon="-3.0994967"><ele>1069.5</ele><time>2026-04-25T09:27:14.061Z</time></trkpt><trkpt lat="37.3270133" lon="-3.0997683"><ele>1067.0</ele><time>2026-04-25T09:27:15.06Z</time></trkpt><trkpt lat="37.326815" lon="-3.1000433"><ele>1066.5</ele><time>2026-04-25T09:27:16.061Z</time></trkpt><trkpt lat="37.3266183" lon="-3.10032"><ele>1066.0</ele><time>2026-04-25T09:27:17.062Z</time></trkpt><trkpt lat="37.3264217" lon="-3.1006017"><ele>1064.0</ele><time>2026-04-25T09:27:18.064Z</time></trkpt><trkpt lat="37.3262233" lon="-3.100885"><ele>1062.0</ele><time>2026-04-25T09:27:19.059Z</time></trkpt><trkpt lat="37.3260217" lon="-3.1011683"><ele>1062.0</ele><time>2026-04-25T09:27:20.06Z</time></trkpt><trkpt lat="37.3258217" lon="-3.1014567"><ele>1062.0</ele><time>2026-04-25T09:27:21.061Z</time></trkpt><trkpt lat="37.3256217" lon="-3.101745"><ele>1059.0</ele><time>2026-04-25T09:27:22.061Z</time></trkpt><trkpt lat="37.3254183" lon="-3.1020333"><ele>1056.0</ele><time>2026-04-25T09:27:23.067Z</time></trkpt><trkpt lat="37.3252167" lon="-3.1023233"><ele>1054.5</ele><time>2026-04-25T09:27:24.062Z</time></trkpt><trkpt lat="37.325015" lon="-3.1026117"><ele>1053.0</ele><time>2026-04-25T09:27:25.063Z</time></trkpt><trkpt lat="37.3248133" lon="-3.1029"><ele>1051.5</ele><time>2026-04-25T09:27:26.061Z</time></trkpt><trkpt lat="37.3246183" lon="-3.1031933"><ele>1050.0</ele><time>2026-04-25T09:27:27.061Z</time></trkpt><trkpt lat="37.3244333" lon="-3.103495"><ele>1050.0</ele><time>2026-04-25T09:27:28.06Z</time></trkpt><trkpt lat="37.3242633" lon="-3.1038067"><ele>1050.0</ele><time>2026-04-25T09:27:29.061Z</time></trkpt><trkpt lat="37.324105" lon="-3.1041233"><ele>1048.0</ele><time>2026-04-25T09:27:30.058Z</time></trkpt><trkpt lat="37.3239567" lon="-3.1044483"><ele>1046.0</ele><time>2026-04-25T09:27:31.064Z</time></trkpt><trkpt lat="37.3238217" lon="-3.10478"><ele>1040.5</ele><time>2026-04-25T09:27:32.059Z</time></trkpt><trkpt lat="37.3236933" lon="-3.105115"><ele>1035.0</ele><time>2026-04-25T09:27:33.061Z</time></trkpt><trkpt lat="37.3235767" lon="-3.1054567"><ele>1036.0</ele><time>2026-04-25T09:27:34.058Z</time></trkpt><trkpt lat="37.32348" lon="-3.1058033"><ele>1037.0</ele><time>2026-04-25T09:27:35.063Z</time></trkpt><trkpt lat="37.3233983" lon="-3.1061583"><ele>1037.0</ele><time>2026-04-25T09:27:36.059Z</time></trkpt><trkpt lat="37.323335" lon="-3.1065183"><ele>1037.0</ele><time>2026-04-25T09:27:37.06Z</time></trkpt><trkpt lat="37.3232833" lon="-3.1068817"><ele>1035.5</ele><time>2026-04-25T09:27:38.064Z</time></trkpt><trkpt lat="37.3232433" lon="-3.1072433"><ele>1034.0</ele><time>2026-04-25T09:27:39.062Z</time></trkpt><trkpt lat="37.3232183" lon="-3.1076083"><ele>1033.5</ele><time>2026-04-25T09:27:40.06Z</time></trkpt><trkpt lat="37.3232017" lon="-3.1079733"><ele>1033.0</ele><time>2026-04-25T09:27:41.062Z</time></trkpt><trkpt lat="37.32319" lon="-3.1083367"><ele>1031.0</ele><time>2026-04-25T09:27:42.061Z</time></trkpt><trkpt lat="37.3231767" lon="-3.1087033"><ele>1029.0</ele><time>2026-04-25T09:27:43.06Z</time></trkpt><trkpt lat="37.3231633" lon="-3.10907"><ele>1025.5</ele><time>2026-04-25T09:27:44.063Z</time></trkpt><trkpt lat="37.32314" lon="-3.1094367"><ele>1022.0</ele><time>2026-04-25T09:27:45.063Z</time></trkpt><trkpt lat="37.323105" lon="-3.109805"><ele>1016.0</ele><time>2026-04-25T09:27:46.058Z</time></trkpt><trkpt lat="37.323055" lon="-3.1101717"><ele>1010.0</ele><time>2026-04-25T09:27:47.063Z</time></trkpt><trkpt lat="37.3229917" lon="-3.110535"><ele>1009.0</ele><time>2026-04-25T09:27:48.059Z</time></trkpt><trkpt lat="37.3229133" lon="-3.1108933"><ele>1008.0</ele><time>2026-04-25T09:27:49.062Z</time></trkpt><trkpt lat="37.322825" lon="-3.11125"><ele>1010.0</ele><time>2026-04-25T09:27:50.061Z</time></trkpt><trkpt lat="37.32273" lon="-3.111605"><ele>1012.0</ele><time>2026-04-25T09:27:51.061Z</time></trkpt><trkpt lat="37.3226317" lon="-3.1119633"><ele>1012.0</ele><time>2026-04-25T09:27:52.059Z</time></trkpt><trkpt lat="37.322535" lon="-3.1123233"><ele>1012.0</ele><time>2026-04-25T09:27:53.059Z</time></trkpt><trkpt lat="37.32244" lon="-3.11268"><ele>1012.0</ele><time>2026-04-25T09:27:54.059Z</time></trkpt><trkpt lat="37.3223433" lon="-3.1130367"><ele>1012.0</ele><time>2026-04-25T09:27:55.058Z</time></trkpt><trkpt lat="37.3222467" lon="-3.113395"><ele>1001.5</ele><time>2026-04-25T09:27:56.06Z</time></trkpt><trkpt lat="37.32215" lon="-3.11375"><ele>991.0</ele><time>2026-04-25T09:27:57.058Z</time></trkpt><trkpt lat="37.322055" lon="-3.114105"><ele>991.0</ele><time>2026-04-25T09:27:58.062Z</time></trkpt><trkpt lat="37.3219617" lon="-3.1144567"><ele>991.0</ele><time>2026-04-25T09:27:59.061Z</time></trkpt><trkpt lat="37.3218733" lon="-3.1148067"><ele>991.0</ele><time>2026-04-25T09:28:00.061Z</time></trkpt><trkpt lat="37.3217933" lon="-3.1151533"><ele>991.0</ele><time>2026-04-25T09:28:01.062Z</time></trkpt><trkpt lat="37.321725" lon="-3.1155067"><ele>992.5</ele><time>2026-04-25T09:28:02.062Z</time></trkpt><trkpt lat="37.3216683" lon="-3.115865"><ele>994.0</ele><time>2026-04-25T09:28:03.058Z</time></trkpt><trkpt lat="37.32162" lon="-3.1162267"><ele>993.5</ele><time>2026-04-25T09:28:04.064Z</time></trkpt><trkpt lat="37.3215783" lon="-3.11659"><ele>993.0</ele><time>2026-04-25T09:28:05.058Z</time></trkpt><trkpt lat="37.321545" lon="-3.116955"><ele>993.0</ele><time>2026-04-25T09:28:06.059Z</time></trkpt><trkpt lat="37.3215133" lon="-3.1173217"><ele>993.0</ele><time>2026-04-25T09:28:07.064Z</time></trkpt><trkpt lat="37.3214817" lon="-3.1176833"><ele>992.5</ele><time>2026-04-25T09:28:08.059Z</time></trkpt><trkpt lat="37.3214483" lon="-3.118045"><ele>992.0</ele><time>2026-04-25T09:28:09.062Z</time></trkpt><trkpt lat="37.3214167" lon="-3.1184083"><ele>989.0</ele><time>2026-04-25T09:28:10.066Z</time></trkpt><trkpt lat="37.3213867" lon="-3.1187717"><ele>986.0</ele><time>2026-04-25T09:28:11.062Z</time></trkpt><trkpt lat="37.3213533" lon="-3.119135"><ele>986.0</ele><time>2026-04-25T09:28:12.063Z</time></trkpt><trkpt lat="37.3213183" lon="-3.1194983"><ele>986.0</ele><time>2026-04-25T09:28:13.061Z</time></trkpt><trkpt lat="37.32128" lon="-3.1198617"><ele>985.5</ele><time>2026-04-25T09:28:14.061Z</time></trkpt><trkpt lat="37.3212383" lon="-3.120215"><ele>985.0</ele><time>2026-04-25T09:28:15.06Z</time></trkpt><trkpt lat="37.3211867" lon="-3.120555"><ele>985.5</ele><time>2026-04-25T09:28:16.058Z</time></trkpt><trkpt lat="37.3211267" lon="-3.1208833"><ele>986.0</ele><time>2026-04-25T09:28:17.061Z</time></trkpt><trkpt lat="37.32106" lon="-3.121205"><ele>986.0</ele><time>2026-04-25T09:28:18.059Z</time></trkpt><trkpt lat="37.3209883" lon="-3.12152"><ele>986.0</ele><time>2026-04-25T09:28:19.061Z</time></trkpt><trkpt lat="37.3209083" lon="-3.1218333"><ele>984.0</ele><time>2026-04-25T09:28:20.059Z</time></trkpt><trkpt lat="37.3208267" lon="-3.122145"><ele>982.0</ele><time>2026-04-25T09:28:21.062Z</time></trkpt><trkpt lat="37.3207467" lon="-3.12246"><ele>981.5</ele><time>2026-04-25T09:28:22.06Z</time></trkpt><trkpt lat="37.320665" lon="-3.122775"><ele>981.0</ele><time>2026-04-25T09:28:23.062Z</time></trkpt><trkpt lat="37.320585" lon="-3.123095"><ele>975.0</ele><time>2026-04-25T09:28:24.062Z</time></trkpt><trkpt lat="37.3205067" lon="-3.123415"><ele>969.0</ele><time>2026-04-25T09:28:25.064Z</time></trkpt><trkpt lat="37.32043" lon="-3.12374"><ele>965.0</ele><time>2026-04-25T09:28:26.061Z</time></trkpt><trkpt lat="37.3203517" lon="-3.1240683"><ele>961.0</ele><time>2026-04-25T09:28:27.065Z</time></trkpt><trkpt lat="37.3202767" lon="-3.1243983"><ele>961.0</ele><time>2026-04-25T09:28:28.063Z</time></trkpt><trkpt lat="37.3201983" lon="-3.1247283"><ele>961.0</ele><time>2026-04-25T09:28:29.064Z</time></trkpt><trkpt lat="37.32012" lon="-3.12506"><ele>960.5</ele><time>2026-04-25T09:28:30.062Z</time></trkpt><trkpt lat="37.3200383" lon="-3.1253933"><ele>960.0</ele><time>2026-04-25T09:28:31.063Z</time></trkpt><trkpt lat="37.31996" lon="-3.125735"><ele>959.5</ele><time>2026-04-25T09:28:32.067Z</time></trkpt><trkpt lat="37.3198883" lon="-3.12608"><ele>959.0</ele><time>2026-04-25T09:28:33.064Z</time></trkpt><trkpt lat="37.31982" lon="-3.12642"><ele>954.0</ele><time>2026-04-25T09:28:34.062Z</time></trkpt><trkpt lat="37.3197583" lon="-3.1267683"><ele>949.0</ele><time>2026-04-25T09:28:35.062Z</time></trkpt><trkpt lat="37.3197033" lon="-3.12712"><ele>942.0</ele><time>2026-04-25T09:28:36.061Z</time></trkpt><trkpt lat="37.3196517" lon="-3.1274683"><ele>935.0</ele><time>2026-04-25T09:28:37.061Z</time></trkpt><trkpt lat="37.3196033" lon="-3.1278183"><ele>935.0</ele><time>2026-04-25T09:28:38.061Z</time></trkpt><trkpt lat="37.319555" lon="-3.12817"><ele>935.0</ele><time>2026-04-25T09:28:39.059Z</time></trkpt><trkpt lat="37.3195033" lon="-3.1285233"><ele>933.0</ele><time>2026-04-25T09:28:40.058Z</time></trkpt><trkpt lat="37.3194533" lon="-3.1288817"><ele>931.0</ele><time>2026-04-25T09:28:41.064Z</time></trkpt><trkpt lat="37.319405" lon="-3.12924"><ele>929.0</ele><time>2026-04-25T09:28:42.062Z</time></trkpt><trkpt lat="37.319355" lon="-3.1295967"><ele>927.0</ele><time>2026-04-25T09:28:43.06Z</time></trkpt><trkpt lat="37.319305" lon="-3.1299533"><ele>926.0</ele><time>2026-04-25T09:28:44.065Z</time></trkpt><trkpt lat="37.319255" lon="-3.1303133"><ele>925.0</ele><time>2026-04-25T09:28:45.06Z</time></trkpt><trkpt lat="37.3192067" lon="-3.1306767"><ele>923.0</ele><time>2026-04-25T09:28:46.061Z</time></trkpt><trkpt lat="37.3191583" lon="-3.1310417"><ele>921.0</ele><time>2026-04-25T09:28:47.06Z</time></trkpt><trkpt lat="37.3191133" lon="-3.1314067"><ele>918.5</ele><time>2026-04-25T09:28:48.063Z</time></trkpt><trkpt lat="37.3190733" lon="-3.1317717"><ele>916.0</ele><time>2026-04-25T09:28:49.06Z</time></trkpt><trkpt lat="37.3190417" lon="-3.1321383"><ele>913.0</ele><time>2026-04-25T09:28:50.062Z</time></trkpt><trkpt lat="37.31902" lon="-3.132505"><ele>910.0</ele><time>2026-04-25T09:28:51.061Z</time></trkpt><trkpt lat="37.3190133" lon="-3.132875"><ele>909.0</ele><time>2026-04-25T09:28:52.064Z</time></trkpt><trkpt lat="37.3190133" lon="-3.133245"><ele>908.0</ele><time>2026-04-25T09:28:53.064Z</time></trkpt><trkpt lat="37.3190233" lon="-3.1336133"><ele>908.0</ele><time>2026-04-25T09:28:54.059Z</time></trkpt><trkpt lat="37.3190367" lon="-3.133985"><ele>908.0</ele><time>2026-04-25T09:28:55.063Z</time></trkpt><trkpt lat="37.3190567" lon="-3.13436"><ele>907.5</ele><time>2026-04-25T09:28:56.064Z</time></trkpt><trkpt lat="37.31908" lon="-3.1347367"><ele>907.0</ele><time>2026-04-25T09:28:57.063Z</time></trkpt><trkpt lat="37.3191067" lon="-3.1351167"><ele>905.0</ele><time>2026-04-25T09:28:58.063Z</time></trkpt><trkpt lat="37.3191333" lon="-3.1354983"><ele>903.0</ele><time>2026-04-25T09:28:59.063Z</time></trkpt><trkpt lat="37.3191617" lon="-3.1358833"><ele>902.0</ele><time>2026-04-25T09:29:00.059Z</time></trkpt><trkpt lat="37.319185" lon="-3.13627"><ele>901.0</ele><time>2026-04-25T09:29:01.061Z</time></trkpt><trkpt lat="37.31921" lon="-3.1366583"><ele>899.5</ele><time>2026-04-25T09:29:02.06Z</time></trkpt><trkpt lat="37.3192317" lon="-3.1370467"><ele>898.0</ele><time>2026-04-25T09:29:03.058Z</time></trkpt><trkpt lat="37.319255" lon="-3.137435"><ele>897.0</ele><time>2026-04-25T09:29:04.06Z</time></trkpt><trkpt lat="37.3192817" lon="-3.1378283"><ele>896.0</ele><time>2026-04-25T09:29:05.062Z</time></trkpt><trkpt lat="37.3193083" lon="-3.1382183"><ele>893.0</ele><time>2026-04-25T09:29:06.062Z</time></trkpt><trkpt lat="37.3193333" lon="-3.1386033"><ele>890.0</ele><time>2026-04-25T09:29:07.059Z</time></trkpt><trkpt lat="37.3193617" lon="-3.1389833"><ele>889.0</ele><time>2026-04-25T09:29:08.06Z</time></trkpt><trkpt lat="37.3193883" lon="-3.1393633"><ele>888.0</ele><time>2026-04-25T09:29:09.06Z</time></trkpt><trkpt lat="37.3194117" lon="-3.1397433"><ele>887.5</ele><time>2026-04-25T09:29:10.058Z</time></trkpt><trkpt lat="37.319435" lon="-3.1401233"><ele>887.0</ele><time>2026-04-25T09:29:11.061Z</time></trkpt><trkpt lat="37.3194617" lon="-3.1405017"><ele>883.5</ele><time>2026-04-25T09:29:12.062Z</time></trkpt><trkpt lat="37.3194867" lon="-3.140875"><ele>880.0</ele><time>2026-04-25T09:29:13.063Z</time></trkpt><trkpt lat="37.31951" lon="-3.141245"><ele>879.5</ele><time>2026-04-25T09:29:14.059Z</time></trkpt><trkpt lat="37.3195317" lon="-3.1416133"><ele>879.0</ele><time>2026-04-25T09:29:15.061Z</time></trkpt><trkpt lat="37.3195517" lon="-3.1419817"><ele>879.0</ele><time>2026-04-25T09:29:16.061Z</time></trkpt><trkpt lat="37.3195733" lon="-3.1423483"><ele>879.0</ele><time>2026-04-25T09:29:17.065Z</time></trkpt><trkpt lat="37.3195933" lon="-3.142715"><ele>878.5</ele><time>2026-04-25T09:29:18.064Z</time></trkpt><trkpt lat="37.319615" lon="-3.1430817"><ele>878.0</ele><time>2026-04-25T09:29:19.061Z</time></trkpt><trkpt lat="37.3196317" lon="-3.1434483"><ele>878.0</ele><time>2026-04-25T09:29:20.06Z</time></trkpt><trkpt lat="37.3196483" lon="-3.1438167"><ele>878.0</ele><time>2026-04-25T09:29:21.064Z</time></trkpt><trkpt lat="37.3196667" lon="-3.1441817"><ele>878.0</ele><time>2026-04-25T09:29:22.061Z</time></trkpt><trkpt lat="37.31968" lon="-3.14455"><ele>878.0</ele><time>2026-04-25T09:29:23.069Z</time></trkpt><trkpt lat="37.31969" lon="-3.1449183"><ele>878.5</ele><time>2026-04-25T09:29:24.063Z</time></trkpt><trkpt lat="37.3196933" lon="-3.14529"><ele>879.0</ele><time>2026-04-25T09:29:25.064Z</time></trkpt><trkpt lat="37.3196967" lon="-3.1456633"><ele>877.5</ele><time>2026-04-25T09:29:26.064Z</time></trkpt><trkpt lat="37.3197" lon="-3.146035"><ele>876.0</ele><time>2026-04-25T09:29:27.062Z</time></trkpt><trkpt lat="37.3197017" lon="-3.1464033"><ele>877.0</ele><time>2026-04-25T09:29:28.061Z</time></trkpt><trkpt lat="37.3197033" lon="-3.14677"><ele>878.0</ele><time>2026-04-25T09:29:29.061Z</time></trkpt><trkpt lat="37.3197033" lon="-3.1471383"><ele>877.0</ele><time>2026-04-25T09:29:30.063Z</time></trkpt><trkpt lat="37.3197017" lon="-3.147505"><ele>876.0</ele><time>2026-04-25T09:29:31.058Z</time></trkpt><trkpt lat="37.3196983" lon="-3.1478733"><ele>875.0</ele><time>2026-04-25T09:29:32.062Z</time></trkpt><trkpt lat="37.3196967" lon="-3.14824"><ele>874.0</ele><time>2026-04-25T09:29:33.059Z</time></trkpt><trkpt lat="37.3197" lon="-3.148605"><ele>874.0</ele><time>2026-04-25T09:29:34.059Z</time></trkpt><trkpt lat="37.319705" lon="-3.1489733"><ele>874.0</ele><time>2026-04-25T09:29:35.061Z</time></trkpt><trkpt lat="37.3197117" lon="-3.1493417"><ele>875.0</ele><time>2026-04-25T09:29:36.062Z</time></trkpt><trkpt lat="37.3197167" lon="-3.1497117"><ele>876.0</ele><time>2026-04-25T09:29:37.062Z</time></trkpt><trkpt lat="37.3197183" lon="-3.15008"><ele>876.5</ele><time>2026-04-25T09:29:38.062Z</time></trkpt><trkpt lat="37.3197217" lon="-3.150445"><ele>877.0</ele><time>2026-04-25T09:29:39.059Z</time></trkpt><trkpt lat="37.3197267" lon="-3.1508117"><ele>877.0</ele><time>2026-04-25T09:29:40.062Z</time></trkpt><trkpt lat="37.31974" lon="-3.1511767"><ele>877.0</ele><time>2026-04-25T09:29:41.063Z</time></trkpt><trkpt lat="37.319765" lon="-3.151545"><ele>877.0</ele><time>2026-04-25T09:29:42.066Z</time></trkpt><trkpt lat="37.319805" lon="-3.1519117"><ele>877.0</ele><time>2026-04-25T09:29:43.062Z</time></trkpt><trkpt lat="37.3198567" lon="-3.152275"><ele>878.0</ele><time>2026-04-25T09:29:44.064Z</time></trkpt><trkpt lat="37.319915" lon="-3.1526367"><ele>879.0</ele><time>2026-04-25T09:29:45.059Z</time></trkpt><trkpt lat="37.319975" lon="-3.153"><ele>879.0</ele><time>2026-04-25T09:29:46.061Z</time></trkpt><trkpt lat="37.3200367" lon="-3.153365"><ele>879.0</ele><time>2026-04-25T09:29:47.063Z</time></trkpt><trkpt lat="37.3201" lon="-3.1537317"><ele>880.0</ele><time>2026-04-25T09:29:48.062Z</time></trkpt><trkpt lat="37.3201633" lon="-3.1541"><ele>881.0</ele><time>2026-04-25T09:29:49.061Z</time></trkpt><trkpt lat="37.3202267" lon="-3.1544683"><ele>881.0</ele><time>2026-04-25T09:29:50.065Z</time></trkpt><trkpt lat="37.32029" lon="-3.1548367"><ele>881.0</ele><time>2026-04-25T09:29:51.065Z</time></trkpt><trkpt lat="37.3203517" lon="-3.155205"><ele>881.0</ele><time>2026-04-25T09:29:52.062Z</time></trkpt><trkpt lat="37.320415" lon="-3.1555767"><ele>881.0</ele><time>2026-04-25T09:29:53.061Z</time></trkpt><trkpt lat="37.3204783" lon="-3.1559467"><ele>881.0</ele><time>2026-04-25T09:29:54.059Z</time></trkpt><trkpt lat="37.32054" lon="-3.1563183"><ele>881.0</ele><time>2026-04-25T09:29:55.064Z</time></trkpt><trkpt lat="37.3206033" lon="-3.15669"><ele>880.5</ele><time>2026-04-25T09:29:56.06Z</time></trkpt><trkpt lat="37.32067" lon="-3.1570617"><ele>880.0</ele><time>2026-04-25T09:29:57.059Z</time></trkpt><trkpt lat="37.320735" lon="-3.1574367"><ele>880.0</ele><time>2026-04-25T09:29:58.065Z</time></trkpt><trkpt lat="37.32086" lon="-3.1581817"><ele>880.0</ele><time>2026-04-25T09:30:00.063Z</time></trkpt><trkpt lat="37.3209217" lon="-3.1585533"><ele>880.0</ele><time>2026-04-25T09:30:01.061Z</time></trkpt><trkpt lat="37.3209833" lon="-3.1589233"><ele>880.0</ele><time>2026-04-25T09:30:02.059Z</time></trkpt><trkpt lat="37.3210483" lon="-3.1592933"><ele>880.0</ele><time>2026-04-25T09:30:03.063Z</time></trkpt><trkpt lat="37.3211133" lon="-3.15966"><ele>879.5</ele><time>2026-04-25T09:30:04.063Z</time></trkpt><trkpt lat="37.321175" lon="-3.1600283"><ele>879.0</ele><time>2026-04-25T09:30:05.063Z</time></trkpt><trkpt lat="37.321235" lon="-3.1603933"><ele>882.0</ele><time>2026-04-25T09:30:06.064Z</time></trkpt><trkpt lat="37.321295" lon="-3.160755"><ele>885.0</ele><time>2026-04-25T09:30:07.064Z</time></trkpt><trkpt lat="37.3213567" lon="-3.161115"><ele>885.0</ele><time>2026-04-25T09:30:08.06Z</time></trkpt><trkpt lat="37.3214167" lon="-3.16147"><ele>885.0</ele><time>2026-04-25T09:30:09.061Z</time></trkpt><trkpt lat="37.3214767" lon="-3.1618233"><ele>887.0</ele><time>2026-04-25T09:30:10.064Z</time></trkpt><trkpt lat="37.3215367" lon="-3.1621767"><ele>889.0</ele><time>2026-04-25T09:30:11.063Z</time></trkpt><trkpt lat="37.3215983" lon="-3.1625317"><ele>890.0</ele><time>2026-04-25T09:30:12.065Z</time></trkpt><trkpt lat="37.3216583" lon="-3.1628867"><ele>891.0</ele><time>2026-04-25T09:30:13.065Z</time></trkpt><trkpt lat="37.3217183" lon="-3.1632417"><ele>892.0</ele><time>2026-04-25T09:30:14.061Z</time></trkpt><trkpt lat="37.3217767" lon="-3.1635967"><ele>893.0</ele><time>2026-04-25T09:30:15.059Z</time></trkpt><trkpt lat="37.321835" lon="-3.163955"><ele>894.0</ele><time>2026-04-25T09:30:16.061Z</time></trkpt><trkpt lat="37.321895" lon="-3.1643133"><ele>895.0</ele><time>2026-04-25T09:30:17.059Z</time></trkpt><trkpt lat="37.32196" lon="-3.1646717"><ele>895.0</ele><time>2026-04-25T09:30:18.062Z</time></trkpt><trkpt lat="37.3220333" lon="-3.1650317"><ele>895.0</ele><time>2026-04-25T09:30:19.063Z</time></trkpt><trkpt lat="37.3221133" lon="-3.1653883"><ele>894.5</ele><time>2026-04-25T09:30:20.061Z</time></trkpt><trkpt lat="37.3221983" lon="-3.1657433"><ele>894.0</ele><time>2026-04-25T09:30:21.06Z</time></trkpt><trkpt lat="37.3222867" lon="-3.1660983"><ele>892.0</ele><time>2026-04-25T09:30:22.058Z</time></trkpt><trkpt lat="37.3223783" lon="-3.166455"><ele>890.0</ele><time>2026-04-25T09:30:23.059Z</time></trkpt><trkpt lat="37.3224717" lon="-3.16681"><ele>890.0</ele><time>2026-04-25T09:30:24.061Z</time></trkpt><trkpt lat="37.3225733" lon="-3.1671583"><ele>890.0</ele><time>2026-04-25T09:30:25.06Z</time></trkpt><trkpt lat="37.32268" lon="-3.167505"><ele>889.5</ele><time>2026-04-25T09:30:26.064Z</time></trkpt><trkpt lat="37.3227917" lon="-3.1678517"><ele>889.0</ele><time>2026-04-25T09:30:27.059Z</time></trkpt><trkpt lat="37.3229033" lon="-3.1681967"><ele>889.0</ele><time>2026-04-25T09:30:28.06Z</time></trkpt><trkpt lat="37.3230167" lon="-3.16854"><ele>889.0</ele><time>2026-04-25T09:30:29.061Z</time></trkpt><trkpt lat="37.3231333" lon="-3.1688833"><ele>891.5</ele><time>2026-04-25T09:30:30.06Z</time></trkpt><trkpt lat="37.3232517" lon="-3.169225"><ele>894.0</ele><time>2026-04-25T09:30:31.061Z</time></trkpt><trkpt lat="37.32337" lon="-3.1695667"><ele>894.0</ele><time>2026-04-25T09:30:32.062Z</time></trkpt><trkpt lat="37.323485" lon="-3.1699067"><ele>894.0</ele><time>2026-04-25T09:30:33.059Z</time></trkpt><trkpt lat="37.3236033" lon="-3.1702433"><ele>894.0</ele><time>2026-04-25T09:30:34.061Z</time></trkpt><trkpt lat="37.3237283" lon="-3.1705767"><ele>894.0</ele><time>2026-04-25T09:30:35.061Z</time></trkpt><trkpt lat="37.3238583" lon="-3.1709067"><ele>893.0</ele><time>2026-04-25T09:30:36.064Z</time></trkpt><trkpt lat="37.3239933" lon="-3.1712367"><ele>892.0</ele><time>2026-04-25T09:30:37.061Z</time></trkpt><trkpt lat="37.3241333" lon="-3.1715667"><ele>892.0</ele><time>2026-04-25T09:30:38.061Z</time></trkpt><trkpt lat="37.3242733" lon="-3.171895"><ele>892.0</ele><time>2026-04-25T09:30:39.06Z</time></trkpt><trkpt lat="37.324415" lon="-3.1722233"><ele>892.5</ele><time>2026-04-25T09:30:40.059Z</time></trkpt><trkpt lat="37.324555" lon="-3.1725533"><ele>893.0</ele><time>2026-04-25T09:30:41.062Z</time></trkpt><trkpt lat="37.3246933" lon="-3.1728833"><ele>891.0</ele><time>2026-04-25T09:30:42.06Z</time></trkpt><trkpt lat="37.3248317" lon="-3.173215"><ele>889.0</ele><time>2026-04-25T09:30:43.062Z</time></trkpt><trkpt lat="37.32497" lon="-3.1735433"><ele>889.0</ele><time>2026-04-25T09:30:44.063Z</time></trkpt><trkpt lat="37.3251133" lon="-3.1738717"><ele>889.0</ele><time>2026-04-25T09:30:45.061Z</time></trkpt><trkpt lat="37.3252583" lon="-3.1741967"><ele>889.0</ele><time>2026-04-25T09:30:46.061Z</time></trkpt><trkpt lat="37.3254067" lon="-3.1745217"><ele>889.0</ele><time>2026-04-25T09:30:47.059Z</time></trkpt><trkpt lat="37.3255633" lon="-3.17484"><ele>888.0</ele><time>2026-04-25T09:30:48.062Z</time></trkpt><trkpt lat="37.3257317" lon="-3.1751533"><ele>887.0</ele><time>2026-04-25T09:30:49.064Z</time></trkpt><trkpt lat="37.3259083" lon="-3.1754617"><ele>888.5</ele><time>2026-04-25T09:30:50.067Z</time></trkpt><trkpt lat="37.3260883" lon="-3.1757667"><ele>890.0</ele><time>2026-04-25T09:30:51.065Z</time></trkpt><trkpt lat="37.3262733" lon="-3.1760667"><ele>889.0</ele><time>2026-04-25T09:30:52.061Z</time></trkpt><trkpt lat="37.3264583" lon="-3.17637"><ele>888.0</ele><time>2026-04-25T09:30:53.059Z</time></trkpt><trkpt lat="37.32664" lon="-3.1766767"><ele>887.5</ele><time>2026-04-25T09:30:54.06Z</time></trkpt><trkpt lat="37.3268167" lon="-3.1769867"><ele>887.0</ele><time>2026-04-25T09:30:55.065Z</time></trkpt><trkpt lat="37.3269883" lon="-3.1772983"><ele>886.0</ele><time>2026-04-25T09:30:56.063Z</time></trkpt><trkpt lat="37.3271517" lon="-3.1776167"><ele>885.0</ele><time>2026-04-25T09:30:57.06Z</time></trkpt><trkpt lat="37.327305" lon="-3.1779417"><ele>883.5</ele><time>2026-04-25T09:30:58.059Z</time></trkpt><trkpt lat="37.3274483" lon="-3.1782733"><ele>882.0</ele><time>2026-04-25T09:30:59.061Z</time></trkpt><trkpt lat="37.327585" lon="-3.17861"><ele>882.0</ele><time>2026-04-25T09:31:00.064Z</time></trkpt><trkpt lat="37.3277167" lon="-3.1789517"><ele>882.0</ele><time>2026-04-25T09:31:01.06Z</time></trkpt><trkpt lat="37.32784" lon="-3.1792983"><ele>883.0</ele><time>2026-04-25T09:31:02.059Z</time></trkpt><trkpt lat="37.3279533" lon="-3.17965"><ele>884.0</ele><time>2026-04-25T09:31:03.064Z</time></trkpt><trkpt lat="37.3280583" lon="-3.1800083"><ele>881.0</ele><time>2026-04-25T09:31:04.056Z</time></trkpt><trkpt lat="37.3281517" lon="-3.1803667"><ele>878.0</ele><time>2026-04-25T09:31:05.059Z</time></trkpt><trkpt lat="37.3282367" lon="-3.1807283"><ele>878.0</ele><time>2026-04-25T09:31:06.062Z</time></trkpt><trkpt lat="37.3283133" lon="-3.1810933"><ele>878.0</ele><time>2026-04-25T09:31:07.064Z</time></trkpt><trkpt lat="37.3283817" lon="-3.18146"><ele>876.5</ele><time>2026-04-25T09:31:08.065Z</time></trkpt><trkpt lat="37.32844" lon="-3.181825"><ele>875.0</ele><time>2026-04-25T09:31:09.061Z</time></trkpt><trkpt lat="37.3284883" lon="-3.182195"><ele>876.0</ele><time>2026-04-25T09:31:10.062Z</time></trkpt><trkpt lat="37.32853" lon="-3.182565"><ele>877.0</ele><time>2026-04-25T09:31:11.06Z</time></trkpt><trkpt lat="37.3285583" lon="-3.1829367"><ele>876.5</ele><time>2026-04-25T09:31:12.06Z</time></trkpt><trkpt lat="37.3285817" lon="-3.1833083"><ele>876.0</ele><time>2026-04-25T09:31:13.06Z</time></trkpt><trkpt lat="37.3285967" lon="-3.1836817"><ele>876.0</ele><time>2026-04-25T09:31:14.06Z</time></trkpt><trkpt lat="37.3286033" lon="-3.1840567"><ele>876.0</ele><time>2026-04-25T09:31:15.067Z</time></trkpt><trkpt lat="37.3286033" lon="-3.1844317"><ele>876.0</ele><time>2026-04-25T09:31:16.063Z</time></trkpt><trkpt lat="37.3285933" lon="-3.184805"><ele>876.0</ele><time>2026-04-25T09:31:17.062Z</time></trkpt><trkpt lat="37.3285733" lon="-3.1851783"><ele>873.5</ele><time>2026-04-25T09:31:18.061Z</time></trkpt><trkpt lat="37.3285467" lon="-3.18555"><ele>871.0</ele><time>2026-04-25T09:31:19.06Z</time></trkpt><trkpt lat="37.3285117" lon="-3.18592"><ele>869.5</ele><time>2026-04-25T09:31:20.066Z</time></trkpt><trkpt lat="37.3284667" lon="-3.1862917"><ele>868.0</ele><time>2026-04-25T09:31:21.059Z</time></trkpt><trkpt lat="37.3284117" lon="-3.1866617"><ele>866.5</ele><time>2026-04-25T09:31:22.063Z</time></trkpt><trkpt lat="37.3283483" lon="-3.18703"><ele>865.0</ele><time>2026-04-25T09:31:23.061Z</time></trkpt><trkpt lat="37.3282767" lon="-3.1873967"><ele>864.5</ele><time>2026-04-25T09:31:24.06Z</time></trkpt><trkpt lat="37.328195" lon="-3.1877567"><ele>864.0</ele><time>2026-04-25T09:31:25.058Z</time></trkpt><trkpt lat="37.328105" lon="-3.1881117"><ele>865.0</ele><time>2026-04-25T09:31:26.059Z</time></trkpt><trkpt lat="37.328005" lon="-3.1884633"><ele>866.0</ele><time>2026-04-25T09:31:27.063Z</time></trkpt><trkpt lat="37.3278967" lon="-3.18881"><ele>865.5</ele><time>2026-04-25T09:31:28.058Z</time></trkpt><trkpt lat="37.3277817" lon="-3.189155"><ele>865.0</ele><time>2026-04-25T09:31:29.062Z</time></trkpt><trkpt lat="37.3276583" lon="-3.1894967"><ele>865.0</ele><time>2026-04-25T09:31:30.061Z</time></trkpt><trkpt lat="37.327525" lon="-3.189835"><ele>865.0</ele><time>2026-04-25T09:31:31.064Z</time></trkpt><trkpt lat="37.3273817" lon="-3.190165"><ele>865.5</ele><time>2026-04-25T09:31:32.061Z</time></trkpt><trkpt lat="37.3272233" lon="-3.1904933"><ele>866.0</ele><time>2026-04-25T09:31:33.062Z</time></trkpt><trkpt lat="37.3270567" lon="-3.190815"><ele>867.5</ele><time>2026-04-25T09:31:34.059Z</time></trkpt><trkpt lat="37.3268833" lon="-3.191135"><ele>869.0</ele><time>2026-04-25T09:31:35.064Z</time></trkpt><trkpt lat="37.3267067" lon="-3.1914517"><ele>870.0</ele><time>2026-04-25T09:31:36.061Z</time></trkpt><trkpt lat="37.3265233" lon="-3.191765"><ele>871.0</ele><time>2026-04-25T09:31:37.062Z</time></trkpt><trkpt lat="37.3263333" lon="-3.192075"><ele>870.5</ele><time>2026-04-25T09:31:38.062Z</time></trkpt><trkpt lat="37.326145" lon="-3.192385"><ele>870.0</ele><time>2026-04-25T09:31:39.062Z</time></trkpt><trkpt lat="37.3259583" lon="-3.1926983"><ele>870.0</ele><time>2026-04-25T09:31:40.06Z</time></trkpt><trkpt lat="37.3257767" lon="-3.1930117"><ele>870.0</ele><time>2026-04-25T09:31:41.063Z</time></trkpt><trkpt lat="37.3256033" lon="-3.1933333"><ele>869.0</ele><time>2026-04-25T09:31:42.062Z</time></trkpt><trkpt lat="37.3254383" lon="-3.1936583"><ele>868.0</ele><time>2026-04-25T09:31:43.062Z</time></trkpt><trkpt lat="37.3252833" lon="-3.19399"><ele>869.5</ele><time>2026-04-25T09:31:44.063Z</time></trkpt><trkpt lat="37.32514" lon="-3.1943283"><ele>871.0</ele><time>2026-04-25T09:31:45.061Z</time></trkpt><trkpt lat="37.3250083" lon="-3.1946717"><ele>872.0</ele><time>2026-04-25T09:31:46.061Z</time></trkpt><trkpt lat="37.32489" lon="-3.1950217"><ele>873.0</ele><time>2026-04-25T09:31:47.062Z</time></trkpt><trkpt lat="37.3247817" lon="-3.1953783"><ele>872.5</ele><time>2026-04-25T09:31:48.065Z</time></trkpt><trkpt lat="37.3246883" lon="-3.1957383"><ele>872.0</ele><time>2026-04-25T09:31:49.061Z</time></trkpt><trkpt lat="37.3246083" lon="-3.1961"><ele>872.0</ele><time>2026-04-25T09:31:50.06Z</time></trkpt><trkpt lat="37.3245417" lon="-3.1964667"><ele>872.0</ele><time>2026-04-25T09:31:51.062Z</time></trkpt><trkpt lat="37.324485" lon="-3.196835"><ele>871.5</ele><time>2026-04-25T09:31:52.057Z</time></trkpt><trkpt lat="37.3244383" lon="-3.1972033"><ele>871.0</ele><time>2026-04-25T09:31:53.06Z</time></trkpt><trkpt lat="37.3244033" lon="-3.19757"><ele>871.0</ele><time>2026-04-25T09:31:54.06Z</time></trkpt><trkpt lat="37.3243833" lon="-3.1979417"><ele>871.0</ele><time>2026-04-25T09:31:55.061Z</time></trkpt><trkpt lat="37.3243783" lon="-3.19831"><ele>871.0</ele><time>2026-04-25T09:31:56.057Z</time></trkpt><trkpt lat="37.3243867" lon="-3.1986817"><ele>871.0</ele><time>2026-04-25T09:31:57.058Z</time></trkpt><trkpt lat="37.3244083" lon="-3.1990517"><ele>869.0</ele><time>2026-04-25T09:31:58.061Z</time></trkpt><trkpt lat="37.3244417" lon="-3.1994217"><ele>867.0</ele><time>2026-04-25T09:31:59.059Z</time></trkpt><trkpt lat="37.324485" lon="-3.19979"><ele>863.5</ele><time>2026-04-25T09:32:00.063Z</time></trkpt><trkpt lat="37.32454" lon="-3.2001567"><ele>860.0</ele><time>2026-04-25T09:32:01.059Z</time></trkpt><trkpt lat="37.3246067" lon="-3.2005183"><ele>859.0</ele><time>2026-04-25T09:32:02.06Z</time></trkpt><trkpt lat="37.3246817" lon="-3.2008767"><ele>858.0</ele><time>2026-04-25T09:32:03.062Z</time></trkpt><trkpt lat="37.32477" lon="-3.2012283"><ele>856.0</ele><time>2026-04-25T09:32:04.058Z</time></trkpt><trkpt lat="37.3248717" lon="-3.2015733"><ele>854.0</ele><time>2026-04-25T09:32:05.061Z</time></trkpt><trkpt lat="37.324985" lon="-3.2019133"><ele>854.0</ele><time>2026-04-25T09:32:06.062Z</time></trkpt><trkpt lat="37.3251117" lon="-3.2022517"><ele>854.0</ele><time>2026-04-25T09:32:07.06Z</time></trkpt><trkpt lat="37.3252483" lon="-3.20258"><ele>852.0</ele><time>2026-04-25T09:32:08.065Z</time></trkpt><trkpt lat="37.3253967" lon="-3.2028983"><ele>850.0</ele><time>2026-04-25T09:32:09.06Z</time></trkpt><trkpt lat="37.3255583" lon="-3.20321"><ele>848.5</ele><time>2026-04-25T09:32:10.058Z</time></trkpt><trkpt lat="37.3257317" lon="-3.2035117"><ele>847.0</ele><time>2026-04-25T09:32:11.06Z</time></trkpt><trkpt lat="37.3259117" lon="-3.203805"><ele>846.0</ele><time>2026-04-25T09:32:12.062Z</time></trkpt><trkpt lat="37.326095" lon="-3.2040883"><ele>845.0</ele><time>2026-04-25T09:32:13.059Z</time></trkpt><trkpt lat="37.3262817" lon="-3.20437"><ele>846.5</ele><time>2026-04-25T09:32:14.064Z</time></trkpt><trkpt lat="37.32647" lon="-3.2046483"><ele>848.0</ele><time>2026-04-25T09:32:15.062Z</time></trkpt><trkpt lat="37.3266533" lon="-3.20493"><ele>848.5</ele><time>2026-04-25T09:32:16.062Z</time></trkpt><trkpt lat="37.3268317" lon="-3.2052167"><ele>849.0</ele><time>2026-04-25T09:32:17.059Z</time></trkpt><trkpt lat="37.3270017" lon="-3.2055133"><ele>847.0</ele><time>2026-04-25T09:32:18.062Z</time></trkpt><trkpt lat="37.3271533" lon="-3.2058217"><ele>845.0</ele><time>2026-04-25T09:32:19.065Z</time></trkpt><trkpt lat="37.32729" lon="-3.2061417"><ele>845.0</ele><time>2026-04-25T09:32:20.059Z</time></trkpt><trkpt lat="37.3274117" lon="-3.2064717"><ele>845.0</ele><time>2026-04-25T09:32:21.061Z</time></trkpt><trkpt lat="37.3275167" lon="-3.2068117"><ele>844.0</ele><time>2026-04-25T09:32:22.059Z</time></trkpt><trkpt lat="37.3276033" lon="-3.2071617"><ele>843.0</ele><time>2026-04-25T09:32:23.06Z</time></trkpt><trkpt lat="37.3276733" lon="-3.207515"><ele>843.5</ele><time>2026-04-25T09:32:24.06Z</time></trkpt><trkpt lat="37.327735" lon="-3.2078717"><ele>844.0</ele><time>2026-04-25T09:32:25.061Z</time></trkpt><trkpt lat="37.3277933" lon="-3.2082317"><ele>844.0</ele><time>2026-04-25T09:32:26.061Z</time></trkpt><trkpt lat="37.3278467" lon="-3.20859"><ele>844.0</ele><time>2026-04-25T09:32:27.062Z</time></trkpt><trkpt lat="37.3279" lon="-3.20895"><ele>843.5</ele><time>2026-04-25T09:32:28.061Z</time></trkpt><trkpt lat="37.3279567" lon="-3.20931"><ele>843.0</ele><time>2026-04-25T09:32:29.057Z</time></trkpt><trkpt lat="37.32801" lon="-3.20967"><ele>846.0</ele><time>2026-04-25T09:32:30.061Z</time></trkpt><trkpt lat="37.3280617" lon="-3.2100283"><ele>849.0</ele><time>2026-04-25T09:32:31.067Z</time></trkpt><trkpt lat="37.328115" lon="-3.2103817"><ele>848.5</ele><time>2026-04-25T09:32:32.06Z</time></trkpt><trkpt lat="37.3281683" lon="-3.2107333"><ele>848.0</ele><time>2026-04-25T09:32:33.061Z</time></trkpt><trkpt lat="37.328225" lon="-3.2110817"><ele>848.0</ele><time>2026-04-25T09:32:34.06Z</time></trkpt><trkpt lat="37.32828" lon="-3.21143"><ele>848.0</ele><time>2026-04-25T09:32:35.063Z</time></trkpt><trkpt lat="37.328335" lon="-3.211775"><ele>848.5</ele><time>2026-04-25T09:32:36.061Z</time></trkpt><trkpt lat="37.3283917" lon="-3.21212"><ele>849.0</ele><time>2026-04-25T09:32:37.06Z</time></trkpt><trkpt lat="37.328445" lon="-3.21246"><ele>850.0</ele><time>2026-04-25T09:32:38.062Z</time></trkpt><trkpt lat="37.3284933" lon="-3.2127983"><ele>851.0</ele><time>2026-04-25T09:32:39.062Z</time></trkpt><trkpt lat="37.3285433" lon="-3.213135"><ele>850.0</ele><time>2026-04-25T09:32:40.06Z</time></trkpt><trkpt lat="37.328595" lon="-3.2134683"><ele>849.0</ele><time>2026-04-25T09:32:41.058Z</time></trkpt><trkpt lat="37.3286433" lon="-3.2138"><ele>849.0</ele><time>2026-04-25T09:32:42.059Z</time></trkpt><trkpt lat="37.3286967" lon="-3.2141317"><ele>849.0</ele><time>2026-04-25T09:32:43.064Z</time></trkpt><trkpt lat="37.32875" lon="-3.214465"><ele>849.0</ele><time>2026-04-25T09:32:44.059Z</time></trkpt><trkpt lat="37.3288117" lon="-3.2147967"><ele>849.0</ele><time>2026-04-25T09:32:45.06Z</time></trkpt><trkpt lat="37.3288883" lon="-3.2151217"><ele>850.0</ele><time>2026-04-25T09:32:46.06Z</time></trkpt><trkpt lat="37.3289833" lon="-3.2154383"><ele>851.0</ele><time>2026-04-25T09:32:47.061Z</time></trkpt><trkpt lat="37.32909" lon="-3.2157467"><ele>851.5</ele><time>2026-04-25T09:32:48.059Z</time></trkpt><trkpt lat="37.3292067" lon="-3.2160517"><ele>852.0</ele><time>2026-04-25T09:32:49.062Z</time></trkpt><trkpt lat="37.3293333" lon="-3.21635"><ele>852.0</ele><time>2026-04-25T09:32:50.06Z</time></trkpt><trkpt lat="37.3294633" lon="-3.216645"><ele>852.0</ele><time>2026-04-25T09:32:51.063Z</time></trkpt><trkpt lat="37.329595" lon="-3.21694"><ele>852.0</ele><time>2026-04-25T09:32:52.062Z</time></trkpt><trkpt lat="37.3297233" lon="-3.2172367"><ele>852.0</ele><time>2026-04-25T09:32:53.06Z</time></trkpt><trkpt lat="37.3298567" lon="-3.217535"><ele>852.0</ele><time>2026-04-25T09:32:54.06Z</time></trkpt><trkpt lat="37.3299883" lon="-3.2178367"><ele>852.0</ele><time>2026-04-25T09:32:55.061Z</time></trkpt><trkpt lat="37.33012" lon="-3.21814"><ele>852.5</ele><time>2026-04-25T09:32:56.062Z</time></trkpt><trkpt lat="37.3302483" lon="-3.2184433"><ele>853.0</ele><time>2026-04-25T09:32:57.065Z</time></trkpt><trkpt lat="37.330375" lon="-3.2187483"><ele>853.5</ele><time>2026-04-25T09:32:58.062Z</time></trkpt><trkpt lat="37.33049" lon="-3.21906"><ele>854.0</ele><time>2026-04-25T09:32:59.06Z</time></trkpt><trkpt lat="37.330595" lon="-3.2193833"><ele>854.0</ele><time>2026-04-25T09:33:00.061Z</time></trkpt><trkpt lat="37.3306833" lon="-3.2197133"><ele>854.0</ele><time>2026-04-25T09:33:01.068Z</time></trkpt><trkpt lat="37.3307583" lon="-3.2200517"><ele>853.5</ele><time>2026-04-25T09:33:02.061Z</time></trkpt><trkpt lat="37.3308183" lon="-3.220395"><ele>853.0</ele><time>2026-04-25T09:33:03.06Z</time></trkpt><trkpt lat="37.33086" lon="-3.2207417"><ele>853.0</ele><time>2026-04-25T09:33:04.056Z</time></trkpt><trkpt lat="37.3308817" lon="-3.22109"><ele>853.0</ele><time>2026-04-25T09:33:05.061Z</time></trkpt><trkpt lat="37.330885" lon="-3.2214417"><ele>854.0</ele><time>2026-04-25T09:33:06.059Z</time></trkpt><trkpt lat="37.3308717" lon="-3.2217933"><ele>855.0</ele><time>2026-04-25T09:33:07.061Z</time></trkpt><trkpt lat="37.330845" lon="-3.2221417"><ele>855.0</ele><time>2026-04-25T09:33:08.061Z</time></trkpt><trkpt lat="37.3308" lon="-3.222485"><ele>855.0</ele><time>2026-04-25T09:33:09.061Z</time></trkpt><trkpt lat="37.3307383" lon="-3.22282"><ele>856.0</ele><time>2026-04-25T09:33:10.059Z</time></trkpt><trkpt lat="37.330665" lon="-3.2231517"><ele>857.0</ele><time>2026-04-25T09:33:11.06Z</time></trkpt><trkpt lat="37.3305767" lon="-3.2234767"><ele>856.0</ele><time>2026-04-25T09:33:12.059Z</time></trkpt><trkpt lat="37.330475" lon="-3.2237917"><ele>855.0</ele><time>2026-04-25T09:33:13.059Z</time></trkpt><trkpt lat="37.3303583" lon="-3.2240967"><ele>857.0</ele><time>2026-04-25T09:33:14.059Z</time></trkpt><trkpt lat="37.3302267" lon="-3.22439"><ele>859.0</ele><time>2026-04-25T09:33:15.062Z</time></trkpt><trkpt lat="37.3300783" lon="-3.2246717"><ele>860.5</ele><time>2026-04-25T09:33:16.063Z</time></trkpt><trkpt lat="37.3299183" lon="-3.2249433"><ele>862.0</ele><time>2026-04-25T09:33:17.061Z</time></trkpt><trkpt lat="37.329745" lon="-3.22521"><ele>860.0</ele><time>2026-04-25T09:33:18.062Z</time></trkpt><trkpt lat="37.3295667" lon="-3.2254717"><ele>858.0</ele><time>2026-04-25T09:33:19.061Z</time></trkpt><trkpt lat="37.32938" lon="-3.2257317"><ele>862.0</ele><time>2026-04-25T09:33:20.063Z</time></trkpt><trkpt lat="37.3291917" lon="-3.22599"><ele>866.0</ele><time>2026-04-25T09:33:21.062Z</time></trkpt><trkpt lat="37.3290067" lon="-3.22625"><ele>867.5</ele><time>2026-04-25T09:33:22.063Z</time></trkpt><trkpt lat="37.32883" lon="-3.226515"><ele>869.0</ele><time>2026-04-25T09:33:23.058Z</time></trkpt><trkpt lat="37.3286667" lon="-3.22679"><ele>869.0</ele><time>2026-04-25T09:33:24.058Z</time></trkpt><trkpt lat="37.32852" lon="-3.2270817"><ele>869.0</ele><time>2026-04-25T09:33:25.059Z</time></trkpt><trkpt lat="37.3283883" lon="-3.2273883"><ele>874.5</ele><time>2026-04-25T09:33:26.06Z</time></trkpt><trkpt lat="37.3282717" lon="-3.227705"><ele>880.0</ele><time>2026-04-25T09:33:27.061Z</time></trkpt><trkpt lat="37.32817" lon="-3.2280283"><ele>875.0</ele><time>2026-04-25T09:33:28.062Z</time></trkpt><trkpt lat="37.32808" lon="-3.2283617"><ele>870.0</ele><time>2026-04-25T09:33:29.064Z</time></trkpt><trkpt lat="37.328005" lon="-3.2287"><ele>872.0</ele><time>2026-04-25T09:33:30.058Z</time></trkpt><trkpt lat="37.3279483" lon="-3.2290517"><ele>874.0</ele><time>2026-04-25T09:33:31.058Z</time></trkpt><trkpt lat="37.3279033" lon="-3.229405"><ele>874.0</ele><time>2026-04-25T09:33:32.06Z</time></trkpt><trkpt lat="37.3278633" lon="-3.2297567"><ele>874.0</ele><time>2026-04-25T09:33:33.061Z</time></trkpt><trkpt lat="37.3278317" lon="-3.2301083"><ele>877.5</ele><time>2026-04-25T09:33:34.06Z</time></trkpt><trkpt lat="37.3277967" lon="-3.2304567"><ele>881.0</ele><time>2026-04-25T09:33:35.062Z</time></trkpt><trkpt lat="37.32776" lon="-3.2308017"><ele>883.5</ele><time>2026-04-25T09:33:36.06Z</time></trkpt><trkpt lat="37.3277233" lon="-3.2311433"><ele>886.0</ele><time>2026-04-25T09:33:37.063Z</time></trkpt><trkpt lat="37.32769" lon="-3.2314833"><ele>890.0</ele><time>2026-04-25T09:33:38.059Z</time></trkpt><trkpt lat="37.327655" lon="-3.2318183"><ele>894.0</ele><time>2026-04-25T09:33:39.061Z</time></trkpt><trkpt lat="37.3276167" lon="-3.23215"><ele>900.0</ele><time>2026-04-25T09:33:40.062Z</time></trkpt><trkpt lat="37.3275767" lon="-3.232485"><ele>906.0</ele><time>2026-04-25T09:33:41.056Z</time></trkpt><trkpt lat="37.3275333" lon="-3.2328183"><ele>910.5</ele><time>2026-04-25T09:33:42.062Z</time></trkpt><trkpt lat="37.3274883" lon="-3.2331567"><ele>915.0</ele><time>2026-04-25T09:33:43.06Z</time></trkpt><trkpt lat="37.32744" lon="-3.2335017"><ele>915.0</ele><time>2026-04-25T09:33:44.061Z</time></trkpt><trkpt lat="37.3273767" lon="-3.2338417"><ele>915.0</ele><time>2026-04-25T09:33:45.058Z</time></trkpt><trkpt lat="37.3273067" lon="-3.2341783"><ele>915.5</ele><time>2026-04-25T09:33:46.063Z</time></trkpt><trkpt lat="37.3272333" lon="-3.23451"><ele>916.0</ele><time>2026-04-25T09:33:47.063Z</time></trkpt><trkpt lat="37.327155" lon="-3.2348433"><ele>916.0</ele><time>2026-04-25T09:33:48.063Z</time></trkpt><trkpt lat="37.327075" lon="-3.2351733"><ele>916.0</ele><time>2026-04-25T09:33:49.064Z</time></trkpt><trkpt lat="37.3269967" lon="-3.2355067"><ele>917.5</ele><time>2026-04-25T09:33:50.06Z</time></trkpt><trkpt lat="37.32692" lon="-3.2358417"><ele>919.0</ele><time>2026-04-25T09:33:51.061Z</time></trkpt><trkpt lat="37.326845" lon="-3.23618"><ele>923.5</ele><time>2026-04-25T09:33:52.059Z</time></trkpt><trkpt lat="37.3267633" lon="-3.236515"><ele>928.0</ele><time>2026-04-25T09:33:53.061Z</time></trkpt><trkpt lat="37.326685" lon="-3.23686"><ele>928.0</ele><time>2026-04-25T09:33:54.066Z</time></trkpt><trkpt lat="37.3266083" lon="-3.23721"><ele>928.0</ele><time>2026-04-25T09:33:55.06Z</time></trkpt><trkpt lat="37.32654" lon="-3.2375617"><ele>932.0</ele><time>2026-04-25T09:33:56.062Z</time></trkpt><trkpt lat="37.3264867" lon="-3.2379267"><ele>936.0</ele><time>2026-04-25T09:33:57.06Z</time></trkpt><trkpt lat="37.3264433" lon="-3.2383017"><ele>937.5</ele><time>2026-04-25T09:33:58.061Z</time></trkpt><trkpt lat="37.3264033" lon="-3.2386817"><ele>939.0</ele><time>2026-04-25T09:33:59.059Z</time></trkpt><trkpt lat="37.32636" lon="-3.239065"><ele>936.5</ele><time>2026-04-25T09:34:00.064Z</time></trkpt><trkpt lat="37.3263067" lon="-3.239455"><ele>934.0</ele><time>2026-04-25T09:34:01.059Z</time></trkpt><trkpt lat="37.3262467" lon="-3.23985"><ele>934.0</ele><time>2026-04-25T09:34:02.061Z</time></trkpt><trkpt lat="37.3261783" lon="-3.2402483"><ele>934.0</ele><time>2026-04-25T09:34:03.06Z</time></trkpt><trkpt lat="37.326105" lon="-3.2406533"><ele>939.5</ele><time>2026-04-25T09:34:04.061Z</time></trkpt><trkpt lat="37.32603" lon="-3.2410633"><ele>945.0</ele><time>2026-04-25T09:34:05.062Z</time></trkpt><trkpt lat="37.325955" lon="-3.2414683"><ele>950.0</ele><time>2026-04-25T09:34:06.063Z</time></trkpt><trkpt lat="37.3258817" lon="-3.2418667"><ele>955.0</ele><time>2026-04-25T09:34:07.064Z</time></trkpt><trkpt lat="37.3258117" lon="-3.2422633"><ele>960.0</ele><time>2026-04-25T09:34:08.063Z</time></trkpt><trkpt lat="37.3257483" lon="-3.2426583"><ele>965.0</ele><time>2026-04-25T09:34:09.065Z</time></trkpt><trkpt lat="37.3257033" lon="-3.2430483"><ele>969.5</ele><time>2026-04-25T09:34:10.063Z</time></trkpt><trkpt lat="37.3256917" lon="-3.243435"><ele>974.0</ele><time>2026-04-25T09:34:11.063Z</time></trkpt><trkpt lat="37.3257083" lon="-3.2438167"><ele>976.0</ele><time>2026-04-25T09:34:12.06Z</time></trkpt><trkpt lat="37.3257317" lon="-3.244195"><ele>978.0</ele><time>2026-04-25T09:34:13.064Z</time></trkpt><trkpt lat="37.3257567" lon="-3.2445717"><ele>978.5</ele><time>2026-04-25T09:34:14.063Z</time></trkpt><trkpt lat="37.325775" lon="-3.2449417"><ele>979.0</ele><time>2026-04-25T09:34:15.065Z</time></trkpt><trkpt lat="37.32579" lon="-3.2453083"><ele>981.0</ele><time>2026-04-25T09:34:16.062Z</time></trkpt><trkpt lat="37.3257917" lon="-3.24567"><ele>983.0</ele><time>2026-04-25T09:34:17.059Z</time></trkpt><trkpt lat="37.3257667" lon="-3.2460267"><ele>983.0</ele><time>2026-04-25T09:34:18.063Z</time></trkpt><trkpt lat="37.3257117" lon="-3.2463767"><ele>983.0</ele><time>2026-04-25T09:34:19.06Z</time></trkpt><trkpt lat="37.32563" lon="-3.2467167"><ele>984.5</ele><time>2026-04-25T09:34:20.068Z</time></trkpt><trkpt lat="37.3255283" lon="-3.2470483"><ele>986.0</ele><time>2026-04-25T09:34:21.06Z</time></trkpt><trkpt lat="37.3254117" lon="-3.247375"><ele>986.5</ele><time>2026-04-25T09:34:22.065Z</time></trkpt><trkpt lat="37.32529" lon="-3.2477"><ele>987.0</ele><time>2026-04-25T09:34:23.061Z</time></trkpt><trkpt lat="37.3251667" lon="-3.248025"><ele>989.0</ele><time>2026-04-25T09:34:24.061Z</time></trkpt><trkpt lat="37.3250433" lon="-3.248355"><ele>991.0</ele><time>2026-04-25T09:34:25.068Z</time></trkpt><trkpt lat="37.3249183" lon="-3.248685"><ele>995.5</ele><time>2026-04-25T09:34:26.06Z</time></trkpt><trkpt lat="37.3247983" lon="-3.2490167"><ele>1000.0</ele><time>2026-04-25T09:34:27.06Z</time></trkpt><trkpt lat="37.3246833" lon="-3.2493483"><ele>1000.0</ele><time>2026-04-25T09:34:28.065Z</time></trkpt><trkpt lat="37.3245783" lon="-3.249685"><ele>1000.0</ele><time>2026-04-25T09:34:29.06Z</time></trkpt><trkpt lat="37.324495" lon="-3.25003"><ele>1002.5</ele><time>2026-04-25T09:34:30.062Z</time></trkpt><trkpt lat="37.324435" lon="-3.250385"><ele>1005.0</ele><time>2026-04-25T09:34:31.061Z</time></trkpt><trkpt lat="37.3243967" lon="-3.2507517"><ele>1007.5</ele><time>2026-04-25T09:34:32.062Z</time></trkpt><trkpt lat="37.3243733" lon="-3.2511183"><ele>1010.0</ele><time>2026-04-25T09:34:33.062Z</time></trkpt><trkpt lat="37.32437" lon="-3.251485"><ele>1011.0</ele><time>2026-04-25T09:34:34.062Z</time></trkpt><trkpt lat="37.3243883" lon="-3.251855"><ele>1012.0</ele><time>2026-04-25T09:34:35.06Z</time></trkpt><trkpt lat="37.3244217" lon="-3.2522283"><ele>1013.5</ele><time>2026-04-25T09:34:36.065Z</time></trkpt><trkpt lat="37.3244583" lon="-3.2526083"><ele>1015.0</ele><time>2026-04-25T09:34:37.064Z</time></trkpt><trkpt lat="37.324495" lon="-3.2529933"><ele>1016.0</ele><time>2026-04-25T09:34:38.059Z</time></trkpt><trkpt lat="37.324525" lon="-3.2533833"><ele>1017.0</ele><time>2026-04-25T09:34:39.059Z</time></trkpt><trkpt lat="37.3245533" lon="-3.253775"><ele>1020.0</ele><time>2026-04-25T09:34:40.06Z</time></trkpt><trkpt lat="37.324575" lon="-3.2541683"><ele>1023.0</ele><time>2026-04-25T09:34:41.06Z</time></trkpt><trkpt lat="37.3245917" lon="-3.2545583"><ele>1026.0</ele><time>2026-04-25T09:34:42.059Z</time></trkpt><trkpt lat="37.3246" lon="-3.2549433"><ele>1029.0</ele><time>2026-04-25T09:34:43.057Z</time></trkpt><trkpt lat="37.32459" lon="-3.2553267"><ele>1032.0</ele><time>2026-04-25T09:34:44.06Z</time></trkpt><trkpt lat="37.32456" lon="-3.2557133"><ele>1035.0</ele><time>2026-04-25T09:34:45.058Z</time></trkpt><trkpt lat="37.324515" lon="-3.2561"><ele>1035.0</ele><time>2026-04-25T09:34:46.058Z</time></trkpt><trkpt lat="37.3244517" lon="-3.2564817"><ele>1035.0</ele><time>2026-04-25T09:34:47.06Z</time></trkpt><trkpt lat="37.3243667" lon="-3.2568567"><ele>1035.0</ele><time>2026-04-25T09:34:48.064Z</time></trkpt><trkpt lat="37.324255" lon="-3.2572233"><ele>1035.0</ele><time>2026-04-25T09:34:49.062Z</time></trkpt><trkpt lat="37.3241217" lon="-3.2575783"><ele>1038.0</ele><time>2026-04-25T09:34:50.059Z</time></trkpt><trkpt lat="37.323965" lon="-3.2579267"><ele>1041.0</ele><time>2026-04-25T09:34:51.062Z</time></trkpt><trkpt lat="37.3238" lon="-3.2582667"><ele>1043.0</ele><time>2026-04-25T09:34:52.062Z</time></trkpt><trkpt lat="37.3236383" lon="-3.2586033"><ele>1045.0</ele><time>2026-04-25T09:34:53.062Z</time></trkpt><trkpt lat="37.3234867" lon="-3.2589417"><ele>1045.5</ele><time>2026-04-25T09:34:54.061Z</time></trkpt><trkpt lat="37.3233467" lon="-3.2592817"><ele>1046.0</ele><time>2026-04-25T09:34:55.06Z</time></trkpt><trkpt lat="37.3232217" lon="-3.2596267"><ele>1048.0</ele><time>2026-04-25T09:34:56.064Z</time></trkpt><trkpt lat="37.3231167" lon="-3.259985"><ele>1050.0</ele><time>2026-04-25T09:34:57.066Z</time></trkpt><trkpt lat="37.3230267" lon="-3.2603467"><ele>1051.5</ele><time>2026-04-25T09:34:58.061Z</time></trkpt><trkpt lat="37.3229483" lon="-3.260715"><ele>1053.0</ele><time>2026-04-25T09:34:59.058Z</time></trkpt><trkpt lat="37.3228767" lon="-3.2610833"><ele>1054.0</ele><time>2026-04-25T09:35:00.063Z</time></trkpt><trkpt lat="37.32281" lon="-3.2614567"><ele>1055.0</ele><time>2026-04-25T09:35:01.061Z</time></trkpt><trkpt lat="37.322745" lon="-3.2618317"><ele>1055.0</ele><time>2026-04-25T09:35:02.059Z</time></trkpt><trkpt lat="37.32268" lon="-3.2622083"><ele>1055.0</ele><time>2026-04-25T09:35:03.062Z</time></trkpt><trkpt lat="37.3226117" lon="-3.262585"><ele>1056.0</ele><time>2026-04-25T09:35:04.064Z</time></trkpt><trkpt lat="37.3225417" lon="-3.26296"><ele>1057.0</ele><time>2026-04-25T09:35:05.063Z</time></trkpt><trkpt lat="37.3224733" lon="-3.2633383"><ele>1058.5</ele><time>2026-04-25T09:35:06.06Z</time></trkpt><trkpt lat="37.322405" lon="-3.263715"><ele>1060.0</ele><time>2026-04-25T09:35:07.062Z</time></trkpt><trkpt lat="37.3223417" lon="-3.26409"><ele>1060.0</ele><time>2026-04-25T09:35:08.059Z</time></trkpt><trkpt lat="37.3222817" lon="-3.2644667"><ele>1060.0</ele><time>2026-04-25T09:35:09.061Z</time></trkpt><trkpt lat="37.32223" lon="-3.2648467"><ele>1060.5</ele><time>2026-04-25T09:35:10.06Z</time></trkpt><trkpt lat="37.3221833" lon="-3.26523"><ele>1061.0</ele><time>2026-04-25T09:35:11.061Z</time></trkpt><trkpt lat="37.322145" lon="-3.2656117"><ele>1061.5</ele><time>2026-04-25T09:35:12.059Z</time></trkpt><trkpt lat="37.3221117" lon="-3.2659933"><ele>1062.0</ele><time>2026-04-25T09:35:13.063Z</time></trkpt><trkpt lat="37.32208" lon="-3.266375"><ele>1062.5</ele><time>2026-04-25T09:35:14.059Z</time></trkpt><trkpt lat="37.3220433" lon="-3.2667567"><ele>1063.0</ele><time>2026-04-25T09:35:15.058Z</time></trkpt><trkpt lat="37.3220083" lon="-3.2671383"><ele>1065.5</ele><time>2026-04-25T09:35:16.061Z</time></trkpt><trkpt lat="37.32197" lon="-3.2675183"><ele>1068.0</ele><time>2026-04-25T09:35:17.063Z</time></trkpt><trkpt lat="37.3219317" lon="-3.2678967"><ele>1069.5</ele><time>2026-04-25T09:35:18.058Z</time></trkpt><trkpt lat="37.321895" lon="-3.2682733"><ele>1071.0</ele><time>2026-04-25T09:35:19.059Z</time></trkpt><trkpt lat="37.32186" lon="-3.2686467"><ele>1073.0</ele><time>2026-04-25T09:35:20.061Z</time></trkpt><trkpt lat="37.321825" lon="-3.269015"><ele>1075.0</ele><time>2026-04-25T09:35:21.062Z</time></trkpt><trkpt lat="37.3217867" lon="-3.2693833"><ele>1075.0</ele><time>2026-04-25T09:35:22.062Z</time></trkpt><trkpt lat="37.3217533" lon="-3.2697533"><ele>1075.0</ele><time>2026-04-25T09:35:23.059Z</time></trkpt><trkpt lat="37.3217183" lon="-3.27012"><ele>1075.0</ele><time>2026-04-25T09:35:24.063Z</time></trkpt><trkpt lat="37.321685" lon="-3.2704833"><ele>1075.0</ele><time>2026-04-25T09:35:25.061Z</time></trkpt><trkpt lat="37.3216517" lon="-3.2708483"><ele>1075.0</ele><time>2026-04-25T09:35:26.059Z</time></trkpt><trkpt lat="37.3216183" lon="-3.271215"><ele>1075.0</ele><time>2026-04-25T09:35:27.059Z</time></trkpt><trkpt lat="37.321585" lon="-3.2715783"><ele>1075.0</ele><time>2026-04-25T09:35:28.064Z</time></trkpt><trkpt lat="37.3215567" lon="-3.2719417"><ele>1075.0</ele><time>2026-04-25T09:35:29.063Z</time></trkpt><trkpt lat="37.3215267" lon="-3.2723083"><ele>1075.5</ele><time>2026-04-25T09:35:30.059Z</time></trkpt><trkpt lat="37.321495" lon="-3.27268"><ele>1076.0</ele><time>2026-04-25T09:35:31.058Z</time></trkpt><trkpt lat="37.3214633" lon="-3.2730517"><ele>1075.5</ele><time>2026-04-25T09:35:32.061Z</time></trkpt><trkpt lat="37.3214367" lon="-3.273425"><ele>1075.0</ele><time>2026-04-25T09:35:33.061Z</time></trkpt><trkpt lat="37.3214133" lon="-3.273805"><ele>1078.0</ele><time>2026-04-25T09:35:34.06Z</time></trkpt><trkpt lat="37.32139" lon="-3.2741867"><ele>1081.0</ele><time>2026-04-25T09:35:35.059Z</time></trkpt><trkpt lat="37.32137" lon="-3.2745717"><ele>1080.0</ele><time>2026-04-25T09:35:36.06Z</time></trkpt><trkpt lat="37.32135" lon="-3.2749583"><ele>1079.0</ele><time>2026-04-25T09:35:37.065Z</time></trkpt><trkpt lat="37.3213333" lon="-3.275345"><ele>1079.0</ele><time>2026-04-25T09:35:38.064Z</time></trkpt><trkpt lat="37.3213183" lon="-3.2757317"><ele>1079.0</ele><time>2026-04-25T09:35:39.061Z</time></trkpt><trkpt lat="37.321305" lon="-3.2761217"><ele>1079.5</ele><time>2026-04-25T09:35:40.061Z</time></trkpt><trkpt lat="37.321295" lon="-3.27651"><ele>1080.0</ele><time>2026-04-25T09:35:41.06Z</time></trkpt><trkpt lat="37.3212867" lon="-3.2768983"><ele>1081.5</ele><time>2026-04-25T09:35:42.061Z</time></trkpt><trkpt lat="37.3212783" lon="-3.277285"><ele>1083.0</ele><time>2026-04-25T09:35:43.064Z</time></trkpt><trkpt lat="37.3212717" lon="-3.27767"><ele>1083.0</ele><time>2026-04-25T09:35:44.062Z</time></trkpt><trkpt lat="37.3212683" lon="-3.278055"><ele>1083.0</ele><time>2026-04-25T09:35:45.066Z</time></trkpt><trkpt lat="37.3212667" lon="-3.27844"><ele>1084.0</ele><time>2026-04-25T09:35:46.066Z</time></trkpt><trkpt lat="37.3212633" lon="-3.2788283"><ele>1085.0</ele><time>2026-04-25T09:35:47.063Z</time></trkpt><trkpt lat="37.3212617" lon="-3.2792133"><ele>1085.5</ele><time>2026-04-25T09:35:48.062Z</time></trkpt><trkpt lat="37.3212633" lon="-3.2795983"><ele>1086.0</ele><time>2026-04-25T09:35:49.063Z</time></trkpt><trkpt lat="37.3212633" lon="-3.2799833"><ele>1086.5</ele><time>2026-04-25T09:35:50.067Z</time></trkpt><trkpt lat="37.3212667" lon="-3.28037"><ele>1087.0</ele><time>2026-04-25T09:35:51.06Z</time></trkpt><trkpt lat="37.3212733" lon="-3.2807567"><ele>1087.0</ele><time>2026-04-25T09:35:52.06Z</time></trkpt><trkpt lat="37.3212783" lon="-3.281145"><ele>1087.0</ele><time>2026-04-25T09:35:53.065Z</time></trkpt><trkpt lat="37.321285" lon="-3.2815367"><ele>1089.0</ele><time>2026-04-25T09:35:54.063Z</time></trkpt><trkpt lat="37.3212967" lon="-3.2819267"><ele>1091.0</ele><time>2026-04-25T09:35:55.061Z</time></trkpt><trkpt lat="37.32131" lon="-3.28232"><ele>1091.5</ele><time>2026-04-25T09:35:56.062Z</time></trkpt><trkpt lat="37.3213267" lon="-3.2827133"><ele>1092.0</ele><time>2026-04-25T09:35:57.06Z</time></trkpt><trkpt lat="37.3213433" lon="-3.2831067"><ele>1093.5</ele><time>2026-04-25T09:35:58.059Z</time></trkpt><trkpt lat="37.3213617" lon="-3.2835017"><ele>1095.0</ele><time>2026-04-25T09:35:59.062Z</time></trkpt><trkpt lat="37.321385" lon="-3.2838983"><ele>1092.0</ele><time>2026-04-25T09:36:00.059Z</time></trkpt><trkpt lat="37.321405" lon="-3.2842983"><ele>1089.0</ele><time>2026-04-25T09:36:01.062Z</time></trkpt><trkpt lat="37.3214283" lon="-3.2846967"><ele>1088.0</ele><time>2026-04-25T09:36:02.062Z</time></trkpt><trkpt lat="37.3214567" lon="-3.2850933"><ele>1087.0</ele><time>2026-04-25T09:36:03.059Z</time></trkpt><trkpt lat="37.3214783" lon="-3.2854917"><ele>1087.5</ele><time>2026-04-25T09:36:04.062Z</time></trkpt><trkpt lat="37.3214983" lon="-3.2858917"><ele>1088.0</ele><time>2026-04-25T09:36:05.061Z</time></trkpt><trkpt lat="37.3215167" lon="-3.28629"><ele>1088.0</ele><time>2026-04-25T09:36:06.058Z</time></trkpt><trkpt lat="37.3215333" lon="-3.28669"><ele>1088.0</ele><time>2026-04-25T09:36:07.06Z</time></trkpt><trkpt lat="37.3215483" lon="-3.28709"><ele>1088.0</ele><time>2026-04-25T09:36:08.063Z</time></trkpt><trkpt lat="37.3215617" lon="-3.28749"><ele>1088.0</ele><time>2026-04-25T09:36:09.063Z</time></trkpt><trkpt lat="37.3215733" lon="-3.2878917"><ele>1089.0</ele><time>2026-04-25T09:36:10.061Z</time></trkpt><trkpt lat="37.3215833" lon="-3.2882917"><ele>1090.0</ele><time>2026-04-25T09:36:11.062Z</time></trkpt><trkpt lat="37.3215917" lon="-3.28869"><ele>1089.5</ele><time>2026-04-25T09:36:12.061Z</time></trkpt><trkpt lat="37.3216" lon="-3.2890867"><ele>1089.0</ele><time>2026-04-25T09:36:13.064Z</time></trkpt><trkpt lat="37.321605" lon="-3.2894817"><ele>1089.5</ele><time>2026-04-25T09:36:14.062Z</time></trkpt><trkpt lat="37.3216083" lon="-3.2898767"><ele>1090.0</ele><time>2026-04-25T09:36:15.059Z</time></trkpt><trkpt lat="37.3216083" lon="-3.290275"><ele>1090.0</ele><time>2026-04-25T09:36:16.061Z</time></trkpt><trkpt lat="37.3216083" lon="-3.2906767"><ele>1090.0</ele><time>2026-04-25T09:36:17.061Z</time></trkpt><trkpt lat="37.3216083" lon="-3.29108"><ele>1090.5</ele><time>2026-04-25T09:36:18.06Z</time></trkpt><trkpt lat="37.3216083" lon="-3.2914833"><ele>1091.0</ele><time>2026-04-25T09:36:19.063Z</time></trkpt><trkpt lat="37.321605" lon="-3.2918883"><ele>1091.5</ele><time>2026-04-25T09:36:20.06Z</time></trkpt><trkpt lat="37.3216" lon="-3.2922933"><ele>1092.0</ele><time>2026-04-25T09:36:21.059Z</time></trkpt><trkpt lat="37.32159" lon="-3.2926967"><ele>1093.5</ele><time>2026-04-25T09:36:22.059Z</time></trkpt><trkpt lat="37.3215783" lon="-3.2931"><ele>1095.0</ele><time>2026-04-25T09:36:23.06Z</time></trkpt><trkpt lat="37.321565" lon="-3.2935"><ele>1095.0</ele><time>2026-04-25T09:36:24.063Z</time></trkpt><trkpt lat="37.32155" lon="-3.2938983"><ele>1095.0</ele><time>2026-04-25T09:36:25.064Z</time></trkpt><trkpt lat="37.3215333" lon="-3.294295"><ele>1095.5</ele><time>2026-04-25T09:36:26.059Z</time></trkpt><trkpt lat="37.3215167" lon="-3.29469"><ele>1096.0</ele><time>2026-04-25T09:36:27.061Z</time></trkpt><trkpt lat="37.3215033" lon="-3.2950817"><ele>1096.5</ele><time>2026-04-25T09:36:28.062Z</time></trkpt><trkpt lat="37.3214883" lon="-3.2954683"><ele>1097.0</ele><time>2026-04-25T09:36:29.063Z</time></trkpt><trkpt lat="37.321475" lon="-3.2958517"><ele>1098.5</ele><time>2026-04-25T09:36:30.065Z</time></trkpt><trkpt lat="37.32146" lon="-3.2962333"><ele>1100.0</ele><time>2026-04-25T09:36:31.062Z</time></trkpt><trkpt lat="37.321445" lon="-3.29661"><ele>1100.5</ele><time>2026-04-25T09:36:32.061Z</time></trkpt><trkpt lat="37.32143" lon="-3.296985"><ele>1101.0</ele><time>2026-04-25T09:36:33.064Z</time></trkpt><trkpt lat="37.3214167" lon="-3.2973567"><ele>1102.0</ele><time>2026-04-25T09:36:34.062Z</time></trkpt><trkpt lat="37.3214017" lon="-3.29773"><ele>1103.0</ele><time>2026-04-25T09:36:35.058Z</time></trkpt><trkpt lat="37.3213867" lon="-3.2981067"><ele>1105.5</ele><time>2026-04-25T09:36:36.06Z</time></trkpt><trkpt lat="37.3213717" lon="-3.2984833"><ele>1108.0</ele><time>2026-04-25T09:36:37.06Z</time></trkpt><trkpt lat="37.3213583" lon="-3.29886"><ele>1107.5</ele><time>2026-04-25T09:36:38.061Z</time></trkpt><trkpt lat="37.321345" lon="-3.2992383"><ele>1107.0</ele><time>2026-04-25T09:36:39.061Z</time></trkpt><trkpt lat="37.32133" lon="-3.2996183"><ele>1108.0</ele><time>2026-04-25T09:36:40.061Z</time></trkpt><trkpt lat="37.3213133" lon="-3.2999983"><ele>1109.0</ele><time>2026-04-25T09:36:41.063Z</time></trkpt><trkpt lat="37.3212967" lon="-3.3003783"><ele>1109.0</ele><time>2026-04-25T09:36:42.06Z</time></trkpt><trkpt lat="37.32128" lon="-3.3007617"><ele>1109.0</ele><time>2026-04-25T09:36:43.061Z</time></trkpt><trkpt lat="37.3212667" lon="-3.301145"><ele>1111.0</ele><time>2026-04-25T09:36:44.066Z</time></trkpt><trkpt lat="37.321255" lon="-3.3015317"><ele>1113.0</ele><time>2026-04-25T09:36:45.061Z</time></trkpt><trkpt lat="37.3212417" lon="-3.3019167"><ele>1113.5</ele><time>2026-04-25T09:36:46.058Z</time></trkpt><trkpt lat="37.3212267" lon="-3.3022967"><ele>1114.0</ele><time>2026-04-25T09:36:47.058Z</time></trkpt><trkpt lat="37.32121" lon="-3.3026783"><ele>1114.0</ele><time>2026-04-25T09:36:48.06Z</time></trkpt><trkpt lat="37.3211917" lon="-3.30306"><ele>1114.0</ele><time>2026-04-25T09:36:49.059Z</time></trkpt><trkpt lat="37.3211767" lon="-3.3034383"><ele>1115.0</ele><time>2026-04-25T09:36:50.061Z</time></trkpt><trkpt lat="37.3211633" lon="-3.3038183"><ele>1116.0</ele><time>2026-04-25T09:36:51.06Z</time></trkpt><trkpt lat="37.32115" lon="-3.3041983"><ele>1116.0</ele><time>2026-04-25T09:36:52.065Z</time></trkpt><trkpt lat="37.321135" lon="-3.3045783"><ele>1116.0</ele><time>2026-04-25T09:36:53.063Z</time></trkpt><trkpt lat="37.32112" lon="-3.3049567"><ele>1117.5</ele><time>2026-04-25T09:36:54.061Z</time></trkpt><trkpt lat="37.3211033" lon="-3.3053333"><ele>1119.0</ele><time>2026-04-25T09:36:55.061Z</time></trkpt><trkpt lat="37.3210883" lon="-3.30571"><ele>1120.0</ele><time>2026-04-25T09:36:56.062Z</time></trkpt><trkpt lat="37.321075" lon="-3.306085"><ele>1121.0</ele><time>2026-04-25T09:36:57.06Z</time></trkpt><trkpt lat="37.3210617" lon="-3.3064617"><ele>1122.0</ele><time>2026-04-25T09:36:58.06Z</time></trkpt><trkpt lat="37.3210467" lon="-3.3068367"><ele>1123.0</ele><time>2026-04-25T09:36:59.06Z</time></trkpt><trkpt lat="37.32103" lon="-3.3072083"><ele>1124.5</ele><time>2026-04-25T09:37:00.062Z</time></trkpt><trkpt lat="37.3210133" lon="-3.3075783"><ele>1126.0</ele><time>2026-04-25T09:37:01.061Z</time></trkpt><trkpt lat="37.3209967" lon="-3.30795"><ele>1127.0</ele><time>2026-04-25T09:37:02.064Z</time></trkpt><trkpt lat="37.3209817" lon="-3.3083183"><ele>1128.0</ele><time>2026-04-25T09:37:03.062Z</time></trkpt><trkpt lat="37.3209683" lon="-3.3086867"><ele>1129.5</ele><time>2026-04-25T09:37:04.059Z</time></trkpt><trkpt lat="37.3209567" lon="-3.3090567"><ele>1131.0</ele><time>2026-04-25T09:37:05.063Z</time></trkpt><trkpt lat="37.3209433" lon="-3.3094233"><ele>1132.0</ele><time>2026-04-25T09:37:06.06Z</time></trkpt><trkpt lat="37.32093" lon="-3.30979"><ele>1133.0</ele><time>2026-04-25T09:37:07.059Z</time></trkpt><trkpt lat="37.320915" lon="-3.310155"><ele>1133.0</ele><time>2026-04-25T09:37:08.058Z</time></trkpt><trkpt lat="37.3208967" lon="-3.3105233"><ele>1133.0</ele><time>2026-04-25T09:37:09.059Z</time></trkpt><trkpt lat="37.3208817" lon="-3.3108917"><ele>1134.5</ele><time>2026-04-25T09:37:10.058Z</time></trkpt><trkpt lat="37.3208717" lon="-3.3112567"><ele>1136.0</ele><time>2026-04-25T09:37:11.058Z</time></trkpt><trkpt lat="37.32086" lon="-3.3116233"><ele>1137.5</ele><time>2026-04-25T09:37:12.063Z</time></trkpt><trkpt lat="37.3208467" lon="-3.3119917"><ele>1139.0</ele><time>2026-04-25T09:37:13.059Z</time></trkpt><trkpt lat="37.32083" lon="-3.3123633"><ele>1140.0</ele><time>2026-04-25T09:37:14.058Z</time></trkpt><trkpt lat="37.320815" lon="-3.312735"><ele>1141.0</ele><time>2026-04-25T09:37:15.06Z</time></trkpt><trkpt lat="37.3207983" lon="-3.3131083"><ele>1143.0</ele><time>2026-04-25T09:37:16.058Z</time></trkpt><trkpt lat="37.3207833" lon="-3.3134833"><ele>1145.0</ele><time>2026-04-25T09:37:17.064Z</time></trkpt><trkpt lat="37.3207683" lon="-3.31386"><ele>1146.5</ele><time>2026-04-25T09:37:18.059Z</time></trkpt><trkpt lat="37.320755" lon="-3.3142367"><ele>1148.0</ele><time>2026-04-25T09:37:19.059Z</time></trkpt><trkpt lat="37.3207433" lon="-3.3146133"><ele>1149.0</ele><time>2026-04-25T09:37:20.062Z</time></trkpt><trkpt lat="37.3207267" lon="-3.31499"><ele>1150.0</ele><time>2026-04-25T09:37:21.064Z</time></trkpt><trkpt lat="37.3207083" lon="-3.315365"><ele>1151.0</ele><time>2026-04-25T09:37:22.06Z</time></trkpt><trkpt lat="37.3206933" lon="-3.3157383"><ele>1152.0</ele><time>2026-04-25T09:37:23.06Z</time></trkpt><trkpt lat="37.3206767" lon="-3.31611"><ele>1155.5</ele><time>2026-04-25T09:37:24.06Z</time></trkpt><trkpt lat="37.3206583" lon="-3.3164783"><ele>1159.0</ele><time>2026-04-25T09:37:25.061Z</time></trkpt><trkpt lat="37.3206367" lon="-3.3168433"><ele>1159.0</ele><time>2026-04-25T09:37:26.065Z</time></trkpt><trkpt lat="37.3206083" lon="-3.317205"><ele>1159.0</ele><time>2026-04-25T09:37:27.061Z</time></trkpt><trkpt lat="37.3205717" lon="-3.317565"><ele>1160.5</ele><time>2026-04-25T09:37:28.061Z</time></trkpt><trkpt lat="37.32053" lon="-3.3179233"><ele>1162.0</ele><time>2026-04-25T09:37:29.062Z</time></trkpt><trkpt lat="37.32048" lon="-3.3182833"><ele>1162.5</ele><time>2026-04-25T09:37:30.06Z</time></trkpt><trkpt lat="37.3204317" lon="-3.3186433"><ele>1163.0</ele><time>2026-04-25T09:37:31.062Z</time></trkpt><trkpt lat="37.3203817" lon="-3.3189983"><ele>1164.0</ele><time>2026-04-25T09:37:32.064Z</time></trkpt><trkpt lat="37.3203267" lon="-3.3193517"><ele>1165.0</ele><time>2026-04-25T09:37:33.059Z</time></trkpt><trkpt lat="37.3202683" lon="-3.319705"><ele>1167.0</ele><time>2026-04-25T09:37:34.062Z</time></trkpt><trkpt lat="37.3202083" lon="-3.3200583"><ele>1169.0</ele><time>2026-04-25T09:37:35.059Z</time></trkpt><trkpt lat="37.32015" lon="-3.3204117"><ele>1171.0</ele><time>2026-04-25T09:37:36.06Z</time></trkpt><trkpt lat="37.3200867" lon="-3.320765"><ele>1173.0</ele><time>2026-04-25T09:37:37.058Z</time></trkpt><trkpt lat="37.3200167" lon="-3.3211133"><ele>1175.0</ele><time>2026-04-25T09:37:38.059Z</time></trkpt><trkpt lat="37.3199383" lon="-3.3214633"><ele>1177.0</ele><time>2026-04-25T09:37:39.06Z</time></trkpt><trkpt lat="37.319855" lon="-3.3218133"><ele>1177.0</ele><time>2026-04-25T09:37:40.06Z</time></trkpt><trkpt lat="37.3197633" lon="-3.3221667"><ele>1177.0</ele><time>2026-04-25T09:37:41.059Z</time></trkpt><trkpt lat="37.3196667" lon="-3.3225183"><ele>1181.0</ele><time>2026-04-25T09:37:42.062Z</time></trkpt><trkpt lat="37.3195633" lon="-3.3228733"><ele>1185.0</ele><time>2026-04-25T09:37:43.064Z</time></trkpt><trkpt lat="37.31946" lon="-3.32323"><ele>1186.0</ele><time>2026-04-25T09:37:44.064Z</time></trkpt><trkpt lat="37.31935" lon="-3.3235883"><ele>1187.0</ele><time>2026-04-25T09:37:45.064Z</time></trkpt><trkpt lat="37.3192333" lon="-3.323945"><ele>1187.0</ele><time>2026-04-25T09:37:46.06Z</time></trkpt><trkpt lat="37.3191083" lon="-3.3242983"><ele>1187.0</ele><time>2026-04-25T09:37:47.062Z</time></trkpt><trkpt lat="37.318975" lon="-3.32465"><ele>1187.0</ele><time>2026-04-25T09:37:48.062Z</time></trkpt><trkpt lat="37.318835" lon="-3.3249967"><ele>1187.0</ele><time>2026-04-25T09:37:49.061Z</time></trkpt><trkpt lat="37.31869" lon="-3.325345"><ele>1187.0</ele><time>2026-04-25T09:37:50.062Z</time></trkpt><trkpt lat="37.3185367" lon="-3.32569"><ele>1187.0</ele><time>2026-04-25T09:37:51.059Z</time></trkpt><trkpt lat="37.3183767" lon="-3.326035"><ele>1187.0</ele><time>2026-04-25T09:37:52.062Z</time></trkpt><trkpt lat="37.3182117" lon="-3.3263783"><ele>1187.0</ele><time>2026-04-25T09:37:53.06Z</time></trkpt><trkpt lat="37.318045" lon="-3.3267233"><ele>1187.0</ele><time>2026-04-25T09:37:54.064Z</time></trkpt><trkpt lat="37.31788" lon="-3.3270717"><ele>1187.0</ele><time>2026-04-25T09:37:55.061Z</time></trkpt><trkpt lat="37.3177183" lon="-3.3274167"><ele>1187.0</ele><time>2026-04-25T09:37:56.063Z</time></trkpt><trkpt lat="37.3175617" lon="-3.3277633"><ele>1187.0</ele><time>2026-04-25T09:37:57.061Z</time></trkpt><trkpt lat="37.31741" lon="-3.3281133"><ele>1187.5</ele><time>2026-04-25T09:37:58.057Z</time></trkpt><trkpt lat="37.3172683" lon="-3.3284683"><ele>1188.0</ele><time>2026-04-25T09:37:59.062Z</time></trkpt><trkpt lat="37.3171333" lon="-3.328825"><ele>1188.5</ele><time>2026-04-25T09:38:00.063Z</time></trkpt><trkpt lat="37.3170033" lon="-3.32918"><ele>1189.0</ele><time>2026-04-25T09:38:01.058Z</time></trkpt><trkpt lat="37.3168767" lon="-3.329535"><ele>1191.0</ele><time>2026-04-25T09:38:02.061Z</time></trkpt><trkpt lat="37.3167517" lon="-3.3298883"><ele>1193.0</ele><time>2026-04-25T09:38:03.061Z</time></trkpt><trkpt lat="37.3166317" lon="-3.3302467"><ele>1194.0</ele><time>2026-04-25T09:38:04.06Z</time></trkpt><trkpt lat="37.31652" lon="-3.3306067"><ele>1195.0</ele><time>2026-04-25T09:38:05.069Z</time></trkpt><trkpt lat="37.3164167" lon="-3.33097"><ele>1195.0</ele><time>2026-04-25T09:38:06.06Z</time></trkpt><trkpt lat="37.3163233" lon="-3.3313333"><ele>1195.0</ele><time>2026-04-25T09:38:07.06Z</time></trkpt><trkpt lat="37.3162383" lon="-3.3316983"><ele>1195.0</ele><time>2026-04-25T09:38:08.06Z</time></trkpt><trkpt lat="37.3161583" lon="-3.332065"><ele>1195.0</ele><time>2026-04-25T09:38:09.059Z</time></trkpt><trkpt lat="37.316085" lon="-3.3324333"><ele>1197.5</ele><time>2026-04-25T09:38:10.058Z</time></trkpt><trkpt lat="37.31602" lon="-3.3328017"><ele>1200.0</ele><time>2026-04-25T09:38:11.062Z</time></trkpt><trkpt lat="37.315965" lon="-3.333175"><ele>1201.5</ele><time>2026-04-25T09:38:12.062Z</time></trkpt><trkpt lat="37.3159167" lon="-3.3335483"><ele>1203.0</ele><time>2026-04-25T09:38:13.065Z</time></trkpt><trkpt lat="37.315875" lon="-3.3339267"><ele>1203.0</ele><time>2026-04-25T09:38:14.062Z</time></trkpt><trkpt lat="37.3158383" lon="-3.3343083"><ele>1203.0</ele><time>2026-04-25T09:38:15.062Z</time></trkpt><trkpt lat="37.315805" lon="-3.3346933"><ele>1203.5</ele><time>2026-04-25T09:38:16.06Z</time></trkpt><trkpt lat="37.3157767" lon="-3.3350833"><ele>1204.0</ele><time>2026-04-25T09:38:17.063Z</time></trkpt><trkpt lat="37.31575" lon="-3.3354767"><ele>1204.0</ele><time>2026-04-25T09:38:18.061Z</time></trkpt><trkpt lat="37.315725" lon="-3.33587"><ele>1204.0</ele><time>2026-04-25T09:38:19.061Z</time></trkpt><trkpt lat="37.3157033" lon="-3.3362633"><ele>1206.5</ele><time>2026-04-25T09:38:20.062Z</time></trkpt><trkpt lat="37.315685" lon="-3.3366617"><ele>1209.0</ele><time>2026-04-25T09:38:21.062Z</time></trkpt><trkpt lat="37.3156667" lon="-3.3370533"><ele>1206.5</ele><time>2026-04-25T09:38:22.061Z</time></trkpt><trkpt lat="37.31565" lon="-3.337445"><ele>1204.0</ele><time>2026-04-25T09:38:23.062Z</time></trkpt><trkpt lat="37.3156317" lon="-3.3378383"><ele>1200.0</ele><time>2026-04-25T09:38:24.062Z</time></trkpt><trkpt lat="37.3156167" lon="-3.3382333"><ele>1196.0</ele><time>2026-04-25T09:38:25.059Z</time></trkpt><trkpt lat="37.3156" lon="-3.33863"><ele>1191.0</ele><time>2026-04-25T09:38:26.062Z</time></trkpt><trkpt lat="37.31558" lon="-3.3390283"><ele>1186.0</ele><time>2026-04-25T09:38:27.061Z</time></trkpt><trkpt lat="37.3155533" lon="-3.3394267"><ele>1181.5</ele><time>2026-04-25T09:38:28.062Z</time></trkpt><trkpt lat="37.31553" lon="-3.3398267"><ele>1177.0</ele><time>2026-04-25T09:38:29.062Z</time></trkpt><trkpt lat="37.31551" lon="-3.34023"><ele>1178.5</ele><time>2026-04-25T09:38:30.06Z</time></trkpt><trkpt lat="37.315495" lon="-3.340635"><ele>1180.0</ele><time>2026-04-25T09:38:31.064Z</time></trkpt><trkpt lat="37.3154817" lon="-3.3410383"><ele>1177.5</ele><time>2026-04-25T09:38:32.059Z</time></trkpt><trkpt lat="37.3154683" lon="-3.3414417"><ele>1175.0</ele><time>2026-04-25T09:38:33.065Z</time></trkpt><trkpt lat="37.3154567" lon="-3.341845"><ele>1176.5</ele><time>2026-04-25T09:38:34.066Z</time></trkpt><trkpt lat="37.3154433" lon="-3.3422433"><ele>1178.0</ele><time>2026-04-25T09:38:35.065Z</time></trkpt><trkpt lat="37.3154267" lon="-3.342645"><ele>1178.0</ele><time>2026-04-25T09:38:36.06Z</time></trkpt><trkpt lat="37.3154067" lon="-3.3430467"><ele>1178.0</ele><time>2026-04-25T09:38:37.062Z</time></trkpt><trkpt lat="37.3153767" lon="-3.34345"><ele>1181.0</ele><time>2026-04-25T09:38:38.06Z</time></trkpt><trkpt lat="37.315345" lon="-3.3438467"><ele>1184.0</ele><time>2026-04-25T09:38:39.06Z</time></trkpt><trkpt lat="37.31531" lon="-3.3442433"><ele>1186.0</ele><time>2026-04-25T09:38:40.064Z</time></trkpt><trkpt lat="37.3152733" lon="-3.34464"><ele>1188.0</ele><time>2026-04-25T09:38:41.061Z</time></trkpt><trkpt lat="37.315235" lon="-3.3450367"><ele>1190.5</ele><time>2026-04-25T09:38:42.063Z</time></trkpt><trkpt lat="37.315195" lon="-3.3454333"><ele>1193.0</ele><time>2026-04-25T09:38:43.06Z</time></trkpt><trkpt lat="37.31515" lon="-3.3458283"><ele>1195.5</ele><time>2026-04-25T09:38:44.057Z</time></trkpt><trkpt lat="37.3151017" lon="-3.3462217"><ele>1198.0</ele><time>2026-04-25T09:38:45.057Z</time></trkpt><trkpt lat="37.31505" lon="-3.346615"><ele>1201.0</ele><time>2026-04-25T09:38:46.059Z</time></trkpt><trkpt lat="37.314995" lon="-3.3470083"><ele>1204.0</ele><time>2026-04-25T09:38:47.062Z</time></trkpt><trkpt lat="37.314935" lon="-3.3474"><ele>1208.0</ele><time>2026-04-25T09:38:48.063Z</time></trkpt><trkpt lat="37.3148717" lon="-3.3477933"><ele>1212.0</ele><time>2026-04-25T09:38:49.062Z</time></trkpt><trkpt lat="37.314805" lon="-3.3481883"><ele>1206.5</ele><time>2026-04-25T09:38:50.06Z</time></trkpt><trkpt lat="37.314735" lon="-3.3485833"><ele>1201.0</ele><time>2026-04-25T09:38:51.06Z</time></trkpt><trkpt lat="37.3146567" lon="-3.3489783"><ele>1201.0</ele><time>2026-04-25T09:38:52.059Z</time></trkpt><trkpt lat="37.3145767" lon="-3.349375"><ele>1201.0</ele><time>2026-04-25T09:38:53.059Z</time></trkpt><trkpt lat="37.3144917" lon="-3.3497783"><ele>1202.5</ele><time>2026-04-25T09:38:54.061Z</time></trkpt><trkpt lat="37.314405" lon="-3.35018"><ele>1204.0</ele><time>2026-04-25T09:38:55.062Z</time></trkpt><trkpt lat="37.3143133" lon="-3.3505817"><ele>1206.5</ele><time>2026-04-25T09:38:56.063Z</time></trkpt><trkpt lat="37.3142167" lon="-3.3509833"><ele>1209.0</ele><time>2026-04-25T09:38:57.059Z</time></trkpt><trkpt lat="37.3141183" lon="-3.3513817"><ele>1212.0</ele><time>2026-04-25T09:38:58.062Z</time></trkpt><trkpt lat="37.314015" lon="-3.3517817"><ele>1215.0</ele><time>2026-04-25T09:38:59.062Z</time></trkpt><trkpt lat="37.3139083" lon="-3.3521783"><ele>1212.5</ele><time>2026-04-25T09:39:00.062Z</time></trkpt><trkpt lat="37.3137967" lon="-3.3525733"><ele>1210.0</ele><time>2026-04-25T09:39:01.064Z</time></trkpt><trkpt lat="37.31368" lon="-3.35297"><ele>1212.5</ele><time>2026-04-25T09:39:02.06Z</time></trkpt><trkpt lat="37.3135567" lon="-3.35337"><ele>1215.0</ele><time>2026-04-25T09:39:03.062Z</time></trkpt><trkpt lat="37.31343" lon="-3.3537683"><ele>1213.0</ele><time>2026-04-25T09:39:04.063Z</time></trkpt><trkpt lat="37.3133" lon="-3.3541633"><ele>1211.0</ele><time>2026-04-25T09:39:05.06Z</time></trkpt><trkpt lat="37.3131667" lon="-3.35455"><ele>1204.0</ele><time>2026-04-25T09:39:06.06Z</time></trkpt><trkpt lat="37.31303" lon="-3.3549367"><ele>1197.0</ele><time>2026-04-25T09:39:07.061Z</time></trkpt><trkpt lat="37.3128883" lon="-3.355325"><ele>1195.5</ele><time>2026-04-25T09:39:08.062Z</time></trkpt><trkpt lat="37.3127467" lon="-3.355715"><ele>1194.0</ele><time>2026-04-25T09:39:09.062Z</time></trkpt><trkpt lat="37.312605" lon="-3.356105"><ele>1194.5</ele><time>2026-04-25T09:39:10.06Z</time></trkpt><trkpt lat="37.3124617" lon="-3.3564933"><ele>1195.0</ele><time>2026-04-25T09:39:11.06Z</time></trkpt><trkpt lat="37.31231" lon="-3.3568783"><ele>1196.5</ele><time>2026-04-25T09:39:12.058Z</time></trkpt><trkpt lat="37.3121533" lon="-3.35726"><ele>1198.0</ele><time>2026-04-25T09:39:13.061Z</time></trkpt><trkpt lat="37.311985" lon="-3.35764"><ele>1198.0</ele><time>2026-04-25T09:39:14.063Z</time></trkpt><trkpt lat="37.3118167" lon="-3.3580183"><ele>1198.0</ele><time>2026-04-25T09:39:15.058Z</time></trkpt><trkpt lat="37.31164" lon="-3.3583933"><ele>1197.5</ele><time>2026-04-25T09:39:16.061Z</time></trkpt><trkpt lat="37.3114633" lon="-3.3587683"><ele>1197.0</ele><time>2026-04-25T09:39:17.059Z</time></trkpt><trkpt lat="37.3112833" lon="-3.3591417"><ele>1193.0</ele><time>2026-04-25T09:39:18.057Z</time></trkpt><trkpt lat="37.3110983" lon="-3.35951"><ele>1189.0</ele><time>2026-04-25T09:39:19.063Z</time></trkpt><trkpt lat="37.31091" lon="-3.3598717"><ele>1189.0</ele><time>2026-04-25T09:39:20.06Z</time></trkpt><trkpt lat="37.3107217" lon="-3.3602283"><ele>1189.0</ele><time>2026-04-25T09:39:21.065Z</time></trkpt><trkpt lat="37.3105317" lon="-3.3605783"><ele>1185.0</ele><time>2026-04-25T09:39:22.06Z</time></trkpt><trkpt lat="37.31034" lon="-3.3609233"><ele>1181.0</ele><time>2026-04-25T09:39:23.062Z</time></trkpt><trkpt lat="37.310145" lon="-3.3612667"><ele>1182.5</ele><time>2026-04-25T09:39:24.066Z</time></trkpt><trkpt lat="37.3099467" lon="-3.3616033"><ele>1184.0</ele><time>2026-04-25T09:39:25.061Z</time></trkpt><trkpt lat="37.3097467" lon="-3.361935"><ele>1184.0</ele><time>2026-04-25T09:39:26.063Z</time></trkpt><trkpt lat="37.309545" lon="-3.3622633"><ele>1184.0</ele><time>2026-04-25T09:39:27.066Z</time></trkpt><trkpt lat="37.3093433" lon="-3.36259"><ele>1184.0</ele><time>2026-04-25T09:39:28.061Z</time></trkpt><trkpt lat="37.30914" lon="-3.362915"><ele>1184.0</ele><time>2026-04-25T09:39:29.061Z</time></trkpt><trkpt lat="37.3089367" lon="-3.3632433"><ele>1185.0</ele><time>2026-04-25T09:39:30.062Z</time></trkpt><trkpt lat="37.3087333" lon="-3.363575"><ele>1186.0</ele><time>2026-04-25T09:39:31.059Z</time></trkpt><trkpt lat="37.30854" lon="-3.3639133"><ele>1186.5</ele><time>2026-04-25T09:39:32.063Z</time></trkpt><trkpt lat="37.3083567" lon="-3.36426"><ele>1187.0</ele><time>2026-04-25T09:39:33.058Z</time></trkpt><trkpt lat="37.3081883" lon="-3.364605"><ele>1184.0</ele><time>2026-04-25T09:39:34.065Z</time></trkpt><trkpt lat="37.3080367" lon="-3.364945"><ele>1181.0</ele><time>2026-04-25T09:39:35.061Z</time></trkpt><trkpt lat="37.3079017" lon="-3.3652833"><ele>1187.0</ele><time>2026-04-25T09:39:36.063Z</time></trkpt><trkpt lat="37.3077817" lon="-3.3656217"><ele>1193.0</ele><time>2026-04-25T09:39:37.062Z</time></trkpt><trkpt lat="37.3076783" lon="-3.3659617"><ele>1193.0</ele><time>2026-04-25T09:39:38.061Z</time></trkpt><trkpt lat="37.3075917" lon="-3.3663067"><ele>1193.0</ele><time>2026-04-25T09:39:39.057Z</time></trkpt><trkpt lat="37.3075167" lon="-3.3666533"><ele>1197.5</ele><time>2026-04-25T09:39:40.065Z</time></trkpt><trkpt lat="37.30746" lon="-3.3670017"><ele>1202.0</ele><time>2026-04-25T09:39:41.062Z</time></trkpt><trkpt lat="37.3074183" lon="-3.36735"><ele>1205.5</ele><time>2026-04-25T09:39:42.063Z</time></trkpt><trkpt lat="37.30739" lon="-3.3676983"><ele>1209.0</ele><time>2026-04-25T09:39:43.06Z</time></trkpt><trkpt lat="37.30738" lon="-3.3680433"><ele>1209.0</ele><time>2026-04-25T09:39:44.065Z</time></trkpt><trkpt lat="37.3073833" lon="-3.36839"><ele>1209.0</ele><time>2026-04-25T09:39:45.061Z</time></trkpt><trkpt lat="37.307405" lon="-3.3687367"><ele>1210.5</ele><time>2026-04-25T09:39:46.06Z</time></trkpt><trkpt lat="37.3074433" lon="-3.3690833"><ele>1212.0</ele><time>2026-04-25T09:39:47.064Z</time></trkpt><trkpt lat="37.3074967" lon="-3.3694283"><ele>1211.5</ele><time>2026-04-25T09:39:48.06Z</time></trkpt><trkpt lat="37.3075617" lon="-3.3697767"><ele>1211.0</ele><time>2026-04-25T09:39:49.062Z</time></trkpt><trkpt lat="37.30764" lon="-3.37012"><ele>1211.0</ele><time>2026-04-25T09:39:50.062Z</time></trkpt><trkpt lat="37.3077317" lon="-3.3704617"><ele>1211.0</ele><time>2026-04-25T09:39:51.06Z</time></trkpt><trkpt lat="37.307835" lon="-3.3707983"><ele>1211.0</ele><time>2026-04-25T09:39:52.062Z</time></trkpt><trkpt lat="37.3079533" lon="-3.3711283"><ele>1211.0</ele><time>2026-04-25T09:39:53.058Z</time></trkpt><trkpt lat="37.3080833" lon="-3.371455"><ele>1211.0</ele><time>2026-04-25T09:39:54.063Z</time></trkpt><trkpt lat="37.308225" lon="-3.3717733"><ele>1211.0</ele><time>2026-04-25T09:39:55.064Z</time></trkpt><trkpt lat="37.30838" lon="-3.3720883"><ele>1206.5</ele><time>2026-04-25T09:39:56.059Z</time></trkpt><trkpt lat="37.3085417" lon="-3.372395"><ele>1202.0</ele><time>2026-04-25T09:39:57.064Z</time></trkpt><trkpt lat="37.308705" lon="-3.3727"><ele>1202.0</ele><time>2026-04-25T09:39:58.062Z</time></trkpt><trkpt lat="37.3088683" lon="-3.373005"><ele>1202.0</ele><time>2026-04-25T09:39:59.061Z</time></trkpt><trkpt lat="37.309035" lon="-3.373305"><ele>1199.5</ele><time>2026-04-25T09:40:00.061Z</time></trkpt><trkpt lat="37.3092033" lon="-3.3736033"><ele>1197.0</ele><time>2026-04-25T09:40:01.059Z</time></trkpt><trkpt lat="37.3093717" lon="-3.3739033"><ele>1190.5</ele><time>2026-04-25T09:40:02.061Z</time></trkpt><trkpt lat="37.30954" lon="-3.37421"><ele>1184.0</ele><time>2026-04-25T09:40:03.06Z</time></trkpt><trkpt lat="37.309705" lon="-3.37452"><ele>1187.0</ele><time>2026-04-25T09:40:04.063Z</time></trkpt><trkpt lat="37.30986" lon="-3.3748383"><ele>1190.0</ele><time>2026-04-25T09:40:05.061Z</time></trkpt><trkpt lat="37.3100033" lon="-3.3751667"><ele>1190.0</ele><time>2026-04-25T09:40:06.064Z</time></trkpt><trkpt lat="37.3101317" lon="-3.3755033"><ele>1190.0</ele><time>2026-04-25T09:40:07.06Z</time></trkpt><trkpt lat="37.3102433" lon="-3.3758467"><ele>1191.5</ele><time>2026-04-25T09:40:08.063Z</time></trkpt><trkpt lat="37.31034" lon="-3.3761933"><ele>1193.0</ele><time>2026-04-25T09:40:09.062Z</time></trkpt><trkpt lat="37.3104217" lon="-3.3765417"><ele>1193.0</ele><time>2026-04-25T09:40:10.06Z</time></trkpt><trkpt lat="37.31049" lon="-3.37689"><ele>1193.0</ele><time>2026-04-25T09:40:11.061Z</time></trkpt><trkpt lat="37.31055" lon="-3.3772433"><ele>1200.5</ele><time>2026-04-25T09:40:12.062Z</time></trkpt><trkpt lat="37.3105983" lon="-3.3775967"><ele>1208.0</ele><time>2026-04-25T09:40:13.064Z</time></trkpt><trkpt lat="37.310645" lon="-3.37795"><ele>1206.0</ele><time>2026-04-25T09:40:14.061Z</time></trkpt><trkpt lat="37.3106917" lon="-3.3783033"><ele>1204.0</ele><time>2026-04-25T09:40:15.06Z</time></trkpt><trkpt lat="37.31074" lon="-3.3786567"><ele>1202.0</ele><time>2026-04-25T09:40:16.063Z</time></trkpt><trkpt lat="37.3107933" lon="-3.37901"><ele>1200.0</ele><time>2026-04-25T09:40:17.06Z</time></trkpt><trkpt lat="37.3108567" lon="-3.37936"><ele>1198.0</ele><time>2026-04-25T09:40:18.062Z</time></trkpt><trkpt lat="37.310935" lon="-3.3797083"><ele>1196.0</ele><time>2026-04-25T09:40:19.062Z</time></trkpt><trkpt lat="37.311025" lon="-3.3800517"><ele>1196.0</ele><time>2026-04-25T09:40:20.06Z</time></trkpt><trkpt lat="37.3111283" lon="-3.38039"><ele>1196.0</ele><time>2026-04-25T09:40:21.062Z</time></trkpt><trkpt lat="37.3112467" lon="-3.3807217"><ele>1194.0</ele><time>2026-04-25T09:40:22.062Z</time></trkpt><trkpt lat="37.3113783" lon="-3.3810433"><ele>1192.0</ele><time>2026-04-25T09:40:23.061Z</time></trkpt><trkpt lat="37.3115217" lon="-3.3813583"><ele>1197.0</ele><time>2026-04-25T09:40:24.061Z</time></trkpt><trkpt lat="37.31167" lon="-3.38167"><ele>1202.0</ele><time>2026-04-25T09:40:25.062Z</time></trkpt><trkpt lat="37.3118217" lon="-3.3819833"><ele>1195.0</ele><time>2026-04-25T09:40:26.062Z</time></trkpt><trkpt lat="37.3119767" lon="-3.382295"><ele>1188.0</ele><time>2026-04-25T09:40:27.06Z</time></trkpt><trkpt lat="37.3121317" lon="-3.38261"><ele>1192.0</ele><time>2026-04-25T09:40:28.059Z</time></trkpt><trkpt lat="37.3122867" lon="-3.3829283"><ele>1196.0</ele><time>2026-04-25T09:40:29.06Z</time></trkpt><trkpt lat="37.3124417" lon="-3.3832517"><ele>1196.0</ele><time>2026-04-25T09:40:30.062Z</time></trkpt><trkpt lat="37.3125983" lon="-3.3835733"><ele>1196.0</ele><time>2026-04-25T09:40:31.061Z</time></trkpt><trkpt lat="37.3127567" lon="-3.3838967"><ele>1195.0</ele><time>2026-04-25T09:40:32.06Z</time></trkpt><trkpt lat="37.312915" lon="-3.38422"><ele>1194.0</ele><time>2026-04-25T09:40:33.061Z</time></trkpt><trkpt lat="37.313075" lon="-3.3845433"><ele>1190.0</ele><time>2026-04-25T09:40:34.063Z</time></trkpt><trkpt lat="37.3132333" lon="-3.3848667"><ele>1186.0</ele><time>2026-04-25T09:40:35.061Z</time></trkpt><trkpt lat="37.3133917" lon="-3.3851917"><ele>1181.5</ele><time>2026-04-25T09:40:36.063Z</time></trkpt><trkpt lat="37.31355" lon="-3.3855217"><ele>1177.0</ele><time>2026-04-25T09:40:37.059Z</time></trkpt><trkpt lat="37.3137117" lon="-3.3858483"><ele>1177.0</ele><time>2026-04-25T09:40:38.061Z</time></trkpt><trkpt lat="37.3138733" lon="-3.3861733"><ele>1177.0</ele><time>2026-04-25T09:40:39.059Z</time></trkpt><trkpt lat="37.3140333" lon="-3.386495"><ele>1181.5</ele><time>2026-04-25T09:40:40.06Z</time></trkpt><trkpt lat="37.314195" lon="-3.3868133"><ele>1186.0</ele><time>2026-04-25T09:40:41.06Z</time></trkpt><trkpt lat="37.3143517" lon="-3.38713"><ele>1179.5</ele><time>2026-04-25T09:40:42.063Z</time></trkpt><trkpt lat="37.31451" lon="-3.3874483"><ele>1173.0</ele><time>2026-04-25T09:40:43.064Z</time></trkpt><trkpt lat="37.3146667" lon="-3.3877667"><ele>1184.5</ele><time>2026-04-25T09:40:44.062Z</time></trkpt><trkpt lat="37.31482" lon="-3.3880817"><ele>1196.0</ele><time>2026-04-25T09:40:45.062Z</time></trkpt><trkpt lat="37.3149733" lon="-3.388395"><ele>1196.0</ele><time>2026-04-25T09:40:46.062Z</time></trkpt><trkpt lat="37.3151233" lon="-3.3887083"><ele>1196.0</ele><time>2026-04-25T09:40:47.063Z</time></trkpt><trkpt lat="37.315265" lon="-3.3890233"><ele>1194.5</ele><time>2026-04-25T09:40:48.061Z</time></trkpt><trkpt lat="37.3154" lon="-3.3893433"><ele>1193.0</ele><time>2026-04-25T09:40:49.064Z</time></trkpt><trkpt lat="37.3155283" lon="-3.3896633"><ele>1199.0</ele><time>2026-04-25T09:40:50.06Z</time></trkpt><trkpt lat="37.3156467" lon="-3.38999"><ele>1205.0</ele><time>2026-04-25T09:40:51.061Z</time></trkpt><trkpt lat="37.315755" lon="-3.3903183"><ele>1201.5</ele><time>2026-04-25T09:40:52.06Z</time></trkpt><trkpt lat="37.3158517" lon="-3.3906517"><ele>1198.0</ele><time>2026-04-25T09:40:53.059Z</time></trkpt><trkpt lat="37.3159383" lon="-3.3909883"><ele>1198.0</ele><time>2026-04-25T09:40:54.063Z</time></trkpt><trkpt lat="37.316015" lon="-3.3913317"><ele>1198.0</ele><time>2026-04-25T09:40:55.066Z</time></trkpt><trkpt lat="37.3160783" lon="-3.3916817"><ele>1195.0</ele><time>2026-04-25T09:40:56.063Z</time></trkpt><trkpt lat="37.3161317" lon="-3.39204"><ele>1192.0</ele><time>2026-04-25T09:40:57.064Z</time></trkpt><trkpt lat="37.3161733" lon="-3.3924017"><ele>1190.5</ele><time>2026-04-25T09:40:58.062Z</time></trkpt><trkpt lat="37.3162017" lon="-3.3927683"><ele>1189.0</ele><time>2026-04-25T09:40:59.062Z</time></trkpt><trkpt lat="37.3162217" lon="-3.39314"><ele>1185.0</ele><time>2026-04-25T09:41:00.062Z</time></trkpt><trkpt lat="37.3162267" lon="-3.39351"><ele>1181.0</ele><time>2026-04-25T09:41:01.06Z</time></trkpt><trkpt lat="37.3162167" lon="-3.3938817"><ele>1179.0</ele><time>2026-04-25T09:41:02.064Z</time></trkpt><trkpt lat="37.316195" lon="-3.39425"><ele>1177.0</ele><time>2026-04-25T09:41:03.066Z</time></trkpt><trkpt lat="37.316165" lon="-3.3946167"><ele>1177.5</ele><time>2026-04-25T09:41:04.064Z</time></trkpt><trkpt lat="37.3161267" lon="-3.39498"><ele>1178.0</ele><time>2026-04-25T09:41:05.062Z</time></trkpt><trkpt lat="37.316085" lon="-3.39534"><ele>1177.5</ele><time>2026-04-25T09:41:06.061Z</time></trkpt><trkpt lat="37.316035" lon="-3.3956967"><ele>1177.0</ele><time>2026-04-25T09:41:07.062Z</time></trkpt><trkpt lat="37.31598" lon="-3.3960533"><ele>1177.5</ele><time>2026-04-25T09:41:08.061Z</time></trkpt><trkpt lat="37.3159233" lon="-3.3964117"><ele>1178.0</ele><time>2026-04-25T09:41:09.062Z</time></trkpt><trkpt lat="37.3158667" lon="-3.39677"><ele>1178.0</ele><time>2026-04-25T09:41:10.059Z</time></trkpt><trkpt lat="37.3158083" lon="-3.3971283"><ele>1178.0</ele><time>2026-04-25T09:41:11.064Z</time></trkpt><trkpt lat="37.3157467" lon="-3.397485"><ele>1179.0</ele><time>2026-04-25T09:41:12.06Z</time></trkpt><trkpt lat="37.3156833" lon="-3.3978417"><ele>1180.0</ele><time>2026-04-25T09:41:13.058Z</time></trkpt><trkpt lat="37.3156133" lon="-3.3982017"><ele>1179.5</ele><time>2026-04-25T09:41:14.061Z</time></trkpt><trkpt lat="37.315535" lon="-3.3985533"><ele>1179.0</ele><time>2026-04-25T09:41:15.057Z</time></trkpt><trkpt lat="37.315445" lon="-3.3989033"><ele>1179.0</ele><time>2026-04-25T09:41:16.059Z</time></trkpt><trkpt lat="37.3153467" lon="-3.3992483"><ele>1179.0</ele><time>2026-04-25T09:41:17.062Z</time></trkpt><trkpt lat="37.315245" lon="-3.3995917"><ele>1182.0</ele><time>2026-04-25T09:41:18.062Z</time></trkpt><trkpt lat="37.315135" lon="-3.3999383"><ele>1185.0</ele><time>2026-04-25T09:41:19.06Z</time></trkpt><trkpt lat="37.31502" lon="-3.400275"><ele>1192.0</ele><time>2026-04-25T09:41:20.064Z</time></trkpt><trkpt lat="37.314895" lon="-3.400605"><ele>1199.0</ele><time>2026-04-25T09:41:21.061Z</time></trkpt><trkpt lat="37.3147617" lon="-3.4009333"><ele>1190.0</ele><time>2026-04-25T09:41:22.062Z</time></trkpt><trkpt lat="37.3146217" lon="-3.401255"><ele>1181.0</ele><time>2026-04-25T09:41:23.064Z</time></trkpt><trkpt lat="37.3144683" lon="-3.4015667"><ele>1181.0</ele><time>2026-04-25T09:41:24.06Z</time></trkpt><trkpt lat="37.314305" lon="-3.4018683"><ele>1181.0</ele><time>2026-04-25T09:41:25.061Z</time></trkpt><trkpt lat="37.3141383" lon="-3.4021633"><ele>1179.5</ele><time>2026-04-25T09:41:26.063Z</time></trkpt><trkpt lat="37.3139717" lon="-3.402455"><ele>1178.0</ele><time>2026-04-25T09:41:27.062Z</time></trkpt><trkpt lat="37.3138067" lon="-3.4027483"><ele>1179.5</ele><time>2026-04-25T09:41:28.057Z</time></trkpt><trkpt lat="37.3136417" lon="-3.403045"><ele>1181.0</ele><time>2026-04-25T09:41:29.066Z</time></trkpt><trkpt lat="37.313475" lon="-3.4033417"><ele>1181.0</ele><time>2026-04-25T09:41:30.061Z</time></trkpt><trkpt lat="37.3133067" lon="-3.4036417"><ele>1181.0</ele><time>2026-04-25T09:41:31.061Z</time></trkpt><trkpt lat="37.3131417" lon="-3.4039383"><ele>1181.5</ele><time>2026-04-25T09:41:32.057Z</time></trkpt><trkpt lat="37.31298" lon="-3.404235"><ele>1182.0</ele><time>2026-04-25T09:41:33.059Z</time></trkpt><trkpt lat="37.3128217" lon="-3.4045317"><ele>1180.5</ele><time>2026-04-25T09:41:34.059Z</time></trkpt><trkpt lat="37.3126667" lon="-3.4048317"><ele>1179.0</ele><time>2026-04-25T09:41:35.06Z</time></trkpt><trkpt lat="37.3125167" lon="-3.4051367"><ele>1179.0</ele><time>2026-04-25T09:41:36.058Z</time></trkpt><trkpt lat="37.31238" lon="-3.40545"><ele>1179.0</ele><time>2026-04-25T09:41:37.058Z</time></trkpt><trkpt lat="37.3122517" lon="-3.4057717"><ele>1180.0</ele><time>2026-04-25T09:41:38.061Z</time></trkpt><trkpt lat="37.3121383" lon="-3.4061017"><ele>1181.0</ele><time>2026-04-25T09:41:39.057Z</time></trkpt><trkpt lat="37.3120433" lon="-3.4064417"><ele>1181.5</ele><time>2026-04-25T09:41:40.059Z</time></trkpt><trkpt lat="37.31196" lon="-3.4067883"><ele>1182.0</ele><time>2026-04-25T09:41:41.062Z</time></trkpt><trkpt lat="37.3118917" lon="-3.4071383"><ele>1183.0</ele><time>2026-04-25T09:41:42.058Z</time></trkpt><trkpt lat="37.3118317" lon="-3.4074933"><ele>1184.0</ele><time>2026-04-25T09:41:43.064Z</time></trkpt><trkpt lat="37.31178" lon="-3.4078467"><ele>1185.0</ele><time>2026-04-25T09:41:44.061Z</time></trkpt><trkpt lat="37.3117317" lon="-3.408205"><ele>1186.0</ele><time>2026-04-25T09:41:45.062Z</time></trkpt><trkpt lat="37.311685" lon="-3.4085667"><ele>1185.5</ele><time>2026-04-25T09:41:46.061Z</time></trkpt><trkpt lat="37.3116333" lon="-3.4089283"><ele>1185.0</ele><time>2026-04-25T09:41:47.064Z</time></trkpt><trkpt lat="37.31158" lon="-3.40929"><ele>1185.0</ele><time>2026-04-25T09:41:48.061Z</time></trkpt><trkpt lat="37.3115217" lon="-3.40965"><ele>1185.0</ele><time>2026-04-25T09:41:49.061Z</time></trkpt><trkpt lat="37.3114567" lon="-3.4100083"><ele>1183.5</ele><time>2026-04-25T09:41:50.06Z</time></trkpt><trkpt lat="37.3113783" lon="-3.4103667"><ele>1182.0</ele><time>2026-04-25T09:41:51.059Z</time></trkpt><trkpt lat="37.3112817" lon="-3.410715"><ele>1185.0</ele><time>2026-04-25T09:41:52.062Z</time></trkpt><trkpt lat="37.3111667" lon="-3.4110583"><ele>1188.0</ele><time>2026-04-25T09:41:53.062Z</time></trkpt><trkpt lat="37.31104" lon="-3.4113917"><ele>1188.5</ele><time>2026-04-25T09:41:54.063Z</time></trkpt><trkpt lat="37.3109017" lon="-3.41172"><ele>1189.0</ele><time>2026-04-25T09:41:55.062Z</time></trkpt><trkpt lat="37.310755" lon="-3.41204"><ele>1188.5</ele><time>2026-04-25T09:41:56.062Z</time></trkpt><trkpt lat="37.3105983" lon="-3.412355"><ele>1188.0</ele><time>2026-04-25T09:41:57.059Z</time></trkpt><trkpt lat="37.3104333" lon="-3.4126617"><ele>1189.5</ele><time>2026-04-25T09:41:58.061Z</time></trkpt><trkpt lat="37.310265" lon="-3.412965"><ele>1191.0</ele><time>2026-04-25T09:41:59.058Z</time></trkpt><trkpt lat="37.3101017" lon="-3.41327"><ele>1191.0</ele><time>2026-04-25T09:42:00.06Z</time></trkpt><trkpt lat="37.3099417" lon="-3.4135767"><ele>1191.0</ele><time>2026-04-25T09:42:01.062Z</time></trkpt><trkpt lat="37.3097867" lon="-3.4138883"><ele>1199.0</ele><time>2026-04-25T09:42:02.06Z</time></trkpt><trkpt lat="37.30964" lon="-3.4142067"><ele>1207.0</ele><time>2026-04-25T09:42:03.064Z</time></trkpt><trkpt lat="37.3094967" lon="-3.41453"><ele>1203.0</ele><time>2026-04-25T09:42:04.06Z</time></trkpt><trkpt lat="37.30936" lon="-3.4148567"><ele>1199.0</ele><time>2026-04-25T09:42:05.063Z</time></trkpt><trkpt lat="37.3092267" lon="-3.4151867"><ele>1197.5</ele><time>2026-04-25T09:42:06.061Z</time></trkpt><trkpt lat="37.3090983" lon="-3.4155233"><ele>1196.0</ele><time>2026-04-25T09:42:07.061Z</time></trkpt><trkpt lat="37.3089717" lon="-3.4158633"><ele>1204.0</ele><time>2026-04-25T09:42:08.061Z</time></trkpt><trkpt lat="37.3088433" lon="-3.4161983"><ele>1212.0</ele><time>2026-04-25T09:42:09.06Z</time></trkpt><trkpt lat="37.3086983" lon="-3.4165233"><ele>1212.0</ele><time>2026-04-25T09:42:10.062Z</time></trkpt><trkpt lat="37.3085417" lon="-3.4168433"><ele>1212.0</ele><time>2026-04-25T09:42:11.061Z</time></trkpt><trkpt lat="37.30837" lon="-3.4171533"><ele>1208.0</ele><time>2026-04-25T09:42:12.061Z</time></trkpt><trkpt lat="37.3081833" lon="-3.4174583"><ele>1204.0</ele><time>2026-04-25T09:42:13.063Z</time></trkpt><trkpt lat="37.3079883" lon="-3.4177517"><ele>1208.0</ele><time>2026-04-25T09:42:14.062Z</time></trkpt><trkpt lat="37.3077833" lon="-3.418035"><ele>1212.0</ele><time>2026-04-25T09:42:15.063Z</time></trkpt><trkpt lat="37.3075783" lon="-3.4183167"><ele>1212.0</ele><time>2026-04-25T09:42:16.06Z</time></trkpt><trkpt lat="37.3073717" lon="-3.418595"><ele>1212.0</ele><time>2026-04-25T09:42:17.059Z</time></trkpt><trkpt lat="37.3071667" lon="-3.4188783"><ele>1218.5</ele><time>2026-04-25T09:42:18.061Z</time></trkpt><trkpt lat="37.30697" lon="-3.419165"><ele>1225.0</ele><time>2026-04-25T09:42:19.062Z</time></trkpt><trkpt lat="37.3067817" lon="-3.4194583"><ele>1214.0</ele><time>2026-04-25T09:42:20.062Z</time></trkpt><trkpt lat="37.3066033" lon="-3.4197567"><ele>1203.0</ele><time>2026-04-25T09:42:21.065Z</time></trkpt><trkpt lat="37.3064267" lon="-3.420055"><ele>1209.5</ele><time>2026-04-25T09:42:22.062Z</time></trkpt><trkpt lat="37.3062567" lon="-3.420355"><ele>1216.0</ele><time>2026-04-25T09:42:23.062Z</time></trkpt><trkpt lat="37.30609" lon="-3.420655"><ele>1216.0</ele><time>2026-04-25T09:42:24.062Z</time></trkpt><trkpt lat="37.3059267" lon="-3.4209517"><ele>1216.0</ele><time>2026-04-25T09:42:25.062Z</time></trkpt><trkpt lat="37.3057633" lon="-3.42125"><ele>1211.5</ele><time>2026-04-25T09:42:26.065Z</time></trkpt><trkpt lat="37.3056083" lon="-3.421545"><ele>1207.0</ele><time>2026-04-25T09:42:27.058Z</time></trkpt><trkpt lat="37.30545" lon="-3.421835"><ele>1214.0</ele><time>2026-04-25T09:42:28.058Z</time></trkpt><trkpt lat="37.3052933" lon="-3.422125"><ele>1221.0</ele><time>2026-04-25T09:42:29.058Z</time></trkpt><trkpt lat="37.305135" lon="-3.42241"><ele>1221.0</ele><time>2026-04-25T09:42:30.061Z</time></trkpt><trkpt lat="37.3049767" lon="-3.4226933"><ele>1221.0</ele><time>2026-04-25T09:42:31.064Z</time></trkpt><trkpt lat="37.304825" lon="-3.4229767"><ele>1231.0</ele><time>2026-04-25T09:42:32.064Z</time></trkpt><trkpt lat="37.3046733" lon="-3.4232583"><ele>1241.0</ele><time>2026-04-25T09:42:33.064Z</time></trkpt><trkpt lat="37.30452" lon="-3.4235367"><ele>1238.0</ele><time>2026-04-25T09:42:34.06Z</time></trkpt><trkpt lat="37.3043667" lon="-3.4238183"><ele>1235.0</ele><time>2026-04-25T09:42:35.062Z</time></trkpt><trkpt lat="37.3042133" lon="-3.424105"><ele>1235.0</ele><time>2026-04-25T09:42:36.063Z</time></trkpt><trkpt lat="37.3040567" lon="-3.4243967"><ele>1235.0</ele><time>2026-04-25T09:42:37.063Z</time></trkpt><trkpt lat="37.3039017" lon="-3.4246933"><ele>1242.0</ele><time>2026-04-25T09:42:38.063Z</time></trkpt><trkpt lat="37.3037417" lon="-3.4249883"><ele>1249.0</ele><time>2026-04-25T09:42:39.068Z</time></trkpt><trkpt lat="37.30358" lon="-3.4252833"><ele>1244.0</ele><time>2026-04-25T09:42:40.062Z</time></trkpt><trkpt lat="37.3034167" lon="-3.4255783"><ele>1239.0</ele><time>2026-04-25T09:42:41.066Z</time></trkpt><trkpt lat="37.303255" lon="-3.425875"><ele>1239.0</ele><time>2026-04-25T09:42:42.06Z</time></trkpt><trkpt lat="37.3030933" lon="-3.4261733"><ele>1239.0</ele><time>2026-04-25T09:42:43.062Z</time></trkpt><trkpt lat="37.3029333" lon="-3.4264733"><ele>1247.5</ele><time>2026-04-25T09:42:44.062Z</time></trkpt><trkpt lat="37.3027767" lon="-3.4267717"><ele>1256.0</ele><time>2026-04-25T09:42:45.06Z</time></trkpt><trkpt lat="37.3026267" lon="-3.427075"><ele>1253.0</ele><time>2026-04-25T09:42:46.059Z</time></trkpt><trkpt lat="37.30248" lon="-3.42738"><ele>1250.0</ele><time>2026-04-25T09:42:47.059Z</time></trkpt><trkpt lat="37.30234" lon="-3.4276867"><ele>1262.5</ele><time>2026-04-25T09:42:48.063Z</time></trkpt><trkpt lat="37.3022" lon="-3.4279917"><ele>1275.0</ele><time>2026-04-25T09:42:49.061Z</time></trkpt><trkpt lat="37.3020617" lon="-3.4282967"><ele>1275.0</ele><time>2026-04-25T09:42:50.058Z</time></trkpt><trkpt lat="37.30193" lon="-3.428605"><ele>1275.0</ele><time>2026-04-25T09:42:51.058Z</time></trkpt><trkpt lat="37.301805" lon="-3.42892"><ele>1271.0</ele><time>2026-04-25T09:42:52.06Z</time></trkpt><trkpt lat="37.301685" lon="-3.42924"><ele>1267.0</ele><time>2026-04-25T09:42:53.062Z</time></trkpt><trkpt lat="37.3015683" lon="-3.42956"><ele>1263.5</ele><time>2026-04-25T09:42:54.061Z</time></trkpt><trkpt lat="37.3014517" lon="-3.42988"><ele>1260.0</ele><time>2026-04-25T09:42:55.061Z</time></trkpt><trkpt lat="37.30133" lon="-3.4301933"><ele>1271.5</ele><time>2026-04-25T09:42:56.062Z</time></trkpt><trkpt lat="37.3011967" lon="-3.4304967"><ele>1283.0</ele><time>2026-04-25T09:42:57.06Z</time></trkpt><trkpt lat="37.3010533" lon="-3.4307967"><ele>1283.0</ele><time>2026-04-25T09:42:58.06Z</time></trkpt><trkpt lat="37.3008967" lon="-3.4310883"><ele>1283.0</ele><time>2026-04-25T09:42:59.058Z</time></trkpt><trkpt lat="37.3007317" lon="-3.4313783"><ele>1290.0</ele><time>2026-04-25T09:43:00.062Z</time></trkpt><trkpt lat="37.3005617" lon="-3.431665"><ele>1297.0</ele><time>2026-04-25T09:43:01.061Z</time></trkpt><trkpt lat="37.3003767" lon="-3.431945"><ele>1291.5</ele><time>2026-04-25T09:43:02.066Z</time></trkpt><trkpt lat="37.3001867" lon="-3.432225"><ele>1286.0</ele><time>2026-04-25T09:43:03.061Z</time></trkpt><trkpt lat="37.2999983" lon="-3.4325083"><ele>1286.0</ele><time>2026-04-25T09:43:04.061Z</time></trkpt><trkpt lat="37.2998117" lon="-3.4327967"><ele>1286.0</ele><time>2026-04-25T09:43:05.061Z</time></trkpt><trkpt lat="37.29963" lon="-3.4330917"><ele>1284.0</ele><time>2026-04-25T09:43:06.066Z</time></trkpt><trkpt lat="37.2994617" lon="-3.4333983"><ele>1282.0</ele><time>2026-04-25T09:43:07.059Z</time></trkpt><trkpt lat="37.2993133" lon="-3.43372"><ele>1280.5</ele><time>2026-04-25T09:43:08.062Z</time></trkpt><trkpt lat="37.299185" lon="-3.434055"><ele>1279.0</ele><time>2026-04-25T09:43:09.06Z</time></trkpt><trkpt lat="37.2990767" lon="-3.4344067"><ele>1279.5</ele><time>2026-04-25T09:43:10.059Z</time></trkpt><trkpt lat="37.2989867" lon="-3.434765"><ele>1280.0</ele><time>2026-04-25T09:43:11.059Z</time></trkpt><trkpt lat="37.29892" lon="-3.4351267"><ele>1294.5</ele><time>2026-04-25T09:43:12.06Z</time></trkpt><trkpt lat="37.2988733" lon="-3.4354933"><ele>1309.0</ele><time>2026-04-25T09:43:13.064Z</time></trkpt><trkpt lat="37.298845" lon="-3.4358633"><ele>1309.0</ele><time>2026-04-25T09:43:14.059Z</time></trkpt><trkpt lat="37.2988417" lon="-3.4362367"><ele>1309.0</ele><time>2026-04-25T09:43:15.059Z</time></trkpt><trkpt lat="37.2988633" lon="-3.4366083"><ele>1311.0</ele><time>2026-04-25T09:43:16.06Z</time></trkpt><trkpt lat="37.2989067" lon="-3.4369817"><ele>1313.0</ele><time>2026-04-25T09:43:17.06Z</time></trkpt><trkpt lat="37.2989683" lon="-3.437355"><ele>1309.5</ele><time>2026-04-25T09:43:18.061Z</time></trkpt><trkpt lat="37.299035" lon="-3.4377283"><ele>1306.0</ele><time>2026-04-25T09:43:19.06Z</time></trkpt><trkpt lat="37.299105" lon="-3.4381067"><ele>1306.0</ele><time>2026-04-25T09:43:20.061Z</time></trkpt><trkpt lat="37.2991667" lon="-3.4384917"><ele>1306.0</ele><time>2026-04-25T09:43:21.058Z</time></trkpt><trkpt lat="37.2992283" lon="-3.4388783"><ele>1308.5</ele><time>2026-04-25T09:43:22.06Z</time></trkpt><trkpt lat="37.2992883" lon="-3.4392633"><ele>1311.0</ele><time>2026-04-25T09:43:23.061Z</time></trkpt><trkpt lat="37.29934" lon="-3.43965"><ele>1311.0</ele><time>2026-04-25T09:43:24.061Z</time></trkpt><trkpt lat="37.299385" lon="-3.4400317"><ele>1311.0</ele><time>2026-04-25T09:43:25.06Z</time></trkpt><trkpt lat="37.29942" lon="-3.4404167"><ele>1311.5</ele><time>2026-04-25T09:43:26.062Z</time></trkpt><trkpt lat="37.2994433" lon="-3.4408017"><ele>1312.0</ele><time>2026-04-25T09:43:27.059Z</time></trkpt><trkpt lat="37.2994517" lon="-3.4411867"><ele>1318.0</ele><time>2026-04-25T09:43:28.059Z</time></trkpt><trkpt lat="37.2994517" lon="-3.4415683"><ele>1324.0</ele><time>2026-04-25T09:43:29.061Z</time></trkpt><trkpt lat="37.2994383" lon="-3.4419517"><ele>1328.0</ele><time>2026-04-25T09:43:30.06Z</time></trkpt><trkpt lat="37.2994167" lon="-3.4423333"><ele>1332.0</ele><time>2026-04-25T09:43:31.058Z</time></trkpt><trkpt lat="37.2993867" lon="-3.442715"><ele>1337.5</ele><time>2026-04-25T09:43:32.059Z</time></trkpt><trkpt lat="37.299345" lon="-3.4430933"><ele>1343.0</ele><time>2026-04-25T09:43:33.062Z</time></trkpt><trkpt lat="37.2992933" lon="-3.4434733"><ele>1341.5</ele><time>2026-04-25T09:43:34.059Z</time></trkpt><trkpt lat="37.299225" lon="-3.4438483"><ele>1340.0</ele><time>2026-04-25T09:43:35.062Z</time></trkpt><trkpt lat="37.29915" lon="-3.444215"><ele>1340.0</ele><time>2026-04-25T09:43:36.058Z</time></trkpt><trkpt lat="37.2990633" lon="-3.4445817"><ele>1340.0</ele><time>2026-04-25T09:43:37.064Z</time></trkpt><trkpt lat="37.2989683" lon="-3.4449467"><ele>1339.0</ele><time>2026-04-25T09:43:38.057Z</time></trkpt><trkpt lat="37.2988583" lon="-3.4453067"><ele>1338.0</ele><time>2026-04-25T09:43:39.06Z</time></trkpt><trkpt lat="37.2987417" lon="-3.4456583"><ele>1338.0</ele><time>2026-04-25T09:43:40.058Z</time></trkpt><trkpt lat="37.2986083" lon="-3.446"><ele>1338.0</ele><time>2026-04-25T09:43:41.06Z</time></trkpt><trkpt lat="37.2984683" lon="-3.4463417"><ele>1335.0</ele><time>2026-04-25T09:43:42.059Z</time></trkpt><trkpt lat="37.29832" lon="-3.4466783"><ele>1332.0</ele><time>2026-04-25T09:43:43.062Z</time></trkpt><trkpt lat="37.29816" lon="-3.44701"><ele>1334.0</ele><time>2026-04-25T09:43:44.061Z</time></trkpt><trkpt lat="37.2979933" lon="-3.4473383"><ele>1336.0</ele><time>2026-04-25T09:43:45.062Z</time></trkpt><trkpt lat="37.2978167" lon="-3.4476567"><ele>1331.5</ele><time>2026-04-25T09:43:46.059Z</time></trkpt><trkpt lat="37.2976317" lon="-3.4479683"><ele>1327.0</ele><time>2026-04-25T09:43:47.06Z</time></trkpt><trkpt lat="37.2974417" lon="-3.4482717"><ele>1330.5</ele><time>2026-04-25T09:43:48.061Z</time></trkpt><trkpt lat="37.29725" lon="-3.44857"><ele>1334.0</ele><time>2026-04-25T09:43:49.059Z</time></trkpt><trkpt lat="37.2970533" lon="-3.4488617"><ele>1334.0</ele><time>2026-04-25T09:43:50.06Z</time></trkpt><trkpt lat="37.2968567" lon="-3.4491567"><ele>1334.0</ele><time>2026-04-25T09:43:51.063Z</time></trkpt><trkpt lat="37.29666" lon="-3.4494533"><ele>1330.0</ele><time>2026-04-25T09:43:52.059Z</time></trkpt><trkpt lat="37.2964617" lon="-3.44975"><ele>1326.0</ele><time>2026-04-25T09:43:53.062Z</time></trkpt><trkpt lat="37.2962617" lon="-3.4500467"><ele>1329.0</ele><time>2026-04-25T09:43:54.062Z</time></trkpt><trkpt lat="37.2960617" lon="-3.450345"><ele>1332.0</ele><time>2026-04-25T09:43:55.061Z</time></trkpt><trkpt lat="37.2958633" lon="-3.450645"><ele>1332.0</ele><time>2026-04-25T09:43:56.065Z</time></trkpt><trkpt lat="37.2956683" lon="-3.4509433"><ele>1332.0</ele><time>2026-04-25T09:43:57.059Z</time></trkpt><trkpt lat="37.2954683" lon="-3.451235"><ele>1337.0</ele><time>2026-04-25T09:43:58.057Z</time></trkpt><trkpt lat="37.2952617" lon="-3.4515183"><ele>1342.0</ele><time>2026-04-25T09:43:59.061Z</time></trkpt><trkpt lat="37.2950467" lon="-3.4517883"><ele>1342.0</ele><time>2026-04-25T09:44:00.059Z</time></trkpt><trkpt lat="37.2948217" lon="-3.452045"><ele>1342.0</ele><time>2026-04-25T09:44:01.06Z</time></trkpt><trkpt lat="37.294585" lon="-3.4522817"><ele>1342.0</ele><time>2026-04-25T09:44:02.063Z</time></trkpt><trkpt lat="37.2943367" lon="-3.4524983"><ele>1342.0</ele><time>2026-04-25T09:44:03.061Z</time></trkpt><trkpt lat="37.2940767" lon="-3.4527"><ele>1340.5</ele><time>2026-04-25T09:44:04.057Z</time></trkpt><trkpt lat="37.2938083" lon="-3.4528867"><ele>1339.0</ele><time>2026-04-25T09:44:05.059Z</time></trkpt><trkpt lat="37.2935333" lon="-3.45306"><ele>1339.0</ele><time>2026-04-25T09:44:06.06Z</time></trkpt><trkpt lat="37.2932467" lon="-3.4532117"><ele>1339.0</ele><time>2026-04-25T09:44:07.061Z</time></trkpt><trkpt lat="37.292955" lon="-3.4533433"><ele>1341.0</ele><time>2026-04-25T09:44:08.061Z</time></trkpt><trkpt lat="37.292655" lon="-3.4534567"><ele>1343.0</ele><time>2026-04-25T09:44:09.058Z</time></trkpt><trkpt lat="37.29235" lon="-3.4535517"><ele>1344.0</ele><time>2026-04-25T09:44:10.059Z</time></trkpt><trkpt lat="37.292045" lon="-3.4536417"><ele>1345.0</ele><time>2026-04-25T09:44:11.061Z</time></trkpt><trkpt lat="37.2917383" lon="-3.453725"><ele>1342.0</ele><time>2026-04-25T09:44:12.06Z</time></trkpt><trkpt lat="37.29143" lon="-3.4538067"><ele>1339.0</ele><time>2026-04-25T09:44:13.061Z</time></trkpt><trkpt lat="37.29112" lon="-3.45389"><ele>1339.0</ele><time>2026-04-25T09:44:14.061Z</time></trkpt><trkpt lat="37.290805" lon="-3.4539767"><ele>1339.0</ele><time>2026-04-25T09:44:15.063Z</time></trkpt><trkpt lat="37.2904883" lon="-3.454075"><ele>1339.5</ele><time>2026-04-25T09:44:16.059Z</time></trkpt><trkpt lat="37.2901783" lon="-3.4541967"><ele>1340.0</ele><time>2026-04-25T09:44:17.061Z</time></trkpt><trkpt lat="37.2898733" lon="-3.4543433"><ele>1341.0</ele><time>2026-04-25T09:44:18.062Z</time></trkpt><trkpt lat="37.2895767" lon="-3.4545117"><ele>1342.0</ele><time>2026-04-25T09:44:19.06Z</time></trkpt><trkpt lat="37.2892833" lon="-3.4546933"><ele>1342.5</ele><time>2026-04-25T09:44:20.06Z</time></trkpt><trkpt lat="37.2889933" lon="-3.4548833"><ele>1343.0</ele><time>2026-04-25T09:44:21.061Z</time></trkpt><trkpt lat="37.2887067" lon="-3.4550783"><ele>1343.0</ele><time>2026-04-25T09:44:22.06Z</time></trkpt><trkpt lat="37.28842" lon="-3.4552733"><ele>1343.0</ele><time>2026-04-25T09:44:23.061Z</time></trkpt><trkpt lat="37.288135" lon="-3.455465"><ele>1344.0</ele><time>2026-04-25T09:44:24.061Z</time></trkpt><trkpt lat="37.2878517" lon="-3.4556567"><ele>1345.0</ele><time>2026-04-25T09:44:25.06Z</time></trkpt><trkpt lat="37.2875667" lon="-3.455845"><ele>1345.0</ele><time>2026-04-25T09:44:26.06Z</time></trkpt><trkpt lat="37.2872817" lon="-3.45603"><ele>1345.0</ele><time>2026-04-25T09:44:27.062Z</time></trkpt><trkpt lat="37.2869967" lon="-3.456215"><ele>1345.5</ele><time>2026-04-25T09:44:28.062Z</time></trkpt><trkpt lat="37.28671" lon="-3.4563933"><ele>1346.0</ele><time>2026-04-25T09:44:29.06Z</time></trkpt><trkpt lat="37.2864217" lon="-3.4565683"><ele>1346.0</ele><time>2026-04-25T09:44:30.06Z</time></trkpt><trkpt lat="37.2861333" lon="-3.45674"><ele>1346.0</ele><time>2026-04-25T09:44:31.058Z</time></trkpt><trkpt lat="37.285845" lon="-3.4569017"><ele>1347.0</ele><time>2026-04-25T09:44:32.061Z</time></trkpt><trkpt lat="37.285555" lon="-3.457055"><ele>1348.0</ele><time>2026-04-25T09:44:33.061Z</time></trkpt><trkpt lat="37.2852633" lon="-3.4571967"><ele>1348.0</ele><time>2026-04-25T09:44:34.059Z</time></trkpt><trkpt lat="37.2849683" lon="-3.4573217"><ele>1348.0</ele><time>2026-04-25T09:44:35.06Z</time></trkpt><trkpt lat="37.2846683" lon="-3.4574217"><ele>1348.0</ele><time>2026-04-25T09:44:36.06Z</time></trkpt><trkpt lat="37.2843667" lon="-3.4575017"><ele>1348.0</ele><time>2026-04-25T09:44:37.068Z</time></trkpt><trkpt lat="37.2840667" lon="-3.457565"><ele>1349.0</ele><time>2026-04-25T09:44:38.062Z</time></trkpt><trkpt lat="37.2837667" lon="-3.45761"><ele>1350.0</ele><time>2026-04-25T09:44:39.059Z</time></trkpt><trkpt lat="37.283465" lon="-3.4576417"><ele>1350.0</ele><time>2026-04-25T09:44:40.061Z</time></trkpt><trkpt lat="37.2831617" lon="-3.457665"><ele>1350.0</ele><time>2026-04-25T09:44:41.059Z</time></trkpt><trkpt lat="37.2828583" lon="-3.4576783"><ele>1351.5</ele><time>2026-04-25T09:44:42.064Z</time></trkpt><trkpt lat="37.282555" lon="-3.4576867"><ele>1353.0</ele><time>2026-04-25T09:44:43.058Z</time></trkpt><trkpt lat="37.2822517" lon="-3.457685"><ele>1353.5</ele><time>2026-04-25T09:44:44.065Z</time></trkpt><trkpt lat="37.2819467" lon="-3.457675"><ele>1354.0</ele><time>2026-04-25T09:44:45.06Z</time></trkpt><trkpt lat="37.2816433" lon="-3.4576617"><ele>1354.0</ele><time>2026-04-25T09:44:46.061Z</time></trkpt><trkpt lat="37.2813417" lon="-3.4576533"><ele>1354.0</ele><time>2026-04-25T09:44:47.06Z</time></trkpt><trkpt lat="37.28104" lon="-3.4576433"><ele>1354.0</ele><time>2026-04-25T09:44:48.063Z</time></trkpt><trkpt lat="37.2807333" lon="-3.4576367"><ele>1354.0</ele><time>2026-04-25T09:44:49.061Z</time></trkpt><trkpt lat="37.2804267" lon="-3.4576417"><ele>1353.0</ele><time>2026-04-25T09:44:50.063Z</time></trkpt><trkpt lat="37.28012" lon="-3.4576633"><ele>1352.0</ele><time>2026-04-25T09:44:51.063Z</time></trkpt><trkpt lat="37.2798133" lon="-3.4577067"><ele>1352.5</ele><time>2026-04-25T09:44:52.06Z</time></trkpt><trkpt lat="37.2795067" lon="-3.457765"><ele>1353.0</ele><time>2026-04-25T09:44:53.06Z</time></trkpt><trkpt lat="37.2792017" lon="-3.45784"><ele>1353.5</ele><time>2026-04-25T09:44:54.061Z</time></trkpt><trkpt lat="37.2788967" lon="-3.45793"><ele>1354.0</ele><time>2026-04-25T09:44:55.061Z</time></trkpt><trkpt lat="37.2785933" lon="-3.4580283"><ele>1355.0</ele><time>2026-04-25T09:44:56.061Z</time></trkpt><trkpt lat="37.27829" lon="-3.4581317"><ele>1356.0</ele><time>2026-04-25T09:44:57.061Z</time></trkpt><trkpt lat="37.277985" lon="-3.4582333"><ele>1356.0</ele><time>2026-04-25T09:44:58.061Z</time></trkpt><trkpt lat="37.27768" lon="-3.458335"><ele>1356.0</ele><time>2026-04-25T09:44:59.062Z</time></trkpt><trkpt lat="37.2773733" lon="-3.458435"><ele>1357.0</ele><time>2026-04-25T09:45:00.06Z</time></trkpt><trkpt lat="37.2770667" lon="-3.4585333"><ele>1358.0</ele><time>2026-04-25T09:45:01.062Z</time></trkpt><trkpt lat="37.2767617" lon="-3.4586333"><ele>1358.0</ele><time>2026-04-25T09:45:02.062Z</time></trkpt><trkpt lat="37.2764583" lon="-3.4587483"><ele>1358.0</ele><time>2026-04-25T09:45:03.06Z</time></trkpt><trkpt lat="37.2761583" lon="-3.45888"><ele>1360.0</ele><time>2026-04-25T09:45:04.062Z</time></trkpt><trkpt lat="37.275865" lon="-3.459025"><ele>1362.0</ele><time>2026-04-25T09:45:05.06Z</time></trkpt><trkpt lat="37.27558" lon="-3.459195"><ele>1362.0</ele><time>2026-04-25T09:45:06.06Z</time></trkpt><trkpt lat="37.275305" lon="-3.4593833"><ele>1362.0</ele><time>2026-04-25T09:45:07.062Z</time></trkpt><trkpt lat="37.275035" lon="-3.4595867"><ele>1362.5</ele><time>2026-04-25T09:45:08.06Z</time></trkpt><trkpt lat="37.2747767" lon="-3.45981"><ele>1363.0</ele><time>2026-04-25T09:45:09.059Z</time></trkpt><trkpt lat="37.274525" lon="-3.4600433"><ele>1363.0</ele><time>2026-04-25T09:45:10.062Z</time></trkpt><trkpt lat="37.2742833" lon="-3.4602967"><ele>1363.0</ele><time>2026-04-25T09:45:11.062Z</time></trkpt><trkpt lat="37.2740517" lon="-3.4605683"><ele>1366.0</ele><time>2026-04-25T09:45:12.064Z</time></trkpt><trkpt lat="37.273825" lon="-3.4608383"><ele>1369.0</ele><time>2026-04-25T09:45:13.062Z</time></trkpt><trkpt lat="37.273605" lon="-3.461115"><ele>1368.0</ele><time>2026-04-25T09:45:14.06Z</time></trkpt><trkpt lat="37.273385" lon="-3.4613883"><ele>1367.0</ele><time>2026-04-25T09:45:15.064Z</time></trkpt><trkpt lat="37.2731617" lon="-3.4616583"><ele>1367.5</ele><time>2026-04-25T09:45:16.061Z</time></trkpt><trkpt lat="37.27294" lon="-3.4619283"><ele>1368.0</ele><time>2026-04-25T09:45:17.061Z</time></trkpt><trkpt lat="37.27272" lon="-3.4622"><ele>1368.0</ele><time>2026-04-25T09:45:18.06Z</time></trkpt><trkpt lat="37.2725017" lon="-3.4624683"><ele>1368.0</ele><time>2026-04-25T09:45:19.06Z</time></trkpt><trkpt lat="37.2722817" lon="-3.4627267"><ele>1369.0</ele><time>2026-04-25T09:45:20.062Z</time></trkpt><trkpt lat="37.2720583" lon="-3.4629767"><ele>1370.0</ele><time>2026-04-25T09:45:21.065Z</time></trkpt><trkpt lat="37.2718317" lon="-3.46322"><ele>1370.0</ele><time>2026-04-25T09:45:22.061Z</time></trkpt><trkpt lat="37.2715967" lon="-3.4634517"><ele>1370.0</ele><time>2026-04-25T09:45:23.064Z</time></trkpt><trkpt lat="37.2713533" lon="-3.4636717"><ele>1370.0</ele><time>2026-04-25T09:45:24.062Z</time></trkpt><trkpt lat="37.2711017" lon="-3.46388"><ele>1370.0</ele><time>2026-04-25T09:45:25.064Z</time></trkpt><trkpt lat="37.27084" lon="-3.4640783"><ele>1372.0</ele><time>2026-04-25T09:45:26.06Z</time></trkpt><trkpt lat="37.270575" lon="-3.46427"><ele>1374.0</ele><time>2026-04-25T09:45:27.061Z</time></trkpt><trkpt lat="37.2703067" lon="-3.4644583"><ele>1376.5</ele><time>2026-04-25T09:45:28.063Z</time></trkpt><trkpt lat="37.2700367" lon="-3.4646467"><ele>1379.0</ele><time>2026-04-25T09:45:29.062Z</time></trkpt><trkpt lat="37.269765" lon="-3.46484"><ele>1372.0</ele><time>2026-04-25T09:45:30.061Z</time></trkpt><trkpt lat="37.2694967" lon="-3.46504"><ele>1365.0</ele><time>2026-04-25T09:45:31.062Z</time></trkpt><trkpt lat="37.2692283" lon="-3.4652417"><ele>1362.5</ele><time>2026-04-25T09:45:32.064Z</time></trkpt><trkpt lat="37.26896" lon="-3.4654483"><ele>1360.0</ele><time>2026-04-25T09:45:33.062Z</time></trkpt><trkpt lat="37.2686917" lon="-3.465655"><ele>1360.0</ele><time>2026-04-25T09:45:34.061Z</time></trkpt><trkpt lat="37.26842" lon="-3.465865"><ele>1360.0</ele><time>2026-04-25T09:45:35.059Z</time></trkpt><trkpt lat="37.2681467" lon="-3.4660733"><ele>1359.5</ele><time>2026-04-25T09:45:36.061Z</time></trkpt><trkpt lat="37.267875" lon="-3.4662767"><ele>1359.0</ele><time>2026-04-25T09:45:37.065Z</time></trkpt><trkpt lat="37.267605" lon="-3.4664883"><ele>1359.0</ele><time>2026-04-25T09:45:38.065Z</time></trkpt><trkpt lat="37.2673383" lon="-3.4667"><ele>1359.0</ele><time>2026-04-25T09:45:39.065Z</time></trkpt><trkpt lat="37.2670767" lon="-3.466905"><ele>1358.0</ele><time>2026-04-25T09:45:40.058Z</time></trkpt><trkpt lat="37.2668183" lon="-3.467105"><ele>1357.0</ele><time>2026-04-25T09:45:41.06Z</time></trkpt><trkpt lat="37.26656" lon="-3.4673033"><ele>1354.0</ele><time>2026-04-25T09:45:42.06Z</time></trkpt><trkpt lat="37.2663033" lon="-3.4675017"><ele>1351.0</ele><time>2026-04-25T09:45:43.062Z</time></trkpt><trkpt lat="37.2660483" lon="-3.4676967"><ele>1351.0</ele><time>2026-04-25T09:45:44.061Z</time></trkpt><trkpt lat="37.2657967" lon="-3.46789"><ele>1351.0</ele><time>2026-04-25T09:45:45.06Z</time></trkpt><trkpt lat="37.26555" lon="-3.4680783"><ele>1349.5</ele><time>2026-04-25T09:45:46.059Z</time></trkpt><trkpt lat="37.265305" lon="-3.468265"><ele>1348.0</ele><time>2026-04-25T09:45:47.06Z</time></trkpt><trkpt lat="37.2650633" lon="-3.4684517"><ele>1348.0</ele><time>2026-04-25T09:45:48.061Z</time></trkpt><trkpt lat="37.26482" lon="-3.468635"><ele>1348.0</ele><time>2026-04-25T09:45:49.061Z</time></trkpt><trkpt lat="37.2645767" lon="-3.4688167"><ele>1343.0</ele><time>2026-04-25T09:45:50.062Z</time></trkpt><trkpt lat="37.2643317" lon="-3.4689967"><ele>1338.0</ele><time>2026-04-25T09:45:51.059Z</time></trkpt><trkpt lat="37.264085" lon="-3.4691717"><ele>1339.0</ele><time>2026-04-25T09:45:52.063Z</time></trkpt><trkpt lat="37.2638317" lon="-3.4693417"><ele>1340.0</ele><time>2026-04-25T09:45:53.064Z</time></trkpt><trkpt lat="37.2635767" lon="-3.4694933"><ele>1337.5</ele><time>2026-04-25T09:45:54.065Z</time></trkpt><trkpt lat="37.263315" lon="-3.469625"><ele>1335.0</ele><time>2026-04-25T09:45:55.062Z</time></trkpt><trkpt lat="37.2630483" lon="-3.4697417"><ele>1334.0</ele><time>2026-04-25T09:45:56.065Z</time></trkpt><trkpt lat="37.26278" lon="-3.4698483"><ele>1333.0</ele><time>2026-04-25T09:45:57.058Z</time></trkpt><trkpt lat="37.2625117" lon="-3.46995"><ele>1328.0</ele><time>2026-04-25T09:45:58.062Z</time></trkpt><trkpt lat="37.2622433" lon="-3.4700517"><ele>1323.0</ele><time>2026-04-25T09:45:59.063Z</time></trkpt><trkpt lat="37.2619717" lon="-3.47015"><ele>1323.0</ele><time>2026-04-25T09:46:00.06Z</time></trkpt><trkpt lat="37.2617017" lon="-3.4702517"><ele>1323.0</ele><time>2026-04-25T09:46:01.06Z</time></trkpt><trkpt lat="37.261435" lon="-3.4703633"><ele>1322.5</ele><time>2026-04-25T09:46:02.061Z</time></trkpt><trkpt lat="37.2611683" lon="-3.4704867"><ele>1322.0</ele><time>2026-04-25T09:46:03.059Z</time></trkpt><trkpt lat="37.2609067" lon="-3.47063"><ele>1322.0</ele><time>2026-04-25T09:46:04.063Z</time></trkpt><trkpt lat="37.26065" lon="-3.4707883"><ele>1322.0</ele><time>2026-04-25T09:46:05.063Z</time></trkpt><trkpt lat="37.2604017" lon="-3.4709667"><ele>1318.5</ele><time>2026-04-25T09:46:06.062Z</time></trkpt><trkpt lat="37.2601617" lon="-3.4711617"><ele>1315.0</ele><time>2026-04-25T09:46:07.064Z</time></trkpt><trkpt lat="37.25993" lon="-3.47137"><ele>1313.5</ele><time>2026-04-25T09:46:08.06Z</time></trkpt><trkpt lat="37.2597067" lon="-3.4715933"><ele>1312.0</ele><time>2026-04-25T09:46:09.06Z</time></trkpt><trkpt lat="37.2594967" lon="-3.4718333"><ele>1312.0</ele><time>2026-04-25T09:46:10.061Z</time></trkpt><trkpt lat="37.259295" lon="-3.4720867"><ele>1312.0</ele><time>2026-04-25T09:46:11.058Z</time></trkpt><trkpt lat="37.2591033" lon="-3.4723533"><ele>1312.5</ele><time>2026-04-25T09:46:12.061Z</time></trkpt><trkpt lat="37.2589267" lon="-3.47263"><ele>1313.0</ele><time>2026-04-25T09:46:13.062Z</time></trkpt><trkpt lat="37.2587617" lon="-3.472915"><ele>1311.0</ele><time>2026-04-25T09:46:14.062Z</time></trkpt><trkpt lat="37.25861" lon="-3.4732067"><ele>1309.0</ele><time>2026-04-25T09:46:15.061Z</time></trkpt><trkpt lat="37.25847" lon="-3.4735067"><ele>1309.0</ele><time>2026-04-25T09:46:16.06Z</time></trkpt><trkpt lat="37.2583433" lon="-3.4738133"><ele>1309.0</ele><time>2026-04-25T09:46:17.061Z</time></trkpt><trkpt lat="37.2582233" lon="-3.47413"><ele>1309.5</ele><time>2026-04-25T09:46:18.062Z</time></trkpt><trkpt lat="37.25811" lon="-3.4744467"><ele>1310.0</ele><time>2026-04-25T09:46:19.064Z</time></trkpt><trkpt lat="37.2580017" lon="-3.47477"><ele>1307.5</ele><time>2026-04-25T09:46:20.065Z</time></trkpt><trkpt lat="37.2578983" lon="-3.475095"><ele>1305.0</ele><time>2026-04-25T09:46:21.061Z</time></trkpt><trkpt lat="37.2577967" lon="-3.4754233"><ele>1304.5</ele><time>2026-04-25T09:46:22.059Z</time></trkpt><trkpt lat="37.2576967" lon="-3.4757517"><ele>1304.0</ele><time>2026-04-25T09:46:23.062Z</time></trkpt><trkpt lat="37.257605" lon="-3.4760883"><ele>1303.0</ele><time>2026-04-25T09:46:24.063Z</time></trkpt><trkpt lat="37.2575133" lon="-3.4764283"><ele>1302.0</ele><time>2026-04-25T09:46:25.061Z</time></trkpt><trkpt lat="37.257425" lon="-3.47677"><ele>1302.5</ele><time>2026-04-25T09:46:26.062Z</time></trkpt><trkpt lat="37.2573333" lon="-3.4771117"><ele>1303.0</ele><time>2026-04-25T09:46:27.06Z</time></trkpt><trkpt lat="37.2572417" lon="-3.477455"><ele>1303.0</ele><time>2026-04-25T09:46:28.06Z</time></trkpt><trkpt lat="37.25715" lon="-3.4777967"><ele>1303.0</ele><time>2026-04-25T09:46:29.063Z</time></trkpt><trkpt lat="37.25706" lon="-3.478135"><ele>1301.0</ele><time>2026-04-25T09:46:30.06Z</time></trkpt><trkpt lat="37.2569683" lon="-3.4784717"><ele>1299.0</ele><time>2026-04-25T09:46:31.064Z</time></trkpt><trkpt lat="37.2568767" lon="-3.4787983"><ele>1298.0</ele><time>2026-04-25T09:46:32.06Z</time></trkpt><trkpt lat="37.2567867" lon="-3.479125"><ele>1297.0</ele><time>2026-04-25T09:46:33.06Z</time></trkpt><trkpt lat="37.2566967" lon="-3.4794467"><ele>1297.0</ele><time>2026-04-25T09:46:34.058Z</time></trkpt><trkpt lat="37.2566017" lon="-3.479765"><ele>1297.0</ele><time>2026-04-25T09:46:35.061Z</time></trkpt><trkpt lat="37.2564967" lon="-3.48008"><ele>1297.0</ele><time>2026-04-25T09:46:36.061Z</time></trkpt><trkpt lat="37.2563817" lon="-3.4803917"><ele>1297.0</ele><time>2026-04-25T09:46:37.063Z</time></trkpt><trkpt lat="37.2562583" lon="-3.4806933"><ele>1297.0</ele><time>2026-04-25T09:46:38.064Z</time></trkpt><trkpt lat="37.2561167" lon="-3.4809867"><ele>1297.0</ele><time>2026-04-25T09:46:39.06Z</time></trkpt><trkpt lat="37.2559533" lon="-3.4812633"><ele>1298.0</ele><time>2026-04-25T09:46:40.064Z</time></trkpt><trkpt lat="37.2557733" lon="-3.48153"><ele>1299.0</ele><time>2026-04-25T09:46:41.059Z</time></trkpt><trkpt lat="37.255575" lon="-3.4817767"><ele>1299.0</ele><time>2026-04-25T09:46:42.063Z</time></trkpt><trkpt lat="37.255365" lon="-3.4820083"><ele>1299.0</ele><time>2026-04-25T09:46:43.062Z</time></trkpt><trkpt lat="37.2551417" lon="-3.4822217"><ele>1298.0</ele><time>2026-04-25T09:46:44.061Z</time></trkpt><trkpt lat="37.25491" lon="-3.4824183"><ele>1297.0</ele><time>2026-04-25T09:46:45.06Z</time></trkpt><trkpt lat="37.2546683" lon="-3.4825983"><ele>1297.0</ele><time>2026-04-25T09:46:46.059Z</time></trkpt><trkpt lat="37.2544167" lon="-3.48276"><ele>1297.0</ele><time>2026-04-25T09:46:47.064Z</time></trkpt><trkpt lat="37.2541533" lon="-3.482895"><ele>1289.0</ele><time>2026-04-25T09:46:48.062Z</time></trkpt><trkpt lat="37.2538767" lon="-3.4830017"><ele>1281.0</ele><time>2026-04-25T09:46:49.06Z</time></trkpt><trkpt lat="37.2535883" lon="-3.48308"><ele>1281.0</ele><time>2026-04-25T09:46:50.064Z</time></trkpt><trkpt lat="37.2532967" lon="-3.4831383"><ele>1281.0</ele><time>2026-04-25T09:46:51.059Z</time></trkpt><trkpt lat="37.2529983" lon="-3.4831783"><ele>1276.5</ele><time>2026-04-25T09:46:52.059Z</time></trkpt><trkpt lat="37.2526983" lon="-3.483195"><ele>1272.0</ele><time>2026-04-25T09:46:53.061Z</time></trkpt><trkpt lat="37.2523983" lon="-3.4831883"><ele>1269.0</ele><time>2026-04-25T09:46:54.06Z</time></trkpt><trkpt lat="37.2520983" lon="-3.4831667"><ele>1266.0</ele><time>2026-04-25T09:46:55.062Z</time></trkpt><trkpt lat="37.2517983" lon="-3.4831333"><ele>1266.0</ele><time>2026-04-25T09:46:56.063Z</time></trkpt><trkpt lat="37.251495" lon="-3.4830917"><ele>1266.0</ele><time>2026-04-25T09:46:57.062Z</time></trkpt><trkpt lat="37.25119" lon="-3.4830533"><ele>1267.5</ele><time>2026-04-25T09:46:58.059Z</time></trkpt><trkpt lat="37.250885" lon="-3.4830233"><ele>1269.0</ele><time>2026-04-25T09:46:59.061Z</time></trkpt><trkpt lat="37.2505817" lon="-3.4830017"><ele>1269.0</ele><time>2026-04-25T09:47:00.064Z</time></trkpt><trkpt lat="37.2502783" lon="-3.4829933"><ele>1269.0</ele><time>2026-04-25T09:47:01.065Z</time></trkpt><trkpt lat="37.2499783" lon="-3.483005"><ele>1264.5</ele><time>2026-04-25T09:47:02.063Z</time></trkpt><trkpt lat="37.2496783" lon="-3.4830333"><ele>1260.0</ele><time>2026-04-25T09:47:03.061Z</time></trkpt><trkpt lat="37.2493783" lon="-3.4830817"><ele>1260.0</ele><time>2026-04-25T09:47:04.062Z</time></trkpt><trkpt lat="37.24908" lon="-3.48315"><ele>1260.0</ele><time>2026-04-25T09:47:05.062Z</time></trkpt><trkpt lat="37.2487817" lon="-3.4832383"><ele>1256.0</ele><time>2026-04-25T09:47:06.06Z</time></trkpt><trkpt lat="37.2484867" lon="-3.4833483"><ele>1252.0</ele><time>2026-04-25T09:47:07.062Z</time></trkpt><trkpt lat="37.2481967" lon="-3.4834833"><ele>1254.5</ele><time>2026-04-25T09:47:08.063Z</time></trkpt><trkpt lat="37.247915" lon="-3.4836417"><ele>1257.0</ele><time>2026-04-25T09:47:09.06Z</time></trkpt><trkpt lat="37.2476433" lon="-3.483825"><ele>1253.5</ele><time>2026-04-25T09:47:10.059Z</time></trkpt><trkpt lat="37.2473817" lon="-3.484025"><ele>1250.0</ele><time>2026-04-25T09:47:11.061Z</time></trkpt><trkpt lat="37.2471317" lon="-3.484245"><ele>1250.0</ele><time>2026-04-25T09:47:12.061Z</time></trkpt><trkpt lat="37.2468917" lon="-3.4844867"><ele>1250.0</ele><time>2026-04-25T09:47:13.062Z</time></trkpt><trkpt lat="37.2466633" lon="-3.4847467"><ele>1245.5</ele><time>2026-04-25T09:47:14.063Z</time></trkpt><trkpt lat="37.2464467" lon="-3.4850217"><ele>1241.0</ele><time>2026-04-25T09:47:15.061Z</time></trkpt><trkpt lat="37.24624" lon="-3.485305"><ele>1235.5</ele><time>2026-04-25T09:47:16.06Z</time></trkpt><trkpt lat="37.2460433" lon="-3.485605"><ele>1230.0</ele><time>2026-04-25T09:47:17.062Z</time></trkpt><trkpt lat="37.2458583" lon="-3.48592"><ele>1230.0</ele><time>2026-04-25T09:47:18.059Z</time></trkpt><trkpt lat="37.245675" lon="-3.4862383"><ele>1230.0</ele><time>2026-04-25T09:47:19.059Z</time></trkpt><trkpt lat="37.245495" lon="-3.4865633"><ele>1225.5</ele><time>2026-04-25T09:47:20.06Z</time></trkpt><trkpt lat="37.2453183" lon="-3.4868967"><ele>1221.0</ele><time>2026-04-25T09:47:21.058Z</time></trkpt><trkpt lat="37.2451433" lon="-3.4872367"><ele>1220.5</ele><time>2026-04-25T09:47:22.059Z</time></trkpt><trkpt lat="37.244965" lon="-3.487575"><ele>1220.0</ele><time>2026-04-25T09:47:23.061Z</time></trkpt><trkpt lat="37.2447733" lon="-3.4879033"><ele>1215.5</ele><time>2026-04-25T09:47:24.061Z</time></trkpt><trkpt lat="37.2445717" lon="-3.48822"><ele>1211.0</ele><time>2026-04-25T09:47:25.059Z</time></trkpt><trkpt lat="37.2443617" lon="-3.4885217"><ele>1215.5</ele><time>2026-04-25T09:47:26.06Z</time></trkpt><trkpt lat="37.2441483" lon="-3.4888083"><ele>1220.0</ele><time>2026-04-25T09:47:27.063Z</time></trkpt><trkpt lat="37.243935" lon="-3.4890883"><ele>1215.5</ele><time>2026-04-25T09:47:28.061Z</time></trkpt><trkpt lat="37.2437217" lon="-3.4893567"><ele>1211.0</ele><time>2026-04-25T09:47:29.066Z</time></trkpt><trkpt lat="37.2435117" lon="-3.48961"><ele>1211.0</ele><time>2026-04-25T09:47:30.064Z</time></trkpt><trkpt lat="37.2433033" lon="-3.4898567"><ele>1211.0</ele><time>2026-04-25T09:47:31.063Z</time></trkpt><trkpt lat="37.2431" lon="-3.4900917"><ele>1203.5</ele><time>2026-04-25T09:47:32.058Z</time></trkpt><trkpt lat="37.2429017" lon="-3.4903183"><ele>1196.0</ele><time>2026-04-25T09:47:33.061Z</time></trkpt><trkpt lat="37.242705" lon="-3.4905383"><ele>1196.0</ele><time>2026-04-25T09:47:34.058Z</time></trkpt><trkpt lat="37.242515" lon="-3.4907617"><ele>1196.0</ele><time>2026-04-25T09:47:35.061Z</time></trkpt><trkpt lat="37.242335" lon="-3.4909883"><ele>1187.5</ele><time>2026-04-25T09:47:36.059Z</time></trkpt><trkpt lat="37.24216" lon="-3.4912167"><ele>1179.0</ele><time>2026-04-25T09:47:37.06Z</time></trkpt><trkpt lat="37.24199" lon="-3.4914433"><ele>1177.5</ele><time>2026-04-25T09:47:38.062Z</time></trkpt><trkpt lat="37.2418233" lon="-3.4916717"><ele>1176.0</ele><time>2026-04-25T09:47:39.059Z</time></trkpt><trkpt lat="37.2416583" lon="-3.491905"><ele>1171.0</ele><time>2026-04-25T09:47:40.059Z</time></trkpt><trkpt lat="37.2414933" lon="-3.4921417"><ele>1166.0</ele><time>2026-04-25T09:47:41.062Z</time></trkpt><trkpt lat="37.24133" lon="-3.4923767"><ele>1166.0</ele><time>2026-04-25T09:47:42.058Z</time></trkpt><trkpt lat="37.2411683" lon="-3.4926117"><ele>1166.0</ele><time>2026-04-25T09:47:43.061Z</time></trkpt><trkpt lat="37.2410117" lon="-3.4928467"><ele>1172.5</ele><time>2026-04-25T09:47:44.059Z</time></trkpt><trkpt lat="37.2408583" lon="-3.4930817"><ele>1179.0</ele><time>2026-04-25T09:47:45.061Z</time></trkpt><trkpt lat="37.24071" lon="-3.4933167"><ele>1173.5</ele><time>2026-04-25T09:47:46.059Z</time></trkpt><trkpt lat="37.2405633" lon="-3.4935517"><ele>1168.0</ele><time>2026-04-25T09:47:47.061Z</time></trkpt><trkpt lat="37.2404183" lon="-3.4937883"><ele>1168.0</ele><time>2026-04-25T09:47:48.061Z</time></trkpt><trkpt lat="37.2402717" lon="-3.4940267"><ele>1168.0</ele><time>2026-04-25T09:47:49.061Z</time></trkpt><trkpt lat="37.2401233" lon="-3.4942633"><ele>1168.0</ele><time>2026-04-25T09:47:50.061Z</time></trkpt><trkpt lat="37.2399717" lon="-3.4944967"><ele>1168.0</ele><time>2026-04-25T09:47:51.06Z</time></trkpt><trkpt lat="37.2398133" lon="-3.4947217"><ele>1161.5</ele><time>2026-04-25T09:47:52.062Z</time></trkpt><trkpt lat="37.2396483" lon="-3.4949383"><ele>1155.0</ele><time>2026-04-25T09:47:53.064Z</time></trkpt><trkpt lat="37.2394783" lon="-3.4951467"><ele>1155.0</ele><time>2026-04-25T09:47:54.059Z</time></trkpt><trkpt lat="37.2393033" lon="-3.4953433"><ele>1155.0</ele><time>2026-04-25T09:47:55.059Z</time></trkpt><trkpt lat="37.2391233" lon="-3.4955333"><ele>1151.0</ele><time>2026-04-25T09:47:56.063Z</time></trkpt><trkpt lat="37.2389383" lon="-3.4957133"><ele>1147.0</ele><time>2026-04-25T09:47:57.064Z</time></trkpt><trkpt lat="37.2387467" lon="-3.4958833"><ele>1147.0</ele><time>2026-04-25T09:47:58.06Z</time></trkpt><trkpt lat="37.2385467" lon="-3.4960433"><ele>1147.0</ele><time>2026-04-25T09:47:59.061Z</time></trkpt><trkpt lat="37.23834" lon="-3.4961933"><ele>1143.0</ele><time>2026-04-25T09:48:00.059Z</time></trkpt><trkpt lat="37.238125" lon="-3.496335"><ele>1139.0</ele><time>2026-04-25T09:48:01.068Z</time></trkpt><trkpt lat="37.2379067" lon="-3.496465"><ele>1139.0</ele><time>2026-04-25T09:48:02.06Z</time></trkpt><trkpt lat="37.2376833" lon="-3.4965833"><ele>1139.0</ele><time>2026-04-25T09:48:03.059Z</time></trkpt><trkpt lat="37.2374533" lon="-3.4966917"><ele>1133.0</ele><time>2026-04-25T09:48:04.059Z</time></trkpt><trkpt lat="37.23722" lon="-3.49679"><ele>1127.0</ele><time>2026-04-25T09:48:05.058Z</time></trkpt><trkpt lat="37.236985" lon="-3.4968783"><ele>1127.0</ele><time>2026-04-25T09:48:06.058Z</time></trkpt><trkpt lat="37.236745" lon="-3.4969683"><ele>1127.0</ele><time>2026-04-25T09:48:07.062Z</time></trkpt><trkpt lat="37.2365083" lon="-3.497055"><ele>1128.0</ele><time>2026-04-25T09:48:08.061Z</time></trkpt><trkpt lat="37.236275" lon="-3.4971367"><ele>1129.0</ele><time>2026-04-25T09:48:09.059Z</time></trkpt><trkpt lat="37.2360433" lon="-3.4972133"><ele>1129.0</ele><time>2026-04-25T09:48:10.06Z</time></trkpt><trkpt lat="37.2358117" lon="-3.4972933"><ele>1129.0</ele><time>2026-04-25T09:48:11.063Z</time></trkpt><trkpt lat="37.2355833" lon="-3.497375"><ele>1124.5</ele><time>2026-04-25T09:48:12.063Z</time></trkpt><trkpt lat="37.2353617" lon="-3.4974633"><ele>1120.0</ele><time>2026-04-25T09:48:13.06Z</time></trkpt><trkpt lat="37.2351467" lon="-3.4975533"><ele>1120.0</ele><time>2026-04-25T09:48:14.063Z</time></trkpt><trkpt lat="37.2349333" lon="-3.4976567"><ele>1120.0</ele><time>2026-04-25T09:48:15.059Z</time></trkpt><trkpt lat="37.2347167" lon="-3.4977733"><ele>1119.0</ele><time>2026-04-25T09:48:16.061Z</time></trkpt><trkpt lat="37.2345" lon="-3.4979133"><ele>1118.0</ele><time>2026-04-25T09:48:17.06Z</time></trkpt><trkpt lat="37.2342833" lon="-3.4980683"><ele>1118.0</ele><time>2026-04-25T09:48:18.06Z</time></trkpt><trkpt lat="37.234065" lon="-3.498235"><ele>1118.0</ele><time>2026-04-25T09:48:19.059Z</time></trkpt><trkpt lat="37.2338467" lon="-3.4984167"><ele>1115.0</ele><time>2026-04-25T09:48:20.06Z</time></trkpt><trkpt lat="37.23363" lon="-3.498615"><ele>1112.0</ele><time>2026-04-25T09:48:21.06Z</time></trkpt><trkpt lat="37.2334167" lon="-3.4988333"><ele>1112.0</ele><time>2026-04-25T09:48:22.062Z</time></trkpt><trkpt lat="37.2332083" lon="-3.4990583"><ele>1112.0</ele><time>2026-04-25T09:48:23.059Z</time></trkpt><trkpt lat="37.2330017" lon="-3.4992933"><ele>1111.5</ele><time>2026-04-25T09:48:24.061Z</time></trkpt><trkpt lat="37.2328" lon="-3.499535"><ele>1111.0</ele><time>2026-04-25T09:48:25.062Z</time></trkpt><trkpt lat="37.2326017" lon="-3.4997733"><ele>1111.0</ele><time>2026-04-25T09:48:26.059Z</time></trkpt><trkpt lat="37.2324" lon="-3.50001"><ele>1111.0</ele><time>2026-04-25T09:48:27.064Z</time></trkpt><trkpt lat="37.232195" lon="-3.5002433"><ele>1101.5</ele><time>2026-04-25T09:48:28.058Z</time></trkpt><trkpt lat="37.2319833" lon="-3.500465"><ele>1092.0</ele><time>2026-04-25T09:48:29.059Z</time></trkpt><trkpt lat="37.2317667" lon="-3.50068"><ele>1092.0</ele><time>2026-04-25T09:48:30.059Z</time></trkpt><trkpt lat="37.2315417" lon="-3.50088"><ele>1092.0</ele><time>2026-04-25T09:48:31.063Z</time></trkpt><trkpt lat="37.23131" lon="-3.50107"><ele>1088.5</ele><time>2026-04-25T09:48:32.065Z</time></trkpt><trkpt lat="37.23107" lon="-3.5012467"><ele>1085.0</ele><time>2026-04-25T09:48:33.058Z</time></trkpt><trkpt lat="37.2308267" lon="-3.501425"><ele>1080.5</ele><time>2026-04-25T09:48:34.06Z</time></trkpt><trkpt lat="37.23058" lon="-3.5015967"><ele>1076.0</ele><time>2026-04-25T09:48:35.065Z</time></trkpt><trkpt lat="37.2303317" lon="-3.5017667"><ele>1076.0</ele><time>2026-04-25T09:48:36.062Z</time></trkpt><trkpt lat="37.2300867" lon="-3.5019417"><ele>1076.0</ele><time>2026-04-25T09:48:37.06Z</time></trkpt><trkpt lat="37.2298417" lon="-3.5021217"><ele>1075.5</ele><time>2026-04-25T09:48:38.058Z</time></trkpt><trkpt lat="37.2296" lon="-3.502305"><ele>1075.0</ele><time>2026-04-25T09:48:39.058Z</time></trkpt><trkpt lat="37.229365" lon="-3.5025017"><ele>1075.0</ele><time>2026-04-25T09:48:40.062Z</time></trkpt><trkpt lat="37.2291367" lon="-3.5027083"><ele>1075.0</ele><time>2026-04-25T09:48:41.059Z</time></trkpt><trkpt lat="37.2289217" lon="-3.5029283"><ele>1072.0</ele><time>2026-04-25T09:48:42.058Z</time></trkpt><trkpt lat="37.2287183" lon="-3.50317"><ele>1069.0</ele><time>2026-04-25T09:48:43.059Z</time></trkpt><trkpt lat="37.2285283" lon="-3.5034317"><ele>1069.0</ele><time>2026-04-25T09:48:44.06Z</time></trkpt><trkpt lat="37.22835" lon="-3.5037083"><ele>1069.0</ele><time>2026-04-25T09:48:45.062Z</time></trkpt><trkpt lat="37.2281867" lon="-3.5039933"><ele>1066.5</ele><time>2026-04-25T09:48:46.057Z</time></trkpt><trkpt lat="37.2280433" lon="-3.5042917"><ele>1064.0</ele><time>2026-04-25T09:48:47.061Z</time></trkpt><trkpt lat="37.22792" lon="-3.5046"><ele>1064.0</ele><time>2026-04-25T09:48:48.058Z</time></trkpt><trkpt lat="37.2278133" lon="-3.50492"><ele>1064.0</ele><time>2026-04-25T09:48:49.06Z</time></trkpt><trkpt lat="37.2277233" lon="-3.5052467"><ele>1066.0</ele><time>2026-04-25T09:48:50.06Z</time></trkpt><trkpt lat="37.2276533" lon="-3.5055833"><ele>1068.0</ele><time>2026-04-25T09:48:51.06Z</time></trkpt><trkpt lat="37.2276" lon="-3.50592"><ele>1072.0</ele><time>2026-04-25T09:48:52.064Z</time></trkpt><trkpt lat="37.2275683" lon="-3.5062567"><ele>1076.0</ele><time>2026-04-25T09:48:53.06Z</time></trkpt><trkpt lat="37.2275533" lon="-3.506595"><ele>1076.0</ele><time>2026-04-25T09:48:54.06Z</time></trkpt><trkpt lat="37.2275567" lon="-3.5069333"><ele>1076.0</ele><time>2026-04-25T09:48:55.062Z</time></trkpt><trkpt lat="37.2275717" lon="-3.5072667"><ele>1079.0</ele><time>2026-04-25T09:48:56.061Z</time></trkpt><trkpt lat="37.227595" lon="-3.5075983"><ele>1082.0</ele><time>2026-04-25T09:48:57.059Z</time></trkpt><trkpt lat="37.227625" lon="-3.5079267"><ele>1082.0</ele><time>2026-04-25T09:48:58.057Z</time></trkpt><trkpt lat="37.22766" lon="-3.508255"><ele>1082.0</ele><time>2026-04-25T09:48:59.059Z</time></trkpt><trkpt lat="37.2276933" lon="-3.5085817"><ele>1083.0</ele><time>2026-04-25T09:49:00.062Z</time></trkpt><trkpt lat="37.22773" lon="-3.5089067"><ele>1084.0</ele><time>2026-04-25T09:49:01.059Z</time></trkpt><trkpt lat="37.2277683" lon="-3.5092317"><ele>1084.0</ele><time>2026-04-25T09:49:02.058Z</time></trkpt><trkpt lat="37.2278083" lon="-3.5095583"><ele>1084.0</ele><time>2026-04-25T09:49:03.059Z</time></trkpt><trkpt lat="37.22784" lon="-3.5098883"><ele>1088.5</ele><time>2026-04-25T09:49:04.057Z</time></trkpt><trkpt lat="37.2278617" lon="-3.51022"><ele>1093.0</ele><time>2026-04-25T09:49:05.058Z</time></trkpt><trkpt lat="37.2278683" lon="-3.5105517"><ele>1099.0</ele><time>2026-04-25T09:49:06.059Z</time></trkpt><trkpt lat="37.2278617" lon="-3.5108817"><ele>1105.0</ele><time>2026-04-25T09:49:07.06Z</time></trkpt><trkpt lat="37.2278383" lon="-3.5112117"><ele>1107.0</ele><time>2026-04-25T09:49:08.059Z</time></trkpt><trkpt lat="37.2278067" lon="-3.511545"><ele>1109.0</ele><time>2026-04-25T09:49:09.056Z</time></trkpt><trkpt lat="37.2277617" lon="-3.5118733"><ele>1110.5</ele><time>2026-04-25T09:49:10.059Z</time></trkpt><trkpt lat="37.227715" lon="-3.5121983"><ele>1112.0</ele><time>2026-04-25T09:49:11.06Z</time></trkpt><trkpt lat="37.2276633" lon="-3.5125233"><ele>1112.0</ele><time>2026-04-25T09:49:12.063Z</time></trkpt><trkpt lat="37.2276117" lon="-3.512855"><ele>1112.0</ele><time>2026-04-25T09:49:13.059Z</time></trkpt><trkpt lat="37.22756" lon="-3.5131917"><ele>1115.0</ele><time>2026-04-25T09:49:14.059Z</time></trkpt><trkpt lat="37.2275167" lon="-3.5135317"><ele>1118.0</ele><time>2026-04-25T09:49:15.062Z</time></trkpt><trkpt lat="37.2274783" lon="-3.5138733"><ele>1118.0</ele><time>2026-04-25T09:49:16.062Z</time></trkpt><trkpt lat="37.2274483" lon="-3.514225"><ele>1118.0</ele><time>2026-04-25T09:49:17.059Z</time></trkpt><trkpt lat="37.2274283" lon="-3.5145833"><ele>1112.0</ele><time>2026-04-25T09:49:18.063Z</time></trkpt><trkpt lat="37.2274167" lon="-3.5149417"><ele>1106.0</ele><time>2026-04-25T09:49:19.059Z</time></trkpt><trkpt lat="37.2274133" lon="-3.5153033"><ele>1102.5</ele><time>2026-04-25T09:49:20.057Z</time></trkpt><trkpt lat="37.2274167" lon="-3.51567"><ele>1099.0</ele><time>2026-04-25T09:49:21.06Z</time></trkpt><trkpt lat="37.2274283" lon="-3.5160383"><ele>1097.5</ele><time>2026-04-25T09:49:22.06Z</time></trkpt><trkpt lat="37.2274383" lon="-3.5164133"><ele>1096.0</ele><time>2026-04-25T09:49:23.059Z</time></trkpt><trkpt lat="37.2274467" lon="-3.5167867"><ele>1095.5</ele><time>2026-04-25T09:49:24.066Z</time></trkpt><trkpt lat="37.2274517" lon="-3.5171583"><ele>1095.0</ele><time>2026-04-25T09:49:25.059Z</time></trkpt><trkpt lat="37.22745" lon="-3.5175283"><ele>1095.0</ele><time>2026-04-25T09:49:26.059Z</time></trkpt><trkpt lat="37.227435" lon="-3.5178967"><ele>1095.0</ele><time>2026-04-25T09:49:27.058Z</time></trkpt><trkpt lat="37.2274067" lon="-3.51826"><ele>1087.0</ele><time>2026-04-25T09:49:28.057Z</time></trkpt><trkpt lat="37.2273617" lon="-3.51862"><ele>1079.0</ele><time>2026-04-25T09:49:29.06Z</time></trkpt><trkpt lat="37.227305" lon="-3.5189733"><ele>1062.5</ele><time>2026-04-25T09:49:30.061Z</time></trkpt><trkpt lat="37.2272383" lon="-3.5193233"><ele>1046.0</ele><time>2026-04-25T09:49:31.06Z</time></trkpt><trkpt lat="37.227165" lon="-3.5196733"><ele>1030.0</ele><time>2026-04-25T09:49:32.062Z</time></trkpt><trkpt lat="37.2270867" lon="-3.5200267"><ele>1014.0</ele><time>2026-04-25T09:49:33.058Z</time></trkpt><trkpt lat="37.2270033" lon="-3.5203783"><ele>1024.5</ele><time>2026-04-25T09:49:34.059Z</time></trkpt><trkpt lat="37.2269233" lon="-3.5207317"><ele>1035.0</ele><time>2026-04-25T09:49:35.064Z</time></trkpt><trkpt lat="37.2268533" lon="-3.5210867"><ele>1048.0</ele><time>2026-04-25T09:49:36.059Z</time></trkpt><trkpt lat="37.2267917" lon="-3.5214417"><ele>1061.0</ele><time>2026-04-25T09:49:37.064Z</time></trkpt><trkpt lat="37.2267417" lon="-3.5217983"><ele>1070.0</ele><time>2026-04-25T09:49:38.067Z</time></trkpt><trkpt lat="37.226705" lon="-3.5221533"><ele>1079.0</ele><time>2026-04-25T09:49:39.062Z</time></trkpt><trkpt lat="37.226685" lon="-3.5225117"><ele>1079.0</ele><time>2026-04-25T09:49:40.062Z</time></trkpt><trkpt lat="37.2266817" lon="-3.52287"><ele>1079.0</ele><time>2026-04-25T09:49:41.061Z</time></trkpt><trkpt lat="37.226695" lon="-3.523225"><ele>1085.0</ele><time>2026-04-25T09:49:42.06Z</time></trkpt><trkpt lat="37.2267233" lon="-3.5235767"><ele>1091.0</ele><time>2026-04-25T09:49:43.061Z</time></trkpt><trkpt lat="37.226765" lon="-3.5239283"><ele>1096.0</ele><time>2026-04-25T09:49:44.06Z</time></trkpt><trkpt lat="37.22682" lon="-3.5242733"><ele>1101.0</ele><time>2026-04-25T09:49:45.058Z</time></trkpt><trkpt lat="37.2268883" lon="-3.5246167"><ele>1106.5</ele><time>2026-04-25T09:49:46.059Z</time></trkpt><trkpt lat="37.2269617" lon="-3.5249567"><ele>1112.0</ele><time>2026-04-25T09:49:47.062Z</time></trkpt><trkpt lat="37.2270367" lon="-3.5252967"><ele>1115.5</ele><time>2026-04-25T09:49:48.062Z</time></trkpt><trkpt lat="37.2271117" lon="-3.525635"><ele>1119.0</ele><time>2026-04-25T09:49:49.056Z</time></trkpt><trkpt lat="37.2271867" lon="-3.5259733"><ele>1120.5</ele><time>2026-04-25T09:49:50.06Z</time></trkpt><trkpt lat="37.22726" lon="-3.5263117"><ele>1122.0</ele><time>2026-04-25T09:49:51.06Z</time></trkpt><trkpt lat="37.2273283" lon="-3.526655"><ele>1122.0</ele><time>2026-04-25T09:49:52.058Z</time></trkpt><trkpt lat="37.2273933" lon="-3.5269983"><ele>1122.0</ele><time>2026-04-25T09:49:53.058Z</time></trkpt><trkpt lat="37.2274467" lon="-3.5273467"><ele>1120.0</ele><time>2026-04-25T09:49:54.059Z</time></trkpt><trkpt lat="37.2274883" lon="-3.527695"><ele>1118.0</ele><time>2026-04-25T09:49:55.059Z</time></trkpt><trkpt lat="37.227515" lon="-3.5280433"><ele>1118.0</ele><time>2026-04-25T09:49:56.064Z</time></trkpt><trkpt lat="37.2275283" lon="-3.5283967"><ele>1118.0</ele><time>2026-04-25T09:49:57.059Z</time></trkpt><trkpt lat="37.227525" lon="-3.5287517"><ele>1113.5</ele><time>2026-04-25T09:49:58.06Z</time></trkpt><trkpt lat="37.227505" lon="-3.5291067"><ele>1109.0</ele><time>2026-04-25T09:49:59.061Z</time></trkpt><trkpt lat="37.2274683" lon="-3.5294567"><ele>1108.5</ele><time>2026-04-25T09:50:00.058Z</time></trkpt><trkpt lat="37.2274217" lon="-3.52979"><ele>1108.0</ele><time>2026-04-25T09:50:01.065Z</time></trkpt><trkpt lat="37.2273617" lon="-3.5301133"><ele>1111.5</ele><time>2026-04-25T09:50:02.061Z</time></trkpt><trkpt lat="37.2272917" lon="-3.5304267"><ele>1115.0</ele><time>2026-04-25T09:50:03.057Z</time></trkpt><trkpt lat="37.2272133" lon="-3.5307267"><ele>1115.0</ele><time>2026-04-25T09:50:04.061Z</time></trkpt><trkpt lat="37.2271283" lon="-3.5310183"><ele>1115.0</ele><time>2026-04-25T09:50:05.062Z</time></trkpt><trkpt lat="37.2270333" lon="-3.531305"><ele>1115.0</ele><time>2026-04-25T09:50:06.061Z</time></trkpt><trkpt lat="37.226935" lon="-3.5315867"><ele>1115.0</ele><time>2026-04-25T09:50:07.064Z</time></trkpt><trkpt lat="37.22683" lon="-3.531865"><ele>1115.5</ele><time>2026-04-25T09:50:08.062Z</time></trkpt><trkpt lat="37.226725" lon="-3.53214"><ele>1116.0</ele><time>2026-04-25T09:50:09.065Z</time></trkpt><trkpt lat="37.2266183" lon="-3.5324083"><ele>1116.0</ele><time>2026-04-25T09:50:10.06Z</time></trkpt><trkpt lat="37.2265117" lon="-3.53267"><ele>1116.0</ele><time>2026-04-25T09:50:11.063Z</time></trkpt><trkpt lat="37.2264083" lon="-3.53293"><ele>1117.5</ele><time>2026-04-25T09:50:12.059Z</time></trkpt><trkpt lat="37.226305" lon="-3.5331867"><ele>1119.0</ele><time>2026-04-25T09:50:13.063Z</time></trkpt><trkpt lat="37.2262033" lon="-3.5334417"><ele>1119.0</ele><time>2026-04-25T09:50:14.061Z</time></trkpt><trkpt lat="37.2261" lon="-3.5337"><ele>1119.0</ele><time>2026-04-25T09:50:15.062Z</time></trkpt><trkpt lat="37.2259983" lon="-3.5339617"><ele>1123.0</ele><time>2026-04-25T09:50:16.06Z</time></trkpt><trkpt lat="37.2258983" lon="-3.534225"><ele>1127.0</ele><time>2026-04-25T09:50:17.059Z</time></trkpt><trkpt lat="37.2258033" lon="-3.53448"><ele>1128.3333333333335</ele><time>2026-04-25T09:50:18.062Z</time></trkpt><trkpt lat="37.2257133" lon="-3.53473"><ele>1129.6666666666667</ele><time>2026-04-25T09:50:19.058Z</time></trkpt><trkpt lat="37.2256267" lon="-3.5349767"><ele>1131.0</ele><time>2026-04-25T09:50:20.059Z</time></trkpt><trkpt lat="37.2255433" lon="-3.535225"><ele>1129.3333333333333</ele><time>2026-04-25T09:50:21.058Z</time></trkpt><trkpt lat="37.2254667" lon="-3.5354783"><ele>1127.6666666666665</ele><time>2026-04-25T09:50:22.062Z</time></trkpt><trkpt lat="37.2253933" lon="-3.5357317"><ele>1126.0</ele><time>2026-04-25T09:50:23.059Z</time></trkpt><trkpt lat="37.2253233" lon="-3.5359883"><ele>1128.3333333333333</ele><time>2026-04-25T09:50:24.063Z</time></trkpt><trkpt lat="37.22526" lon="-3.5362483"><ele>1130.6666666666667</ele><time>2026-04-25T09:50:25.062Z</time></trkpt><trkpt lat="37.2252" lon="-3.5365133"><ele>1133.0</ele><time>2026-04-25T09:50:26.059Z</time></trkpt><trkpt lat="37.225145" lon="-3.5367833"><ele>1134.0</ele><time>2026-04-25T09:50:27.061Z</time></trkpt><trkpt lat="37.22509" lon="-3.5370583"><ele>1135.0</ele><time>2026-04-25T09:50:28.061Z</time></trkpt><trkpt lat="37.2250433" lon="-3.53733"><ele>1136.0</ele><time>2026-04-25T09:50:29.063Z</time></trkpt><trkpt lat="37.2250017" lon="-3.5376"><ele>1136.0</ele><time>2026-04-25T09:50:30.061Z</time></trkpt><trkpt lat="37.224965" lon="-3.5378717"><ele>1136.0</ele><time>2026-04-25T09:50:31.063Z</time></trkpt><trkpt lat="37.2249383" lon="-3.538145"><ele>1136.0</ele><time>2026-04-25T09:50:32.063Z</time></trkpt><trkpt lat="37.2249167" lon="-3.5384217"><ele>1135.0</ele><time>2026-04-25T09:50:33.06Z</time></trkpt><trkpt lat="37.2248983" lon="-3.538705"><ele>1134.0</ele><time>2026-04-25T09:50:34.061Z</time></trkpt><trkpt lat="37.22489" lon="-3.5389883"><ele>1131.0</ele><time>2026-04-25T09:50:35.06Z</time></trkpt><trkpt lat="37.2248867" lon="-3.539275"><ele>1128.0</ele><time>2026-04-25T09:50:36.062Z</time></trkpt><trkpt lat="37.224885" lon="-3.5395617"><ele>1124.0</ele><time>2026-04-25T09:50:37.06Z</time></trkpt><trkpt lat="37.2248883" lon="-3.53985"><ele>1120.0</ele><time>2026-04-25T09:50:38.062Z</time></trkpt><trkpt lat="37.2248967" lon="-3.5401333"><ele>1118.0</ele><time>2026-04-25T09:50:39.058Z</time></trkpt><trkpt lat="37.2249133" lon="-3.540415"><ele>1116.0</ele><time>2026-04-25T09:50:40.059Z</time></trkpt><trkpt lat="37.2249367" lon="-3.5407017"><ele>1116.0</ele><time>2026-04-25T09:50:41.058Z</time></trkpt><trkpt lat="37.2249667" lon="-3.5409883"><ele>1116.0</ele><time>2026-04-25T09:50:42.06Z</time></trkpt><trkpt lat="37.2250017" lon="-3.541275"><ele>1110.5</ele><time>2026-04-25T09:50:43.059Z</time></trkpt><trkpt lat="37.2250433" lon="-3.541565"><ele>1105.0</ele><time>2026-04-25T09:50:44.058Z</time></trkpt><trkpt lat="37.225085" lon="-3.5418567"><ele>1102.0</ele><time>2026-04-25T09:50:45.059Z</time></trkpt><trkpt lat="37.2251317" lon="-3.54215"><ele>1099.0</ele><time>2026-04-25T09:50:46.058Z</time></trkpt><trkpt lat="37.2251817" lon="-3.5424483"><ele>1099.0</ele><time>2026-04-25T09:50:47.061Z</time></trkpt><trkpt lat="37.2252333" lon="-3.542745"><ele>1099.0</ele><time>2026-04-25T09:50:48.061Z</time></trkpt><trkpt lat="37.225285" lon="-3.5430367"><ele>1093.5</ele><time>2026-04-25T09:50:49.062Z</time></trkpt><trkpt lat="37.2253383" lon="-3.5433267"><ele>1088.0</ele><time>2026-04-25T09:50:50.059Z</time></trkpt><trkpt lat="37.2253933" lon="-3.54362"><ele>1083.0</ele><time>2026-04-25T09:50:51.06Z</time></trkpt><trkpt lat="37.22545" lon="-3.543915"><ele>1078.0</ele><time>2026-04-25T09:50:52.063Z</time></trkpt><trkpt lat="37.2255083" lon="-3.5442033"><ele>1078.0</ele><time>2026-04-25T09:50:53.061Z</time></trkpt><trkpt lat="37.2255683" lon="-3.5444833"><ele>1078.0</ele><time>2026-04-25T09:50:54.063Z</time></trkpt><trkpt lat="37.2256267" lon="-3.5447583"><ele>1079.6666666666665</ele><time>2026-04-25T09:50:55.062Z</time></trkpt><trkpt lat="37.2256783" lon="-3.5450333"><ele>1081.3333333333333</ele><time>2026-04-25T09:50:56.063Z</time></trkpt><trkpt lat="37.2257283" lon="-3.5453067"><ele>1083.0</ele><time>2026-04-25T09:50:57.065Z</time></trkpt><trkpt lat="37.225775" lon="-3.5455833"><ele>1076.0</ele><time>2026-04-25T09:50:58.059Z</time></trkpt><trkpt lat="37.2258217" lon="-3.545865"><ele>1069.0</ele><time>2026-04-25T09:50:59.061Z</time></trkpt><trkpt lat="37.2258667" lon="-3.5461517"><ele>1069.0</ele><time>2026-04-25T09:51:00.062Z</time></trkpt><trkpt lat="37.2259083" lon="-3.54644"><ele>1069.0</ele><time>2026-04-25T09:51:01.06Z</time></trkpt><trkpt lat="37.2259467" lon="-3.5467333"><ele>1069.0</ele><time>2026-04-25T09:51:02.06Z</time></trkpt><trkpt lat="37.225985" lon="-3.5470283"><ele>1069.0</ele><time>2026-04-25T09:51:03.059Z</time></trkpt><trkpt lat="37.226025" lon="-3.5473233"><ele>1068.5</ele><time>2026-04-25T09:51:04.06Z</time></trkpt><trkpt lat="37.2260583" lon="-3.5476217"><ele>1068.0</ele><time>2026-04-25T09:51:05.061Z</time></trkpt><trkpt lat="37.2260917" lon="-3.5479233"><ele>1066.0</ele><time>2026-04-25T09:51:06.059Z</time></trkpt><trkpt lat="37.22612" lon="-3.5482233"><ele>1064.0</ele><time>2026-04-25T09:51:07.06Z</time></trkpt><trkpt lat="37.2261467" lon="-3.5485183"><ele>1058.5</ele><time>2026-04-25T09:51:08.061Z</time></trkpt><trkpt lat="37.22617" lon="-3.5488117"><ele>1053.0</ele><time>2026-04-25T09:51:09.063Z</time></trkpt><trkpt lat="37.2261917" lon="-3.5491083"><ele>1053.0</ele><time>2026-04-25T09:51:10.058Z</time></trkpt><trkpt lat="37.22621" lon="-3.5494083"><ele>1053.0</ele><time>2026-04-25T09:51:11.062Z</time></trkpt><trkpt lat="37.2262233" lon="-3.54971"><ele>1052.5</ele><time>2026-04-25T09:51:12.063Z</time></trkpt><trkpt lat="37.2262333" lon="-3.550015"><ele>1052.0</ele><time>2026-04-25T09:51:13.061Z</time></trkpt><trkpt lat="37.2262417" lon="-3.55032"><ele>1051.0</ele><time>2026-04-25T09:51:14.061Z</time></trkpt><trkpt lat="37.22625" lon="-3.55063"><ele>1050.0</ele><time>2026-04-25T09:51:15.058Z</time></trkpt><trkpt lat="37.2262583" lon="-3.55094"><ele>1046.5</ele><time>2026-04-25T09:51:16.061Z</time></trkpt><trkpt lat="37.2262617" lon="-3.5512417"><ele>1043.0</ele><time>2026-04-25T09:51:17.062Z</time></trkpt><trkpt lat="37.2262617" lon="-3.5515383"><ele>1043.0</ele><time>2026-04-25T09:51:18.06Z</time></trkpt><trkpt lat="37.2262583" lon="-3.5518367"><ele>1043.0</ele><time>2026-04-25T09:51:19.062Z</time></trkpt><trkpt lat="37.226255" lon="-3.552135"><ele>1036.5</ele><time>2026-04-25T09:51:20.065Z</time></trkpt><trkpt lat="37.22625" lon="-3.552435"><ele>1030.0</ele><time>2026-04-25T09:51:21.059Z</time></trkpt><trkpt lat="37.2262433" lon="-3.5527433"><ele>1022.0</ele><time>2026-04-25T09:51:22.062Z</time></trkpt><trkpt lat="37.226235" lon="-3.5530583"><ele>1014.0</ele><time>2026-04-25T09:51:23.06Z</time></trkpt><trkpt lat="37.22623" lon="-3.5533683"><ele>1014.0</ele><time>2026-04-25T09:51:24.06Z</time></trkpt><trkpt lat="37.2262233" lon="-3.5536817"><ele>1014.0</ele><time>2026-04-25T09:51:25.065Z</time></trkpt><trkpt lat="37.2262167" lon="-3.553995"><ele>1009.0</ele><time>2026-04-25T09:51:26.062Z</time></trkpt><trkpt lat="37.2262117" lon="-3.5543067"><ele>1004.0</ele><time>2026-04-25T09:51:27.058Z</time></trkpt><trkpt lat="37.2262117" lon="-3.5546183"><ele>1000.5</ele><time>2026-04-25T09:51:28.059Z</time></trkpt><trkpt lat="37.2262133" lon="-3.554925"><ele>997.0</ele><time>2026-04-25T09:51:29.057Z</time></trkpt><trkpt lat="37.226215" lon="-3.5552283"><ele>1002.5</ele><time>2026-04-25T09:51:30.06Z</time></trkpt><trkpt lat="37.2262183" lon="-3.5555283"><ele>1008.0</ele><time>2026-04-25T09:51:31.059Z</time></trkpt><trkpt lat="37.226225" lon="-3.5558283"><ele>1008.0</ele><time>2026-04-25T09:51:32.063Z</time></trkpt><trkpt lat="37.2262317" lon="-3.5561333"><ele>1008.0</ele><time>2026-04-25T09:51:33.059Z</time></trkpt><trkpt lat="37.2262383" lon="-3.5564417"><ele>1009.5</ele><time>2026-04-25T09:51:34.062Z</time></trkpt><trkpt lat="37.2262483" lon="-3.5567533"><ele>1011.0</ele><time>2026-04-25T09:51:35.059Z</time></trkpt><trkpt lat="37.2262567" lon="-3.557065"><ele>1011.0</ele><time>2026-04-25T09:51:36.066Z</time></trkpt><trkpt lat="37.22627" lon="-3.5573817"><ele>1011.0</ele><time>2026-04-25T09:51:37.059Z</time></trkpt><trkpt lat="37.2262867" lon="-3.5576967"><ele>1009.0</ele><time>2026-04-25T09:51:38.058Z</time></trkpt><trkpt lat="37.2263083" lon="-3.5580117"><ele>1007.0</ele><time>2026-04-25T09:51:39.065Z</time></trkpt><trkpt lat="37.226335" lon="-3.5583267"><ele>1007.0</ele><time>2026-04-25T09:51:40.061Z</time></trkpt><trkpt lat="37.2263683" lon="-3.5586433"><ele>1007.0</ele><time>2026-04-25T09:51:41.062Z</time></trkpt><trkpt lat="37.2264117" lon="-3.55896"><ele>1002.0</ele><time>2026-04-25T09:51:42.061Z</time></trkpt><trkpt lat="37.2264667" lon="-3.5592733"><ele>997.0</ele><time>2026-04-25T09:51:43.058Z</time></trkpt><trkpt lat="37.22653" lon="-3.5595867"><ele>997.0</ele><time>2026-04-25T09:51:44.064Z</time></trkpt><trkpt lat="37.226605" lon="-3.5599"><ele>997.0</ele><time>2026-04-25T09:51:45.061Z</time></trkpt><trkpt lat="37.2266967" lon="-3.5602083"><ele>994.0</ele><time>2026-04-25T09:51:46.059Z</time></trkpt><trkpt lat="37.2268067" lon="-3.5605133"><ele>991.0</ele><time>2026-04-25T09:51:47.064Z</time></trkpt><trkpt lat="37.2269283" lon="-3.5608117"><ele>991.0</ele><time>2026-04-25T09:51:48.06Z</time></trkpt><trkpt lat="37.22706" lon="-3.5611033"><ele>991.0</ele><time>2026-04-25T09:51:49.063Z</time></trkpt><trkpt lat="37.227205" lon="-3.5613883"><ele>987.0</ele><time>2026-04-25T09:51:50.064Z</time></trkpt><trkpt lat="37.2273617" lon="-3.5616667"><ele>983.0</ele><time>2026-04-25T09:51:51.06Z</time></trkpt><trkpt lat="37.2275233" lon="-3.5619367"><ele>981.5</ele><time>2026-04-25T09:51:52.059Z</time></trkpt><trkpt lat="37.227695" lon="-3.5622017"><ele>980.0</ele><time>2026-04-25T09:51:53.063Z</time></trkpt><trkpt lat="37.227875" lon="-3.5624617"><ele>980.0</ele><time>2026-04-25T09:51:54.062Z</time></trkpt><trkpt lat="37.2280583" lon="-3.5627117"><ele>980.0</ele><time>2026-04-25T09:51:55.057Z</time></trkpt><trkpt lat="37.2282483" lon="-3.5629633"><ele>976.5</ele><time>2026-04-25T09:51:56.061Z</time></trkpt><trkpt lat="37.2284367" lon="-3.5632167"><ele>973.0</ele><time>2026-04-25T09:51:57.062Z</time></trkpt><trkpt lat="37.2286233" lon="-3.563465"><ele>974.0</ele><time>2026-04-25T09:51:58.062Z</time></trkpt><trkpt lat="37.22881" lon="-3.56372"><ele>975.0</ele><time>2026-04-25T09:51:59.064Z</time></trkpt><trkpt lat="37.229" lon="-3.5639717"><ele>969.5</ele><time>2026-04-25T09:52:00.06Z</time></trkpt><trkpt lat="37.22919" lon="-3.5642267"><ele>964.0</ele><time>2026-04-25T09:52:01.065Z</time></trkpt><trkpt lat="37.22938" lon="-3.5644833"><ele>962.0</ele><time>2026-04-25T09:52:02.058Z</time></trkpt><trkpt lat="37.2295683" lon="-3.5647383"><ele>960.0</ele><time>2026-04-25T09:52:03.062Z</time></trkpt><trkpt lat="37.2297533" lon="-3.56499"><ele>954.5</ele><time>2026-04-25T09:52:04.058Z</time></trkpt><trkpt lat="37.2299317" lon="-3.565235"><ele>949.0</ele><time>2026-04-25T09:52:05.059Z</time></trkpt><trkpt lat="37.2301083" lon="-3.5654833"><ele>945.5</ele><time>2026-04-25T09:52:06.06Z</time></trkpt><trkpt lat="37.23028" lon="-3.5657317"><ele>942.0</ele><time>2026-04-25T09:52:07.06Z</time></trkpt><trkpt lat="37.23045" lon="-3.5659883"><ele>937.0</ele><time>2026-04-25T09:52:08.057Z</time></trkpt><trkpt lat="37.2306183" lon="-3.5662433"><ele>932.0</ele><time>2026-04-25T09:52:09.064Z</time></trkpt><trkpt lat="37.2307883" lon="-3.5665"><ele>932.0</ele><time>2026-04-25T09:52:10.062Z</time></trkpt><trkpt lat="37.230955" lon="-3.5667567"><ele>932.0</ele><time>2026-04-25T09:52:11.059Z</time></trkpt><trkpt lat="37.23112" lon="-3.567015"><ele>925.0</ele><time>2026-04-25T09:52:12.058Z</time></trkpt><trkpt lat="37.2312783" lon="-3.567275"><ele>918.0</ele><time>2026-04-25T09:52:13.057Z</time></trkpt><trkpt lat="37.231435" lon="-3.567535"><ele>918.5</ele><time>2026-04-25T09:52:14.063Z</time></trkpt><trkpt lat="37.2315867" lon="-3.5677983"><ele>919.0</ele><time>2026-04-25T09:52:15.06Z</time></trkpt><trkpt lat="37.2317317" lon="-3.5680617"><ele>919.0</ele><time>2026-04-25T09:52:16.059Z</time></trkpt><trkpt lat="37.231875" lon="-3.5683267"><ele>919.0</ele><time>2026-04-25T09:52:17.06Z</time></trkpt><trkpt lat="37.2320133" lon="-3.5685917"><ele>915.5</ele><time>2026-04-25T09:52:18.06Z</time></trkpt><trkpt lat="37.23215" lon="-3.56886"><ele>912.0</ele><time>2026-04-25T09:52:19.061Z</time></trkpt><trkpt lat="37.2322817" lon="-3.569135"><ele>916.0</ele><time>2026-04-25T09:52:20.061Z</time></trkpt><trkpt lat="37.23241" lon="-3.56941"><ele>920.0</ele><time>2026-04-25T09:52:21.066Z</time></trkpt><trkpt lat="37.2325333" lon="-3.5696833"><ele>920.0</ele><time>2026-04-25T09:52:22.06Z</time></trkpt><trkpt lat="37.2326533" lon="-3.5699567"><ele>920.0</ele><time>2026-04-25T09:52:23.061Z</time></trkpt><trkpt lat="37.2327683" lon="-3.5702333"><ele>918.0</ele><time>2026-04-25T09:52:24.059Z</time></trkpt><trkpt lat="37.232875" lon="-3.5705117"><ele>916.0</ele><time>2026-04-25T09:52:25.061Z</time></trkpt><trkpt lat="37.2329767" lon="-3.57079"><ele>916.0</ele><time>2026-04-25T09:52:26.058Z</time></trkpt><trkpt lat="37.233075" lon="-3.5710767"><ele>916.0</ele><time>2026-04-25T09:52:27.061Z</time></trkpt><trkpt lat="37.2331667" lon="-3.5713733"><ele>908.0</ele><time>2026-04-25T09:52:28.06Z</time></trkpt><trkpt lat="37.2332533" lon="-3.57167"><ele>900.0</ele><time>2026-04-25T09:52:29.062Z</time></trkpt><trkpt lat="37.233335" lon="-3.5719667"><ele>900.0</ele><time>2026-04-25T09:52:30.064Z</time></trkpt><trkpt lat="37.2334083" lon="-3.5722617"><ele>900.0</ele><time>2026-04-25T09:52:31.06Z</time></trkpt><trkpt lat="37.2334783" lon="-3.5725483"><ele>900.0</ele><time>2026-04-25T09:52:32.062Z</time></trkpt><trkpt lat="37.2335417" lon="-3.57283"><ele>900.0</ele><time>2026-04-25T09:52:33.059Z</time></trkpt><trkpt lat="37.2335967" lon="-3.57311"><ele>898.5</ele><time>2026-04-25T09:52:34.058Z</time></trkpt><trkpt lat="37.2336483" lon="-3.5733867"><ele>897.0</ele><time>2026-04-25T09:52:35.06Z</time></trkpt><trkpt lat="37.233695" lon="-3.5736633"><ele>894.5</ele><time>2026-04-25T09:52:36.062Z</time></trkpt><trkpt lat="37.2337417" lon="-3.5739467"><ele>892.0</ele><time>2026-04-25T09:52:37.059Z</time></trkpt><trkpt lat="37.2337833" lon="-3.5742417"><ele>887.5</ele><time>2026-04-25T09:52:38.058Z</time></trkpt><trkpt lat="37.2338233" lon="-3.5745483"><ele>883.0</ele><time>2026-04-25T09:52:39.062Z</time></trkpt><trkpt lat="37.2338583" lon="-3.5748667"><ele>883.0</ele><time>2026-04-25T09:52:40.06Z</time></trkpt><trkpt lat="37.23389" lon="-3.5751917"><ele>883.0</ele><time>2026-04-25T09:52:41.058Z</time></trkpt><trkpt lat="37.2339133" lon="-3.5755183"><ele>880.0</ele><time>2026-04-25T09:52:42.061Z</time></trkpt><trkpt lat="37.2339333" lon="-3.57585"><ele>877.0</ele><time>2026-04-25T09:52:43.06Z</time></trkpt><trkpt lat="37.233945" lon="-3.57619"><ele>876.0</ele><time>2026-04-25T09:52:44.061Z</time></trkpt><trkpt lat="37.23395" lon="-3.5765383"><ele>875.0</ele><time>2026-04-25T09:52:45.06Z</time></trkpt><trkpt lat="37.2339483" lon="-3.5768917"><ele>875.5</ele><time>2026-04-25T09:52:46.061Z</time></trkpt><trkpt lat="37.2339433" lon="-3.5772417"><ele>876.0</ele><time>2026-04-25T09:52:47.062Z</time></trkpt><trkpt lat="37.2339317" lon="-3.57759"><ele>873.5</ele><time>2026-04-25T09:52:48.064Z</time></trkpt><trkpt lat="37.233915" lon="-3.5779383"><ele>871.0</ele><time>2026-04-25T09:52:49.065Z</time></trkpt><trkpt lat="37.23389" lon="-3.57829"><ele>871.0</ele><time>2026-04-25T09:52:50.061Z</time></trkpt><trkpt lat="37.2338567" lon="-3.57864"><ele>871.0</ele><time>2026-04-25T09:52:51.058Z</time></trkpt><trkpt lat="37.233815" lon="-3.5789883"><ele>867.5</ele><time>2026-04-25T09:52:52.063Z</time></trkpt><trkpt lat="37.2337683" lon="-3.5793333"><ele>864.0</ele><time>2026-04-25T09:52:53.062Z</time></trkpt><trkpt lat="37.2337167" lon="-3.5796783"><ele>861.5</ele><time>2026-04-25T09:52:54.062Z</time></trkpt><trkpt lat="37.2336617" lon="-3.5800233"><ele>859.0</ele><time>2026-04-25T09:52:55.06Z</time></trkpt><trkpt lat="37.2336" lon="-3.580365"><ele>856.0</ele><time>2026-04-25T09:52:56.059Z</time></trkpt><trkpt lat="37.2335317" lon="-3.5807083"><ele>853.0</ele><time>2026-04-25T09:52:57.06Z</time></trkpt><trkpt lat="37.2334583" lon="-3.5810533"><ele>850.5</ele><time>2026-04-25T09:52:58.062Z</time></trkpt><trkpt lat="37.23338" lon="-3.5813967"><ele>848.0</ele><time>2026-04-25T09:52:59.059Z</time></trkpt><trkpt lat="37.2332983" lon="-3.58174"><ele>845.5</ele><time>2026-04-25T09:53:00.06Z</time></trkpt><trkpt lat="37.23321" lon="-3.58208"><ele>843.0</ele><time>2026-04-25T09:53:01.063Z</time></trkpt><trkpt lat="37.23312" lon="-3.582415"><ele>839.0</ele><time>2026-04-25T09:53:02.059Z</time></trkpt><trkpt lat="37.233025" lon="-3.582745"><ele>835.0</ele><time>2026-04-25T09:53:03.058Z</time></trkpt><trkpt lat="37.2329267" lon="-3.5830733"><ele>835.0</ele><time>2026-04-25T09:53:04.062Z</time></trkpt><trkpt lat="37.2328283" lon="-3.5833983"><ele>835.0</ele><time>2026-04-25T09:53:05.06Z</time></trkpt><trkpt lat="37.2327267" lon="-3.58372"><ele>828.0</ele><time>2026-04-25T09:53:06.058Z</time></trkpt><trkpt lat="37.2326233" lon="-3.5840467"><ele>821.0</ele><time>2026-04-25T09:53:07.061Z</time></trkpt><trkpt lat="37.2325167" lon="-3.5843683"><ele>817.5</ele><time>2026-04-25T09:53:08.058Z</time></trkpt><trkpt lat="37.2324033" lon="-3.58469"><ele>814.0</ele><time>2026-04-25T09:53:09.06Z</time></trkpt><trkpt lat="37.2322833" lon="-3.585015"><ele>807.5</ele><time>2026-04-25T09:53:10.06Z</time></trkpt><trkpt lat="37.2321583" lon="-3.5853467"><ele>801.0</ele><time>2026-04-25T09:53:11.058Z</time></trkpt><trkpt lat="37.232035" lon="-3.5856817"><ele>801.0</ele><time>2026-04-25T09:53:12.059Z</time></trkpt><trkpt lat="37.2319117" lon="-3.5860217"><ele>801.0</ele><time>2026-04-25T09:53:13.06Z</time></trkpt><trkpt lat="37.23179" lon="-3.5863633"><ele>800.5</ele><time>2026-04-25T09:53:14.061Z</time></trkpt><trkpt lat="37.2316683" lon="-3.586705"><ele>800.0</ele><time>2026-04-25T09:53:15.059Z</time></trkpt><trkpt lat="37.2315517" lon="-3.587045"><ele>803.5</ele><time>2026-04-25T09:53:16.061Z</time></trkpt><trkpt lat="37.2314333" lon="-3.5873883"><ele>807.0</ele><time>2026-04-25T09:53:17.061Z</time></trkpt><trkpt lat="37.2313167" lon="-3.5877333"><ele>808.5</ele><time>2026-04-25T09:53:18.057Z</time></trkpt><trkpt lat="37.2311983" lon="-3.588075"><ele>810.0</ele><time>2026-04-25T09:53:19.061Z</time></trkpt><trkpt lat="37.2310817" lon="-3.5884167"><ele>812.5</ele><time>2026-04-25T09:53:20.063Z</time></trkpt><trkpt lat="37.230965" lon="-3.5887617"><ele>815.0</ele><time>2026-04-25T09:53:21.059Z</time></trkpt><trkpt lat="37.2308583" lon="-3.5891067"><ele>815.0</ele><time>2026-04-25T09:53:22.061Z</time></trkpt><trkpt lat="37.230755" lon="-3.58945"><ele>815.0</ele><time>2026-04-25T09:53:23.058Z</time></trkpt><trkpt lat="37.230655" lon="-3.5897933"><ele>811.5</ele><time>2026-04-25T09:53:24.06Z</time></trkpt><trkpt lat="37.2305633" lon="-3.59014"><ele>808.0</ele><time>2026-04-25T09:53:25.059Z</time></trkpt><trkpt lat="37.23048" lon="-3.5904883"><ele>808.0</ele><time>2026-04-25T09:53:26.066Z</time></trkpt><trkpt lat="37.230405" lon="-3.59084"><ele>808.0</ele><time>2026-04-25T09:53:27.059Z</time></trkpt><trkpt lat="37.2303417" lon="-3.591195"><ele>809.5</ele><time>2026-04-25T09:53:28.06Z</time></trkpt><trkpt lat="37.230285" lon="-3.5915533"><ele>811.0</ele><time>2026-04-25T09:53:29.058Z</time></trkpt><trkpt lat="37.2302433" lon="-3.591915"><ele>814.5</ele><time>2026-04-25T09:53:30.058Z</time></trkpt><trkpt lat="37.230215" lon="-3.59228"><ele>818.0</ele><time>2026-04-25T09:53:31.061Z</time></trkpt><trkpt lat="37.2302067" lon="-3.592645"><ele>822.5</ele><time>2026-04-25T09:53:32.059Z</time></trkpt><trkpt lat="37.2302117" lon="-3.5930133"><ele>827.0</ele><time>2026-04-25T09:53:33.059Z</time></trkpt><trkpt lat="37.2302317" lon="-3.59338"><ele>829.0</ele><time>2026-04-25T09:53:34.059Z</time></trkpt><trkpt lat="37.23027" lon="-3.5937483"><ele>831.0</ele><time>2026-04-25T09:53:35.063Z</time></trkpt><trkpt lat="37.2303283" lon="-3.59412"><ele>831.0</ele><time>2026-04-25T09:53:36.063Z</time></trkpt><trkpt lat="37.2304033" lon="-3.5944867"><ele>831.0</ele><time>2026-04-25T09:53:37.059Z</time></trkpt><trkpt lat="37.23049" lon="-3.5948483"><ele>831.0</ele><time>2026-04-25T09:53:38.058Z</time></trkpt><trkpt lat="37.2305933" lon="-3.5952083"><ele>831.0</ele><time>2026-04-25T09:53:39.06Z</time></trkpt><trkpt lat="37.23071" lon="-3.59556"><ele>828.0</ele><time>2026-04-25T09:53:40.059Z</time></trkpt><trkpt lat="37.2308417" lon="-3.595905"><ele>825.0</ele><time>2026-04-25T09:53:41.06Z</time></trkpt><trkpt lat="37.2309883" lon="-3.5962433"><ele>819.0</ele><time>2026-04-25T09:53:42.059Z</time></trkpt><trkpt lat="37.2311467" lon="-3.5965733"><ele>813.0</ele><time>2026-04-25T09:53:43.062Z</time></trkpt><trkpt lat="37.2313217" lon="-3.5968867"><ele>810.5</ele><time>2026-04-25T09:53:44.062Z</time></trkpt><trkpt lat="37.2315067" lon="-3.59719"><ele>808.0</ele><time>2026-04-25T09:53:45.059Z</time></trkpt><trkpt lat="37.2317" lon="-3.5974817"><ele>808.0</ele><time>2026-04-25T09:53:46.059Z</time></trkpt><trkpt lat="37.2319017" lon="-3.597765"><ele>808.0</ele><time>2026-04-25T09:53:47.058Z</time></trkpt><trkpt lat="37.2321133" lon="-3.5980367"><ele>806.5</ele><time>2026-04-25T09:53:48.061Z</time></trkpt><trkpt lat="37.2323317" lon="-3.5983"><ele>805.0</ele><time>2026-04-25T09:53:49.058Z</time></trkpt><trkpt lat="37.2325567" lon="-3.5985567"><ele>801.0</ele><time>2026-04-25T09:53:50.06Z</time></trkpt><trkpt lat="37.2327867" lon="-3.5988067"><ele>797.0</ele><time>2026-04-25T09:53:51.059Z</time></trkpt><trkpt lat="37.2330233" lon="-3.599045"><ele>801.0</ele><time>2026-04-25T09:53:52.057Z</time></trkpt><trkpt lat="37.2332617" lon="-3.599275"><ele>805.0</ele><time>2026-04-25T09:53:53.062Z</time></trkpt><trkpt lat="37.2335017" lon="-3.5994983"><ele>802.5</ele><time>2026-04-25T09:53:54.058Z</time></trkpt><trkpt lat="37.2337417" lon="-3.599715"><ele>800.0</ele><time>2026-04-25T09:53:55.057Z</time></trkpt><trkpt lat="37.23398" lon="-3.5999267"><ele>800.0</ele><time>2026-04-25T09:53:56.061Z</time></trkpt><trkpt lat="37.23422" lon="-3.6001317"><ele>800.0</ele><time>2026-04-25T09:53:57.061Z</time></trkpt><trkpt lat="37.23446" lon="-3.6003317"><ele>800.5</ele><time>2026-04-25T09:53:58.06Z</time></trkpt><trkpt lat="37.2347033" lon="-3.6005317"><ele>801.0</ele><time>2026-04-25T09:53:59.064Z</time></trkpt><trkpt lat="37.2349467" lon="-3.6007283"><ele>801.0</ele><time>2026-04-25T09:54:00.061Z</time></trkpt><trkpt lat="37.23519" lon="-3.600925"><ele>801.0</ele><time>2026-04-25T09:54:01.061Z</time></trkpt><trkpt lat="37.235435" lon="-3.6011217"><ele>798.5</ele><time>2026-04-25T09:54:02.061Z</time></trkpt><trkpt lat="37.2356767" lon="-3.60132"><ele>796.0</ele><time>2026-04-25T09:54:03.058Z</time></trkpt><trkpt lat="37.2359167" lon="-3.60152"><ele>796.0</ele><time>2026-04-25T09:54:04.061Z</time></trkpt><trkpt lat="37.2361533" lon="-3.601725"><ele>796.0</ele><time>2026-04-25T09:54:05.064Z</time></trkpt><trkpt lat="37.2363883" lon="-3.6019317"><ele>792.0</ele><time>2026-04-25T09:54:06.06Z</time></trkpt><trkpt lat="37.23662" lon="-3.6021433"><ele>788.0</ele><time>2026-04-25T09:54:07.059Z</time></trkpt><trkpt lat="37.2368433" lon="-3.6023617"><ele>788.0</ele><time>2026-04-25T09:54:08.057Z</time></trkpt><trkpt lat="37.2370633" lon="-3.6025867"><ele>788.0</ele><time>2026-04-25T09:54:09.061Z</time></trkpt><trkpt lat="37.23728" lon="-3.6028183"><ele>780.5</ele><time>2026-04-25T09:54:10.057Z</time></trkpt><trkpt lat="37.237495" lon="-3.60306"><ele>773.0</ele><time>2026-04-25T09:54:11.058Z</time></trkpt><trkpt lat="37.2377017" lon="-3.60331"><ele>773.0</ele><time>2026-04-25T09:54:12.059Z</time></trkpt><trkpt lat="37.2379017" lon="-3.603575"><ele>773.0</ele><time>2026-04-25T09:54:13.061Z</time></trkpt><trkpt lat="37.23809" lon="-3.6038533"><ele>775.5</ele><time>2026-04-25T09:54:14.064Z</time></trkpt><trkpt lat="37.2382683" lon="-3.60414"><ele>778.0</ele><time>2026-04-25T09:54:15.059Z</time></trkpt><trkpt lat="37.2384383" lon="-3.604435"><ele>773.0</ele><time>2026-04-25T09:54:16.062Z</time></trkpt><trkpt lat="37.2385917" lon="-3.6047383"><ele>768.0</ele><time>2026-04-25T09:54:17.06Z</time></trkpt><trkpt lat="37.2387317" lon="-3.6050483"><ele>762.0</ele><time>2026-04-25T09:54:18.06Z</time></trkpt><trkpt lat="37.2388567" lon="-3.6053617"><ele>756.0</ele><time>2026-04-25T09:54:19.06Z</time></trkpt><trkpt lat="37.2389683" lon="-3.6056833"><ele>756.0</ele><time>2026-04-25T09:54:20.059Z</time></trkpt><trkpt lat="37.2390667" lon="-3.6060167"><ele>756.0</ele><time>2026-04-25T09:54:21.059Z</time></trkpt><trkpt lat="37.2391517" lon="-3.60635"><ele>758.0</ele><time>2026-04-25T09:54:22.06Z</time></trkpt><trkpt lat="37.2392233" lon="-3.606685"><ele>760.0</ele><time>2026-04-25T09:54:23.062Z</time></trkpt><trkpt lat="37.2392867" lon="-3.60702"><ele>762.0</ele><time>2026-04-25T09:54:24.061Z</time></trkpt><trkpt lat="37.239335" lon="-3.6073533"><ele>764.0</ele><time>2026-04-25T09:54:25.06Z</time></trkpt><trkpt lat="37.2393683" lon="-3.607695"><ele>763.5</ele><time>2026-04-25T09:54:26.067Z</time></trkpt><trkpt lat="37.2393867" lon="-3.6080433"><ele>763.0</ele><time>2026-04-25T09:54:27.062Z</time></trkpt><trkpt lat="37.239395" lon="-3.6084"><ele>762.0</ele><time>2026-04-25T09:54:28.062Z</time></trkpt><trkpt lat="37.2393933" lon="-3.6087667"><ele>761.0</ele><time>2026-04-25T09:54:29.058Z</time></trkpt><trkpt lat="37.2393883" lon="-3.6091333"><ele>761.5</ele><time>2026-04-25T09:54:30.06Z</time></trkpt><trkpt lat="37.2393767" lon="-3.6095033"><ele>762.0</ele><time>2026-04-25T09:54:31.06Z</time></trkpt><trkpt lat="37.2393567" lon="-3.609875"><ele>762.0</ele><time>2026-04-25T09:54:32.065Z</time></trkpt><trkpt lat="37.2393333" lon="-3.6102483"><ele>762.0</ele><time>2026-04-25T09:54:33.06Z</time></trkpt><trkpt lat="37.2393033" lon="-3.6106217"><ele>761.5</ele><time>2026-04-25T09:54:34.063Z</time></trkpt><trkpt lat="37.2392683" lon="-3.611"><ele>761.0</ele><time>2026-04-25T09:54:35.06Z</time></trkpt><trkpt lat="37.2392383" lon="-3.6113733"><ele>762.0</ele><time>2026-04-25T09:54:36.059Z</time></trkpt><trkpt lat="37.2392067" lon="-3.6117533"><ele>763.0</ele><time>2026-04-25T09:54:37.059Z</time></trkpt><trkpt lat="37.2391783" lon="-3.612135"><ele>763.5</ele><time>2026-04-25T09:54:38.059Z</time></trkpt><trkpt lat="37.239155" lon="-3.6125217"><ele>764.0</ele><time>2026-04-25T09:54:39.06Z</time></trkpt><trkpt lat="37.2391333" lon="-3.6129117"><ele>765.0</ele><time>2026-04-25T09:54:40.058Z</time></trkpt><trkpt lat="37.2391183" lon="-3.6133083"><ele>766.0</ele><time>2026-04-25T09:54:41.058Z</time></trkpt><trkpt lat="37.2391083" lon="-3.6137067"><ele>764.0</ele><time>2026-04-25T09:54:42.061Z</time></trkpt><trkpt lat="37.2391083" lon="-3.61411"><ele>762.0</ele><time>2026-04-25T09:54:43.059Z</time></trkpt><trkpt lat="37.2391183" lon="-3.614515"><ele>758.5</ele><time>2026-04-25T09:54:44.062Z</time></trkpt><trkpt lat="37.239135" lon="-3.6149183"><ele>755.0</ele><time>2026-04-25T09:54:45.06Z</time></trkpt><trkpt lat="37.239165" lon="-3.61532"><ele>752.5</ele><time>2026-04-25T09:54:46.06Z</time></trkpt><trkpt lat="37.23921" lon="-3.6157183"><ele>750.0</ele><time>2026-04-25T09:54:47.061Z</time></trkpt><trkpt lat="37.2392617" lon="-3.6161183"><ele>748.0</ele><time>2026-04-25T09:54:48.061Z</time></trkpt><trkpt lat="37.239325" lon="-3.6165167"><ele>746.0</ele><time>2026-04-25T09:54:49.062Z</time></trkpt><trkpt lat="37.2394" lon="-3.6169117"><ele>744.0</ele><time>2026-04-25T09:54:50.058Z</time></trkpt><trkpt lat="37.2394867" lon="-3.6173017"><ele>742.0</ele><time>2026-04-25T09:54:51.062Z</time></trkpt><trkpt lat="37.239585" lon="-3.6176883"><ele>741.0</ele><time>2026-04-25T09:54:52.06Z</time></trkpt><trkpt lat="37.239695" lon="-3.6180667"><ele>740.0</ele><time>2026-04-25T09:54:53.062Z</time></trkpt><trkpt lat="37.23981" lon="-3.6184383"><ele>743.0</ele><time>2026-04-25T09:54:54.067Z</time></trkpt><trkpt lat="37.2399283" lon="-3.6188017"><ele>746.0</ele><time>2026-04-25T09:54:55.061Z</time></trkpt><trkpt lat="37.2400517" lon="-3.6191617"><ele>746.5</ele><time>2026-04-25T09:54:56.061Z</time></trkpt><trkpt lat="37.2401817" lon="-3.6195167"><ele>747.0</ele><time>2026-04-25T09:54:57.062Z</time></trkpt><trkpt lat="37.2403217" lon="-3.6198633"><ele>747.0</ele><time>2026-04-25T09:54:58.065Z</time></trkpt><trkpt lat="37.2404667" lon="-3.6202"><ele>747.0</ele><time>2026-04-25T09:54:59.066Z</time></trkpt><trkpt lat="37.2406183" lon="-3.6205283"><ele>746.0</ele><time>2026-04-25T09:55:00.064Z</time></trkpt><trkpt lat="37.240775" lon="-3.6208533"><ele>745.0</ele><time>2026-04-25T09:55:01.061Z</time></trkpt><trkpt lat="37.24093" lon="-3.6211783"><ele>743.0</ele><time>2026-04-25T09:55:02.064Z</time></trkpt><trkpt lat="37.2410867" lon="-3.6215033"><ele>741.0</ele><time>2026-04-25T09:55:03.063Z</time></trkpt><trkpt lat="37.241245" lon="-3.6218283"><ele>741.0</ele><time>2026-04-25T09:55:04.06Z</time></trkpt><trkpt lat="37.2414067" lon="-3.6221533"><ele>741.0</ele><time>2026-04-25T09:55:05.058Z</time></trkpt><trkpt lat="37.2415683" lon="-3.6224733"><ele>741.0</ele><time>2026-04-25T09:55:06.058Z</time></trkpt><trkpt lat="37.2417317" lon="-3.6227917"><ele>741.0</ele><time>2026-04-25T09:55:07.059Z</time></trkpt><trkpt lat="37.2418933" lon="-3.6231067"><ele>739.0</ele><time>2026-04-25T09:55:08.058Z</time></trkpt><trkpt lat="37.2420533" lon="-3.6234217"><ele>737.0</ele><time>2026-04-25T09:55:09.058Z</time></trkpt><trkpt lat="37.24221" lon="-3.6237417"><ele>733.0</ele><time>2026-04-25T09:55:10.06Z</time></trkpt><trkpt lat="37.2423617" lon="-3.6240683"><ele>729.0</ele><time>2026-04-25T09:55:11.058Z</time></trkpt><trkpt lat="37.24251" lon="-3.6243983"><ele>730.0</ele><time>2026-04-25T09:55:12.056Z</time></trkpt><trkpt lat="37.2426567" lon="-3.62473"><ele>731.0</ele><time>2026-04-25T09:55:13.059Z</time></trkpt><trkpt lat="37.2428" lon="-3.6250667"><ele>731.0</ele><time>2026-04-25T09:55:14.065Z</time></trkpt><trkpt lat="37.24294" lon="-3.6254067"><ele>731.0</ele><time>2026-04-25T09:55:15.06Z</time></trkpt><trkpt lat="37.2430767" lon="-3.62575"><ele>734.0</ele><time>2026-04-25T09:55:16.059Z</time></trkpt><trkpt lat="37.24321" lon="-3.626095"><ele>737.0</ele><time>2026-04-25T09:55:17.064Z</time></trkpt><trkpt lat="37.2433383" lon="-3.6264433"><ele>737.0</ele><time>2026-04-25T09:55:18.059Z</time></trkpt><trkpt lat="37.2434617" lon="-3.6267967"><ele>737.0</ele><time>2026-04-25T09:55:19.059Z</time></trkpt><trkpt lat="37.2435817" lon="-3.6271533"><ele>739.5</ele><time>2026-04-25T09:55:20.059Z</time></trkpt><trkpt lat="37.243695" lon="-3.627515"><ele>742.0</ele><time>2026-04-25T09:55:21.06Z</time></trkpt><trkpt lat="37.2438117" lon="-3.627875"><ele>742.0</ele><time>2026-04-25T09:55:22.06Z</time></trkpt><trkpt lat="37.2439283" lon="-3.6282383"><ele>742.0</ele><time>2026-04-25T09:55:23.062Z</time></trkpt><trkpt lat="37.2440433" lon="-3.6286033"><ele>743.5</ele><time>2026-04-25T09:55:24.064Z</time></trkpt><trkpt lat="37.24415" lon="-3.6289667"><ele>745.0</ele><time>2026-04-25T09:55:25.062Z</time></trkpt><trkpt lat="37.2442483" lon="-3.6293333"><ele>744.5</ele><time>2026-04-25T09:55:26.066Z</time></trkpt><trkpt lat="37.2443417" lon="-3.6296983"><ele>744.0</ele><time>2026-04-25T09:55:27.063Z</time></trkpt><trkpt lat="37.2444283" lon="-3.6300633"><ele>747.0</ele><time>2026-04-25T09:55:28.06Z</time></trkpt><trkpt lat="37.2445083" lon="-3.6304217"><ele>750.0</ele><time>2026-04-25T09:55:29.063Z</time></trkpt><trkpt lat="37.2445833" lon="-3.630775"><ele>750.0</ele><time>2026-04-25T09:55:30.061Z</time></trkpt><trkpt lat="37.24465" lon="-3.631125"><ele>750.0</ele><time>2026-04-25T09:55:31.06Z</time></trkpt><trkpt lat="37.2447133" lon="-3.6314733"><ele>752.0</ele><time>2026-04-25T09:55:32.06Z</time></trkpt><trkpt lat="37.2447733" lon="-3.6318217"><ele>754.0</ele><time>2026-04-25T09:55:33.059Z</time></trkpt><trkpt lat="37.24483" lon="-3.6321683"><ele>747.5</ele><time>2026-04-25T09:55:34.059Z</time></trkpt><trkpt lat="37.2448817" lon="-3.63252"><ele>741.0</ele><time>2026-04-25T09:55:35.061Z</time></trkpt><trkpt lat="37.24493" lon="-3.6328733"><ele>739.0</ele><time>2026-04-25T09:55:36.06Z</time></trkpt><trkpt lat="37.244975" lon="-3.63323"><ele>737.0</ele><time>2026-04-25T09:55:37.059Z</time></trkpt><trkpt lat="37.2450183" lon="-3.6335867"><ele>735.5</ele><time>2026-04-25T09:55:38.061Z</time></trkpt><trkpt lat="37.2450567" lon="-3.6339467"><ele>734.0</ele><time>2026-04-25T09:55:39.061Z</time></trkpt><trkpt lat="37.2450883" lon="-3.63431"><ele>732.0</ele><time>2026-04-25T09:55:40.063Z</time></trkpt><trkpt lat="37.2451183" lon="-3.6346733"><ele>730.0</ele><time>2026-04-25T09:55:41.062Z</time></trkpt><trkpt lat="37.2451467" lon="-3.6350417"><ele>732.0</ele><time>2026-04-25T09:55:42.062Z</time></trkpt><trkpt lat="37.2451667" lon="-3.6354117"><ele>734.0</ele><time>2026-04-25T09:55:43.065Z</time></trkpt><trkpt lat="37.2451817" lon="-3.6357783"><ele>735.0</ele><time>2026-04-25T09:55:44.065Z</time></trkpt><trkpt lat="37.2451933" lon="-3.6361383"><ele>736.0</ele><time>2026-04-25T09:55:45.067Z</time></trkpt><trkpt lat="37.245205" lon="-3.6364883"><ele>736.0</ele><time>2026-04-25T09:55:46.06Z</time></trkpt><trkpt lat="37.24521" lon="-3.6368383"><ele>736.0</ele><time>2026-04-25T09:55:47.059Z</time></trkpt><trkpt lat="37.2452133" lon="-3.6371883"><ele>737.0</ele><time>2026-04-25T09:55:48.059Z</time></trkpt><trkpt lat="37.2452117" lon="-3.6375417"><ele>738.0</ele><time>2026-04-25T09:55:49.061Z</time></trkpt><trkpt lat="37.2452067" lon="-3.6378917"><ele>738.0</ele><time>2026-04-25T09:55:50.066Z</time></trkpt><trkpt lat="37.2451983" lon="-3.6382433"><ele>738.0</ele><time>2026-04-25T09:55:51.058Z</time></trkpt><trkpt lat="37.2451867" lon="-3.638595"><ele>734.0</ele><time>2026-04-25T09:55:52.059Z</time></trkpt><trkpt lat="37.2451717" lon="-3.6389467"><ele>730.0</ele><time>2026-04-25T09:55:53.062Z</time></trkpt><trkpt lat="37.2451533" lon="-3.6392967"><ele>729.5</ele><time>2026-04-25T09:55:54.062Z</time></trkpt><trkpt lat="37.2451283" lon="-3.6396483"><ele>729.0</ele><time>2026-04-25T09:55:55.06Z</time></trkpt><trkpt lat="37.2450933" lon="-3.6400017"><ele>725.0</ele><time>2026-04-25T09:55:56.058Z</time></trkpt><trkpt lat="37.2450517" lon="-3.6403567"><ele>721.0</ele><time>2026-04-25T09:55:57.061Z</time></trkpt><trkpt lat="37.2450083" lon="-3.6407117"><ele>721.0</ele><time>2026-04-25T09:55:58.061Z</time></trkpt><trkpt lat="37.2449633" lon="-3.6410617"><ele>721.0</ele><time>2026-04-25T09:55:59.066Z</time></trkpt><trkpt lat="37.2449167" lon="-3.6414083"><ele>717.0</ele><time>2026-04-25T09:56:00.061Z</time></trkpt><trkpt lat="37.2448683" lon="-3.64175"><ele>713.0</ele><time>2026-04-25T09:56:01.061Z</time></trkpt><trkpt lat="37.2448183" lon="-3.64209"><ele>711.5</ele><time>2026-04-25T09:56:02.062Z</time></trkpt><trkpt lat="37.2447633" lon="-3.6424233"><ele>710.0</ele><time>2026-04-25T09:56:03.061Z</time></trkpt><trkpt lat="37.2447017" lon="-3.64275"><ele>707.5</ele><time>2026-04-25T09:56:04.06Z</time></trkpt><trkpt lat="37.2446383" lon="-3.6430717"><ele>705.0</ele><time>2026-04-25T09:56:05.064Z</time></trkpt><trkpt lat="37.244575" lon="-3.6433883"><ele>703.0</ele><time>2026-04-25T09:56:06.062Z</time></trkpt><trkpt lat="37.24451" lon="-3.6436967"><ele>701.0</ele><time>2026-04-25T09:56:07.063Z</time></trkpt><trkpt lat="37.244445" lon="-3.6440017"><ele>701.0</ele><time>2026-04-25T09:56:08.064Z</time></trkpt><trkpt lat="37.24438" lon="-3.6443017"><ele>701.0</ele><time>2026-04-25T09:56:09.062Z</time></trkpt><trkpt lat="37.2443117" lon="-3.6446"><ele>702.0</ele><time>2026-04-25T09:56:10.058Z</time></trkpt><trkpt lat="37.24424" lon="-3.6448983"><ele>703.0</ele><time>2026-04-25T09:56:11.061Z</time></trkpt><trkpt lat="37.2441633" lon="-3.6451917"><ele>706.5</ele><time>2026-04-25T09:56:12.06Z</time></trkpt><trkpt lat="37.2440867" lon="-3.6454867"><ele>710.0</ele><time>2026-04-25T09:56:13.063Z</time></trkpt><trkpt lat="37.2440033" lon="-3.645785"><ele>708.5</ele><time>2026-04-25T09:56:14.061Z</time></trkpt><trkpt lat="37.2439133" lon="-3.64609"><ele>707.0</ele><time>2026-04-25T09:56:15.057Z</time></trkpt><trkpt lat="37.24382" lon="-3.6464033"><ele>707.0</ele><time>2026-04-25T09:56:16.061Z</time></trkpt><trkpt lat="37.24372" lon="-3.646725"><ele>707.0</ele><time>2026-04-25T09:56:17.064Z</time></trkpt><trkpt lat="37.2436183" lon="-3.6470483"><ele>707.0</ele><time>2026-04-25T09:56:18.062Z</time></trkpt><trkpt lat="37.2435133" lon="-3.6473733"><ele>707.0</ele><time>2026-04-25T09:56:19.06Z</time></trkpt><trkpt lat="37.2434033" lon="-3.6476983"><ele>706.0</ele><time>2026-04-25T09:56:20.06Z</time></trkpt><trkpt lat="37.2432933" lon="-3.6480233"><ele>705.0</ele><time>2026-04-25T09:56:21.058Z</time></trkpt><trkpt lat="37.243175" lon="-3.6483533"><ele>701.0</ele><time>2026-04-25T09:56:22.059Z</time></trkpt><trkpt lat="37.243055" lon="-3.6486833"><ele>697.0</ele><time>2026-04-25T09:56:23.065Z</time></trkpt><trkpt lat="37.2429333" lon="-3.6490083"><ele>697.0</ele><time>2026-04-25T09:56:24.061Z</time></trkpt><trkpt lat="37.242815" lon="-3.6493167"><ele>697.0</ele><time>2026-04-25T09:56:25.06Z</time></trkpt><trkpt lat="37.2426983" lon="-3.649615"><ele>696.0</ele><time>2026-04-25T09:56:26.067Z</time></trkpt><trkpt lat="37.24258" lon="-3.6499017"><ele>695.0</ele><time>2026-04-25T09:56:27.058Z</time></trkpt><trkpt lat="37.2424617" lon="-3.65018"><ele>692.5</ele><time>2026-04-25T09:56:28.059Z</time></trkpt><trkpt lat="37.2423433" lon="-3.6504483"><ele>690.0</ele><time>2026-04-25T09:56:29.061Z</time></trkpt><trkpt lat="37.2422233" lon="-3.6507117"><ele>689.0</ele><time>2026-04-25T09:56:30.063Z</time></trkpt><trkpt lat="37.2421017" lon="-3.6509717"><ele>688.0</ele><time>2026-04-25T09:56:31.064Z</time></trkpt><trkpt lat="37.2419767" lon="-3.651235"><ele>687.5</ele><time>2026-04-25T09:56:32.064Z</time></trkpt><trkpt lat="37.24185" lon="-3.651495"><ele>687.0</ele><time>2026-04-25T09:56:33.064Z</time></trkpt><trkpt lat="37.24172" lon="-3.651755"><ele>684.0</ele><time>2026-04-25T09:56:34.061Z</time></trkpt><trkpt lat="37.2415867" lon="-3.6520117"><ele>681.0</ele><time>2026-04-25T09:56:35.062Z</time></trkpt><trkpt lat="37.2414467" lon="-3.6522683"><ele>681.0</ele><time>2026-04-25T09:56:36.059Z</time></trkpt><trkpt lat="37.2413033" lon="-3.6525217"><ele>681.0</ele><time>2026-04-25T09:56:37.064Z</time></trkpt><trkpt lat="37.241155" lon="-3.6527783"><ele>680.0</ele><time>2026-04-25T09:56:38.063Z</time></trkpt><trkpt lat="37.2410067" lon="-3.6530383"><ele>679.0</ele><time>2026-04-25T09:56:39.062Z</time></trkpt><trkpt lat="37.2408567" lon="-3.6533017"><ele>679.0</ele><time>2026-04-25T09:56:40.058Z</time></trkpt><trkpt lat="37.240705" lon="-3.6535667"><ele>679.0</ele><time>2026-04-25T09:56:41.059Z</time></trkpt><trkpt lat="37.24055" lon="-3.65383"><ele>676.0</ele><time>2026-04-25T09:56:42.06Z</time></trkpt><trkpt lat="37.24039" lon="-3.6540917"><ele>673.0</ele><time>2026-04-25T09:56:43.058Z</time></trkpt><trkpt lat="37.2402267" lon="-3.6543517"><ele>671.0</ele><time>2026-04-25T09:56:44.057Z</time></trkpt><trkpt lat="37.24006" lon="-3.6546083"><ele>669.0</ele><time>2026-04-25T09:56:45.062Z</time></trkpt><trkpt lat="37.2398933" lon="-3.6548667"><ele>669.0</ele><time>2026-04-25T09:56:46.058Z</time></trkpt><trkpt lat="37.239725" lon="-3.6551233"><ele>669.0</ele><time>2026-04-25T09:56:47.061Z</time></trkpt><trkpt lat="37.2395567" lon="-3.65538"><ele>667.5</ele><time>2026-04-25T09:56:48.062Z</time></trkpt><trkpt lat="37.2393867" lon="-3.6556383"><ele>666.0</ele><time>2026-04-25T09:56:49.061Z</time></trkpt><trkpt lat="37.239215" lon="-3.6559"><ele>664.5</ele><time>2026-04-25T09:56:50.067Z</time></trkpt><trkpt lat="37.23904" lon="-3.6561633"><ele>663.0</ele><time>2026-04-25T09:56:51.062Z</time></trkpt><trkpt lat="37.2388667" lon="-3.6564283"><ele>663.0</ele><time>2026-04-25T09:56:52.061Z</time></trkpt><trkpt lat="37.2386917" lon="-3.6566933"><ele>663.0</ele><time>2026-04-25T09:56:53.063Z</time></trkpt><trkpt lat="37.238515" lon="-3.65696"><ele>662.5</ele><time>2026-04-25T09:56:54.06Z</time></trkpt><trkpt lat="37.2383367" lon="-3.6572267"><ele>662.0</ele><time>2026-04-25T09:56:55.058Z</time></trkpt><trkpt lat="37.2381583" lon="-3.657495"><ele>662.5</ele><time>2026-04-25T09:56:56.062Z</time></trkpt><trkpt lat="37.23798" lon="-3.6577617"><ele>663.0</ele><time>2026-04-25T09:56:57.059Z</time></trkpt><trkpt lat="37.2378017" lon="-3.6580283"><ele>663.0</ele><time>2026-04-25T09:56:58.063Z</time></trkpt><trkpt lat="37.237625" lon="-3.658295"><ele>663.0</ele><time>2026-04-25T09:56:59.06Z</time></trkpt><trkpt lat="37.2374483" lon="-3.65856"><ele>662.5</ele><time>2026-04-25T09:57:00.063Z</time></trkpt><trkpt lat="37.2372717" lon="-3.6588267"><ele>662.0</ele><time>2026-04-25T09:57:01.06Z</time></trkpt><trkpt lat="37.2370967" lon="-3.6590883"><ele>662.0</ele><time>2026-04-25T09:57:02.06Z</time></trkpt><trkpt lat="37.2369233" lon="-3.6593467"><ele>662.0</ele><time>2026-04-25T09:57:03.065Z</time></trkpt><trkpt lat="37.2367533" lon="-3.659605"><ele>660.5</ele><time>2026-04-25T09:57:04.058Z</time></trkpt><trkpt lat="37.23658" lon="-3.6598633"><ele>659.0</ele><time>2026-04-25T09:57:05.062Z</time></trkpt><trkpt lat="37.2364067" lon="-3.660125"><ele>655.5</ele><time>2026-04-25T09:57:06.058Z</time></trkpt><trkpt lat="37.2362333" lon="-3.6603933"><ele>652.0</ele><time>2026-04-25T09:57:07.062Z</time></trkpt><trkpt lat="37.2360583" lon="-3.6606617"><ele>652.0</ele><time>2026-04-25T09:57:08.063Z</time></trkpt><trkpt lat="37.2358833" lon="-3.66093"><ele>652.0</ele><time>2026-04-25T09:57:09.059Z</time></trkpt><trkpt lat="37.23571" lon="-3.6612033"><ele>649.0</ele><time>2026-04-25T09:57:10.06Z</time></trkpt><trkpt lat="37.2355317" lon="-3.6614717"><ele>646.0</ele><time>2026-04-25T09:57:11.06Z</time></trkpt><trkpt lat="37.2353517" lon="-3.6617417"><ele>646.5</ele><time>2026-04-25T09:57:12.06Z</time></trkpt><trkpt lat="37.2351733" lon="-3.662015"><ele>647.0</ele><time>2026-04-25T09:57:13.062Z</time></trkpt><trkpt lat="37.2349933" lon="-3.6622917"><ele>647.0</ele><time>2026-04-25T09:57:14.063Z</time></trkpt><trkpt lat="37.2348167" lon="-3.6625767"><ele>647.0</ele><time>2026-04-25T09:57:15.062Z</time></trkpt><trkpt lat="37.23464" lon="-3.6628633"><ele>641.5</ele><time>2026-04-25T09:57:16.062Z</time></trkpt><trkpt lat="37.2344667" lon="-3.6631533"><ele>636.0</ele><time>2026-04-25T09:57:17.064Z</time></trkpt><trkpt lat="37.2342967" lon="-3.6634483"><ele>635.5</ele><time>2026-04-25T09:57:18.064Z</time></trkpt><trkpt lat="37.2341283" lon="-3.6637483"><ele>635.0</ele><time>2026-04-25T09:57:19.063Z</time></trkpt><trkpt lat="37.2339633" lon="-3.66405"><ele>635.0</ele><time>2026-04-25T09:57:20.063Z</time></trkpt><trkpt lat="37.2338017" lon="-3.6643567"><ele>635.0</ele><time>2026-04-25T09:57:21.062Z</time></trkpt><trkpt lat="37.23364" lon="-3.664665"><ele>634.0</ele><time>2026-04-25T09:57:22.06Z</time></trkpt><trkpt lat="37.2334817" lon="-3.6649767"><ele>633.0</ele><time>2026-04-25T09:57:23.063Z</time></trkpt><trkpt lat="37.2333283" lon="-3.6652933"><ele>632.5</ele><time>2026-04-25T09:57:24.06Z</time></trkpt><trkpt lat="37.23318" lon="-3.66561"><ele>632.0</ele><time>2026-04-25T09:57:25.061Z</time></trkpt><trkpt lat="37.2330333" lon="-3.6659267"><ele>633.0</ele><time>2026-04-25T09:57:26.066Z</time></trkpt><trkpt lat="37.2328933" lon="-3.6662467"><ele>634.0</ele><time>2026-04-25T09:57:27.066Z</time></trkpt><trkpt lat="37.23276" lon="-3.6665683"><ele>634.0</ele><time>2026-04-25T09:57:28.062Z</time></trkpt><trkpt lat="37.232635" lon="-3.666895"><ele>634.0</ele><time>2026-04-25T09:57:29.062Z</time></trkpt><trkpt lat="37.2325167" lon="-3.6672183"><ele>633.0</ele><time>2026-04-25T09:57:30.061Z</time></trkpt><trkpt lat="37.2324067" lon="-3.66754"><ele>632.0</ele><time>2026-04-25T09:57:31.062Z</time></trkpt><trkpt lat="37.2323017" lon="-3.66786"><ele>630.0</ele><time>2026-04-25T09:57:32.062Z</time></trkpt><trkpt lat="37.2322017" lon="-3.6681733"><ele>628.0</ele><time>2026-04-25T09:57:33.061Z</time></trkpt><trkpt lat="37.2321083" lon="-3.6684783"><ele>627.5</ele><time>2026-04-25T09:57:34.06Z</time></trkpt><trkpt lat="37.2320233" lon="-3.6687817"><ele>627.0</ele><time>2026-04-25T09:57:35.061Z</time></trkpt><trkpt lat="37.2319433" lon="-3.6690833"><ele>627.0</ele><time>2026-04-25T09:57:36.063Z</time></trkpt><trkpt lat="37.2318683" lon="-3.6693917"><ele>627.0</ele><time>2026-04-25T09:57:37.06Z</time></trkpt><trkpt lat="37.2317967" lon="-3.669705"><ele>627.0</ele><time>2026-04-25T09:57:38.057Z</time></trkpt><trkpt lat="37.23173" lon="-3.670025"><ele>627.0</ele><time>2026-04-25T09:57:39.058Z</time></trkpt><trkpt lat="37.2316683" lon="-3.6703517"><ele>626.0</ele><time>2026-04-25T09:57:40.061Z</time></trkpt><trkpt lat="37.231605" lon="-3.670685"><ele>625.0</ele><time>2026-04-25T09:57:41.064Z</time></trkpt><trkpt lat="37.2315467" lon="-3.6710267"><ele>625.0</ele><time>2026-04-25T09:57:42.06Z</time></trkpt><trkpt lat="37.231495" lon="-3.671375"><ele>625.0</ele><time>2026-04-25T09:57:43.061Z</time></trkpt><trkpt lat="37.2314517" lon="-3.6717283"><ele>625.0</ele><time>2026-04-25T09:57:44.064Z</time></trkpt><trkpt lat="37.2314117" lon="-3.67208"><ele>625.0</ele><time>2026-04-25T09:57:45.06Z</time></trkpt><trkpt lat="37.2313783" lon="-3.6724367"><ele>624.0</ele><time>2026-04-25T09:57:46.058Z</time></trkpt><trkpt lat="37.2313517" lon="-3.6727967"><ele>623.0</ele><time>2026-04-25T09:57:47.061Z</time></trkpt><trkpt lat="37.2313267" lon="-3.6731533"><ele>623.0</ele><time>2026-04-25T09:57:48.064Z</time></trkpt><trkpt lat="37.2313067" lon="-3.6735067"><ele>623.0</ele><time>2026-04-25T09:57:49.064Z</time></trkpt><trkpt lat="37.2312933" lon="-3.6738567"><ele>623.5</ele><time>2026-04-25T09:57:50.064Z</time></trkpt><trkpt lat="37.2312833" lon="-3.674205"><ele>624.0</ele><time>2026-04-25T09:57:51.059Z</time></trkpt><trkpt lat="37.2312783" lon="-3.674555"><ele>624.5</ele><time>2026-04-25T09:57:52.059Z</time></trkpt><trkpt lat="37.2312783" lon="-3.6749067"><ele>625.0</ele><time>2026-04-25T09:57:53.063Z</time></trkpt><trkpt lat="37.231285" lon="-3.6752583"><ele>626.5</ele><time>2026-04-25T09:57:54.063Z</time></trkpt><trkpt lat="37.2312983" lon="-3.6756133"><ele>628.0</ele><time>2026-04-25T09:57:55.059Z</time></trkpt><trkpt lat="37.231315" lon="-3.67597"><ele>628.5</ele><time>2026-04-25T09:57:56.061Z</time></trkpt><trkpt lat="37.2313317" lon="-3.67633"><ele>629.0</ele><time>2026-04-25T09:57:57.058Z</time></trkpt><trkpt lat="37.2313517" lon="-3.67669"><ele>630.5</ele><time>2026-04-25T09:57:58.06Z</time></trkpt><trkpt lat="37.2313717" lon="-3.67705"><ele>632.0</ele><time>2026-04-25T09:57:59.058Z</time></trkpt><trkpt lat="37.231395" lon="-3.67741"><ele>632.0</ele><time>2026-04-25T09:58:00.058Z</time></trkpt><trkpt lat="37.2314183" lon="-3.67777"><ele>632.0</ele><time>2026-04-25T09:58:01.057Z</time></trkpt><trkpt lat="37.2314467" lon="-3.6781267"><ele>636.0</ele><time>2026-04-25T09:58:02.06Z</time></trkpt><trkpt lat="37.231475" lon="-3.6784833"><ele>640.0</ele><time>2026-04-25T09:58:03.059Z</time></trkpt><trkpt lat="37.231505" lon="-3.67884"><ele>640.0</ele><time>2026-04-25T09:58:04.06Z</time></trkpt><trkpt lat="37.2315367" lon="-3.6791967"><ele>640.0</ele><time>2026-04-25T09:58:05.059Z</time></trkpt><trkpt lat="37.2315683" lon="-3.6795533"><ele>640.0</ele><time>2026-04-25T09:58:06.061Z</time></trkpt><trkpt lat="37.2316" lon="-3.6799133"><ele>640.0</ele><time>2026-04-25T09:58:07.06Z</time></trkpt><trkpt lat="37.2316317" lon="-3.68027"><ele>640.5</ele><time>2026-04-25T09:58:08.063Z</time></trkpt><trkpt lat="37.2316633" lon="-3.680625"><ele>641.0</ele><time>2026-04-25T09:58:09.06Z</time></trkpt><trkpt lat="37.231695" lon="-3.6809783"><ele>642.0</ele><time>2026-04-25T09:58:10.061Z</time></trkpt><trkpt lat="37.2317233" lon="-3.6813283"><ele>643.0</ele><time>2026-04-25T09:58:11.063Z</time></trkpt><trkpt lat="37.2317533" lon="-3.6816767"><ele>642.0</ele><time>2026-04-25T09:58:12.059Z</time></trkpt><trkpt lat="37.231785" lon="-3.6820217"><ele>641.0</ele><time>2026-04-25T09:58:13.065Z</time></trkpt><trkpt lat="37.2318167" lon="-3.6823633"><ele>641.0</ele><time>2026-04-25T09:58:14.06Z</time></trkpt><trkpt lat="37.2318467" lon="-3.682705"><ele>641.0</ele><time>2026-04-25T09:58:15.06Z</time></trkpt><trkpt lat="37.2318783" lon="-3.6830467"><ele>643.5</ele><time>2026-04-25T09:58:16.059Z</time></trkpt><trkpt lat="37.2319083" lon="-3.6833917"><ele>646.0</ele><time>2026-04-25T09:58:17.059Z</time></trkpt><trkpt lat="37.2319383" lon="-3.6837383"><ele>646.5</ele><time>2026-04-25T09:58:18.065Z</time></trkpt><trkpt lat="37.231965" lon="-3.6840883"><ele>647.0</ele><time>2026-04-25T09:58:19.06Z</time></trkpt><trkpt lat="37.2319867" lon="-3.6844367"><ele>648.0</ele><time>2026-04-25T09:58:20.064Z</time></trkpt><trkpt lat="37.232" lon="-3.68479"><ele>649.0</ele><time>2026-04-25T09:58:21.06Z</time></trkpt><trkpt lat="37.2320033" lon="-3.6851417"><ele>650.5</ele><time>2026-04-25T09:58:22.061Z</time></trkpt><trkpt lat="37.2319933" lon="-3.685495"><ele>652.0</ele><time>2026-04-25T09:58:23.06Z</time></trkpt><trkpt lat="37.2319733" lon="-3.6858467"><ele>651.0</ele><time>2026-04-25T09:58:24.062Z</time></trkpt><trkpt lat="37.2319383" lon="-3.6861967"><ele>650.0</ele><time>2026-04-25T09:58:25.072Z</time></trkpt><trkpt lat="37.2318867" lon="-3.68654"><ele>650.0</ele><time>2026-04-25T09:58:26.058Z</time></trkpt><trkpt lat="37.2318233" lon="-3.68688"><ele>650.0</ele><time>2026-04-25T09:58:27.06Z</time></trkpt><trkpt lat="37.2317483" lon="-3.687215"><ele>649.5</ele><time>2026-04-25T09:58:28.06Z</time></trkpt><trkpt lat="37.2316567" lon="-3.6875417"><ele>649.0</ele><time>2026-04-25T09:58:29.06Z</time></trkpt><trkpt lat="37.2315517" lon="-3.68786"><ele>646.0</ele><time>2026-04-25T09:58:30.065Z</time></trkpt><trkpt lat="37.2314333" lon="-3.6881733"><ele>643.0</ele><time>2026-04-25T09:58:31.059Z</time></trkpt><trkpt lat="37.2313017" lon="-3.68848"><ele>643.0</ele><time>2026-04-25T09:58:32.063Z</time></trkpt><trkpt lat="37.2311567" lon="-3.6887817"><ele>643.0</ele><time>2026-04-25T09:58:33.059Z</time></trkpt><trkpt lat="37.2310033" lon="-3.689075"><ele>643.0</ele><time>2026-04-25T09:58:34.063Z</time></trkpt><trkpt lat="37.23084" lon="-3.68936"><ele>643.0</ele><time>2026-04-25T09:58:35.06Z</time></trkpt><trkpt lat="37.23067" lon="-3.6896383"><ele>640.5</ele><time>2026-04-25T09:58:36.066Z</time></trkpt><trkpt lat="37.2304917" lon="-3.6899133"><ele>638.0</ele><time>2026-04-25T09:58:37.06Z</time></trkpt><trkpt lat="37.2303067" lon="-3.6901883"><ele>638.5</ele><time>2026-04-25T09:58:38.059Z</time></trkpt><trkpt lat="37.23012" lon="-3.6904583"><ele>639.0</ele><time>2026-04-25T09:58:39.057Z</time></trkpt><trkpt lat="37.2299283" lon="-3.6907267"><ele>636.5</ele><time>2026-04-25T09:58:40.06Z</time></trkpt><trkpt lat="37.229735" lon="-3.6909917"><ele>634.0</ele><time>2026-04-25T09:58:41.059Z</time></trkpt><trkpt lat="37.2295383" lon="-3.6912583"><ele>634.0</ele><time>2026-04-25T09:58:42.061Z</time></trkpt><trkpt lat="37.2293433" lon="-3.691525"><ele>634.0</ele><time>2026-04-25T09:58:43.058Z</time></trkpt><trkpt lat="37.2291467" lon="-3.69179"><ele>631.0</ele><time>2026-04-25T09:58:44.058Z</time></trkpt><trkpt lat="37.2289517" lon="-3.6920583"><ele>628.0</ele><time>2026-04-25T09:58:45.059Z</time></trkpt><trkpt lat="37.2287567" lon="-3.6923317"><ele>628.0</ele><time>2026-04-25T09:58:46.059Z</time></trkpt><trkpt lat="37.2285617" lon="-3.692605"><ele>628.0</ele><time>2026-04-25T09:58:47.058Z</time></trkpt><trkpt lat="37.2283617" lon="-3.6928783"><ele>631.0</ele><time>2026-04-25T09:58:48.06Z</time></trkpt><trkpt lat="37.2281633" lon="-3.6931533"><ele>634.0</ele><time>2026-04-25T09:58:49.06Z</time></trkpt><trkpt lat="37.227965" lon="-3.6934283"><ele>629.0</ele><time>2026-04-25T09:58:50.059Z</time></trkpt><trkpt lat="37.2277667" lon="-3.6937017"><ele>624.0</ele><time>2026-04-25T09:58:51.063Z</time></trkpt><trkpt lat="37.2275683" lon="-3.693985"><ele>624.0</ele><time>2026-04-25T09:58:52.061Z</time></trkpt><trkpt lat="37.2273767" lon="-3.6942783"><ele>624.0</ele><time>2026-04-25T09:58:53.06Z</time></trkpt><trkpt lat="37.2271917" lon="-3.6945783"><ele>618.5</ele><time>2026-04-25T09:58:54.063Z</time></trkpt><trkpt lat="37.2270233" lon="-3.694895"><ele>613.0</ele><time>2026-04-25T09:58:55.064Z</time></trkpt><trkpt lat="37.2268733" lon="-3.6952267"><ele>612.5</ele><time>2026-04-25T09:58:56.062Z</time></trkpt><trkpt lat="37.2267433" lon="-3.6955717"><ele>612.0</ele><time>2026-04-25T09:58:57.06Z</time></trkpt><trkpt lat="37.2266383" lon="-3.6959267"><ele>611.0</ele><time>2026-04-25T09:58:58.065Z</time></trkpt><trkpt lat="37.226555" lon="-3.69629"><ele>610.0</ele><time>2026-04-25T09:58:59.061Z</time></trkpt><trkpt lat="37.2264967" lon="-3.696665"><ele>602.0</ele><time>2026-04-25T09:59:00.061Z</time></trkpt><trkpt lat="37.226455" lon="-3.69705"><ele>594.0</ele><time>2026-04-25T09:59:01.061Z</time></trkpt><trkpt lat="37.2264317" lon="-3.69743"><ele>592.5</ele><time>2026-04-25T09:59:02.062Z</time></trkpt><trkpt lat="37.2264117" lon="-3.69781"><ele>591.0</ele><time>2026-04-25T09:59:03.064Z</time></trkpt><trkpt lat="37.2263967" lon="-3.6981817"><ele>591.0</ele><time>2026-04-25T09:59:04.062Z</time></trkpt><trkpt lat="37.2263833" lon="-3.6985517"><ele>591.0</ele><time>2026-04-25T09:59:05.062Z</time></trkpt><trkpt lat="37.22637" lon="-3.6989167"><ele>589.0</ele><time>2026-04-25T09:59:06.06Z</time></trkpt><trkpt lat="37.2263583" lon="-3.699275"><ele>587.0</ele><time>2026-04-25T09:59:07.059Z</time></trkpt><trkpt lat="37.2263383" lon="-3.6996283"><ele>584.5</ele><time>2026-04-25T09:59:08.06Z</time></trkpt><trkpt lat="37.2263033" lon="-3.6999733"><ele>582.0</ele><time>2026-04-25T09:59:09.062Z</time></trkpt><trkpt lat="37.2262583" lon="-3.70032"><ele>581.0</ele><time>2026-04-25T09:59:10.06Z</time></trkpt><trkpt lat="37.2262" lon="-3.7006667"><ele>580.0</ele><time>2026-04-25T09:59:11.059Z</time></trkpt><trkpt lat="37.2261283" lon="-3.7010083"><ele>580.0</ele><time>2026-04-25T09:59:12.062Z</time></trkpt><trkpt lat="37.2260483" lon="-3.701345"><ele>580.0</ele><time>2026-04-25T09:59:13.059Z</time></trkpt><trkpt lat="37.225955" lon="-3.70168"><ele>579.0</ele><time>2026-04-25T09:59:14.062Z</time></trkpt><trkpt lat="37.22585" lon="-3.70201"><ele>578.0</ele><time>2026-04-25T09:59:15.06Z</time></trkpt><trkpt lat="37.2257317" lon="-3.70233"><ele>577.5</ele><time>2026-04-25T09:59:16.057Z</time></trkpt><trkpt lat="37.2256033" lon="-3.702645"><ele>577.0</ele><time>2026-04-25T09:59:17.064Z</time></trkpt><trkpt lat="37.2254617" lon="-3.70295"><ele>578.0</ele><time>2026-04-25T09:59:18.061Z</time></trkpt><trkpt lat="37.2253083" lon="-3.70325"><ele>579.0</ele><time>2026-04-25T09:59:19.065Z</time></trkpt><trkpt lat="37.225145" lon="-3.7035433"><ele>578.5</ele><time>2026-04-25T09:59:20.064Z</time></trkpt><trkpt lat="37.22497" lon="-3.7038283"><ele>578.0</ele><time>2026-04-25T09:59:21.063Z</time></trkpt><trkpt lat="37.2247867" lon="-3.70411"><ele>578.0</ele><time>2026-04-25T09:59:22.057Z</time></trkpt><trkpt lat="37.224595" lon="-3.7043783"><ele>578.0</ele><time>2026-04-25T09:59:23.063Z</time></trkpt><trkpt lat="37.224395" lon="-3.704635"><ele>578.0</ele><time>2026-04-25T09:59:24.057Z</time></trkpt><trkpt lat="37.2241833" lon="-3.704875"><ele>578.0</ele><time>2026-04-25T09:59:25.06Z</time></trkpt><trkpt lat="37.2239633" lon="-3.7050967"><ele>578.0</ele><time>2026-04-25T09:59:26.06Z</time></trkpt><trkpt lat="37.2237417" lon="-3.7053067"><ele>578.0</ele><time>2026-04-25T09:59:27.065Z</time></trkpt><trkpt lat="37.2235183" lon="-3.7055033"><ele>578.0</ele><time>2026-04-25T09:59:28.06Z</time></trkpt><trkpt lat="37.2232883" lon="-3.7056867"><ele>578.0</ele><time>2026-04-25T09:59:29.06Z</time></trkpt><trkpt lat="37.2230567" lon="-3.7058567"><ele>578.0</ele><time>2026-04-25T09:59:30.062Z</time></trkpt><trkpt lat="37.2228233" lon="-3.70602"><ele>578.0</ele><time>2026-04-25T09:59:31.064Z</time></trkpt><trkpt lat="37.222585" lon="-3.7061683"><ele>578.0</ele><time>2026-04-25T09:59:32.059Z</time></trkpt><trkpt lat="37.2223433" lon="-3.7063067"><ele>578.0</ele><time>2026-04-25T09:59:33.064Z</time></trkpt><trkpt lat="37.2220983" lon="-3.7064417"><ele>578.5</ele><time>2026-04-25T09:59:34.057Z</time></trkpt><trkpt lat="37.22185" lon="-3.706575"><ele>579.0</ele><time>2026-04-25T09:59:35.058Z</time></trkpt><trkpt lat="37.2216017" lon="-3.7067067"><ele>578.5</ele><time>2026-04-25T09:59:36.063Z</time></trkpt><trkpt lat="37.2213517" lon="-3.7068367"><ele>578.0</ele><time>2026-04-25T09:59:37.06Z</time></trkpt><trkpt lat="37.2211" lon="-3.7069683"><ele>578.0</ele><time>2026-04-25T09:59:38.06Z</time></trkpt><trkpt lat="37.2208483" lon="-3.7070967"><ele>578.0</ele><time>2026-04-25T09:59:39.062Z</time></trkpt><trkpt lat="37.2205967" lon="-3.7072333"><ele>578.0</ele><time>2026-04-25T09:59:40.059Z</time></trkpt><trkpt lat="37.2203483" lon="-3.7073783"><ele>578.0</ele><time>2026-04-25T09:59:41.059Z</time></trkpt><trkpt lat="37.2201017" lon="-3.707535"><ele>578.0</ele><time>2026-04-25T09:59:42.062Z</time></trkpt><trkpt lat="37.2198567" lon="-3.7076983"><ele>578.0</ele><time>2026-04-25T09:59:43.064Z</time></trkpt><trkpt lat="37.2196133" lon="-3.7078717"><ele>577.0</ele><time>2026-04-25T09:59:44.059Z</time></trkpt><trkpt lat="37.21937" lon="-3.7080517"><ele>576.0</ele><time>2026-04-25T09:59:45.061Z</time></trkpt><trkpt lat="37.2191267" lon="-3.7082367"><ele>575.0</ele><time>2026-04-25T09:59:46.066Z</time></trkpt><trkpt lat="37.2188867" lon="-3.7084283"><ele>574.0</ele><time>2026-04-25T09:59:47.062Z</time></trkpt><trkpt lat="37.21865" lon="-3.7086233"><ele>574.0</ele><time>2026-04-25T09:59:48.062Z</time></trkpt><trkpt lat="37.2184167" lon="-3.7088283"><ele>574.0</ele><time>2026-04-25T09:59:49.063Z</time></trkpt><trkpt lat="37.2181867" lon="-3.70904"><ele>573.5</ele><time>2026-04-25T09:59:50.06Z</time></trkpt><trkpt lat="37.2179567" lon="-3.7092567"><ele>573.0</ele><time>2026-04-25T09:59:51.062Z</time></trkpt><trkpt lat="37.2177333" lon="-3.709475"><ele>572.0</ele><time>2026-04-25T09:59:52.06Z</time></trkpt><trkpt lat="37.2175117" lon="-3.7097033"><ele>571.0</ele><time>2026-04-25T09:59:53.063Z</time></trkpt><trkpt lat="37.2172917" lon="-3.7099367"><ele>570.0</ele><time>2026-04-25T09:59:54.063Z</time></trkpt><trkpt lat="37.2170767" lon="-3.7101783"><ele>569.0</ele><time>2026-04-25T09:59:55.062Z</time></trkpt><trkpt lat="37.2168633" lon="-3.710425"><ele>569.0</ele><time>2026-04-25T09:59:56.063Z</time></trkpt><trkpt lat="37.2166533" lon="-3.71068"><ele>569.0</ele><time>2026-04-25T09:59:57.063Z</time></trkpt><trkpt lat="37.2164483" lon="-3.7109433"><ele>568.5</ele><time>2026-04-25T09:59:58.059Z</time></trkpt><trkpt lat="37.2162467" lon="-3.7112133"><ele>568.0</ele><time>2026-04-25T09:59:59.059Z</time></trkpt><trkpt lat="37.2160483" lon="-3.7114883"><ele>568.0</ele><time>2026-04-25T10:00:00.059Z</time></trkpt><trkpt lat="37.21585" lon="-3.7117717"><ele>568.0</ele><time>2026-04-25T10:00:01.064Z</time></trkpt><trkpt lat="37.215655" lon="-3.7120583"><ele>569.0</ele><time>2026-04-25T10:00:02.064Z</time></trkpt><trkpt lat="37.215465" lon="-3.7123483"><ele>570.0</ele><time>2026-04-25T10:00:03.061Z</time></trkpt><trkpt lat="37.2152783" lon="-3.7126433"><ele>569.5</ele><time>2026-04-25T10:00:04.059Z</time></trkpt><trkpt lat="37.2150983" lon="-3.7129483"><ele>569.0</ele><time>2026-04-25T10:00:05.062Z</time></trkpt><trkpt lat="37.2149233" lon="-3.713255"><ele>569.5</ele><time>2026-04-25T10:00:06.06Z</time></trkpt><trkpt lat="37.2147517" lon="-3.713565"><ele>570.0</ele><time>2026-04-25T10:00:07.064Z</time></trkpt><trkpt lat="37.2145817" lon="-3.7138733"><ele>571.5</ele><time>2026-04-25T10:00:08.063Z</time></trkpt><trkpt lat="37.2144117" lon="-3.7141817"><ele>573.0</ele><time>2026-04-25T10:00:09.061Z</time></trkpt><trkpt lat="37.2142417" lon="-3.714485"><ele>575.0</ele><time>2026-04-25T10:00:10.06Z</time></trkpt><trkpt lat="37.2140717" lon="-3.7147867"><ele>577.0</ele><time>2026-04-25T10:00:11.061Z</time></trkpt><trkpt lat="37.2138983" lon="-3.7150917"><ele>576.0</ele><time>2026-04-25T10:00:12.06Z</time></trkpt><trkpt lat="37.2137217" lon="-3.71539"><ele>575.0</ele><time>2026-04-25T10:00:13.064Z</time></trkpt><trkpt lat="37.2135533" lon="-3.71569"><ele>575.0</ele><time>2026-04-25T10:00:14.062Z</time></trkpt><trkpt lat="37.2133817" lon="-3.715985"><ele>575.0</ele><time>2026-04-25T10:00:15.058Z</time></trkpt><trkpt lat="37.2132033" lon="-3.7162767"><ele>574.0</ele><time>2026-04-25T10:00:16.064Z</time></trkpt><trkpt lat="37.213025" lon="-3.716565"><ele>573.0</ele><time>2026-04-25T10:00:17.063Z</time></trkpt><trkpt lat="37.2128433" lon="-3.7168517"><ele>572.5</ele><time>2026-04-25T10:00:18.061Z</time></trkpt><trkpt lat="37.2126583" lon="-3.7171333"><ele>572.0</ele><time>2026-04-25T10:00:19.063Z</time></trkpt><trkpt lat="37.21247" lon="-3.7174117"><ele>572.0</ele><time>2026-04-25T10:00:20.061Z</time></trkpt><trkpt lat="37.212275" lon="-3.7176867"><ele>572.0</ele><time>2026-04-25T10:00:21.058Z</time></trkpt><trkpt lat="37.21208" lon="-3.7179583"><ele>572.0</ele><time>2026-04-25T10:00:22.058Z</time></trkpt><trkpt lat="37.2118783" lon="-3.7182283"><ele>572.0</ele><time>2026-04-25T10:00:23.06Z</time></trkpt><trkpt lat="37.2116733" lon="-3.7184933"><ele>572.5</ele><time>2026-04-25T10:00:24.062Z</time></trkpt><trkpt lat="37.2114617" lon="-3.7187517"><ele>573.0</ele><time>2026-04-25T10:00:25.06Z</time></trkpt><trkpt lat="37.2112467" lon="-3.7190083"><ele>573.0</ele><time>2026-04-25T10:00:26.058Z</time></trkpt><trkpt lat="37.2110233" lon="-3.7192583"><ele>573.0</ele><time>2026-04-25T10:00:27.063Z</time></trkpt><trkpt lat="37.2107983" lon="-3.7195033"><ele>572.0</ele><time>2026-04-25T10:00:28.063Z</time></trkpt><trkpt lat="37.2105683" lon="-3.719745"><ele>571.0</ele><time>2026-04-25T10:00:29.06Z</time></trkpt><trkpt lat="37.2103367" lon="-3.7199817"><ele>571.0</ele><time>2026-04-25T10:00:30.062Z</time></trkpt><trkpt lat="37.210105" lon="-3.7202167"><ele>571.0</ele><time>2026-04-25T10:00:31.061Z</time></trkpt><trkpt lat="37.2098667" lon="-3.720445"><ele>572.0</ele><time>2026-04-25T10:00:32.062Z</time></trkpt><trkpt lat="37.2096317" lon="-3.7206683"><ele>573.0</ele><time>2026-04-25T10:00:33.061Z</time></trkpt><trkpt lat="37.2093933" lon="-3.720885"><ele>573.5</ele><time>2026-04-25T10:00:34.058Z</time></trkpt><trkpt lat="37.2091533" lon="-3.7210967"><ele>574.0</ele><time>2026-04-25T10:00:35.058Z</time></trkpt><trkpt lat="37.2089117" lon="-3.7213033"><ele>574.0</ele><time>2026-04-25T10:00:36.062Z</time></trkpt><trkpt lat="37.2086683" lon="-3.721505"><ele>574.0</ele><time>2026-04-25T10:00:37.061Z</time></trkpt><trkpt lat="37.2084233" lon="-3.7217033"><ele>574.0</ele><time>2026-04-25T10:00:38.057Z</time></trkpt><trkpt lat="37.2081767" lon="-3.7218933"><ele>574.0</ele><time>2026-04-25T10:00:39.064Z</time></trkpt><trkpt lat="37.2079267" lon="-3.72208"><ele>574.5</ele><time>2026-04-25T10:00:40.061Z</time></trkpt><trkpt lat="37.2076767" lon="-3.72226"><ele>575.0</ele><time>2026-04-25T10:00:41.06Z</time></trkpt><trkpt lat="37.207425" lon="-3.7224333"><ele>574.5</ele><time>2026-04-25T10:00:42.058Z</time></trkpt><trkpt lat="37.2071717" lon="-3.7225983"><ele>574.0</ele><time>2026-04-25T10:00:43.06Z</time></trkpt><trkpt lat="37.206915" lon="-3.7227567"><ele>575.0</ele><time>2026-04-25T10:00:44.059Z</time></trkpt><trkpt lat="37.2066567" lon="-3.7229083"><ele>576.0</ele><time>2026-04-25T10:00:45.062Z</time></trkpt><trkpt lat="37.206395" lon="-3.7230567"><ele>577.0</ele><time>2026-04-25T10:00:46.059Z</time></trkpt><trkpt lat="37.2061317" lon="-3.7232033"><ele>578.0</ele><time>2026-04-25T10:00:47.063Z</time></trkpt><trkpt lat="37.2058667" lon="-3.7233467"><ele>579.0</ele><time>2026-04-25T10:00:48.062Z</time></trkpt><trkpt lat="37.2055983" lon="-3.7234833"><ele>580.0</ele><time>2026-04-25T10:00:49.059Z</time></trkpt><trkpt lat="37.20533" lon="-3.723615"><ele>580.0</ele><time>2026-04-25T10:00:50.058Z</time></trkpt><trkpt lat="37.20506" lon="-3.7237433"><ele>580.0</ele><time>2026-04-25T10:00:51.059Z</time></trkpt><trkpt lat="37.2047883" lon="-3.7238667"><ele>577.0</ele><time>2026-04-25T10:00:52.061Z</time></trkpt><trkpt lat="37.2045133" lon="-3.7239883"><ele>574.0</ele><time>2026-04-25T10:00:53.059Z</time></trkpt><trkpt lat="37.2042383" lon="-3.724105"><ele>573.0</ele><time>2026-04-25T10:00:54.061Z</time></trkpt><trkpt lat="37.2039617" lon="-3.7242217"><ele>572.0</ele><time>2026-04-25T10:00:55.062Z</time></trkpt><trkpt lat="37.203685" lon="-3.7243367"><ele>572.0</ele><time>2026-04-25T10:00:56.061Z</time></trkpt><trkpt lat="37.2034067" lon="-3.7244517"><ele>572.0</ele><time>2026-04-25T10:00:57.06Z</time></trkpt><trkpt lat="37.20313" lon="-3.7245717"><ele>571.0</ele><time>2026-04-25T10:00:58.06Z</time></trkpt><trkpt lat="37.2028533" lon="-3.7246917"><ele>570.0</ele><time>2026-04-25T10:00:59.058Z</time></trkpt><trkpt lat="37.2025783" lon="-3.7248133"><ele>569.5</ele><time>2026-04-25T10:01:00.057Z</time></trkpt><trkpt lat="37.2022983" lon="-3.7249367"><ele>569.0</ele><time>2026-04-25T10:01:01.058Z</time></trkpt><trkpt lat="37.20202" lon="-3.725065"><ele>569.0</ele><time>2026-04-25T10:01:02.058Z</time></trkpt><trkpt lat="37.2017417" lon="-3.725195"><ele>569.0</ele><time>2026-04-25T10:01:03.062Z</time></trkpt><trkpt lat="37.2014633" lon="-3.7253317"><ele>571.0</ele><time>2026-04-25T10:01:04.059Z</time></trkpt><trkpt lat="37.201185" lon="-3.7254817"><ele>573.0</ele><time>2026-04-25T10:01:05.058Z</time></trkpt><trkpt lat="37.20091" lon="-3.7256367"><ele>572.5</ele><time>2026-04-25T10:01:06.057Z</time></trkpt><trkpt lat="37.200635" lon="-3.7257933"><ele>572.0</ele><time>2026-04-25T10:01:07.061Z</time></trkpt><trkpt lat="37.2003583" lon="-3.7259633"><ele>571.5</ele><time>2026-04-25T10:01:08.059Z</time></trkpt><trkpt lat="37.2000867" lon="-3.7261367"><ele>571.0</ele><time>2026-04-25T10:01:09.06Z</time></trkpt><trkpt lat="37.1998117" lon="-3.726315"><ele>571.0</ele><time>2026-04-25T10:01:10.06Z</time></trkpt><trkpt lat="37.199535" lon="-3.7264983"><ele>571.0</ele><time>2026-04-25T10:01:11.058Z</time></trkpt><trkpt lat="37.19926" lon="-3.7266917"><ele>571.0</ele><time>2026-04-25T10:01:12.061Z</time></trkpt><trkpt lat="37.1989883" lon="-3.7268883"><ele>571.0</ele><time>2026-04-25T10:01:13.063Z</time></trkpt><trkpt lat="37.19872" lon="-3.727095"><ele>571.0</ele><time>2026-04-25T10:01:14.059Z</time></trkpt><trkpt lat="37.1984533" lon="-3.727305"><ele>571.0</ele><time>2026-04-25T10:01:15.061Z</time></trkpt><trkpt lat="37.1981917" lon="-3.7275233"><ele>571.5</ele><time>2026-04-25T10:01:16.062Z</time></trkpt><trkpt lat="37.197935" lon="-3.727745"><ele>572.0</ele><time>2026-04-25T10:01:17.06Z</time></trkpt><trkpt lat="37.1976833" lon="-3.72797"><ele>572.0</ele><time>2026-04-25T10:01:18.06Z</time></trkpt><trkpt lat="37.1974367" lon="-3.7282017"><ele>572.0</ele><time>2026-04-25T10:01:19.059Z</time></trkpt><trkpt lat="37.19719" lon="-3.7284367"><ele>572.5</ele><time>2026-04-25T10:01:20.064Z</time></trkpt><trkpt lat="37.1969433" lon="-3.7286817"><ele>573.0</ele><time>2026-04-25T10:01:21.062Z</time></trkpt><trkpt lat="37.1967" lon="-3.7289283"><ele>572.5</ele><time>2026-04-25T10:01:22.061Z</time></trkpt><trkpt lat="37.1964667" lon="-3.7291767"><ele>572.0</ele><time>2026-04-25T10:01:23.064Z</time></trkpt><trkpt lat="37.1962367" lon="-3.7294317"><ele>572.0</ele><time>2026-04-25T10:01:24.061Z</time></trkpt><trkpt lat="37.19601" lon="-3.72969"><ele>572.0</ele><time>2026-04-25T10:01:25.066Z</time></trkpt><trkpt lat="37.1957867" lon="-3.729955"><ele>570.5</ele><time>2026-04-25T10:01:26.062Z</time></trkpt><trkpt lat="37.19557" lon="-3.7302233"><ele>569.0</ele><time>2026-04-25T10:01:27.065Z</time></trkpt><trkpt lat="37.1953567" lon="-3.730495"><ele>569.0</ele><time>2026-04-25T10:01:28.063Z</time></trkpt><trkpt lat="37.1951467" lon="-3.73077"><ele>569.0</ele><time>2026-04-25T10:01:29.063Z</time></trkpt><trkpt lat="37.1949417" lon="-3.7310467"><ele>569.5</ele><time>2026-04-25T10:01:30.065Z</time></trkpt><trkpt lat="37.1947417" lon="-3.7313267"><ele>570.0</ele><time>2026-04-25T10:01:31.061Z</time></trkpt><trkpt lat="37.1945467" lon="-3.7316067"><ele>570.0</ele><time>2026-04-25T10:01:32.064Z</time></trkpt><trkpt lat="37.19436" lon="-3.7318883"><ele>570.0</ele><time>2026-04-25T10:01:33.06Z</time></trkpt><trkpt lat="37.1941767" lon="-3.7321717"><ele>569.5</ele><time>2026-04-25T10:01:34.058Z</time></trkpt><trkpt lat="37.194" lon="-3.7324567"><ele>569.0</ele><time>2026-04-25T10:01:35.058Z</time></trkpt><trkpt lat="37.193825" lon="-3.7327433"><ele>569.0</ele><time>2026-04-25T10:01:36.063Z</time></trkpt><trkpt lat="37.1936533" lon="-3.733035"><ele>569.0</ele><time>2026-04-25T10:01:37.062Z</time></trkpt><trkpt lat="37.1934833" lon="-3.73333"><ele>569.0</ele><time>2026-04-25T10:01:38.06Z</time></trkpt><trkpt lat="37.1933167" lon="-3.7336283"><ele>569.0</ele><time>2026-04-25T10:01:39.061Z</time></trkpt><trkpt lat="37.1931517" lon="-3.7339317"><ele>570.0</ele><time>2026-04-25T10:01:40.06Z</time></trkpt><trkpt lat="37.1929933" lon="-3.7342383"><ele>571.0</ele><time>2026-04-25T10:01:41.061Z</time></trkpt><trkpt lat="37.1928383" lon="-3.73455"><ele>571.0</ele><time>2026-04-25T10:01:42.066Z</time></trkpt><trkpt lat="37.19269" lon="-3.7348667"><ele>571.0</ele><time>2026-04-25T10:01:43.069Z</time></trkpt><trkpt lat="37.1925483" lon="-3.7351883"><ele>571.0</ele><time>2026-04-25T10:01:44.066Z</time></trkpt><trkpt lat="37.1924083" lon="-3.7355067"><ele>571.0</ele><time>2026-04-25T10:01:45.061Z</time></trkpt><trkpt lat="37.1922717" lon="-3.7358267"><ele>569.5</ele><time>2026-04-25T10:01:46.064Z</time></trkpt><trkpt lat="37.1921417" lon="-3.7361483"><ele>568.0</ele><time>2026-04-25T10:01:47.062Z</time></trkpt><trkpt lat="37.1920167" lon="-3.736475"><ele>568.0</ele><time>2026-04-25T10:01:48.064Z</time></trkpt><trkpt lat="37.1918983" lon="-3.7368067"><ele>568.0</ele><time>2026-04-25T10:01:49.06Z</time></trkpt><trkpt lat="37.191785" lon="-3.7371433"><ele>568.0</ele><time>2026-04-25T10:01:50.062Z</time></trkpt><trkpt lat="37.1916783" lon="-3.7374867"><ele>568.0</ele><time>2026-04-25T10:01:51.063Z</time></trkpt><trkpt lat="37.1915733" lon="-3.7378317"><ele>568.5</ele><time>2026-04-25T10:01:52.062Z</time></trkpt><trkpt lat="37.1914667" lon="-3.738175"><ele>569.0</ele><time>2026-04-25T10:01:53.066Z</time></trkpt><trkpt lat="37.191365" lon="-3.73852"><ele>568.5</ele><time>2026-04-25T10:01:54.061Z</time></trkpt><trkpt lat="37.1912667" lon="-3.7388633"><ele>568.0</ele><time>2026-04-25T10:01:55.059Z</time></trkpt><trkpt lat="37.1911733" lon="-3.7392133"><ele>568.5</ele><time>2026-04-25T10:01:56.06Z</time></trkpt><trkpt lat="37.191085" lon="-3.73957"><ele>569.0</ele><time>2026-04-25T10:01:57.062Z</time></trkpt><trkpt lat="37.1910017" lon="-3.7399283"><ele>569.0</ele><time>2026-04-25T10:01:58.064Z</time></trkpt><trkpt lat="37.1909267" lon="-3.7402917"><ele>569.0</ele><time>2026-04-25T10:01:59.06Z</time></trkpt><trkpt lat="37.1908617" lon="-3.7406567"><ele>569.0</ele><time>2026-04-25T10:02:00.064Z</time></trkpt><trkpt lat="37.1908117" lon="-3.7410267"><ele>569.0</ele><time>2026-04-25T10:02:01.067Z</time></trkpt><trkpt lat="37.1907783" lon="-3.7413967"><ele>569.0</ele><time>2026-04-25T10:02:02.065Z</time></trkpt><trkpt lat="37.19076" lon="-3.741765"><ele>569.0</ele><time>2026-04-25T10:02:03.061Z</time></trkpt><trkpt lat="37.1907533" lon="-3.7421333"><ele>568.5</ele><time>2026-04-25T10:02:04.062Z</time></trkpt><trkpt lat="37.19076" lon="-3.7425"><ele>568.0</ele><time>2026-04-25T10:02:05.061Z</time></trkpt><trkpt lat="37.1907767" lon="-3.74287"><ele>568.0</ele><time>2026-04-25T10:02:06.062Z</time></trkpt><trkpt lat="37.1908017" lon="-3.7432367"><ele>568.0</ele><time>2026-04-25T10:02:07.063Z</time></trkpt><trkpt lat="37.1908317" lon="-3.743605"><ele>568.0</ele><time>2026-04-25T10:02:08.059Z</time></trkpt><trkpt lat="37.190865" lon="-3.7439733"><ele>568.0</ele><time>2026-04-25T10:02:09.063Z</time></trkpt><trkpt lat="37.1909" lon="-3.7443367"><ele>567.0</ele><time>2026-04-25T10:02:10.064Z</time></trkpt><trkpt lat="37.1909367" lon="-3.7447017"><ele>566.0</ele><time>2026-04-25T10:02:11.064Z</time></trkpt><trkpt lat="37.1909733" lon="-3.7450683"><ele>565.5</ele><time>2026-04-25T10:02:12.062Z</time></trkpt><trkpt lat="37.1910117" lon="-3.7454383"><ele>565.0</ele><time>2026-04-25T10:02:13.061Z</time></trkpt><trkpt lat="37.19105" lon="-3.7458083"><ele>565.5</ele><time>2026-04-25T10:02:14.058Z</time></trkpt><trkpt lat="37.1910883" lon="-3.7461767"><ele>566.0</ele><time>2026-04-25T10:02:15.061Z</time></trkpt><trkpt lat="37.1911283" lon="-3.746545"><ele>565.0</ele><time>2026-04-25T10:02:16.062Z</time></trkpt><trkpt lat="37.19117" lon="-3.746915"><ele>564.0</ele><time>2026-04-25T10:02:17.064Z</time></trkpt><trkpt lat="37.19121" lon="-3.74729"><ele>564.0</ele><time>2026-04-25T10:02:18.062Z</time></trkpt><trkpt lat="37.19125" lon="-3.747665"><ele>564.0</ele><time>2026-04-25T10:02:19.061Z</time></trkpt><trkpt lat="37.19129" lon="-3.74804"><ele>563.5</ele><time>2026-04-25T10:02:20.064Z</time></trkpt><trkpt lat="37.1913283" lon="-3.7484167"><ele>563.0</ele><time>2026-04-25T10:02:21.065Z</time></trkpt><trkpt lat="37.19137" lon="-3.74879"><ele>564.5</ele><time>2026-04-25T10:02:22.063Z</time></trkpt><trkpt lat="37.1914117" lon="-3.7491633"><ele>566.0</ele><time>2026-04-25T10:02:23.061Z</time></trkpt><trkpt lat="37.1914517" lon="-3.74954"><ele>566.0</ele><time>2026-04-25T10:02:24.065Z</time></trkpt><trkpt lat="37.1914917" lon="-3.749915"><ele>566.0</ele><time>2026-04-25T10:02:25.063Z</time></trkpt><trkpt lat="37.1915333" lon="-3.7502867"><ele>565.5</ele><time>2026-04-25T10:02:26.064Z</time></trkpt><trkpt lat="37.1915717" lon="-3.7506567"><ele>565.0</ele><time>2026-04-25T10:02:27.06Z</time></trkpt><trkpt lat="37.1916167" lon="-3.7510267"><ele>564.5</ele><time>2026-04-25T10:02:28.059Z</time></trkpt><trkpt lat="37.1916567" lon="-3.751395"><ele>564.0</ele><time>2026-04-25T10:02:29.06Z</time></trkpt><trkpt lat="37.1916967" lon="-3.751765"><ele>564.0</ele><time>2026-04-25T10:02:30.064Z</time></trkpt><trkpt lat="37.1917367" lon="-3.7521333"><ele>564.0</ele><time>2026-04-25T10:02:31.059Z</time></trkpt><trkpt lat="37.191775" lon="-3.7525033"><ele>564.0</ele><time>2026-04-25T10:02:32.065Z</time></trkpt><trkpt lat="37.191815" lon="-3.7528783"><ele>564.0</ele><time>2026-04-25T10:02:33.063Z</time></trkpt><trkpt lat="37.191855" lon="-3.753255"><ele>564.0</ele><time>2026-04-25T10:02:34.064Z</time></trkpt><trkpt lat="37.1918917" lon="-3.7536317"><ele>564.0</ele><time>2026-04-25T10:02:35.065Z</time></trkpt><trkpt lat="37.1919233" lon="-3.75401"><ele>564.5</ele><time>2026-04-25T10:02:36.067Z</time></trkpt><trkpt lat="37.19195" lon="-3.7543917"><ele>565.0</ele><time>2026-04-25T10:02:37.064Z</time></trkpt><trkpt lat="37.19197" lon="-3.7547733"><ele>565.0</ele><time>2026-04-25T10:02:38.064Z</time></trkpt><trkpt lat="37.1919767" lon="-3.7551567"><ele>565.0</ele><time>2026-04-25T10:02:39.065Z</time></trkpt><trkpt lat="37.1919717" lon="-3.755535"><ele>564.5</ele><time>2026-04-25T10:02:40.063Z</time></trkpt><trkpt lat="37.19196" lon="-3.7559133"><ele>564.0</ele><time>2026-04-25T10:02:41.066Z</time></trkpt><trkpt lat="37.19194" lon="-3.75629"><ele>564.0</ele><time>2026-04-25T10:02:42.066Z</time></trkpt><trkpt lat="37.1919133" lon="-3.7566617"><ele>564.0</ele><time>2026-04-25T10:02:43.062Z</time></trkpt><trkpt lat="37.1918783" lon="-3.75703"><ele>564.0</ele><time>2026-04-25T10:02:44.067Z</time></trkpt><trkpt lat="37.1918383" lon="-3.7573983"><ele>564.0</ele><time>2026-04-25T10:02:45.066Z</time></trkpt><trkpt lat="37.191795" lon="-3.7577633"><ele>564.0</ele><time>2026-04-25T10:02:46.061Z</time></trkpt><trkpt lat="37.1917517" lon="-3.7581283"><ele>564.0</ele><time>2026-04-25T10:02:47.065Z</time></trkpt><trkpt lat="37.191705" lon="-3.7584983"><ele>563.5</ele><time>2026-04-25T10:02:48.065Z</time></trkpt><trkpt lat="37.1916583" lon="-3.7588667"><ele>563.0</ele><time>2026-04-25T10:02:49.062Z</time></trkpt><trkpt lat="37.1916117" lon="-3.7592367"><ele>563.5</ele><time>2026-04-25T10:02:50.067Z</time></trkpt><trkpt lat="37.191565" lon="-3.7596033"><ele>564.0</ele><time>2026-04-25T10:02:51.061Z</time></trkpt><trkpt lat="37.1915217" lon="-3.7599717"><ele>563.0</ele><time>2026-04-25T10:02:52.059Z</time></trkpt><trkpt lat="37.1914817" lon="-3.7603367"><ele>562.0</ele><time>2026-04-25T10:02:53.06Z</time></trkpt><trkpt lat="37.1914433" lon="-3.7607"><ele>562.5</ele><time>2026-04-25T10:02:54.062Z</time></trkpt><trkpt lat="37.1914067" lon="-3.7610633"><ele>563.0</ele><time>2026-04-25T10:02:55.066Z</time></trkpt><trkpt lat="37.1913717" lon="-3.7614267"><ele>563.0</ele><time>2026-04-25T10:02:56.064Z</time></trkpt><trkpt lat="37.191345" lon="-3.7617917"><ele>563.0</ele><time>2026-04-25T10:02:57.063Z</time></trkpt><trkpt lat="37.19132" lon="-3.7621633"><ele>563.0</ele><time>2026-04-25T10:02:58.061Z</time></trkpt><trkpt lat="37.1912983" lon="-3.7625317"><ele>563.0</ele><time>2026-04-25T10:02:59.063Z</time></trkpt><trkpt lat="37.191275" lon="-3.7629017"><ele>563.0</ele><time>2026-04-25T10:03:00.063Z</time></trkpt><trkpt lat="37.1912517" lon="-3.76327"><ele>563.0</ele><time>2026-04-25T10:03:01.062Z</time></trkpt><trkpt lat="37.1912233" lon="-3.76364"><ele>562.5</ele><time>2026-04-25T10:03:02.064Z</time></trkpt><trkpt lat="37.1911833" lon="-3.76401"><ele>562.0</ele><time>2026-04-25T10:03:03.065Z</time></trkpt><trkpt lat="37.191125" lon="-3.764375"><ele>562.0</ele><time>2026-04-25T10:03:04.061Z</time></trkpt><trkpt lat="37.19105" lon="-3.7647333"><ele>562.0</ele><time>2026-04-25T10:03:05.062Z</time></trkpt><trkpt lat="37.1909683" lon="-3.76509"><ele>563.0</ele><time>2026-04-25T10:03:06.064Z</time></trkpt><trkpt lat="37.1908867" lon="-3.76545"><ele>564.0</ele><time>2026-04-25T10:03:07.062Z</time></trkpt><trkpt lat="37.1908067" lon="-3.76581"><ele>562.0</ele><time>2026-04-25T10:03:08.068Z</time></trkpt><trkpt lat="37.190735" lon="-3.7661767"><ele>560.0</ele><time>2026-04-25T10:03:09.068Z</time></trkpt><trkpt lat="37.1906833" lon="-3.7665483"><ele>561.0</ele><time>2026-04-25T10:03:10.066Z</time></trkpt><trkpt lat="37.1906533" lon="-3.766925"><ele>562.0</ele><time>2026-04-25T10:03:11.064Z</time></trkpt><trkpt lat="37.1906433" lon="-3.7673"><ele>562.0</ele><time>2026-04-25T10:03:12.062Z</time></trkpt><trkpt lat="37.1906467" lon="-3.76767"><ele>562.0</ele><time>2026-04-25T10:03:13.067Z</time></trkpt><trkpt lat="37.1906567" lon="-3.768025"><ele>561.5</ele><time>2026-04-25T10:03:14.063Z</time></trkpt><trkpt lat="37.1906683" lon="-3.7683633"><ele>561.0</ele><time>2026-04-25T10:03:15.062Z</time></trkpt><trkpt lat="37.1906767" lon="-3.7686933"><ele>560.5</ele><time>2026-04-25T10:03:16.063Z</time></trkpt><trkpt lat="37.190685" lon="-3.7690167"><ele>560.0</ele><time>2026-04-25T10:03:17.062Z</time></trkpt><trkpt lat="37.1906933" lon="-3.7693383"><ele>560.0</ele><time>2026-04-25T10:03:18.063Z</time></trkpt><trkpt lat="37.1907017" lon="-3.76966"><ele>560.0</ele><time>2026-04-25T10:03:19.058Z</time></trkpt><trkpt lat="37.19071" lon="-3.7699783"><ele>560.5</ele><time>2026-04-25T10:03:20.063Z</time></trkpt><trkpt lat="37.19072" lon="-3.7702933"><ele>561.0</ele><time>2026-04-25T10:03:21.062Z</time></trkpt><trkpt lat="37.1907283" lon="-3.7706033"><ele>561.0</ele><time>2026-04-25T10:03:22.058Z</time></trkpt><trkpt lat="37.190735" lon="-3.7709133"><ele>561.0</ele><time>2026-04-25T10:03:23.063Z</time></trkpt><trkpt lat="37.1907417" lon="-3.7712217"><ele>560.0</ele><time>2026-04-25T10:03:24.065Z</time></trkpt><trkpt lat="37.190745" lon="-3.7715317"><ele>559.0</ele><time>2026-04-25T10:03:25.064Z</time></trkpt><trkpt lat="37.1907467" lon="-3.77184"><ele>559.0</ele><time>2026-04-25T10:03:26.062Z</time></trkpt><trkpt lat="37.1907467" lon="-3.7721517"><ele>559.0</ele><time>2026-04-25T10:03:27.061Z</time></trkpt><trkpt lat="37.190735" lon="-3.77246"><ele>559.0</ele><time>2026-04-25T10:03:28.063Z</time></trkpt><trkpt lat="37.1907167" lon="-3.77277"><ele>559.0</ele><time>2026-04-25T10:03:29.059Z</time></trkpt><trkpt lat="37.1906917" lon="-3.7730767"><ele>560.0</ele><time>2026-04-25T10:03:30.062Z</time></trkpt><trkpt lat="37.1906633" lon="-3.773385"><ele>561.0</ele><time>2026-04-25T10:03:31.061Z</time></trkpt><trkpt lat="37.190635" lon="-3.773695"><ele>561.0</ele><time>2026-04-25T10:03:32.065Z</time></trkpt><trkpt lat="37.1906083" lon="-3.7739983"><ele>561.0</ele><time>2026-04-25T10:03:33.061Z</time></trkpt><trkpt lat="37.1905817" lon="-3.774305"><ele>560.5</ele><time>2026-04-25T10:03:34.061Z</time></trkpt><trkpt lat="37.1905617" lon="-3.7746117"><ele>560.0</ele><time>2026-04-25T10:03:35.062Z</time></trkpt><trkpt lat="37.190555" lon="-3.7749183"><ele>560.5</ele><time>2026-04-25T10:03:36.067Z</time></trkpt><trkpt lat="37.1905667" lon="-3.7752333"><ele>561.0</ele><time>2026-04-25T10:03:37.06Z</time></trkpt><trkpt lat="37.1905917" lon="-3.7755467"><ele>561.0</ele><time>2026-04-25T10:03:38.062Z</time></trkpt><trkpt lat="37.1906267" lon="-3.7758583"><ele>561.0</ele><time>2026-04-25T10:03:39.065Z</time></trkpt><trkpt lat="37.19067" lon="-3.7761717"><ele>560.5</ele><time>2026-04-25T10:03:40.061Z</time></trkpt><trkpt lat="37.1907133" lon="-3.776495"><ele>560.0</ele><time>2026-04-25T10:03:41.062Z</time></trkpt><trkpt lat="37.19076" lon="-3.7768233"><ele>559.0</ele><time>2026-04-25T10:03:42.062Z</time></trkpt><trkpt lat="37.190805" lon="-3.7771533"><ele>558.0</ele><time>2026-04-25T10:03:43.063Z</time></trkpt><trkpt lat="37.1908417" lon="-3.77749"><ele>558.0</ele><time>2026-04-25T10:03:44.06Z</time></trkpt><trkpt lat="37.19087" lon="-3.7778317"><ele>558.0</ele><time>2026-04-25T10:03:45.064Z</time></trkpt><trkpt lat="37.19089" lon="-3.77818"><ele>556.0</ele><time>2026-04-25T10:03:46.063Z</time></trkpt><trkpt lat="37.1908967" lon="-3.7785283"><ele>554.0</ele><time>2026-04-25T10:03:47.062Z</time></trkpt><trkpt lat="37.190885" lon="-3.7788733"><ele>554.0</ele><time>2026-04-25T10:03:48.062Z</time></trkpt><trkpt lat="37.1908717" lon="-3.7792167"><ele>554.0</ele><time>2026-04-25T10:03:49.066Z</time></trkpt><trkpt lat="37.1908633" lon="-3.77956"><ele>555.0</ele><time>2026-04-25T10:03:50.064Z</time></trkpt><trkpt lat="37.1908517" lon="-3.779905"><ele>556.0</ele><time>2026-04-25T10:03:51.06Z</time></trkpt><trkpt lat="37.1908433" lon="-3.7802483"><ele>556.5</ele><time>2026-04-25T10:03:52.059Z</time></trkpt><trkpt lat="37.1908333" lon="-3.7805933"><ele>557.0</ele><time>2026-04-25T10:03:53.061Z</time></trkpt><trkpt lat="37.1908267" lon="-3.7809367"><ele>557.0</ele><time>2026-04-25T10:03:54.065Z</time></trkpt><trkpt lat="37.1908267" lon="-3.7812817"><ele>557.0</ele><time>2026-04-25T10:03:55.059Z</time></trkpt><trkpt lat="37.1908367" lon="-3.7816283"><ele>557.0</ele><time>2026-04-25T10:03:56.063Z</time></trkpt><trkpt lat="37.1908633" lon="-3.7819783"><ele>557.0</ele><time>2026-04-25T10:03:57.063Z</time></trkpt><trkpt lat="37.19091" lon="-3.7823233"><ele>557.0</ele><time>2026-04-25T10:03:58.064Z</time></trkpt><trkpt lat="37.190975" lon="-3.7826717"><ele>557.0</ele><time>2026-04-25T10:03:59.063Z</time></trkpt><trkpt lat="37.1910483" lon="-3.783015"><ele>557.0</ele><time>2026-04-25T10:04:00.06Z</time></trkpt><trkpt lat="37.1911317" lon="-3.78335"><ele>557.0</ele><time>2026-04-25T10:04:01.065Z</time></trkpt><trkpt lat="37.1912183" lon="-3.783685"><ele>556.5</ele><time>2026-04-25T10:04:02.066Z</time></trkpt><trkpt lat="37.1913017" lon="-3.7840217"><ele>556.0</ele><time>2026-04-25T10:04:03.068Z</time></trkpt><trkpt lat="37.1913867" lon="-3.78436"><ele>556.0</ele><time>2026-04-25T10:04:04.062Z</time></trkpt><trkpt lat="37.1914733" lon="-3.7847"><ele>556.0</ele><time>2026-04-25T10:04:05.06Z</time></trkpt><trkpt lat="37.1915583" lon="-3.7850433"><ele>556.5</ele><time>2026-04-25T10:04:06.065Z</time></trkpt><trkpt lat="37.1916417" lon="-3.7853867"><ele>557.0</ele><time>2026-04-25T10:04:07.06Z</time></trkpt><trkpt lat="37.191725" lon="-3.7857333"><ele>556.0</ele><time>2026-04-25T10:04:08.062Z</time></trkpt><trkpt lat="37.1918033" lon="-3.78608"><ele>555.0</ele><time>2026-04-25T10:04:09.061Z</time></trkpt><trkpt lat="37.19188" lon="-3.7864267"><ele>555.0</ele><time>2026-04-25T10:04:10.065Z</time></trkpt><trkpt lat="37.19195" lon="-3.7867783"><ele>555.0</ele><time>2026-04-25T10:04:11.063Z</time></trkpt><trkpt lat="37.1920133" lon="-3.7871333"><ele>555.0</ele><time>2026-04-25T10:04:12.064Z</time></trkpt><trkpt lat="37.1920817" lon="-3.7874883"><ele>555.0</ele><time>2026-04-25T10:04:13.061Z</time></trkpt><trkpt lat="37.19215" lon="-3.7878483"><ele>555.0</ele><time>2026-04-25T10:04:14.063Z</time></trkpt><trkpt lat="37.1922167" lon="-3.788205"><ele>555.0</ele><time>2026-04-25T10:04:15.065Z</time></trkpt><trkpt lat="37.1922767" lon="-3.7885617"><ele>555.5</ele><time>2026-04-25T10:04:16.066Z</time></trkpt><trkpt lat="37.192335" lon="-3.78892"><ele>556.0</ele><time>2026-04-25T10:04:17.066Z</time></trkpt><trkpt lat="37.1923933" lon="-3.7892767"><ele>554.5</ele><time>2026-04-25T10:04:18.063Z</time></trkpt><trkpt lat="37.1924517" lon="-3.789635"><ele>553.0</ele><time>2026-04-25T10:04:19.065Z</time></trkpt><trkpt lat="37.1925117" lon="-3.7899967"><ele>553.0</ele><time>2026-04-25T10:04:20.064Z</time></trkpt><trkpt lat="37.1925733" lon="-3.7903583"><ele>553.0</ele><time>2026-04-25T10:04:21.063Z</time></trkpt><trkpt lat="37.192635" lon="-3.7907183"><ele>552.5</ele><time>2026-04-25T10:04:22.061Z</time></trkpt><trkpt lat="37.1926967" lon="-3.7910783"><ele>552.0</ele><time>2026-04-25T10:04:23.066Z</time></trkpt><trkpt lat="37.1927583" lon="-3.791435"><ele>552.0</ele><time>2026-04-25T10:04:24.066Z</time></trkpt><trkpt lat="37.192815" lon="-3.79179"><ele>552.0</ele><time>2026-04-25T10:04:25.06Z</time></trkpt><trkpt lat="37.1928733" lon="-3.7921433"><ele>552.5</ele><time>2026-04-25T10:04:26.061Z</time></trkpt><trkpt lat="37.1929317" lon="-3.7924933"><ele>553.0</ele><time>2026-04-25T10:04:27.059Z</time></trkpt><trkpt lat="37.19299" lon="-3.7928417"><ele>554.0</ele><time>2026-04-25T10:04:28.062Z</time></trkpt><trkpt lat="37.19305" lon="-3.7931867"><ele>555.0</ele><time>2026-04-25T10:04:29.063Z</time></trkpt><trkpt lat="37.1931083" lon="-3.79353"><ele>555.0</ele><time>2026-04-25T10:04:30.063Z</time></trkpt><trkpt lat="37.1931633" lon="-3.7938717"><ele>555.0</ele><time>2026-04-25T10:04:31.062Z</time></trkpt><trkpt lat="37.1932167" lon="-3.79421"><ele>553.0</ele><time>2026-04-25T10:04:32.063Z</time></trkpt><trkpt lat="37.19327" lon="-3.7945483"><ele>551.0</ele><time>2026-04-25T10:04:33.063Z</time></trkpt><trkpt lat="37.193325" lon="-3.7948867"><ele>551.0</ele><time>2026-04-25T10:04:34.061Z</time></trkpt><trkpt lat="37.19338" lon="-3.795225"><ele>551.0</ele><time>2026-04-25T10:04:35.062Z</time></trkpt><trkpt lat="37.1934367" lon="-3.7955633"><ele>551.0</ele><time>2026-04-25T10:04:36.065Z</time></trkpt><trkpt lat="37.193495" lon="-3.7958967"><ele>551.0</ele><time>2026-04-25T10:04:37.061Z</time></trkpt><trkpt lat="37.1935533" lon="-3.7962283"><ele>551.0</ele><time>2026-04-25T10:04:38.06Z</time></trkpt><trkpt lat="37.19361" lon="-3.7965567"><ele>551.0</ele><time>2026-04-25T10:04:39.066Z</time></trkpt><trkpt lat="37.193665" lon="-3.7968833"><ele>552.0</ele><time>2026-04-25T10:04:40.064Z</time></trkpt><trkpt lat="37.19372" lon="-3.7972083"><ele>553.0</ele><time>2026-04-25T10:04:41.064Z</time></trkpt><trkpt lat="37.193775" lon="-3.7975333"><ele>553.0</ele><time>2026-04-25T10:04:42.064Z</time></trkpt><trkpt lat="37.19383" lon="-3.7978567"><ele>553.0</ele><time>2026-04-25T10:04:43.062Z</time></trkpt><trkpt lat="37.193885" lon="-3.7981733"><ele>553.0</ele><time>2026-04-25T10:04:44.065Z</time></trkpt><trkpt lat="37.1939367" lon="-3.7984783"><ele>553.0</ele><time>2026-04-25T10:04:45.06Z</time></trkpt><trkpt lat="37.193985" lon="-3.7987683"><ele>552.0</ele><time>2026-04-25T10:04:46.064Z</time></trkpt><trkpt lat="37.1940333" lon="-3.799045"><ele>551.0</ele><time>2026-04-25T10:04:47.061Z</time></trkpt><trkpt lat="37.194085" lon="-3.7993133"><ele>550.0</ele><time>2026-04-25T10:04:48.064Z</time></trkpt><trkpt lat="37.1941383" lon="-3.7995733"><ele>550.0</ele><time>2026-04-25T10:04:49.059Z</time></trkpt><trkpt lat="37.1941933" lon="-3.7998333"><ele>550.0</ele><time>2026-04-25T10:04:50.059Z</time></trkpt><trkpt lat="37.1942467" lon="-3.800085"><ele>550.0</ele><time>2026-04-25T10:04:51.06Z</time></trkpt><trkpt lat="37.1942967" lon="-3.800325"><ele>550.3333333333334</ele><time>2026-04-25T10:04:52.058Z</time></trkpt><trkpt lat="37.1943417" lon="-3.8005517"><ele>550.6666666666666</ele><time>2026-04-25T10:04:53.064Z</time></trkpt><trkpt lat="37.194385" lon="-3.8007633"><ele>551.0</ele><time>2026-04-25T10:04:54.063Z</time></trkpt><trkpt lat="37.1944233" lon="-3.8009683"><ele>551.0</ele><time>2026-04-25T10:04:55.064Z</time></trkpt><trkpt lat="37.1944567" lon="-3.8011683"><ele>551.0</ele><time>2026-04-25T10:04:56.066Z</time></trkpt><trkpt lat="37.1944917" lon="-3.8013633"><ele>551.0</ele><time>2026-04-25T10:04:57.064Z</time></trkpt><trkpt lat="37.19453" lon="-3.8015567"><ele>551.0</ele><time>2026-04-25T10:04:58.066Z</time></trkpt><trkpt lat="37.1945683" lon="-3.8017517"><ele>551.0</ele><time>2026-04-25T10:04:59.061Z</time></trkpt><trkpt lat="37.194605" lon="-3.8019367"><ele>551.0</ele><time>2026-04-25T10:05:00.064Z</time></trkpt><trkpt lat="37.1946483" lon="-3.80211"><ele>550.75</ele><time>2026-04-25T10:05:01.061Z</time></trkpt><trkpt lat="37.1947017" lon="-3.80227"><ele>550.5</ele><time>2026-04-25T10:05:02.062Z</time></trkpt><trkpt lat="37.19476" lon="-3.8024183"><ele>550.25</ele><time>2026-04-25T10:05:03.06Z</time></trkpt><trkpt lat="37.19482" lon="-3.8025517"><ele>550.0</ele><time>2026-04-25T10:05:04.06Z</time></trkpt><trkpt lat="37.194875" lon="-3.8026633"><ele>550.5</ele><time>2026-04-25T10:05:05.056Z</time></trkpt><trkpt lat="37.1949267" lon="-3.802765"><ele>551.0</ele><time>2026-04-25T10:05:06.061Z</time></trkpt><trkpt lat="37.1949783" lon="-3.8028617"><ele>551.5</ele><time>2026-04-25T10:05:07.061Z</time></trkpt><trkpt lat="37.1950333" lon="-3.8029533"><ele>552.0</ele><time>2026-04-25T10:05:08.063Z</time></trkpt><trkpt lat="37.19509" lon="-3.8030383"><ele>552.5</ele><time>2026-04-25T10:05:09.059Z</time></trkpt><trkpt lat="37.1951483" lon="-3.803105"><ele>553.0</ele><time>2026-04-25T10:05:10.059Z</time></trkpt><trkpt lat="37.1952083" lon="-3.803155"><ele>553.0</ele><time>2026-04-25T10:05:11.057Z</time></trkpt><trkpt lat="37.1952867" lon="-3.8031817"><ele>553.0</ele><time>2026-04-25T10:05:12.058Z</time></trkpt><trkpt lat="37.1953717" lon="-3.8031883"><ele>553.0</ele><time>2026-04-25T10:05:13.059Z</time></trkpt><trkpt lat="37.1954617" lon="-3.8031733"><ele>553.0</ele><time>2026-04-25T10:05:14.063Z</time></trkpt><trkpt lat="37.195545" lon="-3.8031517"><ele>553.0</ele><time>2026-04-25T10:05:15.059Z</time></trkpt><trkpt lat="37.1956183" lon="-3.8031117"><ele>553.0</ele><time>2026-04-25T10:05:16.061Z</time></trkpt><trkpt lat="37.19569" lon="-3.8030733"><ele>552.3333333333334</ele><time>2026-04-25T10:05:17.059Z</time></trkpt><trkpt lat="37.1957583" lon="-3.80305"><ele>551.6666666666667</ele><time>2026-04-25T10:05:18.062Z</time></trkpt><trkpt lat="37.1958233" lon="-3.803035"><ele>551.0</ele><time>2026-04-25T10:05:19.059Z</time></trkpt><trkpt lat="37.1959383" lon="-3.8030733"><ele>550.3333333333334</ele><time>2026-04-25T10:05:21.062Z</time></trkpt><trkpt lat="37.1960183" lon="-3.803145"><ele>549.6666666666666</ele><time>2026-04-25T10:05:23.062Z</time></trkpt><trkpt lat="37.1960583" lon="-3.8032317"><ele>549.0</ele><time>2026-04-25T10:05:26.063Z</time></trkpt><trkpt lat="37.196045" lon="-3.8033517"><ele>549.0</ele><time>2026-04-25T10:15:33.061Z</time></trkpt><trkpt lat="37.1959483" lon="-3.80331"><ele>549.0</ele><time>2026-04-25T10:15:47.063Z</time></trkpt><trkpt lat="37.1958517" lon="-3.8032867"><ele>549.0</ele><time>2026-04-25T10:15:49.061Z</time></trkpt><trkpt lat="37.195745" lon="-3.8032483"><ele>549.0</ele><time>2026-04-25T10:15:51.061Z</time></trkpt><trkpt lat="37.1956267" lon="-3.80321"><ele>549.0</ele><time>2026-04-25T10:15:53.06Z</time></trkpt><trkpt lat="37.1955583" lon="-3.8031983"><ele>549.6666666666666</ele><time>2026-04-25T10:15:54.064Z</time></trkpt><trkpt lat="37.195485" lon="-3.803195"><ele>550.3333333333334</ele><time>2026-04-25T10:15:55.061Z</time></trkpt><trkpt lat="37.1954167" lon="-3.803195"><ele>551.0</ele><time>2026-04-25T10:15:56.058Z</time></trkpt><trkpt lat="37.1953517" lon="-3.803205"><ele>551.6666666666667</ele><time>2026-04-25T10:15:57.062Z</time></trkpt><trkpt lat="37.19526" lon="-3.8032383"><ele>552.3333333333334</ele><time>2026-04-25T10:15:59.061Z</time></trkpt><trkpt lat="37.1951917" lon="-3.8033033"><ele>553.0</ele><time>2026-04-25T10:16:11.059Z</time></trkpt><trkpt lat="37.1951517" lon="-3.8033683"><ele>553.0</ele><time>2026-04-25T10:16:12.063Z</time></trkpt><trkpt lat="37.195095" lon="-3.8034683"><ele>553.0</ele><time>2026-04-25T10:16:13.059Z</time></trkpt><trkpt lat="37.1950433" lon="-3.8035967"><ele>553.0</ele><time>2026-04-25T10:16:14.062Z</time></trkpt><trkpt lat="37.195" lon="-3.8037317"><ele>553.0</ele><time>2026-04-25T10:16:15.063Z</time></trkpt><trkpt lat="37.1949583" lon="-3.8038767"><ele>552.75</ele><time>2026-04-25T10:16:16.06Z</time></trkpt><trkpt lat="37.1949217" lon="-3.8040383"><ele>552.5</ele><time>2026-04-25T10:16:17.059Z</time></trkpt><trkpt lat="37.1948883" lon="-3.8042133"><ele>552.25</ele><time>2026-04-25T10:16:18.063Z</time></trkpt><trkpt lat="37.1948583" lon="-3.8043933"><ele>552.0</ele><time>2026-04-25T10:16:19.059Z</time></trkpt><trkpt lat="37.194835" lon="-3.80459"><ele>552.0</ele><time>2026-04-25T10:16:20.065Z</time></trkpt><trkpt lat="37.19482" lon="-3.8047917"><ele>552.0</ele><time>2026-04-25T10:16:21.06Z</time></trkpt><trkpt lat="37.1948133" lon="-3.8049967"><ele>552.0</ele><time>2026-04-25T10:16:22.062Z</time></trkpt><trkpt lat="37.1948183" lon="-3.80521"><ele>552.0</ele><time>2026-04-25T10:16:23.067Z</time></trkpt><trkpt lat="37.1948333" lon="-3.8054267"><ele>552.0</ele><time>2026-04-25T10:16:24.068Z</time></trkpt><trkpt lat="37.19485" lon="-3.8056467"><ele>552.0</ele><time>2026-04-25T10:16:25.065Z</time></trkpt><trkpt lat="37.1948717" lon="-3.8058683"><ele>551.0</ele><time>2026-04-25T10:16:26.064Z</time></trkpt><trkpt lat="37.1948917" lon="-3.8060967"><ele>550.0</ele><time>2026-04-25T10:16:27.061Z</time></trkpt><trkpt lat="37.1949117" lon="-3.8063317"><ele>549.0</ele><time>2026-04-25T10:16:28.06Z</time></trkpt><trkpt lat="37.1949333" lon="-3.8065733"><ele>549.0</ele><time>2026-04-25T10:16:29.061Z</time></trkpt><trkpt lat="37.19495" lon="-3.80682"><ele>549.0</ele><time>2026-04-25T10:16:30.063Z</time></trkpt><trkpt lat="37.1949683" lon="-3.8070683"><ele>549.0</ele><time>2026-04-25T10:16:31.063Z</time></trkpt><trkpt lat="37.1949833" lon="-3.8073217"><ele>549.0</ele><time>2026-04-25T10:16:32.061Z</time></trkpt><trkpt lat="37.195" lon="-3.8075817"><ele>549.0</ele><time>2026-04-25T10:16:33.064Z</time></trkpt><trkpt lat="37.195015" lon="-3.8078483"><ele>549.0</ele><time>2026-04-25T10:16:34.058Z</time></trkpt><trkpt lat="37.19503" lon="-3.8081183"><ele>549.0</ele><time>2026-04-25T10:16:35.065Z</time></trkpt><trkpt lat="37.1950433" lon="-3.808395"><ele>549.0</ele><time>2026-04-25T10:16:36.062Z</time></trkpt><trkpt lat="37.1950517" lon="-3.8086783"><ele>549.0</ele><time>2026-04-25T10:16:37.066Z</time></trkpt><trkpt lat="37.19506" lon="-3.8089667"><ele>549.0</ele><time>2026-04-25T10:16:38.062Z</time></trkpt><trkpt lat="37.1950717" lon="-3.8092617"><ele>549.0</ele><time>2026-04-25T10:16:39.061Z</time></trkpt><trkpt lat="37.1950867" lon="-3.80956"><ele>549.0</ele><time>2026-04-25T10:16:40.063Z</time></trkpt><trkpt lat="37.1951033" lon="-3.8098633"><ele>549.0</ele><time>2026-04-25T10:16:41.064Z</time></trkpt><trkpt lat="37.1951217" lon="-3.81017"><ele>548.5</ele><time>2026-04-25T10:16:42.072Z</time></trkpt><trkpt lat="37.19514" lon="-3.81048"><ele>548.0</ele><time>2026-04-25T10:16:43.063Z</time></trkpt><trkpt lat="37.1951583" lon="-3.8107933"><ele>547.0</ele><time>2026-04-25T10:16:44.061Z</time></trkpt><trkpt lat="37.195175" lon="-3.8111033"><ele>546.0</ele><time>2026-04-25T10:16:45.064Z</time></trkpt><trkpt lat="37.19519" lon="-3.8114167"><ele>546.0</ele><time>2026-04-25T10:16:46.059Z</time></trkpt><trkpt lat="37.1952083" lon="-3.8117283"><ele>546.0</ele><time>2026-04-25T10:16:47.058Z</time></trkpt><trkpt lat="37.1952267" lon="-3.8120383"><ele>546.0</ele><time>2026-04-25T10:16:48.061Z</time></trkpt><trkpt lat="37.1952433" lon="-3.812345"><ele>546.0</ele><time>2026-04-25T10:16:49.065Z</time></trkpt><trkpt lat="37.1952617" lon="-3.812655"><ele>545.5</ele><time>2026-04-25T10:16:50.061Z</time></trkpt><trkpt lat="37.1952817" lon="-3.8129667"><ele>545.0</ele><time>2026-04-25T10:16:51.06Z</time></trkpt><trkpt lat="37.1952967" lon="-3.813275"><ele>545.5</ele><time>2026-04-25T10:16:52.061Z</time></trkpt><trkpt lat="37.19531" lon="-3.8135833"><ele>546.0</ele><time>2026-04-25T10:16:53.059Z</time></trkpt><trkpt lat="37.1953217" lon="-3.8138933"><ele>546.0</ele><time>2026-04-25T10:16:54.069Z</time></trkpt><trkpt lat="37.1953283" lon="-3.814205"><ele>546.0</ele><time>2026-04-25T10:16:55.062Z</time></trkpt><trkpt lat="37.19533" lon="-3.8145167"><ele>546.5</ele><time>2026-04-25T10:16:56.066Z</time></trkpt><trkpt lat="37.195325" lon="-3.8148267"><ele>547.0</ele><time>2026-04-25T10:16:57.06Z</time></trkpt><trkpt lat="37.1953133" lon="-3.8151367"><ele>546.0</ele><time>2026-04-25T10:16:58.061Z</time></trkpt><trkpt lat="37.1952933" lon="-3.815445"><ele>545.0</ele><time>2026-04-25T10:16:59.062Z</time></trkpt><trkpt lat="37.1952633" lon="-3.815755"><ele>544.5</ele><time>2026-04-25T10:17:00.062Z</time></trkpt><trkpt lat="37.1952267" lon="-3.8160583"><ele>544.0</ele><time>2026-04-25T10:17:01.063Z</time></trkpt><trkpt lat="37.1951817" lon="-3.81636"><ele>544.0</ele><time>2026-04-25T10:17:02.063Z</time></trkpt><trkpt lat="37.19513" lon="-3.81666"><ele>544.0</ele><time>2026-04-25T10:17:03.065Z</time></trkpt><trkpt lat="37.19507" lon="-3.8169533"><ele>544.5</ele><time>2026-04-25T10:17:04.057Z</time></trkpt><trkpt lat="37.1950033" lon="-3.81724"><ele>545.0</ele><time>2026-04-25T10:17:05.068Z</time></trkpt><trkpt lat="37.1949333" lon="-3.8175233"><ele>544.5</ele><time>2026-04-25T10:17:06.064Z</time></trkpt><trkpt lat="37.1948583" lon="-3.8177983"><ele>544.0</ele><time>2026-04-25T10:17:07.064Z</time></trkpt><trkpt lat="37.194775" lon="-3.8180683"><ele>544.0</ele><time>2026-04-25T10:17:08.064Z</time></trkpt><trkpt lat="37.1946833" lon="-3.8183283"><ele>544.0</ele><time>2026-04-25T10:17:09.066Z</time></trkpt><trkpt lat="37.1945867" lon="-3.8185817"><ele>544.6666666666667</ele><time>2026-04-25T10:17:10.061Z</time></trkpt><trkpt lat="37.194485" lon="-3.8188317"><ele>545.3333333333334</ele><time>2026-04-25T10:17:11.063Z</time></trkpt><trkpt lat="37.1943817" lon="-3.8190733"><ele>546.0</ele><time>2026-04-25T10:17:12.066Z</time></trkpt><trkpt lat="37.1942733" lon="-3.8193133"><ele>545.5</ele><time>2026-04-25T10:17:13.069Z</time></trkpt><trkpt lat="37.1941583" lon="-3.8195583"><ele>545.0</ele><time>2026-04-25T10:17:14.058Z</time></trkpt><trkpt lat="37.1940333" lon="-3.8198167"><ele>546.5</ele><time>2026-04-25T10:17:15.066Z</time></trkpt><trkpt lat="37.1938967" lon="-3.82009"><ele>548.0</ele><time>2026-04-25T10:17:16.065Z</time></trkpt><trkpt lat="37.193755" lon="-3.82037"><ele>548.0</ele><time>2026-04-25T10:17:17.061Z</time></trkpt><trkpt lat="37.1936167" lon="-3.8206383"><ele>548.0</ele><time>2026-04-25T10:17:18.063Z</time></trkpt><trkpt lat="37.1934883" lon="-3.8208917"><ele>548.3333333333333</ele><time>2026-04-25T10:17:19.065Z</time></trkpt><trkpt lat="37.193365" lon="-3.8211317"><ele>548.6666666666666</ele><time>2026-04-25T10:17:20.062Z</time></trkpt><trkpt lat="37.19325" lon="-3.82136"><ele>549.0</ele><time>2026-04-25T10:17:21.066Z</time></trkpt><trkpt lat="37.1931417" lon="-3.8215717"><ele>549.0</ele><time>2026-04-25T10:17:22.059Z</time></trkpt><trkpt lat="37.1930383" lon="-3.8217733"><ele>549.0</ele><time>2026-04-25T10:17:23.061Z</time></trkpt><trkpt lat="37.1929333" lon="-3.821975"><ele>549.0</ele><time>2026-04-25T10:17:24.064Z</time></trkpt><trkpt lat="37.1928233" lon="-3.8221883"><ele>548.6666666666666</ele><time>2026-04-25T10:17:25.063Z</time></trkpt><trkpt lat="37.1927067" lon="-3.8224117"><ele>548.3333333333333</ele><time>2026-04-25T10:17:26.07Z</time></trkpt><trkpt lat="37.1925867" lon="-3.8226467"><ele>548.0</ele><time>2026-04-25T10:17:27.064Z</time></trkpt><trkpt lat="37.192455" lon="-3.822895"><ele>548.0</ele><time>2026-04-25T10:17:28.059Z</time></trkpt><trkpt lat="37.1923167" lon="-3.8231583"><ele>548.0</ele><time>2026-04-25T10:17:29.061Z</time></trkpt><trkpt lat="37.1921733" lon="-3.82343"><ele>547.5</ele><time>2026-04-25T10:17:30.061Z</time></trkpt><trkpt lat="37.192035" lon="-3.82369"><ele>547.0</ele><time>2026-04-25T10:17:31.061Z</time></trkpt><trkpt lat="37.19191" lon="-3.8239433"><ele>547.0</ele><time>2026-04-25T10:17:32.059Z</time></trkpt><trkpt lat="37.1917933" lon="-3.82418"><ele>547.0</ele><time>2026-04-25T10:17:33.066Z</time></trkpt><trkpt lat="37.1916833" lon="-3.8243983"><ele>547.0</ele><time>2026-04-25T10:17:34.064Z</time></trkpt><trkpt lat="37.1915717" lon="-3.824615"><ele>549.0</ele><time>2026-04-25T10:17:35.067Z</time></trkpt><trkpt lat="37.1914583" lon="-3.8248383"><ele>551.0</ele><time>2026-04-25T10:17:36.066Z</time></trkpt><trkpt lat="37.1913383" lon="-3.8250683"><ele>553.0</ele><time>2026-04-25T10:17:37.062Z</time></trkpt><trkpt lat="37.1912133" lon="-3.8253033"><ele>556.5</ele><time>2026-04-25T10:17:38.064Z</time></trkpt><trkpt lat="37.191086" lon="-3.8255507"><ele>560.0</ele><time>2026-04-25T10:17:39.06Z</time></trkpt><trkpt lat="37.1909531" lon="-3.8258087"><ele>563.0</ele><time>2026-04-25T10:17:40.062Z</time></trkpt><trkpt lat="37.1908122" lon="-3.8260805"><ele>566.0</ele><time>2026-04-25T10:17:41.064Z</time></trkpt><trkpt lat="37.1906616" lon="-3.8263679"><ele>567.0</ele><time>2026-04-25T10:17:42.064Z</time></trkpt><trkpt lat="37.1905072" lon="-3.826664"><ele>568.0</ele><time>2026-04-25T10:17:43.06Z</time></trkpt><trkpt lat="37.1903563" lon="-3.826961"><ele>568.5</ele><time>2026-04-25T10:17:44.06Z</time></trkpt><trkpt lat="37.1902086" lon="-3.8272505"><ele>569.0</ele><time>2026-04-25T10:17:45.066Z</time></trkpt><trkpt lat="37.19007" lon="-3.8275229"><ele>570.5</ele><time>2026-04-25T10:17:46.059Z</time></trkpt><trkpt lat="37.1899353" lon="-3.8277915"><ele>572.0</ele><time>2026-04-25T10:17:47.057Z</time></trkpt><trkpt lat="37.1898008" lon="-3.8280689"><ele>572.0</ele><time>2026-04-25T10:17:48.064Z</time></trkpt><trkpt lat="37.1896673" lon="-3.8283588"><ele>572.0</ele><time>2026-04-25T10:17:49.065Z</time></trkpt><trkpt lat="37.1895362" lon="-3.8286616"><ele>569.5</ele><time>2026-04-25T10:17:50.066Z</time></trkpt><trkpt lat="37.1894148" lon="-3.8289782"><ele>567.0</ele><time>2026-04-25T10:17:51.061Z</time></trkpt><trkpt lat="37.1893067" lon="-3.8293089"><ele>566.5</ele><time>2026-04-25T10:17:52.065Z</time></trkpt><trkpt lat="37.1892142" lon="-3.8296464"><ele>566.0</ele><time>2026-04-25T10:17:53.063Z</time></trkpt><trkpt lat="37.1891378" lon="-3.8299915"><ele>564.0</ele><time>2026-04-25T10:17:54.062Z</time></trkpt><trkpt lat="37.1890784" lon="-3.8303466"><ele>562.0</ele><time>2026-04-25T10:17:55.068Z</time></trkpt><trkpt lat="37.1890396" lon="-3.8307035"><ele>561.0</ele><time>2026-04-25T10:17:56.061Z</time></trkpt><trkpt lat="37.1890208" lon="-3.8310658"><ele>560.0</ele><time>2026-04-25T10:17:57.063Z</time></trkpt><trkpt lat="37.1890226" lon="-3.8314267"><ele>560.0</ele><time>2026-04-25T10:17:58.057Z</time></trkpt><trkpt lat="37.1890477" lon="-3.8317893"><ele>560.0</ele><time>2026-04-25T10:17:59.066Z</time></trkpt><trkpt lat="37.1890941" lon="-3.8321483"><ele>560.0</ele><time>2026-04-25T10:18:00.057Z</time></trkpt><trkpt lat="37.1891596" lon="-3.8325034"><ele>560.0</ele><time>2026-04-25T10:18:01.058Z</time></trkpt><trkpt lat="37.1892449" lon="-3.8328545"><ele>560.0</ele><time>2026-04-25T10:18:02.066Z</time></trkpt><trkpt lat="37.1893488" lon="-3.8331951"><ele>560.0</ele><time>2026-04-25T10:18:03.067Z</time></trkpt><trkpt lat="37.189468" lon="-3.8335261"><ele>561.0</ele><time>2026-04-25T10:18:04.059Z</time></trkpt><trkpt lat="37.1896059" lon="-3.8338472"><ele>562.0</ele><time>2026-04-25T10:18:05.067Z</time></trkpt><trkpt lat="37.1897596" lon="-3.8341577"><ele>560.5</ele><time>2026-04-25T10:18:06.059Z</time></trkpt><trkpt lat="37.1899245" lon="-3.8344643"><ele>559.0</ele><time>2026-04-25T10:18:07.068Z</time></trkpt><trkpt lat="37.1900946" lon="-3.8347638"><ele>559.0</ele><time>2026-04-25T10:18:08.058Z</time></trkpt><trkpt lat="37.1902698" lon="-3.8350581"><ele>559.0</ele><time>2026-04-25T10:18:09.058Z</time></trkpt><trkpt lat="37.1904484" lon="-3.8353492"><ele>558.0</ele><time>2026-04-25T10:18:10.058Z</time></trkpt><trkpt lat="37.1906282" lon="-3.8356362"><ele>557.0</ele><time>2026-04-25T10:18:11.063Z</time></trkpt><trkpt lat="37.19081" lon="-3.8359167"><ele>556.5</ele><time>2026-04-25T10:18:12.063Z</time></trkpt><trkpt lat="37.1909917" lon="-3.8362"><ele>556.0</ele><time>2026-04-25T10:18:13.061Z</time></trkpt><trkpt lat="37.19117" lon="-3.8364833"><ele>556.0</ele><time>2026-04-25T10:18:14.07Z</time></trkpt><trkpt lat="37.1913467" lon="-3.8367667"><ele>556.0</ele><time>2026-04-25T10:18:15.059Z</time></trkpt><trkpt lat="37.191525" lon="-3.83705"><ele>553.5</ele><time>2026-04-25T10:18:16.059Z</time></trkpt><trkpt lat="37.1917067" lon="-3.837335"><ele>551.0</ele><time>2026-04-25T10:18:17.064Z</time></trkpt><trkpt lat="37.1918867" lon="-3.83762"><ele>550.0</ele><time>2026-04-25T10:18:18.062Z</time></trkpt><trkpt lat="37.1920683" lon="-3.83791"><ele>549.0</ele><time>2026-04-25T10:18:19.067Z</time></trkpt><trkpt lat="37.1922467" lon="-3.8381967"><ele>549.5</ele><time>2026-04-25T10:18:20.063Z</time></trkpt><trkpt lat="37.1924267" lon="-3.8384817"><ele>550.0</ele><time>2026-04-25T10:18:21.063Z</time></trkpt><trkpt lat="37.192605" lon="-3.838765"><ele>550.0</ele><time>2026-04-25T10:18:22.065Z</time></trkpt><trkpt lat="37.1927817" lon="-3.8390467"><ele>550.0</ele><time>2026-04-25T10:18:23.068Z</time></trkpt><trkpt lat="37.1929567" lon="-3.8393283"><ele>551.0</ele><time>2026-04-25T10:18:24.062Z</time></trkpt><trkpt lat="37.1931283" lon="-3.8396133"><ele>552.0</ele><time>2026-04-25T10:18:25.06Z</time></trkpt><trkpt lat="37.1932933" lon="-3.8399067"><ele>550.5</ele><time>2026-04-25T10:18:26.062Z</time></trkpt><trkpt lat="37.1934517" lon="-3.8402083"><ele>549.0</ele><time>2026-04-25T10:18:27.063Z</time></trkpt><trkpt lat="37.1936017" lon="-3.840515"><ele>549.0</ele><time>2026-04-25T10:18:28.062Z</time></trkpt><trkpt lat="37.1937417" lon="-3.8408267"><ele>549.0</ele><time>2026-04-25T10:18:29.061Z</time></trkpt><trkpt lat="37.1938683" lon="-3.8411483"><ele>547.5</ele><time>2026-04-25T10:18:30.061Z</time></trkpt><trkpt lat="37.1939817" lon="-3.841475"><ele>546.0</ele><time>2026-04-25T10:18:31.062Z</time></trkpt><trkpt lat="37.19408" lon="-3.8418083"><ele>544.5</ele><time>2026-04-25T10:18:32.066Z</time></trkpt><trkpt lat="37.194165" lon="-3.8421467"><ele>543.0</ele><time>2026-04-25T10:18:33.059Z</time></trkpt><trkpt lat="37.1942417" lon="-3.842485"><ele>543.0</ele><time>2026-04-25T10:18:34.063Z</time></trkpt><trkpt lat="37.194305" lon="-3.8428267"><ele>543.0</ele><time>2026-04-25T10:18:35.065Z</time></trkpt><trkpt lat="37.1943517" lon="-3.8431783"><ele>542.0</ele><time>2026-04-25T10:18:36.058Z</time></trkpt><trkpt lat="37.1943767" lon="-3.843535"><ele>541.0</ele><time>2026-04-25T10:18:37.062Z</time></trkpt><trkpt lat="37.19439" lon="-3.8438967"><ele>541.0</ele><time>2026-04-25T10:18:38.058Z</time></trkpt><trkpt lat="37.19439" lon="-3.8442583"><ele>541.0</ele><time>2026-04-25T10:18:39.065Z</time></trkpt><trkpt lat="37.1943783" lon="-3.84462"><ele>539.5</ele><time>2026-04-25T10:18:40.062Z</time></trkpt><trkpt lat="37.1943583" lon="-3.8449833"><ele>538.0</ele><time>2026-04-25T10:18:41.07Z</time></trkpt><trkpt lat="37.1943333" lon="-3.8453483"><ele>537.5</ele><time>2026-04-25T10:18:42.069Z</time></trkpt><trkpt lat="37.1943" lon="-3.8457133"><ele>537.0</ele><time>2026-04-25T10:18:43.061Z</time></trkpt><trkpt lat="37.1942617" lon="-3.8460733"><ele>537.0</ele><time>2026-04-25T10:18:44.067Z</time></trkpt><trkpt lat="37.19422" lon="-3.846435"><ele>537.0</ele><time>2026-04-25T10:18:45.06Z</time></trkpt><trkpt lat="37.19418" lon="-3.8467967"><ele>535.5</ele><time>2026-04-25T10:18:46.063Z</time></trkpt><trkpt lat="37.194145" lon="-3.84716"><ele>534.0</ele><time>2026-04-25T10:18:47.061Z</time></trkpt><trkpt lat="37.194115" lon="-3.847525"><ele>535.0</ele><time>2026-04-25T10:18:48.066Z</time></trkpt><trkpt lat="37.1940983" lon="-3.84789"><ele>536.0</ele><time>2026-04-25T10:18:49.06Z</time></trkpt><trkpt lat="37.1940917" lon="-3.8482583"><ele>534.5</ele><time>2026-04-25T10:18:50.064Z</time></trkpt><trkpt lat="37.1940983" lon="-3.848625"><ele>533.0</ele><time>2026-04-25T10:18:51.06Z</time></trkpt><trkpt lat="37.1941117" lon="-3.8489867"><ele>535.0</ele><time>2026-04-25T10:18:52.059Z</time></trkpt><trkpt lat="37.19413" lon="-3.8493433"><ele>537.0</ele><time>2026-04-25T10:18:53.061Z</time></trkpt><trkpt lat="37.1941483" lon="-3.8496933"><ele>537.0</ele><time>2026-04-25T10:18:54.061Z</time></trkpt><trkpt lat="37.1941683" lon="-3.8500433"><ele>537.0</ele><time>2026-04-25T10:18:55.059Z</time></trkpt><trkpt lat="37.1941883" lon="-3.8503883"><ele>538.0</ele><time>2026-04-25T10:18:56.063Z</time></trkpt><trkpt lat="37.1942067" lon="-3.850735"><ele>539.0</ele><time>2026-04-25T10:18:57.059Z</time></trkpt><trkpt lat="37.1942283" lon="-3.85108"><ele>540.5</ele><time>2026-04-25T10:18:58.058Z</time></trkpt><trkpt lat="37.19425" lon="-3.851425"><ele>542.0</ele><time>2026-04-25T10:18:59.06Z</time></trkpt><trkpt lat="37.1942717" lon="-3.85177"><ele>543.0</ele><time>2026-04-25T10:19:00.059Z</time></trkpt><trkpt lat="37.1942933" lon="-3.852115"><ele>544.0</ele><time>2026-04-25T10:19:01.064Z</time></trkpt><trkpt lat="37.1943167" lon="-3.8524617"><ele>544.0</ele><time>2026-04-25T10:19:02.062Z</time></trkpt><trkpt lat="37.194335" lon="-3.8528117"><ele>544.0</ele><time>2026-04-25T10:19:03.063Z</time></trkpt><trkpt lat="37.1943533" lon="-3.8531633"><ele>544.5</ele><time>2026-04-25T10:19:04.062Z</time></trkpt><trkpt lat="37.194365" lon="-3.8535183"><ele>545.0</ele><time>2026-04-25T10:19:05.067Z</time></trkpt><trkpt lat="37.194375" lon="-3.8538783"><ele>545.0</ele><time>2026-04-25T10:19:06.061Z</time></trkpt><trkpt lat="37.1943833" lon="-3.85424"><ele>545.0</ele><time>2026-04-25T10:19:07.064Z</time></trkpt><trkpt lat="37.19439" lon="-3.854605"><ele>543.5</ele><time>2026-04-25T10:19:08.065Z</time></trkpt><trkpt lat="37.1943917" lon="-3.8549667"><ele>542.0</ele><time>2026-04-25T10:19:09.059Z</time></trkpt><trkpt lat="37.19439" lon="-3.8553267"><ele>542.0</ele><time>2026-04-25T10:19:10.067Z</time></trkpt><trkpt lat="37.194385" lon="-3.8556883"><ele>542.0</ele><time>2026-04-25T10:19:11.062Z</time></trkpt><trkpt lat="37.1943817" lon="-3.85605"><ele>542.0</ele><time>2026-04-25T10:19:12.067Z</time></trkpt><trkpt lat="37.1943783" lon="-3.85641"><ele>542.0</ele><time>2026-04-25T10:19:13.065Z</time></trkpt><trkpt lat="37.1943767" lon="-3.8567733"><ele>540.5</ele><time>2026-04-25T10:19:14.064Z</time></trkpt><trkpt lat="37.1943783" lon="-3.8571383"><ele>539.0</ele><time>2026-04-25T10:19:15.059Z</time></trkpt><trkpt lat="37.1943817" lon="-3.8575"><ele>537.5</ele><time>2026-04-25T10:19:16.057Z</time></trkpt><trkpt lat="37.19439" lon="-3.85786"><ele>536.0</ele><time>2026-04-25T10:19:17.061Z</time></trkpt><trkpt lat="37.1944083" lon="-3.8582183"><ele>535.0</ele><time>2026-04-25T10:19:18.064Z</time></trkpt><trkpt lat="37.194445" lon="-3.8585767"><ele>534.0</ele><time>2026-04-25T10:19:19.064Z</time></trkpt><trkpt lat="37.1944933" lon="-3.85893"><ele>534.0</ele><time>2026-04-25T10:19:20.062Z</time></trkpt><trkpt lat="37.19456" lon="-3.85928"><ele>534.0</ele><time>2026-04-25T10:19:21.062Z</time></trkpt><trkpt lat="37.1946417" lon="-3.8596217"><ele>536.5</ele><time>2026-04-25T10:19:22.061Z</time></trkpt><trkpt lat="37.194735" lon="-3.85996"><ele>539.0</ele><time>2026-04-25T10:19:23.062Z</time></trkpt><trkpt lat="37.19483" lon="-3.8602967"><ele>534.5</ele><time>2026-04-25T10:19:24.059Z</time></trkpt><trkpt lat="37.1949267" lon="-3.86063"><ele>530.0</ele><time>2026-04-25T10:19:25.065Z</time></trkpt><trkpt lat="37.195025" lon="-3.8609617"><ele>530.0</ele><time>2026-04-25T10:19:26.062Z</time></trkpt><trkpt lat="37.1951217" lon="-3.8612967"><ele>530.0</ele><time>2026-04-25T10:19:27.066Z</time></trkpt><trkpt lat="37.1952167" lon="-3.8616283"><ele>529.5</ele><time>2026-04-25T10:19:28.065Z</time></trkpt><trkpt lat="37.19531" lon="-3.861965"><ele>529.0</ele><time>2026-04-25T10:19:29.061Z</time></trkpt><trkpt lat="37.1954" lon="-3.8623033"><ele>529.5</ele><time>2026-04-25T10:19:30.064Z</time></trkpt><trkpt lat="37.1954833" lon="-3.8626467"><ele>530.0</ele><time>2026-04-25T10:19:31.061Z</time></trkpt><trkpt lat="37.1955517" lon="-3.862995"><ele>530.0</ele><time>2026-04-25T10:19:32.062Z</time></trkpt><trkpt lat="37.1956017" lon="-3.863345"><ele>530.0</ele><time>2026-04-25T10:19:33.069Z</time></trkpt><trkpt lat="37.1956367" lon="-3.8636967"><ele>532.5</ele><time>2026-04-25T10:19:34.067Z</time></trkpt><trkpt lat="37.1956583" lon="-3.86405"><ele>535.0</ele><time>2026-04-25T10:19:35.069Z</time></trkpt><trkpt lat="37.195665" lon="-3.8644067"><ele>535.0</ele><time>2026-04-25T10:19:36.063Z</time></trkpt><trkpt lat="37.1956583" lon="-3.8647617"><ele>535.0</ele><time>2026-04-25T10:19:37.063Z</time></trkpt><trkpt lat="37.1956367" lon="-3.8651167"><ele>534.5</ele><time>2026-04-25T10:19:38.067Z</time></trkpt><trkpt lat="37.1955983" lon="-3.8654683"><ele>534.0</ele><time>2026-04-25T10:19:39.06Z</time></trkpt><trkpt lat="37.1955433" lon="-3.8658183"><ele>533.5</ele><time>2026-04-25T10:19:40.059Z</time></trkpt><trkpt lat="37.1954767" lon="-3.8661667"><ele>533.0</ele><time>2026-04-25T10:19:41.063Z</time></trkpt><trkpt lat="37.195395" lon="-3.86651"><ele>533.0</ele><time>2026-04-25T10:19:42.058Z</time></trkpt><trkpt lat="37.1953" lon="-3.86685"><ele>533.0</ele><time>2026-04-25T10:19:43.061Z</time></trkpt><trkpt lat="37.1951917" lon="-3.8671817"><ele>533.0</ele><time>2026-04-25T10:19:44.066Z</time></trkpt><trkpt lat="37.1950667" lon="-3.8675033"><ele>533.0</ele><time>2026-04-25T10:19:45.062Z</time></trkpt><trkpt lat="37.1949317" lon="-3.8678167"><ele>536.0</ele><time>2026-04-25T10:19:46.059Z</time></trkpt><trkpt lat="37.1947833" lon="-3.8681183"><ele>539.0</ele><time>2026-04-25T10:19:47.067Z</time></trkpt><trkpt lat="37.194625" lon="-3.8684133"><ele>538.0</ele><time>2026-04-25T10:19:48.061Z</time></trkpt><trkpt lat="37.1944517" lon="-3.8686967"><ele>537.0</ele><time>2026-04-25T10:19:49.063Z</time></trkpt><trkpt lat="37.1942667" lon="-3.8689717"><ele>537.0</ele><time>2026-04-25T10:19:50.069Z</time></trkpt><trkpt lat="37.1940717" lon="-3.8692417"><ele>537.0</ele><time>2026-04-25T10:19:51.058Z</time></trkpt><trkpt lat="37.1938717" lon="-3.8695133"><ele>537.5</ele><time>2026-04-25T10:19:52.062Z</time></trkpt><trkpt lat="37.1936717" lon="-3.8697883"><ele>538.0</ele><time>2026-04-25T10:19:53.065Z</time></trkpt><trkpt lat="37.1934717" lon="-3.8700667"><ele>538.5</ele><time>2026-04-25T10:19:54.061Z</time></trkpt><trkpt lat="37.1932717" lon="-3.8703483"><ele>539.0</ele><time>2026-04-25T10:19:55.066Z</time></trkpt><trkpt lat="37.1930733" lon="-3.8706267"><ele>539.0</ele><time>2026-04-25T10:19:56.065Z</time></trkpt><trkpt lat="37.192875" lon="-3.8709033"><ele>539.0</ele><time>2026-04-25T10:19:57.065Z</time></trkpt><trkpt lat="37.1926783" lon="-3.871185"><ele>541.5</ele><time>2026-04-25T10:19:58.059Z</time></trkpt><trkpt lat="37.1924833" lon="-3.8714683"><ele>544.0</ele><time>2026-04-25T10:19:59.06Z</time></trkpt><trkpt lat="37.19229" lon="-3.8717567"><ele>546.0</ele><time>2026-04-25T10:20:00.067Z</time></trkpt><trkpt lat="37.1920967" lon="-3.8720433"><ele>548.0</ele><time>2026-04-25T10:20:01.063Z</time></trkpt><trkpt lat="37.1919033" lon="-3.8723317"><ele>550.5</ele><time>2026-04-25T10:20:02.067Z</time></trkpt><trkpt lat="37.1917167" lon="-3.872625"><ele>553.0</ele><time>2026-04-25T10:20:03.067Z</time></trkpt><trkpt lat="37.1915417" lon="-3.872925"><ele>552.0</ele><time>2026-04-25T10:20:04.059Z</time></trkpt><trkpt lat="37.1913783" lon="-3.8732367"><ele>551.0</ele><time>2026-04-25T10:20:05.064Z</time></trkpt><trkpt lat="37.1912233" lon="-3.8735517"><ele>551.0</ele><time>2026-04-25T10:20:06.065Z</time></trkpt><trkpt lat="37.19107" lon="-3.87387"><ele>551.0</ele><time>2026-04-25T10:20:07.064Z</time></trkpt><trkpt lat="37.1909233" lon="-3.8741883"><ele>553.5</ele><time>2026-04-25T10:20:08.065Z</time></trkpt><trkpt lat="37.1907767" lon="-3.874505"><ele>556.0</ele><time>2026-04-25T10:20:09.065Z</time></trkpt><trkpt lat="37.1906333" lon="-3.8748233"><ele>558.0</ele><time>2026-04-25T10:20:10.059Z</time></trkpt><trkpt lat="37.1904867" lon="-3.8751417"><ele>560.0</ele><time>2026-04-25T10:20:11.064Z</time></trkpt><trkpt lat="37.1903417" lon="-3.87546"><ele>560.0</ele><time>2026-04-25T10:20:12.064Z</time></trkpt><trkpt lat="37.1901967" lon="-3.8757767"><ele>560.0</ele><time>2026-04-25T10:20:13.063Z</time></trkpt><trkpt lat="37.1900517" lon="-3.876095"><ele>561.0</ele><time>2026-04-25T10:20:14.062Z</time></trkpt><trkpt lat="37.1899067" lon="-3.8764117"><ele>562.0</ele><time>2026-04-25T10:20:15.064Z</time></trkpt><trkpt lat="37.1897633" lon="-3.8767267"><ele>565.0</ele><time>2026-04-25T10:20:16.06Z</time></trkpt><trkpt lat="37.1896217" lon="-3.87704"><ele>568.0</ele><time>2026-04-25T10:20:17.066Z</time></trkpt><trkpt lat="37.18948" lon="-3.8773533"><ele>569.0</ele><time>2026-04-25T10:20:18.062Z</time></trkpt><trkpt lat="37.189335" lon="-3.877665"><ele>570.0</ele><time>2026-04-25T10:20:19.062Z</time></trkpt><trkpt lat="37.1891867" lon="-3.877975"><ele>570.0</ele><time>2026-04-25T10:20:20.063Z</time></trkpt><trkpt lat="37.189035" lon="-3.878285"><ele>570.0</ele><time>2026-04-25T10:20:21.062Z</time></trkpt><trkpt lat="37.1888833" lon="-3.8785983"><ele>571.0</ele><time>2026-04-25T10:20:22.06Z</time></trkpt><trkpt lat="37.188735" lon="-3.8789167"><ele>572.0</ele><time>2026-04-25T10:20:23.062Z</time></trkpt><trkpt lat="37.1885883" lon="-3.8792417"><ele>570.5</ele><time>2026-04-25T10:20:24.064Z</time></trkpt><trkpt lat="37.1884417" lon="-3.87957"><ele>569.0</ele><time>2026-04-25T10:20:25.063Z</time></trkpt><trkpt lat="37.1882933" lon="-3.879895"><ele>569.5</ele><time>2026-04-25T10:20:26.064Z</time></trkpt><trkpt lat="37.188145" lon="-3.8802183"><ele>570.0</ele><time>2026-04-25T10:20:27.063Z</time></trkpt><trkpt lat="37.1879967" lon="-3.8805433"><ele>570.0</ele><time>2026-04-25T10:20:28.062Z</time></trkpt><trkpt lat="37.1878483" lon="-3.8808683"><ele>570.0</ele><time>2026-04-25T10:20:29.066Z</time></trkpt><trkpt lat="37.1877033" lon="-3.8811933"><ele>568.0</ele><time>2026-04-25T10:20:30.061Z</time></trkpt><trkpt lat="37.1875567" lon="-3.8815183"><ele>566.0</ele><time>2026-04-25T10:20:31.061Z</time></trkpt><trkpt lat="37.1874133" lon="-3.8818517"><ele>567.0</ele><time>2026-04-25T10:20:32.062Z</time></trkpt><trkpt lat="37.1872717" lon="-3.8821867"><ele>568.0</ele><time>2026-04-25T10:20:33.06Z</time></trkpt><trkpt lat="37.187125" lon="-3.8825167"><ele>565.5</ele><time>2026-04-25T10:20:34.057Z</time></trkpt><trkpt lat="37.186975" lon="-3.8828467"><ele>563.0</ele><time>2026-04-25T10:20:35.061Z</time></trkpt><trkpt lat="37.1868267" lon="-3.8831767"><ele>562.0</ele><time>2026-04-25T10:20:36.069Z</time></trkpt><trkpt lat="37.1866783" lon="-3.883505"><ele>561.0</ele><time>2026-04-25T10:20:37.06Z</time></trkpt><trkpt lat="37.18653" lon="-3.8838333"><ele>563.0</ele><time>2026-04-25T10:20:38.062Z</time></trkpt><trkpt lat="37.1863817" lon="-3.88416"><ele>565.0</ele><time>2026-04-25T10:20:39.061Z</time></trkpt><trkpt lat="37.1862333" lon="-3.8844833"><ele>565.5</ele><time>2026-04-25T10:20:40.064Z</time></trkpt><trkpt lat="37.1860867" lon="-3.8848067"><ele>566.0</ele><time>2026-04-25T10:20:41.06Z</time></trkpt><trkpt lat="37.1859417" lon="-3.885125"><ele>564.5</ele><time>2026-04-25T10:20:42.067Z</time></trkpt><trkpt lat="37.1857967" lon="-3.88544"><ele>563.0</ele><time>2026-04-25T10:20:43.064Z</time></trkpt><trkpt lat="37.1856533" lon="-3.8857533"><ele>565.0</ele><time>2026-04-25T10:20:44.065Z</time></trkpt><trkpt lat="37.1855083" lon="-3.8860633"><ele>567.0</ele><time>2026-04-25T10:20:45.064Z</time></trkpt><trkpt lat="37.1853667" lon="-3.8863667"><ele>567.0</ele><time>2026-04-25T10:20:46.063Z</time></trkpt><trkpt lat="37.185225" lon="-3.8866667"><ele>567.0</ele><time>2026-04-25T10:20:47.062Z</time></trkpt><trkpt lat="37.185085" lon="-3.886965"><ele>567.5</ele><time>2026-04-25T10:20:48.063Z</time></trkpt><trkpt lat="37.184945" lon="-3.8872633"><ele>568.0</ele><time>2026-04-25T10:20:49.061Z</time></trkpt><trkpt lat="37.18481" lon="-3.887565"><ele>571.0</ele><time>2026-04-25T10:20:50.063Z</time></trkpt><trkpt lat="37.184675" lon="-3.8878683"><ele>574.0</ele><time>2026-04-25T10:20:51.06Z</time></trkpt><trkpt lat="37.18454" lon="-3.8881783"><ele>574.5</ele><time>2026-04-25T10:20:52.059Z</time></trkpt><trkpt lat="37.1844017" lon="-3.888485"><ele>575.0</ele><time>2026-04-25T10:20:53.061Z</time></trkpt><trkpt lat="37.1842617" lon="-3.888795"><ele>575.0</ele><time>2026-04-25T10:20:54.063Z</time></trkpt><trkpt lat="37.1841233" lon="-3.8891067"><ele>575.0</ele><time>2026-04-25T10:20:55.067Z</time></trkpt><trkpt lat="37.1839833" lon="-3.8894183"><ele>574.0</ele><time>2026-04-25T10:20:56.062Z</time></trkpt><trkpt lat="37.1838433" lon="-3.8897283"><ele>573.0</ele><time>2026-04-25T10:20:57.06Z</time></trkpt><trkpt lat="37.1837033" lon="-3.890035"><ele>572.0</ele><time>2026-04-25T10:20:58.059Z</time></trkpt><trkpt lat="37.1835633" lon="-3.89034"><ele>571.0</ele><time>2026-04-25T10:20:59.062Z</time></trkpt><trkpt lat="37.1834183" lon="-3.890645"><ele>571.5</ele><time>2026-04-25T10:21:00.067Z</time></trkpt><trkpt lat="37.1832717" lon="-3.8909517"><ele>572.0</ele><time>2026-04-25T10:21:01.066Z</time></trkpt><trkpt lat="37.183125" lon="-3.8912633"><ele>572.0</ele><time>2026-04-25T10:21:02.064Z</time></trkpt><trkpt lat="37.18298" lon="-3.8915783"><ele>572.0</ele><time>2026-04-25T10:21:03.064Z</time></trkpt><trkpt lat="37.1828383" lon="-3.8918967"><ele>572.0</ele><time>2026-04-25T10:21:04.064Z</time></trkpt><trkpt lat="37.1826967" lon="-3.892215"><ele>572.0</ele><time>2026-04-25T10:21:05.064Z</time></trkpt><trkpt lat="37.1825583" lon="-3.8925367"><ele>571.0</ele><time>2026-04-25T10:21:06.065Z</time></trkpt><trkpt lat="37.1824217" lon="-3.8928617"><ele>570.0</ele><time>2026-04-25T10:21:07.065Z</time></trkpt><trkpt lat="37.1822933" lon="-3.8931933"><ele>571.5</ele><time>2026-04-25T10:21:08.065Z</time></trkpt><trkpt lat="37.1821733" lon="-3.8935317"><ele>573.0</ele><time>2026-04-25T10:21:09.063Z</time></trkpt><trkpt lat="37.18206" lon="-3.893875"><ele>573.0</ele><time>2026-04-25T10:21:10.064Z</time></trkpt><trkpt lat="37.181955" lon="-3.8942217"><ele>573.0</ele><time>2026-04-25T10:21:11.065Z</time></trkpt><trkpt lat="37.1818583" lon="-3.8945717"><ele>570.5</ele><time>2026-04-25T10:21:12.063Z</time></trkpt><trkpt lat="37.1817667" lon="-3.894925"><ele>568.0</ele><time>2026-04-25T10:21:13.067Z</time></trkpt><trkpt lat="37.1816783" lon="-3.8952783"><ele>568.0</ele><time>2026-04-25T10:21:14.063Z</time></trkpt><trkpt lat="37.18159" lon="-3.89563"><ele>568.0</ele><time>2026-04-25T10:21:15.063Z</time></trkpt><trkpt lat="37.1814933" lon="-3.8959783"><ele>568.0</ele><time>2026-04-25T10:21:16.058Z</time></trkpt><trkpt lat="37.181385" lon="-3.89632"><ele>568.0</ele><time>2026-04-25T10:21:17.06Z</time></trkpt><trkpt lat="37.1812617" lon="-3.896655"><ele>569.0</ele><time>2026-04-25T10:21:18.064Z</time></trkpt><trkpt lat="37.181125" lon="-3.8969767"><ele>570.0</ele><time>2026-04-25T10:21:19.06Z</time></trkpt><trkpt lat="37.1809783" lon="-3.8972933"><ele>571.0</ele><time>2026-04-25T10:21:20.06Z</time></trkpt><trkpt lat="37.1808267" lon="-3.89761"><ele>572.0</ele><time>2026-04-25T10:21:21.06Z</time></trkpt><trkpt lat="37.180675" lon="-3.8979283"><ele>572.0</ele><time>2026-04-25T10:21:22.06Z</time></trkpt><trkpt lat="37.180525" lon="-3.8982533"><ele>572.0</ele><time>2026-04-25T10:21:23.065Z</time></trkpt><trkpt lat="37.1803783" lon="-3.8985817"><ele>571.0</ele><time>2026-04-25T10:21:24.062Z</time></trkpt><trkpt lat="37.18023" lon="-3.8989083"><ele>570.0</ele><time>2026-04-25T10:21:25.059Z</time></trkpt><trkpt lat="37.1800767" lon="-3.8992333"><ele>569.5</ele><time>2026-04-25T10:21:26.065Z</time></trkpt><trkpt lat="37.1799233" lon="-3.899555"><ele>569.0</ele><time>2026-04-25T10:21:27.061Z</time></trkpt><trkpt lat="37.17977" lon="-3.899875"><ele>572.5</ele><time>2026-04-25T10:21:28.061Z</time></trkpt><trkpt lat="37.1796183" lon="-3.900195"><ele>576.0</ele><time>2026-04-25T10:21:29.065Z</time></trkpt><trkpt lat="37.1794717" lon="-3.900515"><ele>576.0</ele><time>2026-04-25T10:21:30.061Z</time></trkpt><trkpt lat="37.1793267" lon="-3.900835"><ele>576.0</ele><time>2026-04-25T10:21:31.065Z</time></trkpt><trkpt lat="37.17919" lon="-3.9011583"><ele>576.5</ele><time>2026-04-25T10:21:32.065Z</time></trkpt><trkpt lat="37.1790633" lon="-3.901485"><ele>577.0</ele><time>2026-04-25T10:21:33.064Z</time></trkpt><trkpt lat="37.1789517" lon="-3.9018167"><ele>578.5</ele><time>2026-04-25T10:21:34.059Z</time></trkpt><trkpt lat="37.1788533" lon="-3.9021567"><ele>580.0</ele><time>2026-04-25T10:21:35.062Z</time></trkpt><trkpt lat="37.1787683" lon="-3.9024983"><ele>581.5</ele><time>2026-04-25T10:21:36.065Z</time></trkpt><trkpt lat="37.178705" lon="-3.90285"><ele>583.0</ele><time>2026-04-25T10:21:37.06Z</time></trkpt><trkpt lat="37.1786567" lon="-3.9032067"><ele>585.5</ele><time>2026-04-25T10:21:38.064Z</time></trkpt><trkpt lat="37.1786267" lon="-3.9035633"><ele>588.0</ele><time>2026-04-25T10:21:39.061Z</time></trkpt><trkpt lat="37.178615" lon="-3.903925"><ele>589.0</ele><time>2026-04-25T10:21:40.064Z</time></trkpt><trkpt lat="37.17861" lon="-3.9042867"><ele>590.0</ele><time>2026-04-25T10:21:41.057Z</time></trkpt><trkpt lat="37.178615" lon="-3.9046467"><ele>590.0</ele><time>2026-04-25T10:21:42.064Z</time></trkpt><trkpt lat="37.1786283" lon="-3.90501"><ele>590.0</ele><time>2026-04-25T10:21:43.06Z</time></trkpt><trkpt lat="37.178645" lon="-3.9053767"><ele>588.5</ele><time>2026-04-25T10:21:44.065Z</time></trkpt><trkpt lat="37.1786633" lon="-3.9057467"><ele>587.0</ele><time>2026-04-25T10:21:45.063Z</time></trkpt><trkpt lat="37.1786817" lon="-3.9061133"><ele>585.0</ele><time>2026-04-25T10:21:46.061Z</time></trkpt><trkpt lat="37.1787" lon="-3.9064867"><ele>583.0</ele><time>2026-04-25T10:21:47.058Z</time></trkpt><trkpt lat="37.178715" lon="-3.9068583"><ele>583.0</ele><time>2026-04-25T10:21:48.06Z</time></trkpt><trkpt lat="37.1787283" lon="-3.90723"><ele>583.0</ele><time>2026-04-25T10:21:49.06Z</time></trkpt><trkpt lat="37.178745" lon="-3.907605"><ele>583.0</ele><time>2026-04-25T10:21:50.063Z</time></trkpt><trkpt lat="37.1787633" lon="-3.9079817"><ele>583.0</ele><time>2026-04-25T10:21:51.063Z</time></trkpt><trkpt lat="37.1787833" lon="-3.9083583"><ele>583.0</ele><time>2026-04-25T10:21:52.061Z</time></trkpt><trkpt lat="37.1788067" lon="-3.908735"><ele>583.0</ele><time>2026-04-25T10:21:53.067Z</time></trkpt><trkpt lat="37.1788333" lon="-3.9091133"><ele>583.0</ele><time>2026-04-25T10:21:54.062Z</time></trkpt><trkpt lat="37.1788633" lon="-3.9094933"><ele>583.0</ele><time>2026-04-25T10:21:55.06Z</time></trkpt><trkpt lat="37.1789" lon="-3.9098733"><ele>582.5</ele><time>2026-04-25T10:21:56.059Z</time></trkpt><trkpt lat="37.17894" lon="-3.910255"><ele>582.0</ele><time>2026-04-25T10:21:57.06Z</time></trkpt><trkpt lat="37.1789833" lon="-3.9106383"><ele>579.0</ele><time>2026-04-25T10:21:58.061Z</time></trkpt><trkpt lat="37.17903" lon="-3.91102"><ele>576.0</ele><time>2026-04-25T10:21:59.065Z</time></trkpt><trkpt lat="37.1790783" lon="-3.9113983"><ele>576.0</ele><time>2026-04-25T10:22:00.063Z</time></trkpt><trkpt lat="37.1791283" lon="-3.9117767"><ele>576.0</ele><time>2026-04-25T10:22:01.061Z</time></trkpt><trkpt lat="37.1791817" lon="-3.9121517"><ele>576.0</ele><time>2026-04-25T10:22:02.065Z</time></trkpt><trkpt lat="37.1792383" lon="-3.912525"><ele>576.0</ele><time>2026-04-25T10:22:03.059Z</time></trkpt><trkpt lat="37.179295" lon="-3.9128967"><ele>578.0</ele><time>2026-04-25T10:22:04.063Z</time></trkpt><trkpt lat="37.1793533" lon="-3.9132667"><ele>580.0</ele><time>2026-04-25T10:22:05.063Z</time></trkpt><trkpt lat="37.17941" lon="-3.9136383"><ele>580.0</ele><time>2026-04-25T10:22:06.061Z</time></trkpt><trkpt lat="37.1794667" lon="-3.914005"><ele>580.0</ele><time>2026-04-25T10:22:07.062Z</time></trkpt><trkpt lat="37.1795233" lon="-3.9143683"><ele>580.0</ele><time>2026-04-25T10:22:08.061Z</time></trkpt><trkpt lat="37.1795767" lon="-3.9147333"><ele>580.0</ele><time>2026-04-25T10:22:09.06Z</time></trkpt><trkpt lat="37.1796283" lon="-3.915095"><ele>579.0</ele><time>2026-04-25T10:22:10.059Z</time></trkpt><trkpt lat="37.17968" lon="-3.915455"><ele>578.0</ele><time>2026-04-25T10:22:11.062Z</time></trkpt><trkpt lat="37.17973" lon="-3.915815"><ele>577.5</ele><time>2026-04-25T10:22:12.068Z</time></trkpt><trkpt lat="37.1797833" lon="-3.9161733"><ele>577.0</ele><time>2026-04-25T10:22:13.064Z</time></trkpt><trkpt lat="37.1798383" lon="-3.9165267"><ele>575.5</ele><time>2026-04-25T10:22:14.063Z</time></trkpt><trkpt lat="37.179895" lon="-3.916875"><ele>574.0</ele><time>2026-04-25T10:22:15.06Z</time></trkpt><trkpt lat="37.17995" lon="-3.9172167"><ele>574.0</ele><time>2026-04-25T10:22:16.062Z</time></trkpt><trkpt lat="37.1800033" lon="-3.9175583"><ele>574.0</ele><time>2026-04-25T10:22:17.063Z</time></trkpt><trkpt lat="37.1800567" lon="-3.9178983"><ele>573.5</ele><time>2026-04-25T10:22:18.06Z</time></trkpt><trkpt lat="37.1801117" lon="-3.91824"><ele>573.0</ele><time>2026-04-25T10:22:19.064Z</time></trkpt><trkpt lat="37.1801633" lon="-3.9185783"><ele>573.0</ele><time>2026-04-25T10:22:20.067Z</time></trkpt><trkpt lat="37.180215" lon="-3.9189217"><ele>573.0</ele><time>2026-04-25T10:22:21.062Z</time></trkpt><trkpt lat="37.1802683" lon="-3.9192683"><ele>575.0</ele><time>2026-04-25T10:22:22.067Z</time></trkpt><trkpt lat="37.1803217" lon="-3.9196167"><ele>577.0</ele><time>2026-04-25T10:22:23.062Z</time></trkpt><trkpt lat="37.180375" lon="-3.9199667"><ele>576.5</ele><time>2026-04-25T10:22:24.063Z</time></trkpt><trkpt lat="37.1804267" lon="-3.9203183"><ele>576.0</ele><time>2026-04-25T10:22:25.065Z</time></trkpt><trkpt lat="37.18048" lon="-3.9206717"><ele>577.0</ele><time>2026-04-25T10:22:26.065Z</time></trkpt><trkpt lat="37.1805333" lon="-3.9210283"><ele>578.0</ele><time>2026-04-25T10:22:27.066Z</time></trkpt><trkpt lat="37.1805867" lon="-3.921385"><ele>579.0</ele><time>2026-04-25T10:22:28.064Z</time></trkpt><trkpt lat="37.1806383" lon="-3.9217433"><ele>580.0</ele><time>2026-04-25T10:22:29.063Z</time></trkpt><trkpt lat="37.1806833" lon="-3.9221067"><ele>580.0</ele><time>2026-04-25T10:22:30.059Z</time></trkpt><trkpt lat="37.180725" lon="-3.9224733"><ele>580.0</ele><time>2026-04-25T10:22:31.061Z</time></trkpt><trkpt lat="37.180765" lon="-3.92284"><ele>582.0</ele><time>2026-04-25T10:22:32.063Z</time></trkpt><trkpt lat="37.1807983" lon="-3.9232033"><ele>584.0</ele><time>2026-04-25T10:22:33.061Z</time></trkpt><trkpt lat="37.18083" lon="-3.923565"><ele>584.0</ele><time>2026-04-25T10:22:34.061Z</time></trkpt><trkpt lat="37.18086" lon="-3.923925"><ele>584.0</ele><time>2026-04-25T10:22:35.065Z</time></trkpt><trkpt lat="37.1808833" lon="-3.9242817"><ele>584.5</ele><time>2026-04-25T10:22:36.058Z</time></trkpt><trkpt lat="37.1809033" lon="-3.92464"><ele>585.0</ele><time>2026-04-25T10:22:37.062Z</time></trkpt><trkpt lat="37.1809183" lon="-3.9249983"><ele>585.5</ele><time>2026-04-25T10:22:38.064Z</time></trkpt><trkpt lat="37.1809317" lon="-3.925355"><ele>586.0</ele><time>2026-04-25T10:22:39.061Z</time></trkpt><trkpt lat="37.1809417" lon="-3.9257133"><ele>586.0</ele><time>2026-04-25T10:22:40.066Z</time></trkpt><trkpt lat="37.1809467" lon="-3.9260717"><ele>586.0</ele><time>2026-04-25T10:22:41.064Z</time></trkpt><trkpt lat="37.18095" lon="-3.9264333"><ele>587.0</ele><time>2026-04-25T10:22:42.061Z</time></trkpt><trkpt lat="37.1809533" lon="-3.9267983"><ele>588.0</ele><time>2026-04-25T10:22:43.061Z</time></trkpt><trkpt lat="37.18095" lon="-3.9271583"><ele>588.0</ele><time>2026-04-25T10:22:44.06Z</time></trkpt><trkpt lat="37.1809433" lon="-3.9275183"><ele>588.0</ele><time>2026-04-25T10:22:45.066Z</time></trkpt><trkpt lat="37.1809333" lon="-3.9278767"><ele>589.5</ele><time>2026-04-25T10:22:46.06Z</time></trkpt><trkpt lat="37.1809233" lon="-3.9282383"><ele>591.0</ele><time>2026-04-25T10:22:47.065Z</time></trkpt><trkpt lat="37.180915" lon="-3.9286017"><ele>591.5</ele><time>2026-04-25T10:22:48.064Z</time></trkpt><trkpt lat="37.1809067" lon="-3.9289633"><ele>592.0</ele><time>2026-04-25T10:22:49.059Z</time></trkpt><trkpt lat="37.1809" lon="-3.9293233"><ele>592.5</ele><time>2026-04-25T10:22:50.065Z</time></trkpt><trkpt lat="37.18089" lon="-3.929685"><ele>593.0</ele><time>2026-04-25T10:22:51.065Z</time></trkpt><trkpt lat="37.18088" lon="-3.9300467"><ele>592.5</ele><time>2026-04-25T10:22:52.065Z</time></trkpt><trkpt lat="37.1808667" lon="-3.9304083"><ele>592.0</ele><time>2026-04-25T10:22:53.064Z</time></trkpt><trkpt lat="37.1808533" lon="-3.93077"><ele>592.5</ele><time>2026-04-25T10:22:54.062Z</time></trkpt><trkpt lat="37.1808367" lon="-3.931135"><ele>593.0</ele><time>2026-04-25T10:22:55.069Z</time></trkpt><trkpt lat="37.18082" lon="-3.9314983"><ele>593.0</ele><time>2026-04-25T10:22:56.062Z</time></trkpt><trkpt lat="37.180805" lon="-3.9318633"><ele>593.0</ele><time>2026-04-25T10:22:57.062Z</time></trkpt><trkpt lat="37.1807917" lon="-3.93223"><ele>592.0</ele><time>2026-04-25T10:22:58.062Z</time></trkpt><trkpt lat="37.1807783" lon="-3.9325983"><ele>591.0</ele><time>2026-04-25T10:22:59.062Z</time></trkpt><trkpt lat="37.1807667" lon="-3.9329683"><ele>591.0</ele><time>2026-04-25T10:23:00.06Z</time></trkpt><trkpt lat="37.1807583" lon="-3.93334"><ele>591.0</ele><time>2026-04-25T10:23:01.063Z</time></trkpt><trkpt lat="37.1807483" lon="-3.9337117"><ele>591.5</ele><time>2026-04-25T10:23:02.062Z</time></trkpt><trkpt lat="37.1807367" lon="-3.9340833"><ele>592.0</ele><time>2026-04-25T10:23:03.063Z</time></trkpt><trkpt lat="37.180715" lon="-3.934455"><ele>589.0</ele><time>2026-04-25T10:23:04.064Z</time></trkpt><trkpt lat="37.1806817" lon="-3.9348283"><ele>586.0</ele><time>2026-04-25T10:23:05.06Z</time></trkpt><trkpt lat="37.18064" lon="-3.9352017"><ele>583.5</ele><time>2026-04-25T10:23:06.068Z</time></trkpt><trkpt lat="37.18059" lon="-3.9355733"><ele>581.0</ele><time>2026-04-25T10:23:07.064Z</time></trkpt><trkpt lat="37.1805383" lon="-3.9359433"><ele>580.0</ele><time>2026-04-25T10:23:08.065Z</time></trkpt><trkpt lat="37.180485" lon="-3.936315"><ele>579.0</ele><time>2026-04-25T10:23:09.065Z</time></trkpt><trkpt lat="37.1804333" lon="-3.93669"><ele>578.0</ele><time>2026-04-25T10:23:10.066Z</time></trkpt><trkpt lat="37.1803817" lon="-3.9370633"><ele>577.0</ele><time>2026-04-25T10:23:11.066Z</time></trkpt><trkpt lat="37.1803317" lon="-3.9374333"><ele>577.0</ele><time>2026-04-25T10:23:12.062Z</time></trkpt><trkpt lat="37.1802817" lon="-3.9378"><ele>577.0</ele><time>2026-04-25T10:23:13.061Z</time></trkpt><trkpt lat="37.18023" lon="-3.938165"><ele>578.5</ele><time>2026-04-25T10:23:14.061Z</time></trkpt><trkpt lat="37.1801783" lon="-3.93853"><ele>580.0</ele><time>2026-04-25T10:23:15.065Z</time></trkpt><trkpt lat="37.1801283" lon="-3.938895"><ele>581.5</ele><time>2026-04-25T10:23:16.062Z</time></trkpt><trkpt lat="37.180075" lon="-3.9392567"><ele>583.0</ele><time>2026-04-25T10:23:17.06Z</time></trkpt><trkpt lat="37.1800233" lon="-3.9396167"><ele>583.0</ele><time>2026-04-25T10:23:18.064Z</time></trkpt><trkpt lat="37.1799733" lon="-3.9399767"><ele>583.0</ele><time>2026-04-25T10:23:19.062Z</time></trkpt><trkpt lat="37.1799217" lon="-3.940335"><ele>583.0</ele><time>2026-04-25T10:23:20.061Z</time></trkpt><trkpt lat="37.1798783" lon="-3.940695"><ele>583.0</ele><time>2026-04-25T10:23:21.07Z</time></trkpt><trkpt lat="37.1798467" lon="-3.94106"><ele>583.0</ele><time>2026-04-25T10:23:22.06Z</time></trkpt><trkpt lat="37.1798317" lon="-3.94143"><ele>583.0</ele><time>2026-04-25T10:23:23.067Z</time></trkpt><trkpt lat="37.1798333" lon="-3.9418"><ele>583.5</ele><time>2026-04-25T10:23:24.06Z</time></trkpt><trkpt lat="37.179855" lon="-3.9421717"><ele>584.0</ele><time>2026-04-25T10:23:25.059Z</time></trkpt><trkpt lat="37.1798917" lon="-3.9425417"><ele>583.5</ele><time>2026-04-25T10:23:26.064Z</time></trkpt><trkpt lat="37.179945" lon="-3.9429117"><ele>583.0</ele><time>2026-04-25T10:23:27.063Z</time></trkpt><trkpt lat="37.1800117" lon="-3.943275"><ele>581.0</ele><time>2026-04-25T10:23:28.063Z</time></trkpt><trkpt lat="37.1800983" lon="-3.943635"><ele>579.0</ele><time>2026-04-25T10:23:29.063Z</time></trkpt><trkpt lat="37.1802033" lon="-3.9439883"><ele>577.5</ele><time>2026-04-25T10:23:30.063Z</time></trkpt><trkpt lat="37.1803167" lon="-3.944335"><ele>576.0</ele><time>2026-04-25T10:23:31.065Z</time></trkpt><trkpt lat="37.1804367" lon="-3.9446817"><ele>576.0</ele><time>2026-04-25T10:23:32.06Z</time></trkpt><trkpt lat="37.1805583" lon="-3.9450333"><ele>576.0</ele><time>2026-04-25T10:23:33.066Z</time></trkpt><trkpt lat="37.1806783" lon="-3.945385"><ele>576.5</ele><time>2026-04-25T10:23:34.059Z</time></trkpt><trkpt lat="37.1807983" lon="-3.9457367"><ele>577.0</ele><time>2026-04-25T10:23:35.069Z</time></trkpt><trkpt lat="37.1809183" lon="-3.94609"><ele>576.0</ele><time>2026-04-25T10:23:36.065Z</time></trkpt><trkpt lat="37.1810383" lon="-3.9464433"><ele>575.0</ele><time>2026-04-25T10:23:37.063Z</time></trkpt><trkpt lat="37.181155" lon="-3.9467967"><ele>575.0</ele><time>2026-04-25T10:23:38.063Z</time></trkpt><trkpt lat="37.1812717" lon="-3.9471483"><ele>575.0</ele><time>2026-04-25T10:23:39.063Z</time></trkpt><trkpt lat="37.1813883" lon="-3.9475033"><ele>574.5</ele><time>2026-04-25T10:23:40.06Z</time></trkpt><trkpt lat="37.181505" lon="-3.947855"><ele>574.0</ele><time>2026-04-25T10:23:41.063Z</time></trkpt><trkpt lat="37.18162" lon="-3.94821"><ele>574.5</ele><time>2026-04-25T10:23:42.06Z</time></trkpt><trkpt lat="37.1817383" lon="-3.948565"><ele>575.0</ele><time>2026-04-25T10:23:43.067Z</time></trkpt><trkpt lat="37.1818533" lon="-3.9489183"><ele>574.5</ele><time>2026-04-25T10:23:44.063Z</time></trkpt><trkpt lat="37.18197" lon="-3.949275"><ele>574.0</ele><time>2026-04-25T10:23:45.062Z</time></trkpt><trkpt lat="37.18209" lon="-3.9496367"><ele>574.0</ele><time>2026-04-25T10:23:46.061Z</time></trkpt><trkpt lat="37.1822067" lon="-3.95"><ele>574.0</ele><time>2026-04-25T10:23:47.061Z</time></trkpt><trkpt lat="37.1823233" lon="-3.950365"><ele>572.5</ele><time>2026-04-25T10:23:48.064Z</time></trkpt><trkpt lat="37.1824417" lon="-3.9507317"><ele>571.0</ele><time>2026-04-25T10:23:49.057Z</time></trkpt><trkpt lat="37.18256" lon="-3.9511"><ele>571.0</ele><time>2026-04-25T10:23:50.061Z</time></trkpt><trkpt lat="37.1826783" lon="-3.9514683"><ele>571.0</ele><time>2026-04-25T10:23:51.064Z</time></trkpt><trkpt lat="37.1827933" lon="-3.9518383"><ele>571.0</ele><time>2026-04-25T10:23:52.061Z</time></trkpt><trkpt lat="37.18291" lon="-3.9522017"><ele>571.0</ele><time>2026-04-25T10:23:53.063Z</time></trkpt><trkpt lat="37.1830283" lon="-3.95256"><ele>571.0</ele><time>2026-04-25T10:23:54.064Z</time></trkpt><trkpt lat="37.183145" lon="-3.9529217"><ele>571.0</ele><time>2026-04-25T10:23:55.063Z</time></trkpt><trkpt lat="37.183265" lon="-3.9532783"><ele>570.0</ele><time>2026-04-25T10:23:56.062Z</time></trkpt><trkpt lat="37.1833817" lon="-3.95364"><ele>569.0</ele><time>2026-04-25T10:23:57.062Z</time></trkpt><trkpt lat="37.1834967" lon="-3.9539983"><ele>570.5</ele><time>2026-04-25T10:23:58.061Z</time></trkpt><trkpt lat="37.1836133" lon="-3.954355"><ele>572.0</ele><time>2026-04-25T10:23:59.06Z</time></trkpt><trkpt lat="37.1837333" lon="-3.9547133"><ele>571.5</ele><time>2026-04-25T10:24:00.062Z</time></trkpt><trkpt lat="37.18385" lon="-3.9550683"><ele>571.0</ele><time>2026-04-25T10:24:01.062Z</time></trkpt><trkpt lat="37.1839667" lon="-3.9554267"><ele>569.0</ele><time>2026-04-25T10:24:02.065Z</time></trkpt><trkpt lat="37.1840833" lon="-3.9557833"><ele>567.0</ele><time>2026-04-25T10:24:03.061Z</time></trkpt><trkpt lat="37.1841983" lon="-3.95614"><ele>567.0</ele><time>2026-04-25T10:24:04.062Z</time></trkpt><trkpt lat="37.184315" lon="-3.9564967"><ele>567.0</ele><time>2026-04-25T10:24:05.064Z</time></trkpt><trkpt lat="37.1844367" lon="-3.95685"><ele>567.5</ele><time>2026-04-25T10:24:06.061Z</time></trkpt><trkpt lat="37.1845683" lon="-3.9571967"><ele>568.0</ele><time>2026-04-25T10:24:07.061Z</time></trkpt><trkpt lat="37.1847083" lon="-3.9575333"><ele>566.5</ele><time>2026-04-25T10:24:08.07Z</time></trkpt><trkpt lat="37.18486" lon="-3.9578667"><ele>565.0</ele><time>2026-04-25T10:24:09.063Z</time></trkpt><trkpt lat="37.1850183" lon="-3.9582"><ele>564.5</ele><time>2026-04-25T10:24:10.061Z</time></trkpt><trkpt lat="37.1851783" lon="-3.9585317"><ele>564.0</ele><time>2026-04-25T10:24:11.064Z</time></trkpt><trkpt lat="37.1853383" lon="-3.9588617"><ele>564.0</ele><time>2026-04-25T10:24:12.058Z</time></trkpt><trkpt lat="37.1855" lon="-3.9591933"><ele>564.0</ele><time>2026-04-25T10:24:13.059Z</time></trkpt><trkpt lat="37.18566" lon="-3.9595283"><ele>563.5</ele><time>2026-04-25T10:24:14.061Z</time></trkpt><trkpt lat="37.1858133" lon="-3.9598617"><ele>563.0</ele><time>2026-04-25T10:24:15.061Z</time></trkpt><trkpt lat="37.18597" lon="-3.9601983"><ele>563.0</ele><time>2026-04-25T10:24:16.064Z</time></trkpt><trkpt lat="37.1861217" lon="-3.9605333"><ele>563.0</ele><time>2026-04-25T10:24:17.062Z</time></trkpt><trkpt lat="37.1862733" lon="-3.9608633"><ele>562.5</ele><time>2026-04-25T10:24:18.064Z</time></trkpt><trkpt lat="37.1864217" lon="-3.96119"><ele>562.0</ele><time>2026-04-25T10:24:19.063Z</time></trkpt><trkpt lat="37.18657" lon="-3.96151"><ele>562.0</ele><time>2026-04-25T10:24:20.061Z</time></trkpt><trkpt lat="37.186715" lon="-3.96183"><ele>562.0</ele><time>2026-04-25T10:24:21.063Z</time></trkpt><trkpt lat="37.1868517" lon="-3.9621517"><ele>562.0</ele><time>2026-04-25T10:24:22.062Z</time></trkpt><trkpt lat="37.1869767" lon="-3.9624833"><ele>562.0</ele><time>2026-04-25T10:24:23.065Z</time></trkpt><trkpt lat="37.1870933" lon="-3.9628183"><ele>561.0</ele><time>2026-04-25T10:24:24.061Z</time></trkpt><trkpt lat="37.1871983" lon="-3.9631617"><ele>560.0</ele><time>2026-04-25T10:24:25.063Z</time></trkpt><trkpt lat="37.1872933" lon="-3.9635067"><ele>558.0</ele><time>2026-04-25T10:24:26.058Z</time></trkpt><trkpt lat="37.1873867" lon="-3.963855"><ele>556.0</ele><time>2026-04-25T10:24:27.06Z</time></trkpt><trkpt lat="37.187475" lon="-3.9642017"><ele>555.0</ele><time>2026-04-25T10:24:28.062Z</time></trkpt><trkpt lat="37.1875583" lon="-3.964555"><ele>554.0</ele><time>2026-04-25T10:24:29.061Z</time></trkpt><trkpt lat="37.18764" lon="-3.96491"><ele>553.5</ele><time>2026-04-25T10:24:30.064Z</time></trkpt><trkpt lat="37.18772" lon="-3.9652683"><ele>553.0</ele><time>2026-04-25T10:24:31.067Z</time></trkpt><trkpt lat="37.1878017" lon="-3.9656217"><ele>552.0</ele><time>2026-04-25T10:24:32.063Z</time></trkpt><trkpt lat="37.1878917" lon="-3.9659783"><ele>551.0</ele><time>2026-04-25T10:24:33.064Z</time></trkpt><trkpt lat="37.18799" lon="-3.966335"><ele>551.0</ele><time>2026-04-25T10:24:34.061Z</time></trkpt><trkpt lat="37.1880983" lon="-3.9666883"><ele>551.0</ele><time>2026-04-25T10:24:35.063Z</time></trkpt><trkpt lat="37.188215" lon="-3.9670367"><ele>550.0</ele><time>2026-04-25T10:24:36.061Z</time></trkpt><trkpt lat="37.1883417" lon="-3.9673833"><ele>549.0</ele><time>2026-04-25T10:24:37.064Z</time></trkpt><trkpt lat="37.18847" lon="-3.9677267"><ele>548.5</ele><time>2026-04-25T10:24:38.059Z</time></trkpt><trkpt lat="37.1886" lon="-3.9680683"><ele>548.0</ele><time>2026-04-25T10:24:39.062Z</time></trkpt><trkpt lat="37.18873" lon="-3.9684133"><ele>548.0</ele><time>2026-04-25T10:24:40.064Z</time></trkpt><trkpt lat="37.1888583" lon="-3.9687583"><ele>548.0</ele><time>2026-04-25T10:24:41.064Z</time></trkpt><trkpt lat="37.1889867" lon="-3.969105"><ele>547.5</ele><time>2026-04-25T10:24:42.062Z</time></trkpt><trkpt lat="37.1891167" lon="-3.9694517"><ele>547.0</ele><time>2026-04-25T10:24:43.062Z</time></trkpt><trkpt lat="37.189245" lon="-3.9697967"><ele>548.0</ele><time>2026-04-25T10:24:44.06Z</time></trkpt><trkpt lat="37.1893717" lon="-3.9701383"><ele>549.0</ele><time>2026-04-25T10:24:45.061Z</time></trkpt><trkpt lat="37.1895" lon="-3.9704733"><ele>549.0</ele><time>2026-04-25T10:24:46.063Z</time></trkpt><trkpt lat="37.1896267" lon="-3.97081"><ele>549.0</ele><time>2026-04-25T10:24:47.062Z</time></trkpt><trkpt lat="37.1897533" lon="-3.9711433"><ele>549.5</ele><time>2026-04-25T10:24:48.063Z</time></trkpt><trkpt lat="37.18988" lon="-3.97148"><ele>550.0</ele><time>2026-04-25T10:24:49.063Z</time></trkpt><trkpt lat="37.1900067" lon="-3.9718133"><ele>552.0</ele><time>2026-04-25T10:24:50.065Z</time></trkpt><trkpt lat="37.1901317" lon="-3.9721483"><ele>554.0</ele><time>2026-04-25T10:24:51.063Z</time></trkpt><trkpt lat="37.1902583" lon="-3.972485"><ele>555.0</ele><time>2026-04-25T10:24:52.065Z</time></trkpt><trkpt lat="37.1903833" lon="-3.9728267"><ele>556.0</ele><time>2026-04-25T10:24:53.065Z</time></trkpt><trkpt lat="37.1905117" lon="-3.97317"><ele>556.0</ele><time>2026-04-25T10:24:54.065Z</time></trkpt><trkpt lat="37.19064" lon="-3.973515"><ele>556.0</ele><time>2026-04-25T10:24:55.063Z</time></trkpt><trkpt lat="37.1907717" lon="-3.9738633"><ele>555.0</ele><time>2026-04-25T10:24:56.061Z</time></trkpt><trkpt lat="37.190905" lon="-3.974215"><ele>554.0</ele><time>2026-04-25T10:24:57.059Z</time></trkpt><trkpt lat="37.1910367" lon="-3.974565"><ele>554.0</ele><time>2026-04-25T10:24:58.059Z</time></trkpt><trkpt lat="37.1911683" lon="-3.9749167"><ele>554.0</ele><time>2026-04-25T10:24:59.063Z</time></trkpt><trkpt lat="37.1912983" lon="-3.97527"><ele>554.0</ele><time>2026-04-25T10:25:00.064Z</time></trkpt><trkpt lat="37.19143" lon="-3.9756217"><ele>554.0</ele><time>2026-04-25T10:25:01.06Z</time></trkpt><trkpt lat="37.19156" lon="-3.9759783"><ele>553.5</ele><time>2026-04-25T10:25:02.057Z</time></trkpt><trkpt lat="37.1916933" lon="-3.976335"><ele>553.0</ele><time>2026-04-25T10:25:03.065Z</time></trkpt><trkpt lat="37.1918267" lon="-3.97669"><ele>553.0</ele><time>2026-04-25T10:25:04.061Z</time></trkpt><trkpt lat="37.1919567" lon="-3.9770467"><ele>553.0</ele><time>2026-04-25T10:25:05.064Z</time></trkpt><trkpt lat="37.1920833" lon="-3.9774017"><ele>554.0</ele><time>2026-04-25T10:25:06.064Z</time></trkpt><trkpt lat="37.1922067" lon="-3.9777617"><ele>555.0</ele><time>2026-04-25T10:25:07.065Z</time></trkpt><trkpt lat="37.192315" lon="-3.9781233"><ele>555.5</ele><time>2026-04-25T10:25:08.066Z</time></trkpt><trkpt lat="37.1924017" lon="-3.9784933"><ele>556.0</ele><time>2026-04-25T10:25:09.063Z</time></trkpt><trkpt lat="37.1924717" lon="-3.97887"><ele>555.5</ele><time>2026-04-25T10:25:10.06Z</time></trkpt><trkpt lat="37.1925333" lon="-3.9792483"><ele>555.0</ele><time>2026-04-25T10:25:11.062Z</time></trkpt><trkpt lat="37.1925917" lon="-3.9796333"><ele>554.5</ele><time>2026-04-25T10:25:12.064Z</time></trkpt><trkpt lat="37.19265" lon="-3.9800233"><ele>554.0</ele><time>2026-04-25T10:25:13.066Z</time></trkpt><trkpt lat="37.19271" lon="-3.9804133"><ele>554.0</ele><time>2026-04-25T10:25:14.068Z</time></trkpt><trkpt lat="37.1927683" lon="-3.980805"><ele>554.0</ele><time>2026-04-25T10:25:15.059Z</time></trkpt><trkpt lat="37.1928283" lon="-3.9812"><ele>552.5</ele><time>2026-04-25T10:25:16.061Z</time></trkpt><trkpt lat="37.1928883" lon="-3.9815983"><ele>551.0</ele><time>2026-04-25T10:25:17.061Z</time></trkpt><trkpt lat="37.19295" lon="-3.9819967"><ele>550.5</ele><time>2026-04-25T10:25:18.066Z</time></trkpt><trkpt lat="37.1930117" lon="-3.9824"><ele>550.0</ele><time>2026-04-25T10:25:19.066Z</time></trkpt><trkpt lat="37.193075" lon="-3.9828067"><ele>550.0</ele><time>2026-04-25T10:25:20.062Z</time></trkpt><trkpt lat="37.19314" lon="-3.9832133"><ele>550.0</ele><time>2026-04-25T10:25:21.06Z</time></trkpt><trkpt lat="37.1932033" lon="-3.98362"><ele>549.0</ele><time>2026-04-25T10:25:22.061Z</time></trkpt><trkpt lat="37.193265" lon="-3.9840267"><ele>548.0</ele><time>2026-04-25T10:25:23.061Z</time></trkpt><trkpt lat="37.1933283" lon="-3.98443"><ele>547.5</ele><time>2026-04-25T10:25:24.061Z</time></trkpt><trkpt lat="37.19339" lon="-3.9848333"><ele>547.0</ele><time>2026-04-25T10:25:25.059Z</time></trkpt><trkpt lat="37.1934533" lon="-3.985235"><ele>546.5</ele><time>2026-04-25T10:25:26.063Z</time></trkpt><trkpt lat="37.1935167" lon="-3.9856367"><ele>546.0</ele><time>2026-04-25T10:25:27.063Z</time></trkpt><trkpt lat="37.1935783" lon="-3.9860417"><ele>546.0</ele><time>2026-04-25T10:25:28.059Z</time></trkpt><trkpt lat="37.1936383" lon="-3.9864433"><ele>546.0</ele><time>2026-04-25T10:25:29.059Z</time></trkpt><trkpt lat="37.1936983" lon="-3.9868417"><ele>546.0</ele><time>2026-04-25T10:25:30.065Z</time></trkpt><trkpt lat="37.193755" lon="-3.9872383"><ele>546.0</ele><time>2026-04-25T10:25:31.067Z</time></trkpt><trkpt lat="37.1938083" lon="-3.9876367"><ele>545.5</ele><time>2026-04-25T10:25:32.065Z</time></trkpt><trkpt lat="37.1938567" lon="-3.98803"><ele>545.0</ele><time>2026-04-25T10:25:33.063Z</time></trkpt><trkpt lat="37.193895" lon="-3.9884167"><ele>544.5</ele><time>2026-04-25T10:25:34.062Z</time></trkpt><trkpt lat="37.1939233" lon="-3.9888033"><ele>544.0</ele><time>2026-04-25T10:25:35.061Z</time></trkpt><trkpt lat="37.1939417" lon="-3.9891867"><ele>543.5</ele><time>2026-04-25T10:25:36.062Z</time></trkpt><trkpt lat="37.1939517" lon="-3.9895733"><ele>543.0</ele><time>2026-04-25T10:25:37.059Z</time></trkpt><trkpt lat="37.1939517" lon="-3.98996"><ele>542.0</ele><time>2026-04-25T10:25:38.062Z</time></trkpt><trkpt lat="37.1939433" lon="-3.9903483"><ele>541.0</ele><time>2026-04-25T10:25:39.061Z</time></trkpt><trkpt lat="37.1939233" lon="-3.9907367"><ele>542.0</ele><time>2026-04-25T10:25:40.06Z</time></trkpt><trkpt lat="37.19389" lon="-3.991125"><ele>543.0</ele><time>2026-04-25T10:25:41.059Z</time></trkpt><trkpt lat="37.19385" lon="-3.9915117"><ele>543.5</ele><time>2026-04-25T10:25:42.062Z</time></trkpt><trkpt lat="37.1938" lon="-3.9918967"><ele>544.0</ele><time>2026-04-25T10:25:43.064Z</time></trkpt><trkpt lat="37.193745" lon="-3.99228"><ele>540.5</ele><time>2026-04-25T10:25:44.065Z</time></trkpt><trkpt lat="37.1936867" lon="-3.9926617"><ele>537.0</ele><time>2026-04-25T10:25:45.064Z</time></trkpt><trkpt lat="37.1936267" lon="-3.9930433"><ele>535.5</ele><time>2026-04-25T10:25:46.06Z</time></trkpt><trkpt lat="37.1935633" lon="-3.993425"><ele>534.0</ele><time>2026-04-25T10:25:47.062Z</time></trkpt><trkpt lat="37.1935" lon="-3.9938117"><ele>530.5</ele><time>2026-04-25T10:25:48.063Z</time></trkpt><trkpt lat="37.1934383" lon="-3.9941983"><ele>527.0</ele><time>2026-04-25T10:25:49.061Z</time></trkpt><trkpt lat="37.1933783" lon="-3.9945833"><ele>527.0</ele><time>2026-04-25T10:25:50.063Z</time></trkpt><trkpt lat="37.1933183" lon="-3.99497"><ele>527.0</ele><time>2026-04-25T10:25:51.057Z</time></trkpt><trkpt lat="37.193255" lon="-3.995355"><ele>526.0</ele><time>2026-04-25T10:25:52.061Z</time></trkpt><trkpt lat="37.1931867" lon="-3.99574"><ele>525.0</ele><time>2026-04-25T10:25:53.062Z</time></trkpt><trkpt lat="37.1931167" lon="-3.9961267"><ele>520.5</ele><time>2026-04-25T10:25:54.059Z</time></trkpt><trkpt lat="37.1930517" lon="-3.9965117"><ele>516.0</ele><time>2026-04-25T10:25:55.061Z</time></trkpt><trkpt lat="37.1929933" lon="-3.9969017"><ele>512.0</ele><time>2026-04-25T10:25:56.06Z</time></trkpt><trkpt lat="37.19295" lon="-3.9972933"><ele>508.0</ele><time>2026-04-25T10:25:57.065Z</time></trkpt><trkpt lat="37.1929217" lon="-3.9976867"><ele>506.5</ele><time>2026-04-25T10:25:58.062Z</time></trkpt><trkpt lat="37.19291" lon="-3.9980817"><ele>505.0</ele><time>2026-04-25T10:25:59.063Z</time></trkpt><trkpt lat="37.192915" lon="-3.9984767"><ele>502.5</ele><time>2026-04-25T10:26:00.061Z</time></trkpt><trkpt lat="37.1929317" lon="-3.99887"><ele>500.0</ele><time>2026-04-25T10:26:01.061Z</time></trkpt><trkpt lat="37.192955" lon="-3.999265"><ele>499.0</ele><time>2026-04-25T10:26:02.062Z</time></trkpt><trkpt lat="37.192975" lon="-3.9996567"><ele>498.0</ele><time>2026-04-25T10:26:03.059Z</time></trkpt><trkpt lat="37.1929933" lon="-4.0000467"><ele>498.0</ele><time>2026-04-25T10:26:04.065Z</time></trkpt><trkpt lat="37.1930067" lon="-4.0004383"><ele>498.0</ele><time>2026-04-25T10:26:05.062Z</time></trkpt><trkpt lat="37.19302" lon="-4.00083"><ele>497.5</ele><time>2026-04-25T10:26:06.066Z</time></trkpt><trkpt lat="37.1930333" lon="-4.0012167"><ele>497.0</ele><time>2026-04-25T10:26:07.06Z</time></trkpt><trkpt lat="37.1930483" lon="-4.0016067"><ele>494.5</ele><time>2026-04-25T10:26:08.064Z</time></trkpt><trkpt lat="37.193065" lon="-4.0019933"><ele>492.0</ele><time>2026-04-25T10:26:09.062Z</time></trkpt><trkpt lat="37.1930833" lon="-4.00238"><ele>491.5</ele><time>2026-04-25T10:26:10.062Z</time></trkpt><trkpt lat="37.193105" lon="-4.0027633"><ele>491.0</ele><time>2026-04-25T10:26:11.06Z</time></trkpt><trkpt lat="37.1931317" lon="-4.0031433"><ele>491.5</ele><time>2026-04-25T10:26:12.064Z</time></trkpt><trkpt lat="37.1931667" lon="-4.0035217"><ele>492.0</ele><time>2026-04-25T10:26:13.063Z</time></trkpt><trkpt lat="37.193215" lon="-4.0039"><ele>492.5</ele><time>2026-04-25T10:26:14.063Z</time></trkpt><trkpt lat="37.19328" lon="-4.004275"><ele>493.0</ele><time>2026-04-25T10:26:15.062Z</time></trkpt><trkpt lat="37.193365" lon="-4.004645"><ele>493.0</ele><time>2026-04-25T10:26:16.06Z</time></trkpt><trkpt lat="37.1934667" lon="-4.00501"><ele>493.0</ele><time>2026-04-25T10:26:17.068Z</time></trkpt><trkpt lat="37.1935833" lon="-4.005365"><ele>493.0</ele><time>2026-04-25T10:26:18.067Z</time></trkpt><trkpt lat="37.1937117" lon="-4.0057167"><ele>493.0</ele><time>2026-04-25T10:26:19.061Z</time></trkpt><trkpt lat="37.1938517" lon="-4.00606"><ele>493.0</ele><time>2026-04-25T10:26:20.063Z</time></trkpt><trkpt lat="37.194" lon="-4.0064017"><ele>493.0</ele><time>2026-04-25T10:26:21.059Z</time></trkpt><trkpt lat="37.1941517" lon="-4.00674"><ele>494.5</ele><time>2026-04-25T10:26:22.061Z</time></trkpt><trkpt lat="37.194305" lon="-4.0070783"><ele>496.0</ele><time>2026-04-25T10:26:23.06Z</time></trkpt><trkpt lat="37.1944567" lon="-4.0074183"><ele>497.0</ele><time>2026-04-25T10:26:24.062Z</time></trkpt><trkpt lat="37.1946117" lon="-4.00776"><ele>498.0</ele><time>2026-04-25T10:26:25.061Z</time></trkpt><trkpt lat="37.1947683" lon="-4.0081"><ele>496.5</ele><time>2026-04-25T10:26:26.064Z</time></trkpt><trkpt lat="37.1949183" lon="-4.0084467"><ele>495.0</ele><time>2026-04-25T10:26:27.066Z</time></trkpt><trkpt lat="37.1950583" lon="-4.008795"><ele>495.0</ele><time>2026-04-25T10:26:28.059Z</time></trkpt><trkpt lat="37.195185" lon="-4.0091533"><ele>495.0</ele><time>2026-04-25T10:26:29.067Z</time></trkpt><trkpt lat="37.1952933" lon="-4.00952"><ele>499.5</ele><time>2026-04-25T10:26:30.067Z</time></trkpt><trkpt lat="37.195385" lon="-4.00989"><ele>504.0</ele><time>2026-04-25T10:26:31.059Z</time></trkpt><trkpt lat="37.1954583" lon="-4.0102667"><ele>508.5</ele><time>2026-04-25T10:26:32.063Z</time></trkpt><trkpt lat="37.195515" lon="-4.010645"><ele>513.0</ele><time>2026-04-25T10:26:33.061Z</time></trkpt><trkpt lat="37.195555" lon="-4.0110267"><ele>516.5</ele><time>2026-04-25T10:26:34.058Z</time></trkpt><trkpt lat="37.1955767" lon="-4.0114117"><ele>520.0</ele><time>2026-04-25T10:26:35.064Z</time></trkpt><trkpt lat="37.1955833" lon="-4.0118"><ele>519.0</ele><time>2026-04-25T10:26:36.06Z</time></trkpt><trkpt lat="37.1955767" lon="-4.0121883"><ele>518.0</ele><time>2026-04-25T10:26:37.059Z</time></trkpt><trkpt lat="37.1955617" lon="-4.01258"><ele>518.0</ele><time>2026-04-25T10:26:38.064Z</time></trkpt><trkpt lat="37.1955433" lon="-4.0129683"><ele>518.0</ele><time>2026-04-25T10:26:39.063Z</time></trkpt><trkpt lat="37.195525" lon="-4.0133567"><ele>520.0</ele><time>2026-04-25T10:26:40.059Z</time></trkpt><trkpt lat="37.1955067" lon="-4.0137483"><ele>522.0</ele><time>2026-04-25T10:26:41.064Z</time></trkpt><trkpt lat="37.1954867" lon="-4.0141383"><ele>525.5</ele><time>2026-04-25T10:26:42.061Z</time></trkpt><trkpt lat="37.1954683" lon="-4.0145283"><ele>529.0</ele><time>2026-04-25T10:26:43.066Z</time></trkpt><trkpt lat="37.19545" lon="-4.01492"><ele>529.0</ele><time>2026-04-25T10:26:44.061Z</time></trkpt><trkpt lat="37.19543" lon="-4.0153133"><ele>529.0</ele><time>2026-04-25T10:26:45.068Z</time></trkpt><trkpt lat="37.1954083" lon="-4.0157067"><ele>528.5</ele><time>2026-04-25T10:26:46.063Z</time></trkpt><trkpt lat="37.195385" lon="-4.0161017"><ele>528.0</ele><time>2026-04-25T10:26:47.061Z</time></trkpt><trkpt lat="37.19536" lon="-4.016495"><ele>527.0</ele><time>2026-04-25T10:26:48.066Z</time></trkpt><trkpt lat="37.1953333" lon="-4.0168883"><ele>526.0</ele><time>2026-04-25T10:26:49.064Z</time></trkpt><trkpt lat="37.1953033" lon="-4.0172767"><ele>525.0</ele><time>2026-04-25T10:26:50.065Z</time></trkpt><trkpt lat="37.1952683" lon="-4.0176583"><ele>524.0</ele><time>2026-04-25T10:26:51.062Z</time></trkpt><trkpt lat="37.195225" lon="-4.0180367"><ele>524.0</ele><time>2026-04-25T10:26:52.063Z</time></trkpt><trkpt lat="37.1951767" lon="-4.01841"><ele>524.0</ele><time>2026-04-25T10:26:53.061Z</time></trkpt><trkpt lat="37.1951233" lon="-4.0187817"><ele>522.5</ele><time>2026-04-25T10:26:54.062Z</time></trkpt><trkpt lat="37.1950617" lon="-4.0191533"><ele>521.0</ele><time>2026-04-25T10:26:55.066Z</time></trkpt><trkpt lat="37.19499" lon="-4.0195217"><ele>521.0</ele><time>2026-04-25T10:26:56.067Z</time></trkpt><trkpt lat="37.19491" lon="-4.0198867"><ele>521.0</ele><time>2026-04-25T10:26:57.066Z</time></trkpt><trkpt lat="37.1948167" lon="-4.0202483"><ele>521.0</ele><time>2026-04-25T10:26:58.061Z</time></trkpt><trkpt lat="37.1947083" lon="-4.0206033"><ele>521.0</ele><time>2026-04-25T10:26:59.062Z</time></trkpt><trkpt lat="37.1945867" lon="-4.020955"><ele>521.0</ele><time>2026-04-25T10:27:00.063Z</time></trkpt><trkpt lat="37.1944533" lon="-4.0213"><ele>521.0</ele><time>2026-04-25T10:27:01.061Z</time></trkpt><trkpt lat="37.1943083" lon="-4.0216383"><ele>521.0</ele><time>2026-04-25T10:27:02.061Z</time></trkpt><trkpt lat="37.19415" lon="-4.0219717"><ele>521.0</ele><time>2026-04-25T10:27:03.062Z</time></trkpt><trkpt lat="37.1939817" lon="-4.0222933"><ele>520.0</ele><time>2026-04-25T10:27:04.06Z</time></trkpt><trkpt lat="37.1938017" lon="-4.0226083"><ele>519.0</ele><time>2026-04-25T10:27:05.063Z</time></trkpt><trkpt lat="37.1936117" lon="-4.0229167"><ele>519.0</ele><time>2026-04-25T10:27:06.064Z</time></trkpt><trkpt lat="37.1934117" lon="-4.0232183"><ele>519.0</ele><time>2026-04-25T10:27:07.062Z</time></trkpt><trkpt lat="37.1932033" lon="-4.0235133"><ele>515.0</ele><time>2026-04-25T10:27:08.061Z</time></trkpt><trkpt lat="37.1929867" lon="-4.0238033"><ele>511.0</ele><time>2026-04-25T10:27:09.062Z</time></trkpt><trkpt lat="37.1927617" lon="-4.0240883"><ele>511.5</ele><time>2026-04-25T10:27:10.062Z</time></trkpt><trkpt lat="37.1925317" lon="-4.0243683"><ele>512.0</ele><time>2026-04-25T10:27:11.062Z</time></trkpt><trkpt lat="37.1922983" lon="-4.0246467"><ele>507.5</ele><time>2026-04-25T10:27:12.067Z</time></trkpt><trkpt lat="37.192065" lon="-4.0249217"><ele>503.0</ele><time>2026-04-25T10:27:13.063Z</time></trkpt><trkpt lat="37.1918317" lon="-4.0251967"><ele>503.0</ele><time>2026-04-25T10:27:14.064Z</time></trkpt><trkpt lat="37.191595" lon="-4.0254733"><ele>503.0</ele><time>2026-04-25T10:27:15.059Z</time></trkpt><trkpt lat="37.1913567" lon="-4.02575"><ele>503.0</ele><time>2026-04-25T10:27:16.063Z</time></trkpt><trkpt lat="37.1911183" lon="-4.0260233"><ele>503.0</ele><time>2026-04-25T10:27:17.062Z</time></trkpt><trkpt lat="37.1908817" lon="-4.0262967"><ele>504.0</ele><time>2026-04-25T10:27:18.059Z</time></trkpt><trkpt lat="37.1906467" lon="-4.0265717"><ele>505.0</ele><time>2026-04-25T10:27:19.064Z</time></trkpt><trkpt lat="37.190415" lon="-4.0268517"><ele>502.5</ele><time>2026-04-25T10:27:20.057Z</time></trkpt><trkpt lat="37.1901883" lon="-4.0271383"><ele>500.0</ele><time>2026-04-25T10:27:21.061Z</time></trkpt><trkpt lat="37.1899583" lon="-4.0274217"><ele>500.0</ele><time>2026-04-25T10:27:22.059Z</time></trkpt><trkpt lat="37.1897283" lon="-4.0277017"><ele>500.0</ele><time>2026-04-25T10:27:23.07Z</time></trkpt><trkpt lat="37.189495" lon="-4.0279767"><ele>500.0</ele><time>2026-04-25T10:27:24.066Z</time></trkpt><trkpt lat="37.1892633" lon="-4.0282533"><ele>500.0</ele><time>2026-04-25T10:27:25.059Z</time></trkpt><trkpt lat="37.1890317" lon="-4.0285283"><ele>503.0</ele><time>2026-04-25T10:27:26.062Z</time></trkpt><trkpt lat="37.1887967" lon="-4.0288033"><ele>506.0</ele><time>2026-04-25T10:27:27.067Z</time></trkpt><trkpt lat="37.1885617" lon="-4.0290767"><ele>506.0</ele><time>2026-04-25T10:27:28.064Z</time></trkpt><trkpt lat="37.1883267" lon="-4.02935"><ele>506.0</ele><time>2026-04-25T10:27:29.062Z</time></trkpt><trkpt lat="37.18809" lon="-4.0296217"><ele>506.0</ele><time>2026-04-25T10:27:30.062Z</time></trkpt><trkpt lat="37.1878533" lon="-4.0298933"><ele>506.0</ele><time>2026-04-25T10:27:31.06Z</time></trkpt><trkpt lat="37.1876167" lon="-4.0301683"><ele>506.0</ele><time>2026-04-25T10:27:32.064Z</time></trkpt><trkpt lat="37.1873783" lon="-4.0304433"><ele>506.0</ele><time>2026-04-25T10:27:33.064Z</time></trkpt><trkpt lat="37.1871417" lon="-4.03072"><ele>504.0</ele><time>2026-04-25T10:27:34.061Z</time></trkpt><trkpt lat="37.1869033" lon="-4.031"><ele>502.0</ele><time>2026-04-25T10:27:35.065Z</time></trkpt><trkpt lat="37.186665" lon="-4.03128"><ele>503.0</ele><time>2026-04-25T10:27:36.062Z</time></trkpt><trkpt lat="37.1864267" lon="-4.03156"><ele>504.0</ele><time>2026-04-25T10:27:37.061Z</time></trkpt><trkpt lat="37.1861867" lon="-4.0318367"><ele>504.5</ele><time>2026-04-25T10:27:38.068Z</time></trkpt><trkpt lat="37.185945" lon="-4.03211"><ele>505.0</ele><time>2026-04-25T10:27:39.066Z</time></trkpt><trkpt lat="37.1857017" lon="-4.0323867"><ele>507.5</ele><time>2026-04-25T10:27:40.06Z</time></trkpt><trkpt lat="37.18546" lon="-4.0326667"><ele>510.0</ele><time>2026-04-25T10:27:41.059Z</time></trkpt><trkpt lat="37.1852167" lon="-4.0329433"><ele>510.0</ele><time>2026-04-25T10:27:42.067Z</time></trkpt><trkpt lat="37.1849733" lon="-4.0332283"><ele>510.0</ele><time>2026-04-25T10:27:43.062Z</time></trkpt><trkpt lat="37.1847317" lon="-4.033515"><ele>510.0</ele><time>2026-04-25T10:27:44.062Z</time></trkpt><trkpt lat="37.1844933" lon="-4.0338083"><ele>510.0</ele><time>2026-04-25T10:27:45.059Z</time></trkpt><trkpt lat="37.1842633" lon="-4.034105"><ele>507.0</ele><time>2026-04-25T10:27:46.061Z</time></trkpt><trkpt lat="37.1840433" lon="-4.03441"><ele>504.0</ele><time>2026-04-25T10:27:47.06Z</time></trkpt><trkpt lat="37.18384" lon="-4.0347233"><ele>502.5</ele><time>2026-04-25T10:27:48.061Z</time></trkpt><trkpt lat="37.1836517" lon="-4.0350433"><ele>501.0</ele><time>2026-04-25T10:27:49.063Z</time></trkpt><trkpt lat="37.1834783" lon="-4.0353667"><ele>501.0</ele><time>2026-04-25T10:27:50.063Z</time></trkpt><trkpt lat="37.1833183" lon="-4.035695"><ele>501.0</ele><time>2026-04-25T10:27:51.065Z</time></trkpt><trkpt lat="37.18317" lon="-4.0360267"><ele>502.0</ele><time>2026-04-25T10:27:52.06Z</time></trkpt><trkpt lat="37.1830333" lon="-4.0363583"><ele>503.0</ele><time>2026-04-25T10:27:53.063Z</time></trkpt><trkpt lat="37.18291" lon="-4.0366967"><ele>503.0</ele><time>2026-04-25T10:27:54.064Z</time></trkpt><trkpt lat="37.1828" lon="-4.0370417"><ele>503.0</ele><time>2026-04-25T10:27:55.07Z</time></trkpt><trkpt lat="37.1827017" lon="-4.03739"><ele>503.0</ele><time>2026-04-25T10:27:56.069Z</time></trkpt><trkpt lat="37.1826117" lon="-4.0377417"><ele>503.0</ele><time>2026-04-25T10:27:57.064Z</time></trkpt><trkpt lat="37.1825317" lon="-4.0380967"><ele>502.0</ele><time>2026-04-25T10:27:58.063Z</time></trkpt><trkpt lat="37.18246" lon="-4.038455"><ele>501.0</ele><time>2026-04-25T10:27:59.061Z</time></trkpt><trkpt lat="37.1824" lon="-4.0388167"><ele>500.5</ele><time>2026-04-25T10:28:00.062Z</time></trkpt><trkpt lat="37.1823483" lon="-4.03918"><ele>500.0</ele><time>2026-04-25T10:28:01.063Z</time></trkpt><trkpt lat="37.1823033" lon="-4.0395483"><ele>499.5</ele><time>2026-04-25T10:28:02.067Z</time></trkpt><trkpt lat="37.1822633" lon="-4.03992"><ele>499.0</ele><time>2026-04-25T10:28:03.061Z</time></trkpt><trkpt lat="37.1822267" lon="-4.0402933"><ele>499.0</ele><time>2026-04-25T10:28:04.063Z</time></trkpt><trkpt lat="37.1821917" lon="-4.0406683"><ele>499.0</ele><time>2026-04-25T10:28:05.067Z</time></trkpt><trkpt lat="37.1821567" lon="-4.041045"><ele>502.5</ele><time>2026-04-25T10:28:06.063Z</time></trkpt><trkpt lat="37.1821217" lon="-4.0414233"><ele>506.0</ele><time>2026-04-25T10:28:07.065Z</time></trkpt><trkpt lat="37.1820883" lon="-4.0418"><ele>507.5</ele><time>2026-04-25T10:28:08.059Z</time></trkpt><trkpt lat="37.1820533" lon="-4.0421767"><ele>509.0</ele><time>2026-04-25T10:28:09.06Z</time></trkpt><trkpt lat="37.18202" lon="-4.0425533"><ele>509.0</ele><time>2026-04-25T10:28:10.061Z</time></trkpt><trkpt lat="37.181985" lon="-4.04293"><ele>509.0</ele><time>2026-04-25T10:28:11.069Z</time></trkpt><trkpt lat="37.1819483" lon="-4.0433083"><ele>509.5</ele><time>2026-04-25T10:28:12.063Z</time></trkpt><trkpt lat="37.1819117" lon="-4.043685"><ele>510.0</ele><time>2026-04-25T10:28:13.06Z</time></trkpt><trkpt lat="37.181875" lon="-4.04406"><ele>507.0</ele><time>2026-04-25T10:28:14.062Z</time></trkpt><trkpt lat="37.1818367" lon="-4.044435"><ele>504.0</ele><time>2026-04-25T10:28:15.06Z</time></trkpt><trkpt lat="37.1818" lon="-4.0448117"><ele>502.0</ele><time>2026-04-25T10:28:16.059Z</time></trkpt><trkpt lat="37.1817633" lon="-4.0451883"><ele>500.0</ele><time>2026-04-25T10:28:17.063Z</time></trkpt><trkpt lat="37.1817267" lon="-4.0455683"><ele>497.0</ele><time>2026-04-25T10:28:18.064Z</time></trkpt><trkpt lat="37.1816917" lon="-4.04595"><ele>494.0</ele><time>2026-04-25T10:28:19.061Z</time></trkpt><trkpt lat="37.1816567" lon="-4.0463317"><ele>492.5</ele><time>2026-04-25T10:28:20.062Z</time></trkpt><trkpt lat="37.18162" lon="-4.0467133"><ele>491.0</ele><time>2026-04-25T10:28:21.065Z</time></trkpt><trkpt lat="37.181585" lon="-4.0470933"><ele>490.5</ele><time>2026-04-25T10:28:22.064Z</time></trkpt><trkpt lat="37.18155" lon="-4.047475"><ele>490.0</ele><time>2026-04-25T10:28:23.07Z</time></trkpt><trkpt lat="37.1815133" lon="-4.047855"><ele>497.0</ele><time>2026-04-25T10:28:24.064Z</time></trkpt><trkpt lat="37.1814767" lon="-4.0482367"><ele>504.0</ele><time>2026-04-25T10:28:25.061Z</time></trkpt><trkpt lat="37.1814417" lon="-4.0486167"><ele>504.0</ele><time>2026-04-25T10:28:26.062Z</time></trkpt><trkpt lat="37.1814067" lon="-4.0489967"><ele>504.0</ele><time>2026-04-25T10:28:27.063Z</time></trkpt><trkpt lat="37.1813717" lon="-4.04938"><ele>498.5</ele><time>2026-04-25T10:28:28.063Z</time></trkpt><trkpt lat="37.1813367" lon="-4.04976"><ele>493.0</ele><time>2026-04-25T10:28:29.058Z</time></trkpt><trkpt lat="37.1813" lon="-4.0501383"><ele>491.5</ele><time>2026-04-25T10:28:30.064Z</time></trkpt><trkpt lat="37.1812617" lon="-4.0505183"><ele>490.0</ele><time>2026-04-25T10:28:31.059Z</time></trkpt><trkpt lat="37.1812267" lon="-4.0508983"><ele>490.0</ele><time>2026-04-25T10:28:32.062Z</time></trkpt><trkpt lat="37.1811933" lon="-4.0512833"><ele>490.0</ele><time>2026-04-25T10:28:33.067Z</time></trkpt><trkpt lat="37.18116" lon="-4.05167"><ele>488.5</ele><time>2026-04-25T10:28:34.061Z</time></trkpt><trkpt lat="37.181125" lon="-4.052055"><ele>487.0</ele><time>2026-04-25T10:28:35.064Z</time></trkpt><trkpt lat="37.18109" lon="-4.05244"><ele>485.0</ele><time>2026-04-25T10:28:36.062Z</time></trkpt><trkpt lat="37.1810533" lon="-4.052825"><ele>483.0</ele><time>2026-04-25T10:28:37.061Z</time></trkpt><trkpt lat="37.1810167" lon="-4.05321"><ele>483.5</ele><time>2026-04-25T10:28:38.064Z</time></trkpt><trkpt lat="37.1809783" lon="-4.053595"><ele>484.0</ele><time>2026-04-25T10:28:39.06Z</time></trkpt><trkpt lat="37.18094" lon="-4.05398"><ele>483.0</ele><time>2026-04-25T10:28:40.062Z</time></trkpt><trkpt lat="37.1809017" lon="-4.054365"><ele>482.0</ele><time>2026-04-25T10:28:41.065Z</time></trkpt><trkpt lat="37.1808667" lon="-4.0547467"><ele>480.5</ele><time>2026-04-25T10:28:42.063Z</time></trkpt><trkpt lat="37.1808317" lon="-4.0551283"><ele>479.0</ele><time>2026-04-25T10:28:43.063Z</time></trkpt><trkpt lat="37.1807933" lon="-4.0555083"><ele>480.0</ele><time>2026-04-25T10:28:44.06Z</time></trkpt><trkpt lat="37.1807533" lon="-4.0558883"><ele>481.0</ele><time>2026-04-25T10:28:45.059Z</time></trkpt><trkpt lat="37.1807117" lon="-4.0562667"><ele>482.0</ele><time>2026-04-25T10:28:46.06Z</time></trkpt><trkpt lat="37.1806717" lon="-4.0566467"><ele>483.0</ele><time>2026-04-25T10:28:47.064Z</time></trkpt><trkpt lat="37.1806333" lon="-4.05703"><ele>483.0</ele><time>2026-04-25T10:28:48.059Z</time></trkpt><trkpt lat="37.1805983" lon="-4.0574117"><ele>483.0</ele><time>2026-04-25T10:28:49.06Z</time></trkpt><trkpt lat="37.1805667" lon="-4.0577967"><ele>483.5</ele><time>2026-04-25T10:28:50.064Z</time></trkpt><trkpt lat="37.1805367" lon="-4.0581817"><ele>484.0</ele><time>2026-04-25T10:28:51.06Z</time></trkpt><trkpt lat="37.1805133" lon="-4.0585667"><ele>483.0</ele><time>2026-04-25T10:28:52.064Z</time></trkpt><trkpt lat="37.1804967" lon="-4.0589533"><ele>482.0</ele><time>2026-04-25T10:28:53.062Z</time></trkpt><trkpt lat="37.1804867" lon="-4.05934"><ele>482.0</ele><time>2026-04-25T10:28:54.059Z</time></trkpt><trkpt lat="37.1804783" lon="-4.0597267"><ele>482.0</ele><time>2026-04-25T10:28:55.06Z</time></trkpt><trkpt lat="37.1804717" lon="-4.0601133"><ele>481.5</ele><time>2026-04-25T10:28:56.061Z</time></trkpt><trkpt lat="37.180465" lon="-4.0605"><ele>481.0</ele><time>2026-04-25T10:28:57.066Z</time></trkpt><trkpt lat="37.1804583" lon="-4.0608867"><ele>480.5</ele><time>2026-04-25T10:28:58.061Z</time></trkpt><trkpt lat="37.1804517" lon="-4.0612717"><ele>480.0</ele><time>2026-04-25T10:28:59.06Z</time></trkpt><trkpt lat="37.1804433" lon="-4.061655"><ele>479.5</ele><time>2026-04-25T10:29:00.059Z</time></trkpt><trkpt lat="37.1804383" lon="-4.0620367"><ele>479.0</ele><time>2026-04-25T10:29:01.059Z</time></trkpt><trkpt lat="37.1804317" lon="-4.0624183"><ele>478.5</ele><time>2026-04-25T10:29:02.064Z</time></trkpt><trkpt lat="37.180425" lon="-4.0627967"><ele>478.0</ele><time>2026-04-25T10:29:03.067Z</time></trkpt><trkpt lat="37.1804167" lon="-4.0631733"><ele>476.5</ele><time>2026-04-25T10:29:04.061Z</time></trkpt><trkpt lat="37.18041" lon="-4.063555"><ele>475.0</ele><time>2026-04-25T10:29:05.066Z</time></trkpt><trkpt lat="37.1804033" lon="-4.0639383"><ele>475.5</ele><time>2026-04-25T10:29:06.065Z</time></trkpt><trkpt lat="37.1803967" lon="-4.0643267"><ele>476.0</ele><time>2026-04-25T10:29:07.064Z</time></trkpt><trkpt lat="37.18039" lon="-4.0647133"><ele>477.0</ele><time>2026-04-25T10:29:08.061Z</time></trkpt><trkpt lat="37.1803817" lon="-4.0651033"><ele>478.0</ele><time>2026-04-25T10:29:09.061Z</time></trkpt><trkpt lat="37.18037" lon="-4.065495"><ele>478.0</ele><time>2026-04-25T10:29:10.065Z</time></trkpt><trkpt lat="37.18036" lon="-4.0658883"><ele>478.0</ele><time>2026-04-25T10:29:11.061Z</time></trkpt><trkpt lat="37.1803483" lon="-4.0662833"><ele>478.0</ele><time>2026-04-25T10:29:12.064Z</time></trkpt><trkpt lat="37.18034" lon="-4.0666767"><ele>478.0</ele><time>2026-04-25T10:29:13.06Z</time></trkpt><trkpt lat="37.18033" lon="-4.0670717"><ele>478.5</ele><time>2026-04-25T10:29:14.062Z</time></trkpt><trkpt lat="37.1803233" lon="-4.067465"><ele>479.0</ele><time>2026-04-25T10:29:15.064Z</time></trkpt><trkpt lat="37.1803167" lon="-4.0678583"><ele>479.0</ele><time>2026-04-25T10:29:16.066Z</time></trkpt><trkpt lat="37.18031" lon="-4.06825"><ele>479.0</ele><time>2026-04-25T10:29:17.064Z</time></trkpt><trkpt lat="37.180305" lon="-4.0686383"><ele>478.5</ele><time>2026-04-25T10:29:18.061Z</time></trkpt><trkpt lat="37.1803067" lon="-4.0690267"><ele>478.0</ele><time>2026-04-25T10:29:19.064Z</time></trkpt><trkpt lat="37.1803183" lon="-4.0694167"><ele>478.0</ele><time>2026-04-25T10:29:20.061Z</time></trkpt><trkpt lat="37.1803417" lon="-4.0698017"><ele>478.0</ele><time>2026-04-25T10:29:21.06Z</time></trkpt><trkpt lat="37.1803717" lon="-4.070185"><ele>478.5</ele><time>2026-04-25T10:29:22.068Z</time></trkpt><trkpt lat="37.1804083" lon="-4.070565"><ele>479.0</ele><time>2026-04-25T10:29:23.061Z</time></trkpt><trkpt lat="37.18045" lon="-4.0709467"><ele>479.5</ele><time>2026-04-25T10:29:24.065Z</time></trkpt><trkpt lat="37.1804967" lon="-4.0713283"><ele>480.0</ele><time>2026-04-25T10:29:25.063Z</time></trkpt><trkpt lat="37.180545" lon="-4.0717083"><ele>480.5</ele><time>2026-04-25T10:29:26.066Z</time></trkpt><trkpt lat="37.1806" lon="-4.07209"><ele>481.0</ele><time>2026-04-25T10:29:27.061Z</time></trkpt><trkpt lat="37.18066" lon="-4.07247"><ele>479.0</ele><time>2026-04-25T10:29:28.06Z</time></trkpt><trkpt lat="37.1807233" lon="-4.07285"><ele>477.0</ele><time>2026-04-25T10:29:29.062Z</time></trkpt><trkpt lat="37.1807883" lon="-4.0732283"><ele>478.5</ele><time>2026-04-25T10:29:30.065Z</time></trkpt><trkpt lat="37.1808517" lon="-4.0736083"><ele>480.0</ele><time>2026-04-25T10:29:31.067Z</time></trkpt><trkpt lat="37.180915" lon="-4.0739883"><ele>479.5</ele><time>2026-04-25T10:29:32.064Z</time></trkpt><trkpt lat="37.1809767" lon="-4.0743667"><ele>479.0</ele><time>2026-04-25T10:29:33.066Z</time></trkpt><trkpt lat="37.1810317" lon="-4.0747467"><ele>478.5</ele><time>2026-04-25T10:29:34.063Z</time></trkpt><trkpt lat="37.1810833" lon="-4.0751267"><ele>478.0</ele><time>2026-04-25T10:29:35.061Z</time></trkpt><trkpt lat="37.1811267" lon="-4.0755067"><ele>478.0</ele><time>2026-04-25T10:29:36.067Z</time></trkpt><trkpt lat="37.18115" lon="-4.0758883"><ele>478.0</ele><time>2026-04-25T10:29:37.066Z</time></trkpt><trkpt lat="37.1811467" lon="-4.0762717"><ele>478.5</ele><time>2026-04-25T10:29:38.064Z</time></trkpt><trkpt lat="37.1811167" lon="-4.07665"><ele>479.0</ele><time>2026-04-25T10:29:39.06Z</time></trkpt><trkpt lat="37.181065" lon="-4.07702"><ele>479.0</ele><time>2026-04-25T10:29:40.064Z</time></trkpt><trkpt lat="37.18099" lon="-4.07738"><ele>479.0</ele><time>2026-04-25T10:29:41.06Z</time></trkpt><trkpt lat="37.180895" lon="-4.0777317"><ele>480.5</ele><time>2026-04-25T10:29:42.059Z</time></trkpt><trkpt lat="37.18078" lon="-4.078075"><ele>482.0</ele><time>2026-04-25T10:29:43.064Z</time></trkpt><trkpt lat="37.18065" lon="-4.0784083"><ele>490.5</ele><time>2026-04-25T10:29:44.06Z</time></trkpt><trkpt lat="37.1805033" lon="-4.0787267"><ele>499.0</ele><time>2026-04-25T10:29:45.06Z</time></trkpt><trkpt lat="37.1803383" lon="-4.0790283"><ele>495.0</ele><time>2026-04-25T10:29:46.061Z</time></trkpt><trkpt lat="37.180155" lon="-4.079315"><ele>491.0</ele><time>2026-04-25T10:29:47.059Z</time></trkpt><trkpt lat="37.1799567" lon="-4.079585"><ele>491.0</ele><time>2026-04-25T10:29:48.062Z</time></trkpt><trkpt lat="37.1797467" lon="-4.0798367"><ele>491.0</ele><time>2026-04-25T10:29:49.063Z</time></trkpt><trkpt lat="37.179525" lon="-4.0800717"><ele>491.0</ele><time>2026-04-25T10:29:50.058Z</time></trkpt><trkpt lat="37.17929" lon="-4.080285"><ele>491.0</ele><time>2026-04-25T10:29:51.061Z</time></trkpt><trkpt lat="37.1790433" lon="-4.080475"><ele>494.5</ele><time>2026-04-25T10:29:52.065Z</time></trkpt><trkpt lat="37.178785" lon="-4.0806417"><ele>498.0</ele><time>2026-04-25T10:29:53.063Z</time></trkpt><trkpt lat="37.1785133" lon="-4.0807817"><ele>495.0</ele><time>2026-04-25T10:29:54.063Z</time></trkpt><trkpt lat="37.1782333" lon="-4.0809017"><ele>492.0</ele><time>2026-04-25T10:29:55.065Z</time></trkpt><trkpt lat="37.1779483" lon="-4.0810033"><ele>492.0</ele><time>2026-04-25T10:29:56.063Z</time></trkpt><trkpt lat="37.1776567" lon="-4.0810933"><ele>492.0</ele><time>2026-04-25T10:29:57.064Z</time></trkpt><trkpt lat="37.177365" lon="-4.08118"><ele>498.5</ele><time>2026-04-25T10:29:58.064Z</time></trkpt><trkpt lat="37.1770717" lon="-4.0812683"><ele>505.0</ele><time>2026-04-25T10:29:59.064Z</time></trkpt><trkpt lat="37.1767817" lon="-4.081355"><ele>506.5</ele><time>2026-04-25T10:30:00.064Z</time></trkpt><trkpt lat="37.1764933" lon="-4.0814417"><ele>508.0</ele><time>2026-04-25T10:30:01.065Z</time></trkpt><trkpt lat="37.1762083" lon="-4.08153"><ele>501.0</ele><time>2026-04-25T10:30:02.063Z</time></trkpt><trkpt lat="37.1759217" lon="-4.0816167"><ele>494.0</ele><time>2026-04-25T10:30:03.062Z</time></trkpt><trkpt lat="37.1756367" lon="-4.081705"><ele>494.0</ele><time>2026-04-25T10:30:04.066Z</time></trkpt><trkpt lat="37.1753533" lon="-4.0817933"><ele>494.0</ele><time>2026-04-25T10:30:05.067Z</time></trkpt><trkpt lat="37.1750667" lon="-4.081875"><ele>498.5</ele><time>2026-04-25T10:30:06.066Z</time></trkpt><trkpt lat="37.1747867" lon="-4.0819567"><ele>503.0</ele><time>2026-04-25T10:30:07.064Z</time></trkpt><trkpt lat="37.17451" lon="-4.0820383"><ele>503.0</ele><time>2026-04-25T10:30:08.064Z</time></trkpt><trkpt lat="37.1742367" lon="-4.082125"><ele>503.0</ele><time>2026-04-25T10:30:09.064Z</time></trkpt><trkpt lat="37.173965" lon="-4.0822083"><ele>508.5</ele><time>2026-04-25T10:30:10.065Z</time></trkpt><trkpt lat="37.1736917" lon="-4.0822917"><ele>514.0</ele><time>2026-04-25T10:30:11.063Z</time></trkpt><trkpt lat="37.1734183" lon="-4.0823783"><ele>507.0</ele><time>2026-04-25T10:30:12.061Z</time></trkpt><trkpt lat="37.1731467" lon="-4.0824733"><ele>500.0</ele><time>2026-04-25T10:30:13.065Z</time></trkpt><trkpt lat="37.1728767" lon="-4.08258"><ele>500.0</ele><time>2026-04-25T10:30:14.065Z</time></trkpt><trkpt lat="37.17261" lon="-4.0827083"><ele>500.0</ele><time>2026-04-25T10:30:15.063Z</time></trkpt><trkpt lat="37.1723533" lon="-4.0828583"><ele>507.5</ele><time>2026-04-25T10:30:16.062Z</time></trkpt><trkpt lat="37.1721067" lon="-4.08303"><ele>515.0</ele><time>2026-04-25T10:30:17.064Z</time></trkpt><trkpt lat="37.17187" lon="-4.0832133"><ele>513.0</ele><time>2026-04-25T10:30:18.064Z</time></trkpt><trkpt lat="37.171645" lon="-4.08341"><ele>511.0</ele><time>2026-04-25T10:30:19.065Z</time></trkpt><trkpt lat="37.1714233" lon="-4.083615"><ele>511.0</ele><time>2026-04-25T10:30:20.06Z</time></trkpt><trkpt lat="37.1712" lon="-4.0838233"><ele>511.0</ele><time>2026-04-25T10:30:21.065Z</time></trkpt><trkpt lat="37.1709733" lon="-4.0840333"><ele>505.5</ele><time>2026-04-25T10:30:22.06Z</time></trkpt><trkpt lat="37.1707433" lon="-4.0842433"><ele>500.0</ele><time>2026-04-25T10:30:23.062Z</time></trkpt><trkpt lat="37.1705133" lon="-4.0844583"><ele>500.0</ele><time>2026-04-25T10:30:24.065Z</time></trkpt><trkpt lat="37.1702783" lon="-4.084675"><ele>500.0</ele><time>2026-04-25T10:30:25.062Z</time></trkpt><trkpt lat="37.17004" lon="-4.0848933"><ele>494.5</ele><time>2026-04-25T10:30:26.064Z</time></trkpt><trkpt lat="37.1698" lon="-4.0851117"><ele>489.0</ele><time>2026-04-25T10:30:27.059Z</time></trkpt><trkpt lat="37.16956" lon="-4.08533"><ele>489.0</ele><time>2026-04-25T10:30:28.06Z</time></trkpt><trkpt lat="37.1693217" lon="-4.0855483"><ele>489.0</ele><time>2026-04-25T10:30:29.066Z</time></trkpt><trkpt lat="37.1690817" lon="-4.0857667"><ele>485.0</ele><time>2026-04-25T10:30:30.063Z</time></trkpt><trkpt lat="37.168845" lon="-4.085985"><ele>481.0</ele><time>2026-04-25T10:30:31.063Z</time></trkpt><trkpt lat="37.16861" lon="-4.086205"><ele>481.0</ele><time>2026-04-25T10:30:32.067Z</time></trkpt><trkpt lat="37.168375" lon="-4.08643"><ele>481.0</ele><time>2026-04-25T10:30:33.066Z</time></trkpt><trkpt lat="37.1681417" lon="-4.0866567"><ele>480.0</ele><time>2026-04-25T10:30:34.06Z</time></trkpt><trkpt lat="37.16791" lon="-4.0868867"><ele>479.0</ele><time>2026-04-25T10:30:35.064Z</time></trkpt><trkpt lat="37.1676867" lon="-4.0871267"><ele>479.0</ele><time>2026-04-25T10:30:36.062Z</time></trkpt><trkpt lat="37.1674767" lon="-4.087375"><ele>479.0</ele><time>2026-04-25T10:30:37.06Z</time></trkpt><trkpt lat="37.1672767" lon="-4.0876367"><ele>482.5</ele><time>2026-04-25T10:30:38.069Z</time></trkpt><trkpt lat="37.1670967" lon="-4.087915"><ele>486.0</ele><time>2026-04-25T10:30:39.065Z</time></trkpt><trkpt lat="37.166935" lon="-4.0882083"><ele>487.5</ele><time>2026-04-25T10:30:40.063Z</time></trkpt><trkpt lat="37.1667933" lon="-4.08852"><ele>489.0</ele><time>2026-04-25T10:30:41.06Z</time></trkpt><trkpt lat="37.1666667" lon="-4.0888433"><ele>487.0</ele><time>2026-04-25T10:30:42.062Z</time></trkpt><trkpt lat="37.1665583" lon="-4.08918"><ele>485.0</ele><time>2026-04-25T10:30:43.063Z</time></trkpt><trkpt lat="37.166465" lon="-4.0895267"><ele>489.5</ele><time>2026-04-25T10:30:44.063Z</time></trkpt><trkpt lat="37.16639" lon="-4.0898833"><ele>494.0</ele><time>2026-04-25T10:30:45.06Z</time></trkpt><trkpt lat="37.166335" lon="-4.0902467"><ele>494.0</ele><time>2026-04-25T10:30:46.059Z</time></trkpt><trkpt lat="37.1662983" lon="-4.0906167"><ele>494.0</ele><time>2026-04-25T10:30:47.068Z</time></trkpt><trkpt lat="37.1662683" lon="-4.0909883"><ele>491.0</ele><time>2026-04-25T10:30:48.062Z</time></trkpt><trkpt lat="37.1662433" lon="-4.0913617"><ele>488.0</ele><time>2026-04-25T10:30:49.066Z</time></trkpt><trkpt lat="37.16622" lon="-4.09174"><ele>487.0</ele><time>2026-04-25T10:30:50.065Z</time></trkpt><trkpt lat="37.1662" lon="-4.0921183"><ele>486.0</ele><time>2026-04-25T10:30:51.062Z</time></trkpt><trkpt lat="37.1661833" lon="-4.0925"><ele>486.0</ele><time>2026-04-25T10:30:52.06Z</time></trkpt><trkpt lat="37.1661667" lon="-4.09288"><ele>486.0</ele><time>2026-04-25T10:30:53.059Z</time></trkpt><trkpt lat="37.1661467" lon="-4.09326"><ele>485.0</ele><time>2026-04-25T10:30:54.06Z</time></trkpt><trkpt lat="37.1661267" lon="-4.09364"><ele>484.0</ele><time>2026-04-25T10:30:55.064Z</time></trkpt><trkpt lat="37.1661067" lon="-4.094015"><ele>482.5</ele><time>2026-04-25T10:30:56.063Z</time></trkpt><trkpt lat="37.1660867" lon="-4.09439"><ele>481.0</ele><time>2026-04-25T10:30:57.061Z</time></trkpt><trkpt lat="37.1660683" lon="-4.0947617"><ele>481.5</ele><time>2026-04-25T10:30:58.06Z</time></trkpt><trkpt lat="37.1660467" lon="-4.0951317"><ele>482.0</ele><time>2026-04-25T10:30:59.06Z</time></trkpt><trkpt lat="37.1660217" lon="-4.0954983"><ele>482.0</ele><time>2026-04-25T10:31:00.063Z</time></trkpt><trkpt lat="37.1659917" lon="-4.095865"><ele>482.0</ele><time>2026-04-25T10:31:01.061Z</time></trkpt><trkpt lat="37.1659533" lon="-4.0962283"><ele>481.5</ele><time>2026-04-25T10:31:02.06Z</time></trkpt><trkpt lat="37.1659067" lon="-4.0965917"><ele>481.0</ele><time>2026-04-25T10:31:03.059Z</time></trkpt><trkpt lat="37.1658483" lon="-4.09695"><ele>481.0</ele><time>2026-04-25T10:31:04.059Z</time></trkpt><trkpt lat="37.1657817" lon="-4.0973017"><ele>481.0</ele><time>2026-04-25T10:31:05.064Z</time></trkpt><trkpt lat="37.1657033" lon="-4.0976533"><ele>482.0</ele><time>2026-04-25T10:31:06.063Z</time></trkpt><trkpt lat="37.1656133" lon="-4.098"><ele>483.0</ele><time>2026-04-25T10:31:07.06Z</time></trkpt><trkpt lat="37.1655167" lon="-4.098345"><ele>483.0</ele><time>2026-04-25T10:31:08.063Z</time></trkpt><trkpt lat="37.1654117" lon="-4.0986883"><ele>483.0</ele><time>2026-04-25T10:31:09.059Z</time></trkpt><trkpt lat="37.1652983" lon="-4.0990267"><ele>480.0</ele><time>2026-04-25T10:31:10.059Z</time></trkpt><trkpt lat="37.1651783" lon="-4.0993617"><ele>477.0</ele><time>2026-04-25T10:31:11.066Z</time></trkpt><trkpt lat="37.1650517" lon="-4.099695"><ele>478.0</ele><time>2026-04-25T10:31:12.06Z</time></trkpt><trkpt lat="37.1649167" lon="-4.1000233"><ele>479.0</ele><time>2026-04-25T10:31:13.059Z</time></trkpt><trkpt lat="37.1647717" lon="-4.1003383"><ele>479.0</ele><time>2026-04-25T10:31:14.063Z</time></trkpt><trkpt lat="37.16462" lon="-4.100645"><ele>479.0</ele><time>2026-04-25T10:31:15.06Z</time></trkpt><trkpt lat="37.164465" lon="-4.1009483"><ele>479.0</ele><time>2026-04-25T10:31:16.063Z</time></trkpt><trkpt lat="37.1643083" lon="-4.1012533"><ele>479.0</ele><time>2026-04-25T10:31:17.063Z</time></trkpt><trkpt lat="37.1641517" lon="-4.1015583"><ele>481.0</ele><time>2026-04-25T10:31:18.063Z</time></trkpt><trkpt lat="37.1639933" lon="-4.1018633"><ele>483.0</ele><time>2026-04-25T10:31:19.062Z</time></trkpt><trkpt lat="37.1638383" lon="-4.10217"><ele>481.5</ele><time>2026-04-25T10:31:20.063Z</time></trkpt><trkpt lat="37.1636817" lon="-4.1024767"><ele>480.0</ele><time>2026-04-25T10:31:21.07Z</time></trkpt><trkpt lat="37.1635267" lon="-4.10278"><ele>480.0</ele><time>2026-04-25T10:31:22.065Z</time></trkpt><trkpt lat="37.16337" lon="-4.103085"><ele>480.0</ele><time>2026-04-25T10:31:23.064Z</time></trkpt><trkpt lat="37.1632133" lon="-4.10339"><ele>481.5</ele><time>2026-04-25T10:31:24.063Z</time></trkpt><trkpt lat="37.1630617" lon="-4.1036967"><ele>483.0</ele><time>2026-04-25T10:31:25.062Z</time></trkpt><trkpt lat="37.16292" lon="-4.1040133"><ele>481.5</ele><time>2026-04-25T10:31:26.06Z</time></trkpt><trkpt lat="37.16279" lon="-4.104335"><ele>480.0</ele><time>2026-04-25T10:31:27.063Z</time></trkpt><trkpt lat="37.1626717" lon="-4.1046633"><ele>479.5</ele><time>2026-04-25T10:31:28.065Z</time></trkpt><trkpt lat="37.1625617" lon="-4.105"><ele>479.0</ele><time>2026-04-25T10:31:29.065Z</time></trkpt><trkpt lat="37.1624633" lon="-4.10534"><ele>479.0</ele><time>2026-04-25T10:31:30.065Z</time></trkpt><trkpt lat="37.16238" lon="-4.1056867"><ele>479.0</ele><time>2026-04-25T10:31:31.064Z</time></trkpt><trkpt lat="37.16231" lon="-4.1060367"><ele>481.0</ele><time>2026-04-25T10:31:32.063Z</time></trkpt><trkpt lat="37.1622517" lon="-4.1063917"><ele>483.0</ele><time>2026-04-25T10:31:33.065Z</time></trkpt><trkpt lat="37.1622033" lon="-4.1067483"><ele>484.5</ele><time>2026-04-25T10:31:34.064Z</time></trkpt><trkpt lat="37.1621617" lon="-4.1071083"><ele>486.0</ele><time>2026-04-25T10:31:35.06Z</time></trkpt><trkpt lat="37.1621283" lon="-4.1074683"><ele>487.0</ele><time>2026-04-25T10:31:36.068Z</time></trkpt><trkpt lat="37.162105" lon="-4.1078317"><ele>488.0</ele><time>2026-04-25T10:31:37.061Z</time></trkpt><trkpt lat="37.1620917" lon="-4.10819"><ele>489.5</ele><time>2026-04-25T10:31:38.059Z</time></trkpt><trkpt lat="37.1620883" lon="-4.1085517"><ele>491.0</ele><time>2026-04-25T10:31:39.062Z</time></trkpt><trkpt lat="37.1620917" lon="-4.1089133"><ele>491.0</ele><time>2026-04-25T10:31:40.066Z</time></trkpt><trkpt lat="37.1620933" lon="-4.1092733"><ele>491.0</ele><time>2026-04-25T10:31:41.064Z</time></trkpt><trkpt lat="37.1620933" lon="-4.1096333"><ele>490.0</ele><time>2026-04-25T10:31:42.061Z</time></trkpt><trkpt lat="37.1620933" lon="-4.1099933"><ele>489.0</ele><time>2026-04-25T10:31:43.059Z</time></trkpt><trkpt lat="37.1620933" lon="-4.1103583"><ele>489.0</ele><time>2026-04-25T10:31:44.065Z</time></trkpt><trkpt lat="37.162095" lon="-4.1107217"><ele>489.0</ele><time>2026-04-25T10:31:45.059Z</time></trkpt><trkpt lat="37.1621017" lon="-4.1110833"><ele>488.5</ele><time>2026-04-25T10:31:46.06Z</time></trkpt><trkpt lat="37.1621217" lon="-4.111445"><ele>488.0</ele><time>2026-04-25T10:31:47.06Z</time></trkpt><trkpt lat="37.1621683" lon="-4.1118"><ele>485.0</ele><time>2026-04-25T10:31:48.064Z</time></trkpt><trkpt lat="37.16224" lon="-4.1121517"><ele>482.0</ele><time>2026-04-25T10:31:49.058Z</time></trkpt><trkpt lat="37.1623267" lon="-4.1125"><ele>477.5</ele><time>2026-04-25T10:31:50.059Z</time></trkpt><trkpt lat="37.1624183" lon="-4.1128433"><ele>473.0</ele><time>2026-04-25T10:31:51.06Z</time></trkpt><trkpt lat="37.1625033" lon="-4.113185"><ele>475.5</ele><time>2026-04-25T10:31:52.063Z</time></trkpt><trkpt lat="37.1625917" lon="-4.11353"><ele>478.0</ele><time>2026-04-25T10:31:53.065Z</time></trkpt><trkpt lat="37.1626817" lon="-4.1138767"><ele>479.5</ele><time>2026-04-25T10:31:54.061Z</time></trkpt><trkpt lat="37.1627717" lon="-4.1142217"><ele>481.0</ele><time>2026-04-25T10:31:55.061Z</time></trkpt><trkpt lat="37.1628617" lon="-4.1145617"><ele>481.0</ele><time>2026-04-25T10:31:56.065Z</time></trkpt><trkpt lat="37.1629483" lon="-4.1149033"><ele>481.0</ele><time>2026-04-25T10:31:57.061Z</time></trkpt><trkpt lat="37.16303" lon="-4.1152417"><ele>485.0</ele><time>2026-04-25T10:31:58.066Z</time></trkpt><trkpt lat="37.1631033" lon="-4.1155767"><ele>489.0</ele><time>2026-04-25T10:31:59.059Z</time></trkpt><trkpt lat="37.1631667" lon="-4.1159"><ele>487.0</ele><time>2026-04-25T10:32:00.065Z</time></trkpt><trkpt lat="37.16322" lon="-4.1162217"><ele>485.0</ele><time>2026-04-25T10:32:01.061Z</time></trkpt><trkpt lat="37.163265" lon="-4.116545"><ele>484.0</ele><time>2026-04-25T10:32:02.064Z</time></trkpt><trkpt lat="37.163295" lon="-4.1168667"><ele>483.0</ele><time>2026-04-25T10:32:03.065Z</time></trkpt><trkpt lat="37.16331" lon="-4.117185"><ele>482.0</ele><time>2026-04-25T10:32:04.062Z</time></trkpt><trkpt lat="37.1633133" lon="-4.1175033"><ele>481.0</ele><time>2026-04-25T10:32:05.062Z</time></trkpt><trkpt lat="37.163305" lon="-4.1178167"><ele>481.0</ele><time>2026-04-25T10:32:06.069Z</time></trkpt><trkpt lat="37.1632867" lon="-4.11813"><ele>481.0</ele><time>2026-04-25T10:32:07.062Z</time></trkpt><trkpt lat="37.1632583" lon="-4.11844"><ele>480.5</ele><time>2026-04-25T10:32:08.066Z</time></trkpt><trkpt lat="37.1632167" lon="-4.1187483"><ele>480.0</ele><time>2026-04-25T10:32:09.059Z</time></trkpt><trkpt lat="37.1631667" lon="-4.1190567"><ele>478.0</ele><time>2026-04-25T10:32:10.063Z</time></trkpt><trkpt lat="37.16311" lon="-4.119365"><ele>476.0</ele><time>2026-04-25T10:32:11.068Z</time></trkpt><trkpt lat="37.1630517" lon="-4.1196733"><ele>477.0</ele><time>2026-04-25T10:32:12.061Z</time></trkpt><trkpt lat="37.16299" lon="-4.1199817"><ele>478.0</ele><time>2026-04-25T10:32:13.061Z</time></trkpt><trkpt lat="37.1629267" lon="-4.12029"><ele>478.0</ele><time>2026-04-25T10:32:14.059Z</time></trkpt><trkpt lat="37.16286" lon="-4.1205983"><ele>478.0</ele><time>2026-04-25T10:32:15.061Z</time></trkpt><trkpt lat="37.1627933" lon="-4.120905"><ele>481.0</ele><time>2026-04-25T10:32:16.061Z</time></trkpt><trkpt lat="37.1627267" lon="-4.1212133"><ele>484.0</ele><time>2026-04-25T10:32:17.064Z</time></trkpt><trkpt lat="37.1626617" lon="-4.1215233"><ele>487.0</ele><time>2026-04-25T10:32:18.064Z</time></trkpt><trkpt lat="37.162595" lon="-4.1218333"><ele>490.0</ele><time>2026-04-25T10:32:19.064Z</time></trkpt><trkpt lat="37.16253" lon="-4.122145"><ele>493.0</ele><time>2026-04-25T10:32:20.063Z</time></trkpt><trkpt lat="37.162465" lon="-4.1224583"><ele>496.0</ele><time>2026-04-25T10:32:21.063Z</time></trkpt><trkpt lat="37.1624" lon="-4.1227717"><ele>498.5</ele><time>2026-04-25T10:32:22.059Z</time></trkpt><trkpt lat="37.162335" lon="-4.1230833"><ele>501.0</ele><time>2026-04-25T10:32:23.06Z</time></trkpt><trkpt lat="37.1622683" lon="-4.1233917"><ele>503.0</ele><time>2026-04-25T10:32:24.063Z</time></trkpt><trkpt lat="37.1622033" lon="-4.1237017"><ele>505.0</ele><time>2026-04-25T10:32:25.065Z</time></trkpt><trkpt lat="37.16214" lon="-4.1240133"><ele>506.0</ele><time>2026-04-25T10:32:26.064Z</time></trkpt><trkpt lat="37.16208" lon="-4.1243317"><ele>507.0</ele><time>2026-04-25T10:32:27.06Z</time></trkpt><trkpt lat="37.162015" lon="-4.1246467"><ele>506.0</ele><time>2026-04-25T10:32:28.058Z</time></trkpt><trkpt lat="37.1619483" lon="-4.1249617"><ele>505.0</ele><time>2026-04-25T10:32:29.06Z</time></trkpt><trkpt lat="37.1618833" lon="-4.1252767"><ele>505.0</ele><time>2026-04-25T10:32:30.062Z</time></trkpt><trkpt lat="37.161815" lon="-4.1255933"><ele>505.0</ele><time>2026-04-25T10:32:31.06Z</time></trkpt><trkpt lat="37.161745" lon="-4.1259133"><ele>507.5</ele><time>2026-04-25T10:32:32.06Z</time></trkpt><trkpt lat="37.16167" lon="-4.1262283"><ele>510.0</ele><time>2026-04-25T10:32:33.059Z</time></trkpt><trkpt lat="37.1615883" lon="-4.1265417"><ele>514.0</ele><time>2026-04-25T10:32:34.067Z</time></trkpt><trkpt lat="37.1615033" lon="-4.1268483"><ele>518.0</ele><time>2026-04-25T10:32:35.06Z</time></trkpt><trkpt lat="37.1614133" lon="-4.12715"><ele>516.0</ele><time>2026-04-25T10:32:36.061Z</time></trkpt><trkpt lat="37.1613117" lon="-4.127445"><ele>514.0</ele><time>2026-04-25T10:32:37.059Z</time></trkpt><trkpt lat="37.1611983" lon="-4.1277333"><ele>514.0</ele><time>2026-04-25T10:32:38.062Z</time></trkpt><trkpt lat="37.1610733" lon="-4.1280133"><ele>514.0</ele><time>2026-04-25T10:32:39.059Z</time></trkpt><trkpt lat="37.1609417" lon="-4.12829"><ele>512.5</ele><time>2026-04-25T10:32:40.065Z</time></trkpt><trkpt lat="37.1608067" lon="-4.1285617"><ele>511.0</ele><time>2026-04-25T10:32:41.062Z</time></trkpt><trkpt lat="37.1606667" lon="-4.1288317"><ele>508.5</ele><time>2026-04-25T10:32:42.062Z</time></trkpt><trkpt lat="37.1605267" lon="-4.1290983"><ele>506.0</ele><time>2026-04-25T10:32:43.063Z</time></trkpt><trkpt lat="37.160385" lon="-4.129365"><ele>506.0</ele><time>2026-04-25T10:32:44.061Z</time></trkpt><trkpt lat="37.1602467" lon="-4.1296317"><ele>506.0</ele><time>2026-04-25T10:32:45.061Z</time></trkpt><trkpt lat="37.1601117" lon="-4.1299"><ele>505.0</ele><time>2026-04-25T10:32:46.06Z</time></trkpt><trkpt lat="37.15998" lon="-4.130175"><ele>504.0</ele><time>2026-04-25T10:32:47.063Z</time></trkpt><trkpt lat="37.1598567" lon="-4.1304567"><ele>506.5</ele><time>2026-04-25T10:32:48.064Z</time></trkpt><trkpt lat="37.1597417" lon="-4.1307483"><ele>509.0</ele><time>2026-04-25T10:32:49.062Z</time></trkpt><trkpt lat="37.1596383" lon="-4.1310467"><ele>509.0</ele><time>2026-04-25T10:32:50.062Z</time></trkpt><trkpt lat="37.15955" lon="-4.1313533"><ele>509.0</ele><time>2026-04-25T10:32:51.064Z</time></trkpt><trkpt lat="37.159475" lon="-4.1316633"><ele>512.5</ele><time>2026-04-25T10:32:52.06Z</time></trkpt><trkpt lat="37.159415" lon="-4.13198"><ele>516.0</ele><time>2026-04-25T10:32:53.063Z</time></trkpt><trkpt lat="37.159375" lon="-4.1323017"><ele>523.0</ele><time>2026-04-25T10:32:54.062Z</time></trkpt><trkpt lat="37.159355" lon="-4.13263"><ele>530.0</ele><time>2026-04-25T10:32:55.066Z</time></trkpt><trkpt lat="37.159355" lon="-4.132965"><ele>533.5</ele><time>2026-04-25T10:32:56.063Z</time></trkpt><trkpt lat="37.1593717" lon="-4.1333017"><ele>537.0</ele><time>2026-04-25T10:32:57.06Z</time></trkpt><trkpt lat="37.159405" lon="-4.133635"><ele>537.0</ele><time>2026-04-25T10:32:58.061Z</time></trkpt><trkpt lat="37.1594567" lon="-4.1339667"><ele>537.0</ele><time>2026-04-25T10:32:59.067Z</time></trkpt><trkpt lat="37.1595233" lon="-4.1342967"><ele>544.5</ele><time>2026-04-25T10:33:00.06Z</time></trkpt><trkpt lat="37.159605" lon="-4.13462"><ele>552.0</ele><time>2026-04-25T10:33:01.061Z</time></trkpt><trkpt lat="37.1596983" lon="-4.1349433"><ele>553.0</ele><time>2026-04-25T10:33:02.065Z</time></trkpt><trkpt lat="37.1598017" lon="-4.1352667"><ele>554.0</ele><time>2026-04-25T10:33:03.062Z</time></trkpt><trkpt lat="37.1599117" lon="-4.1355883"><ele>557.0</ele><time>2026-04-25T10:33:04.065Z</time></trkpt><trkpt lat="37.16002" lon="-4.1359117"><ele>560.0</ele><time>2026-04-25T10:33:05.062Z</time></trkpt><trkpt lat="37.1601283" lon="-4.1362417"><ele>563.0</ele><time>2026-04-25T10:33:06.064Z</time></trkpt><trkpt lat="37.1602283" lon="-4.1365733"><ele>566.0</ele><time>2026-04-25T10:33:07.066Z</time></trkpt><trkpt lat="37.1603333" lon="-4.13691"><ele>566.0</ele><time>2026-04-25T10:33:08.064Z</time></trkpt><trkpt lat="37.160435" lon="-4.137245"><ele>566.0</ele><time>2026-04-25T10:33:09.062Z</time></trkpt><trkpt lat="37.160535" lon="-4.1375817"><ele>569.0</ele><time>2026-04-25T10:33:10.06Z</time></trkpt><trkpt lat="37.160625" lon="-4.1379233"><ele>572.0</ele><time>2026-04-25T10:33:11.064Z</time></trkpt><trkpt lat="37.1607067" lon="-4.138265"><ele>564.0</ele><time>2026-04-25T10:33:12.065Z</time></trkpt><trkpt lat="37.1607667" lon="-4.1386133"><ele>556.0</ele><time>2026-04-25T10:33:13.063Z</time></trkpt><trkpt lat="37.160805" lon="-4.1389683"><ele>560.5</ele><time>2026-04-25T10:33:14.063Z</time></trkpt><trkpt lat="37.16082" lon="-4.13933"><ele>565.0</ele><time>2026-04-25T10:33:15.064Z</time></trkpt><trkpt lat="37.1608167" lon="-4.1396967"><ele>566.5</ele><time>2026-04-25T10:33:16.059Z</time></trkpt><trkpt lat="37.1608017" lon="-4.1400667"><ele>568.0</ele><time>2026-04-25T10:33:17.063Z</time></trkpt><trkpt lat="37.1607667" lon="-4.1404367"><ele>571.0</ele><time>2026-04-25T10:33:18.063Z</time></trkpt><trkpt lat="37.1607167" lon="-4.140805"><ele>574.0</ele><time>2026-04-25T10:33:19.066Z</time></trkpt><trkpt lat="37.1606467" lon="-4.141165"><ele>585.5</ele><time>2026-04-25T10:33:20.062Z</time></trkpt><trkpt lat="37.1605667" lon="-4.1415183"><ele>597.0</ele><time>2026-04-25T10:33:21.061Z</time></trkpt><trkpt lat="37.1604733" lon="-4.1418717"><ele>597.0</ele><time>2026-04-25T10:33:22.059Z</time></trkpt><trkpt lat="37.1603733" lon="-4.14222"><ele>597.0</ele><time>2026-04-25T10:33:23.069Z</time></trkpt><trkpt lat="37.1602617" lon="-4.1425617"><ele>595.0</ele><time>2026-04-25T10:33:24.062Z</time></trkpt><trkpt lat="37.1601483" lon="-4.1429017"><ele>593.0</ele><time>2026-04-25T10:33:25.062Z</time></trkpt><trkpt lat="37.1600333" lon="-4.14324"><ele>590.0</ele><time>2026-04-25T10:33:26.063Z</time></trkpt><trkpt lat="37.1599183" lon="-4.14358"><ele>587.0</ele><time>2026-04-25T10:33:27.068Z</time></trkpt><trkpt lat="37.1598117" lon="-4.1439183"><ele>606.0</ele><time>2026-04-25T10:33:28.059Z</time></trkpt><trkpt lat="37.1597167" lon="-4.144255"><ele>625.0</ele><time>2026-04-25T10:33:29.06Z</time></trkpt><trkpt lat="37.1596333" lon="-4.1445983"><ele>620.0</ele><time>2026-04-25T10:33:30.059Z</time></trkpt><trkpt lat="37.1595617" lon="-4.1449483"><ele>615.0</ele><time>2026-04-25T10:33:31.064Z</time></trkpt><trkpt lat="37.159505" lon="-4.1453033"><ele>615.0</ele><time>2026-04-25T10:33:32.064Z</time></trkpt><trkpt lat="37.1594633" lon="-4.1456617"><ele>615.0</ele><time>2026-04-25T10:33:33.061Z</time></trkpt><trkpt lat="37.15944" lon="-4.1460217"><ele>613.0</ele><time>2026-04-25T10:33:34.06Z</time></trkpt><trkpt lat="37.159445" lon="-4.1463867"><ele>611.0</ele><time>2026-04-25T10:33:35.062Z</time></trkpt><trkpt lat="37.1594717" lon="-4.1467533"><ele>610.0</ele><time>2026-04-25T10:33:36.061Z</time></trkpt><trkpt lat="37.159515" lon="-4.1471183"><ele>609.0</ele><time>2026-04-25T10:33:37.061Z</time></trkpt><trkpt lat="37.159575" lon="-4.1474767"><ele>612.0</ele><time>2026-04-25T10:33:38.062Z</time></trkpt><trkpt lat="37.15965" lon="-4.1478317"><ele>615.0</ele><time>2026-04-25T10:33:39.061Z</time></trkpt><trkpt lat="37.1597433" lon="-4.14818"><ele>614.5</ele><time>2026-04-25T10:33:40.061Z</time></trkpt><trkpt lat="37.1598483" lon="-4.1485233"><ele>614.0</ele><time>2026-04-25T10:33:41.059Z</time></trkpt><trkpt lat="37.1599583" lon="-4.1488667"><ele>605.0</ele><time>2026-04-25T10:33:42.06Z</time></trkpt><trkpt lat="37.1600667" lon="-4.1492067"><ele>596.0</ele><time>2026-04-25T10:33:43.063Z</time></trkpt><trkpt lat="37.160175" lon="-4.1495483"><ele>597.0</ele><time>2026-04-25T10:33:44.062Z</time></trkpt><trkpt lat="37.1602817" lon="-4.14989"><ele>598.0</ele><time>2026-04-25T10:33:45.061Z</time></trkpt><trkpt lat="37.1603833" lon="-4.1502367"><ele>598.0</ele><time>2026-04-25T10:33:46.06Z</time></trkpt><trkpt lat="37.160475" lon="-4.1505883"><ele>598.0</ele><time>2026-04-25T10:33:47.061Z</time></trkpt><trkpt lat="37.1605567" lon="-4.1509467"><ele>600.5</ele><time>2026-04-25T10:33:48.06Z</time></trkpt><trkpt lat="37.160625" lon="-4.1513083"><ele>603.0</ele><time>2026-04-25T10:33:49.067Z</time></trkpt><trkpt lat="37.1606833" lon="-4.1516733"><ele>600.0</ele><time>2026-04-25T10:33:50.065Z</time></trkpt><trkpt lat="37.1607383" lon="-4.15204"><ele>597.0</ele><time>2026-04-25T10:33:51.06Z</time></trkpt><trkpt lat="37.1607883" lon="-4.15241"><ele>597.0</ele><time>2026-04-25T10:33:52.06Z</time></trkpt><trkpt lat="37.16084" lon="-4.1527783"><ele>597.0</ele><time>2026-04-25T10:33:53.062Z</time></trkpt><trkpt lat="37.16089" lon="-4.1531467"><ele>599.0</ele><time>2026-04-25T10:33:54.067Z</time></trkpt><trkpt lat="37.1609433" lon="-4.1535167"><ele>601.0</ele><time>2026-04-25T10:33:55.062Z</time></trkpt><trkpt lat="37.1610067" lon="-4.1538817"><ele>601.5</ele><time>2026-04-25T10:33:56.062Z</time></trkpt><trkpt lat="37.1610783" lon="-4.154245"><ele>602.0</ele><time>2026-04-25T10:33:57.061Z</time></trkpt><trkpt lat="37.1611667" lon="-4.1546033"><ele>604.5</ele><time>2026-04-25T10:33:58.06Z</time></trkpt><trkpt lat="37.161265" lon="-4.1549567"><ele>607.0</ele><time>2026-04-25T10:33:59.066Z</time></trkpt><trkpt lat="37.161375" lon="-4.1553067"><ele>607.0</ele><time>2026-04-25T10:34:00.059Z</time></trkpt><trkpt lat="37.1614967" lon="-4.15565"><ele>607.0</ele><time>2026-04-25T10:34:01.061Z</time></trkpt><trkpt lat="37.1616383" lon="-4.155985"><ele>607.0</ele><time>2026-04-25T10:34:02.062Z</time></trkpt><trkpt lat="37.16179" lon="-4.1563117"><ele>607.0</ele><time>2026-04-25T10:34:03.06Z</time></trkpt><trkpt lat="37.1619567" lon="-4.156635"><ele>611.5</ele><time>2026-04-25T10:34:04.061Z</time></trkpt><trkpt lat="37.1621267" lon="-4.1569567"><ele>616.0</ele><time>2026-04-25T10:34:05.061Z</time></trkpt><trkpt lat="37.1623017" lon="-4.1572783"><ele>609.0</ele><time>2026-04-25T10:34:06.064Z</time></trkpt><trkpt lat="37.1624833" lon="-4.1575917"><ele>602.0</ele><time>2026-04-25T10:34:07.062Z</time></trkpt><trkpt lat="37.16267" lon="-4.157905"><ele>604.5</ele><time>2026-04-25T10:34:08.063Z</time></trkpt><trkpt lat="37.16286" lon="-4.1582133"><ele>607.0</ele><time>2026-04-25T10:34:09.062Z</time></trkpt><trkpt lat="37.1630483" lon="-4.15852"><ele>606.0</ele><time>2026-04-25T10:34:10.061Z</time></trkpt><trkpt lat="37.163235" lon="-4.1588267"><ele>605.0</ele><time>2026-04-25T10:34:11.062Z</time></trkpt><trkpt lat="37.16342" lon="-4.1591367"><ele>605.0</ele><time>2026-04-25T10:34:12.062Z</time></trkpt><trkpt lat="37.1635967" lon="-4.1594467"><ele>605.0</ele><time>2026-04-25T10:34:13.063Z</time></trkpt><trkpt lat="37.16376" lon="-4.1597617"><ele>601.0</ele><time>2026-04-25T10:34:14.062Z</time></trkpt><trkpt lat="37.16391" lon="-4.160085"><ele>597.0</ele><time>2026-04-25T10:34:15.06Z</time></trkpt><trkpt lat="37.1640467" lon="-4.1604117"><ele>600.0</ele><time>2026-04-25T10:34:16.06Z</time></trkpt><trkpt lat="37.1641717" lon="-4.160745"><ele>603.0</ele><time>2026-04-25T10:34:17.063Z</time></trkpt><trkpt lat="37.16429" lon="-4.161085"><ele>603.0</ele><time>2026-04-25T10:34:18.061Z</time></trkpt><trkpt lat="37.164395" lon="-4.1614283"><ele>603.0</ele><time>2026-04-25T10:34:19.059Z</time></trkpt><trkpt lat="37.1644883" lon="-4.1617783"><ele>604.5</ele><time>2026-04-25T10:34:20.061Z</time></trkpt><trkpt lat="37.1645667" lon="-4.1621333"><ele>606.0</ele><time>2026-04-25T10:34:21.061Z</time></trkpt><trkpt lat="37.164635" lon="-4.1624917"><ele>607.5</ele><time>2026-04-25T10:34:22.064Z</time></trkpt><trkpt lat="37.164695" lon="-4.1628533"><ele>609.0</ele><time>2026-04-25T10:34:23.06Z</time></trkpt><trkpt lat="37.16474" lon="-4.1632167"><ele>610.5</ele><time>2026-04-25T10:34:24.059Z</time></trkpt><trkpt lat="37.164775" lon="-4.1635833"><ele>612.0</ele><time>2026-04-25T10:34:25.059Z</time></trkpt><trkpt lat="37.1648017" lon="-4.1639467"><ele>611.0</ele><time>2026-04-25T10:34:26.062Z</time></trkpt><trkpt lat="37.1648217" lon="-4.1642983"><ele>610.0</ele><time>2026-04-25T10:34:27.061Z</time></trkpt><trkpt lat="37.1648383" lon="-4.164645"><ele>608.0</ele><time>2026-04-25T10:34:28.061Z</time></trkpt><trkpt lat="37.1648533" lon="-4.1649917"><ele>606.0</ele><time>2026-04-25T10:34:29.06Z</time></trkpt><trkpt lat="37.164865" lon="-4.1653417"><ele>597.5</ele><time>2026-04-25T10:34:30.063Z</time></trkpt><trkpt lat="37.1648767" lon="-4.1656933"><ele>589.0</ele><time>2026-04-25T10:34:31.065Z</time></trkpt><trkpt lat="37.1648883" lon="-4.166045"><ele>586.5</ele><time>2026-04-25T10:34:32.066Z</time></trkpt><trkpt lat="37.1649" lon="-4.1664033"><ele>584.0</ele><time>2026-04-25T10:34:33.06Z</time></trkpt><trkpt lat="37.1649133" lon="-4.166765"><ele>583.5</ele><time>2026-04-25T10:34:34.064Z</time></trkpt><trkpt lat="37.1649317" lon="-4.16713"><ele>583.0</ele><time>2026-04-25T10:34:35.06Z</time></trkpt><trkpt lat="37.1649517" lon="-4.1674967"><ele>583.0</ele><time>2026-04-25T10:34:36.063Z</time></trkpt><trkpt lat="37.16498" lon="-4.1678617"><ele>583.0</ele><time>2026-04-25T10:34:37.062Z</time></trkpt><trkpt lat="37.16502" lon="-4.1682233"><ele>583.0</ele><time>2026-04-25T10:34:38.065Z</time></trkpt><trkpt lat="37.1650683" lon="-4.1685833"><ele>583.0</ele><time>2026-04-25T10:34:39.061Z</time></trkpt><trkpt lat="37.1651267" lon="-4.16894"><ele>583.0</ele><time>2026-04-25T10:34:40.063Z</time></trkpt><trkpt lat="37.1651917" lon="-4.1692967"><ele>583.0</ele><time>2026-04-25T10:34:41.062Z</time></trkpt><trkpt lat="37.1652633" lon="-4.169655"><ele>581.5</ele><time>2026-04-25T10:34:42.061Z</time></trkpt><trkpt lat="37.1653417" lon="-4.1700133"><ele>580.0</ele><time>2026-04-25T10:34:43.061Z</time></trkpt><trkpt lat="37.1654283" lon="-4.17037"><ele>581.0</ele><time>2026-04-25T10:34:44.064Z</time></trkpt><trkpt lat="37.16552" lon="-4.17073"><ele>582.0</ele><time>2026-04-25T10:34:45.065Z</time></trkpt><trkpt lat="37.16562" lon="-4.17109"><ele>577.0</ele><time>2026-04-25T10:34:46.058Z</time></trkpt><trkpt lat="37.1657217" lon="-4.1714517"><ele>572.0</ele><time>2026-04-25T10:34:47.061Z</time></trkpt><trkpt lat="37.1658233" lon="-4.171815"><ele>572.0</ele><time>2026-04-25T10:34:48.061Z</time></trkpt><trkpt lat="37.1659283" lon="-4.1721783"><ele>572.0</ele><time>2026-04-25T10:34:49.065Z</time></trkpt><trkpt lat="37.1660317" lon="-4.1725433"><ele>571.0</ele><time>2026-04-25T10:34:50.062Z</time></trkpt><trkpt lat="37.16613" lon="-4.1729067"><ele>570.0</ele><time>2026-04-25T10:34:51.063Z</time></trkpt><trkpt lat="37.16623" lon="-4.1732683"><ele>568.5</ele><time>2026-04-25T10:34:52.058Z</time></trkpt><trkpt lat="37.1663283" lon="-4.1736333"><ele>567.0</ele><time>2026-04-25T10:34:53.064Z</time></trkpt><trkpt lat="37.16642" lon="-4.174"><ele>569.0</ele><time>2026-04-25T10:34:54.063Z</time></trkpt><trkpt lat="37.166505" lon="-4.1743683"><ele>571.0</ele><time>2026-04-25T10:34:55.06Z</time></trkpt><trkpt lat="37.1665767" lon="-4.1747367"><ele>566.0</ele><time>2026-04-25T10:34:56.066Z</time></trkpt><trkpt lat="37.16664" lon="-4.1751067"><ele>561.0</ele><time>2026-04-25T10:34:57.061Z</time></trkpt><trkpt lat="37.1666933" lon="-4.1754767"><ele>562.5</ele><time>2026-04-25T10:34:58.063Z</time></trkpt><trkpt lat="37.1667383" lon="-4.1758517"><ele>564.0</ele><time>2026-04-25T10:34:59.059Z</time></trkpt><trkpt lat="37.1667717" lon="-4.1762283"><ele>564.5</ele><time>2026-04-25T10:35:00.062Z</time></trkpt><trkpt lat="37.1667917" lon="-4.1766067"><ele>565.0</ele><time>2026-04-25T10:35:01.06Z</time></trkpt><trkpt lat="37.1667967" lon="-4.1769883"><ele>565.0</ele><time>2026-04-25T10:35:02.061Z</time></trkpt><trkpt lat="37.1667867" lon="-4.1773683"><ele>565.0</ele><time>2026-04-25T10:35:03.061Z</time></trkpt><trkpt lat="37.1667633" lon="-4.1777433"><ele>565.0</ele><time>2026-04-25T10:35:04.062Z</time></trkpt><trkpt lat="37.1667317" lon="-4.1781167"><ele>565.0</ele><time>2026-04-25T10:35:05.061Z</time></trkpt><trkpt lat="37.16669" lon="-4.1784817"><ele>565.0</ele><time>2026-04-25T10:35:06.066Z</time></trkpt><trkpt lat="37.1666383" lon="-4.1788483"><ele>565.0</ele><time>2026-04-25T10:35:07.061Z</time></trkpt><trkpt lat="37.1665733" lon="-4.1792083"><ele>570.0</ele><time>2026-04-25T10:35:08.062Z</time></trkpt><trkpt lat="37.1664917" lon="-4.1795667"><ele>575.0</ele><time>2026-04-25T10:35:09.058Z</time></trkpt><trkpt lat="37.166395" lon="-4.1799217"><ele>575.0</ele><time>2026-04-25T10:35:10.059Z</time></trkpt><trkpt lat="37.1662867" lon="-4.1802667"><ele>575.0</ele><time>2026-04-25T10:35:11.06Z</time></trkpt><trkpt lat="37.16617" lon="-4.1806083"><ele>573.5</ele><time>2026-04-25T10:35:12.062Z</time></trkpt><trkpt lat="37.166045" lon="-4.18095"><ele>572.0</ele><time>2026-04-25T10:35:13.061Z</time></trkpt><trkpt lat="37.1659083" lon="-4.1812933"><ele>570.5</ele><time>2026-04-25T10:35:14.062Z</time></trkpt><trkpt lat="37.1657633" lon="-4.1816317"><ele>569.0</ele><time>2026-04-25T10:35:15.063Z</time></trkpt><trkpt lat="37.16561" lon="-4.18196"><ele>570.0</ele><time>2026-04-25T10:35:16.062Z</time></trkpt><trkpt lat="37.1654483" lon="-4.182285"><ele>571.0</ele><time>2026-04-25T10:35:17.06Z</time></trkpt><trkpt lat="37.165285" lon="-4.1826083"><ele>571.0</ele><time>2026-04-25T10:35:18.059Z</time></trkpt><trkpt lat="37.16512" lon="-4.1829267"><ele>571.0</ele><time>2026-04-25T10:35:19.061Z</time></trkpt><trkpt lat="37.16495" lon="-4.1832333"><ele>572.5</ele><time>2026-04-25T10:35:20.063Z</time></trkpt><trkpt lat="37.1647783" lon="-4.1835383"><ele>574.0</ele><time>2026-04-25T10:35:21.061Z</time></trkpt><trkpt lat="37.1646" lon="-4.1838317"><ele>573.0</ele><time>2026-04-25T10:35:22.059Z</time></trkpt><trkpt lat="37.1644217" lon="-4.1841183"><ele>572.0</ele><time>2026-04-25T10:35:23.065Z</time></trkpt><trkpt lat="37.16425" lon="-4.1843983"><ele>572.0</ele><time>2026-04-25T10:35:24.06Z</time></trkpt><trkpt lat="37.16408" lon="-4.18468"><ele>572.0</ele><time>2026-04-25T10:35:25.063Z</time></trkpt><trkpt lat="37.16391" lon="-4.1849617"><ele>573.0</ele><time>2026-04-25T10:35:26.06Z</time></trkpt><trkpt lat="37.1637417" lon="-4.18524"><ele>574.0</ele><time>2026-04-25T10:35:27.063Z</time></trkpt><trkpt lat="37.1635783" lon="-4.185515"><ele>572.5</ele><time>2026-04-25T10:35:28.057Z</time></trkpt><trkpt lat="37.1634167" lon="-4.185795"><ele>571.0</ele><time>2026-04-25T10:35:29.058Z</time></trkpt><trkpt lat="37.1632617" lon="-4.1860883"><ele>571.0</ele><time>2026-04-25T10:35:30.061Z</time></trkpt><trkpt lat="37.1631083" lon="-4.1863967"><ele>571.0</ele><time>2026-04-25T10:35:31.058Z</time></trkpt><trkpt lat="37.1629617" lon="-4.1867167"><ele>571.0</ele><time>2026-04-25T10:35:32.059Z</time></trkpt><trkpt lat="37.1628217" lon="-4.18705"><ele>571.0</ele><time>2026-04-25T10:35:33.061Z</time></trkpt><trkpt lat="37.1626933" lon="-4.1873967"><ele>568.5</ele><time>2026-04-25T10:35:34.06Z</time></trkpt><trkpt lat="37.1625733" lon="-4.1877567"><ele>566.0</ele><time>2026-04-25T10:35:35.061Z</time></trkpt><trkpt lat="37.1624633" lon="-4.18812"><ele>566.0</ele><time>2026-04-25T10:35:36.06Z</time></trkpt><trkpt lat="37.1623583" lon="-4.1884917"><ele>566.0</ele><time>2026-04-25T10:35:37.059Z</time></trkpt><trkpt lat="37.1622533" lon="-4.1888667"><ele>563.5</ele><time>2026-04-25T10:35:38.063Z</time></trkpt><trkpt lat="37.162155" lon="-4.189245"><ele>561.0</ele><time>2026-04-25T10:35:39.061Z</time></trkpt><trkpt lat="37.16206" lon="-4.1896283"><ele>559.0</ele><time>2026-04-25T10:35:40.062Z</time></trkpt><trkpt lat="37.16197" lon="-4.19001"><ele>557.0</ele><time>2026-04-25T10:35:41.066Z</time></trkpt><trkpt lat="37.1618833" lon="-4.1903917"><ele>553.5</ele><time>2026-04-25T10:35:42.06Z</time></trkpt><trkpt lat="37.1618" lon="-4.1907767"><ele>550.0</ele><time>2026-04-25T10:35:43.06Z</time></trkpt><trkpt lat="37.1617217" lon="-4.1911617"><ele>548.0</ele><time>2026-04-25T10:35:44.064Z</time></trkpt><trkpt lat="37.1616433" lon="-4.1915433"><ele>546.0</ele><time>2026-04-25T10:35:45.062Z</time></trkpt><trkpt lat="37.1615633" lon="-4.1919183"><ele>547.0</ele><time>2026-04-25T10:35:46.062Z</time></trkpt><trkpt lat="37.16148" lon="-4.1922867"><ele>548.0</ele><time>2026-04-25T10:35:47.06Z</time></trkpt><trkpt lat="37.1614" lon="-4.1926467"><ele>548.0</ele><time>2026-04-25T10:35:48.061Z</time></trkpt><trkpt lat="37.1613183" lon="-4.1930033"><ele>548.0</ele><time>2026-04-25T10:35:49.06Z</time></trkpt><trkpt lat="37.1612367" lon="-4.1933583"><ele>545.0</ele><time>2026-04-25T10:35:50.066Z</time></trkpt><trkpt lat="37.161155" lon="-4.1937117"><ele>542.0</ele><time>2026-04-25T10:35:51.062Z</time></trkpt><trkpt lat="37.1610733" lon="-4.194065"><ele>541.0</ele><time>2026-04-25T10:35:52.058Z</time></trkpt><trkpt lat="37.1609833" lon="-4.1944133"><ele>540.0</ele><time>2026-04-25T10:35:53.06Z</time></trkpt><trkpt lat="37.16088" lon="-4.1947567"><ele>540.0</ele><time>2026-04-25T10:35:54.066Z</time></trkpt><trkpt lat="37.1607633" lon="-4.1950933"><ele>540.0</ele><time>2026-04-25T10:35:55.063Z</time></trkpt><trkpt lat="37.1606367" lon="-4.19542"><ele>540.5</ele><time>2026-04-25T10:35:56.061Z</time></trkpt><trkpt lat="37.1605017" lon="-4.1957383"><ele>541.0</ele><time>2026-04-25T10:35:57.062Z</time></trkpt><trkpt lat="37.16036" lon="-4.19605"><ele>541.0</ele><time>2026-04-25T10:35:58.066Z</time></trkpt><trkpt lat="37.160205" lon="-4.1963517"><ele>541.0</ele><time>2026-04-25T10:35:59.063Z</time></trkpt><trkpt lat="37.1600417" lon="-4.1966517"><ele>541.0</ele><time>2026-04-25T10:36:00.065Z</time></trkpt><trkpt lat="37.159865" lon="-4.19694"><ele>541.0</ele><time>2026-04-25T10:36:01.064Z</time></trkpt><trkpt lat="37.1596883" lon="-4.197225"><ele>542.5</ele><time>2026-04-25T10:36:02.066Z</time></trkpt><trkpt lat="37.1595017" lon="-4.1975067"><ele>544.0</ele><time>2026-04-25T10:36:03.061Z</time></trkpt><trkpt lat="37.1593183" lon="-4.1977917"><ele>544.0</ele><time>2026-04-25T10:36:04.058Z</time></trkpt><trkpt lat="37.1591467" lon="-4.1980817"><ele>544.0</ele><time>2026-04-25T10:36:05.061Z</time></trkpt><trkpt lat="37.15899" lon="-4.19838"><ele>544.5</ele><time>2026-04-25T10:36:06.064Z</time></trkpt><trkpt lat="37.158845" lon="-4.1986867"><ele>545.0</ele><time>2026-04-25T10:36:07.064Z</time></trkpt><trkpt lat="37.158715" lon="-4.1989983"><ele>543.5</ele><time>2026-04-25T10:36:08.063Z</time></trkpt><trkpt lat="37.1586" lon="-4.1993167"><ele>542.0</ele><time>2026-04-25T10:36:09.062Z</time></trkpt><trkpt lat="37.1584983" lon="-4.199635"><ele>540.5</ele><time>2026-04-25T10:36:10.06Z</time></trkpt><trkpt lat="37.15841" lon="-4.1999483"><ele>539.0</ele><time>2026-04-25T10:36:11.062Z</time></trkpt><trkpt lat="37.1583367" lon="-4.2002533"><ele>539.0</ele><time>2026-04-25T10:36:12.064Z</time></trkpt><trkpt lat="37.1582733" lon="-4.2005533"><ele>539.0</ele><time>2026-04-25T10:36:13.061Z</time></trkpt><trkpt lat="37.1582133" lon="-4.2008483"><ele>537.0</ele><time>2026-04-25T10:36:14.064Z</time></trkpt><trkpt lat="37.1581517" lon="-4.2011383"><ele>535.0</ele><time>2026-04-25T10:36:15.063Z</time></trkpt><trkpt lat="37.1580867" lon="-4.201425"><ele>530.5</ele><time>2026-04-25T10:36:16.06Z</time></trkpt><trkpt lat="37.1580167" lon="-4.201715"><ele>526.0</ele><time>2026-04-25T10:36:17.063Z</time></trkpt><trkpt lat="37.1579383" lon="-4.2019983"><ele>526.0</ele><time>2026-04-25T10:36:18.065Z</time></trkpt><trkpt lat="37.1578533" lon="-4.20228"><ele>526.0</ele><time>2026-04-25T10:36:19.062Z</time></trkpt><trkpt lat="37.1577617" lon="-4.2025533"><ele>525.0</ele><time>2026-04-25T10:36:20.061Z</time></trkpt><trkpt lat="37.1576633" lon="-4.2028267"><ele>524.0</ele><time>2026-04-25T10:36:21.063Z</time></trkpt><trkpt lat="37.157565" lon="-4.2031033"><ele>524.0</ele><time>2026-04-25T10:36:22.063Z</time></trkpt><trkpt lat="37.15747" lon="-4.20338"><ele>524.0</ele><time>2026-04-25T10:36:23.061Z</time></trkpt><trkpt lat="37.15738" lon="-4.20366"><ele>522.0</ele><time>2026-04-25T10:36:24.061Z</time></trkpt><trkpt lat="37.1573" lon="-4.2039417"><ele>520.0</ele><time>2026-04-25T10:36:25.063Z</time></trkpt><trkpt lat="37.15723" lon="-4.2042217"><ele>516.5</ele><time>2026-04-25T10:36:26.059Z</time></trkpt><trkpt lat="37.1571733" lon="-4.2045033"><ele>513.0</ele><time>2026-04-25T10:36:27.066Z</time></trkpt><trkpt lat="37.157135" lon="-4.20479"><ele>510.0</ele><time>2026-04-25T10:36:28.063Z</time></trkpt><trkpt lat="37.1571133" lon="-4.2050783"><ele>507.0</ele><time>2026-04-25T10:36:29.063Z</time></trkpt><trkpt lat="37.15711" lon="-4.205365"><ele>507.0</ele><time>2026-04-25T10:36:30.061Z</time></trkpt><trkpt lat="37.1571233" lon="-4.20565"><ele>507.0</ele><time>2026-04-25T10:36:31.062Z</time></trkpt><trkpt lat="37.1571533" lon="-4.2059367"><ele>503.0</ele><time>2026-04-25T10:36:32.062Z</time></trkpt><trkpt lat="37.1571967" lon="-4.2062233"><ele>499.0</ele><time>2026-04-25T10:36:33.062Z</time></trkpt><trkpt lat="37.1572533" lon="-4.2065083"><ele>499.0</ele><time>2026-04-25T10:36:34.059Z</time></trkpt><trkpt lat="37.1573283" lon="-4.2067917"><ele>499.0</ele><time>2026-04-25T10:36:35.063Z</time></trkpt><trkpt lat="37.157415" lon="-4.2070767"><ele>496.5</ele><time>2026-04-25T10:36:36.059Z</time></trkpt><trkpt lat="37.1575083" lon="-4.2073633"><ele>494.0</ele><time>2026-04-25T10:36:37.063Z</time></trkpt><trkpt lat="37.1576083" lon="-4.2076533"><ele>494.0</ele><time>2026-04-25T10:36:38.059Z</time></trkpt><trkpt lat="37.1577133" lon="-4.2079483"><ele>494.0</ele><time>2026-04-25T10:36:39.065Z</time></trkpt><trkpt lat="37.1578217" lon="-4.2082533"><ele>492.0</ele><time>2026-04-25T10:36:40.06Z</time></trkpt><trkpt lat="37.1579333" lon="-4.2085683"><ele>490.0</ele><time>2026-04-25T10:36:41.06Z</time></trkpt><trkpt lat="37.1580483" lon="-4.20889"><ele>490.5</ele><time>2026-04-25T10:36:42.063Z</time></trkpt><trkpt lat="37.1581733" lon="-4.20922"><ele>491.0</ele><time>2026-04-25T10:36:43.065Z</time></trkpt><trkpt lat="37.1583" lon="-4.209545"><ele>493.0</ele><time>2026-04-25T10:36:44.065Z</time></trkpt><trkpt lat="37.158425" lon="-4.2098717"><ele>495.0</ele><time>2026-04-25T10:36:45.064Z</time></trkpt><trkpt lat="37.1585467" lon="-4.2101983"><ele>495.0</ele><time>2026-04-25T10:36:46.059Z</time></trkpt><trkpt lat="37.15867" lon="-4.2105233"><ele>495.0</ele><time>2026-04-25T10:36:47.059Z</time></trkpt><trkpt lat="37.1587883" lon="-4.21085"><ele>497.5</ele><time>2026-04-25T10:36:48.06Z</time></trkpt><trkpt lat="37.1588983" lon="-4.2111733"><ele>500.0</ele><time>2026-04-25T10:36:49.063Z</time></trkpt><trkpt lat="37.159" lon="-4.2114967"><ele>500.5</ele><time>2026-04-25T10:36:50.064Z</time></trkpt><trkpt lat="37.1590883" lon="-4.2118183"><ele>501.0</ele><time>2026-04-25T10:36:51.059Z</time></trkpt><trkpt lat="37.15916" lon="-4.21214"><ele>504.0</ele><time>2026-04-25T10:36:52.06Z</time></trkpt><trkpt lat="37.1592167" lon="-4.2124683"><ele>507.0</ele><time>2026-04-25T10:36:53.063Z</time></trkpt><trkpt lat="37.15926" lon="-4.2127967"><ele>507.0</ele><time>2026-04-25T10:36:54.063Z</time></trkpt><trkpt lat="37.1592883" lon="-4.213125"><ele>507.0</ele><time>2026-04-25T10:36:55.064Z</time></trkpt><trkpt lat="37.1592983" lon="-4.213455"><ele>510.0</ele><time>2026-04-25T10:36:56.064Z</time></trkpt><trkpt lat="37.1592983" lon="-4.2137817"><ele>513.0</ele><time>2026-04-25T10:36:57.064Z</time></trkpt><trkpt lat="37.159285" lon="-4.2141067"><ele>515.5</ele><time>2026-04-25T10:36:58.06Z</time></trkpt><trkpt lat="37.1592533" lon="-4.2144417"><ele>518.0</ele><time>2026-04-25T10:36:59.063Z</time></trkpt><trkpt lat="37.15921" lon="-4.2147817"><ele>522.5</ele><time>2026-04-25T10:37:00.063Z</time></trkpt><trkpt lat="37.15915" lon="-4.2151183"><ele>527.0</ele><time>2026-04-25T10:37:01.062Z</time></trkpt><trkpt lat="37.159075" lon="-4.215455"><ele>524.5</ele><time>2026-04-25T10:37:02.069Z</time></trkpt><trkpt lat="37.1589833" lon="-4.2157867"><ele>522.0</ele><time>2026-04-25T10:37:03.067Z</time></trkpt><trkpt lat="37.1588733" lon="-4.2161167"><ele>522.0</ele><time>2026-04-25T10:37:04.065Z</time></trkpt><trkpt lat="37.1587417" lon="-4.21644"><ele>522.0</ele><time>2026-04-25T10:37:05.061Z</time></trkpt><trkpt lat="37.1585967" lon="-4.2167533"><ele>524.5</ele><time>2026-04-25T10:37:06.066Z</time></trkpt><trkpt lat="37.1584367" lon="-4.2170583"><ele>527.0</ele><time>2026-04-25T10:37:07.063Z</time></trkpt><trkpt lat="37.158265" lon="-4.2173583"><ele>528.5</ele><time>2026-04-25T10:37:08.064Z</time></trkpt><trkpt lat="37.15809" lon="-4.2176533"><ele>530.0</ele><time>2026-04-25T10:37:09.067Z</time></trkpt><trkpt lat="37.157905" lon="-4.2179417"><ele>536.0</ele><time>2026-04-25T10:37:10.063Z</time></trkpt><trkpt lat="37.1577183" lon="-4.21823"><ele>542.0</ele><time>2026-04-25T10:37:11.06Z</time></trkpt><trkpt lat="37.1575333" lon="-4.21852"><ele>540.0</ele><time>2026-04-25T10:37:12.061Z</time></trkpt><trkpt lat="37.15735" lon="-4.2188167"><ele>538.0</ele><time>2026-04-25T10:37:13.063Z</time></trkpt><trkpt lat="37.157175" lon="-4.2191217"><ele>538.0</ele><time>2026-04-25T10:37:14.065Z</time></trkpt><trkpt lat="37.157015" lon="-4.2194433"><ele>538.0</ele><time>2026-04-25T10:37:15.06Z</time></trkpt><trkpt lat="37.1568667" lon="-4.2197767"><ele>542.5</ele><time>2026-04-25T10:37:16.06Z</time></trkpt><trkpt lat="37.15673" lon="-4.22012"><ele>547.0</ele><time>2026-04-25T10:37:17.064Z</time></trkpt><trkpt lat="37.1566" lon="-4.2204683"><ele>548.0</ele><time>2026-04-25T10:37:18.064Z</time></trkpt><trkpt lat="37.156475" lon="-4.22082"><ele>549.0</ele><time>2026-04-25T10:37:19.065Z</time></trkpt><trkpt lat="37.1563517" lon="-4.2211783"><ele>552.0</ele><time>2026-04-25T10:37:20.062Z</time></trkpt><trkpt lat="37.1562267" lon="-4.22153"><ele>555.0</ele><time>2026-04-25T10:37:21.063Z</time></trkpt><trkpt lat="37.1560967" lon="-4.22188"><ele>555.0</ele><time>2026-04-25T10:37:22.06Z</time></trkpt><trkpt lat="37.1559633" lon="-4.222225"><ele>555.0</ele><time>2026-04-25T10:37:23.066Z</time></trkpt><trkpt lat="37.1558267" lon="-4.222565"><ele>556.0</ele><time>2026-04-25T10:37:24.061Z</time></trkpt><trkpt lat="37.1556817" lon="-4.2228983"><ele>557.0</ele><time>2026-04-25T10:37:25.064Z</time></trkpt><trkpt lat="37.1555233" lon="-4.22322"><ele>561.0</ele><time>2026-04-25T10:37:26.065Z</time></trkpt><trkpt lat="37.1553533" lon="-4.2235283"><ele>565.0</ele><time>2026-04-25T10:37:27.065Z</time></trkpt><trkpt lat="37.15517" lon="-4.223825"><ele>565.5</ele><time>2026-04-25T10:37:28.062Z</time></trkpt><trkpt lat="37.15498" lon="-4.2241083"><ele>566.0</ele><time>2026-04-25T10:37:29.06Z</time></trkpt><trkpt lat="37.1547767" lon="-4.2243783"><ele>566.0</ele><time>2026-04-25T10:37:30.063Z</time></trkpt><trkpt lat="37.1545633" lon="-4.22463"><ele>566.0</ele><time>2026-04-25T10:37:31.061Z</time></trkpt><trkpt lat="37.15434" lon="-4.2248667"><ele>570.0</ele><time>2026-04-25T10:37:32.068Z</time></trkpt><trkpt lat="37.15411" lon="-4.2250917"><ele>574.0</ele><time>2026-04-25T10:37:33.062Z</time></trkpt><trkpt lat="37.1538733" lon="-4.2253"><ele>576.0</ele><time>2026-04-25T10:37:34.067Z</time></trkpt><trkpt lat="37.153625" lon="-4.22548"><ele>578.0</ele><time>2026-04-25T10:37:35.064Z</time></trkpt><trkpt lat="37.1533717" lon="-4.22565"><ele>583.5</ele><time>2026-04-25T10:37:36.066Z</time></trkpt><trkpt lat="37.1531083" lon="-4.225785"><ele>589.0</ele><time>2026-04-25T10:37:37.063Z</time></trkpt><trkpt lat="37.1528367" lon="-4.2259017"><ele>589.0</ele><time>2026-04-25T10:37:38.062Z</time></trkpt><trkpt lat="37.1525633" lon="-4.226"><ele>589.0</ele><time>2026-04-25T10:37:39.061Z</time></trkpt><trkpt lat="37.1522833" lon="-4.22608"><ele>590.0</ele><time>2026-04-25T10:37:40.058Z</time></trkpt><trkpt lat="37.152" lon="-4.2261517"><ele>591.0</ele><time>2026-04-25T10:37:41.062Z</time></trkpt><trkpt lat="37.151715" lon="-4.2262083"><ele>590.5</ele><time>2026-04-25T10:37:42.062Z</time></trkpt><trkpt lat="37.15143" lon="-4.226265"><ele>590.0</ele><time>2026-04-25T10:37:43.066Z</time></trkpt><trkpt lat="37.1511433" lon="-4.22634"><ele>590.0</ele><time>2026-04-25T10:37:44.063Z</time></trkpt><trkpt lat="37.1508617" lon="-4.2264433"><ele>590.0</ele><time>2026-04-25T10:37:45.058Z</time></trkpt><trkpt lat="37.1505883" lon="-4.2265767"><ele>595.0</ele><time>2026-04-25T10:37:46.061Z</time></trkpt><trkpt lat="37.1503267" lon="-4.2267433"><ele>600.0</ele><time>2026-04-25T10:37:47.064Z</time></trkpt><trkpt lat="37.1500783" lon="-4.2269417"><ele>600.5</ele><time>2026-04-25T10:37:48.063Z</time></trkpt><trkpt lat="37.149845" lon="-4.227165"><ele>601.0</ele><time>2026-04-25T10:37:49.061Z</time></trkpt><trkpt lat="37.149635" lon="-4.2274133"><ele>604.0</ele><time>2026-04-25T10:37:50.067Z</time></trkpt><trkpt lat="37.1494417" lon="-4.227685"><ele>607.0</ele><time>2026-04-25T10:37:51.063Z</time></trkpt><trkpt lat="37.1492683" lon="-4.22798"><ele>609.0</ele><time>2026-04-25T10:37:52.063Z</time></trkpt><trkpt lat="37.1491117" lon="-4.2282883"><ele>611.0</ele><time>2026-04-25T10:37:53.062Z</time></trkpt><trkpt lat="37.14898" lon="-4.2286133"><ele>611.0</ele><time>2026-04-25T10:37:54.064Z</time></trkpt><trkpt lat="37.1488717" lon="-4.22895"><ele>611.0</ele><time>2026-04-25T10:37:55.061Z</time></trkpt><trkpt lat="37.1487883" lon="-4.2292983"><ele>610.0</ele><time>2026-04-25T10:37:56.066Z</time></trkpt><trkpt lat="37.14873" lon="-4.229655"><ele>609.0</ele><time>2026-04-25T10:37:57.06Z</time></trkpt><trkpt lat="37.1486917" lon="-4.2300167"><ele>613.5</ele><time>2026-04-25T10:37:58.062Z</time></trkpt><trkpt lat="37.1486567" lon="-4.2303817"><ele>618.0</ele><time>2026-04-25T10:37:59.061Z</time></trkpt><trkpt lat="37.148615" lon="-4.230745"><ele>618.5</ele><time>2026-04-25T10:38:00.06Z</time></trkpt><trkpt lat="37.1485583" lon="-4.2311017"><ele>619.0</ele><time>2026-04-25T10:38:01.058Z</time></trkpt><trkpt lat="37.14848" lon="-4.23145"><ele>620.5</ele><time>2026-04-25T10:38:02.065Z</time></trkpt><trkpt lat="37.1483733" lon="-4.2317867"><ele>622.0</ele><time>2026-04-25T10:38:03.058Z</time></trkpt><trkpt lat="37.1482433" lon="-4.2321117"><ele>626.5</ele><time>2026-04-25T10:38:04.061Z</time></trkpt><trkpt lat="37.1480917" lon="-4.2324233"><ele>631.0</ele><time>2026-04-25T10:38:05.062Z</time></trkpt><trkpt lat="37.1479233" lon="-4.2327183"><ele>631.0</ele><time>2026-04-25T10:38:06.06Z</time></trkpt><trkpt lat="37.1477367" lon="-4.2329967"><ele>631.0</ele><time>2026-04-25T10:38:07.061Z</time></trkpt><trkpt lat="37.1475333" lon="-4.2332567"><ele>634.5</ele><time>2026-04-25T10:38:08.066Z</time></trkpt><trkpt lat="37.1473183" lon="-4.2335033"><ele>638.0</ele><time>2026-04-25T10:38:09.064Z</time></trkpt><trkpt lat="37.147095" lon="-4.233745"><ele>640.5</ele><time>2026-04-25T10:38:10.062Z</time></trkpt><trkpt lat="37.146875" lon="-4.233985"><ele>643.0</ele><time>2026-04-25T10:38:11.061Z</time></trkpt><trkpt lat="37.14666" lon="-4.2342367"><ele>638.5</ele><time>2026-04-25T10:38:12.061Z</time></trkpt><trkpt lat="37.1464617" lon="-4.2345067"><ele>634.0</ele><time>2026-04-25T10:38:13.06Z</time></trkpt><trkpt lat="37.14628" lon="-4.234795"><ele>638.5</ele><time>2026-04-25T10:38:14.059Z</time></trkpt><trkpt lat="37.146115" lon="-4.2351033"><ele>643.0</ele><time>2026-04-25T10:38:15.059Z</time></trkpt><trkpt lat="37.1459683" lon="-4.2354267"><ele>646.0</ele><time>2026-04-25T10:38:16.064Z</time></trkpt><trkpt lat="37.1458383" lon="-4.235765"><ele>649.0</ele><time>2026-04-25T10:38:17.06Z</time></trkpt><trkpt lat="37.145725" lon="-4.2361133"><ele>649.5</ele><time>2026-04-25T10:38:18.058Z</time></trkpt><trkpt lat="37.14563" lon="-4.2364683"><ele>650.0</ele><time>2026-04-25T10:38:19.061Z</time></trkpt><trkpt lat="37.1455567" lon="-4.23683"><ele>651.0</ele><time>2026-04-25T10:38:20.061Z</time></trkpt><trkpt lat="37.145505" lon="-4.2371983"><ele>652.0</ele><time>2026-04-25T10:38:21.068Z</time></trkpt><trkpt lat="37.1454767" lon="-4.23757"><ele>652.0</ele><time>2026-04-25T10:38:22.059Z</time></trkpt><trkpt lat="37.14547" lon="-4.237945"><ele>652.0</ele><time>2026-04-25T10:38:23.06Z</time></trkpt><trkpt lat="37.1454883" lon="-4.2383183"><ele>653.0</ele><time>2026-04-25T10:38:24.061Z</time></trkpt><trkpt lat="37.14553" lon="-4.2386933"><ele>654.0</ele><time>2026-04-25T10:38:25.062Z</time></trkpt><trkpt lat="37.1455867" lon="-4.2390633"><ele>654.0</ele><time>2026-04-25T10:38:26.061Z</time></trkpt><trkpt lat="37.1456517" lon="-4.2394333"><ele>654.0</ele><time>2026-04-25T10:38:27.058Z</time></trkpt><trkpt lat="37.1457183" lon="-4.2398033"><ele>658.5</ele><time>2026-04-25T10:38:28.062Z</time></trkpt><trkpt lat="37.1457833" lon="-4.2401717"><ele>663.0</ele><time>2026-04-25T10:38:29.063Z</time></trkpt><trkpt lat="37.1458333" lon="-4.240545"><ele>664.5</ele><time>2026-04-25T10:38:30.063Z</time></trkpt><trkpt lat="37.14586" lon="-4.24092"><ele>666.0</ele><time>2026-04-25T10:38:31.063Z</time></trkpt><trkpt lat="37.14586" lon="-4.2413"><ele>669.0</ele><time>2026-04-25T10:38:32.065Z</time></trkpt><trkpt lat="37.1458417" lon="-4.24168"><ele>672.0</ele><time>2026-04-25T10:38:33.062Z</time></trkpt><trkpt lat="37.1458067" lon="-4.2420583"><ele>674.0</ele><time>2026-04-25T10:38:34.068Z</time></trkpt><trkpt lat="37.1457667" lon="-4.242435"><ele>676.0</ele><time>2026-04-25T10:38:35.062Z</time></trkpt><trkpt lat="37.145725" lon="-4.24281"><ele>677.0</ele><time>2026-04-25T10:38:36.06Z</time></trkpt><trkpt lat="37.1456833" lon="-4.24319"><ele>678.0</ele><time>2026-04-25T10:38:37.066Z</time></trkpt><trkpt lat="37.1456533" lon="-4.24357"><ele>678.0</ele><time>2026-04-25T10:38:38.063Z</time></trkpt><trkpt lat="37.1456433" lon="-4.2439517"><ele>678.0</ele><time>2026-04-25T10:38:39.065Z</time></trkpt><trkpt lat="37.1456583" lon="-4.2443317"><ele>680.5</ele><time>2026-04-25T10:38:40.066Z</time></trkpt><trkpt lat="37.14569" lon="-4.2447083"><ele>683.0</ele><time>2026-04-25T10:38:41.064Z</time></trkpt><trkpt lat="37.1457433" lon="-4.245085"><ele>689.0</ele><time>2026-04-25T10:38:42.065Z</time></trkpt><trkpt lat="37.1458083" lon="-4.2454583"><ele>695.0</ele><time>2026-04-25T10:38:43.063Z</time></trkpt><trkpt lat="37.145885" lon="-4.2458317"><ele>695.0</ele><time>2026-04-25T10:38:44.06Z</time></trkpt><trkpt lat="37.1459683" lon="-4.2462017"><ele>695.0</ele><time>2026-04-25T10:38:45.06Z</time></trkpt><trkpt lat="37.1460583" lon="-4.2465683"><ele>697.5</ele><time>2026-04-25T10:38:46.058Z</time></trkpt><trkpt lat="37.1461467" lon="-4.2469333"><ele>700.0</ele><time>2026-04-25T10:38:47.058Z</time></trkpt><trkpt lat="37.14623" lon="-4.2473"><ele>703.0</ele><time>2026-04-25T10:38:48.063Z</time></trkpt><trkpt lat="37.1463033" lon="-4.2476667"><ele>706.0</ele><time>2026-04-25T10:38:49.061Z</time></trkpt><trkpt lat="37.1463667" lon="-4.2480383"><ele>710.5</ele><time>2026-04-25T10:38:50.065Z</time></trkpt><trkpt lat="37.1464233" lon="-4.2484133"><ele>715.0</ele><time>2026-04-25T10:38:51.062Z</time></trkpt><trkpt lat="37.14647" lon="-4.2487883"><ele>714.5</ele><time>2026-04-25T10:38:52.061Z</time></trkpt><trkpt lat="37.1465117" lon="-4.2491617"><ele>714.0</ele><time>2026-04-25T10:38:53.062Z</time></trkpt><trkpt lat="37.1465483" lon="-4.249535"><ele>715.0</ele><time>2026-04-25T10:38:54.062Z</time></trkpt><trkpt lat="37.1465783" lon="-4.249915"><ele>716.0</ele><time>2026-04-25T10:38:55.066Z</time></trkpt><trkpt lat="37.1465983" lon="-4.2502933"><ele>717.0</ele><time>2026-04-25T10:38:56.063Z</time></trkpt><trkpt lat="37.1466083" lon="-4.250675"><ele>718.0</ele><time>2026-04-25T10:38:57.062Z</time></trkpt><trkpt lat="37.1466017" lon="-4.251055"><ele>718.0</ele><time>2026-04-25T10:38:58.06Z</time></trkpt><trkpt lat="37.1465883" lon="-4.2514367"><ele>718.0</ele><time>2026-04-25T10:38:59.062Z</time></trkpt><trkpt lat="37.146565" lon="-4.25182"><ele>720.5</ele><time>2026-04-25T10:39:00.061Z</time></trkpt><trkpt lat="37.1465383" lon="-4.252205"><ele>723.0</ele><time>2026-04-25T10:39:01.06Z</time></trkpt><trkpt lat="37.1465067" lon="-4.25259"><ele>723.0</ele><time>2026-04-25T10:39:02.061Z</time></trkpt><trkpt lat="37.146465" lon="-4.25297"><ele>723.0</ele><time>2026-04-25T10:39:03.061Z</time></trkpt><trkpt lat="37.1464117" lon="-4.2533483"><ele>724.0</ele><time>2026-04-25T10:39:04.06Z</time></trkpt><trkpt lat="37.1463517" lon="-4.2537283"><ele>725.0</ele><time>2026-04-25T10:39:05.061Z</time></trkpt><trkpt lat="37.14628" lon="-4.2541083"><ele>726.0</ele><time>2026-04-25T10:39:06.062Z</time></trkpt><trkpt lat="37.1462017" lon="-4.2544833"><ele>727.0</ele><time>2026-04-25T10:39:07.062Z</time></trkpt><trkpt lat="37.1461133" lon="-4.2548533"><ele>727.0</ele><time>2026-04-25T10:39:08.065Z</time></trkpt><trkpt lat="37.1460183" lon="-4.2552183"><ele>727.0</ele><time>2026-04-25T10:39:09.063Z</time></trkpt><trkpt lat="37.145915" lon="-4.25558"><ele>727.0</ele><time>2026-04-25T10:39:10.061Z</time></trkpt><trkpt lat="37.1458083" lon="-4.2559383"><ele>727.0</ele><time>2026-04-25T10:39:11.061Z</time></trkpt><trkpt lat="37.1456917" lon="-4.2562917"><ele>727.0</ele><time>2026-04-25T10:39:12.064Z</time></trkpt><trkpt lat="37.1455683" lon="-4.25664"><ele>727.0</ele><time>2026-04-25T10:39:13.061Z</time></trkpt><trkpt lat="37.1454367" lon="-4.2569833"><ele>726.5</ele><time>2026-04-25T10:39:14.063Z</time></trkpt><trkpt lat="37.1452967" lon="-4.25732"><ele>726.0</ele><time>2026-04-25T10:39:15.06Z</time></trkpt><trkpt lat="37.1451517" lon="-4.2576467"><ele>726.0</ele><time>2026-04-25T10:39:16.058Z</time></trkpt><trkpt lat="37.1450067" lon="-4.2579717"><ele>726.0</ele><time>2026-04-25T10:39:17.057Z</time></trkpt><trkpt lat="37.1448617" lon="-4.2582917"><ele>728.0</ele><time>2026-04-25T10:39:18.064Z</time></trkpt><trkpt lat="37.144715" lon="-4.2586117"><ele>730.0</ele><time>2026-04-25T10:39:19.059Z</time></trkpt><trkpt lat="37.1445683" lon="-4.25893"><ele>729.5</ele><time>2026-04-25T10:39:20.061Z</time></trkpt><trkpt lat="37.1444283" lon="-4.2592533"><ele>729.0</ele><time>2026-04-25T10:39:21.059Z</time></trkpt><trkpt lat="37.1442967" lon="-4.2595817"><ele>728.5</ele><time>2026-04-25T10:39:22.059Z</time></trkpt><trkpt lat="37.1441767" lon="-4.259915"><ele>728.0</ele><time>2026-04-25T10:39:23.06Z</time></trkpt><trkpt lat="37.144065" lon="-4.26025"><ele>729.0</ele><time>2026-04-25T10:39:24.059Z</time></trkpt><trkpt lat="37.143965" lon="-4.2605933"><ele>730.0</ele><time>2026-04-25T10:39:25.061Z</time></trkpt><trkpt lat="37.1438717" lon="-4.26094"><ele>730.0</ele><time>2026-04-25T10:39:26.06Z</time></trkpt><trkpt lat="37.1437867" lon="-4.2612867"><ele>730.0</ele><time>2026-04-25T10:39:27.062Z</time></trkpt><trkpt lat="37.14371" lon="-4.261635"><ele>731.5</ele><time>2026-04-25T10:39:28.061Z</time></trkpt><trkpt lat="37.1436433" lon="-4.261985"><ele>733.0</ele><time>2026-04-25T10:39:29.063Z</time></trkpt><trkpt lat="37.1435833" lon="-4.262335"><ele>733.5</ele><time>2026-04-25T10:39:30.064Z</time></trkpt><trkpt lat="37.143525" lon="-4.2626883"><ele>734.0</ele><time>2026-04-25T10:39:31.06Z</time></trkpt><trkpt lat="37.14347" lon="-4.2630417"><ele>734.0</ele><time>2026-04-25T10:39:32.067Z</time></trkpt><trkpt lat="37.143415" lon="-4.263395"><ele>734.0</ele><time>2026-04-25T10:39:33.059Z</time></trkpt><trkpt lat="37.1433583" lon="-4.2637467"><ele>734.5</ele><time>2026-04-25T10:39:34.059Z</time></trkpt><trkpt lat="37.1433" lon="-4.2640967"><ele>735.0</ele><time>2026-04-25T10:39:35.063Z</time></trkpt><trkpt lat="37.1432367" lon="-4.2644417"><ele>738.0</ele><time>2026-04-25T10:39:36.062Z</time></trkpt><trkpt lat="37.1431667" lon="-4.264785"><ele>741.0</ele><time>2026-04-25T10:39:37.062Z</time></trkpt><trkpt lat="37.143095" lon="-4.2651317"><ele>741.0</ele><time>2026-04-25T10:39:38.059Z</time></trkpt><trkpt lat="37.1430183" lon="-4.26548"><ele>741.0</ele><time>2026-04-25T10:39:39.062Z</time></trkpt><trkpt lat="37.1429367" lon="-4.2658267"><ele>742.0</ele><time>2026-04-25T10:39:40.061Z</time></trkpt><trkpt lat="37.14285" lon="-4.2661733"><ele>743.0</ele><time>2026-04-25T10:39:41.062Z</time></trkpt><trkpt lat="37.142755" lon="-4.2665167"><ele>744.5</ele><time>2026-04-25T10:39:42.06Z</time></trkpt><trkpt lat="37.1426517" lon="-4.2668567"><ele>746.0</ele><time>2026-04-25T10:39:43.06Z</time></trkpt><trkpt lat="37.1425417" lon="-4.2671933"><ele>746.5</ele><time>2026-04-25T10:39:44.064Z</time></trkpt><trkpt lat="37.142425" lon="-4.26753"><ele>747.0</ele><time>2026-04-25T10:39:45.06Z</time></trkpt><trkpt lat="37.142305" lon="-4.2678667"><ele>750.0</ele><time>2026-04-25T10:39:46.059Z</time></trkpt><trkpt lat="37.142175" lon="-4.2681983"><ele>753.0</ele><time>2026-04-25T10:39:47.057Z</time></trkpt><trkpt lat="37.1420433" lon="-4.2685317"><ele>753.0</ele><time>2026-04-25T10:39:48.061Z</time></trkpt><trkpt lat="37.14191" lon="-4.2688633"><ele>753.0</ele><time>2026-04-25T10:39:49.062Z</time></trkpt><trkpt lat="37.1417767" lon="-4.269195"><ele>753.5</ele><time>2026-04-25T10:39:50.064Z</time></trkpt><trkpt lat="37.141645" lon="-4.26953"><ele>754.0</ele><time>2026-04-25T10:39:51.06Z</time></trkpt><trkpt lat="37.1415217" lon="-4.26987"><ele>754.0</ele><time>2026-04-25T10:39:52.062Z</time></trkpt><trkpt lat="37.141395" lon="-4.27021"><ele>754.0</ele><time>2026-04-25T10:39:53.06Z</time></trkpt><trkpt lat="37.1412717" lon="-4.2705483"><ele>754.0</ele><time>2026-04-25T10:39:54.064Z</time></trkpt><trkpt lat="37.14115" lon="-4.2708883"><ele>754.0</ele><time>2026-04-25T10:39:55.062Z</time></trkpt><trkpt lat="37.14103" lon="-4.2712317"><ele>753.0</ele><time>2026-04-25T10:39:56.063Z</time></trkpt><trkpt lat="37.1409133" lon="-4.2715767"><ele>752.0</ele><time>2026-04-25T10:39:57.064Z</time></trkpt><trkpt lat="37.1408" lon="-4.2719217"><ele>754.0</ele><time>2026-04-25T10:39:58.061Z</time></trkpt><trkpt lat="37.1406867" lon="-4.2722683"><ele>756.0</ele><time>2026-04-25T10:39:59.061Z</time></trkpt><trkpt lat="37.1405783" lon="-4.272615"><ele>756.0</ele><time>2026-04-25T10:40:00.06Z</time></trkpt><trkpt lat="37.1404717" lon="-4.2729617"><ele>756.0</ele><time>2026-04-25T10:40:01.061Z</time></trkpt><trkpt lat="37.14037" lon="-4.2733083"><ele>755.0</ele><time>2026-04-25T10:40:02.068Z</time></trkpt><trkpt lat="37.14027" lon="-4.2736567"><ele>754.0</ele><time>2026-04-25T10:40:03.063Z</time></trkpt><trkpt lat="37.1401683" lon="-4.2740117"><ele>752.0</ele><time>2026-04-25T10:40:04.059Z</time></trkpt><trkpt lat="37.1400667" lon="-4.2743683"><ele>750.0</ele><time>2026-04-25T10:40:05.06Z</time></trkpt><trkpt lat="37.1399617" lon="-4.2747217"><ele>749.0</ele><time>2026-04-25T10:40:06.061Z</time></trkpt><trkpt lat="37.1398517" lon="-4.2750733"><ele>748.0</ele><time>2026-04-25T10:40:07.057Z</time></trkpt><trkpt lat="37.1397383" lon="-4.275425"><ele>747.0</ele><time>2026-04-25T10:40:08.059Z</time></trkpt><trkpt lat="37.1396233" lon="-4.2757783"><ele>746.0</ele><time>2026-04-25T10:40:09.063Z</time></trkpt><trkpt lat="37.1395083" lon="-4.27613"><ele>743.5</ele><time>2026-04-25T10:40:10.06Z</time></trkpt><trkpt lat="37.1393883" lon="-4.2764783"><ele>741.0</ele><time>2026-04-25T10:40:11.059Z</time></trkpt><trkpt lat="37.139255" lon="-4.2768167"><ele>741.0</ele><time>2026-04-25T10:40:12.062Z</time></trkpt><trkpt lat="37.1391183" lon="-4.27715"><ele>741.0</ele><time>2026-04-25T10:40:13.064Z</time></trkpt><trkpt lat="37.1389767" lon="-4.2774733"><ele>736.5</ele><time>2026-04-25T10:40:14.061Z</time></trkpt><trkpt lat="37.1388317" lon="-4.2777867"><ele>732.0</ele><time>2026-04-25T10:40:15.058Z</time></trkpt><trkpt lat="37.1386833" lon="-4.2780917"><ele>730.5</ele><time>2026-04-25T10:40:16.058Z</time></trkpt><trkpt lat="37.1385317" lon="-4.2783933"><ele>729.0</ele><time>2026-04-25T10:40:17.061Z</time></trkpt><trkpt lat="37.13838" lon="-4.2786917"><ele>727.0</ele><time>2026-04-25T10:40:18.062Z</time></trkpt><trkpt lat="37.1382283" lon="-4.27898"><ele>725.0</ele><time>2026-04-25T10:40:19.062Z</time></trkpt><trkpt lat="37.1380783" lon="-4.27926"><ele>725.0</ele><time>2026-04-25T10:40:20.062Z</time></trkpt><trkpt lat="37.1379333" lon="-4.2795283"><ele>725.0</ele><time>2026-04-25T10:40:21.058Z</time></trkpt><trkpt lat="37.1377883" lon="-4.2797933"><ele>725.0</ele><time>2026-04-25T10:40:22.058Z</time></trkpt><trkpt lat="37.1376417" lon="-4.2800567"><ele>725.0</ele><time>2026-04-25T10:40:23.065Z</time></trkpt><trkpt lat="37.137495" lon="-4.28032"><ele>726.5</ele><time>2026-04-25T10:40:24.06Z</time></trkpt><trkpt lat="37.1373483" lon="-4.2805833"><ele>728.0</ele><time>2026-04-25T10:40:25.065Z</time></trkpt><trkpt lat="37.137195" lon="-4.2808517"><ele>728.0</ele><time>2026-04-25T10:40:26.062Z</time></trkpt><trkpt lat="37.1370367" lon="-4.2811183"><ele>728.0</ele><time>2026-04-25T10:40:27.061Z</time></trkpt><trkpt lat="37.1368767" lon="-4.2813817"><ele>726.0</ele><time>2026-04-25T10:40:28.064Z</time></trkpt><trkpt lat="37.1367183" lon="-4.2816467"><ele>724.0</ele><time>2026-04-25T10:40:29.06Z</time></trkpt><trkpt lat="37.1365633" lon="-4.28191"><ele>726.5</ele><time>2026-04-25T10:40:30.062Z</time></trkpt><trkpt lat="37.1364083" lon="-4.2821717"><ele>729.0</ele><time>2026-04-25T10:40:31.061Z</time></trkpt><trkpt lat="37.1362517" lon="-4.2824333"><ele>729.0</ele><time>2026-04-25T10:40:32.06Z</time></trkpt><trkpt lat="37.136095" lon="-4.28269"><ele>729.0</ele><time>2026-04-25T10:40:33.059Z</time></trkpt><trkpt lat="37.1359367" lon="-4.2829433"><ele>726.5</ele><time>2026-04-25T10:40:34.058Z</time></trkpt><trkpt lat="37.135775" lon="-4.2831917"><ele>724.0</ele><time>2026-04-25T10:40:35.059Z</time></trkpt><trkpt lat="37.1356067" lon="-4.2834333"><ele>724.0</ele><time>2026-04-25T10:40:36.063Z</time></trkpt><trkpt lat="37.1354317" lon="-4.2836633"><ele>724.0</ele><time>2026-04-25T10:40:37.059Z</time></trkpt><trkpt lat="37.13525" lon="-4.28388"><ele>724.0</ele><time>2026-04-25T10:40:38.059Z</time></trkpt><trkpt lat="37.1350633" lon="-4.284085"><ele>724.0</ele><time>2026-04-25T10:40:39.062Z</time></trkpt><trkpt lat="37.1348733" lon="-4.28428"><ele>724.0</ele><time>2026-04-25T10:40:40.061Z</time></trkpt><trkpt lat="37.1346783" lon="-4.284465"><ele>724.0</ele><time>2026-04-25T10:40:41.062Z</time></trkpt><trkpt lat="37.1344833" lon="-4.28464"><ele>722.0</ele><time>2026-04-25T10:40:42.06Z</time></trkpt><trkpt lat="37.134285" lon="-4.2848067"><ele>720.0</ele><time>2026-04-25T10:40:43.062Z</time></trkpt><trkpt lat="37.1340867" lon="-4.2849617"><ele>723.0</ele><time>2026-04-25T10:40:44.064Z</time></trkpt><trkpt lat="37.1338917" lon="-4.2851083"><ele>726.0</ele><time>2026-04-25T10:40:45.067Z</time></trkpt><trkpt lat="37.1336967" lon="-4.2852533"><ele>726.0</ele><time>2026-04-25T10:40:46.06Z</time></trkpt><trkpt lat="37.1334983" lon="-4.2853983"><ele>726.0</ele><time>2026-04-25T10:40:47.061Z</time></trkpt><trkpt lat="37.1333017" lon="-4.2855483"><ele>727.0</ele><time>2026-04-25T10:40:48.063Z</time></trkpt><trkpt lat="37.13311" lon="-4.2857167"><ele>728.0</ele><time>2026-04-25T10:40:49.066Z</time></trkpt><trkpt lat="37.1329283" lon="-4.2858983"><ele>728.0</ele><time>2026-04-25T10:40:50.065Z</time></trkpt><trkpt lat="37.132755" lon="-4.2860967"><ele>728.0</ele><time>2026-04-25T10:40:51.064Z</time></trkpt><trkpt lat="37.1325883" lon="-4.2863083"><ele>727.5</ele><time>2026-04-25T10:40:52.058Z</time></trkpt><trkpt lat="37.1324317" lon="-4.286535"><ele>727.0</ele><time>2026-04-25T10:40:53.061Z</time></trkpt><trkpt lat="37.13228" lon="-4.2867783"><ele>727.0</ele><time>2026-04-25T10:40:54.06Z</time></trkpt><trkpt lat="37.132135" lon="-4.287035"><ele>727.0</ele><time>2026-04-25T10:40:55.059Z</time></trkpt><trkpt lat="37.131995" lon="-4.2873"><ele>728.0</ele><time>2026-04-25T10:40:56.058Z</time></trkpt><trkpt lat="37.1318583" lon="-4.287575"><ele>729.0</ele><time>2026-04-25T10:40:57.061Z</time></trkpt><trkpt lat="37.1317233" lon="-4.2878567"><ele>728.5</ele><time>2026-04-25T10:40:58.057Z</time></trkpt><trkpt lat="37.13159" lon="-4.2881467"><ele>728.0</ele><time>2026-04-25T10:40:59.058Z</time></trkpt><trkpt lat="37.1314517" lon="-4.2884383"><ele>728.0</ele><time>2026-04-25T10:41:00.057Z</time></trkpt><trkpt lat="37.1313167" lon="-4.288735"><ele>728.0</ele><time>2026-04-25T10:41:01.062Z</time></trkpt><trkpt lat="37.1311767" lon="-4.2890283"><ele>726.0</ele><time>2026-04-25T10:41:02.061Z</time></trkpt><trkpt lat="37.1310283" lon="-4.2893133"><ele>724.0</ele><time>2026-04-25T10:41:03.061Z</time></trkpt><trkpt lat="37.1308683" lon="-4.2895833"><ele>723.5</ele><time>2026-04-25T10:41:04.059Z</time></trkpt><trkpt lat="37.130695" lon="-4.2898383"><ele>723.0</ele><time>2026-04-25T10:41:05.059Z</time></trkpt><trkpt lat="37.13051" lon="-4.29008"><ele>723.0</ele><time>2026-04-25T10:41:06.061Z</time></trkpt><trkpt lat="37.130315" lon="-4.2903067"><ele>723.0</ele><time>2026-04-25T10:41:07.063Z</time></trkpt><trkpt lat="37.1301083" lon="-4.2905167"><ele>722.5</ele><time>2026-04-25T10:41:08.06Z</time></trkpt><trkpt lat="37.129895" lon="-4.29071"><ele>722.0</ele><time>2026-04-25T10:41:09.064Z</time></trkpt><trkpt lat="37.1296733" lon="-4.2908883"><ele>722.0</ele><time>2026-04-25T10:41:10.062Z</time></trkpt><trkpt lat="37.129445" lon="-4.29105"><ele>722.0</ele><time>2026-04-25T10:41:11.063Z</time></trkpt><trkpt lat="37.1292067" lon="-4.2911933"><ele>725.0</ele><time>2026-04-25T10:41:12.063Z</time></trkpt><trkpt lat="37.1289617" lon="-4.2913183"><ele>728.0</ele><time>2026-04-25T10:41:13.062Z</time></trkpt><trkpt lat="37.1287083" lon="-4.291425"><ele>730.5</ele><time>2026-04-25T10:41:14.062Z</time></trkpt><trkpt lat="37.12845" lon="-4.2915117"><ele>733.0</ele><time>2026-04-25T10:41:15.059Z</time></trkpt><trkpt lat="37.1281867" lon="-4.2915817"><ele>735.0</ele><time>2026-04-25T10:41:16.061Z</time></trkpt><trkpt lat="37.12792" lon="-4.2916333"><ele>737.0</ele><time>2026-04-25T10:41:17.066Z</time></trkpt><trkpt lat="37.1276517" lon="-4.291665"><ele>737.5</ele><time>2026-04-25T10:41:18.06Z</time></trkpt><trkpt lat="37.1273767" lon="-4.2916767"><ele>738.0</ele><time>2026-04-25T10:41:19.064Z</time></trkpt><trkpt lat="37.1270983" lon="-4.291675"><ele>738.0</ele><time>2026-04-25T10:41:20.063Z</time></trkpt><trkpt lat="37.1268167" lon="-4.2916683"><ele>738.0</ele><time>2026-04-25T10:41:21.062Z</time></trkpt><trkpt lat="37.1265333" lon="-4.2916617"><ele>740.5</ele><time>2026-04-25T10:41:22.059Z</time></trkpt><trkpt lat="37.1262483" lon="-4.2916617"><ele>743.0</ele><time>2026-04-25T10:41:23.061Z</time></trkpt><trkpt lat="37.125965" lon="-4.2916717"><ele>744.5</ele><time>2026-04-25T10:41:24.061Z</time></trkpt><trkpt lat="37.1256833" lon="-4.291695"><ele>746.0</ele><time>2026-04-25T10:41:25.062Z</time></trkpt><trkpt lat="37.1254033" lon="-4.2917333"><ele>746.0</ele><time>2026-04-25T10:41:26.061Z</time></trkpt><trkpt lat="37.1251217" lon="-4.2917883"><ele>746.0</ele><time>2026-04-25T10:41:27.06Z</time></trkpt><trkpt lat="37.1248417" lon="-4.2918533"><ele>747.5</ele><time>2026-04-25T10:41:28.063Z</time></trkpt><trkpt lat="37.1245583" lon="-4.2919317"><ele>749.0</ele><time>2026-04-25T10:41:29.063Z</time></trkpt><trkpt lat="37.12428" lon="-4.2920233"><ele>750.0</ele><time>2026-04-25T10:41:30.062Z</time></trkpt><trkpt lat="37.1240017" lon="-4.2921317"><ele>751.0</ele><time>2026-04-25T10:41:31.061Z</time></trkpt><trkpt lat="37.1237267" lon="-4.292255"><ele>752.0</ele><time>2026-04-25T10:41:32.061Z</time></trkpt><trkpt lat="37.1234533" lon="-4.2923967"><ele>753.0</ele><time>2026-04-25T10:41:33.06Z</time></trkpt><trkpt lat="37.1231867" lon="-4.2925517"><ele>758.0</ele><time>2026-04-25T10:41:34.058Z</time></trkpt><trkpt lat="37.1229217" lon="-4.2927117"><ele>763.0</ele><time>2026-04-25T10:41:35.061Z</time></trkpt><trkpt lat="37.1226583" lon="-4.2928767"><ele>764.0</ele><time>2026-04-25T10:41:36.063Z</time></trkpt><trkpt lat="37.1223967" lon="-4.29304"><ele>765.0</ele><time>2026-04-25T10:41:37.061Z</time></trkpt><trkpt lat="37.1221333" lon="-4.2932"><ele>763.0</ele><time>2026-04-25T10:41:38.061Z</time></trkpt><trkpt lat="37.1218717" lon="-4.2933617"><ele>761.0</ele><time>2026-04-25T10:41:39.058Z</time></trkpt><trkpt lat="37.121615" lon="-4.2935333"><ele>761.0</ele><time>2026-04-25T10:41:40.057Z</time></trkpt><trkpt lat="37.1213617" lon="-4.2937117"><ele>761.0</ele><time>2026-04-25T10:41:41.059Z</time></trkpt><trkpt lat="37.1211117" lon="-4.2939"><ele>761.5</ele><time>2026-04-25T10:41:42.06Z</time></trkpt><trkpt lat="37.1208683" lon="-4.2941"><ele>762.0</ele><time>2026-04-25T10:41:43.062Z</time></trkpt><trkpt lat="37.1206283" lon="-4.294305"><ele>762.0</ele><time>2026-04-25T10:41:44.062Z</time></trkpt><trkpt lat="37.1203883" lon="-4.294515"><ele>762.0</ele><time>2026-04-25T10:41:45.057Z</time></trkpt><trkpt lat="37.12015" lon="-4.29473"><ele>762.0</ele><time>2026-04-25T10:41:46.059Z</time></trkpt><trkpt lat="37.11992" lon="-4.2949617"><ele>762.0</ele><time>2026-04-25T10:41:47.062Z</time></trkpt><trkpt lat="37.1196983" lon="-4.2952033"><ele>762.0</ele><time>2026-04-25T10:41:48.063Z</time></trkpt><trkpt lat="37.1194817" lon="-4.2954533"><ele>762.0</ele><time>2026-04-25T10:41:49.059Z</time></trkpt><trkpt lat="37.119265" lon="-4.295705"><ele>760.5</ele><time>2026-04-25T10:41:50.059Z</time></trkpt><trkpt lat="37.1190517" lon="-4.2959567"><ele>759.0</ele><time>2026-04-25T10:41:51.063Z</time></trkpt><trkpt lat="37.11884" lon="-4.296215"><ele>758.5</ele><time>2026-04-25T10:41:52.06Z</time></trkpt><trkpt lat="37.1186317" lon="-4.2964767"><ele>758.0</ele><time>2026-04-25T10:41:53.06Z</time></trkpt><trkpt lat="37.11843" lon="-4.2967417"><ele>759.5</ele><time>2026-04-25T10:41:54.061Z</time></trkpt><trkpt lat="37.1182333" lon="-4.2970133"><ele>761.0</ele><time>2026-04-25T10:41:55.063Z</time></trkpt><trkpt lat="37.11804" lon="-4.29729"><ele>761.0</ele><time>2026-04-25T10:41:56.068Z</time></trkpt><trkpt lat="37.1178517" lon="-4.2975717"><ele>761.0</ele><time>2026-04-25T10:41:57.069Z</time></trkpt><trkpt lat="37.1176717" lon="-4.2978617"><ele>760.5</ele><time>2026-04-25T10:41:58.061Z</time></trkpt><trkpt lat="37.117495" lon="-4.2981533"><ele>760.0</ele><time>2026-04-25T10:41:59.061Z</time></trkpt><trkpt lat="37.11732" lon="-4.2984467"><ele>759.5</ele><time>2026-04-25T10:42:00.058Z</time></trkpt><trkpt lat="37.1171467" lon="-4.298745"><ele>759.0</ele><time>2026-04-25T10:42:01.061Z</time></trkpt><trkpt lat="37.1169733" lon="-4.2990433"><ele>759.0</ele><time>2026-04-25T10:42:02.062Z</time></trkpt><trkpt lat="37.1167967" lon="-4.2993417"><ele>759.0</ele><time>2026-04-25T10:42:03.062Z</time></trkpt><trkpt lat="37.1166183" lon="-4.29964"><ele>759.5</ele><time>2026-04-25T10:42:04.061Z</time></trkpt><trkpt lat="37.11644" lon="-4.2999367"><ele>760.0</ele><time>2026-04-25T10:42:05.059Z</time></trkpt><trkpt lat="37.11626" lon="-4.30023"><ele>760.0</ele><time>2026-04-25T10:42:06.062Z</time></trkpt><trkpt lat="37.1160783" lon="-4.300525"><ele>760.0</ele><time>2026-04-25T10:42:07.059Z</time></trkpt><trkpt lat="37.1158967" lon="-4.300815"><ele>761.0</ele><time>2026-04-25T10:42:08.061Z</time></trkpt><trkpt lat="37.1157133" lon="-4.3011033"><ele>762.0</ele><time>2026-04-25T10:42:09.06Z</time></trkpt><trkpt lat="37.11553" lon="-4.3013883"><ele>762.0</ele><time>2026-04-25T10:42:10.06Z</time></trkpt><trkpt lat="37.115345" lon="-4.3016733"><ele>762.0</ele><time>2026-04-25T10:42:11.064Z</time></trkpt><trkpt lat="37.115155" lon="-4.3019517"><ele>762.0</ele><time>2026-04-25T10:42:12.059Z</time></trkpt><trkpt lat="37.1149633" lon="-4.3022283"><ele>762.0</ele><time>2026-04-25T10:42:13.061Z</time></trkpt><trkpt lat="37.1147767" lon="-4.3025017"><ele>763.5</ele><time>2026-04-25T10:42:14.06Z</time></trkpt><trkpt lat="37.1145883" lon="-4.3027767"><ele>765.0</ele><time>2026-04-25T10:42:15.064Z</time></trkpt><trkpt lat="37.114395" lon="-4.30305"><ele>765.5</ele><time>2026-04-25T10:42:16.062Z</time></trkpt><trkpt lat="37.1142017" lon="-4.3033217"><ele>766.0</ele><time>2026-04-25T10:42:17.061Z</time></trkpt><trkpt lat="37.1140033" lon="-4.303595"><ele>766.0</ele><time>2026-04-25T10:42:18.061Z</time></trkpt><trkpt lat="37.1138017" lon="-4.30386"><ele>766.0</ele><time>2026-04-25T10:42:19.063Z</time></trkpt><trkpt lat="37.1135983" lon="-4.3041217"><ele>767.5</ele><time>2026-04-25T10:42:20.058Z</time></trkpt><trkpt lat="37.1133917" lon="-4.3043833"><ele>769.0</ele><time>2026-04-25T10:42:21.063Z</time></trkpt><trkpt lat="37.113185" lon="-4.3046433"><ele>766.5</ele><time>2026-04-25T10:42:22.061Z</time></trkpt><trkpt lat="37.112975" lon="-4.3049017"><ele>764.0</ele><time>2026-04-25T10:42:23.066Z</time></trkpt><trkpt lat="37.1127633" lon="-4.30516"><ele>764.0</ele><time>2026-04-25T10:42:24.064Z</time></trkpt><trkpt lat="37.1125517" lon="-4.3054167"><ele>764.0</ele><time>2026-04-25T10:42:25.062Z</time></trkpt><trkpt lat="37.1123367" lon="-4.3056717"><ele>764.5</ele><time>2026-04-25T10:42:26.065Z</time></trkpt><trkpt lat="37.11212" lon="-4.3059233"><ele>765.0</ele><time>2026-04-25T10:42:27.06Z</time></trkpt><trkpt lat="37.1119" lon="-4.3061783"><ele>764.0</ele><time>2026-04-25T10:42:28.062Z</time></trkpt><trkpt lat="37.111675" lon="-4.30643"><ele>763.0</ele><time>2026-04-25T10:42:29.063Z</time></trkpt><trkpt lat="37.1114483" lon="-4.3066817"><ele>763.0</ele><time>2026-04-25T10:42:30.059Z</time></trkpt><trkpt lat="37.111215" lon="-4.3069317"><ele>763.0</ele><time>2026-04-25T10:42:31.061Z</time></trkpt><trkpt lat="37.1109817" lon="-4.3071783"><ele>763.0</ele><time>2026-04-25T10:42:32.06Z</time></trkpt><trkpt lat="37.110745" lon="-4.3074233"><ele>763.0</ele><time>2026-04-25T10:42:33.064Z</time></trkpt><trkpt lat="37.1105067" lon="-4.307665"><ele>763.0</ele><time>2026-04-25T10:42:34.059Z</time></trkpt><trkpt lat="37.1102633" lon="-4.3079083"><ele>763.0</ele><time>2026-04-25T10:42:35.063Z</time></trkpt><trkpt lat="37.11002" lon="-4.3081483"><ele>762.5</ele><time>2026-04-25T10:42:36.062Z</time></trkpt><trkpt lat="37.1097767" lon="-4.3083883"><ele>762.0</ele><time>2026-04-25T10:42:37.059Z</time></trkpt><trkpt lat="37.1095317" lon="-4.3086267"><ele>762.0</ele><time>2026-04-25T10:42:38.062Z</time></trkpt><trkpt lat="37.109285" lon="-4.3088633"><ele>762.0</ele><time>2026-04-25T10:42:39.061Z</time></trkpt><trkpt lat="37.1090333" lon="-4.3090933"><ele>762.5</ele><time>2026-04-25T10:42:40.06Z</time></trkpt><trkpt lat="37.10878" lon="-4.3093217"><ele>763.0</ele><time>2026-04-25T10:42:41.061Z</time></trkpt><trkpt lat="37.108525" lon="-4.3095483"><ele>762.0</ele><time>2026-04-25T10:42:42.063Z</time></trkpt><trkpt lat="37.1082683" lon="-4.3097733"><ele>761.0</ele><time>2026-04-25T10:42:43.065Z</time></trkpt><trkpt lat="37.10801" lon="-4.309995"><ele>761.0</ele><time>2026-04-25T10:42:44.06Z</time></trkpt><trkpt lat="37.1077483" lon="-4.3102167"><ele>761.0</ele><time>2026-04-25T10:42:45.06Z</time></trkpt><trkpt lat="37.1074867" lon="-4.310435"><ele>760.5</ele><time>2026-04-25T10:42:46.061Z</time></trkpt><trkpt lat="37.1072217" lon="-4.3106533"><ele>760.0</ele><time>2026-04-25T10:42:47.062Z</time></trkpt><trkpt lat="37.106955" lon="-4.3108683"><ele>760.0</ele><time>2026-04-25T10:42:48.062Z</time></trkpt><trkpt lat="37.106685" lon="-4.31108"><ele>760.0</ele><time>2026-04-25T10:42:49.059Z</time></trkpt><trkpt lat="37.1064117" lon="-4.3112867"><ele>759.0</ele><time>2026-04-25T10:42:50.061Z</time></trkpt><trkpt lat="37.1061383" lon="-4.3114917"><ele>758.0</ele><time>2026-04-25T10:42:51.063Z</time></trkpt><trkpt lat="37.1058617" lon="-4.311695"><ele>758.0</ele><time>2026-04-25T10:42:52.064Z</time></trkpt><trkpt lat="37.1055817" lon="-4.3118933"><ele>758.0</ele><time>2026-04-25T10:42:53.061Z</time></trkpt><trkpt lat="37.1053017" lon="-4.3120917"><ele>757.5</ele><time>2026-04-25T10:42:54.06Z</time></trkpt><trkpt lat="37.1050217" lon="-4.3122883"><ele>757.0</ele><time>2026-04-25T10:42:55.059Z</time></trkpt><trkpt lat="37.1047383" lon="-4.3124833"><ele>757.0</ele><time>2026-04-25T10:42:56.063Z</time></trkpt><trkpt lat="37.104455" lon="-4.312675"><ele>757.0</ele><time>2026-04-25T10:42:57.061Z</time></trkpt><trkpt lat="37.1041683" lon="-4.3128583"><ele>757.5</ele><time>2026-04-25T10:42:58.06Z</time></trkpt><trkpt lat="37.1038817" lon="-4.3130383"><ele>758.0</ele><time>2026-04-25T10:42:59.065Z</time></trkpt><trkpt lat="37.1035933" lon="-4.313215"><ele>756.0</ele><time>2026-04-25T10:43:00.06Z</time></trkpt><trkpt lat="37.1033033" lon="-4.3133883"><ele>754.0</ele><time>2026-04-25T10:43:01.06Z</time></trkpt><trkpt lat="37.1030117" lon="-4.3135617"><ele>754.0</ele><time>2026-04-25T10:43:02.063Z</time></trkpt><trkpt lat="37.1027233" lon="-4.3137317"><ele>754.0</ele><time>2026-04-25T10:43:03.062Z</time></trkpt><trkpt lat="37.102435" lon="-4.313895"><ele>754.0</ele><time>2026-04-25T10:43:04.061Z</time></trkpt><trkpt lat="37.1021467" lon="-4.3140533"><ele>754.0</ele><time>2026-04-25T10:43:05.066Z</time></trkpt><trkpt lat="37.10186" lon="-4.31421"><ele>753.0</ele><time>2026-04-25T10:43:06.064Z</time></trkpt><trkpt lat="37.1015717" lon="-4.3143617"><ele>752.0</ele><time>2026-04-25T10:43:07.063Z</time></trkpt><trkpt lat="37.1012833" lon="-4.3145083"><ele>752.0</ele><time>2026-04-25T10:43:08.062Z</time></trkpt><trkpt lat="37.100995" lon="-4.31465"><ele>752.0</ele><time>2026-04-25T10:43:09.06Z</time></trkpt><trkpt lat="37.100705" lon="-4.3147833"><ele>751.5</ele><time>2026-04-25T10:43:10.061Z</time></trkpt><trkpt lat="37.1004133" lon="-4.3149033"><ele>751.0</ele><time>2026-04-25T10:43:11.061Z</time></trkpt><trkpt lat="37.10012" lon="-4.3150117"><ele>750.5</ele><time>2026-04-25T10:43:12.064Z</time></trkpt><trkpt lat="37.099825" lon="-4.31511"><ele>750.0</ele><time>2026-04-25T10:43:13.062Z</time></trkpt><trkpt lat="37.099525" lon="-4.315205"><ele>750.0</ele><time>2026-04-25T10:43:14.065Z</time></trkpt><trkpt lat="37.0992233" lon="-4.3152933"><ele>750.0</ele><time>2026-04-25T10:43:15.059Z</time></trkpt><trkpt lat="37.0989217" lon="-4.315375"><ele>749.5</ele><time>2026-04-25T10:43:16.06Z</time></trkpt><trkpt lat="37.0986183" lon="-4.3154483"><ele>749.0</ele><time>2026-04-25T10:43:17.059Z</time></trkpt><trkpt lat="37.0983167" lon="-4.3155133"><ele>749.0</ele><time>2026-04-25T10:43:18.06Z</time></trkpt><trkpt lat="37.098015" lon="-4.3155683"><ele>749.0</ele><time>2026-04-25T10:43:19.059Z</time></trkpt><trkpt lat="37.0977133" lon="-4.3156167"><ele>748.5</ele><time>2026-04-25T10:43:20.059Z</time></trkpt><trkpt lat="37.09741" lon="-4.3156583"><ele>748.0</ele><time>2026-04-25T10:43:21.06Z</time></trkpt><trkpt lat="37.0971067" lon="-4.3156933"><ele>748.0</ele><time>2026-04-25T10:43:22.06Z</time></trkpt><trkpt lat="37.0968033" lon="-4.3157217"><ele>748.0</ele><time>2026-04-25T10:43:23.06Z</time></trkpt><trkpt lat="37.0965017" lon="-4.315745"><ele>747.0</ele><time>2026-04-25T10:43:24.063Z</time></trkpt><trkpt lat="37.0962017" lon="-4.3157667"><ele>746.0</ele><time>2026-04-25T10:43:25.061Z</time></trkpt><trkpt lat="37.0959" lon="-4.3157917"><ele>745.5</ele><time>2026-04-25T10:43:26.061Z</time></trkpt><trkpt lat="37.0955983" lon="-4.3158117"><ele>745.0</ele><time>2026-04-25T10:43:27.064Z</time></trkpt><trkpt lat="37.0952983" lon="-4.3158233"><ele>745.0</ele><time>2026-04-25T10:43:28.062Z</time></trkpt><trkpt lat="37.094995" lon="-4.3158267"><ele>745.0</ele><time>2026-04-25T10:43:29.061Z</time></trkpt><trkpt lat="37.0946933" lon="-4.3158283"><ele>744.5</ele><time>2026-04-25T10:43:30.06Z</time></trkpt><trkpt lat="37.0943917" lon="-4.3158267"><ele>744.0</ele><time>2026-04-25T10:43:31.063Z</time></trkpt><trkpt lat="37.0940883" lon="-4.315825"><ele>743.5</ele><time>2026-04-25T10:43:32.061Z</time></trkpt><trkpt lat="37.0937867" lon="-4.3158217"><ele>743.0</ele><time>2026-04-25T10:43:33.059Z</time></trkpt><trkpt lat="37.0934867" lon="-4.31582"><ele>744.0</ele><time>2026-04-25T10:43:34.059Z</time></trkpt><trkpt lat="37.0931833" lon="-4.31582"><ele>745.0</ele><time>2026-04-25T10:43:35.06Z</time></trkpt><trkpt lat="37.09288" lon="-4.31582"><ele>745.0</ele><time>2026-04-25T10:43:36.058Z</time></trkpt><trkpt lat="37.0925783" lon="-4.3158167"><ele>745.0</ele><time>2026-04-25T10:43:37.059Z</time></trkpt><trkpt lat="37.0922767" lon="-4.3158117"><ele>743.5</ele><time>2026-04-25T10:43:38.065Z</time></trkpt><trkpt lat="37.0919733" lon="-4.3158083"><ele>742.0</ele><time>2026-04-25T10:43:39.059Z</time></trkpt><trkpt lat="37.09167" lon="-4.3158067"><ele>742.0</ele><time>2026-04-25T10:43:40.061Z</time></trkpt><trkpt lat="37.091365" lon="-4.3158083"><ele>742.0</ele><time>2026-04-25T10:43:41.057Z</time></trkpt><trkpt lat="37.0910583" lon="-4.3158133"><ele>741.5</ele><time>2026-04-25T10:43:42.059Z</time></trkpt><trkpt lat="37.0907517" lon="-4.31582"><ele>741.0</ele><time>2026-04-25T10:43:43.058Z</time></trkpt><trkpt lat="37.0904433" lon="-4.3158317"><ele>741.0</ele><time>2026-04-25T10:43:44.059Z</time></trkpt><trkpt lat="37.0901367" lon="-4.31585"><ele>741.0</ele><time>2026-04-25T10:43:45.058Z</time></trkpt><trkpt lat="37.0898283" lon="-4.3158767"><ele>741.0</ele><time>2026-04-25T10:43:46.06Z</time></trkpt><trkpt lat="37.08952" lon="-4.3159117"><ele>741.0</ele><time>2026-04-25T10:43:47.06Z</time></trkpt><trkpt lat="37.08921" lon="-4.31595"><ele>739.5</ele><time>2026-04-25T10:43:48.067Z</time></trkpt><trkpt lat="37.0889" lon="-4.3159967"><ele>738.0</ele><time>2026-04-25T10:43:49.062Z</time></trkpt><trkpt lat="37.0885933" lon="-4.3160517"><ele>738.0</ele><time>2026-04-25T10:43:50.063Z</time></trkpt><trkpt lat="37.0882883" lon="-4.3161133"><ele>738.0</ele><time>2026-04-25T10:43:51.061Z</time></trkpt><trkpt lat="37.087985" lon="-4.3161833"><ele>738.0</ele><time>2026-04-25T10:43:52.065Z</time></trkpt><trkpt lat="37.0876817" lon="-4.316255"><ele>738.0</ele><time>2026-04-25T10:43:53.062Z</time></trkpt><trkpt lat="37.0873783" lon="-4.3163283"><ele>738.0</ele><time>2026-04-25T10:43:54.063Z</time></trkpt><trkpt lat="37.0870767" lon="-4.3163983"><ele>738.0</ele><time>2026-04-25T10:43:55.064Z</time></trkpt><trkpt lat="37.0867717" lon="-4.31646"><ele>737.0</ele><time>2026-04-25T10:43:56.062Z</time></trkpt><trkpt lat="37.0864667" lon="-4.3165167"><ele>736.0</ele><time>2026-04-25T10:43:57.061Z</time></trkpt><trkpt lat="37.08616" lon="-4.3165633"><ele>736.0</ele><time>2026-04-25T10:43:58.062Z</time></trkpt><trkpt lat="37.0858533" lon="-4.316605"><ele>736.0</ele><time>2026-04-25T10:43:59.061Z</time></trkpt><trkpt lat="37.085545" lon="-4.31664"><ele>736.0</ele><time>2026-04-25T10:44:00.06Z</time></trkpt><trkpt lat="37.0852367" lon="-4.3166667"><ele>736.0</ele><time>2026-04-25T10:44:01.058Z</time></trkpt><trkpt lat="37.0849267" lon="-4.31669"><ele>736.0</ele><time>2026-04-25T10:44:02.059Z</time></trkpt><trkpt lat="37.084615" lon="-4.3167183"><ele>736.0</ele><time>2026-04-25T10:44:03.063Z</time></trkpt><trkpt lat="37.0843067" lon="-4.316755"><ele>735.5</ele><time>2026-04-25T10:44:04.058Z</time></trkpt><trkpt lat="37.0839983" lon="-4.3168"><ele>735.0</ele><time>2026-04-25T10:44:05.061Z</time></trkpt><trkpt lat="37.0836933" lon="-4.31686"><ele>735.0</ele><time>2026-04-25T10:44:06.062Z</time></trkpt><trkpt lat="37.0833867" lon="-4.3169317"><ele>735.0</ele><time>2026-04-25T10:44:07.059Z</time></trkpt><trkpt lat="37.0830833" lon="-4.3170183"><ele>735.0</ele><time>2026-04-25T10:44:08.062Z</time></trkpt><trkpt lat="37.0827817" lon="-4.3171117"><ele>735.0</ele><time>2026-04-25T10:44:09.06Z</time></trkpt><trkpt lat="37.08248" lon="-4.31721"><ele>735.0</ele><time>2026-04-25T10:44:10.062Z</time></trkpt><trkpt lat="37.0821783" lon="-4.31731"><ele>735.0</ele><time>2026-04-25T10:44:11.058Z</time></trkpt><trkpt lat="37.0818817" lon="-4.3174117"><ele>735.5</ele><time>2026-04-25T10:44:12.061Z</time></trkpt><trkpt lat="37.0815817" lon="-4.31751"><ele>736.0</ele><time>2026-04-25T10:44:13.06Z</time></trkpt><trkpt lat="37.0812833" lon="-4.3176083"><ele>736.0</ele><time>2026-04-25T10:44:14.061Z</time></trkpt><trkpt lat="37.080985" lon="-4.3177067"><ele>736.0</ele><time>2026-04-25T10:44:15.059Z</time></trkpt><trkpt lat="37.0806867" lon="-4.3178067"><ele>735.0</ele><time>2026-04-25T10:44:16.062Z</time></trkpt><trkpt lat="37.0803917" lon="-4.3179117"><ele>734.0</ele><time>2026-04-25T10:44:17.057Z</time></trkpt><trkpt lat="37.080095" lon="-4.318015"><ele>734.5</ele><time>2026-04-25T10:44:18.059Z</time></trkpt><trkpt lat="37.0797983" lon="-4.3181217"><ele>735.0</ele><time>2026-04-25T10:44:19.061Z</time></trkpt><trkpt lat="37.0795017" lon="-4.3182333"><ele>735.0</ele><time>2026-04-25T10:44:20.064Z</time></trkpt><trkpt lat="37.0792033" lon="-4.3183483"><ele>735.0</ele><time>2026-04-25T10:44:21.064Z</time></trkpt><trkpt lat="37.0789067" lon="-4.3184683"><ele>733.5</ele><time>2026-04-25T10:44:22.06Z</time></trkpt><trkpt lat="37.0786117" lon="-4.318595"><ele>732.0</ele><time>2026-04-25T10:44:23.062Z</time></trkpt><trkpt lat="37.0783167" lon="-4.3187267"><ele>732.5</ele><time>2026-04-25T10:44:24.061Z</time></trkpt><trkpt lat="37.0780233" lon="-4.318865"><ele>733.0</ele><time>2026-04-25T10:44:25.062Z</time></trkpt><trkpt lat="37.0777317" lon="-4.31901"><ele>733.0</ele><time>2026-04-25T10:44:26.063Z</time></trkpt><trkpt lat="37.0774417" lon="-4.31916"><ele>733.0</ele><time>2026-04-25T10:44:27.061Z</time></trkpt><trkpt lat="37.0771533" lon="-4.3193133"><ele>733.0</ele><time>2026-04-25T10:44:28.061Z</time></trkpt><trkpt lat="37.0768667" lon="-4.31947"><ele>733.0</ele><time>2026-04-25T10:44:29.06Z</time></trkpt><trkpt lat="37.0765817" lon="-4.319635"><ele>733.5</ele><time>2026-04-25T10:44:30.062Z</time></trkpt><trkpt lat="37.0762983" lon="-4.3198067"><ele>734.0</ele><time>2026-04-25T10:44:31.064Z</time></trkpt><trkpt lat="37.076015" lon="-4.3199817"><ele>734.5</ele><time>2026-04-25T10:44:32.063Z</time></trkpt><trkpt lat="37.0757333" lon="-4.3201633"><ele>735.0</ele><time>2026-04-25T10:44:33.06Z</time></trkpt><trkpt lat="37.0754517" lon="-4.320345"><ele>735.0</ele><time>2026-04-25T10:44:34.059Z</time></trkpt><trkpt lat="37.0751667" lon="-4.3205233"><ele>735.0</ele><time>2026-04-25T10:44:35.059Z</time></trkpt><trkpt lat="37.0748833" lon="-4.32071"><ele>734.5</ele><time>2026-04-25T10:44:36.061Z</time></trkpt><trkpt lat="37.074605" lon="-4.3209067"><ele>734.0</ele><time>2026-04-25T10:44:37.063Z</time></trkpt><trkpt lat="37.0743283" lon="-4.321115"><ele>734.0</ele><time>2026-04-25T10:44:38.064Z</time></trkpt><trkpt lat="37.0740567" lon="-4.32133"><ele>734.0</ele><time>2026-04-25T10:44:39.063Z</time></trkpt><trkpt lat="37.0737867" lon="-4.3215517"><ele>734.0</ele><time>2026-04-25T10:44:40.062Z</time></trkpt><trkpt lat="37.0735233" lon="-4.3217833"><ele>734.0</ele><time>2026-04-25T10:44:41.062Z</time></trkpt><trkpt lat="37.07327" lon="-4.3220267"><ele>734.0</ele><time>2026-04-25T10:44:42.06Z</time></trkpt><trkpt lat="37.0730217" lon="-4.3222733"><ele>734.0</ele><time>2026-04-25T10:44:43.064Z</time></trkpt><trkpt lat="37.0727783" lon="-4.322515"><ele>734.0</ele><time>2026-04-25T10:44:44.062Z</time></trkpt><trkpt lat="37.0725367" lon="-4.3227517"><ele>734.0</ele><time>2026-04-25T10:44:45.067Z</time></trkpt><trkpt lat="37.0722967" lon="-4.3229867"><ele>734.5</ele><time>2026-04-25T10:44:46.066Z</time></trkpt><trkpt lat="37.07206" lon="-4.32322"><ele>735.0</ele><time>2026-04-25T10:44:47.063Z</time></trkpt><trkpt lat="37.0718283" lon="-4.323455"><ele>735.5</ele><time>2026-04-25T10:44:48.059Z</time></trkpt><trkpt lat="37.0716" lon="-4.3236933"><ele>736.0</ele><time>2026-04-25T10:44:49.06Z</time></trkpt><trkpt lat="37.0713767" lon="-4.32393"><ele>736.0</ele><time>2026-04-25T10:44:50.063Z</time></trkpt><trkpt lat="37.071155" lon="-4.324165"><ele>736.0</ele><time>2026-04-25T10:44:51.06Z</time></trkpt><trkpt lat="37.0709383" lon="-4.3244067"><ele>735.5</ele><time>2026-04-25T10:44:52.061Z</time></trkpt><trkpt lat="37.0707267" lon="-4.3246483"><ele>735.0</ele><time>2026-04-25T10:44:53.061Z</time></trkpt><trkpt lat="37.0705183" lon="-4.3248933"><ele>733.5</ele><time>2026-04-25T10:44:54.06Z</time></trkpt><trkpt lat="37.0703117" lon="-4.3251417"><ele>732.0</ele><time>2026-04-25T10:44:55.059Z</time></trkpt><trkpt lat="37.070105" lon="-4.32539"><ele>732.5</ele><time>2026-04-25T10:44:56.059Z</time></trkpt><trkpt lat="37.0699017" lon="-4.3256433"><ele>733.0</ele><time>2026-04-25T10:44:57.059Z</time></trkpt><trkpt lat="37.0697017" lon="-4.3258967"><ele>733.0</ele><time>2026-04-25T10:44:58.059Z</time></trkpt><trkpt lat="37.069505" lon="-4.3261533"><ele>733.0</ele><time>2026-04-25T10:44:59.062Z</time></trkpt><trkpt lat="37.06931" lon="-4.3264133"><ele>733.5</ele><time>2026-04-25T10:45:00.062Z</time></trkpt><trkpt lat="37.0691183" lon="-4.3266767"><ele>734.0</ele><time>2026-04-25T10:45:01.06Z</time></trkpt><trkpt lat="37.0689283" lon="-4.3269417"><ele>733.5</ele><time>2026-04-25T10:45:02.062Z</time></trkpt><trkpt lat="37.0687417" lon="-4.32721"><ele>733.0</ele><time>2026-04-25T10:45:03.059Z</time></trkpt><trkpt lat="37.06856" lon="-4.32748"><ele>733.0</ele><time>2026-04-25T10:45:04.059Z</time></trkpt><trkpt lat="37.0683833" lon="-4.327755"><ele>733.0</ele><time>2026-04-25T10:45:05.059Z</time></trkpt><trkpt lat="37.0682083" lon="-4.3280333"><ele>732.5</ele><time>2026-04-25T10:45:06.062Z</time></trkpt><trkpt lat="37.06804" lon="-4.3283183"><ele>732.0</ele><time>2026-04-25T10:45:07.061Z</time></trkpt><trkpt lat="37.0678833" lon="-4.3286117"><ele>731.5</ele><time>2026-04-25T10:45:08.06Z</time></trkpt><trkpt lat="37.0677317" lon="-4.3289133"><ele>731.0</ele><time>2026-04-25T10:45:09.058Z</time></trkpt><trkpt lat="37.06759" lon="-4.3292183"><ele>731.0</ele><time>2026-04-25T10:45:10.061Z</time></trkpt><trkpt lat="37.0674583" lon="-4.3295283"><ele>731.0</ele><time>2026-04-25T10:45:11.066Z</time></trkpt><trkpt lat="37.06733" lon="-4.3298417"><ele>730.5</ele><time>2026-04-25T10:45:12.062Z</time></trkpt><trkpt lat="37.0672083" lon="-4.3301567"><ele>730.0</ele><time>2026-04-25T10:45:13.062Z</time></trkpt><trkpt lat="37.067095" lon="-4.33048"><ele>732.5</ele><time>2026-04-25T10:45:14.061Z</time></trkpt><trkpt lat="37.06699" lon="-4.330805"><ele>735.0</ele><time>2026-04-25T10:45:15.061Z</time></trkpt><trkpt lat="37.0668933" lon="-4.331135"><ele>735.0</ele><time>2026-04-25T10:45:16.058Z</time></trkpt><trkpt lat="37.066805" lon="-4.3314683"><ele>735.0</ele><time>2026-04-25T10:45:17.063Z</time></trkpt><trkpt lat="37.066725" lon="-4.3318067"><ele>735.0</ele><time>2026-04-25T10:45:18.064Z</time></trkpt><trkpt lat="37.0666567" lon="-4.3321483"><ele>735.0</ele><time>2026-04-25T10:45:19.061Z</time></trkpt><trkpt lat="37.066595" lon="-4.332495"><ele>734.5</ele><time>2026-04-25T10:45:20.059Z</time></trkpt><trkpt lat="37.06654" lon="-4.332845"><ele>734.0</ele><time>2026-04-25T10:45:21.059Z</time></trkpt><trkpt lat="37.0664917" lon="-4.3331983"><ele>734.0</ele><time>2026-04-25T10:45:22.058Z</time></trkpt><trkpt lat="37.0664483" lon="-4.3335517"><ele>734.0</ele><time>2026-04-25T10:45:23.059Z</time></trkpt><trkpt lat="37.0664067" lon="-4.3339083"><ele>736.5</ele><time>2026-04-25T10:45:24.06Z</time></trkpt><trkpt lat="37.066365" lon="-4.334265"><ele>739.0</ele><time>2026-04-25T10:45:25.059Z</time></trkpt><trkpt lat="37.0663267" lon="-4.3346233"><ele>740.0</ele><time>2026-04-25T10:45:26.066Z</time></trkpt><trkpt lat="37.0662867" lon="-4.3349833"><ele>741.0</ele><time>2026-04-25T10:45:27.061Z</time></trkpt><trkpt lat="37.0662417" lon="-4.3353433"><ele>741.5</ele><time>2026-04-25T10:45:28.06Z</time></trkpt><trkpt lat="37.0661917" lon="-4.3357033"><ele>742.0</ele><time>2026-04-25T10:45:29.059Z</time></trkpt><trkpt lat="37.06614" lon="-4.3360617"><ele>743.0</ele><time>2026-04-25T10:45:30.063Z</time></trkpt><trkpt lat="37.066085" lon="-4.3364217"><ele>744.0</ele><time>2026-04-25T10:45:31.065Z</time></trkpt><trkpt lat="37.0660267" lon="-4.3367817"><ele>744.0</ele><time>2026-04-25T10:45:32.061Z</time></trkpt><trkpt lat="37.065965" lon="-4.3371417"><ele>744.0</ele><time>2026-04-25T10:45:33.064Z</time></trkpt><trkpt lat="37.0658967" lon="-4.3375033"><ele>744.0</ele><time>2026-04-25T10:45:34.06Z</time></trkpt><trkpt lat="37.065825" lon="-4.33786"><ele>744.0</ele><time>2026-04-25T10:45:35.064Z</time></trkpt><trkpt lat="37.065745" lon="-4.3382183"><ele>746.0</ele><time>2026-04-25T10:45:36.058Z</time></trkpt><trkpt lat="37.0656567" lon="-4.3385767"><ele>748.0</ele><time>2026-04-25T10:45:37.064Z</time></trkpt><trkpt lat="37.0655633" lon="-4.3389283"><ele>749.0</ele><time>2026-04-25T10:45:38.064Z</time></trkpt><trkpt lat="37.06546" lon="-4.3392783"><ele>750.0</ele><time>2026-04-25T10:45:39.062Z</time></trkpt><trkpt lat="37.0653517" lon="-4.339625"><ele>749.5</ele><time>2026-04-25T10:45:40.06Z</time></trkpt><trkpt lat="37.06524" lon="-4.339975"><ele>749.0</ele><time>2026-04-25T10:45:41.066Z</time></trkpt><trkpt lat="37.0651267" lon="-4.3403233"><ele>751.0</ele><time>2026-04-25T10:45:42.06Z</time></trkpt><trkpt lat="37.0650083" lon="-4.34067"><ele>753.0</ele><time>2026-04-25T10:45:43.057Z</time></trkpt><trkpt lat="37.06488" lon="-4.3410167"><ele>753.0</ele><time>2026-04-25T10:45:44.06Z</time></trkpt><trkpt lat="37.064745" lon="-4.34136"><ele>753.0</ele><time>2026-04-25T10:45:45.059Z</time></trkpt><trkpt lat="37.0646" lon="-4.3417017"><ele>751.0</ele><time>2026-04-25T10:45:46.06Z</time></trkpt><trkpt lat="37.0644483" lon="-4.3420417"><ele>749.0</ele><time>2026-04-25T10:45:47.057Z</time></trkpt><trkpt lat="37.06429" lon="-4.3423767"><ele>747.0</ele><time>2026-04-25T10:45:48.058Z</time></trkpt><trkpt lat="37.0641283" lon="-4.34271"><ele>745.0</ele><time>2026-04-25T10:45:49.059Z</time></trkpt><trkpt lat="37.06396" lon="-4.3430383"><ele>746.0</ele><time>2026-04-25T10:45:50.06Z</time></trkpt><trkpt lat="37.0637867" lon="-4.3433633"><ele>747.0</ele><time>2026-04-25T10:45:51.057Z</time></trkpt><trkpt lat="37.06361" lon="-4.343685"><ele>747.0</ele><time>2026-04-25T10:45:52.058Z</time></trkpt><trkpt lat="37.0634267" lon="-4.344005"><ele>747.0</ele><time>2026-04-25T10:45:53.06Z</time></trkpt><trkpt lat="37.0632383" lon="-4.3443217"><ele>747.0</ele><time>2026-04-25T10:45:54.06Z</time></trkpt><trkpt lat="37.0630483" lon="-4.3446367"><ele>747.0</ele><time>2026-04-25T10:45:55.063Z</time></trkpt><trkpt lat="37.062855" lon="-4.34495"><ele>744.0</ele><time>2026-04-25T10:45:56.062Z</time></trkpt><trkpt lat="37.0626583" lon="-4.3452583"><ele>741.0</ele><time>2026-04-25T10:45:57.062Z</time></trkpt><trkpt lat="37.06246" lon="-4.3455633"><ele>742.0</ele><time>2026-04-25T10:45:58.06Z</time></trkpt><trkpt lat="37.0622567" lon="-4.3458633"><ele>743.0</ele><time>2026-04-25T10:45:59.058Z</time></trkpt><trkpt lat="37.0620533" lon="-4.346165"><ele>742.5</ele><time>2026-04-25T10:46:00.063Z</time></trkpt><trkpt lat="37.0618483" lon="-4.346465"><ele>742.0</ele><time>2026-04-25T10:46:01.06Z</time></trkpt><trkpt lat="37.061645" lon="-4.3467633"><ele>742.0</ele><time>2026-04-25T10:46:02.06Z</time></trkpt><trkpt lat="37.0614417" lon="-4.3470617"><ele>742.0</ele><time>2026-04-25T10:46:03.06Z</time></trkpt><trkpt lat="37.06124" lon="-4.34736"><ele>742.0</ele><time>2026-04-25T10:46:04.062Z</time></trkpt><trkpt lat="37.0610367" lon="-4.34766"><ele>742.0</ele><time>2026-04-25T10:46:05.064Z</time></trkpt><trkpt lat="37.060835" lon="-4.3479617"><ele>742.5</ele><time>2026-04-25T10:46:06.061Z</time></trkpt><trkpt lat="37.060635" lon="-4.3482617"><ele>743.0</ele><time>2026-04-25T10:46:07.06Z</time></trkpt><trkpt lat="37.0604367" lon="-4.3485617"><ele>743.0</ele><time>2026-04-25T10:46:08.061Z</time></trkpt><trkpt lat="37.0602433" lon="-4.34886"><ele>743.0</ele><time>2026-04-25T10:46:09.059Z</time></trkpt><trkpt lat="37.0600533" lon="-4.34916"><ele>743.0</ele><time>2026-04-25T10:46:10.058Z</time></trkpt><trkpt lat="37.0598667" lon="-4.3494583"><ele>743.0</ele><time>2026-04-25T10:46:11.061Z</time></trkpt><trkpt lat="37.0596817" lon="-4.3497533"><ele>743.0</ele><time>2026-04-25T10:46:12.058Z</time></trkpt><trkpt lat="37.0594983" lon="-4.3500483"><ele>743.0</ele><time>2026-04-25T10:46:13.059Z</time></trkpt><trkpt lat="37.05932" lon="-4.350345"><ele>742.5</ele><time>2026-04-25T10:46:14.064Z</time></trkpt><trkpt lat="37.05914" lon="-4.3506417"><ele>742.0</ele><time>2026-04-25T10:46:15.063Z</time></trkpt><trkpt lat="37.0589633" lon="-4.3509367"><ele>743.0</ele><time>2026-04-25T10:46:16.061Z</time></trkpt><trkpt lat="37.0587883" lon="-4.351235"><ele>744.0</ele><time>2026-04-25T10:46:17.061Z</time></trkpt><trkpt lat="37.058615" lon="-4.3515333"><ele>744.0</ele><time>2026-04-25T10:46:18.062Z</time></trkpt><trkpt lat="37.0584417" lon="-4.3518317"><ele>744.0</ele><time>2026-04-25T10:46:19.06Z</time></trkpt><trkpt lat="37.0582667" lon="-4.3521283"><ele>745.0</ele><time>2026-04-25T10:46:20.062Z</time></trkpt><trkpt lat="37.0580933" lon="-4.3524283"><ele>746.0</ele><time>2026-04-25T10:46:21.061Z</time></trkpt><trkpt lat="37.05792" lon="-4.35273"><ele>746.0</ele><time>2026-04-25T10:46:22.061Z</time></trkpt><trkpt lat="37.05775" lon="-4.3530333"><ele>746.0</ele><time>2026-04-25T10:46:23.061Z</time></trkpt><trkpt lat="37.0575817" lon="-4.3533383"><ele>746.0</ele><time>2026-04-25T10:46:24.06Z</time></trkpt><trkpt lat="37.057415" lon="-4.353645"><ele>746.0</ele><time>2026-04-25T10:46:25.059Z</time></trkpt><trkpt lat="37.05725" lon="-4.3539533"><ele>746.0</ele><time>2026-04-25T10:46:26.06Z</time></trkpt><trkpt lat="37.057085" lon="-4.3542633"><ele>746.0</ele><time>2026-04-25T10:46:27.066Z</time></trkpt><trkpt lat="37.05692" lon="-4.3545767"><ele>746.0</ele><time>2026-04-25T10:46:28.066Z</time></trkpt><trkpt lat="37.0567583" lon="-4.3548867"><ele>746.0</ele><time>2026-04-25T10:46:29.061Z</time></trkpt><trkpt lat="37.0565967" lon="-4.3551983"><ele>746.0</ele><time>2026-04-25T10:46:30.062Z</time></trkpt><trkpt lat="37.0564367" lon="-4.3555117"><ele>746.0</ele><time>2026-04-25T10:46:31.06Z</time></trkpt><trkpt lat="37.05628" lon="-4.3558283"><ele>746.0</ele><time>2026-04-25T10:46:32.064Z</time></trkpt><trkpt lat="37.0561267" lon="-4.356145"><ele>746.0</ele><time>2026-04-25T10:46:33.065Z</time></trkpt><trkpt lat="37.055975" lon="-4.3564633"><ele>745.5</ele><time>2026-04-25T10:46:34.06Z</time></trkpt><trkpt lat="37.0558233" lon="-4.35678"><ele>745.0</ele><time>2026-04-25T10:46:35.059Z</time></trkpt><trkpt lat="37.0556733" lon="-4.3570967"><ele>747.0</ele><time>2026-04-25T10:46:36.06Z</time></trkpt><trkpt lat="37.055525" lon="-4.357415"><ele>749.0</ele><time>2026-04-25T10:46:37.064Z</time></trkpt><trkpt lat="37.0553767" lon="-4.357735"><ele>748.0</ele><time>2026-04-25T10:46:38.059Z</time></trkpt><trkpt lat="37.0552317" lon="-4.358055"><ele>747.0</ele><time>2026-04-25T10:46:39.058Z</time></trkpt><trkpt lat="37.0550867" lon="-4.358375"><ele>747.0</ele><time>2026-04-25T10:46:40.058Z</time></trkpt><trkpt lat="37.054945" lon="-4.3586933"><ele>747.0</ele><time>2026-04-25T10:46:41.06Z</time></trkpt><trkpt lat="37.054805" lon="-4.3590117"><ele>748.0</ele><time>2026-04-25T10:46:42.059Z</time></trkpt><trkpt lat="37.0546667" lon="-4.35933"><ele>749.0</ele><time>2026-04-25T10:46:43.061Z</time></trkpt><trkpt lat="37.0545317" lon="-4.35965"><ele>748.5</ele><time>2026-04-25T10:46:44.059Z</time></trkpt><trkpt lat="37.0543933" lon="-4.35997"><ele>748.0</ele><time>2026-04-25T10:46:45.059Z</time></trkpt><trkpt lat="37.0542583" lon="-4.36029"><ele>749.0</ele><time>2026-04-25T10:46:46.061Z</time></trkpt><trkpt lat="37.0541233" lon="-4.36061"><ele>750.0</ele><time>2026-04-25T10:46:47.063Z</time></trkpt><trkpt lat="37.0539883" lon="-4.3609317"><ele>750.0</ele><time>2026-04-25T10:46:48.06Z</time></trkpt><trkpt lat="37.0538533" lon="-4.3612533"><ele>750.0</ele><time>2026-04-25T10:46:49.063Z</time></trkpt><trkpt lat="37.0537233" lon="-4.3615767"><ele>750.5</ele><time>2026-04-25T10:46:50.061Z</time></trkpt><trkpt lat="37.0535983" lon="-4.3619033"><ele>751.0</ele><time>2026-04-25T10:46:51.06Z</time></trkpt><trkpt lat="37.0534723" lon="-4.3622304"><ele>751.0</ele><time>2026-04-25T10:46:52.063Z</time></trkpt><trkpt lat="37.053345" lon="-4.3625551"><ele>751.0</ele><time>2026-04-25T10:46:53.059Z</time></trkpt><trkpt lat="37.0532158" lon="-4.362882"><ele>749.5</ele><time>2026-04-25T10:46:54.061Z</time></trkpt><trkpt lat="37.0530872" lon="-4.3632074"><ele>748.0</ele><time>2026-04-25T10:46:55.059Z</time></trkpt><trkpt lat="37.0529611" lon="-4.3635358"><ele>748.0</ele><time>2026-04-25T10:46:56.062Z</time></trkpt><trkpt lat="37.0528356" lon="-4.3638624"><ele>748.0</ele><time>2026-04-25T10:46:57.071Z</time></trkpt><trkpt lat="37.0527126" lon="-4.3641857"><ele>748.0</ele><time>2026-04-25T10:46:58.062Z</time></trkpt><trkpt lat="37.0525912" lon="-4.3645128"><ele>748.0</ele><time>2026-04-25T10:46:59.064Z</time></trkpt><trkpt lat="37.0524675" lon="-4.3648389"><ele>749.0</ele><time>2026-04-25T10:47:00.061Z</time></trkpt><trkpt lat="37.0523437" lon="-4.3651659"><ele>750.0</ele><time>2026-04-25T10:47:01.061Z</time></trkpt><trkpt lat="37.052219" lon="-4.3654928"><ele>749.0</ele><time>2026-04-25T10:47:02.058Z</time></trkpt><trkpt lat="37.0520928" lon="-4.3658212"><ele>748.0</ele><time>2026-04-25T10:47:03.059Z</time></trkpt><trkpt lat="37.051965" lon="-4.3661497"><ele>748.5</ele><time>2026-04-25T10:47:04.061Z</time></trkpt><trkpt lat="37.051838" lon="-4.3664804"><ele>749.0</ele><time>2026-04-25T10:47:05.061Z</time></trkpt><trkpt lat="37.05171" lon="-4.3668086"><ele>749.0</ele><time>2026-04-25T10:47:06.061Z</time></trkpt><trkpt lat="37.0515819" lon="-4.3671363"><ele>749.0</ele><time>2026-04-25T10:47:07.058Z</time></trkpt><trkpt lat="37.0514508" lon="-4.3674648"><ele>749.0</ele><time>2026-04-25T10:47:08.064Z</time></trkpt><trkpt lat="37.0513208" lon="-4.3677934"><ele>749.0</ele><time>2026-04-25T10:47:09.058Z</time></trkpt><trkpt lat="37.0511905" lon="-4.3681225"><ele>748.5</ele><time>2026-04-25T10:47:10.059Z</time></trkpt><trkpt lat="37.0510591" lon="-4.3684512"><ele>748.0</ele><time>2026-04-25T10:47:11.061Z</time></trkpt><trkpt lat="37.0509286" lon="-4.3687798"><ele>748.0</ele><time>2026-04-25T10:47:12.064Z</time></trkpt><trkpt lat="37.0507988" lon="-4.3691062"><ele>748.0</ele><time>2026-04-25T10:47:13.058Z</time></trkpt><trkpt lat="37.0506649" lon="-4.3694325"><ele>749.5</ele><time>2026-04-25T10:47:14.06Z</time></trkpt><trkpt lat="37.0505281" lon="-4.3697569"><ele>751.0</ele><time>2026-04-25T10:47:15.06Z</time></trkpt><trkpt lat="37.0503912" lon="-4.370082"><ele>751.0</ele><time>2026-04-25T10:47:16.062Z</time></trkpt><trkpt lat="37.0502544" lon="-4.3704058"><ele>751.0</ele><time>2026-04-25T10:47:17.062Z</time></trkpt><trkpt lat="37.0501153" lon="-4.3707302"><ele>751.5</ele><time>2026-04-25T10:47:18.059Z</time></trkpt><trkpt lat="37.049968" lon="-4.3710538"><ele>752.0</ele><time>2026-04-25T10:47:19.061Z</time></trkpt><trkpt lat="37.0498115" lon="-4.3713722"><ele>754.5</ele><time>2026-04-25T10:47:20.058Z</time></trkpt><trkpt lat="37.0496512" lon="-4.3716898"><ele>757.0</ele><time>2026-04-25T10:47:21.061Z</time></trkpt><trkpt lat="37.049493" lon="-4.3720105"><ele>756.0</ele><time>2026-04-25T10:47:22.057Z</time></trkpt><trkpt lat="37.0493319" lon="-4.3723354"><ele>755.0</ele><time>2026-04-25T10:47:23.059Z</time></trkpt><trkpt lat="37.0491714" lon="-4.3726596"><ele>756.5</ele><time>2026-04-25T10:47:24.06Z</time></trkpt><trkpt lat="37.0490073" lon="-4.372983"><ele>758.0</ele><time>2026-04-25T10:47:25.058Z</time></trkpt><trkpt lat="37.0488402" lon="-4.3733036"><ele>758.0</ele><time>2026-04-25T10:47:26.058Z</time></trkpt><trkpt lat="37.0486716" lon="-4.3736271"><ele>758.0</ele><time>2026-04-25T10:47:27.057Z</time></trkpt><trkpt lat="37.0485027" lon="-4.3739512"><ele>757.0</ele><time>2026-04-25T10:47:28.06Z</time></trkpt><trkpt lat="37.0483259" lon="-4.3742713"><ele>756.0</ele><time>2026-04-25T10:47:29.06Z</time></trkpt><trkpt lat="37.0481414" lon="-4.374583"><ele>754.5</ele><time>2026-04-25T10:47:30.063Z</time></trkpt><trkpt lat="37.0479486" lon="-4.3748834"><ele>753.0</ele><time>2026-04-25T10:47:31.059Z</time></trkpt><trkpt lat="37.0477439" lon="-4.3751773"><ele>753.0</ele><time>2026-04-25T10:47:32.067Z</time></trkpt><trkpt lat="37.0475356" lon="-4.3754657"><ele>753.0</ele><time>2026-04-25T10:47:33.063Z</time></trkpt><trkpt lat="37.0473236" lon="-4.3757491"><ele>753.5</ele><time>2026-04-25T10:47:34.058Z</time></trkpt><trkpt lat="37.0471059" lon="-4.3760283"><ele>754.0</ele><time>2026-04-25T10:47:35.066Z</time></trkpt><trkpt lat="37.0468874" lon="-4.3762983"><ele>754.5</ele><time>2026-04-25T10:47:36.06Z</time></trkpt><trkpt lat="37.0466663" lon="-4.3765661"><ele>755.0</ele><time>2026-04-25T10:47:37.065Z</time></trkpt><trkpt lat="37.0464421" lon="-4.3768273"><ele>755.0</ele><time>2026-04-25T10:47:38.059Z</time></trkpt><trkpt lat="37.0462134" lon="-4.3770832"><ele>755.0</ele><time>2026-04-25T10:47:39.063Z</time></trkpt><trkpt lat="37.0459821" lon="-4.3773328"><ele>754.5</ele><time>2026-04-25T10:47:40.061Z</time></trkpt><trkpt lat="37.0457499" lon="-4.3775781"><ele>754.0</ele><time>2026-04-25T10:47:41.062Z</time></trkpt><trkpt lat="37.0455169" lon="-4.3778226"><ele>754.5</ele><time>2026-04-25T10:47:42.061Z</time></trkpt><trkpt lat="37.0452819" lon="-4.3780655"><ele>755.0</ele><time>2026-04-25T10:47:43.063Z</time></trkpt><trkpt lat="37.045044" lon="-4.3783029"><ele>755.0</ele><time>2026-04-25T10:47:44.063Z</time></trkpt><trkpt lat="37.0448069" lon="-4.378539"><ele>755.0</ele><time>2026-04-25T10:47:45.063Z</time></trkpt><trkpt lat="37.0445716" lon="-4.3787788"><ele>755.0</ele><time>2026-04-25T10:47:46.068Z</time></trkpt><trkpt lat="37.0443444" lon="-4.3790263"><ele>755.0</ele><time>2026-04-25T10:47:47.06Z</time></trkpt><trkpt lat="37.0441234" lon="-4.3792855"><ele>756.5</ele><time>2026-04-25T10:47:48.062Z</time></trkpt><trkpt lat="37.0439098" lon="-4.3795548"><ele>758.0</ele><time>2026-04-25T10:47:49.062Z</time></trkpt><trkpt lat="37.0437047" lon="-4.3798333"><ele>754.5</ele><time>2026-04-25T10:47:50.061Z</time></trkpt><trkpt lat="37.0435091" lon="-4.3801218"><ele>751.0</ele><time>2026-04-25T10:47:51.062Z</time></trkpt><trkpt lat="37.0433264" lon="-4.3804196"><ele>751.0</ele><time>2026-04-25T10:47:52.061Z</time></trkpt><trkpt lat="37.0431558" lon="-4.3807206"><ele>751.0</ele><time>2026-04-25T10:47:53.061Z</time></trkpt><trkpt lat="37.0429973" lon="-4.3810231"><ele>751.0</ele><time>2026-04-25T10:47:54.061Z</time></trkpt><trkpt lat="37.0428491" lon="-4.3813264"><ele>751.0</ele><time>2026-04-25T10:47:55.06Z</time></trkpt><trkpt lat="37.0427078" lon="-4.3816299"><ele>750.0</ele><time>2026-04-25T10:47:56.061Z</time></trkpt><trkpt lat="37.0425703" lon="-4.3819319"><ele>749.0</ele><time>2026-04-25T10:47:57.057Z</time></trkpt><trkpt lat="37.0424357" lon="-4.3822329"><ele>746.5</ele><time>2026-04-25T10:47:58.059Z</time></trkpt><trkpt lat="37.0423033" lon="-4.3825333"><ele>744.0</ele><time>2026-04-25T10:47:59.062Z</time></trkpt><trkpt lat="37.0421667" lon="-4.3828233"><ele>742.5</ele><time>2026-04-25T10:48:00.058Z</time></trkpt><trkpt lat="37.0420367" lon="-4.3831067"><ele>741.0</ele><time>2026-04-25T10:48:01.061Z</time></trkpt><trkpt lat="37.0419083" lon="-4.3833867"><ele>741.0</ele><time>2026-04-25T10:48:02.065Z</time></trkpt><trkpt lat="37.041785" lon="-4.3836667"><ele>741.0</ele><time>2026-04-25T10:48:03.06Z</time></trkpt><trkpt lat="37.0416567" lon="-4.383945"><ele>741.0</ele><time>2026-04-25T10:48:04.064Z</time></trkpt><trkpt lat="37.04152" lon="-4.3842217"><ele>741.0</ele><time>2026-04-25T10:48:05.058Z</time></trkpt><trkpt lat="37.0413783" lon="-4.384495"><ele>738.5</ele><time>2026-04-25T10:48:06.059Z</time></trkpt><trkpt lat="37.04123" lon="-4.3847667"><ele>736.0</ele><time>2026-04-25T10:48:07.061Z</time></trkpt><trkpt lat="37.0410733" lon="-4.3850333"><ele>736.0</ele><time>2026-04-25T10:48:08.062Z</time></trkpt><trkpt lat="37.0409117" lon="-4.3852933"><ele>736.0</ele><time>2026-04-25T10:48:09.061Z</time></trkpt><trkpt lat="37.0407433" lon="-4.3855483"><ele>734.5</ele><time>2026-04-25T10:48:10.059Z</time></trkpt><trkpt lat="37.0405717" lon="-4.385795"><ele>733.0</ele><time>2026-04-25T10:48:11.059Z</time></trkpt><trkpt lat="37.0403933" lon="-4.3860383"><ele>733.0</ele><time>2026-04-25T10:48:12.056Z</time></trkpt><trkpt lat="37.0402067" lon="-4.3862767"><ele>733.0</ele><time>2026-04-25T10:48:13.06Z</time></trkpt><trkpt lat="37.040015" lon="-4.3865083"><ele>730.5</ele><time>2026-04-25T10:48:14.058Z</time></trkpt><trkpt lat="37.0398183" lon="-4.386735"><ele>728.0</ele><time>2026-04-25T10:48:15.059Z</time></trkpt><trkpt lat="37.0396133" lon="-4.3869517"><ele>728.0</ele><time>2026-04-25T10:48:16.059Z</time></trkpt><trkpt lat="37.0394033" lon="-4.3871617"><ele>728.0</ele><time>2026-04-25T10:48:17.06Z</time></trkpt><trkpt lat="37.0391883" lon="-4.387365"><ele>727.5</ele><time>2026-04-25T10:48:18.057Z</time></trkpt><trkpt lat="37.0389683" lon="-4.3875617"><ele>727.0</ele><time>2026-04-25T10:48:19.059Z</time></trkpt><trkpt lat="37.038745" lon="-4.3877517"><ele>727.0</ele><time>2026-04-25T10:48:20.059Z</time></trkpt><trkpt lat="37.0385167" lon="-4.3879317"><ele>727.0</ele><time>2026-04-25T10:48:21.058Z</time></trkpt><trkpt lat="37.038285" lon="-4.3881033"><ele>726.5</ele><time>2026-04-25T10:48:22.061Z</time></trkpt><trkpt lat="37.0380483" lon="-4.38827"><ele>726.0</ele><time>2026-04-25T10:48:23.063Z</time></trkpt><trkpt lat="37.03781" lon="-4.388425"><ele>726.0</ele><time>2026-04-25T10:48:24.06Z</time></trkpt><trkpt lat="37.0375633" lon="-4.388565"><ele>726.0</ele><time>2026-04-25T10:48:25.059Z</time></trkpt><trkpt lat="37.037315" lon="-4.3886967"><ele>728.0</ele><time>2026-04-25T10:48:26.058Z</time></trkpt><trkpt lat="37.03706" lon="-4.38882"><ele>730.0</ele><time>2026-04-25T10:48:27.061Z</time></trkpt><trkpt lat="37.0368017" lon="-4.3889367"><ele>727.0</ele><time>2026-04-25T10:48:28.056Z</time></trkpt><trkpt lat="37.0365383" lon="-4.3890467"><ele>724.0</ele><time>2026-04-25T10:48:29.056Z</time></trkpt><trkpt lat="37.0362717" lon="-4.389145"><ele>724.0</ele><time>2026-04-25T10:48:30.062Z</time></trkpt><trkpt lat="37.0360017" lon="-4.389235"><ele>724.0</ele><time>2026-04-25T10:48:31.064Z</time></trkpt><trkpt lat="37.03573" lon="-4.389315"><ele>722.0</ele><time>2026-04-25T10:48:32.062Z</time></trkpt><trkpt lat="37.0354517" lon="-4.3893817"><ele>720.0</ele><time>2026-04-25T10:48:33.064Z</time></trkpt><trkpt lat="37.0351717" lon="-4.3894367"><ele>719.0</ele><time>2026-04-25T10:48:34.058Z</time></trkpt><trkpt lat="37.0348883" lon="-4.3894817"><ele>718.0</ele><time>2026-04-25T10:48:35.064Z</time></trkpt><trkpt lat="37.034605" lon="-4.3895167"><ele>718.0</ele><time>2026-04-25T10:48:36.057Z</time></trkpt><trkpt lat="37.03432" lon="-4.3895417"><ele>718.0</ele><time>2026-04-25T10:48:37.064Z</time></trkpt><trkpt lat="37.0340383" lon="-4.3895583"><ele>716.5</ele><time>2026-04-25T10:48:38.063Z</time></trkpt><trkpt lat="37.033755" lon="-4.389565"><ele>715.0</ele><time>2026-04-25T10:48:39.06Z</time></trkpt><trkpt lat="37.03347" lon="-4.38956"><ele>714.0</ele><time>2026-04-25T10:48:40.059Z</time></trkpt><trkpt lat="37.0331867" lon="-4.3895517"><ele>713.0</ele><time>2026-04-25T10:48:41.061Z</time></trkpt><trkpt lat="37.0329017" lon="-4.3895317"><ele>713.0</ele><time>2026-04-25T10:48:42.06Z</time></trkpt><trkpt lat="37.0326167" lon="-4.3895083"><ele>713.0</ele><time>2026-04-25T10:48:43.06Z</time></trkpt><trkpt lat="37.0323317" lon="-4.389485"><ele>712.5</ele><time>2026-04-25T10:48:44.065Z</time></trkpt><trkpt lat="37.032045" lon="-4.38946"><ele>712.0</ele><time>2026-04-25T10:48:45.059Z</time></trkpt><trkpt lat="37.031755" lon="-4.3894333"><ele>710.0</ele><time>2026-04-25T10:48:46.064Z</time></trkpt><trkpt lat="37.0314633" lon="-4.3894033"><ele>708.0</ele><time>2026-04-25T10:48:47.059Z</time></trkpt><trkpt lat="37.0311717" lon="-4.3893767"><ele>708.0</ele><time>2026-04-25T10:48:48.064Z</time></trkpt><trkpt lat="37.0308783" lon="-4.3893517"><ele>708.0</ele><time>2026-04-25T10:48:49.061Z</time></trkpt><trkpt lat="37.030585" lon="-4.3893267"><ele>705.5</ele><time>2026-04-25T10:48:50.061Z</time></trkpt><trkpt lat="37.0302933" lon="-4.3893033"><ele>703.0</ele><time>2026-04-25T10:48:51.061Z</time></trkpt><trkpt lat="37.0300033" lon="-4.3892833"><ele>700.0</ele><time>2026-04-25T10:48:52.059Z</time></trkpt><trkpt lat="37.029715" lon="-4.3892667"><ele>697.0</ele><time>2026-04-25T10:48:53.064Z</time></trkpt><trkpt lat="37.029425" lon="-4.3892567"><ele>695.0</ele><time>2026-04-25T10:48:54.059Z</time></trkpt><trkpt lat="37.029135" lon="-4.3892517"><ele>693.0</ele><time>2026-04-25T10:48:55.066Z</time></trkpt><trkpt lat="37.0288433" lon="-4.3892533"><ele>693.0</ele><time>2026-04-25T10:48:56.059Z</time></trkpt><trkpt lat="37.0285517" lon="-4.3892583"><ele>693.0</ele><time>2026-04-25T10:48:57.062Z</time></trkpt><trkpt lat="37.0282617" lon="-4.3892667"><ele>693.0</ele><time>2026-04-25T10:48:58.059Z</time></trkpt><trkpt lat="37.0279717" lon="-4.3892833"><ele>693.0</ele><time>2026-04-25T10:48:59.06Z</time></trkpt><trkpt lat="37.0276867" lon="-4.3893033"><ele>691.0</ele><time>2026-04-25T10:49:00.06Z</time></trkpt><trkpt lat="37.027405" lon="-4.3893317"><ele>689.0</ele><time>2026-04-25T10:49:01.064Z</time></trkpt><trkpt lat="37.0271267" lon="-4.3893633"><ele>689.0</ele><time>2026-04-25T10:49:02.061Z</time></trkpt><trkpt lat="37.02685" lon="-4.3893983"><ele>689.0</ele><time>2026-04-25T10:49:03.065Z</time></trkpt><trkpt lat="37.0265733" lon="-4.3894367"><ele>688.5</ele><time>2026-04-25T10:49:04.06Z</time></trkpt><trkpt lat="37.0262967" lon="-4.3894717"><ele>688.0</ele><time>2026-04-25T10:49:05.061Z</time></trkpt><trkpt lat="37.0260217" lon="-4.3895133"><ele>686.0</ele><time>2026-04-25T10:49:06.062Z</time></trkpt><trkpt lat="37.0257467" lon="-4.3895567"><ele>684.0</ele><time>2026-04-25T10:49:07.06Z</time></trkpt><trkpt lat="37.02547" lon="-4.3895983"><ele>684.0</ele><time>2026-04-25T10:49:08.061Z</time></trkpt><trkpt lat="37.025195" lon="-4.3896417"><ele>684.0</ele><time>2026-04-25T10:49:09.062Z</time></trkpt><trkpt lat="37.02492" lon="-4.3896817"><ele>682.0</ele><time>2026-04-25T10:49:10.058Z</time></trkpt><trkpt lat="37.024645" lon="-4.3897217"><ele>680.0</ele><time>2026-04-25T10:49:11.062Z</time></trkpt><trkpt lat="37.024365" lon="-4.389755"><ele>678.0</ele><time>2026-04-25T10:49:12.062Z</time></trkpt><trkpt lat="37.0240833" lon="-4.389785"><ele>676.0</ele><time>2026-04-25T10:49:13.061Z</time></trkpt><trkpt lat="37.0238" lon="-4.389815"><ele>676.0</ele><time>2026-04-25T10:49:14.063Z</time></trkpt><trkpt lat="37.023515" lon="-4.3898417"><ele>676.0</ele><time>2026-04-25T10:49:15.061Z</time></trkpt><trkpt lat="37.02323" lon="-4.3898617"><ele>674.0</ele><time>2026-04-25T10:49:16.064Z</time></trkpt><trkpt lat="37.022945" lon="-4.3898767"><ele>672.0</ele><time>2026-04-25T10:49:17.061Z</time></trkpt><trkpt lat="37.0226583" lon="-4.3898883"><ele>671.0</ele><time>2026-04-25T10:49:18.059Z</time></trkpt><trkpt lat="37.02237" lon="-4.3898933"><ele>670.0</ele><time>2026-04-25T10:49:19.063Z</time></trkpt><trkpt lat="37.02208" lon="-4.389895"><ele>670.0</ele><time>2026-04-25T10:49:20.065Z</time></trkpt><trkpt lat="37.0217883" lon="-4.3898917"><ele>670.0</ele><time>2026-04-25T10:49:21.06Z</time></trkpt><trkpt lat="37.0214967" lon="-4.3898833"><ele>667.5</ele><time>2026-04-25T10:49:22.059Z</time></trkpt><trkpt lat="37.021205" lon="-4.3898717"><ele>665.0</ele><time>2026-04-25T10:49:23.06Z</time></trkpt><trkpt lat="37.0209117" lon="-4.3898533"><ele>664.0</ele><time>2026-04-25T10:49:24.06Z</time></trkpt><trkpt lat="37.0206167" lon="-4.3898317"><ele>663.0</ele><time>2026-04-25T10:49:25.058Z</time></trkpt><trkpt lat="37.0203233" lon="-4.3898033"><ele>663.0</ele><time>2026-04-25T10:49:26.06Z</time></trkpt><trkpt lat="37.0200317" lon="-4.3897667"><ele>663.0</ele><time>2026-04-25T10:49:27.058Z</time></trkpt><trkpt lat="37.0197383" lon="-4.3897267"><ele>660.0</ele><time>2026-04-25T10:49:28.058Z</time></trkpt><trkpt lat="37.019445" lon="-4.3896817"><ele>657.0</ele><time>2026-04-25T10:49:29.059Z</time></trkpt><trkpt lat="37.01915" lon="-4.3896333"><ele>656.5</ele><time>2026-04-25T10:49:30.058Z</time></trkpt><trkpt lat="37.0188533" lon="-4.3895817"><ele>656.0</ele><time>2026-04-25T10:49:31.06Z</time></trkpt><trkpt lat="37.018555" lon="-4.3895317"><ele>654.0</ele><time>2026-04-25T10:49:32.061Z</time></trkpt><trkpt lat="37.0182567" lon="-4.3894783"><ele>652.0</ele><time>2026-04-25T10:49:33.061Z</time></trkpt><trkpt lat="37.0179567" lon="-4.389425"><ele>652.0</ele><time>2026-04-25T10:49:34.06Z</time></trkpt><trkpt lat="37.0176583" lon="-4.38937"><ele>652.0</ele><time>2026-04-25T10:49:35.068Z</time></trkpt><trkpt lat="37.0173617" lon="-4.3893133"><ele>652.0</ele><time>2026-04-25T10:49:36.064Z</time></trkpt><trkpt lat="37.0170633" lon="-4.3892583"><ele>652.0</ele><time>2026-04-25T10:49:37.059Z</time></trkpt><trkpt lat="37.0167667" lon="-4.3892017"><ele>649.5</ele><time>2026-04-25T10:49:38.06Z</time></trkpt><trkpt lat="37.0164733" lon="-4.3891467"><ele>647.0</ele><time>2026-04-25T10:49:39.062Z</time></trkpt><trkpt lat="37.0161783" lon="-4.3890967"><ele>647.0</ele><time>2026-04-25T10:49:40.064Z</time></trkpt><trkpt lat="37.0158867" lon="-4.3890433"><ele>647.0</ele><time>2026-04-25T10:49:41.062Z</time></trkpt><trkpt lat="37.015595" lon="-4.3889933"><ele>646.5</ele><time>2026-04-25T10:49:42.06Z</time></trkpt><trkpt lat="37.0153133" lon="-4.3889467"><ele>646.0</ele><time>2026-04-25T10:49:43.064Z</time></trkpt><trkpt lat="37.0150417" lon="-4.3889117"><ele>646.0</ele><time>2026-04-25T10:49:44.063Z</time></trkpt><trkpt lat="37.0147767" lon="-4.388885"><ele>646.0</ele><time>2026-04-25T10:49:45.062Z</time></trkpt><trkpt lat="37.0145183" lon="-4.388865"><ele>646.0</ele><time>2026-04-25T10:49:46.06Z</time></trkpt><trkpt lat="37.0142583" lon="-4.3888533"><ele>646.0</ele><time>2026-04-25T10:49:47.064Z</time></trkpt><trkpt lat="37.013995" lon="-4.388845"><ele>644.0</ele><time>2026-04-25T10:49:48.066Z</time></trkpt><trkpt lat="37.0137233" lon="-4.3888417"><ele>642.0</ele><time>2026-04-25T10:49:49.063Z</time></trkpt><trkpt lat="37.0134417" lon="-4.3888483"><ele>640.5</ele><time>2026-04-25T10:49:50.06Z</time></trkpt><trkpt lat="37.0131533" lon="-4.3888717"><ele>639.0</ele><time>2026-04-25T10:49:51.06Z</time></trkpt><trkpt lat="37.01286" lon="-4.3889117"><ele>639.0</ele><time>2026-04-25T10:49:52.062Z</time></trkpt><trkpt lat="37.012565" lon="-4.388965"><ele>639.0</ele><time>2026-04-25T10:49:53.061Z</time></trkpt><trkpt lat="37.0122683" lon="-4.3890283"><ele>637.5</ele><time>2026-04-25T10:49:54.061Z</time></trkpt><trkpt lat="37.011975" lon="-4.3890983"><ele>636.0</ele><time>2026-04-25T10:49:55.061Z</time></trkpt><trkpt lat="37.0116817" lon="-4.38918"><ele>633.0</ele><time>2026-04-25T10:49:56.064Z</time></trkpt><trkpt lat="37.0113917" lon="-4.3892667"><ele>630.0</ele><time>2026-04-25T10:49:57.063Z</time></trkpt><trkpt lat="37.0111017" lon="-4.3893633"><ele>627.5</ele><time>2026-04-25T10:49:58.061Z</time></trkpt><trkpt lat="37.0108133" lon="-4.3894683"><ele>625.0</ele><time>2026-04-25T10:49:59.062Z</time></trkpt><trkpt lat="37.0105267" lon="-4.3895817"><ele>625.5</ele><time>2026-04-25T10:50:00.062Z</time></trkpt><trkpt lat="37.0102433" lon="-4.3897067"><ele>626.0</ele><time>2026-04-25T10:50:01.062Z</time></trkpt><trkpt lat="37.0099617" lon="-4.3898433"><ele>627.5</ele><time>2026-04-25T10:50:02.063Z</time></trkpt><trkpt lat="37.0096867" lon="-4.3899917"><ele>629.0</ele><time>2026-04-25T10:50:03.062Z</time></trkpt><trkpt lat="37.009415" lon="-4.3901467"><ele>628.5</ele><time>2026-04-25T10:50:04.06Z</time></trkpt><trkpt lat="37.00915" lon="-4.39031"><ele>628.0</ele><time>2026-04-25T10:50:05.062Z</time></trkpt><trkpt lat="37.0088883" lon="-4.39048"><ele>627.0</ele><time>2026-04-25T10:50:06.064Z</time></trkpt><trkpt lat="37.0086333" lon="-4.3906567"><ele>626.0</ele><time>2026-04-25T10:50:07.061Z</time></trkpt><trkpt lat="37.0083817" lon="-4.3908367"><ele>628.5</ele><time>2026-04-25T10:50:08.062Z</time></trkpt><trkpt lat="37.008135" lon="-4.391025"><ele>631.0</ele><time>2026-04-25T10:50:09.058Z</time></trkpt><trkpt lat="37.007895" lon="-4.3912233"><ele>630.5</ele><time>2026-04-25T10:50:10.061Z</time></trkpt><trkpt lat="37.00766" lon="-4.3914317"><ele>630.0</ele><time>2026-04-25T10:50:11.062Z</time></trkpt><trkpt lat="37.0074333" lon="-4.3916483"><ele>631.0</ele><time>2026-04-25T10:50:12.061Z</time></trkpt><trkpt lat="37.0072117" lon="-4.3918767"><ele>632.0</ele><time>2026-04-25T10:50:13.064Z</time></trkpt><trkpt lat="37.0069967" lon="-4.392115"><ele>632.5</ele><time>2026-04-25T10:50:14.06Z</time></trkpt><trkpt lat="37.0067867" lon="-4.3923583"><ele>633.0</ele><time>2026-04-25T10:50:15.06Z</time></trkpt><trkpt lat="37.0065817" lon="-4.3926017"><ele>633.0</ele><time>2026-04-25T10:50:16.061Z</time></trkpt><trkpt lat="37.0063783" lon="-4.3928433"><ele>633.0</ele><time>2026-04-25T10:50:17.062Z</time></trkpt><trkpt lat="37.0061733" lon="-4.393085"><ele>633.0</ele><time>2026-04-25T10:50:18.062Z</time></trkpt><trkpt lat="37.0059683" lon="-4.3933283"><ele>633.0</ele><time>2026-04-25T10:50:19.066Z</time></trkpt><trkpt lat="37.0057633" lon="-4.393575"><ele>633.0</ele><time>2026-04-25T10:50:20.066Z</time></trkpt><trkpt lat="37.00556" lon="-4.3938217"><ele>633.0</ele><time>2026-04-25T10:50:21.06Z</time></trkpt><trkpt lat="37.0053567" lon="-4.3940683"><ele>631.0</ele><time>2026-04-25T10:50:22.058Z</time></trkpt><trkpt lat="37.0051517" lon="-4.3943117"><ele>629.0</ele><time>2026-04-25T10:50:23.061Z</time></trkpt><trkpt lat="37.004945" lon="-4.3945533"><ele>630.0</ele><time>2026-04-25T10:50:24.061Z</time></trkpt><trkpt lat="37.0047333" lon="-4.3947867"><ele>631.0</ele><time>2026-04-25T10:50:25.06Z</time></trkpt><trkpt lat="37.0045167" lon="-4.395015"><ele>631.0</ele><time>2026-04-25T10:50:26.063Z</time></trkpt><trkpt lat="37.0043" lon="-4.3952367"><ele>631.0</ele><time>2026-04-25T10:50:27.062Z</time></trkpt><trkpt lat="37.0040817" lon="-4.39546"><ele>631.5</ele><time>2026-04-25T10:50:28.06Z</time></trkpt><trkpt lat="37.0038617" lon="-4.3956833"><ele>632.0</ele><time>2026-04-25T10:50:29.059Z</time></trkpt><trkpt lat="37.00364" lon="-4.3959017"><ele>632.0</ele><time>2026-04-25T10:50:30.06Z</time></trkpt><trkpt lat="37.00341" lon="-4.3961083"><ele>632.0</ele><time>2026-04-25T10:50:31.063Z</time></trkpt><trkpt lat="37.003175" lon="-4.39631"><ele>631.5</ele><time>2026-04-25T10:50:32.065Z</time></trkpt><trkpt lat="37.002935" lon="-4.3965067"><ele>631.0</ele><time>2026-04-25T10:50:33.062Z</time></trkpt><trkpt lat="37.0026917" lon="-4.3966967"><ele>631.0</ele><time>2026-04-25T10:50:34.06Z</time></trkpt><trkpt lat="37.002445" lon="-4.3968817"><ele>631.0</ele><time>2026-04-25T10:50:35.06Z</time></trkpt><trkpt lat="37.002195" lon="-4.397055"><ele>629.0</ele><time>2026-04-25T10:50:36.064Z</time></trkpt><trkpt lat="37.0019417" lon="-4.39722"><ele>627.0</ele><time>2026-04-25T10:50:37.06Z</time></trkpt><trkpt lat="37.001685" lon="-4.3973783"><ele>625.5</ele><time>2026-04-25T10:50:38.062Z</time></trkpt><trkpt lat="37.001425" lon="-4.39753"><ele>624.0</ele><time>2026-04-25T10:50:39.061Z</time></trkpt><trkpt lat="37.0011617" lon="-4.3976717"><ele>624.0</ele><time>2026-04-25T10:50:40.061Z</time></trkpt><trkpt lat="37.0008967" lon="-4.3978033"><ele>624.0</ele><time>2026-04-25T10:50:41.059Z</time></trkpt><trkpt lat="37.00063" lon="-4.3979267"><ele>624.5</ele><time>2026-04-25T10:50:42.061Z</time></trkpt><trkpt lat="37.0003633" lon="-4.3980417"><ele>625.0</ele><time>2026-04-25T10:50:43.062Z</time></trkpt><trkpt lat="37.0000933" lon="-4.3981467"><ele>625.0</ele><time>2026-04-25T10:50:44.063Z</time></trkpt><trkpt lat="36.9998233" lon="-4.3982433"><ele>625.0</ele><time>2026-04-25T10:50:45.064Z</time></trkpt><trkpt lat="36.99955" lon="-4.3983333"><ele>625.0</ele><time>2026-04-25T10:50:46.058Z</time></trkpt><trkpt lat="36.9992767" lon="-4.3984167"><ele>625.0</ele><time>2026-04-25T10:50:47.06Z</time></trkpt><trkpt lat="36.9990017" lon="-4.3984967"><ele>627.0</ele><time>2026-04-25T10:50:48.06Z</time></trkpt><trkpt lat="36.9987267" lon="-4.3985717"><ele>629.0</ele><time>2026-04-25T10:50:49.064Z</time></trkpt><trkpt lat="36.9984467" lon="-4.3986333"><ele>632.0</ele><time>2026-04-25T10:50:50.059Z</time></trkpt><trkpt lat="36.9981667" lon="-4.3986833"><ele>635.0</ele><time>2026-04-25T10:50:51.061Z</time></trkpt><trkpt lat="36.997885" lon="-4.3987217"><ele>635.0</ele><time>2026-04-25T10:50:52.065Z</time></trkpt><trkpt lat="36.9976017" lon="-4.398755"><ele>635.0</ele><time>2026-04-25T10:50:53.064Z</time></trkpt><trkpt lat="36.997315" lon="-4.398785"><ele>635.0</ele><time>2026-04-25T10:50:54.06Z</time></trkpt><trkpt lat="36.99703" lon="-4.3988117"><ele>635.0</ele><time>2026-04-25T10:50:55.061Z</time></trkpt><trkpt lat="36.9967417" lon="-4.39884"><ele>636.0</ele><time>2026-04-25T10:50:56.062Z</time></trkpt><trkpt lat="36.9964533" lon="-4.39887"><ele>637.0</ele><time>2026-04-25T10:50:57.061Z</time></trkpt><trkpt lat="36.99616" lon="-4.3989"><ele>637.0</ele><time>2026-04-25T10:50:58.064Z</time></trkpt><trkpt lat="36.9958667" lon="-4.3989267"><ele>637.0</ele><time>2026-04-25T10:50:59.064Z</time></trkpt><trkpt lat="36.99557" lon="-4.39896"><ele>640.0</ele><time>2026-04-25T10:51:00.061Z</time></trkpt><trkpt lat="36.99527" lon="-4.3989933"><ele>643.0</ele><time>2026-04-25T10:51:01.061Z</time></trkpt><trkpt lat="36.9949667" lon="-4.3990267"><ele>644.5</ele><time>2026-04-25T10:51:02.059Z</time></trkpt><trkpt lat="36.9946617" lon="-4.39906"><ele>646.0</ele><time>2026-04-25T10:51:03.059Z</time></trkpt><trkpt lat="36.9943567" lon="-4.3991"><ele>646.0</ele><time>2026-04-25T10:51:04.062Z</time></trkpt><trkpt lat="36.99405" lon="-4.3991483"><ele>646.0</ele><time>2026-04-25T10:51:05.059Z</time></trkpt><trkpt lat="36.9937433" lon="-4.3992083"><ele>646.0</ele><time>2026-04-25T10:51:06.058Z</time></trkpt><trkpt lat="36.9934367" lon="-4.3992783"><ele>646.0</ele><time>2026-04-25T10:51:07.061Z</time></trkpt><trkpt lat="36.9931383" lon="-4.3993567"><ele>645.5</ele><time>2026-04-25T10:51:08.061Z</time></trkpt><trkpt lat="36.9928433" lon="-4.3994417"><ele>645.0</ele><time>2026-04-25T10:51:09.062Z</time></trkpt><trkpt lat="36.9925533" lon="-4.3995283"><ele>645.5</ele><time>2026-04-25T10:51:10.062Z</time></trkpt><trkpt lat="36.9922633" lon="-4.3996167"><ele>646.0</ele><time>2026-04-25T10:51:11.063Z</time></trkpt><trkpt lat="36.9919767" lon="-4.399705"><ele>651.0</ele><time>2026-04-25T10:51:12.068Z</time></trkpt><trkpt lat="36.9916917" lon="-4.3997883"><ele>656.0</ele><time>2026-04-25T10:51:13.063Z</time></trkpt><trkpt lat="36.9914083" lon="-4.3998633"><ele>656.0</ele><time>2026-04-25T10:51:14.058Z</time></trkpt><trkpt lat="36.991125" lon="-4.39993"><ele>656.0</ele><time>2026-04-25T10:51:15.062Z</time></trkpt><trkpt lat="36.9908417" lon="-4.399985"><ele>656.5</ele><time>2026-04-25T10:51:16.063Z</time></trkpt><trkpt lat="36.99056" lon="-4.4000333"><ele>657.0</ele><time>2026-04-25T10:51:17.059Z</time></trkpt><trkpt lat="36.9902783" lon="-4.4000817"><ele>655.5</ele><time>2026-04-25T10:51:18.064Z</time></trkpt><trkpt lat="36.9899983" lon="-4.400125"><ele>654.0</ele><time>2026-04-25T10:51:19.061Z</time></trkpt><trkpt lat="36.9897167" lon="-4.4001717"><ele>654.0</ele><time>2026-04-25T10:51:20.065Z</time></trkpt><trkpt lat="36.989435" lon="-4.4002167"><ele>654.0</ele><time>2026-04-25T10:51:21.061Z</time></trkpt><trkpt lat="36.9891533" lon="-4.40026"><ele>655.0</ele><time>2026-04-25T10:51:22.062Z</time></trkpt><trkpt lat="36.98887" lon="-4.400305"><ele>656.0</ele><time>2026-04-25T10:51:23.065Z</time></trkpt><trkpt lat="36.9885867" lon="-4.4003517"><ele>657.5</ele><time>2026-04-25T10:51:24.061Z</time></trkpt><trkpt lat="36.9883017" lon="-4.4004017"><ele>659.0</ele><time>2026-04-25T10:51:25.062Z</time></trkpt><trkpt lat="36.9880167" lon="-4.4004533"><ele>661.0</ele><time>2026-04-25T10:51:26.06Z</time></trkpt><trkpt lat="36.98773" lon="-4.4005083"><ele>663.0</ele><time>2026-04-25T10:51:27.063Z</time></trkpt><trkpt lat="36.98744" lon="-4.400565"><ele>663.0</ele><time>2026-04-25T10:51:28.062Z</time></trkpt><trkpt lat="36.9871483" lon="-4.4006233"><ele>663.0</ele><time>2026-04-25T10:51:29.063Z</time></trkpt><trkpt lat="36.9868533" lon="-4.40069"><ele>664.5</ele><time>2026-04-25T10:51:30.067Z</time></trkpt><trkpt lat="36.9865583" lon="-4.4007633"><ele>666.0</ele><time>2026-04-25T10:51:31.062Z</time></trkpt><trkpt lat="36.986265" lon="-4.40085"><ele>666.0</ele><time>2026-04-25T10:51:32.062Z</time></trkpt><trkpt lat="36.9859717" lon="-4.4009467"><ele>666.0</ele><time>2026-04-25T10:51:33.063Z</time></trkpt><trkpt lat="36.9856783" lon="-4.40105"><ele>668.5</ele><time>2026-04-25T10:51:34.061Z</time></trkpt><trkpt lat="36.985385" lon="-4.4011617"><ele>671.0</ele><time>2026-04-25T10:51:35.063Z</time></trkpt><trkpt lat="36.9850933" lon="-4.4012867"><ele>674.0</ele><time>2026-04-25T10:51:36.06Z</time></trkpt><trkpt lat="36.9848067" lon="-4.4014267"><ele>677.0</ele><time>2026-04-25T10:51:37.06Z</time></trkpt><trkpt lat="36.9845217" lon="-4.4015767"><ele>677.0</ele><time>2026-04-25T10:51:38.064Z</time></trkpt><trkpt lat="36.9842383" lon="-4.401735"><ele>677.0</ele><time>2026-04-25T10:51:39.063Z</time></trkpt><trkpt lat="36.9839567" lon="-4.401905"><ele>677.5</ele><time>2026-04-25T10:51:40.063Z</time></trkpt><trkpt lat="36.9836833" lon="-4.402085"><ele>678.0</ele><time>2026-04-25T10:51:41.062Z</time></trkpt><trkpt lat="36.9834133" lon="-4.402275"><ele>680.5</ele><time>2026-04-25T10:51:42.062Z</time></trkpt><trkpt lat="36.98315" lon="-4.402475"><ele>683.0</ele><time>2026-04-25T10:51:43.063Z</time></trkpt><trkpt lat="36.98289" lon="-4.402685"><ele>683.0</ele><time>2026-04-25T10:51:44.061Z</time></trkpt><trkpt lat="36.9826333" lon="-4.4029017"><ele>683.0</ele><time>2026-04-25T10:51:45.059Z</time></trkpt><trkpt lat="36.9823817" lon="-4.403125"><ele>683.0</ele><time>2026-04-25T10:51:46.061Z</time></trkpt><trkpt lat="36.9821367" lon="-4.4033583"><ele>683.0</ele><time>2026-04-25T10:51:47.061Z</time></trkpt><trkpt lat="36.9819" lon="-4.4036"><ele>684.5</ele><time>2026-04-25T10:51:48.06Z</time></trkpt><trkpt lat="36.98167" lon="-4.4038517"><ele>686.0</ele><time>2026-04-25T10:51:49.063Z</time></trkpt><trkpt lat="36.9814433" lon="-4.4041133"><ele>686.0</ele><time>2026-04-25T10:51:50.06Z</time></trkpt><trkpt lat="36.9812217" lon="-4.40438"><ele>686.0</ele><time>2026-04-25T10:51:51.06Z</time></trkpt><trkpt lat="36.9810033" lon="-4.4046533"><ele>686.5</ele><time>2026-04-25T10:51:52.06Z</time></trkpt><trkpt lat="36.9807917" lon="-4.4049333"><ele>687.0</ele><time>2026-04-25T10:51:53.062Z</time></trkpt><trkpt lat="36.9805883" lon="-4.4052217"><ele>689.0</ele><time>2026-04-25T10:51:54.06Z</time></trkpt><trkpt lat="36.9803917" lon="-4.4055167"><ele>691.0</ele><time>2026-04-25T10:51:55.063Z</time></trkpt><trkpt lat="36.9802" lon="-4.4058167"><ele>689.5</ele><time>2026-04-25T10:51:56.064Z</time></trkpt><trkpt lat="36.9800133" lon="-4.4061233"><ele>688.0</ele><time>2026-04-25T10:51:57.061Z</time></trkpt><trkpt lat="36.9798333" lon="-4.406435"><ele>691.5</ele><time>2026-04-25T10:51:58.066Z</time></trkpt><trkpt lat="36.9796583" lon="-4.4067517"><ele>695.0</ele><time>2026-04-25T10:51:59.057Z</time></trkpt><trkpt lat="36.979485" lon="-4.4070717"><ele>697.5</ele><time>2026-04-25T10:52:00.061Z</time></trkpt><trkpt lat="36.9793067" lon="-4.4073917"><ele>700.0</ele><time>2026-04-25T10:52:01.058Z</time></trkpt><trkpt lat="36.9791367" lon="-4.4077167"><ele>701.5</ele><time>2026-04-25T10:52:02.063Z</time></trkpt><trkpt lat="36.97897" lon="-4.4080433"><ele>703.0</ele><time>2026-04-25T10:52:03.068Z</time></trkpt><trkpt lat="36.9788033" lon="-4.40837"><ele>703.0</ele><time>2026-04-25T10:52:04.065Z</time></trkpt><trkpt lat="36.9786367" lon="-4.4086967"><ele>703.0</ele><time>2026-04-25T10:52:05.062Z</time></trkpt><trkpt lat="36.9784683" lon="-4.4090217"><ele>703.0</ele><time>2026-04-25T10:52:06.061Z</time></trkpt><trkpt lat="36.9783017" lon="-4.4093467"><ele>703.0</ele><time>2026-04-25T10:52:07.066Z</time></trkpt><trkpt lat="36.978135" lon="-4.4096733"><ele>704.0</ele><time>2026-04-25T10:52:08.067Z</time></trkpt><trkpt lat="36.9779717" lon="-4.4100017"><ele>705.0</ele><time>2026-04-25T10:52:09.059Z</time></trkpt><trkpt lat="36.97781" lon="-4.4103283"><ele>705.5</ele><time>2026-04-25T10:52:10.065Z</time></trkpt><trkpt lat="36.9776517" lon="-4.4106567"><ele>706.0</ele><time>2026-04-25T10:52:11.062Z</time></trkpt><trkpt lat="36.9774917" lon="-4.4109833"><ele>706.0</ele><time>2026-04-25T10:52:12.061Z</time></trkpt><trkpt lat="36.977335" lon="-4.4113083"><ele>706.0</ele><time>2026-04-25T10:52:13.06Z</time></trkpt><trkpt lat="36.97718" lon="-4.41163"><ele>709.5</ele><time>2026-04-25T10:52:14.059Z</time></trkpt><trkpt lat="36.9770267" lon="-4.41195"><ele>713.0</ele><time>2026-04-25T10:52:15.062Z</time></trkpt><trkpt lat="36.976875" lon="-4.4122733"><ele>714.5</ele><time>2026-04-25T10:52:16.063Z</time></trkpt><trkpt lat="36.976725" lon="-4.4125967"><ele>716.0</ele><time>2026-04-25T10:52:17.067Z</time></trkpt><trkpt lat="36.9765767" lon="-4.41292"><ele>720.0</ele><time>2026-04-25T10:52:18.061Z</time></trkpt><trkpt lat="36.9764283" lon="-4.4132433"><ele>724.0</ele><time>2026-04-25T10:52:19.061Z</time></trkpt><trkpt lat="36.97628" lon="-4.413565"><ele>733.0</ele><time>2026-04-25T10:52:20.063Z</time></trkpt><trkpt lat="36.97614" lon="-4.41389"><ele>742.0</ele><time>2026-04-25T10:52:21.064Z</time></trkpt><trkpt lat="36.9760067" lon="-4.41422"><ele>742.0</ele><time>2026-04-25T10:52:22.062Z</time></trkpt><trkpt lat="36.9758783" lon="-4.414555"><ele>742.0</ele><time>2026-04-25T10:52:23.062Z</time></trkpt><trkpt lat="36.9757583" lon="-4.4148917"><ele>738.5</ele><time>2026-04-25T10:52:24.059Z</time></trkpt><trkpt lat="36.9756433" lon="-4.4152317"><ele>735.0</ele><time>2026-04-25T10:52:25.061Z</time></trkpt><trkpt lat="36.9755333" lon="-4.4155733"><ele>735.0</ele><time>2026-04-25T10:52:26.062Z</time></trkpt><trkpt lat="36.9754267" lon="-4.4159167"><ele>735.0</ele><time>2026-04-25T10:52:27.061Z</time></trkpt><trkpt lat="36.9753233" lon="-4.4162617"><ele>742.5</ele><time>2026-04-25T10:52:28.058Z</time></trkpt><trkpt lat="36.9752233" lon="-4.4166117"><ele>750.0</ele><time>2026-04-25T10:52:29.062Z</time></trkpt><trkpt lat="36.975125" lon="-4.4169667"><ele>754.0</ele><time>2026-04-25T10:52:30.058Z</time></trkpt><trkpt lat="36.975025" lon="-4.4173233"><ele>758.0</ele><time>2026-04-25T10:52:31.062Z</time></trkpt><trkpt lat="36.9749283" lon="-4.4176767"><ele>751.5</ele><time>2026-04-25T10:52:32.06Z</time></trkpt><trkpt lat="36.97483" lon="-4.4180317"><ele>745.0</ele><time>2026-04-25T10:52:33.059Z</time></trkpt><trkpt lat="36.9747317" lon="-4.4183917"><ele>745.0</ele><time>2026-04-25T10:52:34.059Z</time></trkpt><trkpt lat="36.9746333" lon="-4.418755"><ele>745.0</ele><time>2026-04-25T10:52:35.058Z</time></trkpt><trkpt lat="36.974535" lon="-4.41912"><ele>748.5</ele><time>2026-04-25T10:52:36.06Z</time></trkpt><trkpt lat="36.97444" lon="-4.419485"><ele>752.0</ele><time>2026-04-25T10:52:37.061Z</time></trkpt><trkpt lat="36.974345" lon="-4.4198517"><ele>753.0</ele><time>2026-04-25T10:52:38.064Z</time></trkpt><trkpt lat="36.9742517" lon="-4.4202167"><ele>754.0</ele><time>2026-04-25T10:52:39.064Z</time></trkpt><trkpt lat="36.9741617" lon="-4.420585"><ele>754.0</ele><time>2026-04-25T10:52:40.062Z</time></trkpt><trkpt lat="36.9740717" lon="-4.4209567"><ele>754.0</ele><time>2026-04-25T10:52:41.064Z</time></trkpt><trkpt lat="36.9739833" lon="-4.421325"><ele>754.0</ele><time>2026-04-25T10:52:42.061Z</time></trkpt><trkpt lat="36.973895" lon="-4.421695"><ele>754.0</ele><time>2026-04-25T10:52:43.063Z</time></trkpt><trkpt lat="36.9738067" lon="-4.422065"><ele>759.5</ele><time>2026-04-25T10:52:44.063Z</time></trkpt><trkpt lat="36.97372" lon="-4.422435"><ele>765.0</ele><time>2026-04-25T10:52:45.062Z</time></trkpt><trkpt lat="36.9736317" lon="-4.4228083"><ele>769.0</ele><time>2026-04-25T10:52:46.062Z</time></trkpt><trkpt lat="36.9735433" lon="-4.4231833"><ele>773.0</ele><time>2026-04-25T10:52:47.062Z</time></trkpt><trkpt lat="36.9734517" lon="-4.42356"><ele>774.0</ele><time>2026-04-25T10:52:48.061Z</time></trkpt><trkpt lat="36.9733583" lon="-4.423935"><ele>775.0</ele><time>2026-04-25T10:52:49.062Z</time></trkpt><trkpt lat="36.9732733" lon="-4.4243167"><ele>771.0</ele><time>2026-04-25T10:52:50.064Z</time></trkpt><trkpt lat="36.9732017" lon="-4.4247033"><ele>767.0</ele><time>2026-04-25T10:52:51.065Z</time></trkpt><trkpt lat="36.9731433" lon="-4.4250933"><ele>768.0</ele><time>2026-04-25T10:52:52.065Z</time></trkpt><trkpt lat="36.9730917" lon="-4.4254833"><ele>769.0</ele><time>2026-04-25T10:52:53.062Z</time></trkpt><trkpt lat="36.9730367" lon="-4.4258733"><ele>769.0</ele><time>2026-04-25T10:52:54.058Z</time></trkpt><trkpt lat="36.97298" lon="-4.4262667"><ele>769.0</ele><time>2026-04-25T10:52:55.059Z</time></trkpt><trkpt lat="36.972925" lon="-4.42666"><ele>771.5</ele><time>2026-04-25T10:52:56.058Z</time></trkpt><trkpt lat="36.9728717" lon="-4.4270517"><ele>774.0</ele><time>2026-04-25T10:52:57.059Z</time></trkpt><trkpt lat="36.9728217" lon="-4.4274433"><ele>774.5</ele><time>2026-04-25T10:52:58.059Z</time></trkpt><trkpt lat="36.9727717" lon="-4.4278367"><ele>775.0</ele><time>2026-04-25T10:52:59.063Z</time></trkpt><trkpt lat="36.9727267" lon="-4.4282283"><ele>777.5</ele><time>2026-04-25T10:53:00.059Z</time></trkpt><trkpt lat="36.9726833" lon="-4.4286267"><ele>780.0</ele><time>2026-04-25T10:53:01.059Z</time></trkpt><trkpt lat="36.9726433" lon="-4.4290283"><ele>782.5</ele><time>2026-04-25T10:53:02.058Z</time></trkpt><trkpt lat="36.9726017" lon="-4.4294317"><ele>785.0</ele><time>2026-04-25T10:53:03.062Z</time></trkpt><trkpt lat="36.9725567" lon="-4.4298317"><ele>784.5</ele><time>2026-04-25T10:53:04.059Z</time></trkpt><trkpt lat="36.9725117" lon="-4.430235"><ele>784.0</ele><time>2026-04-25T10:53:05.063Z</time></trkpt><trkpt lat="36.9724683" lon="-4.43064"><ele>784.0</ele><time>2026-04-25T10:53:06.062Z</time></trkpt><trkpt lat="36.972425" lon="-4.4310467"><ele>784.0</ele><time>2026-04-25T10:53:07.065Z</time></trkpt><trkpt lat="36.9723783" lon="-4.4314517"><ele>783.5</ele><time>2026-04-25T10:53:08.059Z</time></trkpt><trkpt lat="36.97233" lon="-4.431855"><ele>783.0</ele><time>2026-04-25T10:53:09.058Z</time></trkpt><trkpt lat="36.9722767" lon="-4.432255"><ele>785.5</ele><time>2026-04-25T10:53:10.061Z</time></trkpt><trkpt lat="36.9722217" lon="-4.432645"><ele>788.0</ele><time>2026-04-25T10:53:11.061Z</time></trkpt><trkpt lat="36.9721583" lon="-4.4330233"><ele>790.0</ele><time>2026-04-25T10:53:12.058Z</time></trkpt><trkpt lat="36.9720783" lon="-4.4333917"><ele>792.0</ele><time>2026-04-25T10:53:13.062Z</time></trkpt><trkpt lat="36.9719833" lon="-4.4337517"><ele>789.5</ele><time>2026-04-25T10:53:14.064Z</time></trkpt><trkpt lat="36.9718717" lon="-4.4340983"><ele>787.0</ele><time>2026-04-25T10:53:15.067Z</time></trkpt><trkpt lat="36.9717467" lon="-4.4344283"><ele>791.5</ele><time>2026-04-25T10:53:16.063Z</time></trkpt><trkpt lat="36.9716133" lon="-4.4347383"><ele>796.0</ele><time>2026-04-25T10:53:17.06Z</time></trkpt><trkpt lat="36.971475" lon="-4.435025"><ele>796.0</ele><time>2026-04-25T10:53:18.06Z</time></trkpt><trkpt lat="36.971335" lon="-4.435295"><ele>796.0</ele><time>2026-04-25T10:53:19.061Z</time></trkpt><trkpt lat="36.9711933" lon="-4.4355567"><ele>795.5</ele><time>2026-04-25T10:53:20.063Z</time></trkpt><trkpt lat="36.9710467" lon="-4.4358133"><ele>795.0</ele><time>2026-04-25T10:53:21.061Z</time></trkpt><trkpt lat="36.970895" lon="-4.43607"><ele>798.0</ele><time>2026-04-25T10:53:22.06Z</time></trkpt><trkpt lat="36.9707383" lon="-4.436325"><ele>801.0</ele><time>2026-04-25T10:53:23.057Z</time></trkpt><trkpt lat="36.9705767" lon="-4.43658"><ele>801.0</ele><time>2026-04-25T10:53:24.06Z</time></trkpt><trkpt lat="36.9704133" lon="-4.43684"><ele>801.0</ele><time>2026-04-25T10:53:25.061Z</time></trkpt><trkpt lat="36.9702433" lon="-4.4371017"><ele>802.5</ele><time>2026-04-25T10:53:26.06Z</time></trkpt><trkpt lat="36.9700717" lon="-4.4373667"><ele>804.0</ele><time>2026-04-25T10:53:27.064Z</time></trkpt><trkpt lat="36.9699017" lon="-4.4376367"><ele>804.0</ele><time>2026-04-25T10:53:28.06Z</time></trkpt><trkpt lat="36.96973" lon="-4.4379067"><ele>804.0</ele><time>2026-04-25T10:53:29.062Z</time></trkpt><trkpt lat="36.9695583" lon="-4.4381767"><ele>805.0</ele><time>2026-04-25T10:53:30.061Z</time></trkpt><trkpt lat="36.969385" lon="-4.4384417"><ele>806.0</ele><time>2026-04-25T10:53:31.06Z</time></trkpt><trkpt lat="36.9692117" lon="-4.43871"><ele>808.0</ele><time>2026-04-25T10:53:32.063Z</time></trkpt><trkpt lat="36.9690367" lon="-4.43898"><ele>810.0</ele><time>2026-04-25T10:53:33.064Z</time></trkpt><trkpt lat="36.9688633" lon="-4.4392533"><ele>810.0</ele><time>2026-04-25T10:53:34.067Z</time></trkpt><trkpt lat="36.9686867" lon="-4.4395267"><ele>810.0</ele><time>2026-04-25T10:53:35.063Z</time></trkpt><trkpt lat="36.968505" lon="-4.4398"><ele>809.0</ele><time>2026-04-25T10:53:36.065Z</time></trkpt><trkpt lat="36.9683233" lon="-4.4400817"><ele>808.0</ele><time>2026-04-25T10:53:37.062Z</time></trkpt><trkpt lat="36.968145" lon="-4.4403633"><ele>806.0</ele><time>2026-04-25T10:53:38.069Z</time></trkpt><trkpt lat="36.967965" lon="-4.4406467"><ele>804.0</ele><time>2026-04-25T10:53:39.061Z</time></trkpt><trkpt lat="36.9677883" lon="-4.4409283"><ele>804.0</ele><time>2026-04-25T10:53:40.061Z</time></trkpt><trkpt lat="36.9676167" lon="-4.4412"><ele>804.0</ele><time>2026-04-25T10:53:41.068Z</time></trkpt><trkpt lat="36.9674483" lon="-4.44146"><ele>801.0</ele><time>2026-04-25T10:53:42.062Z</time></trkpt><trkpt lat="36.967275" lon="-4.441715"><ele>798.0</ele><time>2026-04-25T10:53:43.063Z</time></trkpt><trkpt lat="36.9670983" lon="-4.4419617"><ele>797.5</ele><time>2026-04-25T10:53:44.059Z</time></trkpt><trkpt lat="36.9669133" lon="-4.4422017"><ele>797.0</ele><time>2026-04-25T10:53:45.063Z</time></trkpt><trkpt lat="36.966725" lon="-4.4424367"><ele>795.0</ele><time>2026-04-25T10:53:46.059Z</time></trkpt><trkpt lat="36.9665367" lon="-4.4426667"><ele>793.0</ele><time>2026-04-25T10:53:47.064Z</time></trkpt><trkpt lat="36.9663433" lon="-4.4428917"><ele>795.5</ele><time>2026-04-25T10:53:48.059Z</time></trkpt><trkpt lat="36.9661483" lon="-4.4431083"><ele>798.0</ele><time>2026-04-25T10:53:49.059Z</time></trkpt><trkpt lat="36.9659517" lon="-4.4433117"><ele>794.5</ele><time>2026-04-25T10:53:50.058Z</time></trkpt><trkpt lat="36.9657583" lon="-4.4435017"><ele>791.0</ele><time>2026-04-25T10:53:51.058Z</time></trkpt><trkpt lat="36.965565" lon="-4.4436783"><ele>789.0</ele><time>2026-04-25T10:53:52.058Z</time></trkpt><trkpt lat="36.96538" lon="-4.4438417"><ele>787.0</ele><time>2026-04-25T10:53:53.06Z</time></trkpt><trkpt lat="36.9651967" lon="-4.443995"><ele>785.0</ele><time>2026-04-25T10:53:54.061Z</time></trkpt><trkpt lat="36.9650133" lon="-4.4441433"><ele>785.0</ele><time>2026-04-25T10:53:55.059Z</time></trkpt><trkpt lat="36.9648267" lon="-4.4442883"><ele>785.0</ele><time>2026-04-25T10:53:56.061Z</time></trkpt><trkpt lat="36.9646383" lon="-4.44443"><ele>785.0</ele><time>2026-04-25T10:53:57.062Z</time></trkpt><trkpt lat="36.9644467" lon="-4.444575"><ele>781.0</ele><time>2026-04-25T10:53:58.062Z</time></trkpt><trkpt lat="36.9642483" lon="-4.4447233"><ele>777.0</ele><time>2026-04-25T10:53:59.062Z</time></trkpt><trkpt lat="36.9640483" lon="-4.4448717"><ele>777.0</ele><time>2026-04-25T10:54:00.061Z</time></trkpt><trkpt lat="36.963845" lon="-4.44502"><ele>777.0</ele><time>2026-04-25T10:54:01.066Z</time></trkpt><trkpt lat="36.9636383" lon="-4.4451733"><ele>777.0</ele><time>2026-04-25T10:54:02.059Z</time></trkpt><trkpt lat="36.9634267" lon="-4.4453267"><ele>777.0</ele><time>2026-04-25T10:54:03.06Z</time></trkpt><trkpt lat="36.96321" lon="-4.44548"><ele>774.0</ele><time>2026-04-25T10:54:04.058Z</time></trkpt><trkpt lat="36.9629917" lon="-4.4456317"><ele>771.0</ele><time>2026-04-25T10:54:05.061Z</time></trkpt><trkpt lat="36.96277" lon="-4.4457817"><ele>771.0</ele><time>2026-04-25T10:54:06.064Z</time></trkpt><trkpt lat="36.9625417" lon="-4.4459267"><ele>771.0</ele><time>2026-04-25T10:54:07.065Z</time></trkpt><trkpt lat="36.962305" lon="-4.446065"><ele>763.5</ele><time>2026-04-25T10:54:08.061Z</time></trkpt><trkpt lat="36.962065" lon="-4.4461983"><ele>756.0</ele><time>2026-04-25T10:54:09.062Z</time></trkpt><trkpt lat="36.9618217" lon="-4.446325"><ele>750.0</ele><time>2026-04-25T10:54:10.06Z</time></trkpt><trkpt lat="36.96158" lon="-4.4464433"><ele>744.0</ele><time>2026-04-25T10:54:11.067Z</time></trkpt><trkpt lat="36.9613383" lon="-4.4465483"><ele>744.0</ele><time>2026-04-25T10:54:12.06Z</time></trkpt><trkpt lat="36.9610983" lon="-4.4466433"><ele>744.0</ele><time>2026-04-25T10:54:13.062Z</time></trkpt><trkpt lat="36.9608533" lon="-4.4467333"><ele>742.5</ele><time>2026-04-25T10:54:14.061Z</time></trkpt><trkpt lat="36.9606067" lon="-4.446815"><ele>741.0</ele><time>2026-04-25T10:54:15.063Z</time></trkpt><trkpt lat="36.9603567" lon="-4.4468917"><ele>741.0</ele><time>2026-04-25T10:54:16.063Z</time></trkpt><trkpt lat="36.9601033" lon="-4.4469633"><ele>741.0</ele><time>2026-04-25T10:54:17.063Z</time></trkpt><trkpt lat="36.9598483" lon="-4.4470283"><ele>737.5</ele><time>2026-04-25T10:54:18.061Z</time></trkpt><trkpt lat="36.9595917" lon="-4.4470883"><ele>734.0</ele><time>2026-04-25T10:54:19.061Z</time></trkpt><trkpt lat="36.959335" lon="-4.44714"><ele>732.5</ele><time>2026-04-25T10:54:20.061Z</time></trkpt><trkpt lat="36.9590783" lon="-4.4471817"><ele>731.0</ele><time>2026-04-25T10:54:21.06Z</time></trkpt><trkpt lat="36.9588183" lon="-4.44721"><ele>731.0</ele><time>2026-04-25T10:54:22.059Z</time></trkpt><trkpt lat="36.9585583" lon="-4.4472333"><ele>731.0</ele><time>2026-04-25T10:54:23.063Z</time></trkpt><trkpt lat="36.9582967" lon="-4.4472533"><ele>729.0</ele><time>2026-04-25T10:54:24.057Z</time></trkpt><trkpt lat="36.9580317" lon="-4.4472683"><ele>727.0</ele><time>2026-04-25T10:54:25.059Z</time></trkpt><trkpt lat="36.9577667" lon="-4.447275"><ele>724.0</ele><time>2026-04-25T10:54:26.06Z</time></trkpt><trkpt lat="36.9575033" lon="-4.4472733"><ele>721.0</ele><time>2026-04-25T10:54:27.058Z</time></trkpt><trkpt lat="36.9572367" lon="-4.4472617"><ele>721.0</ele><time>2026-04-25T10:54:28.064Z</time></trkpt><trkpt lat="36.95697" lon="-4.44724"><ele>721.0</ele><time>2026-04-25T10:54:29.057Z</time></trkpt><trkpt lat="36.9567033" lon="-4.44721"><ele>719.5</ele><time>2026-04-25T10:54:30.062Z</time></trkpt><trkpt lat="36.9564367" lon="-4.447175"><ele>718.0</ele><time>2026-04-25T10:54:31.062Z</time></trkpt><trkpt lat="36.9561717" lon="-4.4471317"><ele>715.5</ele><time>2026-04-25T10:54:32.061Z</time></trkpt><trkpt lat="36.955905" lon="-4.4470833"><ele>713.0</ele><time>2026-04-25T10:54:33.059Z</time></trkpt><trkpt lat="36.9556383" lon="-4.447025"><ele>709.0</ele><time>2026-04-25T10:54:34.059Z</time></trkpt><trkpt lat="36.9553717" lon="-4.44696"><ele>705.0</ele><time>2026-04-25T10:54:35.058Z</time></trkpt><trkpt lat="36.955105" lon="-4.4468867"><ele>701.0</ele><time>2026-04-25T10:54:36.06Z</time></trkpt><trkpt lat="36.9548417" lon="-4.4468"><ele>697.0</ele><time>2026-04-25T10:54:37.058Z</time></trkpt><trkpt lat="36.95458" lon="-4.4467083"><ele>697.0</ele><time>2026-04-25T10:54:38.065Z</time></trkpt><trkpt lat="36.9543233" lon="-4.4466083"><ele>697.0</ele><time>2026-04-25T10:54:39.061Z</time></trkpt><trkpt lat="36.9540717" lon="-4.4465033"><ele>694.5</ele><time>2026-04-25T10:54:40.062Z</time></trkpt><trkpt lat="36.9538217" lon="-4.4463917"><ele>692.0</ele><time>2026-04-25T10:54:41.06Z</time></trkpt><trkpt lat="36.9535783" lon="-4.4462717"><ele>684.0</ele><time>2026-04-25T10:54:42.062Z</time></trkpt><trkpt lat="36.9533383" lon="-4.4461467"><ele>676.0</ele><time>2026-04-25T10:54:43.059Z</time></trkpt><trkpt lat="36.9531033" lon="-4.4460183"><ele>676.0</ele><time>2026-04-25T10:54:44.064Z</time></trkpt><trkpt lat="36.9528683" lon="-4.4458867"><ele>676.0</ele><time>2026-04-25T10:54:45.06Z</time></trkpt><trkpt lat="36.9526367" lon="-4.44575"><ele>680.0</ele><time>2026-04-25T10:54:46.062Z</time></trkpt><trkpt lat="36.9524017" lon="-4.44561"><ele>684.0</ele><time>2026-04-25T10:54:47.06Z</time></trkpt><trkpt lat="36.95217" lon="-4.4454683"><ele>674.5</ele><time>2026-04-25T10:54:48.063Z</time></trkpt><trkpt lat="36.95194" lon="-4.4453233"><ele>665.0</ele><time>2026-04-25T10:54:49.064Z</time></trkpt><trkpt lat="36.9517133" lon="-4.4451733"><ele>668.0</ele><time>2026-04-25T10:54:50.062Z</time></trkpt><trkpt lat="36.9514867" lon="-4.44502"><ele>671.0</ele><time>2026-04-25T10:54:51.06Z</time></trkpt><trkpt lat="36.951265" lon="-4.4448583"><ele>671.0</ele><time>2026-04-25T10:54:52.064Z</time></trkpt><trkpt lat="36.9510417" lon="-4.4446933"><ele>671.0</ele><time>2026-04-25T10:54:53.06Z</time></trkpt><trkpt lat="36.95082" lon="-4.4445233"><ele>663.0</ele><time>2026-04-25T10:54:54.061Z</time></trkpt><trkpt lat="36.9505967" lon="-4.4443517"><ele>655.0</ele><time>2026-04-25T10:54:55.064Z</time></trkpt><trkpt lat="36.9503767" lon="-4.4441733"><ele>655.0</ele><time>2026-04-25T10:54:56.061Z</time></trkpt><trkpt lat="36.9501567" lon="-4.4439917"><ele>655.0</ele><time>2026-04-25T10:54:57.059Z</time></trkpt><trkpt lat="36.949935" lon="-4.4438067"><ele>651.0</ele><time>2026-04-25T10:54:58.057Z</time></trkpt><trkpt lat="36.9497183" lon="-4.4436183"><ele>647.0</ele><time>2026-04-25T10:54:59.059Z</time></trkpt><trkpt lat="36.9495083" lon="-4.4434317"><ele>647.0</ele><time>2026-04-25T10:55:00.063Z</time></trkpt><trkpt lat="36.9492983" lon="-4.443245"><ele>647.0</ele><time>2026-04-25T10:55:01.06Z</time></trkpt><trkpt lat="36.9490883" lon="-4.4430483"><ele>642.0</ele><time>2026-04-25T10:55:02.064Z</time></trkpt><trkpt lat="36.94888" lon="-4.44285"><ele>637.0</ele><time>2026-04-25T10:55:03.058Z</time></trkpt><trkpt lat="36.9486717" lon="-4.4426433"><ele>637.0</ele><time>2026-04-25T10:55:04.058Z</time></trkpt><trkpt lat="36.9484617" lon="-4.4424317"><ele>637.0</ele><time>2026-04-25T10:55:05.063Z</time></trkpt><trkpt lat="36.94825" lon="-4.442215"><ele>633.0</ele><time>2026-04-25T10:55:06.061Z</time></trkpt><trkpt lat="36.9480383" lon="-4.4419983"><ele>629.0</ele><time>2026-04-25T10:55:07.06Z</time></trkpt><trkpt lat="36.9478233" lon="-4.4417783"><ele>629.0</ele><time>2026-04-25T10:55:08.059Z</time></trkpt><trkpt lat="36.947605" lon="-4.44156"><ele>629.0</ele><time>2026-04-25T10:55:09.06Z</time></trkpt><trkpt lat="36.9473883" lon="-4.4413367"><ele>625.0</ele><time>2026-04-25T10:55:10.059Z</time></trkpt><trkpt lat="36.9471733" lon="-4.44111"><ele>621.0</ele><time>2026-04-25T10:55:11.062Z</time></trkpt><trkpt lat="36.9469617" lon="-4.44088"><ele>621.0</ele><time>2026-04-25T10:55:12.065Z</time></trkpt><trkpt lat="36.94675" lon="-4.4406483"><ele>621.0</ele><time>2026-04-25T10:55:13.06Z</time></trkpt><trkpt lat="36.94654" lon="-4.440415"><ele>624.0</ele><time>2026-04-25T10:55:14.059Z</time></trkpt><trkpt lat="36.9463317" lon="-4.440185"><ele>627.0</ele><time>2026-04-25T10:55:15.059Z</time></trkpt><trkpt lat="36.9461233" lon="-4.4399583"><ele>627.0</ele><time>2026-04-25T10:55:16.064Z</time></trkpt><trkpt lat="36.9459183" lon="-4.4397333"><ele>627.0</ele><time>2026-04-25T10:55:17.061Z</time></trkpt><trkpt lat="36.945715" lon="-4.4395117"><ele>638.5</ele><time>2026-04-25T10:55:18.063Z</time></trkpt><trkpt lat="36.9455117" lon="-4.43929"><ele>650.0</ele><time>2026-04-25T10:55:19.06Z</time></trkpt><trkpt lat="36.9453117" lon="-4.4390683"><ele>650.0</ele><time>2026-04-25T10:55:20.061Z</time></trkpt><trkpt lat="36.94511" lon="-4.4388467"><ele>650.0</ele><time>2026-04-25T10:55:21.06Z</time></trkpt><trkpt lat="36.94491" lon="-4.4386283"><ele>652.5</ele><time>2026-04-25T10:55:22.06Z</time></trkpt><trkpt lat="36.94471" lon="-4.43841"><ele>655.0</ele><time>2026-04-25T10:55:23.061Z</time></trkpt><trkpt lat="36.94451" lon="-4.43819"><ele>662.0</ele><time>2026-04-25T10:55:24.06Z</time></trkpt><trkpt lat="36.944305" lon="-4.4379667"><ele>669.0</ele><time>2026-04-25T10:55:25.059Z</time></trkpt><trkpt lat="36.9440967" lon="-4.4377417"><ele>669.0</ele><time>2026-04-25T10:55:26.061Z</time></trkpt><trkpt lat="36.943885" lon="-4.4375117"><ele>669.0</ele><time>2026-04-25T10:55:27.061Z</time></trkpt><trkpt lat="36.9436683" lon="-4.4372783"><ele>667.0</ele><time>2026-04-25T10:55:28.059Z</time></trkpt><trkpt lat="36.9434517" lon="-4.4370417"><ele>665.0</ele><time>2026-04-25T10:55:29.061Z</time></trkpt><trkpt lat="36.943235" lon="-4.4368033"><ele>665.0</ele><time>2026-04-25T10:55:30.061Z</time></trkpt><trkpt lat="36.9430183" lon="-4.436565"><ele>665.0</ele><time>2026-04-25T10:55:31.06Z</time></trkpt><trkpt lat="36.9428033" lon="-4.4363283"><ele>666.5</ele><time>2026-04-25T10:55:32.062Z</time></trkpt><trkpt lat="36.9425883" lon="-4.4360917"><ele>668.0</ele><time>2026-04-25T10:55:33.064Z</time></trkpt><trkpt lat="36.9423717" lon="-4.4358533"><ele>665.0</ele><time>2026-04-25T10:55:34.066Z</time></trkpt><trkpt lat="36.94215" lon="-4.4356217"><ele>662.0</ele><time>2026-04-25T10:55:35.064Z</time></trkpt><trkpt lat="36.9419267" lon="-4.4353967"><ele>656.0</ele><time>2026-04-25T10:55:36.063Z</time></trkpt><trkpt lat="36.9416983" lon="-4.4351783"><ele>650.0</ele><time>2026-04-25T10:55:37.066Z</time></trkpt><trkpt lat="36.9414683" lon="-4.4349633"><ele>650.0</ele><time>2026-04-25T10:55:38.062Z</time></trkpt><trkpt lat="36.9412317" lon="-4.4347517"><ele>650.0</ele><time>2026-04-25T10:55:39.058Z</time></trkpt><trkpt lat="36.9409933" lon="-4.4345433"><ele>650.0</ele><time>2026-04-25T10:55:40.063Z</time></trkpt><trkpt lat="36.94075" lon="-4.434345"><ele>650.0</ele><time>2026-04-25T10:55:41.061Z</time></trkpt><trkpt lat="36.9405" lon="-4.4341533"><ele>650.0</ele><time>2026-04-25T10:55:42.062Z</time></trkpt><trkpt lat="36.94025" lon="-4.4339683"><ele>650.0</ele><time>2026-04-25T10:55:43.057Z</time></trkpt><trkpt lat="36.939995" lon="-4.43379"><ele>642.0</ele><time>2026-04-25T10:55:44.059Z</time></trkpt><trkpt lat="36.9397383" lon="-4.4336183"><ele>634.0</ele><time>2026-04-25T10:55:45.06Z</time></trkpt><trkpt lat="36.9394767" lon="-4.4334533"><ele>629.0</ele><time>2026-04-25T10:55:46.058Z</time></trkpt><trkpt lat="36.939215" lon="-4.433295"><ele>624.0</ele><time>2026-04-25T10:55:47.062Z</time></trkpt><trkpt lat="36.9389517" lon="-4.4331417"><ele>624.0</ele><time>2026-04-25T10:55:48.062Z</time></trkpt><trkpt lat="36.9386833" lon="-4.432995"><ele>624.0</ele><time>2026-04-25T10:55:49.061Z</time></trkpt><trkpt lat="36.938415" lon="-4.4328567"><ele>624.5</ele><time>2026-04-25T10:55:50.06Z</time></trkpt><trkpt lat="36.9381433" lon="-4.4327283"><ele>625.0</ele><time>2026-04-25T10:55:51.06Z</time></trkpt><trkpt lat="36.93787" lon="-4.43261"><ele>625.0</ele><time>2026-04-25T10:55:52.062Z</time></trkpt><trkpt lat="36.9375933" lon="-4.4324983"><ele>625.0</ele><time>2026-04-25T10:55:53.063Z</time></trkpt><trkpt lat="36.937315" lon="-4.4323917"><ele>624.0</ele><time>2026-04-25T10:55:54.059Z</time></trkpt><trkpt lat="36.937035" lon="-4.4322917"><ele>623.0</ele><time>2026-04-25T10:55:55.058Z</time></trkpt><trkpt lat="36.9367567" lon="-4.4321983"><ele>627.0</ele><time>2026-04-25T10:55:56.063Z</time></trkpt><trkpt lat="36.936475" lon="-4.4321167"><ele>631.0</ele><time>2026-04-25T10:55:57.06Z</time></trkpt><trkpt lat="36.93619" lon="-4.43204"><ele>631.0</ele><time>2026-04-25T10:55:58.057Z</time></trkpt><trkpt lat="36.9359033" lon="-4.43197"><ele>631.0</ele><time>2026-04-25T10:55:59.066Z</time></trkpt><trkpt lat="36.935615" lon="-4.4319083"><ele>628.5</ele><time>2026-04-25T10:56:00.06Z</time></trkpt><trkpt lat="36.9353233" lon="-4.43185"><ele>626.0</ele><time>2026-04-25T10:56:01.064Z</time></trkpt><trkpt lat="36.93503" lon="-4.4318017"><ele>626.0</ele><time>2026-04-25T10:56:02.066Z</time></trkpt><trkpt lat="36.934735" lon="-4.4317583"><ele>626.0</ele><time>2026-04-25T10:56:03.064Z</time></trkpt><trkpt lat="36.9344383" lon="-4.4317233"><ele>627.0</ele><time>2026-04-25T10:56:04.06Z</time></trkpt><trkpt lat="36.93414" lon="-4.4317017"><ele>628.0</ele><time>2026-04-25T10:56:05.061Z</time></trkpt><trkpt lat="36.93384" lon="-4.43169"><ele>628.0</ele><time>2026-04-25T10:56:06.065Z</time></trkpt><trkpt lat="36.9335383" lon="-4.4316867"><ele>628.0</ele><time>2026-04-25T10:56:07.062Z</time></trkpt><trkpt lat="36.9332333" lon="-4.4316917"><ele>625.0</ele><time>2026-04-25T10:56:08.059Z</time></trkpt><trkpt lat="36.9329283" lon="-4.431705"><ele>622.0</ele><time>2026-04-25T10:56:09.06Z</time></trkpt><trkpt lat="36.9326233" lon="-4.4317217"><ele>621.5</ele><time>2026-04-25T10:56:10.061Z</time></trkpt><trkpt lat="36.932315" lon="-4.4317483"><ele>621.0</ele><time>2026-04-25T10:56:11.062Z</time></trkpt><trkpt lat="36.9320083" lon="-4.431785"><ele>620.5</ele><time>2026-04-25T10:56:12.062Z</time></trkpt><trkpt lat="36.9317" lon="-4.4318317"><ele>620.0</ele><time>2026-04-25T10:56:13.06Z</time></trkpt><trkpt lat="36.9313933" lon="-4.4318867"><ele>620.0</ele><time>2026-04-25T10:56:14.059Z</time></trkpt><trkpt lat="36.9310867" lon="-4.43195"><ele>620.0</ele><time>2026-04-25T10:56:15.066Z</time></trkpt><trkpt lat="36.93078" lon="-4.43202"><ele>617.5</ele><time>2026-04-25T10:56:16.06Z</time></trkpt><trkpt lat="36.9304733" lon="-4.4321017"><ele>615.0</ele><time>2026-04-25T10:56:17.061Z</time></trkpt><trkpt lat="36.9301667" lon="-4.4321917"><ele>607.5</ele><time>2026-04-25T10:56:18.06Z</time></trkpt><trkpt lat="36.9298617" lon="-4.4322933"><ele>600.0</ele><time>2026-04-25T10:56:19.061Z</time></trkpt><trkpt lat="36.92956" lon="-4.432405"><ele>600.0</ele><time>2026-04-25T10:56:20.064Z</time></trkpt><trkpt lat="36.9292617" lon="-4.43253"><ele>600.0</ele><time>2026-04-25T10:56:21.058Z</time></trkpt><trkpt lat="36.9289633" lon="-4.4326583"><ele>592.5</ele><time>2026-04-25T10:56:22.061Z</time></trkpt><trkpt lat="36.9286667" lon="-4.4327883"><ele>585.0</ele><time>2026-04-25T10:56:23.066Z</time></trkpt><trkpt lat="36.9283717" lon="-4.4329283"><ele>588.0</ele><time>2026-04-25T10:56:24.064Z</time></trkpt><trkpt lat="36.9280817" lon="-4.4330767"><ele>591.0</ele><time>2026-04-25T10:56:25.065Z</time></trkpt><trkpt lat="36.927795" lon="-4.433235"><ele>584.0</ele><time>2026-04-25T10:56:26.063Z</time></trkpt><trkpt lat="36.927515" lon="-4.4334033"><ele>577.0</ele><time>2026-04-25T10:56:27.06Z</time></trkpt><trkpt lat="36.92724" lon="-4.4335767"><ele>577.0</ele><time>2026-04-25T10:56:28.058Z</time></trkpt><trkpt lat="36.9269717" lon="-4.43376"><ele>577.0</ele><time>2026-04-25T10:56:29.062Z</time></trkpt><trkpt lat="36.9267067" lon="-4.4339483"><ele>575.0</ele><time>2026-04-25T10:56:30.066Z</time></trkpt><trkpt lat="36.926445" lon="-4.4341467"><ele>573.0</ele><time>2026-04-25T10:56:31.062Z</time></trkpt><trkpt lat="36.92619" lon="-4.4343583"><ele>573.0</ele><time>2026-04-25T10:56:32.059Z</time></trkpt><trkpt lat="36.92594" lon="-4.43458"><ele>573.0</ele><time>2026-04-25T10:56:33.064Z</time></trkpt><trkpt lat="36.92569" lon="-4.4348067"><ele>566.5</ele><time>2026-04-25T10:56:34.06Z</time></trkpt><trkpt lat="36.9254417" lon="-4.435035"><ele>560.0</ele><time>2026-04-25T10:56:35.059Z</time></trkpt><trkpt lat="36.9251917" lon="-4.4352617"><ele>556.0</ele><time>2026-04-25T10:56:36.06Z</time></trkpt><trkpt lat="36.9249433" lon="-4.4354867"><ele>552.0</ele><time>2026-04-25T10:56:37.058Z</time></trkpt><trkpt lat="36.924695" lon="-4.4357067"><ele>552.0</ele><time>2026-04-25T10:56:38.059Z</time></trkpt><trkpt lat="36.9244483" lon="-4.4359233"><ele>552.0</ele><time>2026-04-25T10:56:39.063Z</time></trkpt><trkpt lat="36.9242033" lon="-4.43614"><ele>554.5</ele><time>2026-04-25T10:56:40.059Z</time></trkpt><trkpt lat="36.9239567" lon="-4.4363483"><ele>557.0</ele><time>2026-04-25T10:56:41.059Z</time></trkpt><trkpt lat="36.9237083" lon="-4.4365533"><ele>557.0</ele><time>2026-04-25T10:56:42.06Z</time></trkpt><trkpt lat="36.9234583" lon="-4.4367533"><ele>557.0</ele><time>2026-04-25T10:56:43.063Z</time></trkpt><trkpt lat="36.9232083" lon="-4.4369483"><ele>557.5</ele><time>2026-04-25T10:56:44.063Z</time></trkpt><trkpt lat="36.9229583" lon="-4.43714"><ele>558.0</ele><time>2026-04-25T10:56:45.061Z</time></trkpt><trkpt lat="36.9227083" lon="-4.4373233"><ele>560.5</ele><time>2026-04-25T10:56:46.057Z</time></trkpt><trkpt lat="36.9224567" lon="-4.4375033"><ele>563.0</ele><time>2026-04-25T10:56:47.058Z</time></trkpt><trkpt lat="36.9222017" lon="-4.4376783"><ele>563.0</ele><time>2026-04-25T10:56:48.063Z</time></trkpt><trkpt lat="36.9219483" lon="-4.4378483"><ele>563.0</ele><time>2026-04-25T10:56:49.063Z</time></trkpt><trkpt lat="36.9216933" lon="-4.4380133"><ele>563.0</ele><time>2026-04-25T10:56:50.063Z</time></trkpt><trkpt lat="36.9214333" lon="-4.438175"><ele>563.0</ele><time>2026-04-25T10:56:51.064Z</time></trkpt><trkpt lat="36.92117" lon="-4.4383283"><ele>563.0</ele><time>2026-04-25T10:56:52.062Z</time></trkpt><trkpt lat="36.9209067" lon="-4.4384733"><ele>563.0</ele><time>2026-04-25T10:56:53.063Z</time></trkpt><trkpt lat="36.9206417" lon="-4.4386133"><ele>562.5</ele><time>2026-04-25T10:56:54.059Z</time></trkpt><trkpt lat="36.9203733" lon="-4.4387517"><ele>562.0</ele><time>2026-04-25T10:56:55.062Z</time></trkpt><trkpt lat="36.920105" lon="-4.438885"><ele>564.5</ele><time>2026-04-25T10:56:56.064Z</time></trkpt><trkpt lat="36.9198367" lon="-4.4390117"><ele>567.0</ele><time>2026-04-25T10:56:57.061Z</time></trkpt><trkpt lat="36.9195683" lon="-4.4391317"><ele>567.0</ele><time>2026-04-25T10:56:58.06Z</time></trkpt><trkpt lat="36.9192983" lon="-4.4392467"><ele>567.0</ele><time>2026-04-25T10:56:59.063Z</time></trkpt><trkpt lat="36.9190283" lon="-4.4393583"><ele>566.0</ele><time>2026-04-25T10:57:00.061Z</time></trkpt><trkpt lat="36.9187583" lon="-4.4394667"><ele>565.0</ele><time>2026-04-25T10:57:01.06Z</time></trkpt><trkpt lat="36.9184883" lon="-4.4395683"><ele>561.5</ele><time>2026-04-25T10:57:02.063Z</time></trkpt><trkpt lat="36.9182167" lon="-4.4396617"><ele>558.0</ele><time>2026-04-25T10:57:03.062Z</time></trkpt><trkpt lat="36.9179433" lon="-4.4397467"><ele>558.0</ele><time>2026-04-25T10:57:04.059Z</time></trkpt><trkpt lat="36.9176717" lon="-4.439825"><ele>558.0</ele><time>2026-04-25T10:57:05.062Z</time></trkpt><trkpt lat="36.9173983" lon="-4.4399"><ele>560.0</ele><time>2026-04-25T10:57:06.059Z</time></trkpt><trkpt lat="36.9171233" lon="-4.4399683"><ele>562.0</ele><time>2026-04-25T10:57:07.059Z</time></trkpt><trkpt lat="36.9168467" lon="-4.440035"><ele>558.0</ele><time>2026-04-25T10:57:08.059Z</time></trkpt><trkpt lat="36.91657" lon="-4.4400967"><ele>554.0</ele><time>2026-04-25T10:57:09.059Z</time></trkpt><trkpt lat="36.9162867" lon="-4.4401567"><ele>554.0</ele><time>2026-04-25T10:57:10.057Z</time></trkpt><trkpt lat="36.9160033" lon="-4.4402133"><ele>554.0</ele><time>2026-04-25T10:57:11.065Z</time></trkpt><trkpt lat="36.9157167" lon="-4.44027"><ele>549.0</ele><time>2026-04-25T10:57:12.065Z</time></trkpt><trkpt lat="36.9154283" lon="-4.4403283"><ele>544.0</ele><time>2026-04-25T10:57:13.063Z</time></trkpt><trkpt lat="36.9151367" lon="-4.4403817"><ele>541.0</ele><time>2026-04-25T10:57:14.057Z</time></trkpt><trkpt lat="36.9148467" lon="-4.4404383"><ele>538.0</ele><time>2026-04-25T10:57:15.059Z</time></trkpt><trkpt lat="36.9145583" lon="-4.440505"><ele>537.0</ele><time>2026-04-25T10:57:16.067Z</time></trkpt><trkpt lat="36.91427" lon="-4.4405767"><ele>536.0</ele><time>2026-04-25T10:57:17.064Z</time></trkpt><trkpt lat="36.9139833" lon="-4.440655"><ele>533.0</ele><time>2026-04-25T10:57:18.065Z</time></trkpt><trkpt lat="36.9136983" lon="-4.4407433"><ele>530.0</ele><time>2026-04-25T10:57:19.06Z</time></trkpt><trkpt lat="36.9134133" lon="-4.4408417"><ele>528.5</ele><time>2026-04-25T10:57:20.063Z</time></trkpt><trkpt lat="36.9131283" lon="-4.4409533"><ele>527.0</ele><time>2026-04-25T10:57:21.063Z</time></trkpt><trkpt lat="36.9128433" lon="-4.4410817"><ele>523.0</ele><time>2026-04-25T10:57:22.063Z</time></trkpt><trkpt lat="36.9125617" lon="-4.4412217"><ele>519.0</ele><time>2026-04-25T10:57:23.063Z</time></trkpt><trkpt lat="36.9122833" lon="-4.4413733"><ele>517.0</ele><time>2026-04-25T10:57:24.059Z</time></trkpt><trkpt lat="36.9120067" lon="-4.4415317"><ele>515.0</ele><time>2026-04-25T10:57:25.059Z</time></trkpt><trkpt lat="36.911735" lon="-4.4417"><ele>507.5</ele><time>2026-04-25T10:57:26.063Z</time></trkpt><trkpt lat="36.911465" lon="-4.4418767"><ele>500.0</ele><time>2026-04-25T10:57:27.062Z</time></trkpt><trkpt lat="36.9112" lon="-4.4420633"><ele>498.0</ele><time>2026-04-25T10:57:28.059Z</time></trkpt><trkpt lat="36.9109383" lon="-4.44226"><ele>496.0</ele><time>2026-04-25T10:57:29.061Z</time></trkpt><trkpt lat="36.9106817" lon="-4.4424667"><ele>500.0</ele><time>2026-04-25T10:57:30.062Z</time></trkpt><trkpt lat="36.9104317" lon="-4.442685"><ele>504.0</ele><time>2026-04-25T10:57:31.059Z</time></trkpt><trkpt lat="36.9101867" lon="-4.442915"><ele>506.5</ele><time>2026-04-25T10:57:32.061Z</time></trkpt><trkpt lat="36.9099467" lon="-4.4431533"><ele>509.0</ele><time>2026-04-25T10:57:33.061Z</time></trkpt><trkpt lat="36.9097117" lon="-4.4434"><ele>509.0</ele><time>2026-04-25T10:57:34.06Z</time></trkpt><trkpt lat="36.9094817" lon="-4.443655"><ele>509.0</ele><time>2026-04-25T10:57:35.065Z</time></trkpt><trkpt lat="36.9092583" lon="-4.44392"><ele>513.0</ele><time>2026-04-25T10:57:36.065Z</time></trkpt><trkpt lat="36.90904" lon="-4.4441933"><ele>517.0</ele><time>2026-04-25T10:57:37.059Z</time></trkpt><trkpt lat="36.9088267" lon="-4.4444767"><ele>512.0</ele><time>2026-04-25T10:57:38.063Z</time></trkpt><trkpt lat="36.90862" lon="-4.44477"><ele>507.0</ele><time>2026-04-25T10:57:39.058Z</time></trkpt><trkpt lat="36.90842" lon="-4.4450767"><ele>510.0</ele><time>2026-04-25T10:57:40.059Z</time></trkpt><trkpt lat="36.9082267" lon="-4.4453917"><ele>513.0</ele><time>2026-04-25T10:57:41.058Z</time></trkpt><trkpt lat="36.90804" lon="-4.4457133"><ele>506.0</ele><time>2026-04-25T10:57:42.059Z</time></trkpt><trkpt lat="36.9078633" lon="-4.446045"><ele>499.0</ele><time>2026-04-25T10:57:43.062Z</time></trkpt><trkpt lat="36.907695" lon="-4.446385"><ele>493.0</ele><time>2026-04-25T10:57:44.062Z</time></trkpt><trkpt lat="36.9075367" lon="-4.4467333"><ele>487.0</ele><time>2026-04-25T10:57:45.061Z</time></trkpt><trkpt lat="36.9073883" lon="-4.4470883"><ele>482.5</ele><time>2026-04-25T10:57:46.061Z</time></trkpt><trkpt lat="36.9072467" lon="-4.4474483"><ele>478.0</ele><time>2026-04-25T10:57:47.063Z</time></trkpt><trkpt lat="36.9071167" lon="-4.44781"><ele>476.5</ele><time>2026-04-25T10:57:48.061Z</time></trkpt><trkpt lat="36.90699" lon="-4.4481783"><ele>475.0</ele><time>2026-04-25T10:57:49.061Z</time></trkpt><trkpt lat="36.906875" lon="-4.44855"><ele>476.0</ele><time>2026-04-25T10:57:50.06Z</time></trkpt><trkpt lat="36.9067667" lon="-4.4489233"><ele>477.0</ele><time>2026-04-25T10:57:51.06Z</time></trkpt><trkpt lat="36.90666" lon="-4.4492983"><ele>482.5</ele><time>2026-04-25T10:57:52.06Z</time></trkpt><trkpt lat="36.9065533" lon="-4.44967"><ele>488.0</ele><time>2026-04-25T10:57:53.059Z</time></trkpt><trkpt lat="36.9064483" lon="-4.450035"><ele>488.0</ele><time>2026-04-25T10:57:54.058Z</time></trkpt><trkpt lat="36.906345" lon="-4.4503833"><ele>488.0</ele><time>2026-04-25T10:57:55.063Z</time></trkpt><trkpt lat="36.906245" lon="-4.450715"><ele>492.5</ele><time>2026-04-25T10:57:56.058Z</time></trkpt><trkpt lat="36.9061433" lon="-4.4510367"><ele>497.0</ele><time>2026-04-25T10:57:57.059Z</time></trkpt><trkpt lat="36.9060417" lon="-4.4513483"><ele>498.5</ele><time>2026-04-25T10:57:58.058Z</time></trkpt><trkpt lat="36.90594" lon="-4.4516533"><ele>500.0</ele><time>2026-04-25T10:57:59.061Z</time></trkpt><trkpt lat="36.9058367" lon="-4.4519517"><ele>495.0</ele><time>2026-04-25T10:58:00.058Z</time></trkpt><trkpt lat="36.90573" lon="-4.4522433"><ele>490.0</ele><time>2026-04-25T10:58:01.061Z</time></trkpt><trkpt lat="36.9056217" lon="-4.4525317"><ele>490.0</ele><time>2026-04-25T10:58:02.064Z</time></trkpt><trkpt lat="36.9055067" lon="-4.4528183"><ele>490.0</ele><time>2026-04-25T10:58:03.057Z</time></trkpt><trkpt lat="36.90539" lon="-4.4531033"><ele>491.5</ele><time>2026-04-25T10:58:04.059Z</time></trkpt><trkpt lat="36.9052683" lon="-4.453385"><ele>493.0</ele><time>2026-04-25T10:58:05.062Z</time></trkpt><trkpt lat="36.905145" lon="-4.4536633"><ele>487.5</ele><time>2026-04-25T10:58:06.06Z</time></trkpt><trkpt lat="36.9050217" lon="-4.4539367"><ele>482.0</ele><time>2026-04-25T10:58:07.059Z</time></trkpt><trkpt lat="36.9048983" lon="-4.4542033"><ele>482.0</ele><time>2026-04-25T10:58:08.06Z</time></trkpt><trkpt lat="36.9047767" lon="-4.4544633"><ele>482.0</ele><time>2026-04-25T10:58:09.06Z</time></trkpt><trkpt lat="36.9046533" lon="-4.454715"><ele>478.3333333333333</ele><time>2026-04-25T10:58:10.059Z</time></trkpt><trkpt lat="36.9045317" lon="-4.4549567"><ele>474.66666666666663</ele><time>2026-04-25T10:58:11.063Z</time></trkpt><trkpt lat="36.90441" lon="-4.4551867"><ele>471.0</ele><time>2026-04-25T10:58:12.056Z</time></trkpt><trkpt lat="36.9042933" lon="-4.4554067"><ele>472.0</ele><time>2026-04-25T10:58:13.059Z</time></trkpt><trkpt lat="36.9041783" lon="-4.4556183"><ele>473.0</ele><time>2026-04-25T10:58:14.058Z</time></trkpt><trkpt lat="36.904065" lon="-4.4558183"><ele>474.0</ele><time>2026-04-25T10:58:15.065Z</time></trkpt><trkpt lat="36.9039567" lon="-4.4560033"><ele>474.0</ele><time>2026-04-25T10:58:16.064Z</time></trkpt><trkpt lat="36.90385" lon="-4.4561817"><ele>474.0</ele><time>2026-04-25T10:58:17.063Z</time></trkpt><trkpt lat="36.9037467" lon="-4.4563533"><ele>474.0</ele><time>2026-04-25T10:58:18.061Z</time></trkpt><trkpt lat="36.9036467" lon="-4.4565217"><ele>475.0</ele><time>2026-04-25T10:58:19.058Z</time></trkpt><trkpt lat="36.9035483" lon="-4.4566817"><ele>476.0</ele><time>2026-04-25T10:58:20.061Z</time></trkpt><trkpt lat="36.90346" lon="-4.45683"><ele>477.0</ele><time>2026-04-25T10:58:21.06Z</time></trkpt><trkpt lat="36.9033817" lon="-4.45697"><ele>478.0</ele><time>2026-04-25T10:58:22.061Z</time></trkpt><trkpt lat="36.9033133" lon="-4.4571"><ele>479.4</ele><time>2026-04-25T10:58:23.06Z</time></trkpt><trkpt lat="36.90325" lon="-4.4572183"><ele>480.79999999999995</ele><time>2026-04-25T10:58:24.061Z</time></trkpt><trkpt lat="36.9031933" lon="-4.4573283"><ele>482.2</ele><time>2026-04-25T10:58:25.059Z</time></trkpt><trkpt lat="36.903145" lon="-4.4574283"><ele>483.6</ele><time>2026-04-25T10:58:26.063Z</time></trkpt><trkpt lat="36.9031083" lon="-4.457515"><ele>485.0</ele><time>2026-04-25T10:58:27.062Z</time></trkpt><trkpt lat="36.9030767" lon="-4.4575883"><ele>485.0</ele><time>2026-04-25T10:58:28.06Z</time></trkpt><trkpt lat="36.90301" lon="-4.4577133"><ele>485.0</ele><time>2026-04-25T10:58:30.064Z</time></trkpt><trkpt lat="36.9029383" lon="-4.4578233"><ele>485.0</ele><time>2026-04-25T10:58:32.063Z</time></trkpt><trkpt lat="36.9028817" lon="-4.45791"><ele>485.0</ele><time>2026-04-25T10:58:34.062Z</time></trkpt><trkpt lat="36.902835" lon="-4.45798"><ele>485.0</ele><time>2026-04-25T10:58:36.059Z</time></trkpt><trkpt lat="36.90278" lon="-4.4580483"><ele>485.8</ele><time>2026-04-25T10:58:39.059Z</time></trkpt><trkpt lat="36.9026533" lon="-4.4580633"><ele>486.6</ele><time>2026-04-25T10:59:39.06Z</time></trkpt><trkpt lat="36.9026183" lon="-4.4581883"><ele>487.4</ele><time>2026-04-25T10:59:43.063Z</time></trkpt><trkpt lat="36.90258" lon="-4.458265"><ele>488.2</ele><time>2026-04-25T10:59:44.063Z</time></trkpt><trkpt lat="36.902545" lon="-4.45836"><ele>489.0</ele><time>2026-04-25T10:59:45.062Z</time></trkpt><trkpt lat="36.9025167" lon="-4.45845"><ele>488.0</ele><time>2026-04-25T10:59:46.058Z</time></trkpt><trkpt lat="36.902495" lon="-4.4585733"><ele>487.0</ele><time>2026-04-25T10:59:48.06Z</time></trkpt><trkpt lat="36.9024783" lon="-4.45866"><ele>486.0</ele><time>2026-04-25T10:59:51.062Z</time></trkpt><trkpt lat="36.9024017" lon="-4.45872"><ele>485.0</ele><time>2026-04-25T11:00:11.059Z</time></trkpt><trkpt lat="36.9023" lon="-4.458775"><ele>484.0</ele><time>2026-04-25T11:00:13.059Z</time></trkpt><trkpt lat="36.9022167" lon="-4.45882"><ele>484.0</ele><time>2026-04-25T11:00:14.063Z</time></trkpt><trkpt lat="36.902105" lon="-4.4588783"><ele>484.0</ele><time>2026-04-25T11:00:15.058Z</time></trkpt><trkpt lat="36.9019617" lon="-4.4589733"><ele>484.0</ele><time>2026-04-25T11:00:16.064Z</time></trkpt><trkpt lat="36.9018233" lon="-4.45909"><ele>481.0</ele><time>2026-04-25T11:00:17.058Z</time></trkpt><trkpt lat="36.9016833" lon="-4.4592383"><ele>478.0</ele><time>2026-04-25T11:00:18.06Z</time></trkpt><trkpt lat="36.9015367" lon="-4.459415"><ele>475.0</ele><time>2026-04-25T11:00:19.063Z</time></trkpt><trkpt lat="36.9013733" lon="-4.4596133"><ele>472.5</ele><time>2026-04-25T11:00:20.061Z</time></trkpt><trkpt lat="36.90119" lon="-4.4598233"><ele>470.0</ele><time>2026-04-25T11:00:21.059Z</time></trkpt><trkpt lat="36.9009917" lon="-4.460045"><ele>468.5</ele><time>2026-04-25T11:00:22.06Z</time></trkpt><trkpt lat="36.9007817" lon="-4.4602733"><ele>467.0</ele><time>2026-04-25T11:00:23.059Z</time></trkpt><trkpt lat="36.9005633" lon="-4.4605083"><ele>462.0</ele><time>2026-04-25T11:00:24.064Z</time></trkpt><trkpt lat="36.9003367" lon="-4.4607467"><ele>457.0</ele><time>2026-04-25T11:00:25.058Z</time></trkpt><trkpt lat="36.9001083" lon="-4.460985"><ele>454.0</ele><time>2026-04-25T11:00:26.065Z</time></trkpt><trkpt lat="36.8998767" lon="-4.46122"><ele>451.0</ele><time>2026-04-25T11:00:27.061Z</time></trkpt><trkpt lat="36.8996383" lon="-4.4614533"><ele>449.0</ele><time>2026-04-25T11:00:28.061Z</time></trkpt><trkpt lat="36.8993917" lon="-4.46168"><ele>447.0</ele><time>2026-04-25T11:00:29.062Z</time></trkpt><trkpt lat="36.8991433" lon="-4.4619"><ele>443.5</ele><time>2026-04-25T11:00:30.065Z</time></trkpt><trkpt lat="36.8988933" lon="-4.4621233"><ele>440.0</ele><time>2026-04-25T11:00:31.062Z</time></trkpt><trkpt lat="36.8986433" lon="-4.46235"><ele>443.0</ele><time>2026-04-25T11:00:32.062Z</time></trkpt><trkpt lat="36.8984" lon="-4.4625783"><ele>446.0</ele><time>2026-04-25T11:00:33.062Z</time></trkpt><trkpt lat="36.8981617" lon="-4.4627967"><ele>446.0</ele><time>2026-04-25T11:00:34.063Z</time></trkpt><trkpt lat="36.8979283" lon="-4.4630067"><ele>446.0</ele><time>2026-04-25T11:00:35.065Z</time></trkpt><trkpt lat="36.8976967" lon="-4.4632067"><ele>455.0</ele><time>2026-04-25T11:00:36.061Z</time></trkpt><trkpt lat="36.89747" lon="-4.4633983"><ele>464.0</ele><time>2026-04-25T11:00:37.06Z</time></trkpt><trkpt lat="36.8972433" lon="-4.463585"><ele>464.0</ele><time>2026-04-25T11:00:38.064Z</time></trkpt><trkpt lat="36.8970217" lon="-4.4637717"><ele>464.0</ele><time>2026-04-25T11:00:39.063Z</time></trkpt><trkpt lat="36.8968033" lon="-4.46395"><ele>472.0</ele><time>2026-04-25T11:00:40.059Z</time></trkpt><trkpt lat="36.8965867" lon="-4.4641283"><ele>480.0</ele><time>2026-04-25T11:00:41.06Z</time></trkpt><trkpt lat="36.89637" lon="-4.464305"><ele>480.0</ele><time>2026-04-25T11:00:42.06Z</time></trkpt><trkpt lat="36.896155" lon="-4.46448"><ele>480.0</ele><time>2026-04-25T11:00:43.058Z</time></trkpt><trkpt lat="36.8959367" lon="-4.4646467"><ele>502.5</ele><time>2026-04-25T11:00:44.059Z</time></trkpt><trkpt lat="36.89572" lon="-4.46483"><ele>525.0</ele><time>2026-04-25T11:00:45.06Z</time></trkpt><trkpt lat="36.8955" lon="-4.4650217"><ele>525.0</ele><time>2026-04-25T11:00:46.064Z</time></trkpt><trkpt lat="36.8952783" lon="-4.4652117"><ele>525.0</ele><time>2026-04-25T11:00:47.058Z</time></trkpt><trkpt lat="36.8950517" lon="-4.4654"><ele>541.0</ele><time>2026-04-25T11:00:48.061Z</time></trkpt><trkpt lat="36.8948283" lon="-4.4655967"><ele>557.0</ele><time>2026-04-25T11:00:49.057Z</time></trkpt><trkpt lat="36.8945983" lon="-4.4657833"><ele>557.0</ele><time>2026-04-25T11:00:50.06Z</time></trkpt><trkpt lat="36.89438" lon="-4.4659767"><ele>557.0</ele><time>2026-04-25T11:00:51.061Z</time></trkpt><trkpt lat="36.89416" lon="-4.466165"><ele>513.0</ele><time>2026-04-25T11:00:52.062Z</time></trkpt><trkpt lat="36.89326" lon="-4.46685"><ele>513.0</ele><time>2026-04-25T11:00:56.066Z</time></trkpt><trkpt lat="36.8928167" lon="-4.466905"><ele>513.0</ele><time>2026-04-25T11:00:57.059Z</time></trkpt><trkpt lat="36.8925317" lon="-4.46708"><ele>494.0</ele><time>2026-04-25T11:00:58.061Z</time></trkpt><trkpt lat="36.8922783" lon="-4.467255"><ele>475.0</ele><time>2026-04-25T11:00:59.06Z</time></trkpt><trkpt lat="36.892025" lon="-4.46742"><ele>475.0</ele><time>2026-04-25T11:01:00.062Z</time></trkpt><trkpt lat="36.891775" lon="-4.467575"><ele>475.0</ele><time>2026-04-25T11:01:01.061Z</time></trkpt><trkpt lat="36.891525" lon="-4.46773"><ele>483.5</ele><time>2026-04-25T11:01:02.062Z</time></trkpt><trkpt lat="36.8912717" lon="-4.4678817"><ele>492.0</ele><time>2026-04-25T11:01:03.06Z</time></trkpt><trkpt lat="36.8910117" lon="-4.46802"><ele>493.0</ele><time>2026-04-25T11:01:04.06Z</time></trkpt><trkpt lat="36.8907567" lon="-4.4681567"><ele>494.0</ele><time>2026-04-25T11:01:05.057Z</time></trkpt><trkpt lat="36.8904967" lon="-4.4682883"><ele>494.0</ele><time>2026-04-25T11:01:06.061Z</time></trkpt><trkpt lat="36.8902433" lon="-4.4684233"><ele>494.0</ele><time>2026-04-25T11:01:07.058Z</time></trkpt><trkpt lat="36.88999" lon="-4.4685583"><ele>485.5</ele><time>2026-04-25T11:01:08.064Z</time></trkpt><trkpt lat="36.8897383" lon="-4.4686917"><ele>477.0</ele><time>2026-04-25T11:01:09.059Z</time></trkpt><trkpt lat="36.8894867" lon="-4.4688283"><ele>450.0</ele><time>2026-04-25T11:01:10.058Z</time></trkpt><trkpt lat="36.889235" lon="-4.4689683"><ele>423.0</ele><time>2026-04-25T11:01:11.062Z</time></trkpt><trkpt lat="36.8889833" lon="-4.4691117"><ele>423.0</ele><time>2026-04-25T11:01:12.063Z</time></trkpt><trkpt lat="36.8887333" lon="-4.46926"><ele>423.0</ele><time>2026-04-25T11:01:13.06Z</time></trkpt><trkpt lat="36.888485" lon="-4.46941"><ele>423.0</ele><time>2026-04-25T11:01:14.061Z</time></trkpt><trkpt lat="36.8882383" lon="-4.46956"><ele>423.0</ele><time>2026-04-25T11:01:15.061Z</time></trkpt><trkpt lat="36.8879933" lon="-4.469715"><ele>423.0</ele><time>2026-04-25T11:01:16.062Z</time></trkpt><trkpt lat="36.8877483" lon="-4.4698717"><ele>423.0</ele><time>2026-04-25T11:01:17.061Z</time></trkpt><trkpt lat="36.8875033" lon="-4.47003"><ele>436.0</ele><time>2026-04-25T11:01:18.064Z</time></trkpt><trkpt lat="36.8872617" lon="-4.4701917"><ele>449.0</ele><time>2026-04-25T11:01:19.059Z</time></trkpt><trkpt lat="36.8870217" lon="-4.4703567"><ele>451.5</ele><time>2026-04-25T11:01:20.063Z</time></trkpt><trkpt lat="36.8867833" lon="-4.470525"><ele>454.0</ele><time>2026-04-25T11:01:21.059Z</time></trkpt><trkpt lat="36.8865467" lon="-4.470695"><ele>454.0</ele><time>2026-04-25T11:01:22.061Z</time></trkpt><trkpt lat="36.8863117" lon="-4.47087"><ele>454.0</ele><time>2026-04-25T11:01:23.063Z</time></trkpt><trkpt lat="36.8860783" lon="-4.4710467"><ele>445.5</ele><time>2026-04-25T11:01:24.059Z</time></trkpt><trkpt lat="36.885845" lon="-4.4712283"><ele>437.0</ele><time>2026-04-25T11:01:25.058Z</time></trkpt><trkpt lat="36.8856133" lon="-4.4714167"><ele>437.0</ele><time>2026-04-25T11:01:26.058Z</time></trkpt><trkpt lat="36.8853833" lon="-4.4716083"><ele>437.0</ele><time>2026-04-25T11:01:27.06Z</time></trkpt><trkpt lat="36.885155" lon="-4.4718033"><ele>432.5</ele><time>2026-04-25T11:01:28.056Z</time></trkpt><trkpt lat="36.8849267" lon="-4.472"><ele>428.0</ele><time>2026-04-25T11:01:29.062Z</time></trkpt><trkpt lat="36.8847017" lon="-4.4722"><ele>438.0</ele><time>2026-04-25T11:01:30.061Z</time></trkpt><trkpt lat="36.8844783" lon="-4.4724067"><ele>448.0</ele><time>2026-04-25T11:01:31.058Z</time></trkpt><trkpt lat="36.884255" lon="-4.4726167"><ele>454.5</ele><time>2026-04-25T11:01:32.06Z</time></trkpt><trkpt lat="36.8840333" lon="-4.4728283"><ele>461.0</ele><time>2026-04-25T11:01:33.061Z</time></trkpt><trkpt lat="36.8838117" lon="-4.4730433"><ele>478.0</ele><time>2026-04-25T11:01:34.065Z</time></trkpt><trkpt lat="36.8835917" lon="-4.47326"><ele>495.0</ele><time>2026-04-25T11:01:35.06Z</time></trkpt><trkpt lat="36.8833733" lon="-4.473485"><ele>503.0</ele><time>2026-04-25T11:01:36.063Z</time></trkpt><trkpt lat="36.8831583" lon="-4.473715"><ele>511.0</ele><time>2026-04-25T11:01:37.06Z</time></trkpt><trkpt lat="36.8829433" lon="-4.4739533"><ele>513.0</ele><time>2026-04-25T11:01:38.061Z</time></trkpt><trkpt lat="36.8827283" lon="-4.4741967"><ele>515.0</ele><time>2026-04-25T11:01:39.059Z</time></trkpt><trkpt lat="36.8825133" lon="-4.4744433"><ele>495.5</ele><time>2026-04-25T11:01:40.059Z</time></trkpt><trkpt lat="36.8823017" lon="-4.4746967"><ele>476.0</ele><time>2026-04-25T11:01:41.058Z</time></trkpt><trkpt lat="36.88209" lon="-4.474955"><ele>476.0</ele><time>2026-04-25T11:01:42.061Z</time></trkpt><trkpt lat="36.8818817" lon="-4.47522"><ele>476.0</ele><time>2026-04-25T11:01:43.064Z</time></trkpt><trkpt lat="36.8816717" lon="-4.47549"><ele>472.0</ele><time>2026-04-25T11:01:44.062Z</time></trkpt><trkpt lat="36.8814633" lon="-4.475765"><ele>468.0</ele><time>2026-04-25T11:01:45.063Z</time></trkpt><trkpt lat="36.881255" lon="-4.4760417"><ele>478.5</ele><time>2026-04-25T11:01:46.061Z</time></trkpt><trkpt lat="36.88105" lon="-4.4763233"><ele>489.0</ele><time>2026-04-25T11:01:47.063Z</time></trkpt><trkpt lat="36.880845" lon="-4.4766067"><ele>489.0</ele><time>2026-04-25T11:01:48.06Z</time></trkpt><trkpt lat="36.8806417" lon="-4.4768933"><ele>489.0</ele><time>2026-04-25T11:01:49.06Z</time></trkpt><trkpt lat="36.8804367" lon="-4.4771867"><ele>493.0</ele><time>2026-04-25T11:01:50.058Z</time></trkpt><trkpt lat="36.880235" lon="-4.4774867"><ele>497.0</ele><time>2026-04-25T11:01:51.058Z</time></trkpt><trkpt lat="36.88003" lon="-4.477785"><ele>484.5</ele><time>2026-04-25T11:01:52.059Z</time></trkpt><trkpt lat="36.8798283" lon="-4.4780833"><ele>472.0</ele><time>2026-04-25T11:01:53.062Z</time></trkpt><trkpt lat="36.879625" lon="-4.4783767"><ele>472.0</ele><time>2026-04-25T11:01:54.058Z</time></trkpt><trkpt lat="36.87942" lon="-4.4786667"><ele>472.0</ele><time>2026-04-25T11:01:55.059Z</time></trkpt><trkpt lat="36.8792117" lon="-4.4789483"><ele>464.0</ele><time>2026-04-25T11:01:56.061Z</time></trkpt><trkpt lat="36.8789983" lon="-4.47922"><ele>456.0</ele><time>2026-04-25T11:01:57.059Z</time></trkpt><trkpt lat="36.8787817" lon="-4.4794867"><ele>455.0</ele><time>2026-04-25T11:01:58.058Z</time></trkpt><trkpt lat="36.87856" lon="-4.479745"><ele>454.0</ele><time>2026-04-25T11:01:59.059Z</time></trkpt><trkpt lat="36.878335" lon="-4.479995"><ele>454.0</ele><time>2026-04-25T11:02:00.061Z</time></trkpt><trkpt lat="36.8781067" lon="-4.4802333"><ele>454.0</ele><time>2026-04-25T11:02:01.064Z</time></trkpt><trkpt lat="36.8778767" lon="-4.480465"><ele>450.5</ele><time>2026-04-25T11:02:02.06Z</time></trkpt><trkpt lat="36.8776417" lon="-4.4806867"><ele>447.0</ele><time>2026-04-25T11:02:03.062Z</time></trkpt><trkpt lat="36.877405" lon="-4.4809"><ele>447.0</ele><time>2026-04-25T11:02:04.059Z</time></trkpt><trkpt lat="36.877165" lon="-4.4811017"><ele>447.0</ele><time>2026-04-25T11:02:05.059Z</time></trkpt><trkpt lat="36.8769233" lon="-4.4812967"><ele>429.0</ele><time>2026-04-25T11:02:06.061Z</time></trkpt><trkpt lat="36.8766817" lon="-4.4814783"><ele>411.0</ele><time>2026-04-25T11:02:07.059Z</time></trkpt><trkpt lat="36.87644" lon="-4.4816517"><ele>411.0</ele><time>2026-04-25T11:02:08.061Z</time></trkpt><trkpt lat="36.8761983" lon="-4.4818183"><ele>411.0</ele><time>2026-04-25T11:02:09.062Z</time></trkpt><trkpt lat="36.8759533" lon="-4.481975"><ele>394.0</ele><time>2026-04-25T11:02:10.064Z</time></trkpt><trkpt lat="36.8757067" lon="-4.4821167"><ele>377.0</ele><time>2026-04-25T11:02:11.059Z</time></trkpt><trkpt lat="36.875455" lon="-4.48225"><ele>377.0</ele><time>2026-04-25T11:02:12.057Z</time></trkpt><trkpt lat="36.8752017" lon="-4.48238"><ele>377.0</ele><time>2026-04-25T11:02:13.058Z</time></trkpt><trkpt lat="36.874945" lon="-4.482505"><ele>376.0</ele><time>2026-04-25T11:02:14.063Z</time></trkpt><trkpt lat="36.8746867" lon="-4.4826233"><ele>375.0</ele><time>2026-04-25T11:02:15.06Z</time></trkpt><trkpt lat="36.8744267" lon="-4.4827317"><ele>367.5</ele><time>2026-04-25T11:02:16.064Z</time></trkpt><trkpt lat="36.8741667" lon="-4.48283"><ele>360.0</ele><time>2026-04-25T11:02:17.059Z</time></trkpt><trkpt lat="36.873905" lon="-4.48292"><ele>358.0</ele><time>2026-04-25T11:02:18.059Z</time></trkpt><trkpt lat="36.8736417" lon="-4.4830067"><ele>356.0</ele><time>2026-04-25T11:02:19.06Z</time></trkpt><trkpt lat="36.8733767" lon="-4.4830867"><ele>364.0</ele><time>2026-04-25T11:02:20.064Z</time></trkpt><trkpt lat="36.8731133" lon="-4.4831517"><ele>372.0</ele><time>2026-04-25T11:02:21.062Z</time></trkpt><trkpt lat="36.87285" lon="-4.4832117"><ele>386.5</ele><time>2026-04-25T11:02:22.062Z</time></trkpt><trkpt lat="36.872585" lon="-4.4832633"><ele>401.0</ele><time>2026-04-25T11:02:23.059Z</time></trkpt><trkpt lat="36.8723217" lon="-4.483305"><ele>401.0</ele><time>2026-04-25T11:02:24.063Z</time></trkpt><trkpt lat="36.8720583" lon="-4.4833417"><ele>401.0</ele><time>2026-04-25T11:02:25.059Z</time></trkpt><trkpt lat="36.8717967" lon="-4.4833767"><ele>411.0</ele><time>2026-04-25T11:02:26.066Z</time></trkpt><trkpt lat="36.8715333" lon="-4.4834117"><ele>421.0</ele><time>2026-04-25T11:02:27.061Z</time></trkpt><trkpt lat="36.871275" lon="-4.483445"><ele>421.0</ele><time>2026-04-25T11:02:28.059Z</time></trkpt><trkpt lat="36.87102" lon="-4.4834783"><ele>421.0</ele><time>2026-04-25T11:02:29.06Z</time></trkpt><trkpt lat="36.8707767" lon="-4.4835117"><ele>429.5</ele><time>2026-04-25T11:02:30.059Z</time></trkpt><trkpt lat="36.870545" lon="-4.48354"><ele>438.0</ele><time>2026-04-25T11:02:31.061Z</time></trkpt><trkpt lat="36.8703167" lon="-4.4835617"><ele>448.5</ele><time>2026-04-25T11:02:32.06Z</time></trkpt><trkpt lat="36.8700867" lon="-4.483585"><ele>459.0</ele><time>2026-04-25T11:02:33.06Z</time></trkpt><trkpt lat="36.8698517" lon="-4.4836067"><ele>459.0</ele><time>2026-04-25T11:02:34.058Z</time></trkpt><trkpt lat="36.8696117" lon="-4.4836333"><ele>459.0</ele><time>2026-04-25T11:02:35.061Z</time></trkpt><trkpt lat="36.869375" lon="-4.4836683"><ele>479.0</ele><time>2026-04-25T11:02:36.062Z</time></trkpt><trkpt lat="36.86914" lon="-4.4837083"><ele>499.0</ele><time>2026-04-25T11:02:37.061Z</time></trkpt><trkpt lat="36.8689033" lon="-4.4837483"><ele>508.0</ele><time>2026-04-25T11:02:38.062Z</time></trkpt><trkpt lat="36.8686583" lon="-4.4837917"><ele>517.0</ele><time>2026-04-25T11:02:39.06Z</time></trkpt><trkpt lat="36.868415" lon="-4.483835"><ele>539.5</ele><time>2026-04-25T11:02:40.059Z</time></trkpt><trkpt lat="36.8681683" lon="-4.48388"><ele>562.0</ele><time>2026-04-25T11:02:41.059Z</time></trkpt><trkpt lat="36.8679233" lon="-4.4839233"><ele>562.0</ele><time>2026-04-25T11:02:42.06Z</time></trkpt><trkpt lat="36.8676783" lon="-4.4839667"><ele>562.0</ele><time>2026-04-25T11:02:43.058Z</time></trkpt><trkpt lat="36.857365" lon="-4.4850417"><ele>514.5</ele><time>2026-04-25T11:03:24.061Z</time></trkpt><trkpt lat="36.8571059" lon="-4.4850557"><ele>467.0</ele><time>2026-04-25T11:03:25.059Z</time></trkpt><trkpt lat="36.8568471" lon="-4.4850678"><ele>460.0</ele><time>2026-04-25T11:03:26.063Z</time></trkpt><trkpt lat="36.8565881" lon="-4.4850747"><ele>453.0</ele><time>2026-04-25T11:03:27.061Z</time></trkpt><trkpt lat="36.8563265" lon="-4.4850767"><ele>453.0</ele><time>2026-04-25T11:03:28.06Z</time></trkpt><trkpt lat="36.8560617" lon="-4.4850721"><ele>453.0</ele><time>2026-04-25T11:03:29.061Z</time></trkpt><trkpt lat="36.8557951" lon="-4.485067"><ele>446.0</ele><time>2026-04-25T11:03:30.061Z</time></trkpt><trkpt lat="36.8555265" lon="-4.4850597"><ele>439.0</ele><time>2026-04-25T11:03:31.064Z</time></trkpt><trkpt lat="36.8552569" lon="-4.485048"><ele>438.5</ele><time>2026-04-25T11:03:32.062Z</time></trkpt><trkpt lat="36.8549866" lon="-4.4850313"><ele>438.0</ele><time>2026-04-25T11:03:33.061Z</time></trkpt><trkpt lat="36.8547178" lon="-4.4850093"><ele>438.0</ele><time>2026-04-25T11:03:34.059Z</time></trkpt><trkpt lat="36.8544456" lon="-4.4849811"><ele>438.0</ele><time>2026-04-25T11:03:35.061Z</time></trkpt><trkpt lat="36.8541723" lon="-4.4849498"><ele>430.0</ele><time>2026-04-25T11:03:36.061Z</time></trkpt><trkpt lat="36.8538977" lon="-4.4849145"><ele>422.0</ele><time>2026-04-25T11:03:37.06Z</time></trkpt><trkpt lat="36.8536248" lon="-4.4848755"><ele>423.0</ele><time>2026-04-25T11:03:38.06Z</time></trkpt><trkpt lat="36.8533519" lon="-4.4848356"><ele>424.0</ele><time>2026-04-25T11:03:39.059Z</time></trkpt><trkpt lat="36.8530783" lon="-4.4847904"><ele>424.0</ele><time>2026-04-25T11:03:40.061Z</time></trkpt><trkpt lat="36.852805" lon="-4.4847419"><ele>424.0</ele><time>2026-04-25T11:03:41.06Z</time></trkpt><trkpt lat="36.8525318" lon="-4.4846906"><ele>421.5</ele><time>2026-04-25T11:03:42.064Z</time></trkpt><trkpt lat="36.8522604" lon="-4.4846391"><ele>419.0</ele><time>2026-04-25T11:03:43.062Z</time></trkpt><trkpt lat="36.8519885" lon="-4.4845897"><ele>446.0</ele><time>2026-04-25T11:03:44.062Z</time></trkpt><trkpt lat="36.8517177" lon="-4.4845412"><ele>473.0</ele><time>2026-04-25T11:03:45.058Z</time></trkpt><trkpt lat="36.851447" lon="-4.4844915"><ele>473.0</ele><time>2026-04-25T11:03:46.059Z</time></trkpt><trkpt lat="36.8511768" lon="-4.4844417"><ele>473.0</ele><time>2026-04-25T11:03:47.061Z</time></trkpt><trkpt lat="36.8509072" lon="-4.484393"><ele>475.0</ele><time>2026-04-25T11:03:48.058Z</time></trkpt><trkpt lat="36.8506342" lon="-4.4843444"><ele>477.0</ele><time>2026-04-25T11:03:49.058Z</time></trkpt><trkpt lat="36.8503574" lon="-4.4843022"><ele>469.0</ele><time>2026-04-25T11:03:50.065Z</time></trkpt><trkpt lat="36.8500808" lon="-4.4842599"><ele>461.0</ele><time>2026-04-25T11:03:51.06Z</time></trkpt><trkpt lat="36.8498007" lon="-4.4842191"><ele>461.0</ele><time>2026-04-25T11:03:52.06Z</time></trkpt><trkpt lat="36.8495189" lon="-4.4841752"><ele>461.0</ele><time>2026-04-25T11:03:53.061Z</time></trkpt><trkpt lat="36.849237" lon="-4.4841311"><ele>447.0</ele><time>2026-04-25T11:03:54.058Z</time></trkpt><trkpt lat="36.8489509" lon="-4.4840924"><ele>433.0</ele><time>2026-04-25T11:03:55.059Z</time></trkpt><trkpt lat="36.8486639" lon="-4.4840576"><ele>416.0</ele><time>2026-04-25T11:03:56.058Z</time></trkpt><trkpt lat="36.8483742" lon="-4.4840268"><ele>399.0</ele><time>2026-04-25T11:03:57.057Z</time></trkpt><trkpt lat="36.8480823" lon="-4.4840006"><ele>399.0</ele><time>2026-04-25T11:03:58.059Z</time></trkpt><trkpt lat="36.8477903" lon="-4.483973"><ele>399.0</ele><time>2026-04-25T11:03:59.06Z</time></trkpt><trkpt lat="36.8474971" lon="-4.4839472"><ele>405.0</ele><time>2026-04-25T11:04:00.06Z</time></trkpt><trkpt lat="36.8472033" lon="-4.4839219"><ele>411.0</ele><time>2026-04-25T11:04:01.065Z</time></trkpt><trkpt lat="36.8469078" lon="-4.483897"><ele>430.5</ele><time>2026-04-25T11:04:02.062Z</time></trkpt><trkpt lat="36.8466124" lon="-4.4838738"><ele>450.0</ele><time>2026-04-25T11:04:03.058Z</time></trkpt><trkpt lat="36.8463155" lon="-4.4838505"><ele>450.0</ele><time>2026-04-25T11:04:04.059Z</time></trkpt><trkpt lat="36.8460183" lon="-4.4838283"><ele>450.0</ele><time>2026-04-25T11:04:05.064Z</time></trkpt><trkpt lat="36.84572" lon="-4.4838117"><ele>450.5</ele><time>2026-04-25T11:04:06.062Z</time></trkpt><trkpt lat="36.8454233" lon="-4.483795"><ele>451.0</ele><time>2026-04-25T11:04:07.062Z</time></trkpt><trkpt lat="36.845125" lon="-4.4837783"><ele>464.5</ele><time>2026-04-25T11:04:08.061Z</time></trkpt><trkpt lat="36.8448267" lon="-4.4837583"><ele>478.0</ele><time>2026-04-25T11:04:09.059Z</time></trkpt><trkpt lat="36.8445283" lon="-4.4837367"><ele>480.5</ele><time>2026-04-25T11:04:10.061Z</time></trkpt><trkpt lat="36.8442283" lon="-4.4837183"><ele>483.0</ele><time>2026-04-25T11:04:11.063Z</time></trkpt><trkpt lat="36.8439283" lon="-4.4836967"><ele>483.0</ele><time>2026-04-25T11:04:12.063Z</time></trkpt><trkpt lat="36.8436283" lon="-4.48367"><ele>483.0</ele><time>2026-04-25T11:04:13.06Z</time></trkpt><trkpt lat="36.84333" lon="-4.483635"><ele>474.5</ele><time>2026-04-25T11:04:14.064Z</time></trkpt><trkpt lat="36.843035" lon="-4.4835883"><ele>466.0</ele><time>2026-04-25T11:04:15.061Z</time></trkpt><trkpt lat="36.8427417" lon="-4.4835367"><ele>448.5</ele><time>2026-04-25T11:04:16.058Z</time></trkpt><trkpt lat="36.8424483" lon="-4.483485"><ele>431.0</ele><time>2026-04-25T11:04:17.059Z</time></trkpt><trkpt lat="36.8421567" lon="-4.4834233"><ele>431.0</ele><time>2026-04-25T11:04:18.059Z</time></trkpt><trkpt lat="36.8418717" lon="-4.4833467"><ele>431.0</ele><time>2026-04-25T11:04:19.061Z</time></trkpt><trkpt lat="36.8415917" lon="-4.483255"><ele>429.0</ele><time>2026-04-25T11:04:20.06Z</time></trkpt><trkpt lat="36.8413133" lon="-4.48315"><ele>427.0</ele><time>2026-04-25T11:04:21.061Z</time></trkpt><trkpt lat="36.8410367" lon="-4.4830367"><ele>450.5</ele><time>2026-04-25T11:04:22.059Z</time></trkpt><trkpt lat="36.8407617" lon="-4.482915"><ele>474.0</ele><time>2026-04-25T11:04:23.059Z</time></trkpt><trkpt lat="36.84049" lon="-4.4827833"><ele>474.0</ele><time>2026-04-25T11:04:24.061Z</time></trkpt><trkpt lat="36.8402233" lon="-4.4826433"><ele>474.0</ele><time>2026-04-25T11:04:25.059Z</time></trkpt><trkpt lat="36.8399617" lon="-4.4824933"><ele>468.0</ele><time>2026-04-25T11:04:26.06Z</time></trkpt><trkpt lat="36.8397017" lon="-4.4823317"><ele>462.0</ele><time>2026-04-25T11:04:27.062Z</time></trkpt><trkpt lat="36.8394483" lon="-4.48216"><ele>459.5</ele><time>2026-04-25T11:04:28.063Z</time></trkpt><trkpt lat="36.8391967" lon="-4.4819817"><ele>457.0</ele><time>2026-04-25T11:04:29.062Z</time></trkpt><trkpt lat="36.8389483" lon="-4.4817933"><ele>457.0</ele><time>2026-04-25T11:04:30.064Z</time></trkpt><trkpt lat="36.8387033" lon="-4.4815933"><ele>457.0</ele><time>2026-04-25T11:04:31.06Z</time></trkpt><trkpt lat="36.8384633" lon="-4.4813867"><ele>439.0</ele><time>2026-04-25T11:04:32.065Z</time></trkpt><trkpt lat="36.8382283" lon="-4.481175"><ele>421.0</ele><time>2026-04-25T11:04:33.06Z</time></trkpt><trkpt lat="36.8379967" lon="-4.4809533"><ele>421.0</ele><time>2026-04-25T11:04:34.059Z</time></trkpt><trkpt lat="36.8377717" lon="-4.4807267"><ele>421.0</ele><time>2026-04-25T11:04:35.061Z</time></trkpt><trkpt lat="36.837555" lon="-4.48049"><ele>400.0</ele><time>2026-04-25T11:04:36.06Z</time></trkpt><trkpt lat="36.8373467" lon="-4.4802433"><ele>379.0</ele><time>2026-04-25T11:04:37.059Z</time></trkpt><trkpt lat="36.8371433" lon="-4.4799883"><ele>379.0</ele><time>2026-04-25T11:04:38.062Z</time></trkpt><trkpt lat="36.8369433" lon="-4.47973"><ele>379.0</ele><time>2026-04-25T11:04:39.06Z</time></trkpt><trkpt lat="36.83675" lon="-4.4794633"><ele>372.0</ele><time>2026-04-25T11:04:40.061Z</time></trkpt><trkpt lat="36.8365617" lon="-4.47919"><ele>365.0</ele><time>2026-04-25T11:04:41.062Z</time></trkpt><trkpt lat="36.83638" lon="-4.4789083"><ele>371.0</ele><time>2026-04-25T11:04:42.06Z</time></trkpt><trkpt lat="36.8362067" lon="-4.4786233"><ele>377.0</ele><time>2026-04-25T11:04:43.063Z</time></trkpt><trkpt lat="36.83604" lon="-4.4783283"><ele>389.5</ele><time>2026-04-25T11:04:44.06Z</time></trkpt><trkpt lat="36.8358817" lon="-4.4780283"><ele>402.0</ele><time>2026-04-25T11:04:45.059Z</time></trkpt><trkpt lat="36.8357283" lon="-4.4777217"><ele>410.0</ele><time>2026-04-25T11:04:46.059Z</time></trkpt><trkpt lat="36.8355783" lon="-4.47741"><ele>418.0</ele><time>2026-04-25T11:04:47.064Z</time></trkpt><trkpt lat="36.8354333" lon="-4.4770933"><ele>422.5</ele><time>2026-04-25T11:04:48.061Z</time></trkpt><trkpt lat="36.8352967" lon="-4.47677"><ele>427.0</ele><time>2026-04-25T11:04:49.06Z</time></trkpt><trkpt lat="36.8351633" lon="-4.4764433"><ele>436.0</ele><time>2026-04-25T11:04:50.061Z</time></trkpt><trkpt lat="36.8350317" lon="-4.4761167"><ele>445.0</ele><time>2026-04-25T11:04:51.059Z</time></trkpt><trkpt lat="36.8349017" lon="-4.4757917"><ele>445.0</ele><time>2026-04-25T11:04:52.058Z</time></trkpt><trkpt lat="36.8347667" lon="-4.4754717"><ele>445.0</ele><time>2026-04-25T11:04:53.059Z</time></trkpt><trkpt lat="36.8346283" lon="-4.4751567"><ele>443.5</ele><time>2026-04-25T11:04:54.061Z</time></trkpt><trkpt lat="36.83448" lon="-4.4748433"><ele>442.0</ele><time>2026-04-25T11:04:55.063Z</time></trkpt><trkpt lat="36.83432" lon="-4.4745433"><ele>458.0</ele><time>2026-04-25T11:04:56.063Z</time></trkpt><trkpt lat="36.8341517" lon="-4.4742533"><ele>474.0</ele><time>2026-04-25T11:04:57.06Z</time></trkpt><trkpt lat="36.833975" lon="-4.4739683"><ele>477.5</ele><time>2026-04-25T11:04:58.061Z</time></trkpt><trkpt lat="36.833795" lon="-4.473685"><ele>481.0</ele><time>2026-04-25T11:04:59.061Z</time></trkpt><trkpt lat="36.8336133" lon="-4.47341"><ele>469.5</ele><time>2026-04-25T11:05:00.064Z</time></trkpt><trkpt lat="36.8334233" lon="-4.4731467"><ele>458.0</ele><time>2026-04-25T11:05:01.059Z</time></trkpt><trkpt lat="36.8332233" lon="-4.4728933"><ele>455.0</ele><time>2026-04-25T11:05:02.063Z</time></trkpt><trkpt lat="36.8330183" lon="-4.47265"><ele>452.0</ele><time>2026-04-25T11:05:03.059Z</time></trkpt><trkpt lat="36.83281" lon="-4.47241"><ele>442.0</ele><time>2026-04-25T11:05:04.061Z</time></trkpt><trkpt lat="36.8325967" lon="-4.4721767"><ele>432.0</ele><time>2026-04-25T11:05:05.06Z</time></trkpt><trkpt lat="36.832375" lon="-4.471955"><ele>429.5</ele><time>2026-04-25T11:05:06.058Z</time></trkpt><trkpt lat="36.8321467" lon="-4.47174"><ele>427.0</ele><time>2026-04-25T11:05:07.062Z</time></trkpt><trkpt lat="36.8319133" lon="-4.4715333"><ele>429.0</ele><time>2026-04-25T11:05:08.062Z</time></trkpt><trkpt lat="36.8316717" lon="-4.471335"><ele>431.0</ele><time>2026-04-25T11:05:09.063Z</time></trkpt><trkpt lat="36.8314217" lon="-4.4711467"><ele>431.0</ele><time>2026-04-25T11:05:10.061Z</time></trkpt><trkpt lat="36.83116" lon="-4.4709633"><ele>431.0</ele><time>2026-04-25T11:05:11.061Z</time></trkpt><trkpt lat="36.8308933" lon="-4.4707917"><ele>423.5</ele><time>2026-04-25T11:05:12.06Z</time></trkpt><trkpt lat="36.8306233" lon="-4.4706283"><ele>416.0</ele><time>2026-04-25T11:05:13.06Z</time></trkpt><trkpt lat="36.830345" lon="-4.47048"><ele>423.5</ele><time>2026-04-25T11:05:14.061Z</time></trkpt><trkpt lat="36.830065" lon="-4.4703417"><ele>431.0</ele><time>2026-04-25T11:05:15.061Z</time></trkpt><trkpt lat="36.8297783" lon="-4.47022"><ele>431.0</ele><time>2026-04-25T11:05:16.062Z</time></trkpt><trkpt lat="36.8294917" lon="-4.4701033"><ele>431.0</ele><time>2026-04-25T11:05:17.06Z</time></trkpt><trkpt lat="36.8292" lon="-4.4699983"><ele>427.5</ele><time>2026-04-25T11:05:18.06Z</time></trkpt><trkpt lat="36.8289067" lon="-4.4699067"><ele>424.0</ele><time>2026-04-25T11:05:19.063Z</time></trkpt><trkpt lat="36.8286117" lon="-4.4698283"><ele>423.5</ele><time>2026-04-25T11:05:20.062Z</time></trkpt><trkpt lat="36.8283167" lon="-4.4697633"><ele>423.0</ele><time>2026-04-25T11:05:21.064Z</time></trkpt><trkpt lat="36.8280233" lon="-4.4697117"><ele>423.0</ele><time>2026-04-25T11:05:22.06Z</time></trkpt><trkpt lat="36.8277283" lon="-4.469665"><ele>423.0</ele><time>2026-04-25T11:05:23.058Z</time></trkpt><trkpt lat="36.827435" lon="-4.4696283"><ele>437.5</ele><time>2026-04-25T11:05:24.061Z</time></trkpt><trkpt lat="36.82714" lon="-4.4696083"><ele>452.0</ele><time>2026-04-25T11:05:25.062Z</time></trkpt><trkpt lat="36.826845" lon="-4.4696033"><ele>443.0</ele><time>2026-04-25T11:05:26.064Z</time></trkpt><trkpt lat="36.82655" lon="-4.4696117"><ele>434.0</ele><time>2026-04-25T11:05:27.057Z</time></trkpt><trkpt lat="36.8262517" lon="-4.4696333"><ele>438.0</ele><time>2026-04-25T11:05:28.059Z</time></trkpt><trkpt lat="36.8259517" lon="-4.4696633"><ele>442.0</ele><time>2026-04-25T11:05:29.06Z</time></trkpt><trkpt lat="36.8256517" lon="-4.4697083"><ele>442.0</ele><time>2026-04-25T11:05:30.063Z</time></trkpt><trkpt lat="36.82535" lon="-4.469765"><ele>442.0</ele><time>2026-04-25T11:05:31.063Z</time></trkpt><trkpt lat="36.8250517" lon="-4.4698383"><ele>432.5</ele><time>2026-04-25T11:05:32.058Z</time></trkpt><trkpt lat="36.8247517" lon="-4.4699217"><ele>423.0</ele><time>2026-04-25T11:05:33.06Z</time></trkpt><trkpt lat="36.8244533" lon="-4.47001"><ele>426.0</ele><time>2026-04-25T11:05:34.062Z</time></trkpt><trkpt lat="36.824155" lon="-4.4701017"><ele>429.0</ele><time>2026-04-25T11:05:35.06Z</time></trkpt><trkpt lat="36.82386" lon="-4.470195"><ele>429.0</ele><time>2026-04-25T11:05:36.063Z</time></trkpt><trkpt lat="36.8235617" lon="-4.4702883"><ele>429.0</ele><time>2026-04-25T11:05:37.058Z</time></trkpt><trkpt lat="36.82326" lon="-4.4703767"><ele>432.5</ele><time>2026-04-25T11:05:38.061Z</time></trkpt><trkpt lat="36.8229567" lon="-4.4704567"><ele>436.0</ele><time>2026-04-25T11:05:39.061Z</time></trkpt><trkpt lat="36.82265" lon="-4.4705283"><ele>437.5</ele><time>2026-04-25T11:05:40.059Z</time></trkpt><trkpt lat="36.82234" lon="-4.47059"><ele>439.0</ele><time>2026-04-25T11:05:41.06Z</time></trkpt><trkpt lat="36.822025" lon="-4.4706383"><ele>441.0</ele><time>2026-04-25T11:05:42.065Z</time></trkpt><trkpt lat="36.8217083" lon="-4.470675"><ele>443.0</ele><time>2026-04-25T11:05:43.064Z</time></trkpt><trkpt lat="36.82139" lon="-4.4707033"><ele>443.0</ele><time>2026-04-25T11:05:44.063Z</time></trkpt><trkpt lat="36.8210683" lon="-4.4707233"><ele>443.0</ele><time>2026-04-25T11:05:45.069Z</time></trkpt><trkpt lat="36.820745" lon="-4.470735"><ele>436.5</ele><time>2026-04-25T11:05:46.059Z</time></trkpt><trkpt lat="36.8204183" lon="-4.470735"><ele>430.0</ele><time>2026-04-25T11:05:47.061Z</time></trkpt><trkpt lat="36.82009" lon="-4.47072"><ele>419.0</ele><time>2026-04-25T11:05:48.058Z</time></trkpt><trkpt lat="36.81976" lon="-4.4706967"><ele>408.0</ele><time>2026-04-25T11:05:49.059Z</time></trkpt><trkpt lat="36.81943" lon="-4.4706617"><ele>407.0</ele><time>2026-04-25T11:05:50.061Z</time></trkpt><trkpt lat="36.8191017" lon="-4.4706117"><ele>406.0</ele><time>2026-04-25T11:05:51.058Z</time></trkpt><trkpt lat="36.81877" lon="-4.4705517"><ele>405.0</ele><time>2026-04-25T11:05:52.062Z</time></trkpt><trkpt lat="36.8184383" lon="-4.4704817"><ele>404.0</ele><time>2026-04-25T11:05:53.059Z</time></trkpt><trkpt lat="36.8181067" lon="-4.4704083"><ele>404.0</ele><time>2026-04-25T11:05:54.062Z</time></trkpt><trkpt lat="36.8177683" lon="-4.4703317"><ele>404.0</ele><time>2026-04-25T11:05:55.064Z</time></trkpt><trkpt lat="36.8174317" lon="-4.470255"><ele>392.0</ele><time>2026-04-25T11:05:56.061Z</time></trkpt><trkpt lat="36.817095" lon="-4.470185"><ele>380.0</ele><time>2026-04-25T11:05:57.064Z</time></trkpt><trkpt lat="36.816755" lon="-4.4701233"><ele>380.0</ele><time>2026-04-25T11:05:58.059Z</time></trkpt><trkpt lat="36.816415" lon="-4.4700717"><ele>380.0</ele><time>2026-04-25T11:05:59.06Z</time></trkpt><trkpt lat="36.81607" lon="-4.470035"><ele>391.0</ele><time>2026-04-25T11:06:00.061Z</time></trkpt><trkpt lat="36.8157233" lon="-4.4700117"><ele>402.0</ele><time>2026-04-25T11:06:01.059Z</time></trkpt><trkpt lat="36.8153733" lon="-4.470005"><ele>395.5</ele><time>2026-04-25T11:06:02.062Z</time></trkpt><trkpt lat="36.8150233" lon="-4.4700167"><ele>389.0</ele><time>2026-04-25T11:06:03.06Z</time></trkpt><trkpt lat="36.81468" lon="-4.4700433"><ele>389.0</ele><time>2026-04-25T11:06:04.061Z</time></trkpt><trkpt lat="36.8143433" lon="-4.4700833"><ele>389.0</ele><time>2026-04-25T11:06:05.058Z</time></trkpt><trkpt lat="36.8140133" lon="-4.470135"><ele>384.5</ele><time>2026-04-25T11:06:06.061Z</time></trkpt><trkpt lat="36.8136833" lon="-4.470195"><ele>380.0</ele><time>2026-04-25T11:06:07.061Z</time></trkpt><trkpt lat="36.8133583" lon="-4.4702683"><ele>380.0</ele><time>2026-04-25T11:06:08.061Z</time></trkpt><trkpt lat="36.8130383" lon="-4.4703533"><ele>380.0</ele><time>2026-04-25T11:06:09.062Z</time></trkpt><trkpt lat="36.8127233" lon="-4.47045"><ele>391.0</ele><time>2026-04-25T11:06:10.062Z</time></trkpt><trkpt lat="36.8124117" lon="-4.4705567"><ele>402.0</ele><time>2026-04-25T11:06:11.063Z</time></trkpt><trkpt lat="36.8121033" lon="-4.47067"><ele>393.0</ele><time>2026-04-25T11:06:12.059Z</time></trkpt><trkpt lat="36.8117983" lon="-4.47079"><ele>384.0</ele><time>2026-04-25T11:06:13.063Z</time></trkpt><trkpt lat="36.8114917" lon="-4.4709083"><ele>384.0</ele><time>2026-04-25T11:06:14.06Z</time></trkpt><trkpt lat="36.8111917" lon="-4.47102"><ele>384.0</ele><time>2026-04-25T11:06:15.064Z</time></trkpt><trkpt lat="36.8108933" lon="-4.4711233"><ele>380.5</ele><time>2026-04-25T11:06:16.059Z</time></trkpt><trkpt lat="36.8105917" lon="-4.4712183"><ele>377.0</ele><time>2026-04-25T11:06:17.06Z</time></trkpt><trkpt lat="36.81029" lon="-4.471305"><ele>364.0</ele><time>2026-04-25T11:06:18.059Z</time></trkpt><trkpt lat="36.8099867" lon="-4.4713783"><ele>351.0</ele><time>2026-04-25T11:06:19.062Z</time></trkpt><trkpt lat="36.8096833" lon="-4.4714367"><ele>351.0</ele><time>2026-04-25T11:06:20.064Z</time></trkpt><trkpt lat="36.8093783" lon="-4.4714817"><ele>351.0</ele><time>2026-04-25T11:06:21.058Z</time></trkpt><trkpt lat="36.8090733" lon="-4.4715167"><ele>353.0</ele><time>2026-04-25T11:06:22.062Z</time></trkpt><trkpt lat="36.8087683" lon="-4.4715433"><ele>355.0</ele><time>2026-04-25T11:06:23.059Z</time></trkpt><trkpt lat="36.8084667" lon="-4.4715583"><ele>350.0</ele><time>2026-04-25T11:06:24.065Z</time></trkpt><trkpt lat="36.808165" lon="-4.47156"><ele>345.0</ele><time>2026-04-25T11:06:25.062Z</time></trkpt><trkpt lat="36.8078667" lon="-4.4715517"><ele>348.5</ele><time>2026-04-25T11:06:26.062Z</time></trkpt><trkpt lat="36.8075717" lon="-4.4715317"><ele>352.0</ele><time>2026-04-25T11:06:27.066Z</time></trkpt><trkpt lat="36.807275" lon="-4.4715"><ele>352.0</ele><time>2026-04-25T11:06:28.06Z</time></trkpt><trkpt lat="36.8069833" lon="-4.4714583"><ele>352.0</ele><time>2026-04-25T11:06:29.063Z</time></trkpt><trkpt lat="36.8066933" lon="-4.4714067"><ele>347.5</ele><time>2026-04-25T11:06:30.061Z</time></trkpt><trkpt lat="36.806405" lon="-4.471345"><ele>343.0</ele><time>2026-04-25T11:06:31.065Z</time></trkpt><trkpt lat="36.8061183" lon="-4.4712733"><ele>339.0</ele><time>2026-04-25T11:06:32.061Z</time></trkpt><trkpt lat="36.805835" lon="-4.471195"><ele>335.0</ele><time>2026-04-25T11:06:33.059Z</time></trkpt><trkpt lat="36.805555" lon="-4.471105"><ele>335.0</ele><time>2026-04-25T11:06:34.06Z</time></trkpt><trkpt lat="36.8052817" lon="-4.471"><ele>335.0</ele><time>2026-04-25T11:06:35.059Z</time></trkpt><trkpt lat="36.8050117" lon="-4.470885"><ele>328.0</ele><time>2026-04-25T11:06:36.061Z</time></trkpt><trkpt lat="36.804745" lon="-4.4707567"><ele>321.0</ele><time>2026-04-25T11:06:37.065Z</time></trkpt><trkpt lat="36.8044817" lon="-4.4706233"><ele>309.5</ele><time>2026-04-25T11:06:38.059Z</time></trkpt><trkpt lat="36.8042233" lon="-4.470485"><ele>298.0</ele><time>2026-04-25T11:06:39.061Z</time></trkpt><trkpt lat="36.8039667" lon="-4.47034"><ele>298.0</ele><time>2026-04-25T11:06:40.059Z</time></trkpt><trkpt lat="36.803715" lon="-4.4701883"><ele>298.0</ele><time>2026-04-25T11:06:41.06Z</time></trkpt><trkpt lat="36.8034667" lon="-4.4700317"><ele>308.5</ele><time>2026-04-25T11:06:42.062Z</time></trkpt><trkpt lat="36.80322" lon="-4.4698633"><ele>319.0</ele><time>2026-04-25T11:06:43.059Z</time></trkpt><trkpt lat="36.8029783" lon="-4.4696867"><ele>324.5</ele><time>2026-04-25T11:06:44.058Z</time></trkpt><trkpt lat="36.8027367" lon="-4.469505"><ele>330.0</ele><time>2026-04-25T11:06:45.058Z</time></trkpt><trkpt lat="36.8024967" lon="-4.4693183"><ele>319.0</ele><time>2026-04-25T11:06:46.059Z</time></trkpt><trkpt lat="36.802255" lon="-4.4691317"><ele>308.0</ele><time>2026-04-25T11:06:47.058Z</time></trkpt><trkpt lat="36.8020117" lon="-4.4689483"><ele>313.5</ele><time>2026-04-25T11:06:48.062Z</time></trkpt><trkpt lat="36.8017617" lon="-4.4687667"><ele>319.0</ele><time>2026-04-25T11:06:49.062Z</time></trkpt><trkpt lat="36.80151" lon="-4.4685917"><ele>319.0</ele><time>2026-04-25T11:06:50.059Z</time></trkpt><trkpt lat="36.8012533" lon="-4.4684233"><ele>319.0</ele><time>2026-04-25T11:06:51.06Z</time></trkpt><trkpt lat="36.8009917" lon="-4.46826"><ele>335.0</ele><time>2026-04-25T11:06:52.064Z</time></trkpt><trkpt lat="36.8007267" lon="-4.468105"><ele>351.0</ele><time>2026-04-25T11:06:53.059Z</time></trkpt><trkpt lat="36.8004583" lon="-4.46796"><ele>353.0</ele><time>2026-04-25T11:06:54.062Z</time></trkpt><trkpt lat="36.80019" lon="-4.46782"><ele>355.0</ele><time>2026-04-25T11:06:55.064Z</time></trkpt><trkpt lat="36.7999183" lon="-4.46769"><ele>364.5</ele><time>2026-04-25T11:06:56.062Z</time></trkpt><trkpt lat="36.7996417" lon="-4.4675717"><ele>374.0</ele><time>2026-04-25T11:06:57.062Z</time></trkpt><trkpt lat="36.799365" lon="-4.4674617"><ele>359.0</ele><time>2026-04-25T11:06:58.061Z</time></trkpt><trkpt lat="36.7990867" lon="-4.46736"><ele>344.0</ele><time>2026-04-25T11:06:59.059Z</time></trkpt><trkpt lat="36.7988067" lon="-4.4672717"><ele>344.0</ele><time>2026-04-25T11:07:00.06Z</time></trkpt><trkpt lat="36.798525" lon="-4.4671933"><ele>344.0</ele><time>2026-04-25T11:07:01.064Z</time></trkpt><trkpt lat="36.7982433" lon="-4.467125"><ele>340.0</ele><time>2026-04-25T11:07:02.066Z</time></trkpt><trkpt lat="36.79796" lon="-4.4670617"><ele>336.0</ele><time>2026-04-25T11:07:03.06Z</time></trkpt><trkpt lat="36.7976783" lon="-4.4670117"><ele>341.5</ele><time>2026-04-25T11:07:04.059Z</time></trkpt><trkpt lat="36.7973967" lon="-4.46697"><ele>347.0</ele><time>2026-04-25T11:07:05.063Z</time></trkpt><trkpt lat="36.7971133" lon="-4.46694"><ele>336.5</ele><time>2026-04-25T11:07:06.06Z</time></trkpt><trkpt lat="36.7968267" lon="-4.4669133"><ele>326.0</ele><time>2026-04-25T11:07:07.061Z</time></trkpt><trkpt lat="36.79654" lon="-4.4668983"><ele>326.0</ele><time>2026-04-25T11:07:08.064Z</time></trkpt><trkpt lat="36.7962533" lon="-4.4668933"><ele>326.0</ele><time>2026-04-25T11:07:09.061Z</time></trkpt><trkpt lat="36.7959633" lon="-4.4668967"><ele>335.5</ele><time>2026-04-25T11:07:10.063Z</time></trkpt><trkpt lat="36.7956767" lon="-4.4669067"><ele>345.0</ele><time>2026-04-25T11:07:11.062Z</time></trkpt><trkpt lat="36.79539" lon="-4.4669267"><ele>351.0</ele><time>2026-04-25T11:07:12.062Z</time></trkpt><trkpt lat="36.7951033" lon="-4.4669583"><ele>357.0</ele><time>2026-04-25T11:07:13.068Z</time></trkpt><trkpt lat="36.794815" lon="-4.467"><ele>357.0</ele><time>2026-04-25T11:07:14.06Z</time></trkpt><trkpt lat="36.7945267" lon="-4.4670533"><ele>357.0</ele><time>2026-04-25T11:07:15.063Z</time></trkpt><trkpt lat="36.7942367" lon="-4.4671167"><ele>342.0</ele><time>2026-04-25T11:07:16.06Z</time></trkpt><trkpt lat="36.7939483" lon="-4.4671917"><ele>327.0</ele><time>2026-04-25T11:07:17.06Z</time></trkpt><trkpt lat="36.7936583" lon="-4.467275"><ele>320.0</ele><time>2026-04-25T11:07:18.06Z</time></trkpt><trkpt lat="36.79337" lon="-4.4673667"><ele>313.0</ele><time>2026-04-25T11:07:19.059Z</time></trkpt><trkpt lat="36.7930783" lon="-4.467465"><ele>313.0</ele><time>2026-04-25T11:07:20.063Z</time></trkpt><trkpt lat="36.79279" lon="-4.4675733"><ele>313.0</ele><time>2026-04-25T11:07:21.062Z</time></trkpt><trkpt lat="36.7925017" lon="-4.467695"><ele>311.5</ele><time>2026-04-25T11:07:22.062Z</time></trkpt><trkpt lat="36.792215" lon="-4.4678283"><ele>310.0</ele><time>2026-04-25T11:07:23.063Z</time></trkpt><trkpt lat="36.79193" lon="-4.4679733"><ele>316.5</ele><time>2026-04-25T11:07:24.063Z</time></trkpt><trkpt lat="36.79165" lon="-4.4681267"><ele>323.0</ele><time>2026-04-25T11:07:25.06Z</time></trkpt><trkpt lat="36.79137" lon="-4.4682917"><ele>323.0</ele><time>2026-04-25T11:07:26.063Z</time></trkpt><trkpt lat="36.7910933" lon="-4.4684667"><ele>323.0</ele><time>2026-04-25T11:07:27.067Z</time></trkpt><trkpt lat="36.79082" lon="-4.4686533"><ele>322.5</ele><time>2026-04-25T11:07:28.06Z</time></trkpt><trkpt lat="36.7905517" lon="-4.4688483"><ele>322.0</ele><time>2026-04-25T11:07:29.062Z</time></trkpt><trkpt lat="36.7902883" lon="-4.4690533"><ele>325.0</ele><time>2026-04-25T11:07:30.059Z</time></trkpt><trkpt lat="36.7900267" lon="-4.4692683"><ele>328.0</ele><time>2026-04-25T11:07:31.063Z</time></trkpt><trkpt lat="36.7897683" lon="-4.4694933"><ele>326.0</ele><time>2026-04-25T11:07:32.064Z</time></trkpt><trkpt lat="36.7895117" lon="-4.469725"><ele>324.0</ele><time>2026-04-25T11:07:33.061Z</time></trkpt><trkpt lat="36.7892567" lon="-4.4699617"><ele>316.5</ele><time>2026-04-25T11:07:34.061Z</time></trkpt><trkpt lat="36.789005" lon="-4.470205"><ele>309.0</ele><time>2026-04-25T11:07:35.063Z</time></trkpt><trkpt lat="36.7887533" lon="-4.4704483"><ele>299.5</ele><time>2026-04-25T11:07:36.063Z</time></trkpt><trkpt lat="36.7884983" lon="-4.47069"><ele>290.0</ele><time>2026-04-25T11:07:37.059Z</time></trkpt><trkpt lat="36.7882433" lon="-4.4709317"><ele>290.0</ele><time>2026-04-25T11:07:38.061Z</time></trkpt><trkpt lat="36.7879867" lon="-4.471175"><ele>290.0</ele><time>2026-04-25T11:07:39.063Z</time></trkpt><trkpt lat="36.7877317" lon="-4.4714167"><ele>274.0</ele><time>2026-04-25T11:07:40.06Z</time></trkpt><trkpt lat="36.7874767" lon="-4.4716583"><ele>258.0</ele><time>2026-04-25T11:07:41.062Z</time></trkpt><trkpt lat="36.7872183" lon="-4.4719"><ele>253.5</ele><time>2026-04-25T11:07:42.062Z</time></trkpt><trkpt lat="36.78696" lon="-4.4721417"><ele>249.0</ele><time>2026-04-25T11:07:43.06Z</time></trkpt><trkpt lat="36.7867017" lon="-4.472385"><ele>244.0</ele><time>2026-04-25T11:07:44.062Z</time></trkpt><trkpt lat="36.786445" lon="-4.4726283"><ele>239.0</ele><time>2026-04-25T11:07:45.069Z</time></trkpt><trkpt lat="36.78619" lon="-4.47287"><ele>238.5</ele><time>2026-04-25T11:07:46.059Z</time></trkpt><trkpt lat="36.785935" lon="-4.4731067"><ele>238.0</ele><time>2026-04-25T11:07:47.064Z</time></trkpt><trkpt lat="36.7856817" lon="-4.4733433"><ele>238.0</ele><time>2026-04-25T11:07:48.067Z</time></trkpt><trkpt lat="36.7854317" lon="-4.4735767"><ele>238.0</ele><time>2026-04-25T11:07:49.061Z</time></trkpt><trkpt lat="36.7851817" lon="-4.4738033"><ele>243.5</ele><time>2026-04-25T11:07:50.061Z</time></trkpt><trkpt lat="36.784935" lon="-4.47403"><ele>249.0</ele><time>2026-04-25T11:07:51.06Z</time></trkpt><trkpt lat="36.78469" lon="-4.4742517"><ele>249.0</ele><time>2026-04-25T11:07:52.06Z</time></trkpt><trkpt lat="36.784445" lon="-4.4744667"><ele>249.0</ele><time>2026-04-25T11:07:53.058Z</time></trkpt><trkpt lat="36.7841983" lon="-4.474675"><ele>254.0</ele><time>2026-04-25T11:07:54.065Z</time></trkpt><trkpt lat="36.78395" lon="-4.4748767"><ele>259.0</ele><time>2026-04-25T11:07:55.058Z</time></trkpt><trkpt lat="36.7837017" lon="-4.4750733"><ele>270.5</ele><time>2026-04-25T11:07:56.066Z</time></trkpt><trkpt lat="36.78345" lon="-4.4752667"><ele>282.0</ele><time>2026-04-25T11:07:57.062Z</time></trkpt><trkpt lat="36.7831967" lon="-4.475455"><ele>294.0</ele><time>2026-04-25T11:07:58.059Z</time></trkpt><trkpt lat="36.7829417" lon="-4.4756417"><ele>306.0</ele><time>2026-04-25T11:07:59.063Z</time></trkpt><trkpt lat="36.782685" lon="-4.4758283"><ele>315.5</ele><time>2026-04-25T11:08:00.061Z</time></trkpt><trkpt lat="36.7824233" lon="-4.4760183"><ele>325.0</ele><time>2026-04-25T11:08:01.061Z</time></trkpt><trkpt lat="36.7821683" lon="-4.4762117"><ele>325.5</ele><time>2026-04-25T11:08:02.062Z</time></trkpt><trkpt lat="36.7819083" lon="-4.4764067"><ele>326.0</ele><time>2026-04-25T11:08:03.06Z</time></trkpt><trkpt lat="36.7816417" lon="-4.4766117"><ele>326.0</ele><time>2026-04-25T11:08:04.059Z</time></trkpt><trkpt lat="36.7813733" lon="-4.47681"><ele>326.0</ele><time>2026-04-25T11:08:05.061Z</time></trkpt><trkpt lat="36.7810667" lon="-4.4769517"><ele>307.5</ele><time>2026-04-25T11:08:06.064Z</time></trkpt><trkpt lat="36.7808017" lon="-4.4771133"><ele>289.0</ele><time>2026-04-25T11:08:07.063Z</time></trkpt><trkpt lat="36.7805317" lon="-4.4772733"><ele>289.0</ele><time>2026-04-25T11:08:08.065Z</time></trkpt><trkpt lat="36.7802517" lon="-4.4774267"><ele>289.0</ele><time>2026-04-25T11:08:09.068Z</time></trkpt><trkpt lat="36.7799733" lon="-4.47757"><ele>276.0</ele><time>2026-04-25T11:08:10.062Z</time></trkpt><trkpt lat="36.7796967" lon="-4.47771"><ele>263.0</ele><time>2026-04-25T11:08:11.065Z</time></trkpt><trkpt lat="36.7794167" lon="-4.4778533"><ele>259.5</ele><time>2026-04-25T11:08:12.065Z</time></trkpt><trkpt lat="36.7791367" lon="-4.4779967"><ele>256.0</ele><time>2026-04-25T11:08:13.063Z</time></trkpt><trkpt lat="36.7788583" lon="-4.4781383"><ele>256.0</ele><time>2026-04-25T11:08:14.066Z</time></trkpt><trkpt lat="36.77858" lon="-4.47828"><ele>256.0</ele><time>2026-04-25T11:08:15.062Z</time></trkpt><trkpt lat="36.7783033" lon="-4.4784217"><ele>271.5</ele><time>2026-04-25T11:08:16.062Z</time></trkpt><trkpt lat="36.7780283" lon="-4.478565"><ele>287.0</ele><time>2026-04-25T11:08:17.061Z</time></trkpt><trkpt lat="36.7777533" lon="-4.4787133"><ele>289.5</ele><time>2026-04-25T11:08:18.065Z</time></trkpt><trkpt lat="36.7774817" lon="-4.4788667"><ele>292.0</ele><time>2026-04-25T11:08:19.062Z</time></trkpt><trkpt lat="36.77721" lon="-4.4790233"><ele>292.0</ele><time>2026-04-25T11:08:20.064Z</time></trkpt><trkpt lat="36.7769367" lon="-4.4791833"><ele>292.0</ele><time>2026-04-25T11:08:21.061Z</time></trkpt><trkpt lat="36.7766617" lon="-4.4793417"><ele>281.0</ele><time>2026-04-25T11:08:22.062Z</time></trkpt><trkpt lat="36.7763867" lon="-4.4795017"><ele>270.0</ele><time>2026-04-25T11:08:23.06Z</time></trkpt><trkpt lat="36.7761133" lon="-4.4796633"><ele>255.5</ele><time>2026-04-25T11:08:24.062Z</time></trkpt><trkpt lat="36.775845" lon="-4.47983"><ele>241.0</ele><time>2026-04-25T11:08:25.07Z</time></trkpt><trkpt lat="36.7755767" lon="-4.4799967"><ele>241.0</ele><time>2026-04-25T11:08:26.062Z</time></trkpt><trkpt lat="36.7753083" lon="-4.4801667"><ele>241.0</ele><time>2026-04-25T11:08:27.061Z</time></trkpt><trkpt lat="36.7750417" lon="-4.4803367"><ele>235.0</ele><time>2026-04-25T11:08:28.067Z</time></trkpt><trkpt lat="36.774775" lon="-4.4805083"><ele>229.0</ele><time>2026-04-25T11:08:29.062Z</time></trkpt><trkpt lat="36.77451" lon="-4.4806833"><ele>242.0</ele><time>2026-04-25T11:08:30.061Z</time></trkpt><trkpt lat="36.774245" lon="-4.4808617"><ele>255.0</ele><time>2026-04-25T11:08:31.061Z</time></trkpt><trkpt lat="36.77398" lon="-4.4810433"><ele>255.0</ele><time>2026-04-25T11:08:32.064Z</time></trkpt><trkpt lat="36.773715" lon="-4.4812283"><ele>255.0</ele><time>2026-04-25T11:08:33.061Z</time></trkpt><trkpt lat="36.77345" lon="-4.481415"><ele>250.0</ele><time>2026-04-25T11:08:34.064Z</time></trkpt><trkpt lat="36.7731833" lon="-4.4816033"><ele>245.0</ele><time>2026-04-25T11:08:35.062Z</time></trkpt><trkpt lat="36.7729183" lon="-4.4817933"><ele>252.0</ele><time>2026-04-25T11:08:36.063Z</time></trkpt><trkpt lat="36.7726517" lon="-4.4819883"><ele>259.0</ele><time>2026-04-25T11:08:37.064Z</time></trkpt><trkpt lat="36.7723872" lon="-4.4821864"><ele>260.0</ele><time>2026-04-25T11:08:38.063Z</time></trkpt><trkpt lat="36.7721211" lon="-4.4823881"><ele>261.0</ele><time>2026-04-25T11:08:39.061Z</time></trkpt><trkpt lat="36.7718548" lon="-4.482592"><ele>258.5</ele><time>2026-04-25T11:08:40.064Z</time></trkpt><trkpt lat="36.7715875" lon="-4.4827995"><ele>256.0</ele><time>2026-04-25T11:08:41.061Z</time></trkpt><trkpt lat="36.7713199" lon="-4.4830118"><ele>256.0</ele><time>2026-04-25T11:08:42.063Z</time></trkpt><trkpt lat="36.7710531" lon="-4.4832247"><ele>256.0</ele><time>2026-04-25T11:08:43.06Z</time></trkpt><trkpt lat="36.770785" lon="-4.483438"><ele>252.0</ele><time>2026-04-25T11:08:44.059Z</time></trkpt><trkpt lat="36.7705176" lon="-4.4836527"><ele>248.0</ele><time>2026-04-25T11:08:45.058Z</time></trkpt><trkpt lat="36.770248" lon="-4.483868"><ele>241.5</ele><time>2026-04-25T11:08:46.059Z</time></trkpt><trkpt lat="36.7699778" lon="-4.4840848"><ele>235.0</ele><time>2026-04-25T11:08:47.061Z</time></trkpt><trkpt lat="36.7697099" lon="-4.4843039"><ele>235.0</ele><time>2026-04-25T11:08:48.06Z</time></trkpt><trkpt lat="36.7694415" lon="-4.4845214"><ele>235.0</ele><time>2026-04-25T11:08:49.063Z</time></trkpt><trkpt lat="36.7691698" lon="-4.484736"><ele>238.0</ele><time>2026-04-25T11:08:50.064Z</time></trkpt><trkpt lat="36.7688963" lon="-4.4849535"><ele>241.0</ele><time>2026-04-25T11:08:51.064Z</time></trkpt><trkpt lat="36.7686253" lon="-4.4851692"><ele>244.0</ele><time>2026-04-25T11:08:52.065Z</time></trkpt><trkpt lat="36.7683629" lon="-4.4853807"><ele>247.0</ele><time>2026-04-25T11:08:53.062Z</time></trkpt><trkpt lat="36.7681106" lon="-4.4855875"><ele>247.0</ele><time>2026-04-25T11:08:54.065Z</time></trkpt><trkpt lat="36.7678705" lon="-4.4857868"><ele>247.0</ele><time>2026-04-25T11:08:55.062Z</time></trkpt><trkpt lat="36.7676348" lon="-4.4859803"><ele>240.5</ele><time>2026-04-25T11:08:56.063Z</time></trkpt><trkpt lat="36.7674035" lon="-4.4861688"><ele>234.0</ele><time>2026-04-25T11:08:57.063Z</time></trkpt><trkpt lat="36.7671765" lon="-4.4863502"><ele>234.5</ele><time>2026-04-25T11:08:58.062Z</time></trkpt><trkpt lat="36.7669542" lon="-4.4865276"><ele>235.0</ele><time>2026-04-25T11:08:59.062Z</time></trkpt><trkpt lat="36.7667299" lon="-4.4867008"><ele>235.0</ele><time>2026-04-25T11:09:00.063Z</time></trkpt><trkpt lat="36.7665038" lon="-4.4868687"><ele>235.0</ele><time>2026-04-25T11:09:01.06Z</time></trkpt><trkpt lat="36.7662753" lon="-4.4870321"><ele>240.0</ele><time>2026-04-25T11:09:02.063Z</time></trkpt><trkpt lat="36.7660451" lon="-4.4871853"><ele>245.0</ele><time>2026-04-25T11:09:03.06Z</time></trkpt><trkpt lat="36.7658062" lon="-4.4873293"><ele>229.5</ele><time>2026-04-25T11:09:04.059Z</time></trkpt><trkpt lat="36.7655624" lon="-4.4874679"><ele>214.0</ele><time>2026-04-25T11:09:05.064Z</time></trkpt><trkpt lat="36.765316" lon="-4.4876023"><ele>200.5</ele><time>2026-04-25T11:09:06.063Z</time></trkpt><trkpt lat="36.7650636" lon="-4.4877298"><ele>187.0</ele><time>2026-04-25T11:09:07.061Z</time></trkpt><trkpt lat="36.7648046" lon="-4.4878496"><ele>183.0</ele><time>2026-04-25T11:09:08.068Z</time></trkpt><trkpt lat="36.7645436" lon="-4.487958"><ele>179.0</ele><time>2026-04-25T11:09:09.06Z</time></trkpt><trkpt lat="36.7642779" lon="-4.4880581"><ele>171.0</ele><time>2026-04-25T11:09:10.061Z</time></trkpt><trkpt lat="36.7640108" lon="-4.4881511"><ele>163.0</ele><time>2026-04-25T11:09:11.062Z</time></trkpt><trkpt lat="36.7637414" lon="-4.4882363"><ele>173.0</ele><time>2026-04-25T11:09:12.059Z</time></trkpt><trkpt lat="36.763472" lon="-4.48831"><ele>183.0</ele><time>2026-04-25T11:09:13.059Z</time></trkpt><trkpt lat="36.7632044" lon="-4.4883768"><ele>183.0</ele><time>2026-04-25T11:09:14.061Z</time></trkpt><trkpt lat="36.7629391" lon="-4.4884354"><ele>183.0</ele><time>2026-04-25T11:09:15.063Z</time></trkpt><trkpt lat="36.7626734" lon="-4.488486"><ele>192.0</ele><time>2026-04-25T11:09:16.059Z</time></trkpt><trkpt lat="36.7624053" lon="-4.4885284"><ele>201.0</ele><time>2026-04-25T11:09:17.06Z</time></trkpt><trkpt lat="36.7621369" lon="-4.4885574"><ele>201.0</ele><time>2026-04-25T11:09:18.058Z</time></trkpt><trkpt lat="36.761868" lon="-4.4885767"><ele>201.0</ele><time>2026-04-25T11:09:19.063Z</time></trkpt><trkpt lat="36.7616008" lon="-4.4885837"><ele>212.0</ele><time>2026-04-25T11:09:20.067Z</time></trkpt><trkpt lat="36.7613348" lon="-4.4885787"><ele>223.0</ele><time>2026-04-25T11:09:21.061Z</time></trkpt><trkpt lat="36.7610696" lon="-4.4885622"><ele>221.5</ele><time>2026-04-25T11:09:22.063Z</time></trkpt><trkpt lat="36.7608047" lon="-4.488534"><ele>220.0</ele><time>2026-04-25T11:09:23.065Z</time></trkpt><trkpt lat="36.7605404" lon="-4.4884928"><ele>220.0</ele><time>2026-04-25T11:09:24.06Z</time></trkpt><trkpt lat="36.7602764" lon="-4.4884407"><ele>220.0</ele><time>2026-04-25T11:09:25.064Z</time></trkpt><trkpt lat="36.7600092" lon="-4.4883787"><ele>209.5</ele><time>2026-04-25T11:09:26.061Z</time></trkpt><trkpt lat="36.7597389" lon="-4.4883111"><ele>199.0</ele><time>2026-04-25T11:09:27.068Z</time></trkpt><trkpt lat="36.7594708" lon="-4.4882389"><ele>201.5</ele><time>2026-04-25T11:09:28.06Z</time></trkpt><trkpt lat="36.7592003" lon="-4.4881604"><ele>204.0</ele><time>2026-04-25T11:09:29.065Z</time></trkpt><trkpt lat="36.7589305" lon="-4.4880798"><ele>204.0</ele><time>2026-04-25T11:09:30.062Z</time></trkpt><trkpt lat="36.7586603" lon="-4.4880066"><ele>204.0</ele><time>2026-04-25T11:09:31.059Z</time></trkpt><trkpt lat="36.7583873" lon="-4.4879488"><ele>214.0</ele><time>2026-04-25T11:09:32.061Z</time></trkpt><trkpt lat="36.7581135" lon="-4.4879096"><ele>224.0</ele><time>2026-04-25T11:09:33.062Z</time></trkpt><trkpt lat="36.7578361" lon="-4.4878874"><ele>221.0</ele><time>2026-04-25T11:09:34.059Z</time></trkpt><trkpt lat="36.7575539" lon="-4.4878822"><ele>218.0</ele><time>2026-04-25T11:09:35.068Z</time></trkpt><trkpt lat="36.7572712" lon="-4.4878929"><ele>218.0</ele><time>2026-04-25T11:09:36.06Z</time></trkpt><trkpt lat="36.7569855" lon="-4.4879154"><ele>218.0</ele><time>2026-04-25T11:09:37.063Z</time></trkpt><trkpt lat="36.7566998" lon="-4.4879557"><ele>209.5</ele><time>2026-04-25T11:09:38.063Z</time></trkpt><trkpt lat="36.756412" lon="-4.488012"><ele>201.0</ele><time>2026-04-25T11:09:39.061Z</time></trkpt><trkpt lat="36.7561249" lon="-4.4880836"><ele>200.5</ele><time>2026-04-25T11:09:40.059Z</time></trkpt><trkpt lat="36.7558376" lon="-4.4881701"><ele>200.0</ele><time>2026-04-25T11:09:41.062Z</time></trkpt><trkpt lat="36.7555524" lon="-4.4882746"><ele>200.0</ele><time>2026-04-25T11:09:42.063Z</time></trkpt><trkpt lat="36.7552718" lon="-4.488398"><ele>200.0</ele><time>2026-04-25T11:09:43.062Z</time></trkpt><trkpt lat="36.7549935" lon="-4.4885387"><ele>200.0</ele><time>2026-04-25T11:09:44.064Z</time></trkpt><trkpt lat="36.7547202" lon="-4.4886934"><ele>200.0</ele><time>2026-04-25T11:09:45.06Z</time></trkpt><trkpt lat="36.7544518" lon="-4.48887"><ele>197.5</ele><time>2026-04-25T11:09:46.057Z</time></trkpt><trkpt lat="36.7541906" lon="-4.4890661"><ele>195.0</ele><time>2026-04-25T11:09:47.065Z</time></trkpt><trkpt lat="36.7539346" lon="-4.4892753"><ele>195.0</ele><time>2026-04-25T11:09:48.065Z</time></trkpt><trkpt lat="36.7536833" lon="-4.4894991"><ele>195.0</ele><time>2026-04-25T11:09:49.065Z</time></trkpt><trkpt lat="36.7534399" lon="-4.4897404"><ele>180.5</ele><time>2026-04-25T11:09:50.063Z</time></trkpt><trkpt lat="36.753207" lon="-4.4899944"><ele>166.0</ele><time>2026-04-25T11:09:51.06Z</time></trkpt><trkpt lat="36.7529837" lon="-4.4902637"><ele>161.0</ele><time>2026-04-25T11:09:52.06Z</time></trkpt><trkpt lat="36.7527728" lon="-4.4905498"><ele>156.0</ele><time>2026-04-25T11:09:53.061Z</time></trkpt><trkpt lat="36.7525747" lon="-4.4908476"><ele>151.0</ele><time>2026-04-25T11:09:54.059Z</time></trkpt><trkpt lat="36.7523868" lon="-4.4911539"><ele>146.0</ele><time>2026-04-25T11:09:55.06Z</time></trkpt><trkpt lat="36.7522111" lon="-4.4914661"><ele>144.5</ele><time>2026-04-25T11:09:56.059Z</time></trkpt><trkpt lat="36.7520518" lon="-4.4917866"><ele>143.0</ele><time>2026-04-25T11:09:57.065Z</time></trkpt><trkpt lat="36.7519085" lon="-4.492113"><ele>137.5</ele><time>2026-04-25T11:09:58.061Z</time></trkpt><trkpt lat="36.7517735" lon="-4.4924438"><ele>132.0</ele><time>2026-04-25T11:09:59.059Z</time></trkpt><trkpt lat="36.7516443" lon="-4.4927735"><ele>131.5</ele><time>2026-04-25T11:10:00.061Z</time></trkpt><trkpt lat="36.7515182" lon="-4.4930983"><ele>131.0</ele><time>2026-04-25T11:10:01.06Z</time></trkpt><trkpt lat="36.751389" lon="-4.493422"><ele>131.0</ele><time>2026-04-25T11:10:02.062Z</time></trkpt><trkpt lat="36.7512567" lon="-4.4937468"><ele>131.0</ele><time>2026-04-25T11:10:03.062Z</time></trkpt><trkpt lat="36.7511191" lon="-4.4940715"><ele>128.0</ele><time>2026-04-25T11:10:04.06Z</time></trkpt><trkpt lat="36.7509754" lon="-4.4943966"><ele>125.0</ele><time>2026-04-25T11:10:05.063Z</time></trkpt><trkpt lat="36.7508246" lon="-4.4947169"><ele>125.0</ele><time>2026-04-25T11:10:06.06Z</time></trkpt><trkpt lat="36.7506679" lon="-4.495036"><ele>125.0</ele><time>2026-04-25T11:10:07.065Z</time></trkpt><trkpt lat="36.750508" lon="-4.4953503"><ele>125.0</ele><time>2026-04-25T11:10:08.061Z</time></trkpt><trkpt lat="36.75034" lon="-4.4956599"><ele>125.0</ele><time>2026-04-25T11:10:09.062Z</time></trkpt><trkpt lat="36.7501666" lon="-4.4959644"><ele>125.0</ele><time>2026-04-25T11:10:10.058Z</time></trkpt><trkpt lat="36.7499877" lon="-4.4962652"><ele>125.0</ele><time>2026-04-25T11:10:11.059Z</time></trkpt><trkpt lat="36.7498017" lon="-4.4965646"><ele>125.0</ele><time>2026-04-25T11:10:12.06Z</time></trkpt><trkpt lat="36.7496129" lon="-4.4968608"><ele>125.0</ele><time>2026-04-25T11:10:13.058Z</time></trkpt><trkpt lat="36.7494182" lon="-4.4971518"><ele>124.5</ele><time>2026-04-25T11:10:14.061Z</time></trkpt><trkpt lat="36.7492184" lon="-4.4974409"><ele>124.0</ele><time>2026-04-25T11:10:15.061Z</time></trkpt><trkpt lat="36.7490147" lon="-4.497725"><ele>123.5</ele><time>2026-04-25T11:10:16.062Z</time></trkpt><trkpt lat="36.7488078" lon="-4.4980055"><ele>123.0</ele><time>2026-04-25T11:10:17.059Z</time></trkpt><trkpt lat="36.748595" lon="-4.49828"><ele>124.0</ele><time>2026-04-25T11:10:18.059Z</time></trkpt><trkpt lat="36.7483783" lon="-4.4985483"><ele>125.0</ele><time>2026-04-25T11:10:19.062Z</time></trkpt><trkpt lat="36.7481567" lon="-4.4988067"><ele>125.0</ele><time>2026-04-25T11:10:20.062Z</time></trkpt><trkpt lat="36.7479267" lon="-4.4990583"><ele>125.0</ele><time>2026-04-25T11:10:21.059Z</time></trkpt><trkpt lat="36.747695" lon="-4.4993067"><ele>125.0</ele><time>2026-04-25T11:10:22.07Z</time></trkpt><trkpt lat="36.7474567" lon="-4.4995483"><ele>125.0</ele><time>2026-04-25T11:10:23.061Z</time></trkpt><trkpt lat="36.7472183" lon="-4.4997817"><ele>132.0</ele><time>2026-04-25T11:10:24.064Z</time></trkpt><trkpt lat="36.7469767" lon="-4.500005"><ele>139.0</ele><time>2026-04-25T11:10:25.059Z</time></trkpt><trkpt lat="36.746735" lon="-4.50022"><ele>143.0</ele><time>2026-04-25T11:10:26.059Z</time></trkpt><trkpt lat="36.7464917" lon="-4.5004267"><ele>147.0</ele><time>2026-04-25T11:10:27.063Z</time></trkpt><trkpt lat="36.7462467" lon="-4.500625"><ele>139.5</ele><time>2026-04-25T11:10:28.061Z</time></trkpt><trkpt lat="36.7459983" lon="-4.500815"><ele>132.0</ele><time>2026-04-25T11:10:29.059Z</time></trkpt><trkpt lat="36.74575" lon="-4.5009933"><ele>132.0</ele><time>2026-04-25T11:10:30.06Z</time></trkpt><trkpt lat="36.745495" lon="-4.50116"><ele>132.0</ele><time>2026-04-25T11:10:31.06Z</time></trkpt><trkpt lat="36.7452367" lon="-4.5013217"><ele>134.5</ele><time>2026-04-25T11:10:32.062Z</time></trkpt><trkpt lat="36.7449733" lon="-4.50148"><ele>137.0</ele><time>2026-04-25T11:10:33.064Z</time></trkpt><trkpt lat="36.7447067" lon="-4.501635"><ele>137.0</ele><time>2026-04-25T11:10:34.063Z</time></trkpt><trkpt lat="36.744435" lon="-4.501785"><ele>137.0</ele><time>2026-04-25T11:10:35.065Z</time></trkpt><trkpt lat="36.7441617" lon="-4.5019283"><ele>139.5</ele><time>2026-04-25T11:10:36.059Z</time></trkpt><trkpt lat="36.7438867" lon="-4.5020617"><ele>142.0</ele><time>2026-04-25T11:10:37.061Z</time></trkpt><trkpt lat="36.7436133" lon="-4.50219"><ele>150.0</ele><time>2026-04-25T11:10:38.058Z</time></trkpt><trkpt lat="36.74334" lon="-4.5023117"><ele>158.0</ele><time>2026-04-25T11:10:39.06Z</time></trkpt><trkpt lat="36.7430633" lon="-4.5024283"><ele>158.0</ele><time>2026-04-25T11:10:40.058Z</time></trkpt><trkpt lat="36.7427867" lon="-4.5025367"><ele>158.0</ele><time>2026-04-25T11:10:41.061Z</time></trkpt><trkpt lat="36.7425117" lon="-4.5026433"><ele>152.0</ele><time>2026-04-25T11:10:42.06Z</time></trkpt><trkpt lat="36.74224" lon="-4.50275"><ele>146.0</ele><time>2026-04-25T11:10:43.066Z</time></trkpt><trkpt lat="36.741965" lon="-4.50286"><ele>140.0</ele><time>2026-04-25T11:10:44.063Z</time></trkpt><trkpt lat="36.74169" lon="-4.50297"><ele>134.0</ele><time>2026-04-25T11:10:45.062Z</time></trkpt><trkpt lat="36.741415" lon="-4.5030767"><ele>134.0</ele><time>2026-04-25T11:10:46.059Z</time></trkpt><trkpt lat="36.74114" lon="-4.5031867"><ele>134.0</ele><time>2026-04-25T11:10:47.059Z</time></trkpt><trkpt lat="36.7408683" lon="-4.5033"><ele>133.0</ele><time>2026-04-25T11:10:48.058Z</time></trkpt><trkpt lat="36.7405983" lon="-4.5034183"><ele>132.0</ele><time>2026-04-25T11:10:49.06Z</time></trkpt><trkpt lat="36.7403317" lon="-4.5035417"><ele>134.0</ele><time>2026-04-25T11:10:50.06Z</time></trkpt><trkpt lat="36.7400683" lon="-4.5036767"><ele>136.0</ele><time>2026-04-25T11:10:51.061Z</time></trkpt><trkpt lat="36.7398067" lon="-4.5038167"><ele>136.0</ele><time>2026-04-25T11:10:52.057Z</time></trkpt><trkpt lat="36.7395467" lon="-4.5039633"><ele>136.0</ele><time>2026-04-25T11:10:53.065Z</time></trkpt><trkpt lat="36.7392867" lon="-4.504115"><ele>134.0</ele><time>2026-04-25T11:10:54.059Z</time></trkpt><trkpt lat="36.7390283" lon="-4.504275"><ele>132.0</ele><time>2026-04-25T11:10:55.063Z</time></trkpt><trkpt lat="36.73877" lon="-4.5044417"><ele>130.5</ele><time>2026-04-25T11:10:56.061Z</time></trkpt><trkpt lat="36.738515" lon="-4.5046167"><ele>129.0</ele><time>2026-04-25T11:10:57.061Z</time></trkpt><trkpt lat="36.7382617" lon="-4.5048"><ele>129.0</ele><time>2026-04-25T11:10:58.058Z</time></trkpt><trkpt lat="36.7380067" lon="-4.5049883"><ele>129.0</ele><time>2026-04-25T11:10:59.062Z</time></trkpt><trkpt lat="36.7377517" lon="-4.5051767"><ele>130.5</ele><time>2026-04-25T11:11:00.06Z</time></trkpt><trkpt lat="36.7374967" lon="-4.50537"><ele>132.0</ele><time>2026-04-25T11:11:01.066Z</time></trkpt><trkpt lat="36.73724" lon="-4.5055583"><ele>132.0</ele><time>2026-04-25T11:11:02.061Z</time></trkpt><trkpt lat="36.73698" lon="-4.5057417"><ele>132.0</ele><time>2026-04-25T11:11:03.058Z</time></trkpt><trkpt lat="36.7367183" lon="-4.5059167"><ele>117.0</ele><time>2026-04-25T11:11:04.064Z</time></trkpt><trkpt lat="36.7364567" lon="-4.50608"><ele>102.0</ele><time>2026-04-25T11:11:05.058Z</time></trkpt><trkpt lat="36.7361917" lon="-4.5062333"><ele>108.5</ele><time>2026-04-25T11:11:06.059Z</time></trkpt><trkpt lat="36.735925" lon="-4.50637"><ele>115.0</ele><time>2026-04-25T11:11:07.061Z</time></trkpt><trkpt lat="36.7356533" lon="-4.5064983"><ele>115.0</ele><time>2026-04-25T11:11:08.059Z</time></trkpt><trkpt lat="36.7353767" lon="-4.506615"><ele>115.0</ele><time>2026-04-25T11:11:09.058Z</time></trkpt><trkpt lat="36.7351" lon="-4.5067183"><ele>114.5</ele><time>2026-04-25T11:11:10.06Z</time></trkpt><trkpt lat="36.7348283" lon="-4.5068083"><ele>114.0</ele><time>2026-04-25T11:11:11.061Z</time></trkpt><trkpt lat="36.7345617" lon="-4.5068883"><ele>110.5</ele><time>2026-04-25T11:11:12.062Z</time></trkpt><trkpt lat="36.7342983" lon="-4.506955"><ele>107.0</ele><time>2026-04-25T11:11:13.071Z</time></trkpt><trkpt lat="36.7340283" lon="-4.5070117"><ele>107.0</ele><time>2026-04-25T11:11:14.063Z</time></trkpt><trkpt lat="36.7337533" lon="-4.5070617"><ele>107.0</ele><time>2026-04-25T11:11:15.06Z</time></trkpt><trkpt lat="36.7334783" lon="-4.5071033"><ele>102.5</ele><time>2026-04-25T11:11:16.058Z</time></trkpt><trkpt lat="36.7332033" lon="-4.5071333"><ele>98.0</ele><time>2026-04-25T11:11:17.059Z</time></trkpt><trkpt lat="36.7329267" lon="-4.5071533"><ele>93.5</ele><time>2026-04-25T11:11:18.058Z</time></trkpt><trkpt lat="36.7326467" lon="-4.5071617"><ele>89.0</ele><time>2026-04-25T11:11:19.058Z</time></trkpt><trkpt lat="36.732365" lon="-4.5071583"><ele>89.0</ele><time>2026-04-25T11:11:20.062Z</time></trkpt><trkpt lat="36.7320833" lon="-4.5071483"><ele>89.0</ele><time>2026-04-25T11:11:21.061Z</time></trkpt><trkpt lat="36.7318017" lon="-4.5071267"><ele>90.0</ele><time>2026-04-25T11:11:22.064Z</time></trkpt><trkpt lat="36.7315217" lon="-4.5070983"><ele>91.0</ele><time>2026-04-25T11:11:23.062Z</time></trkpt><trkpt lat="36.73125" lon="-4.5070667"><ele>87.5</ele><time>2026-04-25T11:11:24.062Z</time></trkpt><trkpt lat="36.7309817" lon="-4.5070233"><ele>84.0</ele><time>2026-04-25T11:11:25.064Z</time></trkpt><trkpt lat="36.7307167" lon="-4.506985"><ele>84.0</ele><time>2026-04-25T11:11:26.06Z</time></trkpt><trkpt lat="36.7304483" lon="-4.5069533"><ele>84.0</ele><time>2026-04-25T11:11:27.065Z</time></trkpt><trkpt lat="36.7301767" lon="-4.5069317"><ele>81.5</ele><time>2026-04-25T11:11:28.06Z</time></trkpt><trkpt lat="36.7299" lon="-4.50692"><ele>79.0</ele><time>2026-04-25T11:11:29.062Z</time></trkpt><trkpt lat="36.72962" lon="-4.5069183"><ele>78.0</ele><time>2026-04-25T11:11:30.062Z</time></trkpt><trkpt lat="36.7293367" lon="-4.5069283"><ele>77.0</ele><time>2026-04-25T11:11:31.06Z</time></trkpt><trkpt lat="36.72905" lon="-4.5069517"><ele>77.0</ele><time>2026-04-25T11:11:32.061Z</time></trkpt><trkpt lat="36.7287633" lon="-4.50699"><ele>77.0</ele><time>2026-04-25T11:11:33.059Z</time></trkpt><trkpt lat="36.7284733" lon="-4.5070417"><ele>74.5</ele><time>2026-04-25T11:11:34.061Z</time></trkpt><trkpt lat="36.7281867" lon="-4.50711"><ele>72.0</ele><time>2026-04-25T11:11:35.062Z</time></trkpt><trkpt lat="36.7279" lon="-4.5071933"><ele>74.0</ele><time>2026-04-25T11:11:36.06Z</time></trkpt><trkpt lat="36.7276133" lon="-4.50729"><ele>76.0</ele><time>2026-04-25T11:11:37.059Z</time></trkpt><trkpt lat="36.7273283" lon="-4.5073917"><ele>76.0</ele><time>2026-04-25T11:11:38.063Z</time></trkpt><trkpt lat="36.7270417" lon="-4.5075033"><ele>76.0</ele><time>2026-04-25T11:11:39.06Z</time></trkpt><trkpt lat="36.7267583" lon="-4.5076233"><ele>79.0</ele><time>2026-04-25T11:11:40.06Z</time></trkpt><trkpt lat="36.7264767" lon="-4.5077483"><ele>82.0</ele><time>2026-04-25T11:11:41.059Z</time></trkpt><trkpt lat="36.7261983" lon="-4.5078783"><ele>80.0</ele><time>2026-04-25T11:11:42.06Z</time></trkpt><trkpt lat="36.7259217" lon="-4.50801"><ele>78.0</ele><time>2026-04-25T11:11:43.065Z</time></trkpt><trkpt lat="36.7256467" lon="-4.50814"><ele>78.0</ele><time>2026-04-25T11:11:44.061Z</time></trkpt><trkpt lat="36.72537" lon="-4.5082667"><ele>78.0</ele><time>2026-04-25T11:11:45.065Z</time></trkpt><trkpt lat="36.7250917" lon="-4.5083867"><ele>79.0</ele><time>2026-04-25T11:11:46.065Z</time></trkpt><trkpt lat="36.72481" lon="-4.5084967"><ele>80.0</ele><time>2026-04-25T11:11:47.063Z</time></trkpt><trkpt lat="36.7245267" lon="-4.5085967"><ele>75.0</ele><time>2026-04-25T11:11:48.063Z</time></trkpt><trkpt lat="36.724245" lon="-4.50869"><ele>70.0</ele><time>2026-04-25T11:11:49.061Z</time></trkpt><trkpt lat="36.7239633" lon="-4.5087767"><ele>67.5</ele><time>2026-04-25T11:11:50.064Z</time></trkpt><trkpt lat="36.7236833" lon="-4.5088583"><ele>65.0</ele><time>2026-04-25T11:11:51.058Z</time></trkpt><trkpt lat="36.7234" lon="-4.5089333"><ele>63.0</ele><time>2026-04-25T11:11:52.06Z</time></trkpt><trkpt lat="36.7231183" lon="-4.5090017"><ele>61.0</ele><time>2026-04-25T11:11:53.06Z</time></trkpt><trkpt lat="36.7228333" lon="-4.509065"><ele>62.0</ele><time>2026-04-25T11:11:54.059Z</time></trkpt><trkpt lat="36.7225483" lon="-4.50912"><ele>63.0</ele><time>2026-04-25T11:11:55.06Z</time></trkpt><trkpt lat="36.72226" lon="-4.509165"><ele>63.0</ele><time>2026-04-25T11:11:56.06Z</time></trkpt><trkpt lat="36.7219733" lon="-4.509205"><ele>63.0</ele><time>2026-04-25T11:11:57.058Z</time></trkpt><trkpt lat="36.7216867" lon="-4.5092367"><ele>59.5</ele><time>2026-04-25T11:11:58.066Z</time></trkpt><trkpt lat="36.7213983" lon="-4.50926"><ele>56.0</ele><time>2026-04-25T11:11:59.06Z</time></trkpt><trkpt lat="36.72111" lon="-4.5092717"><ele>50.5</ele><time>2026-04-25T11:12:00.06Z</time></trkpt><trkpt lat="36.7208217" lon="-4.50928"><ele>45.0</ele><time>2026-04-25T11:12:01.057Z</time></trkpt><trkpt lat="36.7205317" lon="-4.50928"><ele>45.0</ele><time>2026-04-25T11:12:02.062Z</time></trkpt><trkpt lat="36.7202433" lon="-4.5092733"><ele>45.0</ele><time>2026-04-25T11:12:03.061Z</time></trkpt><trkpt lat="36.7199533" lon="-4.5092567"><ele>39.0</ele><time>2026-04-25T11:12:04.059Z</time></trkpt><trkpt lat="36.719665" lon="-4.5092333"><ele>33.0</ele><time>2026-04-25T11:12:05.061Z</time></trkpt><trkpt lat="36.7193767" lon="-4.5092033"><ele>31.5</ele><time>2026-04-25T11:12:06.061Z</time></trkpt><trkpt lat="36.71909" lon="-4.50917"><ele>30.0</ele><time>2026-04-25T11:12:07.062Z</time></trkpt><trkpt lat="36.7188017" lon="-4.5091267"><ele>30.5</ele><time>2026-04-25T11:12:08.061Z</time></trkpt><trkpt lat="36.7185133" lon="-4.50908"><ele>31.0</ele><time>2026-04-25T11:12:09.058Z</time></trkpt><trkpt lat="36.7182267" lon="-4.5090317"><ele>31.0</ele><time>2026-04-25T11:12:10.064Z</time></trkpt><trkpt lat="36.71794" lon="-4.5089833"><ele>31.0</ele><time>2026-04-25T11:12:11.062Z</time></trkpt><trkpt lat="36.7176517" lon="-4.50894"><ele>28.5</ele><time>2026-04-25T11:12:12.067Z</time></trkpt><trkpt lat="36.7173617" lon="-4.5088983"><ele>26.0</ele><time>2026-04-25T11:12:13.066Z</time></trkpt><trkpt lat="36.7170717" lon="-4.5088633"><ele>25.5</ele><time>2026-04-25T11:12:14.062Z</time></trkpt><trkpt lat="36.71678" lon="-4.508835"><ele>25.0</ele><time>2026-04-25T11:12:15.061Z</time></trkpt><trkpt lat="36.716485" lon="-4.50882"><ele>25.0</ele><time>2026-04-25T11:12:16.06Z</time></trkpt><trkpt lat="36.7161883" lon="-4.5088167"><ele>25.0</ele><time>2026-04-25T11:12:17.059Z</time></trkpt><trkpt lat="36.7158917" lon="-4.508825"><ele>25.5</ele><time>2026-04-25T11:12:18.063Z</time></trkpt><trkpt lat="36.7155933" lon="-4.508845"><ele>26.0</ele><time>2026-04-25T11:12:19.061Z</time></trkpt><trkpt lat="36.715295" lon="-4.5088817"><ele>25.5</ele><time>2026-04-25T11:12:20.066Z</time></trkpt><trkpt lat="36.7149967" lon="-4.50893"><ele>25.0</ele><time>2026-04-25T11:12:21.06Z</time></trkpt><trkpt lat="36.7146983" lon="-4.5089833"><ele>25.5</ele><time>2026-04-25T11:12:22.061Z</time></trkpt><trkpt lat="36.7144033" lon="-4.5090433"><ele>26.0</ele><time>2026-04-25T11:12:23.065Z</time></trkpt><trkpt lat="36.7141117" lon="-4.5091117"><ele>26.0</ele><time>2026-04-25T11:12:24.06Z</time></trkpt><trkpt lat="36.71382" lon="-4.5091883"><ele>26.0</ele><time>2026-04-25T11:12:25.062Z</time></trkpt><trkpt lat="36.7135333" lon="-4.5092783"><ele>24.0</ele><time>2026-04-25T11:12:26.063Z</time></trkpt><trkpt lat="36.713245" lon="-4.5093817"><ele>22.0</ele><time>2026-04-25T11:12:27.06Z</time></trkpt><trkpt lat="36.7129617" lon="-4.50949"><ele>23.0</ele><time>2026-04-25T11:12:28.063Z</time></trkpt><trkpt lat="36.7126817" lon="-4.5096067"><ele>24.0</ele><time>2026-04-25T11:12:29.06Z</time></trkpt><trkpt lat="36.7124083" lon="-4.50973"><ele>24.0</ele><time>2026-04-25T11:12:30.065Z</time></trkpt><trkpt lat="36.7121433" lon="-4.509855"><ele>24.0</ele><time>2026-04-25T11:12:31.06Z</time></trkpt><trkpt lat="36.7118833" lon="-4.5100033"><ele>22.0</ele><time>2026-04-25T11:12:32.059Z</time></trkpt><trkpt lat="36.711625" lon="-4.5101683"><ele>20.0</ele><time>2026-04-25T11:12:33.061Z</time></trkpt><trkpt lat="36.7113683" lon="-4.51034"><ele>20.0</ele><time>2026-04-25T11:12:34.06Z</time></trkpt><trkpt lat="36.711115" lon="-4.5105217"><ele>20.0</ele><time>2026-04-25T11:12:35.061Z</time></trkpt><trkpt lat="36.7108617" lon="-4.5107083"><ele>20.0</ele><time>2026-04-25T11:12:36.062Z</time></trkpt><trkpt lat="36.7106067" lon="-4.5109017"><ele>20.0</ele><time>2026-04-25T11:12:37.064Z</time></trkpt><trkpt lat="36.7103533" lon="-4.5111017"><ele>20.0</ele><time>2026-04-25T11:12:38.065Z</time></trkpt><trkpt lat="36.7101033" lon="-4.5113117"><ele>20.0</ele><time>2026-04-25T11:12:39.062Z</time></trkpt><trkpt lat="36.709855" lon="-4.5115317"><ele>20.0</ele><time>2026-04-25T11:12:40.063Z</time></trkpt><trkpt lat="36.7096117" lon="-4.511755"><ele>20.0</ele><time>2026-04-25T11:12:41.064Z</time></trkpt><trkpt lat="36.7093683" lon="-4.5119817"><ele>18.0</ele><time>2026-04-25T11:12:42.06Z</time></trkpt><trkpt lat="36.709125" lon="-4.5122033"><ele>16.0</ele><time>2026-04-25T11:12:43.064Z</time></trkpt><trkpt lat="36.7088817" lon="-4.5124217"><ele>16.0</ele><time>2026-04-25T11:12:44.066Z</time></trkpt><trkpt lat="36.7086367" lon="-4.5126333"><ele>16.0</ele><time>2026-04-25T11:12:45.06Z</time></trkpt><trkpt lat="36.7083867" lon="-4.5128367"><ele>17.0</ele><time>2026-04-25T11:12:46.06Z</time></trkpt><trkpt lat="36.7081333" lon="-4.5130317"><ele>18.0</ele><time>2026-04-25T11:12:47.06Z</time></trkpt><trkpt lat="36.707875" lon="-4.5132133"><ele>15.5</ele><time>2026-04-25T11:12:48.063Z</time></trkpt><trkpt lat="36.7076133" lon="-4.513385"><ele>13.0</ele><time>2026-04-25T11:12:49.061Z</time></trkpt><trkpt lat="36.7073483" lon="-4.5135433"><ele>13.0</ele><time>2026-04-25T11:12:50.06Z</time></trkpt><trkpt lat="36.7070817" lon="-4.5136917"><ele>13.0</ele><time>2026-04-25T11:12:51.059Z</time></trkpt><trkpt lat="36.7068133" lon="-4.5138283"><ele>13.5</ele><time>2026-04-25T11:12:52.062Z</time></trkpt><trkpt lat="36.7065417" lon="-4.5139567"><ele>14.0</ele><time>2026-04-25T11:12:53.061Z</time></trkpt><trkpt lat="36.7062683" lon="-4.5140733"><ele>13.0</ele><time>2026-04-25T11:12:54.06Z</time></trkpt><trkpt lat="36.7059917" lon="-4.51418"><ele>12.0</ele><time>2026-04-25T11:12:55.064Z</time></trkpt><trkpt lat="36.7057133" lon="-4.5142767"><ele>12.0</ele><time>2026-04-25T11:12:56.067Z</time></trkpt><trkpt lat="36.7054317" lon="-4.5143617"><ele>12.0</ele><time>2026-04-25T11:12:57.063Z</time></trkpt><trkpt lat="36.7051483" lon="-4.514435"><ele>12.0</ele><time>2026-04-25T11:12:58.062Z</time></trkpt><trkpt lat="36.704865" lon="-4.5145083"><ele>12.0</ele><time>2026-04-25T11:12:59.062Z</time></trkpt><trkpt lat="36.7045767" lon="-4.5145717"><ele>10.5</ele><time>2026-04-25T11:13:00.065Z</time></trkpt><trkpt lat="36.70429" lon="-4.514635"><ele>9.0</ele><time>2026-04-25T11:13:01.063Z</time></trkpt><trkpt lat="36.7040033" lon="-4.5147017"><ele>9.0</ele><time>2026-04-25T11:13:02.062Z</time></trkpt><trkpt lat="36.7037183" lon="-4.51477"><ele>9.0</ele><time>2026-04-25T11:13:03.061Z</time></trkpt><trkpt lat="36.7034317" lon="-4.5148433"><ele>9.5</ele><time>2026-04-25T11:13:04.06Z</time></trkpt><trkpt lat="36.703145" lon="-4.5149233"><ele>10.0</ele><time>2026-04-25T11:13:05.058Z</time></trkpt><trkpt lat="36.70286" lon="-4.5150117"><ele>10.0</ele><time>2026-04-25T11:13:06.062Z</time></trkpt><trkpt lat="36.702575" lon="-4.5151133"><ele>10.0</ele><time>2026-04-25T11:13:07.058Z</time></trkpt><trkpt lat="36.70229" lon="-4.5152267"><ele>10.0</ele><time>2026-04-25T11:13:08.06Z</time></trkpt><trkpt lat="36.702005" lon="-4.51535"><ele>10.0</ele><time>2026-04-25T11:13:09.063Z</time></trkpt><trkpt lat="36.7017217" lon="-4.5154833"><ele>9.5</ele><time>2026-04-25T11:13:10.059Z</time></trkpt><trkpt lat="36.70144" lon="-4.5156283"><ele>9.0</ele><time>2026-04-25T11:13:11.061Z</time></trkpt><trkpt lat="36.7011567" lon="-4.5157833"><ele>9.0</ele><time>2026-04-25T11:13:12.059Z</time></trkpt><trkpt lat="36.7008767" lon="-4.5159517"><ele>9.0</ele><time>2026-04-25T11:13:13.062Z</time></trkpt><trkpt lat="36.7005983" lon="-4.5161267"><ele>9.5</ele><time>2026-04-25T11:13:14.066Z</time></trkpt><trkpt lat="36.7003233" lon="-4.516315"><ele>10.0</ele><time>2026-04-25T11:13:15.061Z</time></trkpt><trkpt lat="36.70005" lon="-4.5165117"><ele>10.0</ele><time>2026-04-25T11:13:16.061Z</time></trkpt><trkpt lat="36.6997817" lon="-4.51672"><ele>10.0</ele><time>2026-04-25T11:13:17.065Z</time></trkpt><trkpt lat="36.6995183" lon="-4.5169417"><ele>11.0</ele><time>2026-04-25T11:13:18.063Z</time></trkpt><trkpt lat="36.6992633" lon="-4.5171767"><ele>12.0</ele><time>2026-04-25T11:13:19.062Z</time></trkpt><trkpt lat="36.6990133" lon="-4.51742"><ele>12.0</ele><time>2026-04-25T11:13:20.064Z</time></trkpt><trkpt lat="36.6987683" lon="-4.51767"><ele>12.0</ele><time>2026-04-25T11:13:21.066Z</time></trkpt><trkpt lat="36.698525" lon="-4.5179233"><ele>10.5</ele><time>2026-04-25T11:13:22.061Z</time></trkpt><trkpt lat="36.6982867" lon="-4.5181817"><ele>9.0</ele><time>2026-04-25T11:13:23.061Z</time></trkpt><trkpt lat="36.6980517" lon="-4.518445"><ele>9.0</ele><time>2026-04-25T11:13:24.061Z</time></trkpt><trkpt lat="36.69782" lon="-4.5187133"><ele>9.0</ele><time>2026-04-25T11:13:25.062Z</time></trkpt><trkpt lat="36.6975917" lon="-4.518985"><ele>9.5</ele><time>2026-04-25T11:13:26.062Z</time></trkpt><trkpt lat="36.69737" lon="-4.5192617"><ele>10.0</ele><time>2026-04-25T11:13:27.061Z</time></trkpt><trkpt lat="36.6971517" lon="-4.5195433"><ele>9.5</ele><time>2026-04-25T11:13:28.06Z</time></trkpt><trkpt lat="36.6969333" lon="-4.5198233"><ele>9.0</ele><time>2026-04-25T11:13:29.064Z</time></trkpt><trkpt lat="36.6967183" lon="-4.520105"><ele>9.0</ele><time>2026-04-25T11:13:30.066Z</time></trkpt><trkpt lat="36.6965083" lon="-4.520385"><ele>9.0</ele><time>2026-04-25T11:13:31.059Z</time></trkpt><trkpt lat="36.6962967" lon="-4.520665"><ele>9.0</ele><time>2026-04-25T11:13:32.059Z</time></trkpt><trkpt lat="36.6960867" lon="-4.5209483"><ele>9.0</ele><time>2026-04-25T11:13:33.061Z</time></trkpt><trkpt lat="36.6958767" lon="-4.521235"><ele>9.5</ele><time>2026-04-25T11:13:34.062Z</time></trkpt><trkpt lat="36.695665" lon="-4.5215233"><ele>10.0</ele><time>2026-04-25T11:13:35.062Z</time></trkpt><trkpt lat="36.6954567" lon="-4.5218183"><ele>11.5</ele><time>2026-04-25T11:13:36.064Z</time></trkpt><trkpt lat="36.695245" lon="-4.522115"><ele>13.0</ele><time>2026-04-25T11:13:37.061Z</time></trkpt><trkpt lat="36.6950317" lon="-4.5224117"><ele>13.0</ele><time>2026-04-25T11:13:38.066Z</time></trkpt><trkpt lat="36.6948133" lon="-4.5227017"><ele>13.0</ele><time>2026-04-25T11:13:39.059Z</time></trkpt><trkpt lat="36.69459" lon="-4.52299"><ele>11.0</ele><time>2026-04-25T11:13:40.058Z</time></trkpt><trkpt lat="36.6943617" lon="-4.5232733"><ele>9.0</ele><time>2026-04-25T11:13:41.061Z</time></trkpt><trkpt lat="36.6941267" lon="-4.52355"><ele>10.0</ele><time>2026-04-25T11:13:42.064Z</time></trkpt><trkpt lat="36.693885" lon="-4.523815"><ele>11.0</ele><time>2026-04-25T11:13:43.062Z</time></trkpt><trkpt lat="36.6936367" lon="-4.5240717"><ele>10.5</ele><time>2026-04-25T11:13:44.063Z</time></trkpt><trkpt lat="36.6933833" lon="-4.5243183"><ele>10.0</ele><time>2026-04-25T11:13:45.06Z</time></trkpt><trkpt lat="36.6931233" lon="-4.524555"><ele>9.5</ele><time>2026-04-25T11:13:46.059Z</time></trkpt><trkpt lat="36.69286" lon="-4.52478"><ele>9.0</ele><time>2026-04-25T11:13:47.061Z</time></trkpt><trkpt lat="36.6925917" lon="-4.5249933"><ele>10.5</ele><time>2026-04-25T11:13:48.059Z</time></trkpt><trkpt lat="36.6923217" lon="-4.5251967"><ele>12.0</ele><time>2026-04-25T11:13:49.059Z</time></trkpt><trkpt lat="36.692045" lon="-4.52539"><ele>12.5</ele><time>2026-04-25T11:13:50.066Z</time></trkpt><trkpt lat="36.6917633" lon="-4.5255683"><ele>13.0</ele><time>2026-04-25T11:13:51.06Z</time></trkpt><trkpt lat="36.6914783" lon="-4.5257383"><ele>13.0</ele><time>2026-04-25T11:13:52.058Z</time></trkpt><trkpt lat="36.69119" lon="-4.5258967"><ele>13.0</ele><time>2026-04-25T11:13:53.06Z</time></trkpt><trkpt lat="36.6908983" lon="-4.526045"><ele>13.0</ele><time>2026-04-25T11:13:54.061Z</time></trkpt><trkpt lat="36.690605" lon="-4.5261817"><ele>13.0</ele><time>2026-04-25T11:13:55.062Z</time></trkpt><trkpt lat="36.69031" lon="-4.52631"><ele>13.0</ele><time>2026-04-25T11:13:56.061Z</time></trkpt><trkpt lat="36.6900117" lon="-4.5264283"><ele>13.0</ele><time>2026-04-25T11:13:57.062Z</time></trkpt><trkpt lat="36.68971" lon="-4.5265383"><ele>12.5</ele><time>2026-04-25T11:13:58.058Z</time></trkpt><trkpt lat="36.689405" lon="-4.5266417"><ele>12.0</ele><time>2026-04-25T11:13:59.061Z</time></trkpt><trkpt lat="36.6891" lon="-4.526735"><ele>12.0</ele><time>2026-04-25T11:14:00.061Z</time></trkpt><trkpt lat="36.6887917" lon="-4.5268167"><ele>12.0</ele><time>2026-04-25T11:14:01.062Z</time></trkpt><trkpt lat="36.6884833" lon="-4.52689"><ele>14.0</ele><time>2026-04-25T11:14:02.061Z</time></trkpt><trkpt lat="36.6881717" lon="-4.5269483"><ele>16.0</ele><time>2026-04-25T11:14:03.061Z</time></trkpt><trkpt lat="36.6878583" lon="-4.5269883"><ele>18.0</ele><time>2026-04-25T11:14:04.061Z</time></trkpt><trkpt lat="36.6875433" lon="-4.5270167"><ele>20.0</ele><time>2026-04-25T11:14:05.063Z</time></trkpt><trkpt lat="36.6872283" lon="-4.5270367"><ele>18.5</ele><time>2026-04-25T11:14:06.065Z</time></trkpt><trkpt lat="36.6869167" lon="-4.527055"><ele>17.0</ele><time>2026-04-25T11:14:07.064Z</time></trkpt><trkpt lat="36.6866067" lon="-4.5270583"><ele>17.0</ele><time>2026-04-25T11:14:08.065Z</time></trkpt><trkpt lat="36.686295" lon="-4.5270417"><ele>17.0</ele><time>2026-04-25T11:14:09.062Z</time></trkpt><trkpt lat="36.685985" lon="-4.5270133"><ele>16.5</ele><time>2026-04-25T11:14:10.062Z</time></trkpt><trkpt lat="36.6856733" lon="-4.5269767"><ele>16.0</ele><time>2026-04-25T11:14:11.061Z</time></trkpt><trkpt lat="36.6853633" lon="-4.526925"><ele>16.0</ele><time>2026-04-25T11:14:12.061Z</time></trkpt><trkpt lat="36.685055" lon="-4.5268683"><ele>16.0</ele><time>2026-04-25T11:14:13.063Z</time></trkpt><trkpt lat="36.6847467" lon="-4.5268017"><ele>16.0</ele><time>2026-04-25T11:14:14.06Z</time></trkpt><trkpt lat="36.6844367" lon="-4.526735"><ele>16.0</ele><time>2026-04-25T11:14:15.061Z</time></trkpt><trkpt lat="36.6841242" lon="-4.5266677"><ele>16.5</ele><time>2026-04-25T11:14:16.06Z</time></trkpt><trkpt lat="36.6838061" lon="-4.5266006"><ele>17.0</ele><time>2026-04-25T11:14:17.064Z</time></trkpt><trkpt lat="36.683485" lon="-4.5265325"><ele>17.0</ele><time>2026-04-25T11:14:18.063Z</time></trkpt><trkpt lat="36.6831627" lon="-4.5264652"><ele>17.0</ele><time>2026-04-25T11:14:19.064Z</time></trkpt><trkpt lat="36.6828421" lon="-4.5264007"><ele>18.0</ele><time>2026-04-25T11:14:20.063Z</time></trkpt><trkpt lat="36.6825205" lon="-4.5263346"><ele>19.0</ele><time>2026-04-25T11:14:21.064Z</time></trkpt><trkpt lat="36.6822005" lon="-4.5262683"><ele>16.0</ele><time>2026-04-25T11:14:22.062Z</time></trkpt><trkpt lat="36.6818795" lon="-4.5262042"><ele>13.0</ele><time>2026-04-25T11:14:23.058Z</time></trkpt><trkpt lat="36.6815582" lon="-4.5261471"><ele>13.0</ele><time>2026-04-25T11:14:24.062Z</time></trkpt><trkpt lat="36.6812368" lon="-4.5260971"><ele>13.0</ele><time>2026-04-25T11:14:25.061Z</time></trkpt><trkpt lat="36.6809146" lon="-4.5260549"><ele>13.0</ele><time>2026-04-25T11:14:26.063Z</time></trkpt><trkpt lat="36.6805919" lon="-4.5260211"><ele>13.0</ele><time>2026-04-25T11:14:27.062Z</time></trkpt><trkpt lat="36.6802687" lon="-4.5259957"><ele>13.0</ele><time>2026-04-25T11:14:28.06Z</time></trkpt><trkpt lat="36.6799449" lon="-4.5259816"><ele>13.0</ele><time>2026-04-25T11:14:29.063Z</time></trkpt><trkpt lat="36.6796235" lon="-4.5259738"><ele>13.5</ele><time>2026-04-25T11:14:30.06Z</time></trkpt><trkpt lat="36.6793018" lon="-4.5259736"><ele>14.0</ele><time>2026-04-25T11:14:31.061Z</time></trkpt><trkpt lat="36.6789801" lon="-4.5259826"><ele>14.0</ele><time>2026-04-25T11:14:32.062Z</time></trkpt><trkpt lat="36.6786587" lon="-4.5260013"><ele>14.0</ele><time>2026-04-25T11:14:33.063Z</time></trkpt><trkpt lat="36.6783384" lon="-4.526032"><ele>14.5</ele><time>2026-04-25T11:14:34.062Z</time></trkpt><trkpt lat="36.6780186" lon="-4.5260713"><ele>15.0</ele><time>2026-04-25T11:14:35.061Z</time></trkpt><trkpt lat="36.6776994" lon="-4.5261192"><ele>15.0</ele><time>2026-04-25T11:14:36.065Z</time></trkpt><trkpt lat="36.6773818" lon="-4.5261783"><ele>15.0</ele><time>2026-04-25T11:14:37.061Z</time></trkpt><trkpt lat="36.6770658" lon="-4.5262449"><ele>15.0</ele><time>2026-04-25T11:14:38.061Z</time></trkpt><trkpt lat="36.6767498" lon="-4.5263195"><ele>15.0</ele><time>2026-04-25T11:14:39.061Z</time></trkpt><trkpt lat="36.6764348" lon="-4.5264032"><ele>15.0</ele><time>2026-04-25T11:14:40.06Z</time></trkpt><trkpt lat="36.6761228" lon="-4.5264945"><ele>15.0</ele><time>2026-04-25T11:14:41.057Z</time></trkpt><trkpt lat="36.6758127" lon="-4.5265928"><ele>15.0</ele><time>2026-04-25T11:14:42.059Z</time></trkpt><trkpt lat="36.6755073" lon="-4.5267019"><ele>15.0</ele><time>2026-04-25T11:14:43.058Z</time></trkpt><trkpt lat="36.6752041" lon="-4.5268207"><ele>15.5</ele><time>2026-04-25T11:14:44.057Z</time></trkpt><trkpt lat="36.6749039" lon="-4.5269512"><ele>16.0</ele><time>2026-04-25T11:14:45.063Z</time></trkpt><trkpt lat="36.6746063" lon="-4.5270933"><ele>16.0</ele><time>2026-04-25T11:14:46.058Z</time></trkpt><trkpt lat="36.6743117" lon="-4.5272422"><ele>16.0</ele><time>2026-04-25T11:14:47.061Z</time></trkpt><trkpt lat="36.6740206" lon="-4.5273944"><ele>16.0</ele><time>2026-04-25T11:14:48.06Z</time></trkpt><trkpt lat="36.6737324" lon="-4.527548"><ele>16.0</ele><time>2026-04-25T11:14:49.063Z</time></trkpt><trkpt lat="36.6734488" lon="-4.5277007"><ele>18.0</ele><time>2026-04-25T11:14:50.063Z</time></trkpt><trkpt lat="36.6731685" lon="-4.5278525"><ele>20.0</ele><time>2026-04-25T11:14:51.063Z</time></trkpt><trkpt lat="36.6728908" lon="-4.5280036"><ele>24.5</ele><time>2026-04-25T11:14:52.058Z</time></trkpt><trkpt lat="36.672618" lon="-4.5281537"><ele>29.0</ele><time>2026-04-25T11:14:53.061Z</time></trkpt><trkpt lat="36.6723472" lon="-4.5282995"><ele>29.0</ele><time>2026-04-25T11:14:54.059Z</time></trkpt><trkpt lat="36.6720801" lon="-4.5284375"><ele>29.0</ele><time>2026-04-25T11:14:55.062Z</time></trkpt><trkpt lat="36.6718137" lon="-4.528567"><ele>30.5</ele><time>2026-04-25T11:14:56.06Z</time></trkpt><trkpt lat="36.6715447" lon="-4.5286876"><ele>32.0</ele><time>2026-04-25T11:14:57.061Z</time></trkpt><trkpt lat="36.6712761" lon="-4.5287996"><ele>36.0</ele><time>2026-04-25T11:14:58.061Z</time></trkpt><trkpt lat="36.671005" lon="-4.5289026"><ele>40.0</ele><time>2026-04-25T11:14:59.062Z</time></trkpt><trkpt lat="36.670735" lon="-4.5289976"><ele>40.0</ele><time>2026-04-25T11:15:00.06Z</time></trkpt><trkpt lat="36.6704621" lon="-4.5290822"><ele>40.0</ele><time>2026-04-25T11:15:01.061Z</time></trkpt><trkpt lat="36.6701873" lon="-4.5291584"><ele>44.0</ele><time>2026-04-25T11:15:02.06Z</time></trkpt><trkpt lat="36.6699107" lon="-4.5292251"><ele>48.0</ele><time>2026-04-25T11:15:03.059Z</time></trkpt><trkpt lat="36.6696308" lon="-4.5292815"><ele>54.5</ele><time>2026-04-25T11:15:04.058Z</time></trkpt><trkpt lat="36.6693503" lon="-4.5293327"><ele>61.0</ele><time>2026-04-25T11:15:05.059Z</time></trkpt><trkpt lat="36.6690672" lon="-4.5293732"><ele>61.0</ele><time>2026-04-25T11:15:06.06Z</time></trkpt><trkpt lat="36.6687836" lon="-4.5294062"><ele>61.0</ele><time>2026-04-25T11:15:07.063Z</time></trkpt><trkpt lat="36.6684989" lon="-4.5294282"><ele>65.5</ele><time>2026-04-25T11:15:08.061Z</time></trkpt><trkpt lat="36.6682135" lon="-4.5294417"><ele>70.0</ele><time>2026-04-25T11:15:09.063Z</time></trkpt><trkpt lat="36.6679257" lon="-4.5294447"><ele>74.5</ele><time>2026-04-25T11:15:10.061Z</time></trkpt><trkpt lat="36.667636" lon="-4.5294387"><ele>79.0</ele><time>2026-04-25T11:15:11.057Z</time></trkpt><trkpt lat="36.6673424" lon="-4.5294215"><ele>79.0</ele><time>2026-04-25T11:15:12.061Z</time></trkpt><trkpt lat="36.6670476" lon="-4.5293945"><ele>79.0</ele><time>2026-04-25T11:15:13.06Z</time></trkpt><trkpt lat="36.6667511" lon="-4.5293581"><ele>80.0</ele><time>2026-04-25T11:15:14.062Z</time></trkpt><trkpt lat="36.6664559" lon="-4.5293143"><ele>81.0</ele><time>2026-04-25T11:15:15.062Z</time></trkpt><trkpt lat="36.6661639" lon="-4.5292649"><ele>83.5</ele><time>2026-04-25T11:15:16.058Z</time></trkpt><trkpt lat="36.6658717" lon="-4.5292062"><ele>86.0</ele><time>2026-04-25T11:15:17.06Z</time></trkpt><trkpt lat="36.6655791" lon="-4.5291319"><ele>86.0</ele><time>2026-04-25T11:15:18.059Z</time></trkpt><trkpt lat="36.6652899" lon="-4.5290467"><ele>86.0</ele><time>2026-04-25T11:15:19.06Z</time></trkpt><trkpt lat="36.6649999" lon="-4.5289495"><ele>88.0</ele><time>2026-04-25T11:15:20.064Z</time></trkpt><trkpt lat="36.6647133" lon="-4.52884"><ele>90.0</ele><time>2026-04-25T11:15:21.06Z</time></trkpt><trkpt lat="36.6644283" lon="-4.5287183"><ele>91.5</ele><time>2026-04-25T11:15:22.058Z</time></trkpt><trkpt lat="36.66415" lon="-4.5285933"><ele>93.0</ele><time>2026-04-25T11:15:23.062Z</time></trkpt><trkpt lat="36.66387" lon="-4.5284583"><ele>94.0</ele><time>2026-04-25T11:15:24.066Z</time></trkpt><trkpt lat="36.6635917" lon="-4.5283167"><ele>95.0</ele><time>2026-04-25T11:15:25.065Z</time></trkpt><trkpt lat="36.6633183" lon="-4.528165"><ele>95.0</ele><time>2026-04-25T11:15:26.059Z</time></trkpt><trkpt lat="36.6630467" lon="-4.5280033"><ele>95.0</ele><time>2026-04-25T11:15:27.059Z</time></trkpt><trkpt lat="36.6627817" lon="-4.5278317"><ele>96.5</ele><time>2026-04-25T11:15:28.057Z</time></trkpt><trkpt lat="36.66252" lon="-4.527645"><ele>98.0</ele><time>2026-04-25T11:15:29.058Z</time></trkpt><trkpt lat="36.6622617" lon="-4.52745"><ele>98.0</ele><time>2026-04-25T11:15:30.06Z</time></trkpt><trkpt lat="36.6620067" lon="-4.5272467"><ele>98.0</ele><time>2026-04-25T11:15:31.057Z</time></trkpt><trkpt lat="36.6617533" lon="-4.52704"><ele>99.5</ele><time>2026-04-25T11:15:32.06Z</time></trkpt><trkpt lat="36.6615017" lon="-4.5268167"><ele>101.0</ele><time>2026-04-25T11:15:33.059Z</time></trkpt><trkpt lat="36.6612533" lon="-4.52659"><ele>102.5</ele><time>2026-04-25T11:15:34.062Z</time></trkpt><trkpt lat="36.661005" lon="-4.52636"><ele>104.0</ele><time>2026-04-25T11:15:35.058Z</time></trkpt><trkpt lat="36.6607633" lon="-4.5261183"><ele>104.5</ele><time>2026-04-25T11:15:36.064Z</time></trkpt><trkpt lat="36.6605333" lon="-4.52587"><ele>105.0</ele><time>2026-04-25T11:15:37.061Z</time></trkpt><trkpt lat="36.6603133" lon="-4.5256133"><ele>108.0</ele><time>2026-04-25T11:15:38.06Z</time></trkpt><trkpt lat="36.6601017" lon="-4.5253483"><ele>111.0</ele><time>2026-04-25T11:15:39.062Z</time></trkpt><trkpt lat="36.6598983" lon="-4.52508"><ele>111.0</ele><time>2026-04-25T11:15:40.061Z</time></trkpt><trkpt lat="36.6597033" lon="-4.5248083"><ele>111.0</ele><time>2026-04-25T11:15:41.057Z</time></trkpt><trkpt lat="36.659515" lon="-4.5245317"><ele>114.0</ele><time>2026-04-25T11:15:42.066Z</time></trkpt><trkpt lat="36.6593333" lon="-4.524255"><ele>117.0</ele><time>2026-04-25T11:15:43.061Z</time></trkpt><trkpt lat="36.6591567" lon="-4.5239733"><ele>116.5</ele><time>2026-04-25T11:15:44.065Z</time></trkpt><trkpt lat="36.6589883" lon="-4.52369"><ele>116.0</ele><time>2026-04-25T11:15:45.065Z</time></trkpt><trkpt lat="36.6588217" lon="-4.5234"><ele>116.0</ele><time>2026-04-25T11:15:46.062Z</time></trkpt><trkpt lat="36.6586583" lon="-4.523105"><ele>116.0</ele><time>2026-04-25T11:15:47.066Z</time></trkpt><trkpt lat="36.6585" lon="-4.522805"><ele>122.0</ele><time>2026-04-25T11:15:48.059Z</time></trkpt><trkpt lat="36.6583467" lon="-4.5225083"><ele>128.0</ele><time>2026-04-25T11:15:49.061Z</time></trkpt><trkpt lat="36.658195" lon="-4.522215"><ele>130.0</ele><time>2026-04-25T11:15:50.062Z</time></trkpt><trkpt lat="36.6580433" lon="-4.5219217"><ele>132.0</ele><time>2026-04-25T11:15:51.058Z</time></trkpt><trkpt lat="36.6578917" lon="-4.5216283"><ele>139.0</ele><time>2026-04-25T11:15:52.058Z</time></trkpt><trkpt lat="36.6577383" lon="-4.5213317"><ele>146.0</ele><time>2026-04-25T11:15:53.058Z</time></trkpt><trkpt lat="36.65758" lon="-4.52103"><ele>146.0</ele><time>2026-04-25T11:15:54.062Z</time></trkpt><trkpt lat="36.6574117" lon="-4.5207283"><ele>146.0</ele><time>2026-04-25T11:15:55.063Z</time></trkpt><trkpt lat="36.6572367" lon="-4.5204117"><ele>151.5</ele><time>2026-04-25T11:15:56.063Z</time></trkpt><trkpt lat="36.65706" lon="-4.520105"><ele>157.0</ele><time>2026-04-25T11:15:57.061Z</time></trkpt><trkpt lat="36.6568817" lon="-4.519805"><ele>182.0</ele><time>2026-04-25T11:15:58.061Z</time></trkpt><trkpt lat="36.656705" lon="-4.5195"><ele>207.0</ele><time>2026-04-25T11:15:59.061Z</time></trkpt><trkpt lat="36.6565267" lon="-4.5191933"><ele>159.0</ele><time>2026-04-25T11:16:00.059Z</time></trkpt><trkpt lat="36.6485917" lon="-4.513215"><ele>159.0</ele><time>2026-04-25T11:16:32.059Z</time></trkpt><trkpt lat="36.6484183" lon="-4.5130033"><ele>159.0</ele><time>2026-04-25T11:16:33.065Z</time></trkpt><trkpt lat="36.64816" lon="-4.513"><ele>159.0</ele><time>2026-04-25T11:16:34.059Z</time></trkpt><trkpt lat="36.6478717" lon="-4.51298"><ele>159.0</ele><time>2026-04-25T11:16:35.059Z</time></trkpt><trkpt lat="36.6475817" lon="-4.5129667"><ele>159.5</ele><time>2026-04-25T11:16:36.061Z</time></trkpt><trkpt lat="36.6472917" lon="-4.512965"><ele>160.0</ele><time>2026-04-25T11:16:37.063Z</time></trkpt><trkpt lat="36.6469983" lon="-4.51297"><ele>155.0</ele><time>2026-04-25T11:16:38.062Z</time></trkpt><trkpt lat="36.6467033" lon="-4.5129817"><ele>150.0</ele><time>2026-04-25T11:16:39.056Z</time></trkpt><trkpt lat="36.6464067" lon="-4.513005"><ele>139.0</ele><time>2026-04-25T11:16:40.058Z</time></trkpt><trkpt lat="36.64611" lon="-4.5130417"><ele>128.0</ele><time>2026-04-25T11:16:41.059Z</time></trkpt><trkpt lat="36.64581" lon="-4.5130867"><ele>128.0</ele><time>2026-04-25T11:16:42.064Z</time></trkpt><trkpt lat="36.6455133" lon="-4.513145"><ele>128.0</ele><time>2026-04-25T11:16:43.061Z</time></trkpt><trkpt lat="36.645215" lon="-4.513215"><ele>121.5</ele><time>2026-04-25T11:16:44.063Z</time></trkpt><trkpt lat="36.6449167" lon="-4.513295"><ele>115.0</ele><time>2026-04-25T11:16:45.063Z</time></trkpt><trkpt lat="36.6446183" lon="-4.5133817"><ele>113.5</ele><time>2026-04-25T11:16:46.06Z</time></trkpt><trkpt lat="36.644325" lon="-4.5134733"><ele>112.0</ele><time>2026-04-25T11:16:47.061Z</time></trkpt><trkpt lat="36.64404" lon="-4.5135633"><ele>112.0</ele><time>2026-04-25T11:16:48.063Z</time></trkpt><trkpt lat="36.6437633" lon="-4.5136483"><ele>112.0</ele><time>2026-04-25T11:16:49.063Z</time></trkpt><trkpt lat="36.6434917" lon="-4.5137283"><ele>117.5</ele><time>2026-04-25T11:16:50.06Z</time></trkpt><trkpt lat="36.643225" lon="-4.513805"><ele>123.0</ele><time>2026-04-25T11:16:51.062Z</time></trkpt><trkpt lat="36.6429633" lon="-4.51388"><ele>118.0</ele><time>2026-04-25T11:16:52.061Z</time></trkpt><trkpt lat="36.6426983" lon="-4.5139517"><ele>113.0</ele><time>2026-04-25T11:16:53.059Z</time></trkpt><trkpt lat="36.6424267" lon="-4.5140217"><ele>113.0</ele><time>2026-04-25T11:16:54.067Z</time></trkpt><trkpt lat="36.6421417" lon="-4.5140917"><ele>113.0</ele><time>2026-04-25T11:16:55.06Z</time></trkpt><trkpt lat="36.641845" lon="-4.5141633"><ele>112.5</ele><time>2026-04-25T11:16:56.059Z</time></trkpt><trkpt lat="36.641545" lon="-4.5142367"><ele>112.0</ele><time>2026-04-25T11:16:57.065Z</time></trkpt><trkpt lat="36.6412383" lon="-4.514305"><ele>113.0</ele><time>2026-04-25T11:16:58.061Z</time></trkpt><trkpt lat="36.6409283" lon="-4.51437"><ele>114.0</ele><time>2026-04-25T11:16:59.062Z</time></trkpt><trkpt lat="36.640615" lon="-4.5144217"><ele>114.0</ele><time>2026-04-25T11:17:00.062Z</time></trkpt><trkpt lat="36.6402983" lon="-4.5144567"><ele>114.0</ele><time>2026-04-25T11:17:01.066Z</time></trkpt><trkpt lat="36.63998" lon="-4.51448"><ele>114.0</ele><time>2026-04-25T11:17:02.064Z</time></trkpt><trkpt lat="36.6396617" lon="-4.5144933"><ele>114.0</ele><time>2026-04-25T11:17:03.059Z</time></trkpt><trkpt lat="36.63934" lon="-4.5144983"><ele>112.5</ele><time>2026-04-25T11:17:04.061Z</time></trkpt><trkpt lat="36.63902" lon="-4.5144967"><ele>111.0</ele><time>2026-04-25T11:17:05.063Z</time></trkpt><trkpt lat="36.6387" lon="-4.5144867"><ele>113.0</ele><time>2026-04-25T11:17:06.058Z</time></trkpt><trkpt lat="36.63838" lon="-4.5144633"><ele>115.0</ele><time>2026-04-25T11:17:07.064Z</time></trkpt><trkpt lat="36.6380617" lon="-4.51443"><ele>115.5</ele><time>2026-04-25T11:17:08.06Z</time></trkpt><trkpt lat="36.6377433" lon="-4.5143917"><ele>116.0</ele><time>2026-04-25T11:17:09.063Z</time></trkpt><trkpt lat="36.637425" lon="-4.5143433"><ele>116.0</ele><time>2026-04-25T11:17:10.061Z</time></trkpt><trkpt lat="36.63711" lon="-4.5142833"><ele>116.0</ele><time>2026-04-25T11:17:11.063Z</time></trkpt><trkpt lat="36.6367967" lon="-4.5142117"><ele>116.0</ele><time>2026-04-25T11:17:12.063Z</time></trkpt><trkpt lat="36.636485" lon="-4.5141267"><ele>116.0</ele><time>2026-04-25T11:17:13.062Z</time></trkpt><trkpt lat="36.6361767" lon="-4.5140317"><ele>113.5</ele><time>2026-04-25T11:17:14.061Z</time></trkpt><trkpt lat="36.6358683" lon="-4.5139333"><ele>111.0</ele><time>2026-04-25T11:17:15.06Z</time></trkpt><trkpt lat="36.6355633" lon="-4.5138317"><ele>108.5</ele><time>2026-04-25T11:17:16.065Z</time></trkpt><trkpt lat="36.63526" lon="-4.5137333"><ele>106.0</ele><time>2026-04-25T11:17:17.064Z</time></trkpt><trkpt lat="36.6349567" lon="-4.5136333"><ele>106.0</ele><time>2026-04-25T11:17:18.059Z</time></trkpt><trkpt lat="36.634655" lon="-4.5135367"><ele>106.0</ele><time>2026-04-25T11:17:19.06Z</time></trkpt><trkpt lat="36.63435" lon="-4.5134433"><ele>104.5</ele><time>2026-04-25T11:17:20.061Z</time></trkpt><trkpt lat="36.6340467" lon="-4.51336"><ele>103.0</ele><time>2026-04-25T11:17:21.058Z</time></trkpt><trkpt lat="36.6337417" lon="-4.5132917"><ele>103.5</ele><time>2026-04-25T11:17:22.057Z</time></trkpt><trkpt lat="36.633435" lon="-4.5132417"><ele>104.0</ele><time>2026-04-25T11:17:23.06Z</time></trkpt><trkpt lat="36.6331267" lon="-4.513205"><ele>104.0</ele><time>2026-04-25T11:17:24.058Z</time></trkpt><trkpt lat="36.6328167" lon="-4.5131783"><ele>104.0</ele><time>2026-04-25T11:17:25.062Z</time></trkpt><trkpt lat="36.632505" lon="-4.5131633"><ele>104.5</ele><time>2026-04-25T11:17:26.06Z</time></trkpt><trkpt lat="36.632195" lon="-4.5131633"><ele>105.0</ele><time>2026-04-25T11:17:27.062Z</time></trkpt><trkpt lat="36.6318833" lon="-4.513175"><ele>105.0</ele><time>2026-04-25T11:17:28.06Z</time></trkpt><trkpt lat="36.63157" lon="-4.5132017"><ele>105.0</ele><time>2026-04-25T11:17:29.066Z</time></trkpt><trkpt lat="36.631255" lon="-4.5132367"><ele>102.5</ele><time>2026-04-25T11:17:30.063Z</time></trkpt><trkpt lat="36.6309417" lon="-4.513285"><ele>100.0</ele><time>2026-04-25T11:17:31.063Z</time></trkpt><trkpt lat="36.6306317" lon="-4.5133483"><ele>100.0</ele><time>2026-04-25T11:17:32.065Z</time></trkpt><trkpt lat="36.6303233" lon="-4.513425"><ele>100.0</ele><time>2026-04-25T11:17:33.061Z</time></trkpt><trkpt lat="36.630015" lon="-4.5135167"><ele>99.5</ele><time>2026-04-25T11:17:34.064Z</time></trkpt><trkpt lat="36.62971" lon="-4.5136217"><ele>99.0</ele><time>2026-04-25T11:17:35.062Z</time></trkpt><trkpt lat="36.62941" lon="-4.51374"><ele>102.0</ele><time>2026-04-25T11:17:36.067Z</time></trkpt><trkpt lat="36.629115" lon="-4.51387"><ele>105.0</ele><time>2026-04-25T11:17:37.06Z</time></trkpt><trkpt lat="36.6288217" lon="-4.5140083"><ele>101.0</ele><time>2026-04-25T11:17:38.061Z</time></trkpt><trkpt lat="36.6285333" lon="-4.5141533"><ele>97.0</ele><time>2026-04-25T11:17:39.06Z</time></trkpt><trkpt lat="36.62825" lon="-4.514305"><ele>97.0</ele><time>2026-04-25T11:17:40.06Z</time></trkpt><trkpt lat="36.6279683" lon="-4.51446"><ele>97.0</ele><time>2026-04-25T11:17:41.058Z</time></trkpt><trkpt lat="36.62769" lon="-4.5146233"><ele>103.0</ele><time>2026-04-25T11:17:42.061Z</time></trkpt><trkpt lat="36.6274167" lon="-4.5147917"><ele>109.0</ele><time>2026-04-25T11:17:43.061Z</time></trkpt><trkpt lat="36.627145" lon="-4.5149667"><ele>109.0</ele><time>2026-04-25T11:17:44.061Z</time></trkpt><trkpt lat="36.626875" lon="-4.5151433"><ele>109.0</ele><time>2026-04-25T11:17:45.061Z</time></trkpt><trkpt lat="36.626605" lon="-4.5153217"><ele>113.5</ele><time>2026-04-25T11:17:46.058Z</time></trkpt><trkpt lat="36.6263333" lon="-4.5154967"><ele>118.0</ele><time>2026-04-25T11:17:47.061Z</time></trkpt><trkpt lat="36.6260617" lon="-4.5156667"><ele>118.0</ele><time>2026-04-25T11:17:48.063Z</time></trkpt><trkpt lat="36.6257883" lon="-4.5158367"><ele>118.0</ele><time>2026-04-25T11:17:49.062Z</time></trkpt><trkpt lat="36.6255167" lon="-4.5160083"><ele>119.0</ele><time>2026-04-25T11:17:50.063Z</time></trkpt><trkpt lat="36.6252483" lon="-4.5161817"><ele>120.0</ele><time>2026-04-25T11:17:51.064Z</time></trkpt><trkpt lat="36.62498" lon="-4.5163533"><ele>119.5</ele><time>2026-04-25T11:17:52.062Z</time></trkpt><trkpt lat="36.62471" lon="-4.5165183"><ele>119.0</ele><time>2026-04-25T11:17:53.063Z</time></trkpt><trkpt lat="36.6244383" lon="-4.5166767"><ele>119.0</ele><time>2026-04-25T11:17:54.064Z</time></trkpt><trkpt lat="36.6241633" lon="-4.516825"><ele>119.0</ele><time>2026-04-25T11:17:55.061Z</time></trkpt><trkpt lat="36.6238867" lon="-4.5169683"><ele>121.5</ele><time>2026-04-25T11:17:56.062Z</time></trkpt><trkpt lat="36.6236083" lon="-4.5171"><ele>124.0</ele><time>2026-04-25T11:17:57.061Z</time></trkpt><trkpt lat="36.62333" lon="-4.517225"><ele>124.0</ele><time>2026-04-25T11:17:58.061Z</time></trkpt><trkpt lat="36.6230467" lon="-4.5173433"><ele>124.0</ele><time>2026-04-25T11:17:59.067Z</time></trkpt><trkpt lat="36.622765" lon="-4.517455"><ele>126.5</ele><time>2026-04-25T11:18:00.061Z</time></trkpt><trkpt lat="36.62248" lon="-4.51756"><ele>129.0</ele><time>2026-04-25T11:18:01.06Z</time></trkpt><trkpt lat="36.6221917" lon="-4.5176533"><ele>129.0</ele><time>2026-04-25T11:18:02.062Z</time></trkpt><trkpt lat="36.6219" lon="-4.5177383"><ele>129.0</ele><time>2026-04-25T11:18:03.066Z</time></trkpt><trkpt lat="36.6216067" lon="-4.517815"><ele>129.0</ele><time>2026-04-25T11:18:04.064Z</time></trkpt><trkpt lat="36.6213117" lon="-4.517885"><ele>129.0</ele><time>2026-04-25T11:18:05.061Z</time></trkpt><trkpt lat="36.6210133" lon="-4.5179517"><ele>135.0</ele><time>2026-04-25T11:18:06.06Z</time></trkpt><trkpt lat="36.6207167" lon="-4.518015"><ele>141.0</ele><time>2026-04-25T11:18:07.06Z</time></trkpt><trkpt lat="36.6204183" lon="-4.5180733"><ele>140.5</ele><time>2026-04-25T11:18:08.061Z</time></trkpt><trkpt lat="36.62012" lon="-4.5181317"><ele>140.0</ele><time>2026-04-25T11:18:09.062Z</time></trkpt><trkpt lat="36.6198217" lon="-4.51819"><ele>140.0</ele><time>2026-04-25T11:18:10.061Z</time></trkpt><trkpt lat="36.61952" lon="-4.51825"><ele>140.0</ele><time>2026-04-25T11:18:11.062Z</time></trkpt><trkpt lat="36.6192183" lon="-4.51831"><ele>140.0</ele><time>2026-04-25T11:18:12.063Z</time></trkpt><trkpt lat="36.6189167" lon="-4.5183783"><ele>140.0</ele><time>2026-04-25T11:18:13.06Z</time></trkpt><trkpt lat="36.6186167" lon="-4.51846"><ele>140.0</ele><time>2026-04-25T11:18:14.062Z</time></trkpt><trkpt lat="36.61832" lon="-4.5185633"><ele>140.0</ele><time>2026-04-25T11:18:15.06Z</time></trkpt><trkpt lat="36.61803" lon="-4.5186933"><ele>136.5</ele><time>2026-04-25T11:18:16.065Z</time></trkpt><trkpt lat="36.61774" lon="-4.5188467"><ele>133.0</ele><time>2026-04-25T11:18:17.062Z</time></trkpt><trkpt lat="36.617455" lon="-4.51902"><ele>133.0</ele><time>2026-04-25T11:18:18.06Z</time></trkpt><trkpt lat="36.6171733" lon="-4.5192133"><ele>133.0</ele><time>2026-04-25T11:18:19.065Z</time></trkpt><trkpt lat="36.6168983" lon="-4.5194233"><ele>138.0</ele><time>2026-04-25T11:18:20.062Z</time></trkpt><trkpt lat="36.6166333" lon="-4.5196567"><ele>143.0</ele><time>2026-04-25T11:18:21.064Z</time></trkpt><trkpt lat="36.6163817" lon="-4.5199117"><ele>140.5</ele><time>2026-04-25T11:18:22.061Z</time></trkpt><trkpt lat="36.6161417" lon="-4.5201883"><ele>138.0</ele><time>2026-04-25T11:18:23.06Z</time></trkpt><trkpt lat="36.615915" lon="-4.5204867"><ele>138.0</ele><time>2026-04-25T11:18:24.063Z</time></trkpt><trkpt lat="36.6157017" lon="-4.5208083"><ele>138.0</ele><time>2026-04-25T11:18:25.062Z</time></trkpt><trkpt lat="36.615505" lon="-4.5211467"><ele>140.5</ele><time>2026-04-25T11:18:26.064Z</time></trkpt><trkpt lat="36.6153233" lon="-4.5215"><ele>143.0</ele><time>2026-04-25T11:18:27.061Z</time></trkpt><trkpt lat="36.6151617" lon="-4.5218667"><ele>142.0</ele><time>2026-04-25T11:18:28.06Z</time></trkpt><trkpt lat="36.61502" lon="-4.52224"><ele>141.0</ele><time>2026-04-25T11:18:29.066Z</time></trkpt><trkpt lat="36.6149017" lon="-4.5226083"><ele>143.0</ele><time>2026-04-25T11:18:30.062Z</time></trkpt><trkpt lat="36.6148017" lon="-4.5229667"><ele>145.0</ele><time>2026-04-25T11:18:31.064Z</time></trkpt><trkpt lat="36.614715" lon="-4.5233233"><ele>145.0</ele><time>2026-04-25T11:18:32.066Z</time></trkpt><trkpt lat="36.6146317" lon="-4.5236767"><ele>145.0</ele><time>2026-04-25T11:18:33.062Z</time></trkpt><trkpt lat="36.61455" lon="-4.5240267"><ele>140.5</ele><time>2026-04-25T11:18:34.064Z</time></trkpt><trkpt lat="36.6144667" lon="-4.5243717"><ele>136.0</ele><time>2026-04-25T11:18:35.066Z</time></trkpt><trkpt lat="36.6143817" lon="-4.524715"><ele>135.5</ele><time>2026-04-25T11:18:36.065Z</time></trkpt><trkpt lat="36.61429" lon="-4.525055"><ele>135.0</ele><time>2026-04-25T11:18:37.059Z</time></trkpt><trkpt lat="36.61419" lon="-4.5253883"><ele>138.5</ele><time>2026-04-25T11:18:38.065Z</time></trkpt><trkpt lat="36.6140783" lon="-4.525715"><ele>142.0</ele><time>2026-04-25T11:18:39.062Z</time></trkpt><trkpt lat="36.6139517" lon="-4.5260317"><ele>145.5</ele><time>2026-04-25T11:18:40.062Z</time></trkpt><trkpt lat="36.6138133" lon="-4.52634"><ele>149.0</ele><time>2026-04-25T11:18:41.063Z</time></trkpt><trkpt lat="36.6136667" lon="-4.52664"><ele>148.0</ele><time>2026-04-25T11:18:42.068Z</time></trkpt><trkpt lat="36.6135067" lon="-4.5269283"><ele>147.0</ele><time>2026-04-25T11:18:43.064Z</time></trkpt><trkpt lat="36.6133367" lon="-4.5272033"><ele>149.0</ele><time>2026-04-25T11:18:44.062Z</time></trkpt><trkpt lat="36.6131567" lon="-4.5274667"><ele>151.0</ele><time>2026-04-25T11:18:45.063Z</time></trkpt><trkpt lat="36.61297" lon="-4.5277167"><ele>151.0</ele><time>2026-04-25T11:18:46.064Z</time></trkpt><trkpt lat="36.6127783" lon="-4.5279583"><ele>151.0</ele><time>2026-04-25T11:18:47.061Z</time></trkpt><trkpt lat="36.6125833" lon="-4.5282033"><ele>151.0</ele><time>2026-04-25T11:18:48.068Z</time></trkpt><trkpt lat="36.61239" lon="-4.52845"><ele>151.0</ele><time>2026-04-25T11:18:49.063Z</time></trkpt><trkpt lat="36.6121967" lon="-4.5287"><ele>153.0</ele><time>2026-04-25T11:18:50.063Z</time></trkpt><trkpt lat="36.6120067" lon="-4.5289583"><ele>155.0</ele><time>2026-04-25T11:18:51.063Z</time></trkpt><trkpt lat="36.61182" lon="-4.529225"><ele>155.0</ele><time>2026-04-25T11:18:52.059Z</time></trkpt><trkpt lat="36.6116467" lon="-4.5295017"><ele>155.0</ele><time>2026-04-25T11:18:53.063Z</time></trkpt><trkpt lat="36.611485" lon="-4.5297883"><ele>157.5</ele><time>2026-04-25T11:18:54.062Z</time></trkpt><trkpt lat="36.6113333" lon="-4.530085"><ele>160.0</ele><time>2026-04-25T11:18:55.061Z</time></trkpt><trkpt lat="36.6111933" lon="-4.5303933"><ele>161.0</ele><time>2026-04-25T11:18:56.062Z</time></trkpt><trkpt lat="36.6110717" lon="-4.5307133"><ele>162.0</ele><time>2026-04-25T11:18:57.063Z</time></trkpt><trkpt lat="36.6109617" lon="-4.5310433"><ele>163.5</ele><time>2026-04-25T11:18:58.058Z</time></trkpt><trkpt lat="36.6108633" lon="-4.5313817"><ele>165.0</ele><time>2026-04-25T11:18:59.062Z</time></trkpt><trkpt lat="36.6107783" lon="-4.53173"><ele>164.5</ele><time>2026-04-25T11:19:00.061Z</time></trkpt><trkpt lat="36.6107117" lon="-4.532085"><ele>164.0</ele><time>2026-04-25T11:19:01.064Z</time></trkpt><trkpt lat="36.6106583" lon="-4.5324383"><ele>164.0</ele><time>2026-04-25T11:19:02.062Z</time></trkpt><trkpt lat="36.6106167" lon="-4.532795"><ele>164.0</ele><time>2026-04-25T11:19:03.062Z</time></trkpt><trkpt lat="36.6105767" lon="-4.5331533"><ele>165.0</ele><time>2026-04-25T11:19:04.065Z</time></trkpt><trkpt lat="36.61054" lon="-4.53351"><ele>166.0</ele><time>2026-04-25T11:19:05.061Z</time></trkpt><trkpt lat="36.610505" lon="-4.533865"><ele>171.5</ele><time>2026-04-25T11:19:06.064Z</time></trkpt><trkpt lat="36.61047" lon="-4.534215"><ele>177.0</ele><time>2026-04-25T11:19:07.062Z</time></trkpt><trkpt lat="36.6104267" lon="-4.53456"><ele>179.5</ele><time>2026-04-25T11:19:08.066Z</time></trkpt><trkpt lat="36.6103833" lon="-4.5349017"><ele>182.0</ele><time>2026-04-25T11:19:09.063Z</time></trkpt><trkpt lat="36.6103317" lon="-4.5352417"><ele>176.0</ele><time>2026-04-25T11:19:10.06Z</time></trkpt><trkpt lat="36.6102717" lon="-4.535575"><ele>170.0</ele><time>2026-04-25T11:19:11.067Z</time></trkpt><trkpt lat="36.6102033" lon="-4.53591"><ele>173.5</ele><time>2026-04-25T11:19:12.061Z</time></trkpt><trkpt lat="36.61013" lon="-4.53624"><ele>177.0</ele><time>2026-04-25T11:19:13.062Z</time></trkpt><trkpt lat="36.61005" lon="-4.536565"><ele>177.0</ele><time>2026-04-25T11:19:14.063Z</time></trkpt><trkpt lat="36.6099633" lon="-4.5368867"><ele>177.0</ele><time>2026-04-25T11:19:15.061Z</time></trkpt><trkpt lat="36.6098667" lon="-4.5372033"><ele>186.5</ele><time>2026-04-25T11:19:16.059Z</time></trkpt><trkpt lat="36.6097617" lon="-4.5375167"><ele>196.0</ele><time>2026-04-25T11:19:17.063Z</time></trkpt><trkpt lat="36.60965" lon="-4.537825"><ele>190.5</ele><time>2026-04-25T11:19:18.062Z</time></trkpt><trkpt lat="36.6095317" lon="-4.53813"><ele>185.0</ele><time>2026-04-25T11:19:19.064Z</time></trkpt><trkpt lat="36.6094083" lon="-4.53843"><ele>191.0</ele><time>2026-04-25T11:19:20.06Z</time></trkpt><trkpt lat="36.6092817" lon="-4.53873"><ele>197.0</ele><time>2026-04-25T11:19:21.061Z</time></trkpt><trkpt lat="36.60915" lon="-4.5390283"><ele>197.0</ele><time>2026-04-25T11:19:22.06Z</time></trkpt><trkpt lat="36.6090133" lon="-4.5393283"><ele>197.0</ele><time>2026-04-25T11:19:23.062Z</time></trkpt><trkpt lat="36.608875" lon="-4.5396283"><ele>192.0</ele><time>2026-04-25T11:19:24.064Z</time></trkpt><trkpt lat="36.6087367" lon="-4.5399267"><ele>187.0</ele><time>2026-04-25T11:19:25.06Z</time></trkpt><trkpt lat="36.6085967" lon="-4.540225"><ele>194.5</ele><time>2026-04-25T11:19:26.06Z</time></trkpt><trkpt lat="36.6084583" lon="-4.5405217"><ele>202.0</ele><time>2026-04-25T11:19:27.061Z</time></trkpt><trkpt lat="36.6083233" lon="-4.5408167"><ele>202.0</ele><time>2026-04-25T11:19:28.063Z</time></trkpt><trkpt lat="36.60819" lon="-4.5411017"><ele>202.0</ele><time>2026-04-25T11:19:29.061Z</time></trkpt><trkpt lat="36.6080583" lon="-4.5413833"><ele>198.5</ele><time>2026-04-25T11:19:30.066Z</time></trkpt><trkpt lat="36.6079317" lon="-4.5416617"><ele>195.0</ele><time>2026-04-25T11:19:31.061Z</time></trkpt><trkpt lat="36.607805" lon="-4.5419367"><ele>199.5</ele><time>2026-04-25T11:19:32.058Z</time></trkpt><trkpt lat="36.6076767" lon="-4.5422133"><ele>204.0</ele><time>2026-04-25T11:19:33.064Z</time></trkpt><trkpt lat="36.6075483" lon="-4.5424917"><ele>204.0</ele><time>2026-04-25T11:19:34.062Z</time></trkpt><trkpt lat="36.60742" lon="-4.5427717"><ele>204.0</ele><time>2026-04-25T11:19:35.063Z</time></trkpt><trkpt lat="36.60729" lon="-4.5430517"><ele>206.5</ele><time>2026-04-25T11:19:36.059Z</time></trkpt><trkpt lat="36.6071633" lon="-4.54333"><ele>209.0</ele><time>2026-04-25T11:19:37.062Z</time></trkpt><trkpt lat="36.6070367" lon="-4.5436083"><ele>208.5</ele><time>2026-04-25T11:19:38.061Z</time></trkpt><trkpt lat="36.6069083" lon="-4.543885"><ele>208.0</ele><time>2026-04-25T11:19:39.062Z</time></trkpt><trkpt lat="36.6067783" lon="-4.544165"><ele>208.0</ele><time>2026-04-25T11:19:40.065Z</time></trkpt><trkpt lat="36.6066533" lon="-4.5444567"><ele>208.0</ele><time>2026-04-25T11:19:41.059Z</time></trkpt><trkpt lat="36.6065317" lon="-4.54476"><ele>215.0</ele><time>2026-04-25T11:19:42.063Z</time></trkpt><trkpt lat="36.6064183" lon="-4.5450733"><ele>222.0</ele><time>2026-04-25T11:19:43.064Z</time></trkpt><trkpt lat="36.6063117" lon="-4.54539"><ele>226.5</ele><time>2026-04-25T11:19:44.06Z</time></trkpt><trkpt lat="36.6062133" lon="-4.5457133"><ele>231.0</ele><time>2026-04-25T11:19:45.062Z</time></trkpt><trkpt lat="36.6061283" lon="-4.546045"><ele>226.0</ele><time>2026-04-25T11:19:46.062Z</time></trkpt><trkpt lat="36.60605" lon="-4.54638"><ele>221.0</ele><time>2026-04-25T11:19:47.059Z</time></trkpt><trkpt lat="36.6059833" lon="-4.5467167"><ele>227.0</ele><time>2026-04-25T11:19:48.062Z</time></trkpt><trkpt lat="36.6059267" lon="-4.54706"><ele>233.0</ele><time>2026-04-25T11:19:49.06Z</time></trkpt><trkpt lat="36.60588" lon="-4.5474067"><ele>233.0</ele><time>2026-04-25T11:19:50.065Z</time></trkpt><trkpt lat="36.60584" lon="-4.5477583"><ele>233.0</ele><time>2026-04-25T11:19:51.062Z</time></trkpt><trkpt lat="36.6058133" lon="-4.5481117"><ele>235.5</ele><time>2026-04-25T11:19:52.062Z</time></trkpt><trkpt lat="36.605795" lon="-4.5484717"><ele>238.0</ele><time>2026-04-25T11:19:53.067Z</time></trkpt><trkpt lat="36.6057867" lon="-4.5488333"><ele>238.0</ele><time>2026-04-25T11:19:54.061Z</time></trkpt><trkpt lat="36.60579" lon="-4.5492017"><ele>238.0</ele><time>2026-04-25T11:19:55.065Z</time></trkpt><trkpt lat="36.605805" lon="-4.5495733"><ele>239.0</ele><time>2026-04-25T11:19:56.061Z</time></trkpt><trkpt lat="36.605835" lon="-4.5499467"><ele>240.0</ele><time>2026-04-25T11:19:57.062Z</time></trkpt><trkpt lat="36.6058783" lon="-4.55032"><ele>240.5</ele><time>2026-04-25T11:19:58.064Z</time></trkpt><trkpt lat="36.60593" lon="-4.5506933"><ele>241.0</ele><time>2026-04-25T11:19:59.06Z</time></trkpt><trkpt lat="36.6059967" lon="-4.5510683"><ele>236.0</ele><time>2026-04-25T11:20:00.067Z</time></trkpt><trkpt lat="36.60607" lon="-4.5514367"><ele>231.0</ele><time>2026-04-25T11:20:01.06Z</time></trkpt><trkpt lat="36.6061533" lon="-4.551795"><ele>244.5</ele><time>2026-04-25T11:20:02.062Z</time></trkpt><trkpt lat="36.606245" lon="-4.5521383"><ele>258.0</ele><time>2026-04-25T11:20:03.059Z</time></trkpt><trkpt lat="36.6063333" lon="-4.5524717"><ele>258.0</ele><time>2026-04-25T11:20:04.06Z</time></trkpt><trkpt lat="36.60642" lon="-4.5528033"><ele>258.0</ele><time>2026-04-25T11:20:05.063Z</time></trkpt><trkpt lat="36.6064967" lon="-4.5531367"><ele>251.0</ele><time>2026-04-25T11:20:06.063Z</time></trkpt><trkpt lat="36.6065667" lon="-4.55347"><ele>244.0</ele><time>2026-04-25T11:20:07.061Z</time></trkpt><trkpt lat="36.606625" lon="-4.553805"><ele>242.5</ele><time>2026-04-25T11:20:08.062Z</time></trkpt><trkpt lat="36.60667" lon="-4.5541383"><ele>241.0</ele><time>2026-04-25T11:20:09.063Z</time></trkpt><trkpt lat="36.6067017" lon="-4.5544767"><ele>246.0</ele><time>2026-04-25T11:20:10.065Z</time></trkpt><trkpt lat="36.6067217" lon="-4.5548183"><ele>251.0</ele><time>2026-04-25T11:20:11.058Z</time></trkpt><trkpt lat="36.6067317" lon="-4.5551583"><ele>252.0</ele><time>2026-04-25T11:20:12.065Z</time></trkpt><trkpt lat="36.6067283" lon="-4.5554983"><ele>253.0</ele><time>2026-04-25T11:20:13.06Z</time></trkpt><trkpt lat="36.6067133" lon="-4.5558417"><ele>253.0</ele><time>2026-04-25T11:20:14.061Z</time></trkpt><trkpt lat="36.606685" lon="-4.5561767"><ele>253.0</ele><time>2026-04-25T11:20:15.06Z</time></trkpt><trkpt lat="36.6066467" lon="-4.556505"><ele>255.5</ele><time>2026-04-25T11:20:16.062Z</time></trkpt><trkpt lat="36.6065967" lon="-4.55683"><ele>258.0</ele><time>2026-04-25T11:20:17.061Z</time></trkpt><trkpt lat="36.6065333" lon="-4.557155"><ele>258.0</ele><time>2026-04-25T11:20:18.063Z</time></trkpt><trkpt lat="36.606455" lon="-4.55748"><ele>258.0</ele><time>2026-04-25T11:20:19.06Z</time></trkpt><trkpt lat="36.6063667" lon="-4.5578033"><ele>252.0</ele><time>2026-04-25T11:20:20.06Z</time></trkpt><trkpt lat="36.6062683" lon="-4.558125"><ele>246.0</ele><time>2026-04-25T11:20:21.06Z</time></trkpt><trkpt lat="36.60616" lon="-4.5584433"><ele>251.5</ele><time>2026-04-25T11:20:22.063Z</time></trkpt><trkpt lat="36.6060417" lon="-4.5587617"><ele>257.0</ele><time>2026-04-25T11:20:23.064Z</time></trkpt><trkpt lat="36.60592" lon="-4.55908"><ele>257.0</ele><time>2026-04-25T11:20:24.062Z</time></trkpt><trkpt lat="36.6057967" lon="-4.5594"><ele>257.0</ele><time>2026-04-25T11:20:25.067Z</time></trkpt><trkpt lat="36.6056717" lon="-4.5597183"><ele>259.5</ele><time>2026-04-25T11:20:26.063Z</time></trkpt><trkpt lat="36.6055517" lon="-4.56004"><ele>262.0</ele><time>2026-04-25T11:20:27.063Z</time></trkpt><trkpt lat="36.60544" lon="-4.5603667"><ele>259.5</ele><time>2026-04-25T11:20:28.061Z</time></trkpt><trkpt lat="36.6053383" lon="-4.5607017"><ele>257.0</ele><time>2026-04-25T11:20:29.061Z</time></trkpt><trkpt lat="36.60525" lon="-4.561045"><ele>260.5</ele><time>2026-04-25T11:20:30.059Z</time></trkpt><trkpt lat="36.605175" lon="-4.5613967"><ele>264.0</ele><time>2026-04-25T11:20:31.062Z</time></trkpt><trkpt lat="36.6051167" lon="-4.5617567"><ele>263.0</ele><time>2026-04-25T11:20:32.06Z</time></trkpt><trkpt lat="36.605065" lon="-4.5621167"><ele>262.0</ele><time>2026-04-25T11:20:33.06Z</time></trkpt><trkpt lat="36.6050267" lon="-4.56248"><ele>262.0</ele><time>2026-04-25T11:20:34.063Z</time></trkpt><trkpt lat="36.6050033" lon="-4.5628417"><ele>262.0</ele><time>2026-04-25T11:20:35.062Z</time></trkpt><trkpt lat="36.6049883" lon="-4.5632033"><ele>262.0</ele><time>2026-04-25T11:20:36.064Z</time></trkpt><trkpt lat="36.6049783" lon="-4.5635667"><ele>262.0</ele><time>2026-04-25T11:20:37.063Z</time></trkpt><trkpt lat="36.60497" lon="-4.563925"><ele>262.0</ele><time>2026-04-25T11:20:38.06Z</time></trkpt><trkpt lat="36.6049617" lon="-4.5642817"><ele>262.0</ele><time>2026-04-25T11:20:39.062Z</time></trkpt><trkpt lat="36.6049467" lon="-4.5646333"><ele>249.0</ele><time>2026-04-25T11:20:40.061Z</time></trkpt><trkpt lat="36.604925" lon="-4.564985"><ele>236.0</ele><time>2026-04-25T11:20:41.061Z</time></trkpt><trkpt lat="36.60489" lon="-4.565335"><ele>230.0</ele><time>2026-04-25T11:20:42.062Z</time></trkpt><trkpt lat="36.6048417" lon="-4.5656817"><ele>224.0</ele><time>2026-04-25T11:20:43.062Z</time></trkpt><trkpt lat="36.6047783" lon="-4.5660267"><ele>234.0</ele><time>2026-04-25T11:20:44.064Z</time></trkpt><trkpt lat="36.604705" lon="-4.5663717"><ele>244.0</ele><time>2026-04-25T11:20:45.06Z</time></trkpt><trkpt lat="36.60462" lon="-4.5667117"><ele>250.0</ele><time>2026-04-25T11:20:46.062Z</time></trkpt><trkpt lat="36.60453" lon="-4.5670433"><ele>256.0</ele><time>2026-04-25T11:20:47.061Z</time></trkpt><trkpt lat="36.6044267" lon="-4.5673617"><ele>256.0</ele><time>2026-04-25T11:20:48.063Z</time></trkpt><trkpt lat="36.604315" lon="-4.5676717"><ele>256.0</ele><time>2026-04-25T11:20:49.06Z</time></trkpt><trkpt lat="36.604195" lon="-4.5679733"><ele>261.0</ele><time>2026-04-25T11:20:50.063Z</time></trkpt><trkpt lat="36.6040617" lon="-4.5682667"><ele>266.0</ele><time>2026-04-25T11:20:51.06Z</time></trkpt><trkpt lat="36.6039183" lon="-4.5685533"><ele>271.0</ele><time>2026-04-25T11:20:52.06Z</time></trkpt><trkpt lat="36.6037633" lon="-4.568835"><ele>276.0</ele><time>2026-04-25T11:20:53.062Z</time></trkpt><trkpt lat="36.6035967" lon="-4.56911"><ele>276.0</ele><time>2026-04-25T11:20:54.066Z</time></trkpt><trkpt lat="36.60342" lon="-4.5693783"><ele>276.0</ele><time>2026-04-25T11:20:55.067Z</time></trkpt><trkpt lat="36.6032317" lon="-4.5696417"><ele>278.5</ele><time>2026-04-25T11:20:56.065Z</time></trkpt><trkpt lat="36.603035" lon="-4.5698967"><ele>281.0</ele><time>2026-04-25T11:20:57.062Z</time></trkpt><trkpt lat="36.6028267" lon="-4.5701467"><ele>290.5</ele><time>2026-04-25T11:20:58.06Z</time></trkpt><trkpt lat="36.6026083" lon="-4.5703867"><ele>300.0</ele><time>2026-04-25T11:20:59.059Z</time></trkpt><trkpt lat="36.60238" lon="-4.5706183"><ele>300.0</ele><time>2026-04-25T11:21:00.059Z</time></trkpt><trkpt lat="36.6021433" lon="-4.570845"><ele>300.0</ele><time>2026-04-25T11:21:01.065Z</time></trkpt><trkpt lat="36.601905" lon="-4.57107"><ele>300.5</ele><time>2026-04-25T11:21:02.063Z</time></trkpt><trkpt lat="36.6016633" lon="-4.5712967"><ele>301.0</ele><time>2026-04-25T11:21:03.062Z</time></trkpt><trkpt lat="36.6014233" lon="-4.5715283"><ele>301.0</ele><time>2026-04-25T11:21:04.062Z</time></trkpt><trkpt lat="36.6011817" lon="-4.57176"><ele>301.0</ele><time>2026-04-25T11:21:05.061Z</time></trkpt><trkpt lat="36.60094" lon="-4.5719883"><ele>307.0</ele><time>2026-04-25T11:21:06.061Z</time></trkpt><trkpt lat="36.6006933" lon="-4.5722167"><ele>313.0</ele><time>2026-04-25T11:21:07.062Z</time></trkpt><trkpt lat="36.6004467" lon="-4.5724467"><ele>308.5</ele><time>2026-04-25T11:21:08.061Z</time></trkpt><trkpt lat="36.6002067" lon="-4.5726717"><ele>304.0</ele><time>2026-04-25T11:21:09.063Z</time></trkpt><trkpt lat="36.599965" lon="-4.5729017"><ele>304.0</ele><time>2026-04-25T11:21:10.061Z</time></trkpt><trkpt lat="36.5997233" lon="-4.57313"><ele>304.0</ele><time>2026-04-25T11:21:11.061Z</time></trkpt><trkpt lat="36.599485" lon="-4.5733567"><ele>302.0</ele><time>2026-04-25T11:21:12.064Z</time></trkpt><trkpt lat="36.5992467" lon="-4.573585"><ele>300.0</ele><time>2026-04-25T11:21:13.062Z</time></trkpt><trkpt lat="36.5990083" lon="-4.573815"><ele>300.0</ele><time>2026-04-25T11:21:14.063Z</time></trkpt><trkpt lat="36.5987683" lon="-4.574045"><ele>300.0</ele><time>2026-04-25T11:21:15.06Z</time></trkpt><trkpt lat="36.5985283" lon="-4.574275"><ele>298.0</ele><time>2026-04-25T11:21:16.063Z</time></trkpt><trkpt lat="36.5982883" lon="-4.5745083"><ele>296.0</ele><time>2026-04-25T11:21:17.063Z</time></trkpt><trkpt lat="36.5980467" lon="-4.57474"><ele>299.5</ele><time>2026-04-25T11:21:18.065Z</time></trkpt><trkpt lat="36.5978033" lon="-4.5749717"><ele>303.0</ele><time>2026-04-25T11:21:19.061Z</time></trkpt><trkpt lat="36.59756" lon="-4.5752067"><ele>311.5</ele><time>2026-04-25T11:21:20.061Z</time></trkpt><trkpt lat="36.5973183" lon="-4.57544"><ele>320.0</ele><time>2026-04-25T11:21:21.059Z</time></trkpt><trkpt lat="36.5970733" lon="-4.57567"><ele>312.5</ele><time>2026-04-25T11:21:22.061Z</time></trkpt><trkpt lat="36.59683" lon="-4.5758967"><ele>305.0</ele><time>2026-04-25T11:21:23.059Z</time></trkpt><trkpt lat="36.5965867" lon="-4.5761217"><ele>306.0</ele><time>2026-04-25T11:21:24.067Z</time></trkpt><trkpt lat="36.5963417" lon="-4.5763483"><ele>307.0</ele><time>2026-04-25T11:21:25.058Z</time></trkpt><trkpt lat="36.5960983" lon="-4.5765783"><ele>307.0</ele><time>2026-04-25T11:21:26.059Z</time></trkpt><trkpt lat="36.5958533" lon="-4.57681"><ele>307.0</ele><time>2026-04-25T11:21:27.061Z</time></trkpt><trkpt lat="36.59561" lon="-4.5770417"><ele>306.0</ele><time>2026-04-25T11:21:28.059Z</time></trkpt><trkpt lat="36.5953667" lon="-4.5772717"><ele>305.0</ele><time>2026-04-25T11:21:29.059Z</time></trkpt><trkpt lat="36.5951267" lon="-4.5775"><ele>305.0</ele><time>2026-04-25T11:21:30.062Z</time></trkpt><trkpt lat="36.5948883" lon="-4.5777267"><ele>305.0</ele><time>2026-04-25T11:21:31.061Z</time></trkpt><trkpt lat="36.5946483" lon="-4.5779533"><ele>303.5</ele><time>2026-04-25T11:21:32.065Z</time></trkpt><trkpt lat="36.5944083" lon="-4.5781817"><ele>302.0</ele><time>2026-04-25T11:21:33.059Z</time></trkpt><trkpt lat="36.5941683" lon="-4.57841"><ele>302.0</ele><time>2026-04-25T11:21:34.066Z</time></trkpt><trkpt lat="36.5939317" lon="-4.5786383"><ele>302.0</ele><time>2026-04-25T11:21:35.06Z</time></trkpt><trkpt lat="36.5936983" lon="-4.5788667"><ele>302.0</ele><time>2026-04-25T11:21:36.062Z</time></trkpt><trkpt lat="36.593465" lon="-4.5790967"><ele>302.0</ele><time>2026-04-25T11:21:37.058Z</time></trkpt><trkpt lat="36.5932283" lon="-4.5793233"><ele>300.0</ele><time>2026-04-25T11:21:38.064Z</time></trkpt><trkpt lat="36.5929933" lon="-4.5795533"><ele>298.0</ele><time>2026-04-25T11:21:39.063Z</time></trkpt><trkpt lat="36.59276" lon="-4.5797833"><ele>298.0</ele><time>2026-04-25T11:21:40.059Z</time></trkpt><trkpt lat="36.592535" lon="-4.580025"><ele>298.0</ele><time>2026-04-25T11:21:41.058Z</time></trkpt><trkpt lat="36.5923133" lon="-4.5802733"><ele>295.5</ele><time>2026-04-25T11:21:42.06Z</time></trkpt><trkpt lat="36.5920933" lon="-4.580525"><ele>293.0</ele><time>2026-04-25T11:21:43.062Z</time></trkpt><trkpt lat="36.5918767" lon="-4.5807767"><ele>293.0</ele><time>2026-04-25T11:21:44.059Z</time></trkpt><trkpt lat="36.59166" lon="-4.5810333"><ele>293.0</ele><time>2026-04-25T11:21:45.058Z</time></trkpt><trkpt lat="36.5914467" lon="-4.5812917"><ele>298.5</ele><time>2026-04-25T11:21:46.061Z</time></trkpt><trkpt lat="36.5912367" lon="-4.5815533"><ele>304.0</ele><time>2026-04-25T11:21:47.062Z</time></trkpt><trkpt lat="36.59103" lon="-4.5818183"><ele>296.5</ele><time>2026-04-25T11:21:48.063Z</time></trkpt><trkpt lat="36.5908233" lon="-4.5820917"><ele>289.0</ele><time>2026-04-25T11:21:49.062Z</time></trkpt><trkpt lat="36.5906217" lon="-4.58237"><ele>289.0</ele><time>2026-04-25T11:21:50.064Z</time></trkpt><trkpt lat="36.5904267" lon="-4.58266"><ele>289.0</ele><time>2026-04-25T11:21:51.06Z</time></trkpt><trkpt lat="36.5902367" lon="-4.5829583"><ele>282.5</ele><time>2026-04-25T11:21:52.064Z</time></trkpt><trkpt lat="36.5900483" lon="-4.58326"><ele>276.0</ele><time>2026-04-25T11:21:53.06Z</time></trkpt><trkpt lat="36.5898633" lon="-4.5835683"><ele>279.5</ele><time>2026-04-25T11:21:54.065Z</time></trkpt><trkpt lat="36.589685" lon="-4.583885"><ele>283.0</ele><time>2026-04-25T11:21:55.06Z</time></trkpt><trkpt lat="36.5895117" lon="-4.5842083"><ele>276.5</ele><time>2026-04-25T11:21:56.061Z</time></trkpt><trkpt lat="36.5893433" lon="-4.5845367"><ele>270.0</ele><time>2026-04-25T11:21:57.064Z</time></trkpt><trkpt lat="36.58918" lon="-4.5848717"><ele>270.0</ele><time>2026-04-25T11:21:58.064Z</time></trkpt><trkpt lat="36.5890217" lon="-4.5852133"><ele>270.0</ele><time>2026-04-25T11:21:59.061Z</time></trkpt><trkpt lat="36.5888667" lon="-4.5855617"><ele>267.5</ele><time>2026-04-25T11:22:00.059Z</time></trkpt><trkpt lat="36.58872" lon="-4.585915"><ele>265.0</ele><time>2026-04-25T11:22:01.059Z</time></trkpt><trkpt lat="36.5885817" lon="-4.5862767"><ele>265.0</ele><time>2026-04-25T11:22:02.065Z</time></trkpt><trkpt lat="36.5884483" lon="-4.5866433"><ele>265.0</ele><time>2026-04-25T11:22:03.061Z</time></trkpt><trkpt lat="36.58832" lon="-4.5870167"><ele>268.5</ele><time>2026-04-25T11:22:04.06Z</time></trkpt><trkpt lat="36.5881983" lon="-4.587395"><ele>272.0</ele><time>2026-04-25T11:22:05.064Z</time></trkpt><trkpt lat="36.588085" lon="-4.58778"><ele>272.5</ele><time>2026-04-25T11:22:06.061Z</time></trkpt><trkpt lat="36.58798" lon="-4.5881633"><ele>273.0</ele><time>2026-04-25T11:22:07.062Z</time></trkpt><trkpt lat="36.5878817" lon="-4.5885483"><ele>256.5</ele><time>2026-04-25T11:22:08.062Z</time></trkpt><trkpt lat="36.5877967" lon="-4.5889367"><ele>240.0</ele><time>2026-04-25T11:22:09.06Z</time></trkpt><trkpt lat="36.58772" lon="-4.5893267"><ele>239.5</ele><time>2026-04-25T11:22:10.062Z</time></trkpt><trkpt lat="36.5876517" lon="-4.5897183"><ele>239.0</ele><time>2026-04-25T11:22:11.058Z</time></trkpt><trkpt lat="36.587585" lon="-4.590105"><ele>240.0</ele><time>2026-04-25T11:22:12.065Z</time></trkpt><trkpt lat="36.587525" lon="-4.5904917"><ele>241.0</ele><time>2026-04-25T11:22:13.062Z</time></trkpt><trkpt lat="36.5874733" lon="-4.5908783"><ele>244.5</ele><time>2026-04-25T11:22:14.062Z</time></trkpt><trkpt lat="36.58743" lon="-4.5912667"><ele>248.0</ele><time>2026-04-25T11:22:15.059Z</time></trkpt><trkpt lat="36.5873917" lon="-4.5916533"><ele>248.0</ele><time>2026-04-25T11:22:16.06Z</time></trkpt><trkpt lat="36.5873567" lon="-4.5920433"><ele>248.0</ele><time>2026-04-25T11:22:17.062Z</time></trkpt><trkpt lat="36.587325" lon="-4.59243"><ele>248.0</ele><time>2026-04-25T11:22:18.063Z</time></trkpt><trkpt lat="36.5872933" lon="-4.592815"><ele>248.0</ele><time>2026-04-25T11:22:19.062Z</time></trkpt><trkpt lat="36.5872633" lon="-4.5932"><ele>244.5</ele><time>2026-04-25T11:22:20.062Z</time></trkpt><trkpt lat="36.5872317" lon="-4.5935867"><ele>241.0</ele><time>2026-04-25T11:22:21.062Z</time></trkpt><trkpt lat="36.5872017" lon="-4.593975"><ele>238.0</ele><time>2026-04-25T11:22:22.061Z</time></trkpt><trkpt lat="36.58717" lon="-4.5943633"><ele>235.0</ele><time>2026-04-25T11:22:23.061Z</time></trkpt><trkpt lat="36.5871383" lon="-4.5947517"><ele>233.0</ele><time>2026-04-25T11:22:24.064Z</time></trkpt><trkpt lat="36.5871083" lon="-4.595135"><ele>231.0</ele><time>2026-04-25T11:22:25.063Z</time></trkpt><trkpt lat="36.5870767" lon="-4.5955167"><ele>230.0</ele><time>2026-04-25T11:22:26.064Z</time></trkpt><trkpt lat="36.587045" lon="-4.5958933"><ele>229.0</ele><time>2026-04-25T11:22:27.063Z</time></trkpt><trkpt lat="36.587005" lon="-4.59627"><ele>217.0</ele><time>2026-04-25T11:22:28.058Z</time></trkpt><trkpt lat="36.5869583" lon="-4.596645"><ele>205.0</ele><time>2026-04-25T11:22:29.06Z</time></trkpt><trkpt lat="36.586905" lon="-4.59702"><ele>205.0</ele><time>2026-04-25T11:22:30.062Z</time></trkpt><trkpt lat="36.5868417" lon="-4.597395"><ele>205.0</ele><time>2026-04-25T11:22:31.062Z</time></trkpt><trkpt lat="36.5867695" lon="-4.5977698"><ele>207.0</ele><time>2026-04-25T11:22:32.058Z</time></trkpt><trkpt lat="36.586685" lon="-4.5981428"><ele>209.0</ele><time>2026-04-25T11:22:33.063Z</time></trkpt><trkpt lat="36.5865916" lon="-4.5985105"><ele>213.5</ele><time>2026-04-25T11:22:34.061Z</time></trkpt><trkpt lat="36.5864919" lon="-4.5988729"><ele>218.0</ele><time>2026-04-25T11:22:35.059Z</time></trkpt><trkpt lat="36.5863823" lon="-4.5992299"><ele>219.5</ele><time>2026-04-25T11:22:36.06Z</time></trkpt><trkpt lat="36.5862673" lon="-4.5995816"><ele>221.0</ele><time>2026-04-25T11:22:37.059Z</time></trkpt><trkpt lat="36.5861435" lon="-4.5999301"><ele>208.5</ele><time>2026-04-25T11:22:38.064Z</time></trkpt><trkpt lat="36.5860089" lon="-4.6002733"><ele>196.0</ele><time>2026-04-25T11:22:39.063Z</time></trkpt><trkpt lat="36.5858663" lon="-4.6006116"><ele>196.0</ele><time>2026-04-25T11:22:40.06Z</time></trkpt><trkpt lat="36.5857169" lon="-4.6009461"><ele>196.0</ele><time>2026-04-25T11:22:41.061Z</time></trkpt><trkpt lat="36.5855608" lon="-4.6012765"><ele>198.0</ele><time>2026-04-25T11:22:42.064Z</time></trkpt><trkpt lat="36.5853985" lon="-4.6016011"><ele>200.0</ele><time>2026-04-25T11:22:43.06Z</time></trkpt><trkpt lat="36.5852245" lon="-4.6019212"><ele>193.0</ele><time>2026-04-25T11:22:44.062Z</time></trkpt><trkpt lat="36.585046" lon="-4.6022347"><ele>186.0</ele><time>2026-04-25T11:22:45.064Z</time></trkpt><trkpt lat="36.5848663" lon="-4.6025366"><ele>186.0</ele><time>2026-04-25T11:22:46.059Z</time></trkpt><trkpt lat="36.5846845" lon="-4.6028277"><ele>186.0</ele><time>2026-04-25T11:22:47.061Z</time></trkpt><trkpt lat="36.5845028" lon="-4.6031014"><ele>181.5</ele><time>2026-04-25T11:22:48.062Z</time></trkpt><trkpt lat="36.5843224" lon="-4.6033571"><ele>177.0</ele><time>2026-04-25T11:22:49.065Z</time></trkpt><trkpt lat="36.5841458" lon="-4.6035969"><ele>176.5</ele><time>2026-04-25T11:22:50.061Z</time></trkpt><trkpt lat="36.583975" lon="-4.6038222"><ele>176.0</ele><time>2026-04-25T11:22:51.059Z</time></trkpt><trkpt lat="36.583803" lon="-4.6040381"><ele>174.0</ele><time>2026-04-25T11:22:52.064Z</time></trkpt><trkpt lat="36.5836301" lon="-4.6042488"><ele>172.0</ele><time>2026-04-25T11:22:53.062Z</time></trkpt><trkpt lat="36.5834561" lon="-4.6044589"><ele>173.5</ele><time>2026-04-25T11:22:54.063Z</time></trkpt><trkpt lat="36.5832841" lon="-4.604667"><ele>175.0</ele><time>2026-04-25T11:22:55.06Z</time></trkpt><trkpt lat="36.58311" lon="-4.6048763"><ele>175.0</ele><time>2026-04-25T11:22:56.063Z</time></trkpt><trkpt lat="36.582937" lon="-4.6050856"><ele>175.0</ele><time>2026-04-25T11:22:57.063Z</time></trkpt><trkpt lat="36.5827614" lon="-4.6052944"><ele>168.0</ele><time>2026-04-25T11:22:58.066Z</time></trkpt><trkpt lat="36.5825849" lon="-4.6054976"><ele>161.0</ele><time>2026-04-25T11:22:59.06Z</time></trkpt><trkpt lat="36.5824084" lon="-4.6057005"><ele>161.0</ele><time>2026-04-25T11:23:00.064Z</time></trkpt><trkpt lat="36.5822354" lon="-4.6059049"><ele>161.0</ele><time>2026-04-25T11:23:01.062Z</time></trkpt><trkpt lat="36.5820627" lon="-4.6061117"><ele>157.0</ele><time>2026-04-25T11:23:02.063Z</time></trkpt><trkpt lat="36.5818888" lon="-4.606318"><ele>153.0</ele><time>2026-04-25T11:23:03.066Z</time></trkpt><trkpt lat="36.5817159" lon="-4.6065258"><ele>153.0</ele><time>2026-04-25T11:23:04.064Z</time></trkpt><trkpt lat="36.5815416" lon="-4.6067346"><ele>153.0</ele><time>2026-04-25T11:23:05.062Z</time></trkpt><trkpt lat="36.5813654" lon="-4.6069449"><ele>148.5</ele><time>2026-04-25T11:23:06.064Z</time></trkpt><trkpt lat="36.5811887" lon="-4.6071565"><ele>144.0</ele><time>2026-04-25T11:23:07.063Z</time></trkpt><trkpt lat="36.5810077" lon="-4.6073709"><ele>143.5</ele><time>2026-04-25T11:23:08.059Z</time></trkpt><trkpt lat="36.5808236" lon="-4.6075864"><ele>143.0</ele><time>2026-04-25T11:23:09.065Z</time></trkpt><trkpt lat="36.5806403" lon="-4.6077985"><ele>143.0</ele><time>2026-04-25T11:23:10.059Z</time></trkpt><trkpt lat="36.5804578" lon="-4.6080119"><ele>143.0</ele><time>2026-04-25T11:23:11.062Z</time></trkpt><trkpt lat="36.5802778" lon="-4.6082231"><ele>143.0</ele><time>2026-04-25T11:23:12.06Z</time></trkpt><trkpt lat="36.5801032" lon="-4.6084303"><ele>143.0</ele><time>2026-04-25T11:23:13.06Z</time></trkpt><trkpt lat="36.5799288" lon="-4.6086383"><ele>139.0</ele><time>2026-04-25T11:23:14.059Z</time></trkpt><trkpt lat="36.579754" lon="-4.6088484"><ele>135.0</ele><time>2026-04-25T11:23:15.064Z</time></trkpt><trkpt lat="36.5795811" lon="-4.6090623"><ele>138.0</ele><time>2026-04-25T11:23:16.06Z</time></trkpt><trkpt lat="36.5794118" lon="-4.6092832"><ele>141.0</ele><time>2026-04-25T11:23:17.062Z</time></trkpt><trkpt lat="36.5792425" lon="-4.609513"><ele>135.0</ele><time>2026-04-25T11:23:18.065Z</time></trkpt><trkpt lat="36.5790755" lon="-4.6097562"><ele>129.0</ele><time>2026-04-25T11:23:19.063Z</time></trkpt><trkpt lat="36.5789076" lon="-4.6100078"><ele>129.0</ele><time>2026-04-25T11:23:20.059Z</time></trkpt><trkpt lat="36.5787402" lon="-4.6102683"><ele>129.0</ele><time>2026-04-25T11:23:21.065Z</time></trkpt><trkpt lat="36.5785741" lon="-4.6105313"><ele>127.5</ele><time>2026-04-25T11:23:22.061Z</time></trkpt><trkpt lat="36.5784104" lon="-4.6107945"><ele>126.0</ele><time>2026-04-25T11:23:23.059Z</time></trkpt><trkpt lat="36.5782513" lon="-4.6110613"><ele>127.0</ele><time>2026-04-25T11:23:24.063Z</time></trkpt><trkpt lat="36.5781004" lon="-4.6113338"><ele>128.0</ele><time>2026-04-25T11:23:25.059Z</time></trkpt><trkpt lat="36.5779551" lon="-4.611607"><ele>128.5</ele><time>2026-04-25T11:23:26.064Z</time></trkpt><trkpt lat="36.5778144" lon="-4.6118805"><ele>129.0</ele><time>2026-04-25T11:23:27.062Z</time></trkpt><trkpt lat="36.5776792" lon="-4.6121559"><ele>125.5</ele><time>2026-04-25T11:23:28.062Z</time></trkpt><trkpt lat="36.5775503" lon="-4.6124339"><ele>122.0</ele><time>2026-04-25T11:23:29.063Z</time></trkpt><trkpt lat="36.5774274" lon="-4.6127121"><ele>124.5</ele><time>2026-04-25T11:23:30.062Z</time></trkpt><trkpt lat="36.5773092" lon="-4.6129921"><ele>127.0</ele><time>2026-04-25T11:23:31.06Z</time></trkpt><trkpt lat="36.5771955" lon="-4.6132768"><ele>127.0</ele><time>2026-04-25T11:23:32.063Z</time></trkpt><trkpt lat="36.5770834" lon="-4.6135619"><ele>127.0</ele><time>2026-04-25T11:23:33.058Z</time></trkpt><trkpt lat="36.5769784" lon="-4.6138512"><ele>124.0</ele><time>2026-04-25T11:23:34.065Z</time></trkpt><trkpt lat="36.5768786" lon="-4.6141425"><ele>121.0</ele><time>2026-04-25T11:23:35.064Z</time></trkpt><trkpt lat="36.5767801" lon="-4.6144383"><ele>119.5</ele><time>2026-04-25T11:23:36.058Z</time></trkpt><trkpt lat="36.5766808" lon="-4.6147333"><ele>118.0</ele><time>2026-04-25T11:23:37.064Z</time></trkpt><trkpt lat="36.5765865" lon="-4.6150254"><ele>118.0</ele><time>2026-04-25T11:23:38.065Z</time></trkpt><trkpt lat="36.5764951" lon="-4.6153165"><ele>118.0</ele><time>2026-04-25T11:23:39.06Z</time></trkpt><trkpt lat="36.5764062" lon="-4.6156084"><ele>117.5</ele><time>2026-04-25T11:23:40.064Z</time></trkpt><trkpt lat="36.5763195" lon="-4.6158947"><ele>117.0</ele><time>2026-04-25T11:23:41.062Z</time></trkpt><trkpt lat="36.576233" lon="-4.6161767"><ele>108.5</ele><time>2026-04-25T11:23:42.06Z</time></trkpt><trkpt lat="36.5761437" lon="-4.616458"><ele>100.0</ele><time>2026-04-25T11:23:43.061Z</time></trkpt><trkpt lat="36.5760534" lon="-4.6167377"><ele>101.5</ele><time>2026-04-25T11:23:44.065Z</time></trkpt><trkpt lat="36.5759611" lon="-4.6170151"><ele>103.0</ele><time>2026-04-25T11:23:45.06Z</time></trkpt><trkpt lat="36.5758651" lon="-4.6172933"><ele>103.0</ele><time>2026-04-25T11:23:46.061Z</time></trkpt><trkpt lat="36.5757652" lon="-4.6175715"><ele>103.0</ele><time>2026-04-25T11:23:47.06Z</time></trkpt><trkpt lat="36.5756604" lon="-4.6178514"><ele>106.0</ele><time>2026-04-25T11:23:48.059Z</time></trkpt><trkpt lat="36.5755479" lon="-4.6181347"><ele>109.0</ele><time>2026-04-25T11:23:49.062Z</time></trkpt><trkpt lat="36.5754242" lon="-4.6184221"><ele>99.0</ele><time>2026-04-25T11:23:50.061Z</time></trkpt><trkpt lat="36.5752938" lon="-4.618709"><ele>89.0</ele><time>2026-04-25T11:23:51.06Z</time></trkpt><trkpt lat="36.5751579" lon="-4.6189919"><ele>89.0</ele><time>2026-04-25T11:23:52.063Z</time></trkpt><trkpt lat="36.5750149" lon="-4.6192719"><ele>89.0</ele><time>2026-04-25T11:23:53.064Z</time></trkpt><trkpt lat="36.5748662" lon="-4.6195489"><ele>93.5</ele><time>2026-04-25T11:23:54.068Z</time></trkpt><trkpt lat="36.5747113" lon="-4.6198231"><ele>98.0</ele><time>2026-04-25T11:23:55.064Z</time></trkpt><trkpt lat="36.5745511" lon="-4.6200993"><ele>90.5</ele><time>2026-04-25T11:23:56.063Z</time></trkpt><trkpt lat="36.5743865" lon="-4.620373"><ele>83.0</ele><time>2026-04-25T11:23:57.058Z</time></trkpt><trkpt lat="36.5742145" lon="-4.620645"><ele>83.0</ele><time>2026-04-25T11:23:58.058Z</time></trkpt><trkpt lat="36.5740358" lon="-4.6209111"><ele>83.0</ele><time>2026-04-25T11:23:59.064Z</time></trkpt><trkpt lat="36.5738483" lon="-4.6211679"><ele>77.5</ele><time>2026-04-25T11:24:00.062Z</time></trkpt><trkpt lat="36.5736517" lon="-4.621418"><ele>72.0</ele><time>2026-04-25T11:24:01.059Z</time></trkpt><trkpt lat="36.5734496" lon="-4.6216635"><ele>72.0</ele><time>2026-04-25T11:24:02.063Z</time></trkpt><trkpt lat="36.5732453" lon="-4.6219045"><ele>72.0</ele><time>2026-04-25T11:24:03.065Z</time></trkpt><trkpt lat="36.5730369" lon="-4.6221379"><ele>70.5</ele><time>2026-04-25T11:24:04.063Z</time></trkpt><trkpt lat="36.5728235" lon="-4.6223677"><ele>69.0</ele><time>2026-04-25T11:24:05.067Z</time></trkpt><trkpt lat="36.5726047" lon="-4.6225912"><ele>69.0</ele><time>2026-04-25T11:24:06.063Z</time></trkpt><trkpt lat="36.5723813" lon="-4.6228126"><ele>69.0</ele><time>2026-04-25T11:24:07.063Z</time></trkpt><trkpt lat="36.5721546" lon="-4.6230263"><ele>66.5</ele><time>2026-04-25T11:24:08.059Z</time></trkpt><trkpt lat="36.571924" lon="-4.6232351"><ele>64.0</ele><time>2026-04-25T11:24:09.062Z</time></trkpt><trkpt lat="36.5716923" lon="-4.6234423"><ele>67.5</ele><time>2026-04-25T11:24:10.058Z</time></trkpt><trkpt lat="36.5714573" lon="-4.6236475"><ele>71.0</ele><time>2026-04-25T11:24:11.06Z</time></trkpt><trkpt lat="36.5712183" lon="-4.6238517"><ele>65.0</ele><time>2026-04-25T11:24:12.063Z</time></trkpt><trkpt lat="36.5709783" lon="-4.6240567"><ele>59.0</ele><time>2026-04-25T11:24:13.06Z</time></trkpt><trkpt lat="36.5707333" lon="-4.6242633"><ele>59.0</ele><time>2026-04-25T11:24:14.066Z</time></trkpt><trkpt lat="36.570485" lon="-4.62447"><ele>59.0</ele><time>2026-04-25T11:24:15.064Z</time></trkpt><trkpt lat="36.5702367" lon="-4.6246817"><ele>57.0</ele><time>2026-04-25T11:24:16.063Z</time></trkpt><trkpt lat="36.5699883" lon="-4.624895"><ele>55.0</ele><time>2026-04-25T11:24:17.065Z</time></trkpt><trkpt lat="36.5697383" lon="-4.62511"><ele>53.0</ele><time>2026-04-25T11:24:18.064Z</time></trkpt><trkpt lat="36.5694917" lon="-4.625325"><ele>51.0</ele><time>2026-04-25T11:24:19.063Z</time></trkpt><trkpt lat="36.569245" lon="-4.62555"><ele>51.0</ele><time>2026-04-25T11:24:20.068Z</time></trkpt><trkpt lat="36.5690017" lon="-4.62578"><ele>51.0</ele><time>2026-04-25T11:24:21.063Z</time></trkpt><trkpt lat="36.5687633" lon="-4.626015"><ele>51.5</ele><time>2026-04-25T11:24:22.064Z</time></trkpt><trkpt lat="36.5685283" lon="-4.626255"><ele>52.0</ele><time>2026-04-25T11:24:23.068Z</time></trkpt><trkpt lat="36.5683" lon="-4.6265033"><ele>52.0</ele><time>2026-04-25T11:24:24.066Z</time></trkpt><trkpt lat="36.568075" lon="-4.6267633"><ele>52.0</ele><time>2026-04-25T11:24:25.06Z</time></trkpt><trkpt lat="36.5678533" lon="-4.6270333"><ele>53.5</ele><time>2026-04-25T11:24:26.061Z</time></trkpt><trkpt lat="36.5676383" lon="-4.6273083"><ele>55.0</ele><time>2026-04-25T11:24:27.06Z</time></trkpt><trkpt lat="36.56743" lon="-4.6275917"><ele>57.0</ele><time>2026-04-25T11:24:28.068Z</time></trkpt><trkpt lat="36.5672317" lon="-4.6278867"><ele>59.0</ele><time>2026-04-25T11:24:29.063Z</time></trkpt><trkpt lat="36.5670417" lon="-4.6281933"><ele>55.5</ele><time>2026-04-25T11:24:30.06Z</time></trkpt><trkpt lat="36.566865" lon="-4.6285133"><ele>52.0</ele><time>2026-04-25T11:24:31.067Z</time></trkpt><trkpt lat="36.566705" lon="-4.6288467"><ele>52.0</ele><time>2026-04-25T11:24:32.063Z</time></trkpt><trkpt lat="36.5665483" lon="-4.62919"><ele>52.0</ele><time>2026-04-25T11:24:33.066Z</time></trkpt><trkpt lat="36.5664083" lon="-4.62954"><ele>52.0</ele><time>2026-04-25T11:24:34.066Z</time></trkpt><trkpt lat="36.5662883" lon="-4.62989"><ele>52.0</ele><time>2026-04-25T11:24:35.065Z</time></trkpt><trkpt lat="36.5661817" lon="-4.630245"><ele>50.0</ele><time>2026-04-25T11:24:36.063Z</time></trkpt><trkpt lat="36.566085" lon="-4.63061"><ele>48.0</ele><time>2026-04-25T11:24:37.065Z</time></trkpt><trkpt lat="36.5660033" lon="-4.6309833"><ele>51.0</ele><time>2026-04-25T11:24:38.067Z</time></trkpt><trkpt lat="36.5659383" lon="-4.631365"><ele>54.0</ele><time>2026-04-25T11:24:39.065Z</time></trkpt><trkpt lat="36.5658833" lon="-4.63175"><ele>56.0</ele><time>2026-04-25T11:24:40.064Z</time></trkpt><trkpt lat="36.5658383" lon="-4.6321367"><ele>58.0</ele><time>2026-04-25T11:24:41.062Z</time></trkpt><trkpt lat="36.5658083" lon="-4.632525"><ele>57.5</ele><time>2026-04-25T11:24:42.059Z</time></trkpt><trkpt lat="36.5657917" lon="-4.6329117"><ele>57.0</ele><time>2026-04-25T11:24:43.063Z</time></trkpt><trkpt lat="36.56579" lon="-4.6333033"><ele>54.5</ele><time>2026-04-25T11:24:44.062Z</time></trkpt><trkpt lat="36.5658017" lon="-4.633695"><ele>52.0</ele><time>2026-04-25T11:24:45.062Z</time></trkpt><trkpt lat="36.5658267" lon="-4.6340783"><ele>52.0</ele><time>2026-04-25T11:24:46.059Z</time></trkpt><trkpt lat="36.5658617" lon="-4.634455"><ele>52.0</ele><time>2026-04-25T11:24:47.059Z</time></trkpt><trkpt lat="36.5659117" lon="-4.6348267"><ele>54.0</ele><time>2026-04-25T11:24:48.063Z</time></trkpt><trkpt lat="36.5659733" lon="-4.6351967"><ele>56.0</ele><time>2026-04-25T11:24:49.062Z</time></trkpt><trkpt lat="36.56605" lon="-4.6355617"><ele>58.5</ele><time>2026-04-25T11:24:50.063Z</time></trkpt><trkpt lat="36.56614" lon="-4.635925"><ele>61.0</ele><time>2026-04-25T11:24:51.067Z</time></trkpt><trkpt lat="36.5662383" lon="-4.6362833"><ele>64.0</ele><time>2026-04-25T11:24:52.062Z</time></trkpt><trkpt lat="36.56635" lon="-4.6366383"><ele>67.0</ele><time>2026-04-25T11:24:53.059Z</time></trkpt><trkpt lat="36.566475" lon="-4.63699"><ele>67.0</ele><time>2026-04-25T11:24:54.061Z</time></trkpt><trkpt lat="36.5666117" lon="-4.6373367"><ele>67.0</ele><time>2026-04-25T11:24:55.061Z</time></trkpt><trkpt lat="36.5667583" lon="-4.63768"><ele>68.0</ele><time>2026-04-25T11:24:56.063Z</time></trkpt><trkpt lat="36.5669083" lon="-4.63802"><ele>69.0</ele><time>2026-04-25T11:24:57.064Z</time></trkpt><trkpt lat="36.56706" lon="-4.6383567"><ele>70.0</ele><time>2026-04-25T11:24:58.063Z</time></trkpt><trkpt lat="36.56721" lon="-4.6386917"><ele>71.0</ele><time>2026-04-25T11:24:59.061Z</time></trkpt><trkpt lat="36.5673617" lon="-4.639025"><ele>71.0</ele><time>2026-04-25T11:25:00.059Z</time></trkpt><trkpt lat="36.567515" lon="-4.639355"><ele>71.0</ele><time>2026-04-25T11:25:01.061Z</time></trkpt><trkpt lat="36.5676667" lon="-4.6396833"><ele>72.5</ele><time>2026-04-25T11:25:02.074Z</time></trkpt><trkpt lat="36.567815" lon="-4.6400133"><ele>74.0</ele><time>2026-04-25T11:25:03.063Z</time></trkpt><trkpt lat="36.5679583" lon="-4.6403433"><ele>76.5</ele><time>2026-04-25T11:25:04.065Z</time></trkpt><trkpt lat="36.568095" lon="-4.6406783"><ele>79.0</ele><time>2026-04-25T11:25:05.065Z</time></trkpt><trkpt lat="36.568225" lon="-4.6410217"><ele>81.5</ele><time>2026-04-25T11:25:06.065Z</time></trkpt><trkpt lat="36.5683467" lon="-4.6413667"><ele>84.0</ele><time>2026-04-25T11:25:07.065Z</time></trkpt><trkpt lat="36.5684633" lon="-4.641715"><ele>84.5</ele><time>2026-04-25T11:25:08.065Z</time></trkpt><trkpt lat="36.56857" lon="-4.642065"><ele>85.0</ele><time>2026-04-25T11:25:09.065Z</time></trkpt><trkpt lat="36.5686667" lon="-4.6424183"><ele>89.5</ele><time>2026-04-25T11:25:10.061Z</time></trkpt><trkpt lat="36.568755" lon="-4.6427767"><ele>94.0</ele><time>2026-04-25T11:25:11.062Z</time></trkpt><trkpt lat="36.5688317" lon="-4.6431367"><ele>94.0</ele><time>2026-04-25T11:25:12.064Z</time></trkpt><trkpt lat="36.5688983" lon="-4.6435017"><ele>94.0</ele><time>2026-04-25T11:25:13.06Z</time></trkpt><trkpt lat="36.568955" lon="-4.6438683"><ele>93.5</ele><time>2026-04-25T11:25:14.065Z</time></trkpt><trkpt lat="36.569" lon="-4.6442367"><ele>93.0</ele><time>2026-04-25T11:25:15.062Z</time></trkpt><trkpt lat="36.5690317" lon="-4.64461"><ele>92.5</ele><time>2026-04-25T11:25:16.065Z</time></trkpt><trkpt lat="36.5690567" lon="-4.644985"><ele>92.0</ele><time>2026-04-25T11:25:17.06Z</time></trkpt><trkpt lat="36.5690683" lon="-4.6453633"><ele>89.0</ele><time>2026-04-25T11:25:18.062Z</time></trkpt><trkpt lat="36.5690667" lon="-4.6457417"><ele>86.0</ele><time>2026-04-25T11:25:19.059Z</time></trkpt><trkpt lat="36.5690533" lon="-4.646125"><ele>88.0</ele><time>2026-04-25T11:25:20.061Z</time></trkpt><trkpt lat="36.5690283" lon="-4.6465083"><ele>90.0</ele><time>2026-04-25T11:25:21.064Z</time></trkpt><trkpt lat="36.5689883" lon="-4.6468967"><ele>93.0</ele><time>2026-04-25T11:25:22.062Z</time></trkpt><trkpt lat="36.56894" lon="-4.6472833"><ele>96.0</ele><time>2026-04-25T11:25:23.063Z</time></trkpt><trkpt lat="36.568885" lon="-4.6476717"><ele>101.0</ele><time>2026-04-25T11:25:24.06Z</time></trkpt><trkpt lat="36.5688183" lon="-4.6480583"><ele>106.0</ele><time>2026-04-25T11:25:25.062Z</time></trkpt><trkpt lat="36.5687433" lon="-4.6484433"><ele>107.5</ele><time>2026-04-25T11:25:26.064Z</time></trkpt><trkpt lat="36.5686567" lon="-4.648825"><ele>109.0</ele><time>2026-04-25T11:25:27.066Z</time></trkpt><trkpt lat="36.5685583" lon="-4.6492017"><ele>108.0</ele><time>2026-04-25T11:25:28.062Z</time></trkpt><trkpt lat="36.5684483" lon="-4.6495733"><ele>107.0</ele><time>2026-04-25T11:25:29.063Z</time></trkpt><trkpt lat="36.5683267" lon="-4.6499383"><ele>109.5</ele><time>2026-04-25T11:25:30.065Z</time></trkpt><trkpt lat="36.568195" lon="-4.6503"><ele>112.0</ele><time>2026-04-25T11:25:31.064Z</time></trkpt><trkpt lat="36.56805" lon="-4.6506533"><ele>112.0</ele><time>2026-04-25T11:25:32.066Z</time></trkpt><trkpt lat="36.567895" lon="-4.651"><ele>112.0</ele><time>2026-04-25T11:25:33.061Z</time></trkpt><trkpt lat="36.56773" lon="-4.6513367"><ele>112.5</ele><time>2026-04-25T11:25:34.059Z</time></trkpt><trkpt lat="36.5675567" lon="-4.6516683"><ele>113.0</ele><time>2026-04-25T11:25:35.067Z</time></trkpt><trkpt lat="36.5673783" lon="-4.65199"><ele>113.0</ele><time>2026-04-25T11:25:36.065Z</time></trkpt><trkpt lat="36.5671883" lon="-4.6523033"><ele>113.0</ele><time>2026-04-25T11:25:37.063Z</time></trkpt><trkpt lat="36.5669867" lon="-4.652605"><ele>108.0</ele><time>2026-04-25T11:25:38.065Z</time></trkpt><trkpt lat="36.566775" lon="-4.652895"><ele>103.0</ele><time>2026-04-25T11:25:39.062Z</time></trkpt><trkpt lat="36.5665533" lon="-4.6531733"><ele>103.0</ele><time>2026-04-25T11:25:40.058Z</time></trkpt><trkpt lat="36.5663233" lon="-4.653435"><ele>103.0</ele><time>2026-04-25T11:25:41.062Z</time></trkpt><trkpt lat="36.566085" lon="-4.6536883"><ele>95.0</ele><time>2026-04-25T11:25:42.061Z</time></trkpt><trkpt lat="36.5658483" lon="-4.653935"><ele>87.0</ele><time>2026-04-25T11:25:43.063Z</time></trkpt><trkpt lat="36.5656083" lon="-4.6541683"><ele>87.0</ele><time>2026-04-25T11:25:44.063Z</time></trkpt><trkpt lat="36.565365" lon="-4.6543933"><ele>87.0</ele><time>2026-04-25T11:25:45.063Z</time></trkpt><trkpt lat="36.565115" lon="-4.65461"><ele>77.5</ele><time>2026-04-25T11:25:46.063Z</time></trkpt><trkpt lat="36.5648633" lon="-4.6548217"><ele>68.0</ele><time>2026-04-25T11:25:47.062Z</time></trkpt><trkpt lat="36.564605" lon="-4.6550183"><ele>64.5</ele><time>2026-04-25T11:25:48.065Z</time></trkpt><trkpt lat="36.56434" lon="-4.6552017"><ele>61.0</ele><time>2026-04-25T11:25:49.059Z</time></trkpt><trkpt lat="36.564065" lon="-4.6553717"><ele>61.0</ele><time>2026-04-25T11:25:50.064Z</time></trkpt><trkpt lat="36.563785" lon="-4.6555333"><ele>61.0</ele><time>2026-04-25T11:25:51.062Z</time></trkpt><trkpt lat="36.563495" lon="-4.6556767"><ele>64.0</ele><time>2026-04-25T11:25:52.063Z</time></trkpt><trkpt lat="36.5632017" lon="-4.6558117"><ele>67.0</ele><time>2026-04-25T11:25:53.067Z</time></trkpt><trkpt lat="36.5629033" lon="-4.6559317"><ele>66.5</ele><time>2026-04-25T11:25:54.062Z</time></trkpt><trkpt lat="36.5626033" lon="-4.65604"><ele>66.0</ele><time>2026-04-25T11:25:55.059Z</time></trkpt><trkpt lat="36.5622967" lon="-4.6561317"><ele>61.0</ele><time>2026-04-25T11:25:56.063Z</time></trkpt><trkpt lat="36.5619867" lon="-4.6562067"><ele>56.0</ele><time>2026-04-25T11:25:57.064Z</time></trkpt><trkpt lat="36.5616733" lon="-4.6562717"><ele>56.0</ele><time>2026-04-25T11:25:58.064Z</time></trkpt><trkpt lat="36.5613567" lon="-4.656325"><ele>56.0</ele><time>2026-04-25T11:25:59.066Z</time></trkpt><trkpt lat="36.5610367" lon="-4.6563683"><ele>55.0</ele><time>2026-04-25T11:26:00.059Z</time></trkpt><trkpt lat="36.5607167" lon="-4.6563983"><ele>54.0</ele><time>2026-04-25T11:26:01.066Z</time></trkpt><trkpt lat="36.5603983" lon="-4.65642"><ele>52.5</ele><time>2026-04-25T11:26:02.064Z</time></trkpt><trkpt lat="36.5600783" lon="-4.6564283"><ele>51.0</ele><time>2026-04-25T11:26:03.063Z</time></trkpt><trkpt lat="36.559765" lon="-4.65643"><ele>47.0</ele><time>2026-04-25T11:26:04.065Z</time></trkpt><trkpt lat="36.5594617" lon="-4.6564233"><ele>43.0</ele><time>2026-04-25T11:26:05.063Z</time></trkpt><trkpt lat="36.559165" lon="-4.656415"><ele>43.0</ele><time>2026-04-25T11:26:06.065Z</time></trkpt><trkpt lat="36.558875" lon="-4.656405"><ele>43.0</ele><time>2026-04-25T11:26:07.061Z</time></trkpt><trkpt lat="36.558585" lon="-4.656395"><ele>44.0</ele><time>2026-04-25T11:26:08.06Z</time></trkpt><trkpt lat="36.5582933" lon="-4.656385"><ele>45.0</ele><time>2026-04-25T11:26:09.062Z</time></trkpt><trkpt lat="36.5580017" lon="-4.656375"><ele>43.5</ele><time>2026-04-25T11:26:10.059Z</time></trkpt><trkpt lat="36.5577067" lon="-4.656365"><ele>42.0</ele><time>2026-04-25T11:26:11.063Z</time></trkpt><trkpt lat="36.5574117" lon="-4.6563567"><ele>42.0</ele><time>2026-04-25T11:26:12.066Z</time></trkpt><trkpt lat="36.55712" lon="-4.6563483"><ele>42.0</ele><time>2026-04-25T11:26:13.063Z</time></trkpt><trkpt lat="36.5568333" lon="-4.65634"><ele>37.5</ele><time>2026-04-25T11:26:14.06Z</time></trkpt><trkpt lat="36.55655" lon="-4.65633"><ele>33.0</ele><time>2026-04-25T11:26:15.065Z</time></trkpt><trkpt lat="36.55627" lon="-4.6563217"><ele>31.5</ele><time>2026-04-25T11:26:16.061Z</time></trkpt><trkpt lat="36.5559883" lon="-4.656315"><ele>30.0</ele><time>2026-04-25T11:26:17.07Z</time></trkpt><trkpt lat="36.5557083" lon="-4.65631"><ele>30.0</ele><time>2026-04-25T11:26:18.066Z</time></trkpt><trkpt lat="36.5554317" lon="-4.6563067"><ele>30.0</ele><time>2026-04-25T11:26:19.059Z</time></trkpt><trkpt lat="36.5551517" lon="-4.6563"><ele>31.0</ele><time>2026-04-25T11:26:20.067Z</time></trkpt><trkpt lat="36.55487" lon="-4.6562917"><ele>32.0</ele><time>2026-04-25T11:26:21.063Z</time></trkpt><trkpt lat="36.554585" lon="-4.6562817"><ele>32.0</ele><time>2026-04-25T11:26:22.06Z</time></trkpt><trkpt lat="36.5542983" lon="-4.6562767"><ele>32.0</ele><time>2026-04-25T11:26:23.063Z</time></trkpt><trkpt lat="36.5540083" lon="-4.6562717"><ele>32.0</ele><time>2026-04-25T11:26:24.068Z</time></trkpt><trkpt lat="36.553715" lon="-4.6562633"><ele>32.0</ele><time>2026-04-25T11:26:25.064Z</time></trkpt><trkpt lat="36.5534217" lon="-4.6562483"><ele>31.0</ele><time>2026-04-25T11:26:26.063Z</time></trkpt><trkpt lat="36.5531233" lon="-4.6562267"><ele>30.0</ele><time>2026-04-25T11:26:27.064Z</time></trkpt><trkpt lat="36.5528233" lon="-4.6562083"><ele>28.5</ele><time>2026-04-25T11:26:28.061Z</time></trkpt><trkpt lat="36.5525217" lon="-4.6561933"><ele>27.0</ele><time>2026-04-25T11:26:29.062Z</time></trkpt><trkpt lat="36.5522167" lon="-4.6561833"><ele>26.0</ele><time>2026-04-25T11:26:30.06Z</time></trkpt><trkpt lat="36.5519117" lon="-4.65618"><ele>25.0</ele><time>2026-04-25T11:26:31.066Z</time></trkpt><trkpt lat="36.5516017" lon="-4.65618"><ele>25.0</ele><time>2026-04-25T11:26:32.063Z</time></trkpt><trkpt lat="36.55129" lon="-4.6561833"><ele>25.0</ele><time>2026-04-25T11:26:33.063Z</time></trkpt><trkpt lat="36.5509783" lon="-4.6561833"><ele>24.5</ele><time>2026-04-25T11:26:34.059Z</time></trkpt><trkpt lat="36.5506683" lon="-4.6561767"><ele>24.0</ele><time>2026-04-25T11:26:35.063Z</time></trkpt><trkpt lat="36.55036" lon="-4.6561683"><ele>23.5</ele><time>2026-04-25T11:26:36.064Z</time></trkpt><trkpt lat="36.5500517" lon="-4.65616"><ele>23.0</ele><time>2026-04-25T11:26:37.065Z</time></trkpt><trkpt lat="36.54974" lon="-4.6561517"><ele>22.5</ele><time>2026-04-25T11:26:38.064Z</time></trkpt><trkpt lat="36.5494283" lon="-4.656145"><ele>22.0</ele><time>2026-04-25T11:26:39.063Z</time></trkpt><trkpt lat="36.5491167" lon="-4.6561467"><ele>22.0</ele><time>2026-04-25T11:26:40.063Z</time></trkpt><trkpt lat="36.5488017" lon="-4.656155"><ele>22.0</ele><time>2026-04-25T11:26:41.061Z</time></trkpt><trkpt lat="36.5484867" lon="-4.6561717"><ele>21.0</ele><time>2026-04-25T11:26:42.068Z</time></trkpt><trkpt lat="36.5481683" lon="-4.6561967"><ele>20.0</ele><time>2026-04-25T11:26:43.066Z</time></trkpt><trkpt lat="36.54785" lon="-4.656235"><ele>18.0</ele><time>2026-04-25T11:26:44.068Z</time></trkpt><trkpt lat="36.5475317" lon="-4.656285"><ele>16.0</ele><time>2026-04-25T11:26:45.058Z</time></trkpt><trkpt lat="36.5472133" lon="-4.65635"><ele>17.0</ele><time>2026-04-25T11:26:46.064Z</time></trkpt><trkpt lat="36.5468967" lon="-4.6564267"><ele>18.0</ele><time>2026-04-25T11:26:47.061Z</time></trkpt><trkpt lat="36.5465883" lon="-4.6565167"><ele>18.0</ele><time>2026-04-25T11:26:48.061Z</time></trkpt><trkpt lat="36.5462883" lon="-4.65662"><ele>18.0</ele><time>2026-04-25T11:26:49.062Z</time></trkpt><trkpt lat="36.545995" lon="-4.6567317"><ele>18.0</ele><time>2026-04-25T11:26:50.064Z</time></trkpt><trkpt lat="36.5457083" lon="-4.6568567"><ele>18.0</ele><time>2026-04-25T11:26:51.064Z</time></trkpt><trkpt lat="36.545425" lon="-4.6569917"><ele>15.0</ele><time>2026-04-25T11:26:52.056Z</time></trkpt><trkpt lat="36.5451483" lon="-4.6571367"><ele>12.0</ele><time>2026-04-25T11:26:53.064Z</time></trkpt><trkpt lat="36.54488" lon="-4.6572933"><ele>12.0</ele><time>2026-04-25T11:26:54.065Z</time></trkpt><trkpt lat="36.5446233" lon="-4.6574617"><ele>12.0</ele><time>2026-04-25T11:26:55.063Z</time></trkpt><trkpt lat="36.5443767" lon="-4.6576433"><ele>13.0</ele><time>2026-04-25T11:26:56.064Z</time></trkpt><trkpt lat="36.544135" lon="-4.6578333"><ele>14.0</ele><time>2026-04-25T11:26:57.062Z</time></trkpt><trkpt lat="36.5439017" lon="-4.658035"><ele>14.0</ele><time>2026-04-25T11:26:58.063Z</time></trkpt><trkpt lat="36.5436733" lon="-4.6582467"><ele>14.0</ele><time>2026-04-25T11:26:59.062Z</time></trkpt><trkpt lat="36.54345" lon="-4.6584667"><ele>12.5</ele><time>2026-04-25T11:27:00.062Z</time></trkpt><trkpt lat="36.5432333" lon="-4.6586967"><ele>11.0</ele><time>2026-04-25T11:27:01.061Z</time></trkpt><trkpt lat="36.5430233" lon="-4.6589333"><ele>11.0</ele><time>2026-04-25T11:27:02.062Z</time></trkpt><trkpt lat="36.5428183" lon="-4.6591817"><ele>11.0</ele><time>2026-04-25T11:27:03.068Z</time></trkpt><trkpt lat="36.5426217" lon="-4.6594367"><ele>11.0</ele><time>2026-04-25T11:27:04.067Z</time></trkpt><trkpt lat="36.5424317" lon="-4.6597"><ele>11.0</ele><time>2026-04-25T11:27:05.065Z</time></trkpt><trkpt lat="36.5422533" lon="-4.6599767"><ele>11.0</ele><time>2026-04-25T11:27:06.064Z</time></trkpt><trkpt lat="36.542085" lon="-4.66026"><ele>11.0</ele><time>2026-04-25T11:27:07.067Z</time></trkpt><trkpt lat="36.54192" lon="-4.66055"><ele>11.5</ele><time>2026-04-25T11:27:08.068Z</time></trkpt><trkpt lat="36.5417617" lon="-4.66085"><ele>12.0</ele><time>2026-04-25T11:27:09.067Z</time></trkpt><trkpt lat="36.5416133" lon="-4.661155"><ele>12.0</ele><time>2026-04-25T11:27:10.065Z</time></trkpt><trkpt lat="36.5414717" lon="-4.66147"><ele>12.0</ele><time>2026-04-25T11:27:11.062Z</time></trkpt><trkpt lat="36.54134" lon="-4.6617933"><ele>12.0</ele><time>2026-04-25T11:27:12.067Z</time></trkpt><trkpt lat="36.5412183" lon="-4.662125"><ele>12.0</ele><time>2026-04-25T11:27:13.061Z</time></trkpt><trkpt lat="36.541105" lon="-4.6624633"><ele>13.0</ele><time>2026-04-25T11:27:14.061Z</time></trkpt><trkpt lat="36.5410033" lon="-4.6628117"><ele>14.0</ele><time>2026-04-25T11:27:15.067Z</time></trkpt><trkpt lat="36.5409133" lon="-4.663165"><ele>14.0</ele><time>2026-04-25T11:27:16.062Z</time></trkpt><trkpt lat="36.54083" lon="-4.6635267"><ele>14.0</ele><time>2026-04-25T11:27:17.062Z</time></trkpt><trkpt lat="36.540755" lon="-4.66389"><ele>15.5</ele><time>2026-04-25T11:27:18.061Z</time></trkpt><trkpt lat="36.5406917" lon="-4.6642583"><ele>17.0</ele><time>2026-04-25T11:27:19.059Z</time></trkpt><trkpt lat="36.54064" lon="-4.6646317"><ele>19.5</ele><time>2026-04-25T11:27:20.062Z</time></trkpt><trkpt lat="36.5405983" lon="-4.66501"><ele>22.0</ele><time>2026-04-25T11:27:21.066Z</time></trkpt><trkpt lat="36.5405633" lon="-4.66539"><ele>26.0</ele><time>2026-04-25T11:27:22.062Z</time></trkpt><trkpt lat="36.540535" lon="-4.6657733"><ele>30.0</ele><time>2026-04-25T11:27:23.061Z</time></trkpt><trkpt lat="36.5405133" lon="-4.6661583"><ele>30.0</ele><time>2026-04-25T11:27:24.064Z</time></trkpt><trkpt lat="36.5405" lon="-4.6665417"><ele>30.0</ele><time>2026-04-25T11:27:25.063Z</time></trkpt><trkpt lat="36.5404917" lon="-4.6669267"><ele>29.0</ele><time>2026-04-25T11:27:26.062Z</time></trkpt><trkpt lat="36.540485" lon="-4.6673117"><ele>28.0</ele><time>2026-04-25T11:27:27.063Z</time></trkpt><trkpt lat="36.5404783" lon="-4.667695"><ele>33.0</ele><time>2026-04-25T11:27:28.062Z</time></trkpt><trkpt lat="36.540475" lon="-4.66808"><ele>38.0</ele><time>2026-04-25T11:27:29.065Z</time></trkpt><trkpt lat="36.5404717" lon="-4.6684617"><ele>40.5</ele><time>2026-04-25T11:27:30.062Z</time></trkpt><trkpt lat="36.54047" lon="-4.668845"><ele>43.0</ele><time>2026-04-25T11:27:31.063Z</time></trkpt><trkpt lat="36.540465" lon="-4.6692283"><ele>43.5</ele><time>2026-04-25T11:27:32.067Z</time></trkpt><trkpt lat="36.54046" lon="-4.66961"><ele>44.0</ele><time>2026-04-25T11:27:33.066Z</time></trkpt><trkpt lat="36.5404533" lon="-4.6699917"><ele>41.0</ele><time>2026-04-25T11:27:34.063Z</time></trkpt><trkpt lat="36.540445" lon="-4.6703717"><ele>38.0</ele><time>2026-04-25T11:27:35.063Z</time></trkpt><trkpt lat="36.540435" lon="-4.670755"><ele>43.5</ele><time>2026-04-25T11:27:36.062Z</time></trkpt><trkpt lat="36.5404167" lon="-4.6711383"><ele>49.0</ele><time>2026-04-25T11:27:37.06Z</time></trkpt><trkpt lat="36.5403933" lon="-4.6715167"><ele>48.5</ele><time>2026-04-25T11:27:38.062Z</time></trkpt><trkpt lat="36.5403633" lon="-4.671895"><ele>48.0</ele><time>2026-04-25T11:27:39.067Z</time></trkpt><trkpt lat="36.5403267" lon="-4.6722733"><ele>53.5</ele><time>2026-04-25T11:27:40.06Z</time></trkpt><trkpt lat="36.5402833" lon="-4.6726467"><ele>59.0</ele><time>2026-04-25T11:27:41.061Z</time></trkpt><trkpt lat="36.54023" lon="-4.6730117"><ele>60.0</ele><time>2026-04-25T11:27:42.067Z</time></trkpt><trkpt lat="36.5401683" lon="-4.6733733"><ele>61.0</ele><time>2026-04-25T11:27:43.061Z</time></trkpt><trkpt lat="36.5400967" lon="-4.6737283"><ele>66.5</ele><time>2026-04-25T11:27:44.061Z</time></trkpt><trkpt lat="36.5400167" lon="-4.6740783"><ele>72.0</ele><time>2026-04-25T11:27:45.058Z</time></trkpt><trkpt lat="36.539925" lon="-4.6744267"><ele>69.5</ele><time>2026-04-25T11:27:46.061Z</time></trkpt><trkpt lat="36.5398283" lon="-4.67477"><ele>67.0</ele><time>2026-04-25T11:27:47.061Z</time></trkpt><trkpt lat="36.539725" lon="-4.675115"><ele>67.0</ele><time>2026-04-25T11:27:48.065Z</time></trkpt><trkpt lat="36.5396117" lon="-4.675455"><ele>67.0</ele><time>2026-04-25T11:27:49.062Z</time></trkpt><trkpt lat="36.5394883" lon="-4.6757917"><ele>72.0</ele><time>2026-04-25T11:27:50.063Z</time></trkpt><trkpt lat="36.5393567" lon="-4.67612"><ele>77.0</ele><time>2026-04-25T11:27:51.065Z</time></trkpt><trkpt lat="36.5392133" lon="-4.676445"><ele>77.0</ele><time>2026-04-25T11:27:52.063Z</time></trkpt><trkpt lat="36.53906" lon="-4.67676"><ele>77.0</ele><time>2026-04-25T11:27:53.061Z</time></trkpt><trkpt lat="36.5388967" lon="-4.6770683"><ele>78.5</ele><time>2026-04-25T11:27:54.066Z</time></trkpt><trkpt lat="36.5387267" lon="-4.6773717"><ele>80.0</ele><time>2026-04-25T11:27:55.061Z</time></trkpt><trkpt lat="36.5385483" lon="-4.6776717"><ele>82.5</ele><time>2026-04-25T11:27:56.065Z</time></trkpt><trkpt lat="36.5383583" lon="-4.6779633"><ele>85.0</ele><time>2026-04-25T11:27:57.061Z</time></trkpt><trkpt lat="36.53816" lon="-4.6782483"><ele>85.0</ele><time>2026-04-25T11:27:58.062Z</time></trkpt><trkpt lat="36.5379567" lon="-4.67853"><ele>85.0</ele><time>2026-04-25T11:27:59.06Z</time></trkpt><trkpt lat="36.537745" lon="-4.678805"><ele>81.5</ele><time>2026-04-25T11:28:00.061Z</time></trkpt><trkpt lat="36.537525" lon="-4.67907"><ele>78.0</ele><time>2026-04-25T11:28:01.061Z</time></trkpt><trkpt lat="36.5372967" lon="-4.6793283"><ele>76.5</ele><time>2026-04-25T11:28:02.064Z</time></trkpt><trkpt lat="36.5370617" lon="-4.6795783"><ele>75.0</ele><time>2026-04-25T11:28:03.06Z</time></trkpt><trkpt lat="36.53682" lon="-4.679815"><ele>75.0</ele><time>2026-04-25T11:28:04.062Z</time></trkpt><trkpt lat="36.5365717" lon="-4.6800417"><ele>75.0</ele><time>2026-04-25T11:28:05.063Z</time></trkpt><trkpt lat="36.536315" lon="-4.68026"><ele>69.5</ele><time>2026-04-25T11:28:06.062Z</time></trkpt><trkpt lat="36.5360517" lon="-4.6804667"><ele>64.0</ele><time>2026-04-25T11:28:07.061Z</time></trkpt><trkpt lat="36.5357833" lon="-4.6806633"><ele>64.0</ele><time>2026-04-25T11:28:08.065Z</time></trkpt><trkpt lat="36.53551" lon="-4.68085"><ele>64.0</ele><time>2026-04-25T11:28:09.067Z</time></trkpt><trkpt lat="36.53523" lon="-4.6810267"><ele>62.5</ele><time>2026-04-25T11:28:10.057Z</time></trkpt><trkpt lat="36.534945" lon="-4.68119"><ele>61.0</ele><time>2026-04-25T11:28:11.063Z</time></trkpt><trkpt lat="36.5346533" lon="-4.6813417"><ele>65.0</ele><time>2026-04-25T11:28:12.063Z</time></trkpt><trkpt lat="36.53436" lon="-4.6814833"><ele>69.0</ele><time>2026-04-25T11:28:13.063Z</time></trkpt><trkpt lat="36.534065" lon="-4.6816167"><ele>69.0</ele><time>2026-04-25T11:28:14.064Z</time></trkpt><trkpt lat="36.53377" lon="-4.6817417"><ele>69.0</ele><time>2026-04-25T11:28:15.066Z</time></trkpt><trkpt lat="36.5334717" lon="-4.6818617"><ele>67.5</ele><time>2026-04-25T11:28:16.06Z</time></trkpt><trkpt lat="36.5331717" lon="-4.6819733"><ele>66.0</ele><time>2026-04-25T11:28:17.061Z</time></trkpt><trkpt lat="36.53287" lon="-4.68208"><ele>71.5</ele><time>2026-04-25T11:28:18.061Z</time></trkpt><trkpt lat="36.5325683" lon="-4.6821833"><ele>77.0</ele><time>2026-04-25T11:28:19.059Z</time></trkpt><trkpt lat="36.5322683" lon="-4.6822833"><ele>78.5</ele><time>2026-04-25T11:28:20.063Z</time></trkpt><trkpt lat="36.5319683" lon="-4.6823833"><ele>80.0</ele><time>2026-04-25T11:28:21.064Z</time></trkpt><trkpt lat="36.5316667" lon="-4.6824783"><ele>80.0</ele><time>2026-04-25T11:28:22.063Z</time></trkpt><trkpt lat="36.5313667" lon="-4.6825717"><ele>80.0</ele><time>2026-04-25T11:28:23.064Z</time></trkpt><trkpt lat="36.5310683" lon="-4.6826667"><ele>79.5</ele><time>2026-04-25T11:28:24.06Z</time></trkpt><trkpt lat="36.5307717" lon="-4.6827617"><ele>79.0</ele><time>2026-04-25T11:28:25.062Z</time></trkpt><trkpt lat="36.5304767" lon="-4.6828567"><ele>84.0</ele><time>2026-04-25T11:28:26.065Z</time></trkpt><trkpt lat="36.5301817" lon="-4.6829517"><ele>89.0</ele><time>2026-04-25T11:28:27.057Z</time></trkpt><trkpt lat="36.5298867" lon="-4.683045"><ele>89.0</ele><time>2026-04-25T11:28:28.059Z</time></trkpt><trkpt lat="36.5295917" lon="-4.6831367"><ele>89.0</ele><time>2026-04-25T11:28:29.063Z</time></trkpt><trkpt lat="36.529295" lon="-4.6832317"><ele>85.0</ele><time>2026-04-25T11:28:30.062Z</time></trkpt><trkpt lat="36.5290017" lon="-4.6833267"><ele>81.0</ele><time>2026-04-25T11:28:31.059Z</time></trkpt><trkpt lat="36.5287083" lon="-4.68342"><ele>78.0</ele><time>2026-04-25T11:28:32.061Z</time></trkpt><trkpt lat="36.528415" lon="-4.68351"><ele>75.0</ele><time>2026-04-25T11:28:33.064Z</time></trkpt><trkpt lat="36.5281233" lon="-4.6835967"><ele>71.0</ele><time>2026-04-25T11:28:34.059Z</time></trkpt><trkpt lat="36.5278317" lon="-4.683685"><ele>67.0</ele><time>2026-04-25T11:28:35.063Z</time></trkpt><trkpt lat="36.5275417" lon="-4.6837733"><ele>67.0</ele><time>2026-04-25T11:28:36.058Z</time></trkpt><trkpt lat="36.527255" lon="-4.683865"><ele>67.0</ele><time>2026-04-25T11:28:37.062Z</time></trkpt><trkpt lat="36.5269717" lon="-4.683955"><ele>67.5</ele><time>2026-04-25T11:28:38.06Z</time></trkpt><trkpt lat="36.5266883" lon="-4.684045"><ele>68.0</ele><time>2026-04-25T11:28:39.063Z</time></trkpt><trkpt lat="36.5264083" lon="-4.6841367"><ele>69.5</ele><time>2026-04-25T11:28:40.063Z</time></trkpt><trkpt lat="36.526125" lon="-4.6842317"><ele>71.0</ele><time>2026-04-25T11:28:41.061Z</time></trkpt><trkpt lat="36.5258383" lon="-4.68432"><ele>71.0</ele><time>2026-04-25T11:28:42.064Z</time></trkpt><trkpt lat="36.5255533" lon="-4.6844117"><ele>71.0</ele><time>2026-04-25T11:28:43.065Z</time></trkpt><trkpt lat="36.5252667" lon="-4.684505"><ele>66.0</ele><time>2026-04-25T11:28:44.063Z</time></trkpt><trkpt lat="36.5249833" lon="-4.684605"><ele>61.0</ele><time>2026-04-25T11:28:45.06Z</time></trkpt><trkpt lat="36.5247017" lon="-4.68471"><ele>59.0</ele><time>2026-04-25T11:28:46.063Z</time></trkpt><trkpt lat="36.5244233" lon="-4.6848233"><ele>57.0</ele><time>2026-04-25T11:28:47.06Z</time></trkpt><trkpt lat="36.5241467" lon="-4.6849417"><ele>57.0</ele><time>2026-04-25T11:28:48.066Z</time></trkpt><trkpt lat="36.5238717" lon="-4.6850667"><ele>57.0</ele><time>2026-04-25T11:28:49.06Z</time></trkpt><trkpt lat="36.5236017" lon="-4.6852"><ele>52.0</ele><time>2026-04-25T11:28:50.061Z</time></trkpt><trkpt lat="36.5233317" lon="-4.6853417"><ele>47.0</ele><time>2026-04-25T11:28:51.059Z</time></trkpt><trkpt lat="36.5230617" lon="-4.68549"><ele>48.0</ele><time>2026-04-25T11:28:52.062Z</time></trkpt><trkpt lat="36.5227967" lon="-4.6856483"><ele>49.0</ele><time>2026-04-25T11:28:53.061Z</time></trkpt><trkpt lat="36.5225333" lon="-4.6858117"><ele>49.0</ele><time>2026-04-25T11:28:54.059Z</time></trkpt><trkpt lat="36.522275" lon="-4.6859833"><ele>49.0</ele><time>2026-04-25T11:28:55.061Z</time></trkpt><trkpt lat="36.52202" lon="-4.6861633"><ele>54.5</ele><time>2026-04-25T11:28:56.069Z</time></trkpt><trkpt lat="36.5217683" lon="-4.6863483"><ele>60.0</ele><time>2026-04-25T11:28:57.064Z</time></trkpt><trkpt lat="36.5215167" lon="-4.6865383"><ele>60.0</ele><time>2026-04-25T11:28:58.06Z</time></trkpt><trkpt lat="36.5212667" lon="-4.6867367"><ele>60.0</ele><time>2026-04-25T11:28:59.063Z</time></trkpt><trkpt lat="36.5210233" lon="-4.6869417"><ele>59.5</ele><time>2026-04-25T11:29:00.063Z</time></trkpt><trkpt lat="36.520785" lon="-4.6871533"><ele>59.0</ele><time>2026-04-25T11:29:01.057Z</time></trkpt><trkpt lat="36.5205483" lon="-4.68737"><ele>58.5</ele><time>2026-04-25T11:29:02.065Z</time></trkpt><trkpt lat="36.520315" lon="-4.687595"><ele>58.0</ele><time>2026-04-25T11:29:03.06Z</time></trkpt><trkpt lat="36.5200883" lon="-4.687825"><ele>61.5</ele><time>2026-04-25T11:29:04.067Z</time></trkpt><trkpt lat="36.5198633" lon="-4.6880583"><ele>65.0</ele><time>2026-04-25T11:29:05.069Z</time></trkpt><trkpt lat="36.519645" lon="-4.6883"><ele>62.0</ele><time>2026-04-25T11:29:06.062Z</time></trkpt><trkpt lat="36.51943" lon="-4.688545"><ele>59.0</ele><time>2026-04-25T11:29:07.061Z</time></trkpt><trkpt lat="36.51922" lon="-4.6887967"><ele>59.0</ele><time>2026-04-25T11:29:08.065Z</time></trkpt><trkpt lat="36.5190167" lon="-4.6890533"><ele>59.0</ele><time>2026-04-25T11:29:09.064Z</time></trkpt><trkpt lat="36.5188183" lon="-4.689315"><ele>54.5</ele><time>2026-04-25T11:29:10.064Z</time></trkpt><trkpt lat="36.518625" lon="-4.68958"><ele>50.0</ele><time>2026-04-25T11:29:11.066Z</time></trkpt><trkpt lat="36.5184367" lon="-4.6898483"><ele>50.0</ele><time>2026-04-25T11:29:12.068Z</time></trkpt><trkpt lat="36.5182533" lon="-4.6901217"><ele>50.0</ele><time>2026-04-25T11:29:13.064Z</time></trkpt><trkpt lat="36.518075" lon="-4.6904017"><ele>46.5</ele><time>2026-04-25T11:29:14.066Z</time></trkpt><trkpt lat="36.5179" lon="-4.6906867"><ele>43.0</ele><time>2026-04-25T11:29:15.068Z</time></trkpt><trkpt lat="36.51773" lon="-4.6909767"><ele>40.5</ele><time>2026-04-25T11:29:16.059Z</time></trkpt><trkpt lat="36.5175633" lon="-4.6912733"><ele>38.0</ele><time>2026-04-25T11:29:17.061Z</time></trkpt><trkpt lat="36.5174017" lon="-4.6915767"><ele>38.0</ele><time>2026-04-25T11:29:18.062Z</time></trkpt><trkpt lat="36.5172467" lon="-4.6918883"><ele>38.0</ele><time>2026-04-25T11:29:19.066Z</time></trkpt><trkpt lat="36.5170967" lon="-4.692205"><ele>36.5</ele><time>2026-04-25T11:29:20.066Z</time></trkpt><trkpt lat="36.5169517" lon="-4.692525"><ele>35.0</ele><time>2026-04-25T11:29:21.061Z</time></trkpt><trkpt lat="36.5168117" lon="-4.6928467"><ele>35.0</ele><time>2026-04-25T11:29:22.061Z</time></trkpt><trkpt lat="36.5166767" lon="-4.693175"><ele>35.0</ele><time>2026-04-25T11:29:23.064Z</time></trkpt><trkpt lat="36.5165467" lon="-4.6935067"><ele>35.5</ele><time>2026-04-25T11:29:24.06Z</time></trkpt><trkpt lat="36.5164233" lon="-4.6938433"><ele>36.0</ele><time>2026-04-25T11:29:25.068Z</time></trkpt><trkpt lat="36.5163067" lon="-4.694185"><ele>35.0</ele><time>2026-04-25T11:29:26.065Z</time></trkpt><trkpt lat="36.5161983" lon="-4.6945283"><ele>34.0</ele><time>2026-04-25T11:29:27.065Z</time></trkpt><trkpt lat="36.5160933" lon="-4.694875"><ele>34.0</ele><time>2026-04-25T11:29:28.061Z</time></trkpt><trkpt lat="36.5159967" lon="-4.6952233"><ele>34.0</ele><time>2026-04-25T11:29:29.064Z</time></trkpt><trkpt lat="36.5159067" lon="-4.6955717"><ele>34.0</ele><time>2026-04-25T11:29:30.064Z</time></trkpt><trkpt lat="36.51582" lon="-4.6959183"><ele>34.0</ele><time>2026-04-25T11:29:31.063Z</time></trkpt><trkpt lat="36.5157383" lon="-4.6962617"><ele>34.0</ele><time>2026-04-25T11:29:32.066Z</time></trkpt><trkpt lat="36.5156583" lon="-4.6966033"><ele>34.0</ele><time>2026-04-25T11:29:33.064Z</time></trkpt><trkpt lat="36.5155833" lon="-4.6969417"><ele>36.5</ele><time>2026-04-25T11:29:34.062Z</time></trkpt><trkpt lat="36.51551" lon="-4.6972817"><ele>39.0</ele><time>2026-04-25T11:29:35.064Z</time></trkpt><trkpt lat="36.5154417" lon="-4.697625"><ele>40.5</ele><time>2026-04-25T11:29:36.067Z</time></trkpt><trkpt lat="36.5153717" lon="-4.6979667"><ele>42.0</ele><time>2026-04-25T11:29:37.062Z</time></trkpt><trkpt lat="36.5152983" lon="-4.6983083"><ele>45.0</ele><time>2026-04-25T11:29:38.071Z</time></trkpt><trkpt lat="36.5152183" lon="-4.69865"><ele>48.0</ele><time>2026-04-25T11:29:39.068Z</time></trkpt><trkpt lat="36.5151367" lon="-4.69899"><ele>48.0</ele><time>2026-04-25T11:29:40.061Z</time></trkpt><trkpt lat="36.5150517" lon="-4.6993317"><ele>48.0</ele><time>2026-04-25T11:29:41.064Z</time></trkpt><trkpt lat="36.51496" lon="-4.6996683"><ele>46.0</ele><time>2026-04-25T11:29:42.066Z</time></trkpt><trkpt lat="36.5148617" lon="-4.7000033"><ele>44.0</ele><time>2026-04-25T11:29:43.07Z</time></trkpt><trkpt lat="36.514755" lon="-4.7003333"><ele>42.5</ele><time>2026-04-25T11:29:44.061Z</time></trkpt><trkpt lat="36.5146417" lon="-4.70066"><ele>41.0</ele><time>2026-04-25T11:29:45.065Z</time></trkpt><trkpt lat="36.51452" lon="-4.70098"><ele>37.5</ele><time>2026-04-25T11:29:46.063Z</time></trkpt><trkpt lat="36.51439" lon="-4.7012933"><ele>34.0</ele><time>2026-04-25T11:29:47.064Z</time></trkpt><trkpt lat="36.514255" lon="-4.7016"><ele>34.0</ele><time>2026-04-25T11:29:48.068Z</time></trkpt><trkpt lat="36.5141133" lon="-4.7019017"><ele>34.0</ele><time>2026-04-25T11:29:49.062Z</time></trkpt><trkpt lat="36.513965" lon="-4.7021917"><ele>31.0</ele><time>2026-04-25T11:29:50.066Z</time></trkpt><trkpt lat="36.5138117" lon="-4.70247"><ele>28.0</ele><time>2026-04-25T11:29:51.062Z</time></trkpt><trkpt lat="36.5136533" lon="-4.7027367"><ele>34.5</ele><time>2026-04-25T11:29:52.064Z</time></trkpt><trkpt lat="36.5134933" lon="-4.7029917"><ele>41.0</ele><time>2026-04-25T11:29:53.062Z</time></trkpt><trkpt lat="36.5133283" lon="-4.70324"><ele>41.0</ele><time>2026-04-25T11:29:54.065Z</time></trkpt><trkpt lat="36.5131583" lon="-4.70348"><ele>41.0</ele><time>2026-04-25T11:29:55.067Z</time></trkpt><trkpt lat="36.512985" lon="-4.7037183"><ele>45.0</ele><time>2026-04-25T11:29:56.068Z</time></trkpt><trkpt lat="36.512805" lon="-4.703955"><ele>49.0</ele><time>2026-04-25T11:29:57.065Z</time></trkpt><trkpt lat="36.51262" lon="-4.7041917"><ele>51.0</ele><time>2026-04-25T11:29:58.061Z</time></trkpt><trkpt lat="36.5124283" lon="-4.7044167"><ele>53.0</ele><time>2026-04-25T11:29:59.061Z</time></trkpt><trkpt lat="36.5122267" lon="-4.7046317"><ele>54.5</ele><time>2026-04-25T11:30:00.063Z</time></trkpt><trkpt lat="36.5120133" lon="-4.7048333"><ele>56.0</ele><time>2026-04-25T11:30:01.063Z</time></trkpt><trkpt lat="36.5117967" lon="-4.705035"><ele>56.0</ele><time>2026-04-25T11:30:02.067Z</time></trkpt><trkpt lat="36.511575" lon="-4.7052367"><ele>56.0</ele><time>2026-04-25T11:30:03.062Z</time></trkpt><trkpt lat="36.5113467" lon="-4.705435"><ele>61.5</ele><time>2026-04-25T11:30:04.063Z</time></trkpt><trkpt lat="36.51111" lon="-4.7056233"><ele>67.0</ele><time>2026-04-25T11:30:05.06Z</time></trkpt><trkpt lat="36.510865" lon="-4.7058017"><ele>67.0</ele><time>2026-04-25T11:30:06.062Z</time></trkpt><trkpt lat="36.5106183" lon="-4.7059767"><ele>67.0</ele><time>2026-04-25T11:30:07.062Z</time></trkpt><trkpt lat="36.5103717" lon="-4.70615"><ele>71.5</ele><time>2026-04-25T11:30:08.065Z</time></trkpt><trkpt lat="36.5101283" lon="-4.7063233"><ele>76.0</ele><time>2026-04-25T11:30:09.063Z</time></trkpt><trkpt lat="36.5098883" lon="-4.7064983"><ele>76.0</ele><time>2026-04-25T11:30:10.063Z</time></trkpt><trkpt lat="36.5096517" lon="-4.7066717"><ele>76.0</ele><time>2026-04-25T11:30:11.061Z</time></trkpt><trkpt lat="36.509415" lon="-4.7068467"><ele>80.5</ele><time>2026-04-25T11:30:12.062Z</time></trkpt><trkpt lat="36.5091867" lon="-4.70703"><ele>85.0</ele><time>2026-04-25T11:30:13.069Z</time></trkpt><trkpt lat="36.50896" lon="-4.7072167"><ele>83.5</ele><time>2026-04-25T11:30:14.064Z</time></trkpt><trkpt lat="36.5087367" lon="-4.7074067"><ele>82.0</ele><time>2026-04-25T11:30:15.064Z</time></trkpt><trkpt lat="36.5085117" lon="-4.7075967"><ele>87.0</ele><time>2026-04-25T11:30:16.061Z</time></trkpt><trkpt lat="36.5082867" lon="-4.70779"><ele>92.0</ele><time>2026-04-25T11:30:17.065Z</time></trkpt><trkpt lat="36.5080667" lon="-4.7079983"><ele>87.0</ele><time>2026-04-25T11:30:18.062Z</time></trkpt><trkpt lat="36.507855" lon="-4.70822"><ele>82.0</ele><time>2026-04-25T11:30:19.065Z</time></trkpt><trkpt lat="36.5076517" lon="-4.708455"><ele>88.5</ele><time>2026-04-25T11:30:20.068Z</time></trkpt><trkpt lat="36.507455" lon="-4.7086983"><ele>95.0</ele><time>2026-04-25T11:30:21.059Z</time></trkpt><trkpt lat="36.507265" lon="-4.7089483"><ele>95.0</ele><time>2026-04-25T11:30:22.064Z</time></trkpt><trkpt lat="36.5070833" lon="-4.709205"><ele>95.0</ele><time>2026-04-25T11:30:23.064Z</time></trkpt><trkpt lat="36.5069133" lon="-4.7094617"><ele>96.5</ele><time>2026-04-25T11:30:24.067Z</time></trkpt><trkpt lat="36.50676" lon="-4.7097167"><ele>98.0</ele><time>2026-04-25T11:30:25.06Z</time></trkpt><trkpt lat="36.5066167" lon="-4.7099717"><ele>98.0</ele><time>2026-04-25T11:30:26.059Z</time></trkpt><trkpt lat="36.5064817" lon="-4.7102283"><ele>98.0</ele><time>2026-04-25T11:30:27.061Z</time></trkpt><trkpt lat="36.5063533" lon="-4.7104917"><ele>99.5</ele><time>2026-04-25T11:30:28.059Z</time></trkpt><trkpt lat="36.5062317" lon="-4.7107633"><ele>101.0</ele><time>2026-04-25T11:30:29.061Z</time></trkpt><trkpt lat="36.5061167" lon="-4.711045"><ele>100.5</ele><time>2026-04-25T11:30:30.062Z</time></trkpt><trkpt lat="36.5060117" lon="-4.7113383"><ele>100.0</ele><time>2026-04-25T11:30:31.059Z</time></trkpt><trkpt lat="36.5059183" lon="-4.7116383"><ele>99.0</ele><time>2026-04-25T11:30:32.059Z</time></trkpt><trkpt lat="36.5058283" lon="-4.7119417"><ele>98.0</ele><time>2026-04-25T11:30:33.061Z</time></trkpt><trkpt lat="36.50575" lon="-4.7122567"><ele>98.0</ele><time>2026-04-25T11:30:34.062Z</time></trkpt><trkpt lat="36.505675" lon="-4.71257"><ele>98.0</ele><time>2026-04-25T11:30:35.065Z</time></trkpt><trkpt lat="36.50561" lon="-4.7128867"><ele>96.0</ele><time>2026-04-25T11:30:36.062Z</time></trkpt><trkpt lat="36.5055567" lon="-4.7132033"><ele>94.0</ele><time>2026-04-25T11:30:37.06Z</time></trkpt><trkpt lat="36.5055117" lon="-4.7135167"><ele>97.0</ele><time>2026-04-25T11:30:38.064Z</time></trkpt><trkpt lat="36.5054767" lon="-4.7138267"><ele>100.0</ele><time>2026-04-25T11:30:39.062Z</time></trkpt><trkpt lat="36.5054483" lon="-4.71413"><ele>101.5</ele><time>2026-04-25T11:30:40.06Z</time></trkpt><trkpt lat="36.5054267" lon="-4.71442"><ele>103.0</ele><time>2026-04-25T11:30:41.058Z</time></trkpt><trkpt lat="36.5054117" lon="-4.7146933"><ele>103.0</ele><time>2026-04-25T11:30:42.058Z</time></trkpt><trkpt lat="36.5054033" lon="-4.714945"><ele>103.0</ele><time>2026-04-25T11:30:43.061Z</time></trkpt><trkpt lat="36.5054033" lon="-4.71518"><ele>103.0</ele><time>2026-04-25T11:30:44.06Z</time></trkpt><trkpt lat="36.5054067" lon="-4.7154"><ele>105.66666666666667</ele><time>2026-04-25T11:30:45.064Z</time></trkpt><trkpt lat="36.5054133" lon="-4.7156117"><ele>108.33333333333334</ele><time>2026-04-25T11:30:46.062Z</time></trkpt><trkpt lat="36.5054267" lon="-4.7158167"><ele>111.0</ele><time>2026-04-25T11:30:47.062Z</time></trkpt><trkpt lat="36.50545" lon="-4.7160133"><ele>111.75</ele><time>2026-04-25T11:30:48.064Z</time></trkpt><trkpt lat="36.5054767" lon="-4.7162"><ele>112.5</ele><time>2026-04-25T11:30:49.06Z</time></trkpt><trkpt lat="36.5055067" lon="-4.7163683"><ele>113.25</ele><time>2026-04-25T11:30:50.065Z</time></trkpt><trkpt lat="36.5055333" lon="-4.7165183"><ele>114.0</ele><time>2026-04-25T11:30:51.063Z</time></trkpt><trkpt lat="36.50556" lon="-4.7166483"><ele>114.0</ele><time>2026-04-25T11:30:52.066Z</time></trkpt><trkpt lat="36.505585" lon="-4.7167633"><ele>114.0</ele><time>2026-04-25T11:30:53.063Z</time></trkpt><trkpt lat="36.5056083" lon="-4.7168717"><ele>114.0</ele><time>2026-04-25T11:30:54.06Z</time></trkpt><trkpt lat="36.5056267" lon="-4.7169717"><ele>114.0</ele><time>2026-04-25T11:30:55.06Z</time></trkpt><trkpt lat="36.50564" lon="-4.7170617"><ele>114.0</ele><time>2026-04-25T11:30:56.062Z</time></trkpt><trkpt lat="36.5056617" lon="-4.717195"><ele>115.6</ele><time>2026-04-25T11:30:58.059Z</time></trkpt><trkpt lat="36.5056817" lon="-4.71729"><ele>117.2</ele><time>2026-04-25T11:31:00.064Z</time></trkpt><trkpt lat="36.5057283" lon="-4.7174033"><ele>118.79999999999998</ele><time>2026-04-25T11:31:20.061Z</time></trkpt><trkpt lat="36.50577" lon="-4.71753"><ele>120.39999999999999</ele><time>2026-04-25T11:32:03.059Z</time></trkpt><trkpt lat="36.5058" lon="-4.7176417"><ele>122.0</ele><time>2026-04-25T11:32:43.059Z</time></trkpt><trkpt lat="36.5058333" lon="-4.7177817"><ele>122.0</ele><time>2026-04-25T11:33:08.063Z</time></trkpt><trkpt lat="36.5058517" lon="-4.7179117"><ele>121.99999999999999</ele><time>2026-04-25T11:33:53.063Z</time></trkpt><trkpt lat="36.5058933" lon="-4.7180483"><ele>121.99999999999999</ele><time>2026-04-25T11:34:04.066Z</time></trkpt><trkpt lat="36.5059267" lon="-4.7181533"><ele>122.0</ele><time>2026-04-25T11:34:06.06Z</time></trkpt><trkpt lat="36.505975" lon="-4.7182517"><ele>122.0</ele><time>2026-04-25T11:34:08.064Z</time></trkpt><trkpt lat="36.506065" lon="-4.7183417"><ele>122.0</ele><time>2026-04-25T11:34:10.061Z</time></trkpt><trkpt lat="36.50617" lon="-4.7184267"><ele>121.99999999999999</ele><time>2026-04-25T11:34:12.063Z</time></trkpt><trkpt lat="36.5062133" lon="-4.7184917"><ele>121.99999999999999</ele><time>2026-04-25T11:34:13.059Z</time></trkpt><trkpt lat="36.5062617" lon="-4.7186017"><ele>122.0</ele><time>2026-04-25T11:34:15.064Z</time></trkpt><trkpt lat="36.5062533" lon="-4.7187333"><ele>122.0</ele><time>2026-04-25T11:34:59.063Z</time></trkpt><trkpt lat="36.5062467" lon="-4.718845"><ele>122.0</ele><time>2026-04-25T11:35:01.06Z</time></trkpt><trkpt lat="36.5062417" lon="-4.7189267"><ele>121.99999999999999</ele><time>2026-04-25T11:35:02.061Z</time></trkpt><trkpt lat="36.50624" lon="-4.719035"><ele>121.99999999999999</ele><time>2026-04-25T11:35:03.061Z</time></trkpt><trkpt lat="36.5062483" lon="-4.719155"><ele>122.0</ele><time>2026-04-25T11:35:04.066Z</time></trkpt><trkpt lat="36.5062683" lon="-4.71929"><ele>122.0</ele><time>2026-04-25T11:35:05.061Z</time></trkpt><trkpt lat="36.5062967" lon="-4.7194383"><ele>124.5</ele><time>2026-04-25T11:35:06.059Z</time></trkpt><trkpt lat="36.5063317" lon="-4.7196"><ele>127.0</ele><time>2026-04-25T11:35:07.062Z</time></trkpt><trkpt lat="36.50637" lon="-4.7197717"><ele>129.5</ele><time>2026-04-25T11:35:08.072Z</time></trkpt><trkpt lat="36.5064133" lon="-4.7199517"><ele>132.0</ele><time>2026-04-25T11:35:09.061Z</time></trkpt><trkpt lat="36.5064617" lon="-4.7201317"><ele>131.0</ele><time>2026-04-25T11:35:10.062Z</time></trkpt><trkpt lat="36.50651" lon="-4.7203167"><ele>130.0</ele><time>2026-04-25T11:35:11.06Z</time></trkpt><trkpt lat="36.506555" lon="-4.7205067"><ele>129.0</ele><time>2026-04-25T11:35:12.062Z</time></trkpt><trkpt lat="36.5065967" lon="-4.720705"><ele>129.0</ele><time>2026-04-25T11:35:13.061Z</time></trkpt><trkpt lat="36.50664" lon="-4.7209083"><ele>129.0</ele><time>2026-04-25T11:35:14.062Z</time></trkpt><trkpt lat="36.506685" lon="-4.7211233"><ele>129.0</ele><time>2026-04-25T11:35:15.063Z</time></trkpt><trkpt lat="36.506725" lon="-4.7213483"><ele>128.66666666666666</ele><time>2026-04-25T11:35:16.061Z</time></trkpt><trkpt lat="36.5067617" lon="-4.721585"><ele>128.33333333333331</ele><time>2026-04-25T11:35:17.062Z</time></trkpt><trkpt lat="36.506795" lon="-4.72183"><ele>128.0</ele><time>2026-04-25T11:35:18.058Z</time></trkpt><trkpt lat="36.5068233" lon="-4.72208"><ele>128.0</ele><time>2026-04-25T11:35:19.058Z</time></trkpt><trkpt lat="36.5068467" lon="-4.722335"><ele>128.0</ele><time>2026-04-25T11:35:20.064Z</time></trkpt><trkpt lat="36.5068667" lon="-4.7225933"><ele>128.0</ele><time>2026-04-25T11:35:21.058Z</time></trkpt><trkpt lat="36.506885" lon="-4.72285"><ele>128.0</ele><time>2026-04-25T11:35:22.06Z</time></trkpt><trkpt lat="36.5068967" lon="-4.723105"><ele>128.0</ele><time>2026-04-25T11:35:23.059Z</time></trkpt><trkpt lat="36.5069017" lon="-4.7233617"><ele>128.0</ele><time>2026-04-25T11:35:24.061Z</time></trkpt><trkpt lat="36.5069033" lon="-4.7236183"><ele>130.0</ele><time>2026-04-25T11:35:25.059Z</time></trkpt><trkpt lat="36.5069" lon="-4.7238733"><ele>132.0</ele><time>2026-04-25T11:35:26.062Z</time></trkpt><trkpt lat="36.5068917" lon="-4.7241267"><ele>134.0</ele><time>2026-04-25T11:35:27.064Z</time></trkpt><trkpt lat="36.50688" lon="-4.7243817"><ele>135.33333333333331</ele><time>2026-04-25T11:35:28.062Z</time></trkpt><trkpt lat="36.50686" lon="-4.7246467"><ele>136.66666666666666</ele><time>2026-04-25T11:35:29.06Z</time></trkpt><trkpt lat="36.5068383" lon="-4.7249183"><ele>138.0</ele><time>2026-04-25T11:35:30.067Z</time></trkpt><trkpt lat="36.506815" lon="-4.7251883"><ele>140.33333333333334</ele><time>2026-04-25T11:35:31.067Z</time></trkpt><trkpt lat="36.506795" lon="-4.72546"><ele>142.66666666666669</ele><time>2026-04-25T11:35:32.065Z</time></trkpt><trkpt lat="36.5067733" lon="-4.7257333"><ele>145.0</ele><time>2026-04-25T11:35:33.065Z</time></trkpt><trkpt lat="36.5067617" lon="-4.7260133"><ele>146.5</ele><time>2026-04-25T11:35:34.069Z</time></trkpt><trkpt lat="36.5067467" lon="-4.7262983"><ele>148.0</ele><time>2026-04-25T11:35:35.066Z</time></trkpt><trkpt lat="36.504865" lon="-4.7311817"><ele>133.5</ele><time>2026-04-25T11:35:53.064Z</time></trkpt><trkpt lat="36.5047567" lon="-4.7314817"><ele>119.0</ele><time>2026-04-25T11:35:54.065Z</time></trkpt><trkpt lat="36.5046433" lon="-4.7318033"><ele>117.5</ele><time>2026-04-25T11:35:55.065Z</time></trkpt><trkpt lat="36.5045267" lon="-4.7321233"><ele>116.0</ele><time>2026-04-25T11:35:56.063Z</time></trkpt><trkpt lat="36.5044167" lon="-4.7324583"><ele>115.5</ele><time>2026-04-25T11:35:57.065Z</time></trkpt><trkpt lat="36.5043183" lon="-4.7328033"><ele>115.0</ele><time>2026-04-25T11:35:58.066Z</time></trkpt><trkpt lat="36.5042317" lon="-4.73316"><ele>115.0</ele><time>2026-04-25T11:35:59.06Z</time></trkpt><trkpt lat="36.5041583" lon="-4.7335233"><ele>115.0</ele><time>2026-04-25T11:36:00.061Z</time></trkpt><trkpt lat="36.504095" lon="-4.7338967"><ele>118.5</ele><time>2026-04-25T11:36:01.061Z</time></trkpt><trkpt lat="36.5040467" lon="-4.7342783"><ele>122.0</ele><time>2026-04-25T11:36:02.065Z</time></trkpt><trkpt lat="36.504015" lon="-4.734665"><ele>123.0</ele><time>2026-04-25T11:36:03.061Z</time></trkpt><trkpt lat="36.5039983" lon="-4.7350533"><ele>124.0</ele><time>2026-04-25T11:36:04.063Z</time></trkpt><trkpt lat="36.5039883" lon="-4.7354433"><ele>124.0</ele><time>2026-04-25T11:36:05.062Z</time></trkpt><trkpt lat="36.503995" lon="-4.7358333"><ele>124.0</ele><time>2026-04-25T11:36:06.061Z</time></trkpt><trkpt lat="36.5040167" lon="-4.736225"><ele>123.0</ele><time>2026-04-25T11:36:07.061Z</time></trkpt><trkpt lat="36.5040517" lon="-4.7366117"><ele>122.0</ele><time>2026-04-25T11:36:08.065Z</time></trkpt><trkpt lat="36.5040967" lon="-4.737"><ele>120.5</ele><time>2026-04-25T11:36:09.063Z</time></trkpt><trkpt lat="36.50416" lon="-4.7373883"><ele>119.0</ele><time>2026-04-25T11:36:10.061Z</time></trkpt><trkpt lat="36.5042367" lon="-4.7377717"><ele>112.5</ele><time>2026-04-25T11:36:11.064Z</time></trkpt><trkpt lat="36.5043267" lon="-4.7381533"><ele>106.0</ele><time>2026-04-25T11:36:12.06Z</time></trkpt><trkpt lat="36.5044233" lon="-4.7385333"><ele>105.0</ele><time>2026-04-25T11:36:13.061Z</time></trkpt><trkpt lat="36.5045283" lon="-4.7389117"><ele>104.0</ele><time>2026-04-25T11:36:14.062Z</time></trkpt><trkpt lat="36.5046417" lon="-4.7392883"><ele>103.5</ele><time>2026-04-25T11:36:15.06Z</time></trkpt><trkpt lat="36.5047633" lon="-4.7396617"><ele>103.0</ele><time>2026-04-25T11:36:16.059Z</time></trkpt><trkpt lat="36.50489" lon="-4.7400317"><ele>102.0</ele><time>2026-04-25T11:36:17.061Z</time></trkpt><trkpt lat="36.5050217" lon="-4.7403983"><ele>101.0</ele><time>2026-04-25T11:36:18.06Z</time></trkpt><trkpt lat="36.5051533" lon="-4.740765"><ele>95.5</ele><time>2026-04-25T11:36:19.066Z</time></trkpt><trkpt lat="36.5052783" lon="-4.7411333"><ele>90.0</ele><time>2026-04-25T11:36:20.062Z</time></trkpt><trkpt lat="36.5053967" lon="-4.7415033"><ele>90.5</ele><time>2026-04-25T11:36:21.063Z</time></trkpt><trkpt lat="36.5055133" lon="-4.741875"><ele>91.0</ele><time>2026-04-25T11:36:22.06Z</time></trkpt><trkpt lat="36.5056233" lon="-4.742245"><ele>91.0</ele><time>2026-04-25T11:36:23.06Z</time></trkpt><trkpt lat="36.50573" lon="-4.7426183"><ele>91.0</ele><time>2026-04-25T11:36:24.058Z</time></trkpt><trkpt lat="36.5058317" lon="-4.74299"><ele>89.5</ele><time>2026-04-25T11:36:25.061Z</time></trkpt><trkpt lat="36.5059267" lon="-4.7433617"><ele>88.0</ele><time>2026-04-25T11:36:26.059Z</time></trkpt><trkpt lat="36.5060117" lon="-4.7437367"><ele>88.0</ele><time>2026-04-25T11:36:27.067Z</time></trkpt><trkpt lat="36.5060917" lon="-4.74411"><ele>88.0</ele><time>2026-04-25T11:36:28.063Z</time></trkpt><trkpt lat="36.5061617" lon="-4.7444817"><ele>83.5</ele><time>2026-04-25T11:36:29.068Z</time></trkpt><trkpt lat="36.506225" lon="-4.744855"><ele>79.0</ele><time>2026-04-25T11:36:30.064Z</time></trkpt><trkpt lat="36.50628" lon="-4.7452267"><ele>79.0</ele><time>2026-04-25T11:36:31.063Z</time></trkpt><trkpt lat="36.5063267" lon="-4.7456033"><ele>79.0</ele><time>2026-04-25T11:36:32.063Z</time></trkpt><trkpt lat="36.5063633" lon="-4.7459833"><ele>83.5</ele><time>2026-04-25T11:36:33.071Z</time></trkpt><trkpt lat="36.5063967" lon="-4.7463633"><ele>88.0</ele><time>2026-04-25T11:36:34.061Z</time></trkpt><trkpt lat="36.5064267" lon="-4.746745"><ele>87.5</ele><time>2026-04-25T11:36:35.064Z</time></trkpt><trkpt lat="36.5064467" lon="-4.7471283"><ele>87.0</ele><time>2026-04-25T11:36:36.06Z</time></trkpt><trkpt lat="36.5064583" lon="-4.7475117"><ele>89.0</ele><time>2026-04-25T11:36:37.061Z</time></trkpt><trkpt lat="36.5064617" lon="-4.747895"><ele>91.0</ele><time>2026-04-25T11:36:38.061Z</time></trkpt><trkpt lat="36.5064583" lon="-4.7482767"><ele>92.5</ele><time>2026-04-25T11:36:39.064Z</time></trkpt><trkpt lat="36.5064483" lon="-4.7486567"><ele>94.0</ele><time>2026-04-25T11:36:40.057Z</time></trkpt><trkpt lat="36.5064333" lon="-4.7490383"><ele>89.0</ele><time>2026-04-25T11:36:41.065Z</time></trkpt><trkpt lat="36.5064133" lon="-4.7494167"><ele>84.0</ele><time>2026-04-25T11:36:42.063Z</time></trkpt><trkpt lat="36.5063933" lon="-4.7497967"><ele>84.0</ele><time>2026-04-25T11:36:43.063Z</time></trkpt><trkpt lat="36.5063733" lon="-4.7501767"><ele>84.0</ele><time>2026-04-25T11:36:44.065Z</time></trkpt><trkpt lat="36.5063467" lon="-4.7505583"><ele>80.0</ele><time>2026-04-25T11:36:45.065Z</time></trkpt><trkpt lat="36.5063183" lon="-4.7509383"><ele>76.0</ele><time>2026-04-25T11:36:46.062Z</time></trkpt><trkpt lat="36.5062933" lon="-4.751315"><ele>75.0</ele><time>2026-04-25T11:36:47.064Z</time></trkpt><trkpt lat="36.50627" lon="-4.75169"><ele>74.0</ele><time>2026-04-25T11:36:48.06Z</time></trkpt><trkpt lat="36.5062466" lon="-4.7520672"><ele>75.0</ele><time>2026-04-25T11:36:49.063Z</time></trkpt><trkpt lat="36.5062285" lon="-4.7524418"><ele>76.0</ele><time>2026-04-25T11:36:50.058Z</time></trkpt><trkpt lat="36.5062162" lon="-4.7528174"><ele>76.5</ele><time>2026-04-25T11:36:51.061Z</time></trkpt><trkpt lat="36.5062158" lon="-4.7531914"><ele>77.0</ele><time>2026-04-25T11:36:52.063Z</time></trkpt><trkpt lat="36.5062209" lon="-4.7535641"><ele>77.0</ele><time>2026-04-25T11:36:53.061Z</time></trkpt><trkpt lat="36.5062323" lon="-4.7539345"><ele>77.0</ele><time>2026-04-25T11:36:54.062Z</time></trkpt><trkpt lat="36.506255" lon="-4.7543044"><ele>84.5</ele><time>2026-04-25T11:36:55.061Z</time></trkpt><trkpt lat="36.5062919" lon="-4.754673"><ele>92.0</ele><time>2026-04-25T11:36:56.06Z</time></trkpt><trkpt lat="36.5063461" lon="-4.7550377"><ele>87.5</ele><time>2026-04-25T11:36:57.065Z</time></trkpt><trkpt lat="36.5064157" lon="-4.7553978"><ele>83.0</ele><time>2026-04-25T11:36:58.062Z</time></trkpt><trkpt lat="36.5064982" lon="-4.7557537"><ele>82.5</ele><time>2026-04-25T11:36:59.062Z</time></trkpt><trkpt lat="36.5065903" lon="-4.7561042"><ele>82.0</ele><time>2026-04-25T11:37:00.061Z</time></trkpt><trkpt lat="36.5066946" lon="-4.7564496"><ele>82.0</ele><time>2026-04-25T11:37:01.062Z</time></trkpt><trkpt lat="36.5068081" lon="-4.7567871"><ele>82.0</ele><time>2026-04-25T11:37:02.069Z</time></trkpt><trkpt lat="36.5069309" lon="-4.7571171"><ele>82.0</ele><time>2026-04-25T11:37:03.067Z</time></trkpt><trkpt lat="36.5070672" lon="-4.7574398"><ele>82.0</ele><time>2026-04-25T11:37:04.06Z</time></trkpt><trkpt lat="36.507218" lon="-4.7577531"><ele>82.0</ele><time>2026-04-25T11:37:05.068Z</time></trkpt><trkpt lat="36.5073793" lon="-4.7580571"><ele>82.0</ele><time>2026-04-25T11:37:06.061Z</time></trkpt><trkpt lat="36.5075454" lon="-4.7583577"><ele>78.5</ele><time>2026-04-25T11:37:07.066Z</time></trkpt><trkpt lat="36.5077139" lon="-4.7586538"><ele>75.0</ele><time>2026-04-25T11:37:08.063Z</time></trkpt><trkpt lat="36.5078824" lon="-4.7589475"><ele>79.5</ele><time>2026-04-25T11:37:09.062Z</time></trkpt><trkpt lat="36.5080518" lon="-4.75924"><ele>84.0</ele><time>2026-04-25T11:37:10.062Z</time></trkpt><trkpt lat="36.508223" lon="-4.7595343"><ele>85.0</ele><time>2026-04-25T11:37:11.063Z</time></trkpt><trkpt lat="36.5083958" lon="-4.7598293"><ele>86.0</ele><time>2026-04-25T11:37:12.061Z</time></trkpt><trkpt lat="36.5085681" lon="-4.7601272"><ele>86.5</ele><time>2026-04-25T11:37:13.06Z</time></trkpt><trkpt lat="36.5087393" lon="-4.7604311"><ele>87.0</ele><time>2026-04-25T11:37:14.065Z</time></trkpt><trkpt lat="36.508905" lon="-4.7607393"><ele>84.5</ele><time>2026-04-25T11:37:15.067Z</time></trkpt><trkpt lat="36.5090641" lon="-4.7610524"><ele>82.0</ele><time>2026-04-25T11:37:16.061Z</time></trkpt><trkpt lat="36.5092217" lon="-4.7613715"><ele>82.0</ele><time>2026-04-25T11:37:17.062Z</time></trkpt><trkpt lat="36.5093705" lon="-4.7616949"><ele>82.0</ele><time>2026-04-25T11:37:18.06Z</time></trkpt><trkpt lat="36.5095098" lon="-4.7620275"><ele>82.0</ele><time>2026-04-25T11:37:19.06Z</time></trkpt><trkpt lat="36.5096386" lon="-4.7623649"><ele>82.0</ele><time>2026-04-25T11:37:20.059Z</time></trkpt><trkpt lat="36.5097575" lon="-4.7627115"><ele>82.0</ele><time>2026-04-25T11:37:21.064Z</time></trkpt><trkpt lat="36.5098636" lon="-4.7630639"><ele>82.0</ele><time>2026-04-25T11:37:22.06Z</time></trkpt><trkpt lat="36.5099587" lon="-4.7634183"><ele>77.5</ele><time>2026-04-25T11:37:23.059Z</time></trkpt><trkpt lat="36.5100373" lon="-4.7637709"><ele>73.0</ele><time>2026-04-25T11:37:24.062Z</time></trkpt><trkpt lat="36.510099" lon="-4.7641181"><ele>69.0</ele><time>2026-04-25T11:37:25.06Z</time></trkpt><trkpt lat="36.5101492" lon="-4.764462"><ele>65.0</ele><time>2026-04-25T11:37:26.059Z</time></trkpt><trkpt lat="36.5101879" lon="-4.7648017"><ele>65.0</ele><time>2026-04-25T11:37:27.061Z</time></trkpt><trkpt lat="36.5102193" lon="-4.7651292"><ele>65.0</ele><time>2026-04-25T11:37:28.059Z</time></trkpt><trkpt lat="36.5102423" lon="-4.765449"><ele>65.0</ele><time>2026-04-25T11:37:29.061Z</time></trkpt><trkpt lat="36.5102603" lon="-4.7657622"><ele>65.0</ele><time>2026-04-25T11:37:30.062Z</time></trkpt><trkpt lat="36.5102747" lon="-4.7660687"><ele>65.0</ele><time>2026-04-25T11:37:31.063Z</time></trkpt><trkpt lat="36.5102871" lon="-4.7663742"><ele>65.0</ele><time>2026-04-25T11:37:32.06Z</time></trkpt><trkpt lat="36.5103" lon="-4.7666769"><ele>65.0</ele><time>2026-04-25T11:37:33.066Z</time></trkpt><trkpt lat="36.5103109" lon="-4.7669749"><ele>65.0</ele><time>2026-04-25T11:37:34.062Z</time></trkpt><trkpt lat="36.5103245" lon="-4.7672701"><ele>65.0</ele><time>2026-04-25T11:37:35.066Z</time></trkpt><trkpt lat="36.5103379" lon="-4.7675637"><ele>65.0</ele><time>2026-04-25T11:37:36.061Z</time></trkpt><trkpt lat="36.5103549" lon="-4.7678604"><ele>66.0</ele><time>2026-04-25T11:37:37.062Z</time></trkpt><trkpt lat="36.5103786" lon="-4.7681585"><ele>67.0</ele><time>2026-04-25T11:37:38.065Z</time></trkpt><trkpt lat="36.510403" lon="-4.7684597"><ele>70.5</ele><time>2026-04-25T11:37:39.06Z</time></trkpt><trkpt lat="36.5104094" lon="-4.7687671"><ele>74.0</ele><time>2026-04-25T11:37:40.067Z</time></trkpt><trkpt lat="36.5104211" lon="-4.7690735"><ele>74.0</ele><time>2026-04-25T11:37:41.059Z</time></trkpt><trkpt lat="36.5104597" lon="-4.7693844"><ele>74.0</ele><time>2026-04-25T11:37:42.063Z</time></trkpt><trkpt lat="36.5105209" lon="-4.7696822"><ele>74.0</ele><time>2026-04-25T11:37:43.062Z</time></trkpt><trkpt lat="36.5106096" lon="-4.7699803"><ele>74.0</ele><time>2026-04-25T11:37:44.065Z</time></trkpt><trkpt lat="36.5107083" lon="-4.7702767"><ele>76.0</ele><time>2026-04-25T11:37:45.06Z</time></trkpt><trkpt lat="36.5108123" lon="-4.7705764"><ele>78.0</ele><time>2026-04-25T11:37:46.06Z</time></trkpt><trkpt lat="36.5109237" lon="-4.7708742"><ele>82.0</ele><time>2026-04-25T11:37:47.061Z</time></trkpt><trkpt lat="36.5110424" lon="-4.7711701"><ele>86.0</ele><time>2026-04-25T11:37:48.063Z</time></trkpt><trkpt lat="36.5111757" lon="-4.7714646"><ele>82.0</ele><time>2026-04-25T11:37:49.064Z</time></trkpt><trkpt lat="36.5113083" lon="-4.7717592"><ele>78.0</ele><time>2026-04-25T11:37:50.061Z</time></trkpt><trkpt lat="36.5114421" lon="-4.7720582"><ele>78.0</ele><time>2026-04-25T11:37:51.059Z</time></trkpt><trkpt lat="36.511575" lon="-4.7723604"><ele>78.0</ele><time>2026-04-25T11:37:52.063Z</time></trkpt><trkpt lat="36.5117084" lon="-4.7726626"><ele>74.5</ele><time>2026-04-25T11:37:53.067Z</time></trkpt><trkpt lat="36.5118394" lon="-4.7729678"><ele>71.0</ele><time>2026-04-25T11:37:54.066Z</time></trkpt><trkpt lat="36.5119671" lon="-4.7732764"><ele>73.5</ele><time>2026-04-25T11:37:55.061Z</time></trkpt><trkpt lat="36.5120867" lon="-4.7735933"><ele>76.0</ele><time>2026-04-25T11:37:56.06Z</time></trkpt><trkpt lat="36.512195" lon="-4.7739167"><ele>76.0</ele><time>2026-04-25T11:37:57.062Z</time></trkpt><trkpt lat="36.5123033" lon="-4.7742383"><ele>76.0</ele><time>2026-04-25T11:37:58.064Z</time></trkpt><trkpt lat="36.512405" lon="-4.774565"><ele>73.5</ele><time>2026-04-25T11:37:59.06Z</time></trkpt><trkpt lat="36.5124933" lon="-4.774895"><ele>71.0</ele><time>2026-04-25T11:38:00.064Z</time></trkpt><trkpt lat="36.5125667" lon="-4.7752333"><ele>71.0</ele><time>2026-04-25T11:38:01.058Z</time></trkpt><trkpt lat="36.51263" lon="-4.7755733"><ele>71.0</ele><time>2026-04-25T11:38:02.063Z</time></trkpt><trkpt lat="36.5126817" lon="-4.7759167"><ele>73.5</ele><time>2026-04-25T11:38:03.065Z</time></trkpt><trkpt lat="36.5127267" lon="-4.77626"><ele>76.0</ele><time>2026-04-25T11:38:04.061Z</time></trkpt><trkpt lat="36.5127617" lon="-4.776605"><ele>78.5</ele><time>2026-04-25T11:38:05.067Z</time></trkpt><trkpt lat="36.5127833" lon="-4.776955"><ele>81.0</ele><time>2026-04-25T11:38:06.062Z</time></trkpt><trkpt lat="36.5127917" lon="-4.7773117"><ele>81.0</ele><time>2026-04-25T11:38:07.06Z</time></trkpt><trkpt lat="36.5127883" lon="-4.7776733"><ele>81.0</ele><time>2026-04-25T11:38:08.06Z</time></trkpt><trkpt lat="36.5127767" lon="-4.7780417"><ele>77.0</ele><time>2026-04-25T11:38:09.06Z</time></trkpt><trkpt lat="36.51276" lon="-4.778415"><ele>73.0</ele><time>2026-04-25T11:38:10.06Z</time></trkpt><trkpt lat="36.5127417" lon="-4.778795"><ele>73.5</ele><time>2026-04-25T11:38:11.061Z</time></trkpt><trkpt lat="36.51272" lon="-4.779175"><ele>74.0</ele><time>2026-04-25T11:38:12.061Z</time></trkpt><trkpt lat="36.5127017" lon="-4.7795533"><ele>74.0</ele><time>2026-04-25T11:38:13.062Z</time></trkpt><trkpt lat="36.51268" lon="-4.7799317"><ele>74.0</ele><time>2026-04-25T11:38:14.066Z</time></trkpt><trkpt lat="36.51266" lon="-4.7803117"><ele>75.5</ele><time>2026-04-25T11:38:15.061Z</time></trkpt><trkpt lat="36.5126483" lon="-4.7806883"><ele>77.0</ele><time>2026-04-25T11:38:16.06Z</time></trkpt><trkpt lat="36.5126467" lon="-4.781065"><ele>80.0</ele><time>2026-04-25T11:38:17.066Z</time></trkpt><trkpt lat="36.5126567" lon="-4.7814433"><ele>83.0</ele><time>2026-04-25T11:38:18.066Z</time></trkpt><trkpt lat="36.5126767" lon="-4.78182"><ele>85.5</ele><time>2026-04-25T11:38:19.061Z</time></trkpt><trkpt lat="36.5127083" lon="-4.7821967"><ele>88.0</ele><time>2026-04-25T11:38:20.061Z</time></trkpt><trkpt lat="36.512755" lon="-4.78257"><ele>88.0</ele><time>2026-04-25T11:38:21.061Z</time></trkpt><trkpt lat="36.5128133" lon="-4.7829383"><ele>88.0</ele><time>2026-04-25T11:38:22.068Z</time></trkpt><trkpt lat="36.51288" lon="-4.7833017"><ele>85.5</ele><time>2026-04-25T11:38:23.065Z</time></trkpt><trkpt lat="36.5129617" lon="-4.7836617"><ele>83.0</ele><time>2026-04-25T11:38:24.066Z</time></trkpt><trkpt lat="36.51305" lon="-4.7840133"><ele>84.0</ele><time>2026-04-25T11:38:25.059Z</time></trkpt><trkpt lat="36.5131417" lon="-4.784365"><ele>85.0</ele><time>2026-04-25T11:38:26.06Z</time></trkpt><trkpt lat="36.513255" lon="-4.7847033"><ele>85.0</ele><time>2026-04-25T11:38:27.061Z</time></trkpt><trkpt lat="36.5133817" lon="-4.7850333"><ele>85.0</ele><time>2026-04-25T11:38:28.061Z</time></trkpt><trkpt lat="36.513515" lon="-4.78536"><ele>84.0</ele><time>2026-04-25T11:38:29.06Z</time></trkpt><trkpt lat="36.5136483" lon="-4.7856833"><ele>83.0</ele><time>2026-04-25T11:38:30.058Z</time></trkpt><trkpt lat="36.5137817" lon="-4.7860033"><ele>86.5</ele><time>2026-04-25T11:38:31.061Z</time></trkpt><trkpt lat="36.5139167" lon="-4.7863233"><ele>90.0</ele><time>2026-04-25T11:38:32.061Z</time></trkpt><trkpt lat="36.5140417" lon="-4.7866383"><ele>87.5</ele><time>2026-04-25T11:38:33.059Z</time></trkpt><trkpt lat="36.5141617" lon="-4.7869583"><ele>85.0</ele><time>2026-04-25T11:38:34.059Z</time></trkpt><trkpt lat="36.514275" lon="-4.78728"><ele>85.0</ele><time>2026-04-25T11:38:35.058Z</time></trkpt><trkpt lat="36.5143833" lon="-4.7875983"><ele>85.0</ele><time>2026-04-25T11:38:36.064Z</time></trkpt><trkpt lat="36.5144833" lon="-4.78792"><ele>81.5</ele><time>2026-04-25T11:38:37.059Z</time></trkpt><trkpt lat="36.5145683" lon="-4.788245"><ele>78.0</ele><time>2026-04-25T11:38:38.06Z</time></trkpt><trkpt lat="36.5146483" lon="-4.7885717"><ele>69.0</ele><time>2026-04-25T11:38:39.062Z</time></trkpt><trkpt lat="36.5147217" lon="-4.7889"><ele>60.0</ele><time>2026-04-25T11:38:40.059Z</time></trkpt><trkpt lat="36.5147867" lon="-4.7892283"><ele>65.0</ele><time>2026-04-25T11:38:41.065Z</time></trkpt><trkpt lat="36.5148433" lon="-4.7895583"><ele>70.0</ele><time>2026-04-25T11:38:42.066Z</time></trkpt><trkpt lat="36.5148933" lon="-4.7898917"><ele>80.0</ele><time>2026-04-25T11:38:43.057Z</time></trkpt><trkpt lat="36.5149333" lon="-4.790225"><ele>90.0</ele><time>2026-04-25T11:38:44.064Z</time></trkpt><trkpt lat="36.5149633" lon="-4.7905583"><ele>90.0</ele><time>2026-04-25T11:38:45.063Z</time></trkpt><trkpt lat="36.5149867" lon="-4.7908933"><ele>90.0</ele><time>2026-04-25T11:38:46.062Z</time></trkpt><trkpt lat="36.5150033" lon="-4.7912333"><ele>95.0</ele><time>2026-04-25T11:38:47.063Z</time></trkpt><trkpt lat="36.5150117" lon="-4.7915717"><ele>100.0</ele><time>2026-04-25T11:38:48.061Z</time></trkpt><trkpt lat="36.5150117" lon="-4.7919117"><ele>102.5</ele><time>2026-04-25T11:38:49.068Z</time></trkpt><trkpt lat="36.5150067" lon="-4.7922567"><ele>105.0</ele><time>2026-04-25T11:38:50.06Z</time></trkpt><trkpt lat="36.5149983" lon="-4.7926067"><ele>104.5</ele><time>2026-04-25T11:38:51.063Z</time></trkpt><trkpt lat="36.5149917" lon="-4.79296"><ele>104.0</ele><time>2026-04-25T11:38:52.061Z</time></trkpt><trkpt lat="36.5149867" lon="-4.7933167"><ele>105.0</ele><time>2026-04-25T11:38:53.061Z</time></trkpt><trkpt lat="36.5149867" lon="-4.7936783"><ele>106.0</ele><time>2026-04-25T11:38:54.065Z</time></trkpt><trkpt lat="36.5149917" lon="-4.7940417"><ele>106.5</ele><time>2026-04-25T11:38:55.061Z</time></trkpt><trkpt lat="36.515005" lon="-4.794405"><ele>107.0</ele><time>2026-04-25T11:38:56.062Z</time></trkpt><trkpt lat="36.5150283" lon="-4.7947633"><ele>107.0</ele><time>2026-04-25T11:38:57.061Z</time></trkpt><trkpt lat="36.5150617" lon="-4.7951183"><ele>107.0</ele><time>2026-04-25T11:38:58.066Z</time></trkpt><trkpt lat="36.5151017" lon="-4.7954667"><ele>108.0</ele><time>2026-04-25T11:38:59.067Z</time></trkpt><trkpt lat="36.51515" lon="-4.795815"><ele>109.0</ele><time>2026-04-25T11:39:00.059Z</time></trkpt><trkpt lat="36.5152083" lon="-4.7961733"><ele>109.0</ele><time>2026-04-25T11:39:01.063Z</time></trkpt><trkpt lat="36.5152733" lon="-4.796545"><ele>109.0</ele><time>2026-04-25T11:39:02.067Z</time></trkpt><trkpt lat="36.5153533" lon="-4.7969333"><ele>112.0</ele><time>2026-04-25T11:39:03.062Z</time></trkpt><trkpt lat="36.51546" lon="-4.7973283"><ele>115.0</ele><time>2026-04-25T11:39:04.062Z</time></trkpt><trkpt lat="36.5155833" lon="-4.797725"><ele>115.0</ele><time>2026-04-25T11:39:05.067Z</time></trkpt><trkpt lat="36.515715" lon="-4.79812"><ele>115.0</ele><time>2026-04-25T11:39:06.066Z</time></trkpt><trkpt lat="36.5158517" lon="-4.7985117"><ele>115.5</ele><time>2026-04-25T11:39:07.06Z</time></trkpt><trkpt lat="36.5159867" lon="-4.7989"><ele>116.0</ele><time>2026-04-25T11:39:08.065Z</time></trkpt><trkpt lat="36.5161183" lon="-4.7992767"><ele>119.5</ele><time>2026-04-25T11:39:09.064Z</time></trkpt><trkpt lat="36.5162433" lon="-4.7996467"><ele>123.0</ele><time>2026-04-25T11:39:10.063Z</time></trkpt><trkpt lat="36.5163633" lon="-4.8000117"><ele>118.5</ele><time>2026-04-25T11:39:11.06Z</time></trkpt><trkpt lat="36.5164817" lon="-4.800375"><ele>114.0</ele><time>2026-04-25T11:39:12.062Z</time></trkpt><trkpt lat="36.516595" lon="-4.8007367"><ele>110.5</ele><time>2026-04-25T11:39:13.064Z</time></trkpt><trkpt lat="36.5167033" lon="-4.8010967"><ele>107.0</ele><time>2026-04-25T11:39:14.059Z</time></trkpt><trkpt lat="36.5168067" lon="-4.8014533"><ele>107.0</ele><time>2026-04-25T11:39:15.065Z</time></trkpt><trkpt lat="36.5169033" lon="-4.8018083"><ele>107.0</ele><time>2026-04-25T11:39:16.062Z</time></trkpt><trkpt lat="36.51699" lon="-4.80216"><ele>104.5</ele><time>2026-04-25T11:39:17.061Z</time></trkpt><trkpt lat="36.5170683" lon="-4.80251"><ele>102.0</ele><time>2026-04-25T11:39:18.066Z</time></trkpt><trkpt lat="36.5171383" lon="-4.8028583"><ele>102.0</ele><time>2026-04-25T11:39:19.064Z</time></trkpt><trkpt lat="36.5172017" lon="-4.8032033"><ele>102.0</ele><time>2026-04-25T11:39:20.066Z</time></trkpt><trkpt lat="36.51726" lon="-4.80355"><ele>105.0</ele><time>2026-04-25T11:39:21.061Z</time></trkpt><trkpt lat="36.5173117" lon="-4.8038967"><ele>108.0</ele><time>2026-04-25T11:39:22.061Z</time></trkpt><trkpt lat="36.5173567" lon="-4.804255"><ele>109.5</ele><time>2026-04-25T11:39:23.066Z</time></trkpt><trkpt lat="36.5173967" lon="-4.80462"><ele>111.0</ele><time>2026-04-25T11:39:24.065Z</time></trkpt><trkpt lat="36.5174317" lon="-4.8049917"><ele>112.0</ele><time>2026-04-25T11:39:25.065Z</time></trkpt><trkpt lat="36.5174617" lon="-4.80537"><ele>113.0</ele><time>2026-04-25T11:39:26.065Z</time></trkpt><trkpt lat="36.517485" lon="-4.8057483"><ele>110.5</ele><time>2026-04-25T11:39:27.063Z</time></trkpt><trkpt lat="36.5175033" lon="-4.8061233"><ele>108.0</ele><time>2026-04-25T11:39:28.058Z</time></trkpt><trkpt lat="36.5175183" lon="-4.806495"><ele>105.5</ele><time>2026-04-25T11:39:29.059Z</time></trkpt><trkpt lat="36.517525" lon="-4.8068667"><ele>103.0</ele><time>2026-04-25T11:39:30.065Z</time></trkpt><trkpt lat="36.5175267" lon="-4.8072367"><ele>103.0</ele><time>2026-04-25T11:39:31.061Z</time></trkpt><trkpt lat="36.5175167" lon="-4.8076067"><ele>103.0</ele><time>2026-04-25T11:39:32.063Z</time></trkpt><trkpt lat="36.5175017" lon="-4.8079767"><ele>99.0</ele><time>2026-04-25T11:39:33.061Z</time></trkpt><trkpt lat="36.5174817" lon="-4.808345"><ele>95.0</ele><time>2026-04-25T11:39:34.061Z</time></trkpt><trkpt lat="36.5174533" lon="-4.8087083"><ele>92.0</ele><time>2026-04-25T11:39:35.063Z</time></trkpt><trkpt lat="36.5174283" lon="-4.8090717"><ele>89.0</ele><time>2026-04-25T11:39:36.062Z</time></trkpt><trkpt lat="36.5173983" lon="-4.8094333"><ele>83.5</ele><time>2026-04-25T11:39:37.064Z</time></trkpt><trkpt lat="36.51736" lon="-4.8097933"><ele>78.0</ele><time>2026-04-25T11:39:38.062Z</time></trkpt><trkpt lat="36.5173133" lon="-4.8101533"><ele>83.0</ele><time>2026-04-25T11:39:39.061Z</time></trkpt><trkpt lat="36.517255" lon="-4.81051"><ele>88.0</ele><time>2026-04-25T11:39:40.057Z</time></trkpt><trkpt lat="36.517185" lon="-4.8108633"><ele>87.0</ele><time>2026-04-25T11:39:41.061Z</time></trkpt><trkpt lat="36.51711" lon="-4.8112167"><ele>86.0</ele><time>2026-04-25T11:39:42.064Z</time></trkpt><trkpt lat="36.5170283" lon="-4.8115683"><ele>84.0</ele><time>2026-04-25T11:39:43.061Z</time></trkpt><trkpt lat="36.5169417" lon="-4.811915"><ele>82.0</ele><time>2026-04-25T11:39:44.066Z</time></trkpt><trkpt lat="36.5168533" lon="-4.8122633"><ele>82.0</ele><time>2026-04-25T11:39:45.063Z</time></trkpt><trkpt lat="36.5167633" lon="-4.81261"><ele>82.0</ele><time>2026-04-25T11:39:46.062Z</time></trkpt><trkpt lat="36.5166683" lon="-4.812955"><ele>82.5</ele><time>2026-04-25T11:39:47.064Z</time></trkpt><trkpt lat="36.51657" lon="-4.8133"><ele>83.0</ele><time>2026-04-25T11:39:48.064Z</time></trkpt><trkpt lat="36.5164683" lon="-4.8136433"><ele>83.0</ele><time>2026-04-25T11:39:49.066Z</time></trkpt><trkpt lat="36.516365" lon="-4.8139867"><ele>83.0</ele><time>2026-04-25T11:39:50.062Z</time></trkpt><trkpt lat="36.5162583" lon="-4.8143283"><ele>84.5</ele><time>2026-04-25T11:39:51.059Z</time></trkpt><trkpt lat="36.51615" lon="-4.8146717"><ele>86.0</ele><time>2026-04-25T11:39:52.063Z</time></trkpt><trkpt lat="36.5160417" lon="-4.8150167"><ele>86.5</ele><time>2026-04-25T11:39:53.063Z</time></trkpt><trkpt lat="36.5159317" lon="-4.8153617"><ele>87.0</ele><time>2026-04-25T11:39:54.062Z</time></trkpt><trkpt lat="36.51582" lon="-4.8157083"><ele>86.0</ele><time>2026-04-25T11:39:55.06Z</time></trkpt><trkpt lat="36.5157133" lon="-4.8160583"><ele>85.0</ele><time>2026-04-25T11:39:56.065Z</time></trkpt><trkpt lat="36.51561" lon="-4.8164117"><ele>85.0</ele><time>2026-04-25T11:39:57.064Z</time></trkpt><trkpt lat="36.51551" lon="-4.8167733"><ele>85.0</ele><time>2026-04-25T11:39:58.064Z</time></trkpt><trkpt lat="36.515415" lon="-4.8171367"><ele>81.0</ele><time>2026-04-25T11:39:59.06Z</time></trkpt><trkpt lat="36.5153283" lon="-4.8175067"><ele>77.0</ele><time>2026-04-25T11:40:00.062Z</time></trkpt><trkpt lat="36.5152433" lon="-4.81788"><ele>77.0</ele><time>2026-04-25T11:40:01.064Z</time></trkpt><trkpt lat="36.51517" lon="-4.8182583"><ele>77.0</ele><time>2026-04-25T11:40:02.069Z</time></trkpt><trkpt lat="36.5151033" lon="-4.81864"><ele>78.5</ele><time>2026-04-25T11:40:03.068Z</time></trkpt><trkpt lat="36.5150533" lon="-4.819025"><ele>80.0</ele><time>2026-04-25T11:40:04.062Z</time></trkpt><trkpt lat="36.51501" lon="-4.8194133"><ele>80.0</ele><time>2026-04-25T11:40:05.062Z</time></trkpt><trkpt lat="36.5149833" lon="-4.8198083"><ele>80.0</ele><time>2026-04-25T11:40:06.067Z</time></trkpt><trkpt lat="36.5149767" lon="-4.8202033"><ele>80.5</ele><time>2026-04-25T11:40:07.065Z</time></trkpt><trkpt lat="36.5149867" lon="-4.8206"><ele>81.0</ele><time>2026-04-25T11:40:08.067Z</time></trkpt><trkpt lat="36.5150117" lon="-4.820995"><ele>80.0</ele><time>2026-04-25T11:40:09.062Z</time></trkpt><trkpt lat="36.51505" lon="-4.8213883"><ele>79.0</ele><time>2026-04-25T11:40:10.061Z</time></trkpt><trkpt lat="36.5151033" lon="-4.82178"><ele>81.0</ele><time>2026-04-25T11:40:11.065Z</time></trkpt><trkpt lat="36.5151733" lon="-4.8221633"><ele>83.0</ele><time>2026-04-25T11:40:12.062Z</time></trkpt><trkpt lat="36.5152533" lon="-4.82254"><ele>81.0</ele><time>2026-04-25T11:40:13.063Z</time></trkpt><trkpt lat="36.5153467" lon="-4.822915"><ele>79.0</ele><time>2026-04-25T11:40:14.063Z</time></trkpt><trkpt lat="36.5154533" lon="-4.8232817"><ele>67.5</ele><time>2026-04-25T11:40:15.063Z</time></trkpt><trkpt lat="36.5155717" lon="-4.8236333"><ele>56.0</ele><time>2026-04-25T11:40:16.064Z</time></trkpt><trkpt lat="36.5157017" lon="-4.823975"><ele>56.0</ele><time>2026-04-25T11:40:17.061Z</time></trkpt><trkpt lat="36.5158433" lon="-4.82431"><ele>56.0</ele><time>2026-04-25T11:40:18.062Z</time></trkpt><trkpt lat="36.51599" lon="-4.82464"><ele>54.0</ele><time>2026-04-25T11:40:19.058Z</time></trkpt><trkpt lat="36.5161417" lon="-4.82496"><ele>52.0</ele><time>2026-04-25T11:40:20.063Z</time></trkpt><trkpt lat="36.5162967" lon="-4.8252767"><ele>59.5</ele><time>2026-04-25T11:40:21.065Z</time></trkpt><trkpt lat="36.5164517" lon="-4.8255883"><ele>67.0</ele><time>2026-04-25T11:40:22.063Z</time></trkpt><trkpt lat="36.5166117" lon="-4.8258983"><ele>65.5</ele><time>2026-04-25T11:40:23.057Z</time></trkpt><trkpt lat="36.5167717" lon="-4.8262033"><ele>64.0</ele><time>2026-04-25T11:40:24.062Z</time></trkpt><trkpt lat="36.51694" lon="-4.8265067"><ele>63.0</ele><time>2026-04-25T11:40:25.061Z</time></trkpt><trkpt lat="36.5171117" lon="-4.8268067"><ele>62.0</ele><time>2026-04-25T11:40:26.066Z</time></trkpt><trkpt lat="36.5172817" lon="-4.8271033"><ele>60.0</ele><time>2026-04-25T11:40:27.068Z</time></trkpt><trkpt lat="36.5174467" lon="-4.8274"><ele>58.0</ele><time>2026-04-25T11:40:28.06Z</time></trkpt><trkpt lat="36.51761" lon="-4.8276983"><ele>59.5</ele><time>2026-04-25T11:40:29.063Z</time></trkpt><trkpt lat="36.5177683" lon="-4.828"><ele>61.0</ele><time>2026-04-25T11:40:30.061Z</time></trkpt><trkpt lat="36.5179167" lon="-4.828305"><ele>58.5</ele><time>2026-04-25T11:40:31.062Z</time></trkpt><trkpt lat="36.5180567" lon="-4.8286133"><ele>56.0</ele><time>2026-04-25T11:40:32.062Z</time></trkpt><trkpt lat="36.5181883" lon="-4.82892"><ele>56.0</ele><time>2026-04-25T11:40:33.061Z</time></trkpt><trkpt lat="36.5183117" lon="-4.8292267"><ele>56.0</ele><time>2026-04-25T11:40:34.065Z</time></trkpt><trkpt lat="36.5184183" lon="-4.8295367"><ele>56.5</ele><time>2026-04-25T11:40:35.062Z</time></trkpt><trkpt lat="36.518515" lon="-4.8298533"><ele>57.0</ele><time>2026-04-25T11:40:36.061Z</time></trkpt><trkpt lat="36.5185983" lon="-4.8301717"><ele>57.5</ele><time>2026-04-25T11:40:37.061Z</time></trkpt><trkpt lat="36.5186683" lon="-4.8304933"><ele>58.0</ele><time>2026-04-25T11:40:38.06Z</time></trkpt><trkpt lat="36.51873" lon="-4.8308183"><ele>61.5</ele><time>2026-04-25T11:40:39.06Z</time></trkpt><trkpt lat="36.5187867" lon="-4.8311483"><ele>65.0</ele><time>2026-04-25T11:40:40.061Z</time></trkpt><trkpt lat="36.5188333" lon="-4.8314817"><ele>68.0</ele><time>2026-04-25T11:40:41.065Z</time></trkpt><trkpt lat="36.5188683" lon="-4.831815"><ele>71.0</ele><time>2026-04-25T11:40:42.07Z</time></trkpt><trkpt lat="36.518895" lon="-4.8321483"><ele>71.0</ele><time>2026-04-25T11:40:43.059Z</time></trkpt><trkpt lat="36.5189083" lon="-4.8324833"><ele>71.0</ele><time>2026-04-25T11:40:44.063Z</time></trkpt><trkpt lat="36.5189133" lon="-4.8328167"><ele>72.0</ele><time>2026-04-25T11:40:45.061Z</time></trkpt><trkpt lat="36.51891" lon="-4.833155"><ele>73.0</ele><time>2026-04-25T11:40:46.058Z</time></trkpt><trkpt lat="36.5189033" lon="-4.8334967"><ele>74.0</ele><time>2026-04-25T11:40:47.06Z</time></trkpt><trkpt lat="36.518895" lon="-4.8338383"><ele>75.0</ele><time>2026-04-25T11:40:48.06Z</time></trkpt><trkpt lat="36.5188817" lon="-4.8341817"><ele>79.0</ele><time>2026-04-25T11:40:49.059Z</time></trkpt><trkpt lat="36.5188667" lon="-4.8345267"><ele>83.0</ele><time>2026-04-25T11:40:50.061Z</time></trkpt><trkpt lat="36.5188517" lon="-4.83487"><ele>80.5</ele><time>2026-04-25T11:40:51.064Z</time></trkpt><trkpt lat="36.5188367" lon="-4.8352183"><ele>78.0</ele><time>2026-04-25T11:40:52.062Z</time></trkpt><trkpt lat="36.5188233" lon="-4.8355667"><ele>78.0</ele><time>2026-04-25T11:40:53.064Z</time></trkpt><trkpt lat="36.5188183" lon="-4.8359183"><ele>78.0</ele><time>2026-04-25T11:40:54.067Z</time></trkpt><trkpt lat="36.5188133" lon="-4.83627"><ele>79.0</ele><time>2026-04-25T11:40:55.062Z</time></trkpt><trkpt lat="36.5188133" lon="-4.8366217"><ele>80.0</ele><time>2026-04-25T11:40:56.061Z</time></trkpt><trkpt lat="36.5188167" lon="-4.8369833"><ele>82.0</ele><time>2026-04-25T11:40:57.066Z</time></trkpt><trkpt lat="36.5188283" lon="-4.83735"><ele>84.0</ele><time>2026-04-25T11:40:58.06Z</time></trkpt><trkpt lat="36.518845" lon="-4.8377167"><ele>86.0</ele><time>2026-04-25T11:40:59.062Z</time></trkpt><trkpt lat="36.5188667" lon="-4.8380867"><ele>88.0</ele><time>2026-04-25T11:41:00.064Z</time></trkpt><trkpt lat="36.5188933" lon="-4.83846"><ele>90.5</ele><time>2026-04-25T11:41:01.066Z</time></trkpt><trkpt lat="36.518925" lon="-4.838835"><ele>93.0</ele><time>2026-04-25T11:41:02.068Z</time></trkpt><trkpt lat="36.5189633" lon="-4.83921"><ele>93.0</ele><time>2026-04-25T11:41:03.063Z</time></trkpt><trkpt lat="36.5190133" lon="-4.839585"><ele>93.0</ele><time>2026-04-25T11:41:04.061Z</time></trkpt><trkpt lat="36.5190783" lon="-4.8399583"><ele>93.5</ele><time>2026-04-25T11:41:05.058Z</time></trkpt><trkpt lat="36.5191583" lon="-4.8403283"><ele>94.0</ele><time>2026-04-25T11:41:06.058Z</time></trkpt><trkpt lat="36.519255" lon="-4.84069"><ele>89.5</ele><time>2026-04-25T11:41:07.064Z</time></trkpt><trkpt lat="36.5193683" lon="-4.8410467"><ele>85.0</ele><time>2026-04-25T11:41:08.065Z</time></trkpt><trkpt lat="36.519495" lon="-4.8413983"><ele>82.5</ele><time>2026-04-25T11:41:09.06Z</time></trkpt><trkpt lat="36.5196317" lon="-4.841745"><ele>80.0</ele><time>2026-04-25T11:41:10.062Z</time></trkpt><trkpt lat="36.5197783" lon="-4.8420867"><ele>85.5</ele><time>2026-04-25T11:41:11.063Z</time></trkpt><trkpt lat="36.519935" lon="-4.84242"><ele>91.0</ele><time>2026-04-25T11:41:12.069Z</time></trkpt><trkpt lat="36.5201017" lon="-4.842745"><ele>95.0</ele><time>2026-04-25T11:41:13.062Z</time></trkpt><trkpt lat="36.52028" lon="-4.84306"><ele>99.0</ele><time>2026-04-25T11:41:14.06Z</time></trkpt><trkpt lat="36.52047" lon="-4.843365"><ele>100.0</ele><time>2026-04-25T11:41:15.061Z</time></trkpt><trkpt lat="36.5206667" lon="-4.8436567"><ele>101.0</ele><time>2026-04-25T11:41:16.058Z</time></trkpt><trkpt lat="36.5208733" lon="-4.8439367"><ele>101.0</ele><time>2026-04-25T11:41:17.064Z</time></trkpt><trkpt lat="36.5210917" lon="-4.8442017"><ele>101.0</ele><time>2026-04-25T11:41:18.067Z</time></trkpt><trkpt lat="36.521315" lon="-4.8444583"><ele>100.0</ele><time>2026-04-25T11:41:19.065Z</time></trkpt><trkpt lat="36.5215367" lon="-4.84471"><ele>99.0</ele><time>2026-04-25T11:41:20.063Z</time></trkpt><trkpt lat="36.521755" lon="-4.844965"><ele>99.5</ele><time>2026-04-25T11:41:21.065Z</time></trkpt><trkpt lat="36.52197" lon="-4.84522"><ele>100.0</ele><time>2026-04-25T11:41:22.058Z</time></trkpt><trkpt lat="36.522185" lon="-4.84547"><ele>100.0</ele><time>2026-04-25T11:41:23.063Z</time></trkpt><trkpt lat="36.522395" lon="-4.8457217"><ele>100.0</ele><time>2026-04-25T11:41:24.065Z</time></trkpt><trkpt lat="36.5225983" lon="-4.8459783"><ele>94.5</ele><time>2026-04-25T11:41:25.062Z</time></trkpt><trkpt lat="36.5227933" lon="-4.846245"><ele>89.0</ele><time>2026-04-25T11:41:26.063Z</time></trkpt><trkpt lat="36.52298" lon="-4.8465183"><ele>85.5</ele><time>2026-04-25T11:41:27.061Z</time></trkpt><trkpt lat="36.52316" lon="-4.8467967"><ele>82.0</ele><time>2026-04-25T11:41:28.067Z</time></trkpt><trkpt lat="36.5233283" lon="-4.8470867"><ele>82.0</ele><time>2026-04-25T11:41:29.058Z</time></trkpt><trkpt lat="36.52349" lon="-4.84738"><ele>82.0</ele><time>2026-04-25T11:41:30.058Z</time></trkpt><trkpt lat="36.52364" lon="-4.8476833"><ele>84.5</ele><time>2026-04-25T11:41:31.064Z</time></trkpt><trkpt lat="36.5237783" lon="-4.8479933"><ele>87.0</ele><time>2026-04-25T11:41:32.063Z</time></trkpt><trkpt lat="36.523905" lon="-4.8483133"><ele>83.5</ele><time>2026-04-25T11:41:33.064Z</time></trkpt><trkpt lat="36.52402" lon="-4.8486383"><ele>80.0</ele><time>2026-04-25T11:41:34.06Z</time></trkpt><trkpt lat="36.5241267" lon="-4.84897"><ele>70.5</ele><time>2026-04-25T11:41:35.063Z</time></trkpt><trkpt lat="36.524225" lon="-4.8493083"><ele>61.0</ele><time>2026-04-25T11:41:36.061Z</time></trkpt><trkpt lat="36.524315" lon="-4.8496483"><ele>61.0</ele><time>2026-04-25T11:41:37.065Z</time></trkpt><trkpt lat="36.524395" lon="-4.8499917"><ele>61.0</ele><time>2026-04-25T11:41:38.065Z</time></trkpt><trkpt lat="36.5244633" lon="-4.8503433"><ele>57.5</ele><time>2026-04-25T11:41:39.063Z</time></trkpt><trkpt lat="36.5245217" lon="-4.8506967"><ele>54.0</ele><time>2026-04-25T11:41:40.067Z</time></trkpt><trkpt lat="36.5245717" lon="-4.8510533"><ele>66.0</ele><time>2026-04-25T11:41:41.064Z</time></trkpt><trkpt lat="36.524605" lon="-4.8514133"><ele>78.0</ele><time>2026-04-25T11:41:42.065Z</time></trkpt><trkpt lat="36.524625" lon="-4.8517733"><ele>94.5</ele><time>2026-04-25T11:41:43.064Z</time></trkpt><trkpt lat="36.5246317" lon="-4.8521383"><ele>111.0</ele><time>2026-04-25T11:41:44.07Z</time></trkpt><trkpt lat="36.5246283" lon="-4.8525033"><ele>114.0</ele><time>2026-04-25T11:41:45.063Z</time></trkpt><trkpt lat="36.5246167" lon="-4.8528683"><ele>117.0</ele><time>2026-04-25T11:41:46.06Z</time></trkpt><trkpt lat="36.5245967" lon="-4.853235"><ele>106.0</ele><time>2026-04-25T11:41:47.061Z</time></trkpt><trkpt lat="36.5245617" lon="-4.8536"><ele>95.0</ele><time>2026-04-25T11:41:48.064Z</time></trkpt><trkpt lat="36.5245133" lon="-4.8539633"><ele>94.0</ele><time>2026-04-25T11:41:49.059Z</time></trkpt><trkpt lat="36.5244533" lon="-4.8543233"><ele>93.0</ele><time>2026-04-25T11:41:50.067Z</time></trkpt><trkpt lat="36.5243783" lon="-4.8546783"><ele>93.0</ele><time>2026-04-25T11:41:51.065Z</time></trkpt><trkpt lat="36.524295" lon="-4.85503"><ele>93.0</ele><time>2026-04-25T11:41:52.06Z</time></trkpt><trkpt lat="36.5241983" lon="-4.8553783"><ele>93.0</ele><time>2026-04-25T11:41:53.059Z</time></trkpt><trkpt lat="36.52409" lon="-4.85572"><ele>93.0</ele><time>2026-04-25T11:41:54.067Z</time></trkpt><trkpt lat="36.52397" lon="-4.8560533"><ele>89.5</ele><time>2026-04-25T11:41:55.068Z</time></trkpt><trkpt lat="36.5238383" lon="-4.8563783"><ele>86.0</ele><time>2026-04-25T11:41:56.06Z</time></trkpt><trkpt lat="36.5237017" lon="-4.8566983"><ele>87.5</ele><time>2026-04-25T11:41:57.062Z</time></trkpt><trkpt lat="36.52356" lon="-4.8570133"><ele>89.0</ele><time>2026-04-25T11:41:58.062Z</time></trkpt><trkpt lat="36.52341" lon="-4.8573217"><ele>91.0</ele><time>2026-04-25T11:41:59.06Z</time></trkpt><trkpt lat="36.523255" lon="-4.8576233"><ele>93.0</ele><time>2026-04-25T11:42:00.066Z</time></trkpt><trkpt lat="36.5230983" lon="-4.857925"><ele>93.0</ele><time>2026-04-25T11:42:01.06Z</time></trkpt><trkpt lat="36.5229417" lon="-4.85823"><ele>93.0</ele><time>2026-04-25T11:42:02.063Z</time></trkpt><trkpt lat="36.522785" lon="-4.8585383"><ele>90.5</ele><time>2026-04-25T11:42:03.06Z</time></trkpt><trkpt lat="36.5226267" lon="-4.8588483"><ele>88.0</ele><time>2026-04-25T11:42:04.065Z</time></trkpt><trkpt lat="36.5224717" lon="-4.8591617"><ele>89.0</ele><time>2026-04-25T11:42:05.066Z</time></trkpt><trkpt lat="36.5223267" lon="-4.8594833"><ele>90.0</ele><time>2026-04-25T11:42:06.064Z</time></trkpt><trkpt lat="36.52219" lon="-4.85981"><ele>88.0</ele><time>2026-04-25T11:42:07.062Z</time></trkpt><trkpt lat="36.5220567" lon="-4.86014"><ele>86.0</ele><time>2026-04-25T11:42:08.061Z</time></trkpt><trkpt lat="36.5219317" lon="-4.8604783"><ele>86.0</ele><time>2026-04-25T11:42:09.06Z</time></trkpt><trkpt lat="36.5218183" lon="-4.8608217"><ele>86.0</ele><time>2026-04-25T11:42:10.065Z</time></trkpt><trkpt lat="36.5217133" lon="-4.8611733"><ele>84.0</ele><time>2026-04-25T11:42:11.065Z</time></trkpt><trkpt lat="36.5216167" lon="-4.8615317"><ele>82.0</ele><time>2026-04-25T11:42:12.065Z</time></trkpt><trkpt lat="36.5215317" lon="-4.8618983"><ele>86.0</ele><time>2026-04-25T11:42:13.061Z</time></trkpt><trkpt lat="36.5214533" lon="-4.862265"><ele>90.0</ele><time>2026-04-25T11:42:14.063Z</time></trkpt><trkpt lat="36.5213867" lon="-4.862635"><ele>94.0</ele><time>2026-04-25T11:42:15.066Z</time></trkpt><trkpt lat="36.52133" lon="-4.8630067"><ele>98.0</ele><time>2026-04-25T11:42:16.066Z</time></trkpt><trkpt lat="36.5212783" lon="-4.8633817"><ele>94.0</ele><time>2026-04-25T11:42:17.066Z</time></trkpt><trkpt lat="36.521235" lon="-4.86376"><ele>90.0</ele><time>2026-04-25T11:42:18.062Z</time></trkpt><trkpt lat="36.521205" lon="-4.864135"><ele>83.5</ele><time>2026-04-25T11:42:19.065Z</time></trkpt><trkpt lat="36.5211783" lon="-4.86451"><ele>77.0</ele><time>2026-04-25T11:42:20.063Z</time></trkpt><trkpt lat="36.5211583" lon="-4.8648883"><ele>73.5</ele><time>2026-04-25T11:42:21.064Z</time></trkpt><trkpt lat="36.52114" lon="-4.8652633"><ele>70.0</ele><time>2026-04-25T11:42:22.063Z</time></trkpt><trkpt lat="36.5211183" lon="-4.8656367"><ele>71.5</ele><time>2026-04-25T11:42:23.062Z</time></trkpt><trkpt lat="36.5210933" lon="-4.86601"><ele>73.0</ele><time>2026-04-25T11:42:24.063Z</time></trkpt><trkpt lat="36.5210633" lon="-4.8663833"><ele>73.0</ele><time>2026-04-25T11:42:25.06Z</time></trkpt><trkpt lat="36.52103" lon="-4.8667567"><ele>73.0</ele><time>2026-04-25T11:42:26.057Z</time></trkpt><trkpt lat="36.5209883" lon="-4.86713"><ele>72.0</ele><time>2026-04-25T11:42:27.064Z</time></trkpt><trkpt lat="36.52094" lon="-4.8675"><ele>71.0</ele><time>2026-04-25T11:42:28.065Z</time></trkpt><trkpt lat="36.520885" lon="-4.86787"><ele>70.5</ele><time>2026-04-25T11:42:29.057Z</time></trkpt><trkpt lat="36.520825" lon="-4.8682383"><ele>70.0</ele><time>2026-04-25T11:42:30.062Z</time></trkpt><trkpt lat="36.5207583" lon="-4.8686033"><ele>69.0</ele><time>2026-04-25T11:42:31.065Z</time></trkpt><trkpt lat="36.52069" lon="-4.868965"><ele>68.0</ele><time>2026-04-25T11:42:32.069Z</time></trkpt><trkpt lat="36.5206167" lon="-4.8693233"><ele>68.0</ele><time>2026-04-25T11:42:33.061Z</time></trkpt><trkpt lat="36.5205417" lon="-4.86968"><ele>68.0</ele><time>2026-04-25T11:42:34.063Z</time></trkpt><trkpt lat="36.5204667" lon="-4.8700367"><ele>67.0</ele><time>2026-04-25T11:42:35.063Z</time></trkpt><trkpt lat="36.52039" lon="-4.870395"><ele>66.0</ele><time>2026-04-25T11:42:36.066Z</time></trkpt><trkpt lat="36.5203133" lon="-4.8707533"><ele>67.5</ele><time>2026-04-25T11:42:37.063Z</time></trkpt><trkpt lat="36.5202383" lon="-4.87111"><ele>69.0</ele><time>2026-04-25T11:42:38.063Z</time></trkpt><trkpt lat="36.5201667" lon="-4.8714667"><ele>70.0</ele><time>2026-04-25T11:42:39.06Z</time></trkpt><trkpt lat="36.520095" lon="-4.8718217"><ele>71.0</ele><time>2026-04-25T11:42:40.06Z</time></trkpt><trkpt lat="36.5200283" lon="-4.8721733"><ele>71.0</ele><time>2026-04-25T11:42:41.059Z</time></trkpt><trkpt lat="36.5199683" lon="-4.8725283"><ele>71.0</ele><time>2026-04-25T11:42:42.06Z</time></trkpt><trkpt lat="36.51992" lon="-4.8728833"><ele>71.0</ele><time>2026-04-25T11:42:43.07Z</time></trkpt><trkpt lat="36.51988" lon="-4.8732383"><ele>71.0</ele><time>2026-04-25T11:42:44.067Z</time></trkpt><trkpt lat="36.51985" lon="-4.873595"><ele>71.0</ele><time>2026-04-25T11:42:45.066Z</time></trkpt><trkpt lat="36.51983" lon="-4.8739533"><ele>71.0</ele><time>2026-04-25T11:42:46.061Z</time></trkpt><trkpt lat="36.5198217" lon="-4.87431"><ele>71.5</ele><time>2026-04-25T11:42:47.066Z</time></trkpt><trkpt lat="36.519825" lon="-4.87467"><ele>72.0</ele><time>2026-04-25T11:42:48.061Z</time></trkpt><trkpt lat="36.5198467" lon="-4.8750283"><ele>71.5</ele><time>2026-04-25T11:42:49.068Z</time></trkpt><trkpt lat="36.5198783" lon="-4.875385"><ele>71.0</ele><time>2026-04-25T11:42:50.066Z</time></trkpt><trkpt lat="36.519925" lon="-4.87574"><ele>70.5</ele><time>2026-04-25T11:42:51.068Z</time></trkpt><trkpt lat="36.5199817" lon="-4.8760917"><ele>70.0</ele><time>2026-04-25T11:42:52.063Z</time></trkpt><trkpt lat="36.5200467" lon="-4.8764433"><ele>69.0</ele><time>2026-04-25T11:42:53.066Z</time></trkpt><trkpt lat="36.5201183" lon="-4.8767933"><ele>68.0</ele><time>2026-04-25T11:42:54.064Z</time></trkpt><trkpt lat="36.5201983" lon="-4.87714"><ele>68.0</ele><time>2026-04-25T11:42:55.064Z</time></trkpt><trkpt lat="36.520285" lon="-4.877485"><ele>68.0</ele><time>2026-04-25T11:42:56.063Z</time></trkpt><trkpt lat="36.5203767" lon="-4.8778283"><ele>74.0</ele><time>2026-04-25T11:42:57.062Z</time></trkpt><trkpt lat="36.5204683" lon="-4.87817"><ele>80.0</ele><time>2026-04-25T11:42:58.061Z</time></trkpt><trkpt lat="36.52056" lon="-4.8785117"><ele>80.0</ele><time>2026-04-25T11:42:59.066Z</time></trkpt><trkpt lat="36.5206417" lon="-4.8788533"><ele>80.0</ele><time>2026-04-25T11:43:00.062Z</time></trkpt><trkpt lat="36.5207117" lon="-4.8792"><ele>82.0</ele><time>2026-04-25T11:43:01.062Z</time></trkpt><trkpt lat="36.520765" lon="-4.8795467"><ele>84.0</ele><time>2026-04-25T11:43:02.064Z</time></trkpt><trkpt lat="36.5208017" lon="-4.879895"><ele>81.0</ele><time>2026-04-25T11:43:03.062Z</time></trkpt><trkpt lat="36.52082" lon="-4.8802467"><ele>78.0</ele><time>2026-04-25T11:43:04.06Z</time></trkpt><trkpt lat="36.52083" lon="-4.8805933"><ele>75.5</ele><time>2026-04-25T11:43:05.062Z</time></trkpt><trkpt lat="36.52082" lon="-4.88094"><ele>73.0</ele><time>2026-04-25T11:43:06.065Z</time></trkpt><trkpt lat="36.5207883" lon="-4.8812883"><ele>73.0</ele><time>2026-04-25T11:43:07.063Z</time></trkpt><trkpt lat="36.5207483" lon="-4.8816333"><ele>73.0</ele><time>2026-04-25T11:43:08.062Z</time></trkpt><trkpt lat="36.5206883" lon="-4.8819733"><ele>75.5</ele><time>2026-04-25T11:43:09.063Z</time></trkpt><trkpt lat="36.520615" lon="-4.88231"><ele>78.0</ele><time>2026-04-25T11:43:10.063Z</time></trkpt><trkpt lat="36.520535" lon="-4.88264"><ele>78.0</ele><time>2026-04-25T11:43:11.061Z</time></trkpt><trkpt lat="36.5204533" lon="-4.8829717"><ele>78.0</ele><time>2026-04-25T11:43:12.07Z</time></trkpt><trkpt lat="36.520375" lon="-4.8833033"><ele>74.0</ele><time>2026-04-25T11:43:13.064Z</time></trkpt><trkpt lat="36.5203017" lon="-4.8836333"><ele>70.0</ele><time>2026-04-25T11:43:14.068Z</time></trkpt><trkpt lat="36.52023" lon="-4.8839633"><ele>70.0</ele><time>2026-04-25T11:43:15.06Z</time></trkpt><trkpt lat="36.5201567" lon="-4.8842933"><ele>70.0</ele><time>2026-04-25T11:43:16.06Z</time></trkpt><trkpt lat="36.5200817" lon="-4.88462"><ele>70.0</ele><time>2026-04-25T11:43:17.066Z</time></trkpt><trkpt lat="36.5200083" lon="-4.884945"><ele>70.0</ele><time>2026-04-25T11:43:18.067Z</time></trkpt><trkpt lat="36.5199333" lon="-4.8852717"><ele>73.0</ele><time>2026-04-25T11:43:19.063Z</time></trkpt><trkpt lat="36.5198617" lon="-4.8856"><ele>76.0</ele><time>2026-04-25T11:43:20.066Z</time></trkpt><trkpt lat="36.51979" lon="-4.885935"><ele>76.5</ele><time>2026-04-25T11:43:21.063Z</time></trkpt><trkpt lat="36.51972" lon="-4.886275"><ele>77.0</ele><time>2026-04-25T11:43:22.065Z</time></trkpt><trkpt lat="36.5196483" lon="-4.8866167"><ele>76.0</ele><time>2026-04-25T11:43:23.062Z</time></trkpt><trkpt lat="36.5195783" lon="-4.88696"><ele>75.0</ele><time>2026-04-25T11:43:24.068Z</time></trkpt><trkpt lat="36.5195133" lon="-4.88731"><ele>69.5</ele><time>2026-04-25T11:43:25.07Z</time></trkpt><trkpt lat="36.51945" lon="-4.88766"><ele>64.0</ele><time>2026-04-25T11:43:26.065Z</time></trkpt><trkpt lat="36.5193933" lon="-4.8880167"><ele>64.0</ele><time>2026-04-25T11:43:27.062Z</time></trkpt><trkpt lat="36.51934" lon="-4.8883767"><ele>64.0</ele><time>2026-04-25T11:43:28.062Z</time></trkpt><trkpt lat="36.519295" lon="-4.8887417"><ele>65.5</ele><time>2026-04-25T11:43:29.061Z</time></trkpt><trkpt lat="36.519255" lon="-4.8891083"><ele>67.0</ele><time>2026-04-25T11:43:30.064Z</time></trkpt><trkpt lat="36.5192167" lon="-4.8894767"><ele>69.0</ele><time>2026-04-25T11:43:31.064Z</time></trkpt><trkpt lat="36.5191833" lon="-4.8898483"><ele>71.0</ele><time>2026-04-25T11:43:32.063Z</time></trkpt><trkpt lat="36.5191517" lon="-4.89022"><ele>72.5</ele><time>2026-04-25T11:43:33.061Z</time></trkpt><trkpt lat="36.5191217" lon="-4.89059"><ele>74.0</ele><time>2026-04-25T11:43:34.064Z</time></trkpt><trkpt lat="36.5190933" lon="-4.890955"><ele>76.0</ele><time>2026-04-25T11:43:35.065Z</time></trkpt><trkpt lat="36.5190583" lon="-4.89132"><ele>78.0</ele><time>2026-04-25T11:43:36.064Z</time></trkpt><trkpt lat="36.5190133" lon="-4.8916833"><ele>79.0</ele><time>2026-04-25T11:43:37.06Z</time></trkpt><trkpt lat="36.51896" lon="-4.8920417"><ele>80.0</ele><time>2026-04-25T11:43:38.071Z</time></trkpt><trkpt lat="36.5188983" lon="-4.892395"><ele>82.0</ele><time>2026-04-25T11:43:39.059Z</time></trkpt><trkpt lat="36.5188283" lon="-4.8927433"><ele>84.0</ele><time>2026-04-25T11:43:40.062Z</time></trkpt><trkpt lat="36.5187517" lon="-4.89309"><ele>83.5</ele><time>2026-04-25T11:43:41.061Z</time></trkpt><trkpt lat="36.518665" lon="-4.8934333"><ele>83.0</ele><time>2026-04-25T11:43:42.067Z</time></trkpt><trkpt lat="36.51857" lon="-4.89377"><ele>83.0</ele><time>2026-04-25T11:43:43.065Z</time></trkpt><trkpt lat="36.5184667" lon="-4.894105"><ele>83.0</ele><time>2026-04-25T11:43:44.064Z</time></trkpt><trkpt lat="36.5183567" lon="-4.89444"><ele>83.5</ele><time>2026-04-25T11:43:45.063Z</time></trkpt><trkpt lat="36.5182483" lon="-4.894775"><ele>84.0</ele><time>2026-04-25T11:43:46.061Z</time></trkpt><trkpt lat="36.51814" lon="-4.8951067"><ele>86.5</ele><time>2026-04-25T11:43:47.061Z</time></trkpt><trkpt lat="36.5180333" lon="-4.8954383"><ele>89.0</ele><time>2026-04-25T11:43:48.064Z</time></trkpt><trkpt lat="36.517925" lon="-4.8957683"><ele>86.5</ele><time>2026-04-25T11:43:49.064Z</time></trkpt><trkpt lat="36.5178167" lon="-4.8960933"><ele>84.0</ele><time>2026-04-25T11:43:50.063Z</time></trkpt><trkpt lat="36.51771" lon="-4.89642"><ele>84.0</ele><time>2026-04-25T11:43:51.065Z</time></trkpt><trkpt lat="36.517605" lon="-4.8967483"><ele>84.0</ele><time>2026-04-25T11:43:52.064Z</time></trkpt><trkpt lat="36.5174967" lon="-4.89708"><ele>84.5</ele><time>2026-04-25T11:43:53.06Z</time></trkpt><trkpt lat="36.5173867" lon="-4.8974133"><ele>85.0</ele><time>2026-04-25T11:43:54.064Z</time></trkpt><trkpt lat="36.5172767" lon="-4.8977533"><ele>85.0</ele><time>2026-04-25T11:43:55.062Z</time></trkpt><trkpt lat="36.517165" lon="-4.8980967"><ele>85.0</ele><time>2026-04-25T11:43:56.061Z</time></trkpt><trkpt lat="36.5170533" lon="-4.8984417"><ele>81.0</ele><time>2026-04-25T11:43:57.063Z</time></trkpt><trkpt lat="36.5169517" lon="-4.8987933"><ele>77.0</ele><time>2026-04-25T11:43:58.064Z</time></trkpt><trkpt lat="36.5168617" lon="-4.8991567"><ele>78.0</ele><time>2026-04-25T11:43:59.064Z</time></trkpt><trkpt lat="36.51678" lon="-4.8995233"><ele>79.0</ele><time>2026-04-25T11:44:00.06Z</time></trkpt><trkpt lat="36.5167117" lon="-4.8998983"><ele>78.5</ele><time>2026-04-25T11:44:01.061Z</time></trkpt><trkpt lat="36.51665" lon="-4.9002717"><ele>78.0</ele><time>2026-04-25T11:44:02.064Z</time></trkpt><trkpt lat="36.5165967" lon="-4.9006417"><ele>76.0</ele><time>2026-04-25T11:44:03.065Z</time></trkpt><trkpt lat="36.5165617" lon="-4.9010133"><ele>74.0</ele><time>2026-04-25T11:44:04.065Z</time></trkpt><trkpt lat="36.5165417" lon="-4.9013833"><ele>74.0</ele><time>2026-04-25T11:44:05.064Z</time></trkpt><trkpt lat="36.5165217" lon="-4.9017483"><ele>74.0</ele><time>2026-04-25T11:44:06.063Z</time></trkpt><trkpt lat="36.5165233" lon="-4.9021183"><ele>69.5</ele><time>2026-04-25T11:44:07.061Z</time></trkpt><trkpt lat="36.5165283" lon="-4.9024917"><ele>65.0</ele><time>2026-04-25T11:44:08.066Z</time></trkpt><trkpt lat="36.5165317" lon="-4.9028717"><ele>59.0</ele><time>2026-04-25T11:44:09.064Z</time></trkpt><trkpt lat="36.516535" lon="-4.9032483"><ele>53.0</ele><time>2026-04-25T11:44:10.065Z</time></trkpt><trkpt lat="36.5165367" lon="-4.9036267"><ele>53.0</ele><time>2026-04-25T11:44:11.064Z</time></trkpt><trkpt lat="36.516535" lon="-4.9040067"><ele>53.0</ele><time>2026-04-25T11:44:12.064Z</time></trkpt><trkpt lat="36.5165333" lon="-4.9043883"><ele>59.5</ele><time>2026-04-25T11:44:13.064Z</time></trkpt><trkpt lat="36.5165317" lon="-4.9047717"><ele>66.0</ele><time>2026-04-25T11:44:14.065Z</time></trkpt><trkpt lat="36.5165333" lon="-4.905155"><ele>67.0</ele><time>2026-04-25T11:44:15.064Z</time></trkpt><trkpt lat="36.5165333" lon="-4.9055383"><ele>68.0</ele><time>2026-04-25T11:44:16.065Z</time></trkpt><trkpt lat="36.5165283" lon="-4.9059233"><ele>68.0</ele><time>2026-04-25T11:44:17.06Z</time></trkpt><trkpt lat="36.5165183" lon="-4.9063033"><ele>68.0</ele><time>2026-04-25T11:44:18.062Z</time></trkpt><trkpt lat="36.5164917" lon="-4.9066783"><ele>70.5</ele><time>2026-04-25T11:44:19.065Z</time></trkpt><trkpt lat="36.51644" lon="-4.9070517"><ele>73.0</ele><time>2026-04-25T11:44:20.067Z</time></trkpt><trkpt lat="36.51637" lon="-4.90742"><ele>72.0</ele><time>2026-04-25T11:44:21.067Z</time></trkpt><trkpt lat="36.5162867" lon="-4.9077817"><ele>71.0</ele><time>2026-04-25T11:44:22.068Z</time></trkpt><trkpt lat="36.51619" lon="-4.9081367"><ele>73.0</ele><time>2026-04-25T11:44:23.062Z</time></trkpt><trkpt lat="36.516075" lon="-4.9084833"><ele>75.0</ele><time>2026-04-25T11:44:24.064Z</time></trkpt><trkpt lat="36.5159517" lon="-4.9088217"><ele>75.0</ele><time>2026-04-25T11:44:25.061Z</time></trkpt><trkpt lat="36.51582" lon="-4.90916"><ele>75.0</ele><time>2026-04-25T11:44:26.062Z</time></trkpt><trkpt lat="36.5156917" lon="-4.9094983"><ele>77.0</ele><time>2026-04-25T11:44:27.064Z</time></trkpt><trkpt lat="36.5155633" lon="-4.909835"><ele>79.0</ele><time>2026-04-25T11:44:28.068Z</time></trkpt><trkpt lat="36.5154367" lon="-4.910175"><ele>76.0</ele><time>2026-04-25T11:44:29.061Z</time></trkpt><trkpt lat="36.5153133" lon="-4.9105183"><ele>73.0</ele><time>2026-04-25T11:44:30.063Z</time></trkpt><trkpt lat="36.5151933" lon="-4.9108667"><ele>75.0</ele><time>2026-04-25T11:44:31.062Z</time></trkpt><trkpt lat="36.5150733" lon="-4.9112183"><ele>77.0</ele><time>2026-04-25T11:44:32.061Z</time></trkpt><trkpt lat="36.5149583" lon="-4.9115733"><ele>77.0</ele><time>2026-04-25T11:44:33.061Z</time></trkpt><trkpt lat="36.5148517" lon="-4.9119333"><ele>77.0</ele><time>2026-04-25T11:44:34.066Z</time></trkpt><trkpt lat="36.5147583" lon="-4.9122967"><ele>78.5</ele><time>2026-04-25T11:44:35.065Z</time></trkpt><trkpt lat="36.5146717" lon="-4.912665"><ele>80.0</ele><time>2026-04-25T11:44:36.062Z</time></trkpt><trkpt lat="36.514595" lon="-4.91304"><ele>75.0</ele><time>2026-04-25T11:44:37.066Z</time></trkpt><trkpt lat="36.5145283" lon="-4.9134167"><ele>70.0</ele><time>2026-04-25T11:44:38.065Z</time></trkpt><trkpt lat="36.51447" lon="-4.9137983"><ele>70.0</ele><time>2026-04-25T11:44:39.066Z</time></trkpt><trkpt lat="36.514415" lon="-4.91418"><ele>70.0</ele><time>2026-04-25T11:44:40.064Z</time></trkpt><trkpt lat="36.5143583" lon="-4.9145633"><ele>69.0</ele><time>2026-04-25T11:44:41.063Z</time></trkpt><trkpt lat="36.5143033" lon="-4.9149467"><ele>68.0</ele><time>2026-04-25T11:44:42.061Z</time></trkpt><trkpt lat="36.5142467" lon="-4.9153267"><ele>68.0</ele><time>2026-04-25T11:44:43.064Z</time></trkpt><trkpt lat="36.5141917" lon="-4.9157083"><ele>68.0</ele><time>2026-04-25T11:44:44.061Z</time></trkpt><trkpt lat="36.5141367" lon="-4.9160867"><ele>69.0</ele><time>2026-04-25T11:44:45.063Z</time></trkpt><trkpt lat="36.5140783" lon="-4.916465"><ele>70.0</ele><time>2026-04-25T11:44:46.062Z</time></trkpt><trkpt lat="36.5140233" lon="-4.9168417"><ele>70.5</ele><time>2026-04-25T11:44:47.065Z</time></trkpt><trkpt lat="36.5139683" lon="-4.9172183"><ele>71.0</ele><time>2026-04-25T11:44:48.063Z</time></trkpt><trkpt lat="36.513915" lon="-4.917595"><ele>69.5</ele><time>2026-04-25T11:44:49.062Z</time></trkpt><trkpt lat="36.513865" lon="-4.91797"><ele>68.0</ele><time>2026-04-25T11:44:50.063Z</time></trkpt><trkpt lat="36.5138167" lon="-4.918345"><ele>67.5</ele><time>2026-04-25T11:44:51.062Z</time></trkpt><trkpt lat="36.5137667" lon="-4.91872"><ele>67.0</ele><time>2026-04-25T11:44:52.065Z</time></trkpt><trkpt lat="36.513715" lon="-4.9190917"><ele>67.5</ele><time>2026-04-25T11:44:53.064Z</time></trkpt><trkpt lat="36.513665" lon="-4.9194583"><ele>68.0</ele><time>2026-04-25T11:44:54.065Z</time></trkpt><trkpt lat="36.5136133" lon="-4.9198217"><ele>68.5</ele><time>2026-04-25T11:44:55.064Z</time></trkpt><trkpt lat="36.5135617" lon="-4.920185"><ele>69.0</ele><time>2026-04-25T11:44:56.064Z</time></trkpt><trkpt lat="36.51351" lon="-4.9205467"><ele>68.5</ele><time>2026-04-25T11:44:57.067Z</time></trkpt><trkpt lat="36.5134633" lon="-4.9209"><ele>68.0</ele><time>2026-04-25T11:44:58.063Z</time></trkpt><trkpt lat="36.5134183" lon="-4.9212483"><ele>68.0</ele><time>2026-04-25T11:44:59.07Z</time></trkpt><trkpt lat="36.513375" lon="-4.9215967"><ele>68.0</ele><time>2026-04-25T11:45:00.063Z</time></trkpt><trkpt lat="36.51333" lon="-4.9219433"><ele>67.0</ele><time>2026-04-25T11:45:01.066Z</time></trkpt><trkpt lat="36.5132833" lon="-4.9222883"><ele>66.0</ele><time>2026-04-25T11:45:02.063Z</time></trkpt><trkpt lat="36.51324" lon="-4.9226333"><ele>65.0</ele><time>2026-04-25T11:45:03.065Z</time></trkpt><trkpt lat="36.5132067" lon="-4.9229817"><ele>64.0</ele><time>2026-04-25T11:45:04.064Z</time></trkpt><trkpt lat="36.5131767" lon="-4.9233333"><ele>64.5</ele><time>2026-04-25T11:45:05.064Z</time></trkpt><trkpt lat="36.5131517" lon="-4.9236833"><ele>65.0</ele><time>2026-04-25T11:45:06.07Z</time></trkpt><trkpt lat="36.5131333" lon="-4.9240317"><ele>66.0</ele><time>2026-04-25T11:45:07.06Z</time></trkpt><trkpt lat="36.51312" lon="-4.924375"><ele>67.0</ele><time>2026-04-25T11:45:08.061Z</time></trkpt><trkpt lat="36.5131067" lon="-4.9247133"><ele>67.0</ele><time>2026-04-25T11:45:09.06Z</time></trkpt><trkpt lat="36.5130933" lon="-4.92505"><ele>67.0</ele><time>2026-04-25T11:45:10.061Z</time></trkpt><trkpt lat="36.5130783" lon="-4.9253883"><ele>66.5</ele><time>2026-04-25T11:45:11.066Z</time></trkpt><trkpt lat="36.513065" lon="-4.9257317"><ele>66.0</ele><time>2026-04-25T11:45:12.063Z</time></trkpt><trkpt lat="36.5130483" lon="-4.926075"><ele>65.0</ele><time>2026-04-25T11:45:13.063Z</time></trkpt><trkpt lat="36.51303" lon="-4.9264183"><ele>64.0</ele><time>2026-04-25T11:45:14.064Z</time></trkpt><trkpt lat="36.5130183" lon="-4.92676"><ele>62.5</ele><time>2026-04-25T11:45:15.061Z</time></trkpt><trkpt lat="36.5130083" lon="-4.9271017"><ele>61.0</ele><time>2026-04-25T11:45:16.061Z</time></trkpt><trkpt lat="36.5129917" lon="-4.9274433"><ele>60.0</ele><time>2026-04-25T11:45:17.062Z</time></trkpt><trkpt lat="36.5129767" lon="-4.9277867"><ele>59.0</ele><time>2026-04-25T11:45:18.064Z</time></trkpt><trkpt lat="36.5129667" lon="-4.9281283"><ele>57.5</ele><time>2026-04-25T11:45:19.062Z</time></trkpt><trkpt lat="36.5129633" lon="-4.9284717"><ele>56.0</ele><time>2026-04-25T11:45:20.062Z</time></trkpt><trkpt lat="36.5129717" lon="-4.928815"><ele>56.0</ele><time>2026-04-25T11:45:21.067Z</time></trkpt><trkpt lat="36.5129967" lon="-4.9291583"><ele>56.0</ele><time>2026-04-25T11:45:22.058Z</time></trkpt><trkpt lat="36.5130367" lon="-4.9295"><ele>57.0</ele><time>2026-04-25T11:45:23.065Z</time></trkpt><trkpt lat="36.5130917" lon="-4.9298367"><ele>58.0</ele><time>2026-04-25T11:45:24.063Z</time></trkpt><trkpt lat="36.5131567" lon="-4.9301733"><ele>59.0</ele><time>2026-04-25T11:45:25.063Z</time></trkpt><trkpt lat="36.513235" lon="-4.9305033"><ele>60.0</ele><time>2026-04-25T11:45:26.062Z</time></trkpt><trkpt lat="36.5133233" lon="-4.9308283"><ele>61.0</ele><time>2026-04-25T11:45:27.066Z</time></trkpt><trkpt lat="36.5134233" lon="-4.9311517"><ele>62.0</ele><time>2026-04-25T11:45:28.062Z</time></trkpt><trkpt lat="36.513535" lon="-4.9314683"><ele>61.0</ele><time>2026-04-25T11:45:29.059Z</time></trkpt><trkpt lat="36.51366" lon="-4.93178"><ele>60.0</ele><time>2026-04-25T11:45:30.065Z</time></trkpt><trkpt lat="36.5137983" lon="-4.9320867"><ele>60.0</ele><time>2026-04-25T11:45:31.063Z</time></trkpt><trkpt lat="36.513945" lon="-4.93239"><ele>60.0</ele><time>2026-04-25T11:45:32.062Z</time></trkpt><trkpt lat="36.5140983" lon="-4.9326867"><ele>59.0</ele><time>2026-04-25T11:45:33.065Z</time></trkpt><trkpt lat="36.51426" lon="-4.9329783"><ele>58.0</ele><time>2026-04-25T11:45:34.066Z</time></trkpt><trkpt lat="36.5144217" lon="-4.93327"><ele>60.0</ele><time>2026-04-25T11:45:35.061Z</time></trkpt><trkpt lat="36.514585" lon="-4.933565"><ele>62.0</ele><time>2026-04-25T11:45:36.062Z</time></trkpt><trkpt lat="36.5147483" lon="-4.9338617"><ele>62.0</ele><time>2026-04-25T11:45:37.067Z</time></trkpt><trkpt lat="36.5149167" lon="-4.9341567"><ele>62.0</ele><time>2026-04-25T11:45:38.064Z</time></trkpt><trkpt lat="36.5150917" lon="-4.93445"><ele>64.5</ele><time>2026-04-25T11:45:39.064Z</time></trkpt><trkpt lat="36.5152733" lon="-4.9347383"><ele>67.0</ele><time>2026-04-25T11:45:40.06Z</time></trkpt><trkpt lat="36.51547" lon="-4.935015"><ele>70.0</ele><time>2026-04-25T11:45:41.066Z</time></trkpt><trkpt lat="36.5156767" lon="-4.9352783"><ele>73.0</ele><time>2026-04-25T11:45:42.065Z</time></trkpt><trkpt lat="36.5158917" lon="-4.93553"><ele>73.0</ele><time>2026-04-25T11:45:43.066Z</time></trkpt><trkpt lat="36.5161167" lon="-4.9357733"><ele>73.0</ele><time>2026-04-25T11:45:44.064Z</time></trkpt><trkpt lat="36.5163483" lon="-4.936005"><ele>79.0</ele><time>2026-04-25T11:45:45.065Z</time></trkpt><trkpt lat="36.5165867" lon="-4.936225"><ele>85.0</ele><time>2026-04-25T11:45:46.064Z</time></trkpt><trkpt lat="36.5168317" lon="-4.9364367"><ele>89.0</ele><time>2026-04-25T11:45:47.066Z</time></trkpt><trkpt lat="36.5170833" lon="-4.9366383"><ele>93.0</ele><time>2026-04-25T11:45:48.063Z</time></trkpt><trkpt lat="36.51734" lon="-4.93683"><ele>93.0</ele><time>2026-04-25T11:45:49.065Z</time></trkpt><trkpt lat="36.5176" lon="-4.9370167"><ele>93.0</ele><time>2026-04-25T11:45:50.059Z</time></trkpt><trkpt lat="36.5178617" lon="-4.9372017"><ele>95.0</ele><time>2026-04-25T11:45:51.065Z</time></trkpt><trkpt lat="36.518125" lon="-4.937385"><ele>97.0</ele><time>2026-04-25T11:45:52.061Z</time></trkpt><trkpt lat="36.5183883" lon="-4.9375717"><ele>99.5</ele><time>2026-04-25T11:45:53.062Z</time></trkpt><trkpt lat="36.5186517" lon="-4.93776"><ele>102.0</ele><time>2026-04-25T11:45:54.062Z</time></trkpt><trkpt lat="36.518915" lon="-4.9379533"><ele>102.0</ele><time>2026-04-25T11:45:55.059Z</time></trkpt><trkpt lat="36.51918" lon="-4.93815"><ele>102.0</ele><time>2026-04-25T11:45:56.063Z</time></trkpt><trkpt lat="36.519445" lon="-4.93835"><ele>100.5</ele><time>2026-04-25T11:45:57.066Z</time></trkpt><trkpt lat="36.5197117" lon="-4.9385533"><ele>99.0</ele><time>2026-04-25T11:45:58.064Z</time></trkpt><trkpt lat="36.5199767" lon="-4.9387583"><ele>99.0</ele><time>2026-04-25T11:45:59.064Z</time></trkpt><trkpt lat="36.5202417" lon="-4.938965"><ele>99.0</ele><time>2026-04-25T11:46:00.061Z</time></trkpt><trkpt lat="36.5205067" lon="-4.9391733"><ele>100.5</ele><time>2026-04-25T11:46:01.063Z</time></trkpt><trkpt lat="36.5207633" lon="-4.9393883"><ele>102.0</ele><time>2026-04-25T11:46:02.061Z</time></trkpt><trkpt lat="36.5210167" lon="-4.93961"><ele>101.0</ele><time>2026-04-25T11:46:03.07Z</time></trkpt><trkpt lat="36.5212667" lon="-4.9398367"><ele>100.0</ele><time>2026-04-25T11:46:04.06Z</time></trkpt><trkpt lat="36.5215133" lon="-4.9400717"><ele>97.0</ele><time>2026-04-25T11:46:05.063Z</time></trkpt><trkpt lat="36.521755" lon="-4.9403133"><ele>94.0</ele><time>2026-04-25T11:46:06.066Z</time></trkpt><trkpt lat="36.5219917" lon="-4.9405617"><ele>94.0</ele><time>2026-04-25T11:46:07.067Z</time></trkpt><trkpt lat="36.5222233" lon="-4.9408183"><ele>94.0</ele><time>2026-04-25T11:46:08.069Z</time></trkpt><trkpt lat="36.5224517" lon="-4.94108"><ele>95.5</ele><time>2026-04-25T11:46:09.062Z</time></trkpt><trkpt lat="36.5226733" lon="-4.9413483"><ele>97.0</ele><time>2026-04-25T11:46:10.061Z</time></trkpt><trkpt lat="36.5228933" lon="-4.9416217"><ele>101.0</ele><time>2026-04-25T11:46:11.07Z</time></trkpt><trkpt lat="36.523105" lon="-4.9419"><ele>105.0</ele><time>2026-04-25T11:46:12.068Z</time></trkpt><trkpt lat="36.5233117" lon="-4.9421833"><ele>105.0</ele><time>2026-04-25T11:46:13.066Z</time></trkpt><trkpt lat="36.52351" lon="-4.9424717"><ele>105.0</ele><time>2026-04-25T11:46:14.067Z</time></trkpt><trkpt lat="36.5237033" lon="-4.942765"><ele>108.0</ele><time>2026-04-25T11:46:15.067Z</time></trkpt><trkpt lat="36.5238883" lon="-4.943065"><ele>111.0</ele><time>2026-04-25T11:46:16.058Z</time></trkpt><trkpt lat="36.5240667" lon="-4.94337"><ele>108.5</ele><time>2026-04-25T11:46:17.06Z</time></trkpt><trkpt lat="36.5242417" lon="-4.94368"><ele>106.0</ele><time>2026-04-25T11:46:18.059Z</time></trkpt><trkpt lat="36.5244133" lon="-4.9439933"><ele>112.5</ele><time>2026-04-25T11:46:19.066Z</time></trkpt><trkpt lat="36.5245717" lon="-4.94431"><ele>119.0</ele><time>2026-04-25T11:46:20.069Z</time></trkpt><trkpt lat="36.524725" lon="-4.9446317"><ele>119.0</ele><time>2026-04-25T11:46:21.062Z</time></trkpt><trkpt lat="36.524875" lon="-4.944955"><ele>119.0</ele><time>2026-04-25T11:46:22.059Z</time></trkpt><trkpt lat="36.52502" lon="-4.945285"><ele>118.0</ele><time>2026-04-25T11:46:23.063Z</time></trkpt><trkpt lat="36.5251533" lon="-4.9456217"><ele>117.0</ele><time>2026-04-25T11:46:24.064Z</time></trkpt><trkpt lat="36.52528" lon="-4.9459617"><ele>122.5</ele><time>2026-04-25T11:46:25.064Z</time></trkpt><trkpt lat="36.5254033" lon="-4.9463"><ele>128.0</ele><time>2026-04-25T11:46:26.068Z</time></trkpt><trkpt lat="36.5255183" lon="-4.94664"><ele>125.0</ele><time>2026-04-25T11:46:27.062Z</time></trkpt><trkpt lat="36.5256267" lon="-4.94698"><ele>122.0</ele><time>2026-04-25T11:46:28.065Z</time></trkpt><trkpt lat="36.5257283" lon="-4.9473167"><ele>120.0</ele><time>2026-04-25T11:46:29.063Z</time></trkpt><trkpt lat="36.5258217" lon="-4.947655"><ele>118.0</ele><time>2026-04-25T11:46:30.064Z</time></trkpt><trkpt lat="36.525905" lon="-4.9479933"><ele>118.0</ele><time>2026-04-25T11:46:31.066Z</time></trkpt><trkpt lat="36.5259833" lon="-4.9483317"><ele>118.0</ele><time>2026-04-25T11:46:32.068Z</time></trkpt><trkpt lat="36.5260567" lon="-4.9486717"><ele>109.5</ele><time>2026-04-25T11:46:33.059Z</time></trkpt><trkpt lat="36.52612" lon="-4.949015"><ele>101.0</ele><time>2026-04-25T11:46:34.062Z</time></trkpt><trkpt lat="36.52618" lon="-4.94936"><ele>92.5</ele><time>2026-04-25T11:46:35.062Z</time></trkpt><trkpt lat="36.5262333" lon="-4.9497083"><ele>84.0</ele><time>2026-04-25T11:46:36.069Z</time></trkpt><trkpt lat="36.5262817" lon="-4.9500583"><ele>82.5</ele><time>2026-04-25T11:46:37.063Z</time></trkpt><trkpt lat="36.5263233" lon="-4.95041"><ele>81.0</ele><time>2026-04-25T11:46:38.063Z</time></trkpt><trkpt lat="36.5263617" lon="-4.95076"><ele>80.5</ele><time>2026-04-25T11:46:39.064Z</time></trkpt><trkpt lat="36.5263917" lon="-4.9511133"><ele>80.0</ele><time>2026-04-25T11:46:40.063Z</time></trkpt><trkpt lat="36.5264133" lon="-4.9514667"><ele>82.5</ele><time>2026-04-25T11:46:41.065Z</time></trkpt><trkpt lat="36.5264267" lon="-4.9518217"><ele>85.0</ele><time>2026-04-25T11:46:42.061Z</time></trkpt><trkpt lat="36.5264333" lon="-4.9521767"><ele>85.0</ele><time>2026-04-25T11:46:43.063Z</time></trkpt><trkpt lat="36.5264333" lon="-4.95253"><ele>85.0</ele><time>2026-04-25T11:46:44.066Z</time></trkpt><trkpt lat="36.5264267" lon="-4.9528833"><ele>85.5</ele><time>2026-04-25T11:46:45.064Z</time></trkpt><trkpt lat="36.526415" lon="-4.9532383"><ele>86.0</ele><time>2026-04-25T11:46:46.06Z</time></trkpt><trkpt lat="36.5263983" lon="-4.9535917"><ele>78.5</ele><time>2026-04-25T11:46:47.061Z</time></trkpt><trkpt lat="36.5263767" lon="-4.9539417"><ele>71.0</ele><time>2026-04-25T11:46:48.061Z</time></trkpt><trkpt lat="36.5263467" lon="-4.9542933"><ele>65.5</ele><time>2026-04-25T11:46:49.06Z</time></trkpt><trkpt lat="36.5263117" lon="-4.9546433"><ele>60.0</ele><time>2026-04-25T11:46:50.059Z</time></trkpt><trkpt lat="36.5262717" lon="-4.9549917"><ele>52.0</ele><time>2026-04-25T11:46:51.061Z</time></trkpt><trkpt lat="36.5262283" lon="-4.9553417"><ele>44.0</ele><time>2026-04-25T11:46:52.062Z</time></trkpt><trkpt lat="36.5261817" lon="-4.9556917"><ele>41.0</ele><time>2026-04-25T11:46:53.061Z</time></trkpt><trkpt lat="36.5261283" lon="-4.95604"><ele>38.0</ele><time>2026-04-25T11:46:54.064Z</time></trkpt><trkpt lat="36.5260767" lon="-4.9563917"><ele>40.0</ele><time>2026-04-25T11:46:55.066Z</time></trkpt><trkpt lat="36.52603" lon="-4.9567467"><ele>42.0</ele><time>2026-04-25T11:46:56.068Z</time></trkpt><trkpt lat="36.525985" lon="-4.9570983"><ele>42.0</ele><time>2026-04-25T11:46:57.065Z</time></trkpt><trkpt lat="36.5259467" lon="-4.95745"><ele>42.0</ele><time>2026-04-25T11:46:58.064Z</time></trkpt><trkpt lat="36.5259117" lon="-4.9577967"><ele>59.0</ele><time>2026-04-25T11:46:59.064Z</time></trkpt><trkpt lat="36.525885" lon="-4.9581433"><ele>76.0</ele><time>2026-04-25T11:47:00.063Z</time></trkpt><trkpt lat="36.5258683" lon="-4.95848"><ele>87.5</ele><time>2026-04-25T11:47:01.063Z</time></trkpt><trkpt lat="36.5258567" lon="-4.9588017"><ele>99.0</ele><time>2026-04-25T11:47:02.064Z</time></trkpt><trkpt lat="36.5258533" lon="-4.9591167"><ele>105.0</ele><time>2026-04-25T11:47:03.066Z</time></trkpt><trkpt lat="36.525855" lon="-4.9594283"><ele>111.0</ele><time>2026-04-25T11:47:04.066Z</time></trkpt><trkpt lat="36.5258633" lon="-4.95974"><ele>121.5</ele><time>2026-04-25T11:47:05.064Z</time></trkpt><trkpt lat="36.5258783" lon="-4.960055"><ele>132.0</ele><time>2026-04-25T11:47:06.066Z</time></trkpt><trkpt lat="36.5259" lon="-4.9603733"><ele>132.0</ele><time>2026-04-25T11:47:07.065Z</time></trkpt><trkpt lat="36.5259283" lon="-4.9606933"><ele>132.0</ele><time>2026-04-25T11:47:08.064Z</time></trkpt><trkpt lat="36.5259667" lon="-4.96102"><ele>144.0</ele><time>2026-04-25T11:47:09.06Z</time></trkpt><trkpt lat="36.526015" lon="-4.9613517"><ele>156.0</ele><time>2026-04-25T11:47:10.058Z</time></trkpt><trkpt lat="36.5260617" lon="-4.96169"><ele>151.5</ele><time>2026-04-25T11:47:11.069Z</time></trkpt><trkpt lat="36.526105" lon="-4.96203"><ele>147.0</ele><time>2026-04-25T11:47:12.063Z</time></trkpt><trkpt lat="36.5261517" lon="-4.9623683"><ele>142.0</ele><time>2026-04-25T11:47:13.063Z</time></trkpt><trkpt lat="36.5261967" lon="-4.962705"><ele>137.0</ele><time>2026-04-25T11:47:14.068Z</time></trkpt><trkpt lat="36.5262367" lon="-4.9630467"><ele>132.0</ele><time>2026-04-25T11:47:15.061Z</time></trkpt><trkpt lat="36.5262867" lon="-4.9633783"><ele>127.0</ele><time>2026-04-25T11:47:16.06Z</time></trkpt><trkpt lat="36.5264083" lon="-4.963675"><ele>127.0</ele><time>2026-04-25T11:47:17.066Z</time></trkpt><trkpt lat="36.5264383" lon="-4.9640033"><ele>127.0</ele><time>2026-04-25T11:47:18.059Z</time></trkpt><trkpt lat="36.526475" lon="-4.964345"><ele>123.5</ele><time>2026-04-25T11:47:19.059Z</time></trkpt><trkpt lat="36.526495" lon="-4.9646883"><ele>120.0</ele><time>2026-04-25T11:47:20.061Z</time></trkpt><trkpt lat="36.526525" lon="-4.96503"><ele>117.0</ele><time>2026-04-25T11:47:21.062Z</time></trkpt><trkpt lat="36.52655" lon="-4.9653683"><ele>114.0</ele><time>2026-04-25T11:47:22.065Z</time></trkpt><trkpt lat="36.5265667" lon="-4.96571"><ele>114.0</ele><time>2026-04-25T11:47:23.066Z</time></trkpt><trkpt lat="36.5265783" lon="-4.9660533"><ele>114.0</ele><time>2026-04-25T11:47:24.062Z</time></trkpt><trkpt lat="36.526585" lon="-4.966395"><ele>112.5</ele><time>2026-04-25T11:47:25.062Z</time></trkpt><trkpt lat="36.5265883" lon="-4.96674"><ele>111.0</ele><time>2026-04-25T11:47:26.065Z</time></trkpt><trkpt lat="36.5265867" lon="-4.9670883"><ele>111.0</ele><time>2026-04-25T11:47:27.067Z</time></trkpt><trkpt lat="36.5265817" lon="-4.9674367"><ele>111.0</ele><time>2026-04-25T11:47:28.064Z</time></trkpt><trkpt lat="36.5265667" lon="-4.9677867"><ele>112.5</ele><time>2026-04-25T11:47:29.061Z</time></trkpt><trkpt lat="36.5265433" lon="-4.9681367"><ele>114.0</ele><time>2026-04-25T11:47:30.063Z</time></trkpt><trkpt lat="36.526515" lon="-4.968485"><ele>119.5</ele><time>2026-04-25T11:47:31.059Z</time></trkpt><trkpt lat="36.5264817" lon="-4.9688333"><ele>125.0</ele><time>2026-04-25T11:47:32.059Z</time></trkpt><trkpt lat="36.5264417" lon="-4.96918"><ele>131.0</ele><time>2026-04-25T11:47:33.061Z</time></trkpt><trkpt lat="36.5263967" lon="-4.9695283"><ele>137.0</ele><time>2026-04-25T11:47:34.063Z</time></trkpt><trkpt lat="36.52634" lon="-4.96988"><ele>139.5</ele><time>2026-04-25T11:47:35.064Z</time></trkpt><trkpt lat="36.5262717" lon="-4.97023"><ele>142.0</ele><time>2026-04-25T11:47:36.065Z</time></trkpt><trkpt lat="36.5262" lon="-4.9705833"><ele>136.0</ele><time>2026-04-25T11:47:37.057Z</time></trkpt><trkpt lat="36.526125" lon="-4.9709367"><ele>130.0</ele><time>2026-04-25T11:47:38.067Z</time></trkpt><trkpt lat="36.52604" lon="-4.97129"><ele>130.0</ele><time>2026-04-25T11:47:39.06Z</time></trkpt><trkpt lat="36.5259517" lon="-4.971645"><ele>130.0</ele><time>2026-04-25T11:47:40.063Z</time></trkpt><trkpt lat="36.5258533" lon="-4.971995"><ele>126.0</ele><time>2026-04-25T11:47:41.061Z</time></trkpt><trkpt lat="36.525745" lon="-4.972345"><ele>122.0</ele><time>2026-04-25T11:47:42.063Z</time></trkpt><trkpt lat="36.5256283" lon="-4.9726917"><ele>120.5</ele><time>2026-04-25T11:47:43.064Z</time></trkpt><trkpt lat="36.5255067" lon="-4.9730383"><ele>119.0</ele><time>2026-04-25T11:47:44.064Z</time></trkpt><trkpt lat="36.5253783" lon="-4.973385"><ele>124.0</ele><time>2026-04-25T11:47:45.066Z</time></trkpt><trkpt lat="36.525245" lon="-4.9737317"><ele>129.0</ele><time>2026-04-25T11:47:46.061Z</time></trkpt><trkpt lat="36.52511" lon="-4.9740717"><ele>133.5</ele><time>2026-04-25T11:47:47.063Z</time></trkpt><trkpt lat="36.5249667" lon="-4.9744133"><ele>138.0</ele><time>2026-04-25T11:47:48.061Z</time></trkpt><trkpt lat="36.52482" lon="-4.9747483"><ele>138.0</ele><time>2026-04-25T11:47:49.064Z</time></trkpt><trkpt lat="36.52467" lon="-4.9750767"><ele>138.0</ele><time>2026-04-25T11:47:50.064Z</time></trkpt><trkpt lat="36.5245117" lon="-4.9754017"><ele>138.0</ele><time>2026-04-25T11:47:51.066Z</time></trkpt><trkpt lat="36.5243517" lon="-4.9757217"><ele>138.0</ele><time>2026-04-25T11:47:52.061Z</time></trkpt><trkpt lat="36.5241883" lon="-4.9760383"><ele>140.0</ele><time>2026-04-25T11:47:53.061Z</time></trkpt><trkpt lat="36.5240217" lon="-4.97635"><ele>142.0</ele><time>2026-04-25T11:47:54.063Z</time></trkpt><trkpt lat="36.52385" lon="-4.9766567"><ele>136.0</ele><time>2026-04-25T11:47:55.066Z</time></trkpt><trkpt lat="36.5236717" lon="-4.976955"><ele>130.0</ele><time>2026-04-25T11:47:56.063Z</time></trkpt><trkpt lat="36.5234883" lon="-4.97725"><ele>120.5</ele><time>2026-04-25T11:47:57.066Z</time></trkpt><trkpt lat="36.5233033" lon="-4.9775417"><ele>111.0</ele><time>2026-04-25T11:47:58.061Z</time></trkpt><trkpt lat="36.5231133" lon="-4.9778317"><ele>111.0</ele><time>2026-04-25T11:47:59.059Z</time></trkpt><trkpt lat="36.5229167" lon="-4.9781167"><ele>111.0</ele><time>2026-04-25T11:48:00.06Z</time></trkpt><trkpt lat="36.5227167" lon="-4.9783983"><ele>111.0</ele><time>2026-04-25T11:48:01.06Z</time></trkpt><trkpt lat="36.52251" lon="-4.9786767"><ele>111.0</ele><time>2026-04-25T11:48:02.061Z</time></trkpt><trkpt lat="36.5223017" lon="-4.9789517"><ele>112.5</ele><time>2026-04-25T11:48:03.061Z</time></trkpt><trkpt lat="36.52209" lon="-4.9792217"><ele>114.0</ele><time>2026-04-25T11:48:04.064Z</time></trkpt><trkpt lat="36.5218783" lon="-4.9794817"><ele>126.0</ele><time>2026-04-25T11:48:05.065Z</time></trkpt><trkpt lat="36.521665" lon="-4.9797383"><ele>138.0</ele><time>2026-04-25T11:48:06.064Z</time></trkpt><trkpt lat="36.5214467" lon="-4.9799883"><ele>138.5</ele><time>2026-04-25T11:48:07.066Z</time></trkpt><trkpt lat="36.521225" lon="-4.9802333"><ele>139.0</ele><time>2026-04-25T11:48:08.063Z</time></trkpt><trkpt lat="36.5209917" lon="-4.9804717"><ele>139.0</ele><time>2026-04-25T11:48:09.065Z</time></trkpt><trkpt lat="36.520755" lon="-4.9807083"><ele>139.0</ele><time>2026-04-25T11:48:10.061Z</time></trkpt><trkpt lat="36.520515" lon="-4.98094"><ele>138.0</ele><time>2026-04-25T11:48:11.064Z</time></trkpt><trkpt lat="36.52027" lon="-4.9811683"><ele>137.0</ele><time>2026-04-25T11:48:12.062Z</time></trkpt><trkpt lat="36.5200217" lon="-4.9813867"><ele>137.0</ele><time>2026-04-25T11:48:13.066Z</time></trkpt><trkpt lat="36.5197683" lon="-4.9816"><ele>137.0</ele><time>2026-04-25T11:48:14.06Z</time></trkpt><trkpt lat="36.5195117" lon="-4.9818117"><ele>128.0</ele><time>2026-04-25T11:48:15.06Z</time></trkpt><trkpt lat="36.5192533" lon="-4.9820183"><ele>119.0</ele><time>2026-04-25T11:48:16.061Z</time></trkpt><trkpt lat="36.5189967" lon="-4.98222"><ele>119.0</ele><time>2026-04-25T11:48:17.061Z</time></trkpt><trkpt lat="36.5187417" lon="-4.9824183"><ele>119.0</ele><time>2026-04-25T11:48:18.063Z</time></trkpt><trkpt lat="36.5184833" lon="-4.9826167"><ele>118.0</ele><time>2026-04-25T11:48:19.06Z</time></trkpt><trkpt lat="36.5182267" lon="-4.982815"><ele>117.0</ele><time>2026-04-25T11:48:20.063Z</time></trkpt><trkpt lat="36.5179717" lon="-4.9830133"><ele>116.5</ele><time>2026-04-25T11:48:21.061Z</time></trkpt><trkpt lat="36.517715" lon="-4.9832117"><ele>116.0</ele><time>2026-04-25T11:48:22.063Z</time></trkpt><trkpt lat="36.51746" lon="-4.9834083"><ele>113.0</ele><time>2026-04-25T11:48:23.061Z</time></trkpt><trkpt lat="36.5172083" lon="-4.9836083"><ele>110.0</ele><time>2026-04-25T11:48:24.067Z</time></trkpt><trkpt lat="36.51696" lon="-4.9838117"><ele>110.0</ele><time>2026-04-25T11:48:25.061Z</time></trkpt><trkpt lat="36.5167183" lon="-4.984025"><ele>110.0</ele><time>2026-04-25T11:48:26.066Z</time></trkpt><trkpt lat="36.5164833" lon="-4.9842483"><ele>112.0</ele><time>2026-04-25T11:48:27.061Z</time></trkpt><trkpt lat="36.516255" lon="-4.9844783"><ele>114.0</ele><time>2026-04-25T11:48:28.061Z</time></trkpt><trkpt lat="36.5160267" lon="-4.9847117"><ele>106.5</ele><time>2026-04-25T11:48:29.062Z</time></trkpt><trkpt lat="36.5158017" lon="-4.9849467"><ele>99.0</ele><time>2026-04-25T11:48:30.061Z</time></trkpt><trkpt lat="36.5155817" lon="-4.98519"><ele>97.0</ele><time>2026-04-25T11:48:31.063Z</time></trkpt><trkpt lat="36.515365" lon="-4.98544"><ele>95.0</ele><time>2026-04-25T11:48:32.064Z</time></trkpt><trkpt lat="36.5151533" lon="-4.9856983"><ele>101.0</ele><time>2026-04-25T11:48:33.067Z</time></trkpt><trkpt lat="36.514945" lon="-4.9859667"><ele>107.0</ele><time>2026-04-25T11:48:34.069Z</time></trkpt><trkpt lat="36.5147367" lon="-4.98624"><ele>98.0</ele><time>2026-04-25T11:48:35.061Z</time></trkpt><trkpt lat="36.5145283" lon="-4.9865217"><ele>89.0</ele><time>2026-04-25T11:48:36.058Z</time></trkpt><trkpt lat="36.5143267" lon="-4.9868083"><ele>89.0</ele><time>2026-04-25T11:48:37.065Z</time></trkpt><trkpt lat="36.5141283" lon="-4.9870983"><ele>89.0</ele><time>2026-04-25T11:48:38.063Z</time></trkpt><trkpt lat="36.51393" lon="-4.9873867"><ele>83.0</ele><time>2026-04-25T11:48:39.071Z</time></trkpt><trkpt lat="36.5137383" lon="-4.9876783"><ele>77.0</ele><time>2026-04-25T11:48:40.067Z</time></trkpt><trkpt lat="36.513545" lon="-4.9879683"><ele>77.0</ele><time>2026-04-25T11:48:41.065Z</time></trkpt><trkpt lat="36.51335" lon="-4.9882583"><ele>77.0</ele><time>2026-04-25T11:48:42.065Z</time></trkpt><trkpt lat="36.513145" lon="-4.9885467"><ele>71.5</ele><time>2026-04-25T11:48:43.062Z</time></trkpt><trkpt lat="36.512935" lon="-4.9888317"><ele>66.0</ele><time>2026-04-25T11:48:44.059Z</time></trkpt><trkpt lat="36.51272" lon="-4.9891133"><ele>64.0</ele><time>2026-04-25T11:48:45.063Z</time></trkpt><trkpt lat="36.5124983" lon="-4.9893867"><ele>62.0</ele><time>2026-04-25T11:48:46.06Z</time></trkpt><trkpt lat="36.5122683" lon="-4.9896517"><ele>63.5</ele><time>2026-04-25T11:48:47.065Z</time></trkpt><trkpt lat="36.51203" lon="-4.9899083"><ele>65.0</ele><time>2026-04-25T11:48:48.062Z</time></trkpt><trkpt lat="36.51179" lon="-4.99015"><ele>65.0</ele><time>2026-04-25T11:48:49.066Z</time></trkpt><trkpt lat="36.5115483" lon="-4.9903833"><ele>65.0</ele><time>2026-04-25T11:48:50.064Z</time></trkpt><trkpt lat="36.51131" lon="-4.9906067"><ele>65.5</ele><time>2026-04-25T11:48:51.071Z</time></trkpt><trkpt lat="36.511075" lon="-4.9908233"><ele>66.0</ele><time>2026-04-25T11:48:52.062Z</time></trkpt><trkpt lat="36.5108417" lon="-4.991035"><ele>66.0</ele><time>2026-04-25T11:48:53.061Z</time></trkpt><trkpt lat="36.5106117" lon="-4.99123"><ele>66.0</ele><time>2026-04-25T11:48:54.062Z</time></trkpt><trkpt lat="36.5103817" lon="-4.9914167"><ele>66.5</ele><time>2026-04-25T11:48:55.065Z</time></trkpt><trkpt lat="36.51015" lon="-4.9915967"><ele>67.0</ele><time>2026-04-25T11:48:56.069Z</time></trkpt><trkpt lat="36.5099167" lon="-4.9917683"><ele>70.0</ele><time>2026-04-25T11:48:57.059Z</time></trkpt><trkpt lat="36.5096817" lon="-4.991935"><ele>73.0</ele><time>2026-04-25T11:48:58.061Z</time></trkpt><trkpt lat="36.509445" lon="-4.9920917"><ele>73.0</ele><time>2026-04-25T11:48:59.063Z</time></trkpt><trkpt lat="36.509205" lon="-4.9922417"><ele>73.0</ele><time>2026-04-25T11:49:00.065Z</time></trkpt><trkpt lat="36.5089617" lon="-4.9923867"><ele>75.0</ele><time>2026-04-25T11:49:01.063Z</time></trkpt><trkpt lat="36.5087133" lon="-4.9925267"><ele>77.0</ele><time>2026-04-25T11:49:02.063Z</time></trkpt><trkpt lat="36.5084683" lon="-4.9926683"><ele>77.0</ele><time>2026-04-25T11:49:03.065Z</time></trkpt><trkpt lat="36.5082167" lon="-4.9928083"><ele>77.0</ele><time>2026-04-25T11:49:04.059Z</time></trkpt><trkpt lat="36.5079617" lon="-4.9929483"><ele>76.5</ele><time>2026-04-25T11:49:05.06Z</time></trkpt><trkpt lat="36.50771" lon="-4.9930967"><ele>76.0</ele><time>2026-04-25T11:49:06.061Z</time></trkpt><trkpt lat="36.507455" lon="-4.993245"><ele>79.0</ele><time>2026-04-25T11:49:07.064Z</time></trkpt><trkpt lat="36.5072017" lon="-4.99339"><ele>82.0</ele><time>2026-04-25T11:49:08.066Z</time></trkpt><trkpt lat="36.50696" lon="-4.9935467"><ele>82.0</ele><time>2026-04-25T11:49:09.064Z</time></trkpt><trkpt lat="36.5067217" lon="-4.9937083"><ele>82.0</ele><time>2026-04-25T11:49:10.065Z</time></trkpt><trkpt lat="36.5064817" lon="-4.99387"><ele>80.5</ele><time>2026-04-25T11:49:11.062Z</time></trkpt><trkpt lat="36.50623" lon="-4.99402"><ele>79.0</ele><time>2026-04-25T11:49:12.063Z</time></trkpt><trkpt lat="36.505965" lon="-4.99418"><ele>79.0</ele><time>2026-04-25T11:49:13.062Z</time></trkpt><trkpt lat="36.505725" lon="-4.99436"><ele>79.0</ele><time>2026-04-25T11:49:14.064Z</time></trkpt><trkpt lat="36.5054967" lon="-4.9945433"><ele>76.5</ele><time>2026-04-25T11:49:15.061Z</time></trkpt><trkpt lat="36.5052733" lon="-4.99473"><ele>74.0</ele><time>2026-04-25T11:49:16.061Z</time></trkpt><trkpt lat="36.5050567" lon="-4.99493"><ele>77.5</ele><time>2026-04-25T11:49:17.063Z</time></trkpt><trkpt lat="36.5048317" lon="-4.9951333"><ele>81.0</ele><time>2026-04-25T11:49:18.059Z</time></trkpt><trkpt lat="36.5046217" lon="-4.9953367"><ele>76.0</ele><time>2026-04-25T11:49:19.062Z</time></trkpt><trkpt lat="36.50439" lon="-4.9955483"><ele>71.0</ele><time>2026-04-25T11:49:20.063Z</time></trkpt><trkpt lat="36.50418" lon="-4.995765"><ele>70.0</ele><time>2026-04-25T11:49:21.06Z</time></trkpt><trkpt lat="36.503965" lon="-4.996015"><ele>69.0</ele><time>2026-04-25T11:49:22.062Z</time></trkpt><trkpt lat="36.5037433" lon="-4.9962783"><ele>69.0</ele><time>2026-04-25T11:49:23.06Z</time></trkpt><trkpt lat="36.503525" lon="-4.9965267"><ele>69.0</ele><time>2026-04-25T11:49:24.059Z</time></trkpt><trkpt lat="36.5033067" lon="-4.9967733"><ele>71.0</ele><time>2026-04-25T11:49:25.063Z</time></trkpt><trkpt lat="36.5030867" lon="-4.9970167"><ele>73.0</ele><time>2026-04-25T11:49:26.061Z</time></trkpt><trkpt lat="36.5016917" lon="-4.9991867"><ele>67.5</ele><time>2026-04-25T11:49:34.06Z</time></trkpt><trkpt lat="36.5016333" lon="-4.9994667"><ele>62.0</ele><time>2026-04-25T11:49:35.064Z</time></trkpt><trkpt lat="36.5014833" lon="-4.9997533"><ele>62.0</ele><time>2026-04-25T11:49:36.06Z</time></trkpt><trkpt lat="36.5013517" lon="-5.000035"><ele>62.0</ele><time>2026-04-25T11:49:37.062Z</time></trkpt><trkpt lat="36.501235" lon="-5.0003117"><ele>59.0</ele><time>2026-04-25T11:49:38.063Z</time></trkpt><trkpt lat="36.501115" lon="-5.0005817"><ele>56.0</ele><time>2026-04-25T11:49:39.062Z</time></trkpt><trkpt lat="36.501" lon="-5.000855"><ele>56.0</ele><time>2026-04-25T11:49:40.062Z</time></trkpt><trkpt lat="36.500885" lon="-5.0011317"><ele>56.0</ele><time>2026-04-25T11:49:41.06Z</time></trkpt><trkpt lat="36.5007767" lon="-5.00141"><ele>55.5</ele><time>2026-04-25T11:49:42.061Z</time></trkpt><trkpt lat="36.500675" lon="-5.0016933"><ele>55.0</ele><time>2026-04-25T11:49:43.064Z</time></trkpt><trkpt lat="36.500575" lon="-5.0019783"><ele>55.0</ele><time>2026-04-25T11:49:44.064Z</time></trkpt><trkpt lat="36.50048" lon="-5.002265"><ele>55.0</ele><time>2026-04-25T11:49:45.064Z</time></trkpt><trkpt lat="36.5003883" lon="-5.0025567"><ele>59.5</ele><time>2026-04-25T11:49:46.063Z</time></trkpt><trkpt lat="36.5002983" lon="-5.0028467"><ele>64.0</ele><time>2026-04-25T11:49:47.061Z</time></trkpt><trkpt lat="36.500215" lon="-5.00314"><ele>65.0</ele><time>2026-04-25T11:49:48.065Z</time></trkpt><trkpt lat="36.5001383" lon="-5.0034367"><ele>66.0</ele><time>2026-04-25T11:49:49.065Z</time></trkpt><trkpt lat="36.5000683" lon="-5.0037333"><ele>66.0</ele><time>2026-04-25T11:49:50.066Z</time></trkpt><trkpt lat="36.500005" lon="-5.0040167"><ele>66.0</ele><time>2026-04-25T11:49:51.063Z</time></trkpt><trkpt lat="36.499945" lon="-5.0042867"><ele>65.66666666666667</ele><time>2026-04-25T11:49:52.062Z</time></trkpt><trkpt lat="36.4998917" lon="-5.0045533"><ele>65.33333333333334</ele><time>2026-04-25T11:49:53.062Z</time></trkpt><trkpt lat="36.49984" lon="-5.0048183"><ele>65.0</ele><time>2026-04-25T11:49:54.062Z</time></trkpt><trkpt lat="36.4997983" lon="-5.0050783"><ele>63.66666666666667</ele><time>2026-04-25T11:49:55.062Z</time></trkpt><trkpt lat="36.4997583" lon="-5.0053267"><ele>62.33333333333333</ele><time>2026-04-25T11:49:56.06Z</time></trkpt><trkpt lat="36.4997217" lon="-5.0055683"><ele>61.0</ele><time>2026-04-25T11:49:57.063Z</time></trkpt><trkpt lat="36.4996867" lon="-5.005805"><ele>59.0</ele><time>2026-04-25T11:49:58.059Z</time></trkpt><trkpt lat="36.4996517" lon="-5.0060367"><ele>57.0</ele><time>2026-04-25T11:49:59.064Z</time></trkpt><trkpt lat="36.499615" lon="-5.0062633"><ele>55.0</ele><time>2026-04-25T11:50:00.068Z</time></trkpt><trkpt lat="36.4995817" lon="-5.0064817"><ele>54.666666666666664</ele><time>2026-04-25T11:50:01.064Z</time></trkpt><trkpt lat="36.49955" lon="-5.0066917"><ele>54.33333333333333</ele><time>2026-04-25T11:50:02.061Z</time></trkpt><trkpt lat="36.499525" lon="-5.0069"><ele>54.0</ele><time>2026-04-25T11:50:03.059Z</time></trkpt><trkpt lat="36.499505" lon="-5.007105"><ele>54.0</ele><time>2026-04-25T11:50:04.064Z</time></trkpt><trkpt lat="36.4994917" lon="-5.0073033"><ele>54.0</ele><time>2026-04-25T11:50:05.065Z</time></trkpt><trkpt lat="36.4994817" lon="-5.0074883"><ele>54.0</ele><time>2026-04-25T11:50:06.063Z</time></trkpt><trkpt lat="36.4994767" lon="-5.007655"><ele>54.0</ele><time>2026-04-25T11:50:07.061Z</time></trkpt><trkpt lat="36.4994783" lon="-5.007805"><ele>54.2</ele><time>2026-04-25T11:50:08.065Z</time></trkpt><trkpt lat="36.4994783" lon="-5.00794"><ele>54.400000000000006</ele><time>2026-04-25T11:50:09.057Z</time></trkpt><trkpt lat="36.4994767" lon="-5.00806"><ele>54.6</ele><time>2026-04-25T11:50:10.057Z</time></trkpt><trkpt lat="36.4994733" lon="-5.0081733"><ele>54.8</ele><time>2026-04-25T11:50:11.06Z</time></trkpt><trkpt lat="36.4994733" lon="-5.00828"><ele>55.0</ele><time>2026-04-25T11:50:12.06Z</time></trkpt><trkpt lat="36.4994717" lon="-5.0083717"><ele>56.2</ele><time>2026-04-25T11:50:13.058Z</time></trkpt><trkpt lat="36.49947" lon="-5.0085167"><ele>57.4</ele><time>2026-04-25T11:50:15.064Z</time></trkpt><trkpt lat="36.4994633" lon="-5.0086233"><ele>58.599999999999994</ele><time>2026-04-25T11:50:17.062Z</time></trkpt><trkpt lat="36.4994533" lon="-5.0087217"><ele>59.8</ele><time>2026-04-25T11:50:20.061Z</time></trkpt><trkpt lat="36.4994733" lon="-5.0088917"><ele>61.0</ele><time>2026-04-25T11:51:24.061Z</time></trkpt><trkpt lat="36.4994867" lon="-5.0090333"><ele>60.99999999999999</ele><time>2026-04-25T11:51:26.066Z</time></trkpt><trkpt lat="36.4995117" lon="-5.0091217"><ele>61.0</ele><time>2026-04-25T11:51:27.064Z</time></trkpt><trkpt lat="36.499545" lon="-5.0092117"><ele>61.0</ele><time>2026-04-25T11:51:28.066Z</time></trkpt><trkpt lat="36.499575" lon="-5.0092983"><ele>61.0</ele><time>2026-04-25T11:51:29.066Z</time></trkpt><trkpt lat="36.499595" lon="-5.00938"><ele>60.99999999999999</ele><time>2026-04-25T11:51:30.063Z</time></trkpt><trkpt lat="36.4995967" lon="-5.0095067"><ele>61.0</ele><time>2026-04-25T11:51:32.061Z</time></trkpt><trkpt lat="36.4995883" lon="-5.0095867"><ele>61.0</ele><time>2026-04-25T11:51:34.061Z</time></trkpt><trkpt lat="36.49956" lon="-5.00969"><ele>60.99999999999999</ele><time>2026-04-25T11:52:21.066Z</time></trkpt><trkpt lat="36.499515" lon="-5.009845"><ele>60.99999999999999</ele><time>2026-04-25T11:52:23.065Z</time></trkpt><trkpt lat="36.4994783" lon="-5.0099683"><ele>61.0</ele><time>2026-04-25T11:52:24.063Z</time></trkpt><trkpt lat="36.49944" lon="-5.0101067"><ele>61.0</ele><time>2026-04-25T11:52:25.059Z</time></trkpt><trkpt lat="36.4994" lon="-5.010265"><ele>61.0</ele><time>2026-04-25T11:52:26.068Z</time></trkpt><trkpt lat="36.4993633" lon="-5.0104367"><ele>61.0</ele><time>2026-04-25T11:52:27.061Z</time></trkpt><trkpt lat="36.499335" lon="-5.0106217"><ele>61.0</ele><time>2026-04-25T11:52:28.061Z</time></trkpt><trkpt lat="36.49931" lon="-5.01082"><ele>62.33333333333333</ele><time>2026-04-25T11:52:29.058Z</time></trkpt><trkpt lat="36.4992817" lon="-5.0110317"><ele>63.66666666666667</ele><time>2026-04-25T11:52:30.06Z</time></trkpt><trkpt lat="36.4992517" lon="-5.011255"><ele>65.0</ele><time>2026-04-25T11:52:31.064Z</time></trkpt><trkpt lat="36.4992167" lon="-5.0114967"><ele>65.66666666666667</ele><time>2026-04-25T11:52:32.062Z</time></trkpt><trkpt lat="36.499175" lon="-5.0117517"><ele>66.33333333333333</ele><time>2026-04-25T11:52:33.065Z</time></trkpt><trkpt lat="36.4991267" lon="-5.0120183"><ele>67.0</ele><time>2026-04-25T11:52:34.059Z</time></trkpt><trkpt lat="36.4990717" lon="-5.0123"><ele>67.0</ele><time>2026-04-25T11:52:35.06Z</time></trkpt><trkpt lat="36.4990133" lon="-5.012595"><ele>67.0</ele><time>2026-04-25T11:52:36.064Z</time></trkpt><trkpt lat="36.4989467" lon="-5.0128983"><ele>67.0</ele><time>2026-04-25T11:52:37.066Z</time></trkpt><trkpt lat="36.4988717" lon="-5.0132083"><ele>67.0</ele><time>2026-04-25T11:52:38.062Z</time></trkpt><trkpt lat="36.498795" lon="-5.01352"><ele>64.5</ele><time>2026-04-25T11:52:39.068Z</time></trkpt><trkpt lat="36.4987067" lon="-5.01384"><ele>62.0</ele><time>2026-04-25T11:52:40.065Z</time></trkpt><trkpt lat="36.4986133" lon="-5.01417"><ele>60.5</ele><time>2026-04-25T11:52:41.063Z</time></trkpt><trkpt lat="36.49851" lon="-5.0145083"><ele>59.0</ele><time>2026-04-25T11:52:42.064Z</time></trkpt><trkpt lat="36.4983983" lon="-5.014855"><ele>58.0</ele><time>2026-04-25T11:52:43.063Z</time></trkpt><trkpt lat="36.498285" lon="-5.01521"><ele>57.0</ele><time>2026-04-25T11:52:44.063Z</time></trkpt><trkpt lat="36.4981683" lon="-5.015565"><ele>59.0</ele><time>2026-04-25T11:52:45.063Z</time></trkpt><trkpt lat="36.4980467" lon="-5.0159233"><ele>61.0</ele><time>2026-04-25T11:52:46.062Z</time></trkpt><trkpt lat="36.4979333" lon="-5.0162917"><ele>61.5</ele><time>2026-04-25T11:52:47.061Z</time></trkpt><trkpt lat="36.497825" lon="-5.016665"><ele>62.0</ele><time>2026-04-25T11:52:48.061Z</time></trkpt><trkpt lat="36.497725" lon="-5.0170433"><ele>62.0</ele><time>2026-04-25T11:52:49.059Z</time></trkpt><trkpt lat="36.4976317" lon="-5.0174283"><ele>62.0</ele><time>2026-04-25T11:52:50.065Z</time></trkpt><trkpt lat="36.4975483" lon="-5.0178167"><ele>59.0</ele><time>2026-04-25T11:52:51.061Z</time></trkpt><trkpt lat="36.4974733" lon="-5.018205"><ele>56.0</ele><time>2026-04-25T11:52:52.059Z</time></trkpt><trkpt lat="36.4974067" lon="-5.01859"><ele>54.0</ele><time>2026-04-25T11:52:53.063Z</time></trkpt><trkpt lat="36.4973517" lon="-5.0189733"><ele>52.0</ele><time>2026-04-25T11:52:54.06Z</time></trkpt><trkpt lat="36.4973083" lon="-5.0193533"><ele>52.0</ele><time>2026-04-25T11:52:55.064Z</time></trkpt><trkpt lat="36.4972733" lon="-5.019735"><ele>52.0</ele><time>2026-04-25T11:52:56.065Z</time></trkpt><trkpt lat="36.4972517" lon="-5.0201167"><ele>58.0</ele><time>2026-04-25T11:52:57.066Z</time></trkpt><trkpt lat="36.4972433" lon="-5.0204983"><ele>64.0</ele><time>2026-04-25T11:52:58.063Z</time></trkpt><trkpt lat="36.4972433" lon="-5.02088"><ele>66.0</ele><time>2026-04-25T11:52:59.068Z</time></trkpt><trkpt lat="36.497255" lon="-5.02126"><ele>68.0</ele><time>2026-04-25T11:53:00.069Z</time></trkpt><trkpt lat="36.4972733" lon="-5.0216317"><ele>72.5</ele><time>2026-04-25T11:53:01.064Z</time></trkpt><trkpt lat="36.4972983" lon="-5.0220017"><ele>77.0</ele><time>2026-04-25T11:53:02.065Z</time></trkpt><trkpt lat="36.4973333" lon="-5.02237"><ele>80.5</ele><time>2026-04-25T11:53:03.067Z</time></trkpt><trkpt lat="36.4973683" lon="-5.022735"><ele>84.0</ele><time>2026-04-25T11:53:04.061Z</time></trkpt><trkpt lat="36.497405" lon="-5.0230983"><ele>87.5</ele><time>2026-04-25T11:53:05.065Z</time></trkpt><trkpt lat="36.49744" lon="-5.0234617"><ele>91.0</ele><time>2026-04-25T11:53:06.059Z</time></trkpt><trkpt lat="36.49747" lon="-5.023825"><ele>93.5</ele><time>2026-04-25T11:53:07.063Z</time></trkpt><trkpt lat="36.497495" lon="-5.0241883"><ele>96.0</ele><time>2026-04-25T11:53:08.069Z</time></trkpt><trkpt lat="36.49752" lon="-5.0245517"><ele>96.0</ele><time>2026-04-25T11:53:09.066Z</time></trkpt><trkpt lat="36.4975433" lon="-5.024915"><ele>96.0</ele><time>2026-04-25T11:53:10.064Z</time></trkpt><trkpt lat="36.4975617" lon="-5.0252767"><ele>98.0</ele><time>2026-04-25T11:53:11.06Z</time></trkpt><trkpt lat="36.4975733" lon="-5.025635"><ele>100.0</ele><time>2026-04-25T11:53:12.065Z</time></trkpt><trkpt lat="36.49758" lon="-5.0259933"><ele>102.0</ele><time>2026-04-25T11:53:13.062Z</time></trkpt><trkpt lat="36.49758" lon="-5.02635"><ele>104.0</ele><time>2026-04-25T11:53:14.065Z</time></trkpt><trkpt lat="36.497575" lon="-5.026705"><ele>105.0</ele><time>2026-04-25T11:53:15.065Z</time></trkpt><trkpt lat="36.4975633" lon="-5.02706"><ele>106.0</ele><time>2026-04-25T11:53:16.062Z</time></trkpt><trkpt lat="36.49755" lon="-5.0274133"><ele>111.0</ele><time>2026-04-25T11:53:17.062Z</time></trkpt><trkpt lat="36.497535" lon="-5.0277683"><ele>116.0</ele><time>2026-04-25T11:53:18.06Z</time></trkpt><trkpt lat="36.4975117" lon="-5.02812"><ele>113.5</ele><time>2026-04-25T11:53:19.065Z</time></trkpt><trkpt lat="36.4974833" lon="-5.0284667"><ele>111.0</ele><time>2026-04-25T11:53:20.065Z</time></trkpt><trkpt lat="36.4974417" lon="-5.0288117"><ele>110.5</ele><time>2026-04-25T11:53:21.064Z</time></trkpt><trkpt lat="36.4973967" lon="-5.0291567"><ele>110.0</ele><time>2026-04-25T11:53:22.068Z</time></trkpt><trkpt lat="36.4973517" lon="-5.0295017"><ele>110.0</ele><time>2026-04-25T11:53:23.065Z</time></trkpt><trkpt lat="36.4972983" lon="-5.029855"><ele>110.0</ele><time>2026-04-25T11:53:24.069Z</time></trkpt><trkpt lat="36.497245" lon="-5.03021"><ele>109.5</ele><time>2026-04-25T11:53:25.06Z</time></trkpt><trkpt lat="36.497185" lon="-5.030565"><ele>109.0</ele><time>2026-04-25T11:53:26.064Z</time></trkpt><trkpt lat="36.4971183" lon="-5.0309167"><ele>116.0</ele><time>2026-04-25T11:53:27.064Z</time></trkpt><trkpt lat="36.4970467" lon="-5.0312683"><ele>123.0</ele><time>2026-04-25T11:53:28.064Z</time></trkpt><trkpt lat="36.4969683" lon="-5.0316183"><ele>123.0</ele><time>2026-04-25T11:53:29.064Z</time></trkpt><trkpt lat="36.4968817" lon="-5.0319683"><ele>123.0</ele><time>2026-04-25T11:53:30.062Z</time></trkpt><trkpt lat="36.4967917" lon="-5.0323133"><ele>124.5</ele><time>2026-04-25T11:53:31.063Z</time></trkpt><trkpt lat="36.4966983" lon="-5.0326583"><ele>126.0</ele><time>2026-04-25T11:53:32.061Z</time></trkpt><trkpt lat="36.4966017" lon="-5.0330033"><ele>127.0</ele><time>2026-04-25T11:53:33.06Z</time></trkpt><trkpt lat="36.4964917" lon="-5.0333467"><ele>128.0</ele><time>2026-04-25T11:53:34.06Z</time></trkpt><trkpt lat="36.4963783" lon="-5.033685"><ele>128.0</ele><time>2026-04-25T11:53:35.061Z</time></trkpt><trkpt lat="36.4962667" lon="-5.0340267"><ele>128.0</ele><time>2026-04-25T11:53:36.061Z</time></trkpt><trkpt lat="36.49615" lon="-5.0343633"><ele>135.5</ele><time>2026-04-25T11:53:37.061Z</time></trkpt><trkpt lat="36.4960283" lon="-5.0346917"><ele>143.0</ele><time>2026-04-25T11:53:38.058Z</time></trkpt><trkpt lat="36.495905" lon="-5.0350183"><ele>145.0</ele><time>2026-04-25T11:53:39.058Z</time></trkpt><trkpt lat="36.4957733" lon="-5.0353367"><ele>147.0</ele><time>2026-04-25T11:53:40.059Z</time></trkpt><trkpt lat="36.4956333" lon="-5.0356467"><ele>149.0</ele><time>2026-04-25T11:53:41.062Z</time></trkpt><trkpt lat="36.4954933" lon="-5.03595"><ele>151.0</ele><time>2026-04-25T11:53:42.062Z</time></trkpt><trkpt lat="36.49535" lon="-5.0362533"><ele>151.0</ele><time>2026-04-25T11:53:43.062Z</time></trkpt><trkpt lat="36.4952067" lon="-5.03655"><ele>151.0</ele><time>2026-04-25T11:53:44.063Z</time></trkpt><trkpt lat="36.4950633" lon="-5.0368433"><ele>150.5</ele><time>2026-04-25T11:53:45.065Z</time></trkpt><trkpt lat="36.4949017" lon="-5.0371317"><ele>150.0</ele><time>2026-04-25T11:53:46.062Z</time></trkpt><trkpt lat="36.49473" lon="-5.0374183"><ele>153.0</ele><time>2026-04-25T11:53:47.064Z</time></trkpt><trkpt lat="36.49456" lon="-5.0377067"><ele>156.0</ele><time>2026-04-25T11:53:48.061Z</time></trkpt><trkpt lat="36.4943833" lon="-5.03799"><ele>156.0</ele><time>2026-04-25T11:53:49.063Z</time></trkpt><trkpt lat="36.4942083" lon="-5.0382733"><ele>156.0</ele><time>2026-04-25T11:53:50.065Z</time></trkpt><trkpt lat="36.4940283" lon="-5.0385533"><ele>158.5</ele><time>2026-04-25T11:53:51.063Z</time></trkpt><trkpt lat="36.4938433" lon="-5.0388317"><ele>161.0</ele><time>2026-04-25T11:53:52.062Z</time></trkpt><trkpt lat="36.4936517" lon="-5.03911"><ele>156.0</ele><time>2026-04-25T11:53:53.062Z</time></trkpt><trkpt lat="36.493455" lon="-5.0393867"><ele>151.0</ele><time>2026-04-25T11:53:54.061Z</time></trkpt><trkpt lat="36.493255" lon="-5.0396617"><ele>151.0</ele><time>2026-04-25T11:53:55.06Z</time></trkpt><trkpt lat="36.4930517" lon="-5.03993"><ele>151.0</ele><time>2026-04-25T11:53:56.062Z</time></trkpt><trkpt lat="36.4928417" lon="-5.0401967"><ele>153.5</ele><time>2026-04-25T11:53:57.06Z</time></trkpt><trkpt lat="36.4926267" lon="-5.040455"><ele>156.0</ele><time>2026-04-25T11:53:58.066Z</time></trkpt><trkpt lat="36.4924067" lon="-5.0407183"><ele>154.0</ele><time>2026-04-25T11:53:59.064Z</time></trkpt><trkpt lat="36.4921783" lon="-5.04098"><ele>152.0</ele><time>2026-04-25T11:54:00.072Z</time></trkpt><trkpt lat="36.49194" lon="-5.0412433"><ele>152.0</ele><time>2026-04-25T11:54:01.061Z</time></trkpt><trkpt lat="36.4917017" lon="-5.041505"><ele>152.0</ele><time>2026-04-25T11:54:02.065Z</time></trkpt><trkpt lat="36.4914567" lon="-5.0417667"><ele>147.5</ele><time>2026-04-25T11:54:03.067Z</time></trkpt><trkpt lat="36.4912117" lon="-5.042025"><ele>143.0</ele><time>2026-04-25T11:54:04.064Z</time></trkpt><trkpt lat="36.4909633" lon="-5.042275"><ele>144.0</ele><time>2026-04-25T11:54:05.065Z</time></trkpt><trkpt lat="36.490715" lon="-5.042525"><ele>145.0</ele><time>2026-04-25T11:54:06.059Z</time></trkpt><trkpt lat="36.490465" lon="-5.04277"><ele>144.0</ele><time>2026-04-25T11:54:07.064Z</time></trkpt><trkpt lat="36.4902167" lon="-5.04301"><ele>143.0</ele><time>2026-04-25T11:54:08.065Z</time></trkpt><trkpt lat="36.4899733" lon="-5.0432533"><ele>142.0</ele><time>2026-04-25T11:54:09.061Z</time></trkpt><trkpt lat="36.4897283" lon="-5.0434967"><ele>141.0</ele><time>2026-04-25T11:54:10.062Z</time></trkpt><trkpt lat="36.4894833" lon="-5.0437383"><ele>141.0</ele><time>2026-04-25T11:54:11.068Z</time></trkpt><trkpt lat="36.48924" lon="-5.04398"><ele>141.0</ele><time>2026-04-25T11:54:12.072Z</time></trkpt><trkpt lat="36.4890017" lon="-5.0442217"><ele>138.0</ele><time>2026-04-25T11:54:13.065Z</time></trkpt><trkpt lat="36.4887683" lon="-5.0444667"><ele>135.0</ele><time>2026-04-25T11:54:14.064Z</time></trkpt><trkpt lat="36.48854" lon="-5.0447133"><ele>129.0</ele><time>2026-04-25T11:54:15.065Z</time></trkpt><trkpt lat="36.488315" lon="-5.0449633"><ele>123.0</ele><time>2026-04-25T11:54:16.065Z</time></trkpt><trkpt lat="36.4880933" lon="-5.0452133"><ele>126.5</ele><time>2026-04-25T11:54:17.063Z</time></trkpt><trkpt lat="36.4878767" lon="-5.04547"><ele>130.0</ele><time>2026-04-25T11:54:18.066Z</time></trkpt><trkpt lat="36.487665" lon="-5.0457317"><ele>123.0</ele><time>2026-04-25T11:54:19.062Z</time></trkpt><trkpt lat="36.4874567" lon="-5.0459967"><ele>116.0</ele><time>2026-04-25T11:54:20.064Z</time></trkpt><trkpt lat="36.487255" lon="-5.0462683"><ele>117.0</ele><time>2026-04-25T11:54:21.071Z</time></trkpt><trkpt lat="36.4870617" lon="-5.0465433"><ele>118.0</ele><time>2026-04-25T11:54:22.066Z</time></trkpt><trkpt lat="36.4868733" lon="-5.046825"><ele>115.0</ele><time>2026-04-25T11:54:23.068Z</time></trkpt><trkpt lat="36.48669" lon="-5.0471083"><ele>112.0</ele><time>2026-04-25T11:54:24.063Z</time></trkpt><trkpt lat="36.48651" lon="-5.047395"><ele>108.0</ele><time>2026-04-25T11:54:25.061Z</time></trkpt><trkpt lat="36.4863383" lon="-5.047685"><ele>104.0</ele><time>2026-04-25T11:54:26.065Z</time></trkpt><trkpt lat="36.486175" lon="-5.0479783"><ele>104.0</ele><time>2026-04-25T11:54:27.068Z</time></trkpt><trkpt lat="36.4860117" lon="-5.04828"><ele>104.0</ele><time>2026-04-25T11:54:28.058Z</time></trkpt><trkpt lat="36.485855" lon="-5.0485883"><ele>104.0</ele><time>2026-04-25T11:54:29.062Z</time></trkpt><trkpt lat="36.4857033" lon="-5.0489017"><ele>104.0</ele><time>2026-04-25T11:54:30.059Z</time></trkpt><trkpt lat="36.4855567" lon="-5.04922"><ele>98.0</ele><time>2026-04-25T11:54:31.066Z</time></trkpt><trkpt lat="36.4854183" lon="-5.049545"><ele>92.0</ele><time>2026-04-25T11:54:32.061Z</time></trkpt><trkpt lat="36.4852867" lon="-5.049875"><ele>99.0</ele><time>2026-04-25T11:54:33.063Z</time></trkpt><trkpt lat="36.48516" lon="-5.0502083"><ele>106.0</ele><time>2026-04-25T11:54:34.062Z</time></trkpt><trkpt lat="36.4850383" lon="-5.050545"><ele>106.5</ele><time>2026-04-25T11:54:35.063Z</time></trkpt><trkpt lat="36.484925" lon="-5.0508867"><ele>107.0</ele><time>2026-04-25T11:54:36.062Z</time></trkpt><trkpt lat="36.48482" lon="-5.0512283"><ele>107.0</ele><time>2026-04-25T11:54:37.065Z</time></trkpt><trkpt lat="36.48472" lon="-5.0515717"><ele>107.0</ele><time>2026-04-25T11:54:38.063Z</time></trkpt><trkpt lat="36.48463" lon="-5.0519167"><ele>102.5</ele><time>2026-04-25T11:54:39.064Z</time></trkpt><trkpt lat="36.484545" lon="-5.05226"><ele>98.0</ele><time>2026-04-25T11:54:40.059Z</time></trkpt><trkpt lat="36.484465" lon="-5.0526033"><ele>98.0</ele><time>2026-04-25T11:54:41.062Z</time></trkpt><trkpt lat="36.4843917" lon="-5.05295"><ele>98.0</ele><time>2026-04-25T11:54:42.064Z</time></trkpt><trkpt lat="36.4843267" lon="-5.0533033"><ele>101.0</ele><time>2026-04-25T11:54:43.064Z</time></trkpt><trkpt lat="36.4842683" lon="-5.0536533"><ele>104.0</ele><time>2026-04-25T11:54:44.068Z</time></trkpt><trkpt lat="36.4842183" lon="-5.054005"><ele>102.5</ele><time>2026-04-25T11:54:45.065Z</time></trkpt><trkpt lat="36.484175" lon="-5.0543517"><ele>101.0</ele><time>2026-04-25T11:54:46.06Z</time></trkpt><trkpt lat="36.48414" lon="-5.0546967"><ele>105.5</ele><time>2026-04-25T11:54:47.06Z</time></trkpt><trkpt lat="36.4841083" lon="-5.0550433"><ele>110.0</ele><time>2026-04-25T11:54:48.059Z</time></trkpt><trkpt lat="36.4840817" lon="-5.0553883"><ele>110.0</ele><time>2026-04-25T11:54:49.061Z</time></trkpt><trkpt lat="36.484065" lon="-5.0557333"><ele>110.0</ele><time>2026-04-25T11:54:50.059Z</time></trkpt><trkpt lat="36.4840583" lon="-5.056075"><ele>110.0</ele><time>2026-04-25T11:54:51.058Z</time></trkpt><trkpt lat="36.4840583" lon="-5.056415"><ele>110.0</ele><time>2026-04-25T11:54:52.063Z</time></trkpt><trkpt lat="36.4840633" lon="-5.0567533"><ele>110.0</ele><time>2026-04-25T11:54:53.064Z</time></trkpt><trkpt lat="36.4840767" lon="-5.0570883"><ele>110.0</ele><time>2026-04-25T11:54:54.068Z</time></trkpt><trkpt lat="36.4840983" lon="-5.05742"><ele>109.5</ele><time>2026-04-25T11:54:55.06Z</time></trkpt><trkpt lat="36.4841267" lon="-5.05775"><ele>109.0</ele><time>2026-04-25T11:54:56.063Z</time></trkpt><trkpt lat="36.48416" lon="-5.05808"><ele>120.0</ele><time>2026-04-25T11:54:57.063Z</time></trkpt><trkpt lat="36.48419" lon="-5.0584067"><ele>131.0</ele><time>2026-04-25T11:54:58.059Z</time></trkpt><trkpt lat="36.4842233" lon="-5.0587317"><ele>131.0</ele><time>2026-04-25T11:54:59.064Z</time></trkpt><trkpt lat="36.4842567" lon="-5.05906"><ele>131.0</ele><time>2026-04-25T11:55:00.068Z</time></trkpt><trkpt lat="36.484335" lon="-5.0597067"><ele>117.0</ele><time>2026-04-25T11:55:02.062Z</time></trkpt><trkpt lat="36.48438" lon="-5.0600383"><ele>103.0</ele><time>2026-04-25T11:55:03.058Z</time></trkpt><trkpt lat="36.4856633" lon="-5.0647817"><ele>95.5</ele><time>2026-04-25T11:55:18.061Z</time></trkpt><trkpt lat="36.48576" lon="-5.06513"><ele>88.0</ele><time>2026-04-25T11:55:19.061Z</time></trkpt><trkpt lat="36.4858383" lon="-5.065465"><ele>87.5</ele><time>2026-04-25T11:55:20.061Z</time></trkpt><trkpt lat="36.485905" lon="-5.0657967"><ele>87.0</ele><time>2026-04-25T11:55:21.059Z</time></trkpt><trkpt lat="36.4859633" lon="-5.06613"><ele>87.0</ele><time>2026-04-25T11:55:22.063Z</time></trkpt><trkpt lat="36.4860167" lon="-5.0664633"><ele>87.0</ele><time>2026-04-25T11:55:23.061Z</time></trkpt><trkpt lat="36.4860667" lon="-5.0667967"><ele>88.0</ele><time>2026-04-25T11:55:24.065Z</time></trkpt><trkpt lat="36.4861133" lon="-5.067135"><ele>89.0</ele><time>2026-04-25T11:55:25.065Z</time></trkpt><trkpt lat="36.4861567" lon="-5.0674767"><ele>87.0</ele><time>2026-04-25T11:55:26.066Z</time></trkpt><trkpt lat="36.4861933" lon="-5.0678217"><ele>85.0</ele><time>2026-04-25T11:55:27.06Z</time></trkpt><trkpt lat="36.4862283" lon="-5.0681733"><ele>79.5</ele><time>2026-04-25T11:55:28.06Z</time></trkpt><trkpt lat="36.48626" lon="-5.0685317"><ele>74.0</ele><time>2026-04-25T11:55:29.061Z</time></trkpt><trkpt lat="36.4862917" lon="-5.0688917"><ele>65.0</ele><time>2026-04-25T11:55:30.066Z</time></trkpt><trkpt lat="36.4863167" lon="-5.0692567"><ele>56.0</ele><time>2026-04-25T11:55:31.059Z</time></trkpt><trkpt lat="36.4863383" lon="-5.069625"><ele>50.0</ele><time>2026-04-25T11:55:32.061Z</time></trkpt><trkpt lat="36.4863567" lon="-5.069995"><ele>44.0</ele><time>2026-04-25T11:55:33.061Z</time></trkpt><trkpt lat="36.4863667" lon="-5.0703667"><ele>44.0</ele><time>2026-04-25T11:55:34.064Z</time></trkpt><trkpt lat="36.486375" lon="-5.0707383"><ele>44.0</ele><time>2026-04-25T11:55:35.059Z</time></trkpt><trkpt lat="36.4863767" lon="-5.0711117"><ele>48.0</ele><time>2026-04-25T11:55:36.064Z</time></trkpt><trkpt lat="36.4863733" lon="-5.071485"><ele>52.0</ele><time>2026-04-25T11:55:37.059Z</time></trkpt><trkpt lat="36.4863633" lon="-5.071855"><ele>56.0</ele><time>2026-04-25T11:55:38.069Z</time></trkpt><trkpt lat="36.4863483" lon="-5.0722233"><ele>60.0</ele><time>2026-04-25T11:55:39.063Z</time></trkpt><trkpt lat="36.4863283" lon="-5.0725883"><ele>71.0</ele><time>2026-04-25T11:55:40.06Z</time></trkpt><trkpt lat="36.4863083" lon="-5.0729517"><ele>82.0</ele><time>2026-04-25T11:55:41.065Z</time></trkpt><trkpt lat="36.4862783" lon="-5.073315"><ele>84.0</ele><time>2026-04-25T11:55:42.064Z</time></trkpt><trkpt lat="36.486245" lon="-5.073675"><ele>86.0</ele><time>2026-04-25T11:55:43.059Z</time></trkpt><trkpt lat="36.4862083" lon="-5.0740367"><ele>86.5</ele><time>2026-04-25T11:55:44.059Z</time></trkpt><trkpt lat="36.4861683" lon="-5.0743983"><ele>87.0</ele><time>2026-04-25T11:55:45.058Z</time></trkpt><trkpt lat="36.48612" lon="-5.0747583"><ele>87.0</ele><time>2026-04-25T11:55:46.062Z</time></trkpt><trkpt lat="36.486065" lon="-5.0751167"><ele>87.0</ele><time>2026-04-25T11:55:47.062Z</time></trkpt><trkpt lat="36.4860083" lon="-5.075475"><ele>88.5</ele><time>2026-04-25T11:55:48.061Z</time></trkpt><trkpt lat="36.485945" lon="-5.0758283"><ele>90.0</ele><time>2026-04-25T11:55:49.065Z</time></trkpt><trkpt lat="36.4858767" lon="-5.0761817"><ele>90.0</ele><time>2026-04-25T11:55:50.064Z</time></trkpt><trkpt lat="36.4858033" lon="-5.076535"><ele>90.0</ele><time>2026-04-25T11:55:51.065Z</time></trkpt><trkpt lat="36.4857267" lon="-5.0768883"><ele>90.5</ele><time>2026-04-25T11:55:52.065Z</time></trkpt><trkpt lat="36.485645" lon="-5.077245"><ele>91.0</ele><time>2026-04-25T11:55:53.062Z</time></trkpt><trkpt lat="36.4855583" lon="-5.0776"><ele>90.0</ele><time>2026-04-25T11:55:54.067Z</time></trkpt><trkpt lat="36.485465" lon="-5.0779517"><ele>89.0</ele><time>2026-04-25T11:55:55.062Z</time></trkpt><trkpt lat="36.48537" lon="-5.0782983"><ele>86.5</ele><time>2026-04-25T11:55:56.064Z</time></trkpt><trkpt lat="36.48527" lon="-5.07864"><ele>84.0</ele><time>2026-04-25T11:55:57.065Z</time></trkpt><trkpt lat="36.485165" lon="-5.0789783"><ele>86.5</ele><time>2026-04-25T11:55:58.061Z</time></trkpt><trkpt lat="36.4850567" lon="-5.079315"><ele>89.0</ele><time>2026-04-25T11:55:59.061Z</time></trkpt><trkpt lat="36.4849417" lon="-5.0796483"><ele>95.5</ele><time>2026-04-25T11:56:00.067Z</time></trkpt><trkpt lat="36.484825" lon="-5.0799833"><ele>102.0</ele><time>2026-04-25T11:56:01.061Z</time></trkpt><trkpt lat="36.4847033" lon="-5.0803167"><ele>101.5</ele><time>2026-04-25T11:56:02.067Z</time></trkpt><trkpt lat="36.4845783" lon="-5.0806483"><ele>101.0</ele><time>2026-04-25T11:56:03.066Z</time></trkpt><trkpt lat="36.4844483" lon="-5.08098"><ele>99.0</ele><time>2026-04-25T11:56:04.062Z</time></trkpt><trkpt lat="36.4843117" lon="-5.081305"><ele>97.0</ele><time>2026-04-25T11:56:05.058Z</time></trkpt><trkpt lat="36.4841683" lon="-5.0816267"><ele>96.0</ele><time>2026-04-25T11:56:06.057Z</time></trkpt><trkpt lat="36.4840167" lon="-5.0819433"><ele>95.0</ele><time>2026-04-25T11:56:07.062Z</time></trkpt><trkpt lat="36.483865" lon="-5.0822583"><ele>99.5</ele><time>2026-04-25T11:56:08.061Z</time></trkpt><trkpt lat="36.4837067" lon="-5.0825683"><ele>104.0</ele><time>2026-04-25T11:56:09.06Z</time></trkpt><trkpt lat="36.4835417" lon="-5.0828767"><ele>104.0</ele><time>2026-04-25T11:56:10.062Z</time></trkpt><trkpt lat="36.4833783" lon="-5.08318"><ele>104.0</ele><time>2026-04-25T11:56:11.064Z</time></trkpt><trkpt lat="36.48321" lon="-5.0834767"><ele>110.0</ele><time>2026-04-25T11:56:12.064Z</time></trkpt><trkpt lat="36.4830333" lon="-5.0837733"><ele>116.0</ele><time>2026-04-25T11:56:13.065Z</time></trkpt><trkpt lat="36.4828567" lon="-5.084065"><ele>117.0</ele><time>2026-04-25T11:56:14.067Z</time></trkpt><trkpt lat="36.4826783" lon="-5.084355"><ele>118.0</ele><time>2026-04-25T11:56:15.058Z</time></trkpt><trkpt lat="36.482495" lon="-5.0846417"><ele>118.0</ele><time>2026-04-25T11:56:16.065Z</time></trkpt><trkpt lat="36.482305" lon="-5.0849233"><ele>118.0</ele><time>2026-04-25T11:56:17.064Z</time></trkpt><trkpt lat="36.482115" lon="-5.0852"><ele>112.5</ele><time>2026-04-25T11:56:18.068Z</time></trkpt><trkpt lat="36.48192" lon="-5.08547"><ele>107.0</ele><time>2026-04-25T11:56:19.061Z</time></trkpt><trkpt lat="36.4817233" lon="-5.0857333"><ele>107.5</ele><time>2026-04-25T11:56:20.065Z</time></trkpt><trkpt lat="36.4815217" lon="-5.085995"><ele>108.0</ele><time>2026-04-25T11:56:21.062Z</time></trkpt><trkpt lat="36.4813183" lon="-5.08625"><ele>106.0</ele><time>2026-04-25T11:56:22.062Z</time></trkpt><trkpt lat="36.4811117" lon="-5.0865017"><ele>104.0</ele><time>2026-04-25T11:56:23.064Z</time></trkpt><trkpt lat="36.4809017" lon="-5.0867483"><ele>111.5</ele><time>2026-04-25T11:56:24.064Z</time></trkpt><trkpt lat="36.480685" lon="-5.0869867"><ele>119.0</ele><time>2026-04-25T11:56:25.063Z</time></trkpt><trkpt lat="36.4804667" lon="-5.0872217"><ele>122.0</ele><time>2026-04-25T11:56:26.061Z</time></trkpt><trkpt lat="36.480245" lon="-5.0874517"><ele>125.0</ele><time>2026-04-25T11:56:27.061Z</time></trkpt><trkpt lat="36.4800217" lon="-5.08768"><ele>125.0</ele><time>2026-04-25T11:56:28.065Z</time></trkpt><trkpt lat="36.4797967" lon="-5.0879083"><ele>125.0</ele><time>2026-04-25T11:56:29.061Z</time></trkpt><trkpt lat="36.4795717" lon="-5.088135"><ele>129.5</ele><time>2026-04-25T11:56:30.061Z</time></trkpt><trkpt lat="36.479345" lon="-5.0883583"><ele>134.0</ele><time>2026-04-25T11:56:31.065Z</time></trkpt><trkpt lat="36.4791133" lon="-5.0885767"><ele>134.0</ele><time>2026-04-25T11:56:32.064Z</time></trkpt><trkpt lat="36.47888" lon="-5.0887933"><ele>134.0</ele><time>2026-04-25T11:56:33.062Z</time></trkpt><trkpt lat="36.4786467" lon="-5.0890067"><ele>135.0</ele><time>2026-04-25T11:56:34.065Z</time></trkpt><trkpt lat="36.4784117" lon="-5.0892183"><ele>136.0</ele><time>2026-04-25T11:56:35.065Z</time></trkpt><trkpt lat="36.4781767" lon="-5.0894367"><ele>136.0</ele><time>2026-04-25T11:56:36.063Z</time></trkpt><trkpt lat="36.477945" lon="-5.089655"><ele>136.0</ele><time>2026-04-25T11:56:37.061Z</time></trkpt><trkpt lat="36.4777117" lon="-5.0898783"><ele>141.5</ele><time>2026-04-25T11:56:38.065Z</time></trkpt><trkpt lat="36.4774833" lon="-5.090105"><ele>147.0</ele><time>2026-04-25T11:56:39.065Z</time></trkpt><trkpt lat="36.4772583" lon="-5.0903367"><ele>148.0</ele><time>2026-04-25T11:56:40.066Z</time></trkpt><trkpt lat="36.477035" lon="-5.0905733"><ele>149.0</ele><time>2026-04-25T11:56:41.066Z</time></trkpt><trkpt lat="36.4768183" lon="-5.0908183"><ele>149.0</ele><time>2026-04-25T11:56:42.064Z</time></trkpt><trkpt lat="36.4766067" lon="-5.0910717"><ele>149.0</ele><time>2026-04-25T11:56:43.063Z</time></trkpt><trkpt lat="36.4764017" lon="-5.0913333"><ele>149.5</ele><time>2026-04-25T11:56:44.066Z</time></trkpt><trkpt lat="36.4762017" lon="-5.0916017"><ele>150.0</ele><time>2026-04-25T11:56:45.061Z</time></trkpt><trkpt lat="36.4760083" lon="-5.0918783"><ele>150.0</ele><time>2026-04-25T11:56:46.069Z</time></trkpt><trkpt lat="36.475825" lon="-5.09216"><ele>150.0</ele><time>2026-04-25T11:56:47.06Z</time></trkpt><trkpt lat="36.475645" lon="-5.092445"><ele>153.0</ele><time>2026-04-25T11:56:48.064Z</time></trkpt><trkpt lat="36.4754633" lon="-5.0927367"><ele>156.0</ele><time>2026-04-25T11:56:49.063Z</time></trkpt><trkpt lat="36.4752917" lon="-5.0930367"><ele>150.0</ele><time>2026-04-25T11:56:50.062Z</time></trkpt><trkpt lat="36.4751317" lon="-5.0933483"><ele>144.0</ele><time>2026-04-25T11:56:51.058Z</time></trkpt><trkpt lat="36.474985" lon="-5.0936717"><ele>144.0</ele><time>2026-04-25T11:56:52.057Z</time></trkpt><trkpt lat="36.474855" lon="-5.0940033"><ele>144.0</ele><time>2026-04-25T11:56:53.061Z</time></trkpt><trkpt lat="36.47473" lon="-5.0943367"><ele>142.0</ele><time>2026-04-25T11:56:54.06Z</time></trkpt><trkpt lat="36.4746117" lon="-5.09467"><ele>140.0</ele><time>2026-04-25T11:56:55.063Z</time></trkpt><trkpt lat="36.4745017" lon="-5.0950083"><ele>140.0</ele><time>2026-04-25T11:56:56.062Z</time></trkpt><trkpt lat="36.4744033" lon="-5.0953517"><ele>140.0</ele><time>2026-04-25T11:56:57.062Z</time></trkpt><trkpt lat="36.4743133" lon="-5.0956983"><ele>146.0</ele><time>2026-04-25T11:56:58.061Z</time></trkpt><trkpt lat="36.47424" lon="-5.096055"><ele>152.0</ele><time>2026-04-25T11:56:59.057Z</time></trkpt><trkpt lat="36.4741783" lon="-5.0964183"><ele>147.5</ele><time>2026-04-25T11:57:00.064Z</time></trkpt><trkpt lat="36.47412" lon="-5.0967817"><ele>143.0</ele><time>2026-04-25T11:57:01.065Z</time></trkpt><trkpt lat="36.47407" lon="-5.09715"><ele>141.0</ele><time>2026-04-25T11:57:02.063Z</time></trkpt><trkpt lat="36.4740233" lon="-5.0975217"><ele>139.0</ele><time>2026-04-25T11:57:03.06Z</time></trkpt><trkpt lat="36.473985" lon="-5.0978967"><ele>143.0</ele><time>2026-04-25T11:57:04.061Z</time></trkpt><trkpt lat="36.47396" lon="-5.09827"><ele>147.0</ele><time>2026-04-25T11:57:05.06Z</time></trkpt><trkpt lat="36.473945" lon="-5.0986433"><ele>147.0</ele><time>2026-04-25T11:57:06.062Z</time></trkpt><trkpt lat="36.47394" lon="-5.099015"><ele>147.0</ele><time>2026-04-25T11:57:07.061Z</time></trkpt><trkpt lat="36.4739433" lon="-5.0993867"><ele>149.0</ele><time>2026-04-25T11:57:08.063Z</time></trkpt><trkpt lat="36.47396" lon="-5.0997567"><ele>151.0</ele><time>2026-04-25T11:57:09.062Z</time></trkpt><trkpt lat="36.4739817" lon="-5.1001267"><ele>151.0</ele><time>2026-04-25T11:57:10.06Z</time></trkpt><trkpt lat="36.4740117" lon="-5.1004933"><ele>151.0</ele><time>2026-04-25T11:57:11.06Z</time></trkpt><trkpt lat="36.4740467" lon="-5.10086"><ele>146.0</ele><time>2026-04-25T11:57:12.061Z</time></trkpt><trkpt lat="36.474085" lon="-5.10123"><ele>141.0</ele><time>2026-04-25T11:57:13.06Z</time></trkpt><trkpt lat="36.4741217" lon="-5.1016"><ele>135.0</ele><time>2026-04-25T11:57:14.06Z</time></trkpt><trkpt lat="36.4741583" lon="-5.1019717"><ele>129.0</ele><time>2026-04-25T11:57:15.061Z</time></trkpt><trkpt lat="36.4741933" lon="-5.102345"><ele>126.5</ele><time>2026-04-25T11:57:16.058Z</time></trkpt><trkpt lat="36.4742233" lon="-5.1027217"><ele>124.0</ele><time>2026-04-25T11:57:17.063Z</time></trkpt><trkpt lat="36.4742533" lon="-5.1030933"><ele>119.0</ele><time>2026-04-25T11:57:18.059Z</time></trkpt><trkpt lat="36.4742733" lon="-5.1034617"><ele>114.0</ele><time>2026-04-25T11:57:19.065Z</time></trkpt><trkpt lat="36.4742883" lon="-5.1038317"><ele>111.0</ele><time>2026-04-25T11:57:20.06Z</time></trkpt><trkpt lat="36.4742967" lon="-5.1042"><ele>108.0</ele><time>2026-04-25T11:57:21.064Z</time></trkpt><trkpt lat="36.4742967" lon="-5.1045717"><ele>107.5</ele><time>2026-04-25T11:57:22.062Z</time></trkpt><trkpt lat="36.4742867" lon="-5.10494"><ele>107.0</ele><time>2026-04-25T11:57:23.064Z</time></trkpt><trkpt lat="36.4742667" lon="-5.105305"><ele>107.0</ele><time>2026-04-25T11:57:24.063Z</time></trkpt><trkpt lat="36.4742367" lon="-5.1056633"><ele>107.0</ele><time>2026-04-25T11:57:25.065Z</time></trkpt><trkpt lat="36.4741967" lon="-5.1060167"><ele>107.5</ele><time>2026-04-25T11:57:26.064Z</time></trkpt><trkpt lat="36.4741483" lon="-5.1063717"><ele>108.0</ele><time>2026-04-25T11:57:27.059Z</time></trkpt><trkpt lat="36.4740933" lon="-5.106725"><ele>105.5</ele><time>2026-04-25T11:57:28.057Z</time></trkpt><trkpt lat="36.4740283" lon="-5.1070733"><ele>103.0</ele><time>2026-04-25T11:57:29.059Z</time></trkpt><trkpt lat="36.473955" lon="-5.10742"><ele>96.0</ele><time>2026-04-25T11:57:30.06Z</time></trkpt><trkpt lat="36.47387" lon="-5.1077617"><ele>89.0</ele><time>2026-04-25T11:57:31.06Z</time></trkpt><trkpt lat="36.4737783" lon="-5.1080983"><ele>83.5</ele><time>2026-04-25T11:57:32.061Z</time></trkpt><trkpt lat="36.4736783" lon="-5.1084333"><ele>78.0</ele><time>2026-04-25T11:57:33.066Z</time></trkpt><trkpt lat="36.47357" lon="-5.108765"><ele>83.0</ele><time>2026-04-25T11:57:34.062Z</time></trkpt><trkpt lat="36.4734517" lon="-5.1090917"><ele>88.0</ele><time>2026-04-25T11:57:35.062Z</time></trkpt><trkpt lat="36.473325" lon="-5.1094183"><ele>88.0</ele><time>2026-04-25T11:57:36.066Z</time></trkpt><trkpt lat="36.47319" lon="-5.1097417"><ele>88.0</ele><time>2026-04-25T11:57:37.058Z</time></trkpt><trkpt lat="36.4730483" lon="-5.1100617"><ele>94.5</ele><time>2026-04-25T11:57:38.064Z</time></trkpt><trkpt lat="36.4729" lon="-5.1103833"><ele>101.0</ele><time>2026-04-25T11:57:39.058Z</time></trkpt><trkpt lat="36.472735" lon="-5.110695"><ele>99.5</ele><time>2026-04-25T11:57:40.059Z</time></trkpt><trkpt lat="36.4725583" lon="-5.1110033"><ele>98.0</ele><time>2026-04-25T11:57:41.064Z</time></trkpt><trkpt lat="36.4723717" lon="-5.111305"><ele>100.0</ele><time>2026-04-25T11:57:42.061Z</time></trkpt><trkpt lat="36.472175" lon="-5.1115967"><ele>102.0</ele><time>2026-04-25T11:57:43.064Z</time></trkpt><trkpt lat="36.47197" lon="-5.1118783"><ele>102.0</ele><time>2026-04-25T11:57:44.061Z</time></trkpt><trkpt lat="36.4717583" lon="-5.1121533"><ele>102.0</ele><time>2026-04-25T11:57:45.063Z</time></trkpt><trkpt lat="36.471545" lon="-5.11242"><ele>102.0</ele><time>2026-04-25T11:57:46.066Z</time></trkpt><trkpt lat="36.471325" lon="-5.1126767"><ele>102.0</ele><time>2026-04-25T11:57:47.061Z</time></trkpt><trkpt lat="36.4710983" lon="-5.1129217"><ele>94.0</ele><time>2026-04-25T11:57:48.064Z</time></trkpt><trkpt lat="36.470865" lon="-5.1131567"><ele>86.0</ele><time>2026-04-25T11:57:49.061Z</time></trkpt><trkpt lat="36.470625" lon="-5.1133783"><ele>80.0</ele><time>2026-04-25T11:57:50.065Z</time></trkpt><trkpt lat="36.4703783" lon="-5.113585"><ele>74.0</ele><time>2026-04-25T11:57:51.063Z</time></trkpt><trkpt lat="36.470125" lon="-5.1137817"><ele>74.0</ele><time>2026-04-25T11:57:52.059Z</time></trkpt><trkpt lat="36.4698667" lon="-5.1139667"><ele>74.0</ele><time>2026-04-25T11:57:53.058Z</time></trkpt><trkpt lat="36.4696033" lon="-5.11414"><ele>71.5</ele><time>2026-04-25T11:57:54.064Z</time></trkpt><trkpt lat="36.4693367" lon="-5.1143"><ele>69.0</ele><time>2026-04-25T11:57:55.064Z</time></trkpt><trkpt lat="36.4690633" lon="-5.1144467"><ele>69.0</ele><time>2026-04-25T11:57:56.062Z</time></trkpt><trkpt lat="36.4687867" lon="-5.1145817"><ele>69.0</ele><time>2026-04-25T11:57:57.061Z</time></trkpt><trkpt lat="36.4685083" lon="-5.1147083"><ele>70.0</ele><time>2026-04-25T11:57:58.066Z</time></trkpt><trkpt lat="36.4682233" lon="-5.1148233"><ele>71.0</ele><time>2026-04-25T11:57:59.061Z</time></trkpt><trkpt lat="36.467935" lon="-5.1149283"><ele>78.0</ele><time>2026-04-25T11:58:00.065Z</time></trkpt><trkpt lat="36.4676433" lon="-5.11502"><ele>85.0</ele><time>2026-04-25T11:58:01.06Z</time></trkpt><trkpt lat="36.4673483" lon="-5.1151017"><ele>84.5</ele><time>2026-04-25T11:58:02.064Z</time></trkpt><trkpt lat="36.4670483" lon="-5.1151733"><ele>84.0</ele><time>2026-04-25T11:58:03.063Z</time></trkpt><trkpt lat="36.4667483" lon="-5.1152383"><ele>84.0</ele><time>2026-04-25T11:58:04.06Z</time></trkpt><trkpt lat="36.466445" lon="-5.1153017"><ele>84.0</ele><time>2026-04-25T11:58:05.062Z</time></trkpt><trkpt lat="36.46614" lon="-5.1153633"><ele>84.0</ele><time>2026-04-25T11:58:06.06Z</time></trkpt><trkpt lat="36.4658333" lon="-5.1154283"><ele>84.0</ele><time>2026-04-25T11:58:07.062Z</time></trkpt><trkpt lat="36.46553" lon="-5.115495"><ele>84.0</ele><time>2026-04-25T11:58:08.062Z</time></trkpt><trkpt lat="36.4652233" lon="-5.115565"><ele>84.0</ele><time>2026-04-25T11:58:09.062Z</time></trkpt><trkpt lat="36.4649167" lon="-5.11564"><ele>83.0</ele><time>2026-04-25T11:58:10.069Z</time></trkpt><trkpt lat="36.46461" lon="-5.11572"><ele>82.0</ele><time>2026-04-25T11:58:11.061Z</time></trkpt><trkpt lat="36.4643033" lon="-5.115805"><ele>82.0</ele><time>2026-04-25T11:58:12.064Z</time></trkpt><trkpt lat="36.464" lon="-5.115895"><ele>82.0</ele><time>2026-04-25T11:58:13.068Z</time></trkpt><trkpt lat="36.463695" lon="-5.1159867"><ele>80.5</ele><time>2026-04-25T11:58:14.068Z</time></trkpt><trkpt lat="36.46339" lon="-5.1160833"><ele>79.0</ele><time>2026-04-25T11:58:15.062Z</time></trkpt><trkpt lat="36.4630833" lon="-5.116185"><ele>79.0</ele><time>2026-04-25T11:58:16.061Z</time></trkpt><trkpt lat="36.4627817" lon="-5.1162933"><ele>79.0</ele><time>2026-04-25T11:58:17.062Z</time></trkpt><trkpt lat="36.4624817" lon="-5.116415"><ele>79.0</ele><time>2026-04-25T11:58:18.067Z</time></trkpt><trkpt lat="36.462185" lon="-5.1165483"><ele>79.0</ele><time>2026-04-25T11:58:19.064Z</time></trkpt><trkpt lat="36.4618933" lon="-5.1166883"><ele>81.0</ele><time>2026-04-25T11:58:20.058Z</time></trkpt><trkpt lat="36.461605" lon="-5.1168333"><ele>83.0</ele><time>2026-04-25T11:58:21.062Z</time></trkpt><trkpt lat="36.4613233" lon="-5.116985"><ele>84.5</ele><time>2026-04-25T11:58:22.058Z</time></trkpt><trkpt lat="36.4610417" lon="-5.11714"><ele>86.0</ele><time>2026-04-25T11:58:23.068Z</time></trkpt><trkpt lat="36.4607667" lon="-5.1173033"><ele>88.5</ele><time>2026-04-25T11:58:24.059Z</time></trkpt><trkpt lat="36.460495" lon="-5.117475"><ele>91.0</ele><time>2026-04-25T11:58:25.063Z</time></trkpt><trkpt lat="36.4602283" lon="-5.1176583"><ele>91.0</ele><time>2026-04-25T11:58:26.061Z</time></trkpt><trkpt lat="36.4599683" lon="-5.1178517"><ele>91.0</ele><time>2026-04-25T11:58:27.064Z</time></trkpt><trkpt lat="36.4597117" lon="-5.1180533"><ele>90.0</ele><time>2026-04-25T11:58:28.062Z</time></trkpt><trkpt lat="36.4594533" lon="-5.11826"><ele>89.0</ele><time>2026-04-25T11:58:29.063Z</time></trkpt><trkpt lat="36.459195" lon="-5.1184717"><ele>89.0</ele><time>2026-04-25T11:58:30.065Z</time></trkpt><trkpt lat="36.4589383" lon="-5.11869"><ele>89.0</ele><time>2026-04-25T11:58:31.06Z</time></trkpt><trkpt lat="36.458685" lon="-5.1189133"><ele>85.0</ele><time>2026-04-25T11:58:32.064Z</time></trkpt><trkpt lat="36.4584367" lon="-5.1191483"><ele>81.0</ele><time>2026-04-25T11:58:33.059Z</time></trkpt><trkpt lat="36.4581983" lon="-5.1193933"><ele>81.0</ele><time>2026-04-25T11:58:34.06Z</time></trkpt><trkpt lat="36.4579633" lon="-5.1196467"><ele>81.0</ele><time>2026-04-25T11:58:35.063Z</time></trkpt><trkpt lat="36.45773" lon="-5.1199067"><ele>76.0</ele><time>2026-04-25T11:58:36.068Z</time></trkpt><trkpt lat="36.4575" lon="-5.1201767"><ele>71.0</ele><time>2026-04-25T11:58:37.064Z</time></trkpt><trkpt lat="36.4572733" lon="-5.1204533"><ele>75.0</ele><time>2026-04-25T11:58:38.063Z</time></trkpt><trkpt lat="36.4570517" lon="-5.1207367"><ele>79.0</ele><time>2026-04-25T11:58:39.063Z</time></trkpt><trkpt lat="36.4568333" lon="-5.121025"><ele>79.0</ele><time>2026-04-25T11:58:40.061Z</time></trkpt><trkpt lat="36.4566183" lon="-5.12132"><ele>79.0</ele><time>2026-04-25T11:58:41.066Z</time></trkpt><trkpt lat="36.4564067" lon="-5.1216167"><ele>81.0</ele><time>2026-04-25T11:58:42.066Z</time></trkpt><trkpt lat="36.456195" lon="-5.1219133"><ele>83.0</ele><time>2026-04-25T11:58:43.06Z</time></trkpt><trkpt lat="36.455985" lon="-5.1222117"><ele>80.5</ele><time>2026-04-25T11:58:44.062Z</time></trkpt><trkpt lat="36.4557733" lon="-5.1225083"><ele>78.0</ele><time>2026-04-25T11:58:45.06Z</time></trkpt><trkpt lat="36.4555617" lon="-5.122805"><ele>76.5</ele><time>2026-04-25T11:58:46.061Z</time></trkpt><trkpt lat="36.4553517" lon="-5.1230983"><ele>75.0</ele><time>2026-04-25T11:58:47.061Z</time></trkpt><trkpt lat="36.4551417" lon="-5.12339"><ele>74.5</ele><time>2026-04-25T11:58:48.062Z</time></trkpt><trkpt lat="36.4549333" lon="-5.123675"><ele>74.0</ele><time>2026-04-25T11:58:49.059Z</time></trkpt><trkpt lat="36.45472" lon="-5.1239533"><ele>70.5</ele><time>2026-04-25T11:58:50.059Z</time></trkpt><trkpt lat="36.4545017" lon="-5.12423"><ele>67.0</ele><time>2026-04-25T11:58:51.063Z</time></trkpt><trkpt lat="36.4542817" lon="-5.1245017"><ele>67.0</ele><time>2026-04-25T11:58:52.06Z</time></trkpt><trkpt lat="36.4540633" lon="-5.12477"><ele>67.0</ele><time>2026-04-25T11:58:53.058Z</time></trkpt><trkpt lat="36.4538433" lon="-5.125035"><ele>64.5</ele><time>2026-04-25T11:58:54.061Z</time></trkpt><trkpt lat="36.4536217" lon="-5.1252933"><ele>62.0</ele><time>2026-04-25T11:58:55.06Z</time></trkpt><trkpt lat="36.453395" lon="-5.1255483"><ele>61.0</ele><time>2026-04-25T11:58:56.061Z</time></trkpt><trkpt lat="36.4531717" lon="-5.1257983"><ele>60.0</ele><time>2026-04-25T11:58:57.059Z</time></trkpt><trkpt lat="36.4529417" lon="-5.126045"><ele>55.0</ele><time>2026-04-25T11:58:58.063Z</time></trkpt><trkpt lat="36.45271" lon="-5.1262883"><ele>50.0</ele><time>2026-04-25T11:58:59.069Z</time></trkpt><trkpt lat="36.4524733" lon="-5.1265267"><ele>51.5</ele><time>2026-04-25T11:59:00.069Z</time></trkpt><trkpt lat="36.4522317" lon="-5.12676"><ele>53.0</ele><time>2026-04-25T11:59:01.064Z</time></trkpt><trkpt lat="36.4519867" lon="-5.1269883"><ele>49.0</ele><time>2026-04-25T11:59:02.069Z</time></trkpt><trkpt lat="36.4517383" lon="-5.1272167"><ele>45.0</ele><time>2026-04-25T11:59:03.065Z</time></trkpt><trkpt lat="36.451485" lon="-5.1274383"><ele>46.5</ele><time>2026-04-25T11:59:04.066Z</time></trkpt><trkpt lat="36.4512267" lon="-5.1276533"><ele>48.0</ele><time>2026-04-25T11:59:05.064Z</time></trkpt><trkpt lat="36.4509683" lon="-5.1278617"><ele>48.0</ele><time>2026-04-25T11:59:06.064Z</time></trkpt><trkpt lat="36.4507067" lon="-5.128065"><ele>48.0</ele><time>2026-04-25T11:59:07.063Z</time></trkpt><trkpt lat="36.4504433" lon="-5.1282617"><ele>54.5</ele><time>2026-04-25T11:59:08.06Z</time></trkpt><trkpt lat="36.45018" lon="-5.128455"><ele>61.0</ele><time>2026-04-25T11:59:09.059Z</time></trkpt><trkpt lat="36.4499133" lon="-5.1286433"><ele>61.0</ele><time>2026-04-25T11:59:10.06Z</time></trkpt><trkpt lat="36.4496433" lon="-5.1288267"><ele>61.0</ele><time>2026-04-25T11:59:11.065Z</time></trkpt><trkpt lat="36.4493717" lon="-5.129005"><ele>60.5</ele><time>2026-04-25T11:59:12.062Z</time></trkpt><trkpt lat="36.449095" lon="-5.1291783"><ele>60.0</ele><time>2026-04-25T11:59:13.061Z</time></trkpt><trkpt lat="36.448815" lon="-5.1293483"><ele>58.0</ele><time>2026-04-25T11:59:14.062Z</time></trkpt><trkpt lat="36.4485333" lon="-5.1295117"><ele>56.0</ele><time>2026-04-25T11:59:15.064Z</time></trkpt><trkpt lat="36.44825" lon="-5.1296717"><ele>56.0</ele><time>2026-04-25T11:59:16.059Z</time></trkpt><trkpt lat="36.447965" lon="-5.1298267"><ele>56.0</ele><time>2026-04-25T11:59:17.061Z</time></trkpt><trkpt lat="36.4476783" lon="-5.129975"><ele>54.0</ele><time>2026-04-25T11:59:18.06Z</time></trkpt><trkpt lat="36.44739" lon="-5.130115"><ele>52.0</ele><time>2026-04-25T11:59:19.063Z</time></trkpt><trkpt lat="36.4471" lon="-5.130245"><ele>50.5</ele><time>2026-04-25T11:59:20.07Z</time></trkpt><trkpt lat="36.44681" lon="-5.1303733"><ele>49.0</ele><time>2026-04-25T11:59:21.06Z</time></trkpt><trkpt lat="36.44652" lon="-5.130495"><ele>49.0</ele><time>2026-04-25T11:59:22.061Z</time></trkpt><trkpt lat="36.4462283" lon="-5.1306083"><ele>49.0</ele><time>2026-04-25T11:59:23.063Z</time></trkpt><trkpt lat="36.4459383" lon="-5.1307267"><ele>49.5</ele><time>2026-04-25T11:59:24.065Z</time></trkpt><trkpt lat="36.4456467" lon="-5.1308367"><ele>50.0</ele><time>2026-04-25T11:59:25.064Z</time></trkpt><trkpt lat="36.445355" lon="-5.13094"><ele>50.0</ele><time>2026-04-25T11:59:26.064Z</time></trkpt><trkpt lat="36.4450633" lon="-5.1310433"><ele>50.0</ele><time>2026-04-25T11:59:27.066Z</time></trkpt><trkpt lat="36.44477" lon="-5.131135"><ele>47.5</ele><time>2026-04-25T11:59:28.062Z</time></trkpt><trkpt lat="36.4444767" lon="-5.131225"><ele>45.0</ele><time>2026-04-25T11:59:29.066Z</time></trkpt><trkpt lat="36.4441833" lon="-5.1313117"><ele>45.0</ele><time>2026-04-25T11:59:30.066Z</time></trkpt><trkpt lat="36.4438917" lon="-5.1313967"><ele>45.0</ele><time>2026-04-25T11:59:31.061Z</time></trkpt><trkpt lat="36.4436" lon="-5.1314833"><ele>43.0</ele><time>2026-04-25T11:59:32.067Z</time></trkpt><trkpt lat="36.4433067" lon="-5.1315667"><ele>41.0</ele><time>2026-04-25T11:59:33.061Z</time></trkpt><trkpt lat="36.443015" lon="-5.1316533"><ele>43.0</ele><time>2026-04-25T11:59:34.058Z</time></trkpt><trkpt lat="36.4427233" lon="-5.1317417"><ele>45.0</ele><time>2026-04-25T11:59:35.06Z</time></trkpt><trkpt lat="36.4424333" lon="-5.131835"><ele>45.0</ele><time>2026-04-25T11:59:36.058Z</time></trkpt><trkpt lat="36.4421417" lon="-5.131935"><ele>45.0</ele><time>2026-04-25T11:59:37.062Z</time></trkpt><trkpt lat="36.4418517" lon="-5.1320433"><ele>46.0</ele><time>2026-04-25T11:59:38.062Z</time></trkpt><trkpt lat="36.441565" lon="-5.1321633"><ele>47.0</ele><time>2026-04-25T11:59:39.061Z</time></trkpt><trkpt lat="36.4412833" lon="-5.132295"><ele>43.5</ele><time>2026-04-25T11:59:40.06Z</time></trkpt><trkpt lat="36.4410067" lon="-5.132435"><ele>40.0</ele><time>2026-04-25T11:59:41.062Z</time></trkpt><trkpt lat="36.4407317" lon="-5.13258"><ele>42.0</ele><time>2026-04-25T11:59:42.061Z</time></trkpt><trkpt lat="36.44046" lon="-5.13274"><ele>44.0</ele><time>2026-04-25T11:59:43.063Z</time></trkpt><trkpt lat="36.4401933" lon="-5.132915"><ele>44.0</ele><time>2026-04-25T11:59:44.06Z</time></trkpt><trkpt lat="36.439935" lon="-5.1331017"><ele>44.0</ele><time>2026-04-25T11:59:45.062Z</time></trkpt><trkpt lat="36.4396817" lon="-5.133295"><ele>44.0</ele><time>2026-04-25T11:59:46.061Z</time></trkpt><trkpt lat="36.4394317" lon="-5.1334967"><ele>44.0</ele><time>2026-04-25T11:59:47.065Z</time></trkpt><trkpt lat="36.4391883" lon="-5.1337067"><ele>44.0</ele><time>2026-04-25T11:59:48.063Z</time></trkpt><trkpt lat="36.4389517" lon="-5.1339267"><ele>44.0</ele><time>2026-04-25T11:59:49.06Z</time></trkpt><trkpt lat="36.4387217" lon="-5.1341533"><ele>36.5</ele><time>2026-04-25T11:59:50.064Z</time></trkpt><trkpt lat="36.438495" lon="-5.13439"><ele>29.0</ele><time>2026-04-25T11:59:51.063Z</time></trkpt><trkpt lat="36.4382717" lon="-5.1346367"><ele>27.0</ele><time>2026-04-25T11:59:52.061Z</time></trkpt><trkpt lat="36.438055" lon="-5.1348933"><ele>25.0</ele><time>2026-04-25T11:59:53.065Z</time></trkpt><trkpt lat="36.4378467" lon="-5.13516"><ele>24.5</ele><time>2026-04-25T11:59:54.065Z</time></trkpt><trkpt lat="36.43764" lon="-5.135435"><ele>24.0</ele><time>2026-04-25T11:59:55.062Z</time></trkpt><trkpt lat="36.4374383" lon="-5.135715"><ele>24.0</ele><time>2026-04-25T11:59:56.065Z</time></trkpt><trkpt lat="36.4372467" lon="-5.1360067"><ele>24.0</ele><time>2026-04-25T11:59:57.06Z</time></trkpt><trkpt lat="36.4370617" lon="-5.136305"><ele>26.0</ele><time>2026-04-25T11:59:58.065Z</time></trkpt><trkpt lat="36.436885" lon="-5.1366117"><ele>28.0</ele><time>2026-04-25T11:59:59.063Z</time></trkpt><trkpt lat="36.436715" lon="-5.1369217"><ele>28.0</ele><time>2026-04-25T12:00:00.058Z</time></trkpt><trkpt lat="36.436555" lon="-5.1372367"><ele>28.0</ele><time>2026-04-25T12:00:01.061Z</time></trkpt><trkpt lat="36.4364033" lon="-5.137555"><ele>28.0</ele><time>2026-04-25T12:00:02.064Z</time></trkpt><trkpt lat="36.436265" lon="-5.137875"><ele>28.0</ele><time>2026-04-25T12:00:03.062Z</time></trkpt><trkpt lat="36.4361333" lon="-5.1381983"><ele>29.5</ele><time>2026-04-25T12:00:04.061Z</time></trkpt><trkpt lat="36.4360133" lon="-5.1385283"><ele>31.0</ele><time>2026-04-25T12:00:05.06Z</time></trkpt><trkpt lat="36.4359083" lon="-5.138865"><ele>32.0</ele><time>2026-04-25T12:00:06.06Z</time></trkpt><trkpt lat="36.4358133" lon="-5.1392033"><ele>33.0</ele><time>2026-04-25T12:00:07.059Z</time></trkpt><trkpt lat="36.43573" lon="-5.1395433"><ele>37.0</ele><time>2026-04-25T12:00:08.062Z</time></trkpt><trkpt lat="36.43566" lon="-5.1398867"><ele>41.0</ele><time>2026-04-25T12:00:09.063Z</time></trkpt><trkpt lat="36.4355983" lon="-5.1402317"><ele>41.0</ele><time>2026-04-25T12:00:10.059Z</time></trkpt><trkpt lat="36.43555" lon="-5.1405767"><ele>41.0</ele><time>2026-04-25T12:00:11.063Z</time></trkpt><trkpt lat="36.4355117" lon="-5.1409233"><ele>43.5</ele><time>2026-04-25T12:00:12.063Z</time></trkpt><trkpt lat="36.4354817" lon="-5.1412717"><ele>46.0</ele><time>2026-04-25T12:00:13.063Z</time></trkpt><trkpt lat="36.4354633" lon="-5.14162"><ele>46.0</ele><time>2026-04-25T12:00:14.066Z</time></trkpt><trkpt lat="36.435455" lon="-5.14197"><ele>46.0</ele><time>2026-04-25T12:00:15.061Z</time></trkpt><trkpt lat="36.4354617" lon="-5.14232"><ele>47.0</ele><time>2026-04-25T12:00:16.063Z</time></trkpt><trkpt lat="36.43548" lon="-5.1426717"><ele>48.0</ele><time>2026-04-25T12:00:17.063Z</time></trkpt><trkpt lat="36.4355067" lon="-5.1430233"><ele>46.0</ele><time>2026-04-25T12:00:18.064Z</time></trkpt><trkpt lat="36.4355383" lon="-5.1433767"><ele>44.0</ele><time>2026-04-25T12:00:19.06Z</time></trkpt><trkpt lat="36.4355717" lon="-5.1437317"><ele>42.5</ele><time>2026-04-25T12:00:20.059Z</time></trkpt><trkpt lat="36.4356017" lon="-5.1440867"><ele>41.0</ele><time>2026-04-25T12:00:21.058Z</time></trkpt><trkpt lat="36.4356283" lon="-5.144445"><ele>41.0</ele><time>2026-04-25T12:00:22.061Z</time></trkpt><trkpt lat="36.4356533" lon="-5.1448033"><ele>41.0</ele><time>2026-04-25T12:00:23.063Z</time></trkpt><trkpt lat="36.4356767" lon="-5.14516"><ele>40.5</ele><time>2026-04-25T12:00:24.062Z</time></trkpt><trkpt lat="36.4357" lon="-5.1455183"><ele>40.0</ele><time>2026-04-25T12:00:25.061Z</time></trkpt><trkpt lat="36.4357217" lon="-5.1458733"><ele>39.5</ele><time>2026-04-25T12:00:26.062Z</time></trkpt><trkpt lat="36.4357417" lon="-5.14623"><ele>39.0</ele><time>2026-04-25T12:00:27.062Z</time></trkpt><trkpt lat="36.4357583" lon="-5.146585"><ele>41.5</ele><time>2026-04-25T12:00:28.059Z</time></trkpt><trkpt lat="36.4357733" lon="-5.1469417"><ele>44.0</ele><time>2026-04-25T12:00:29.056Z</time></trkpt><trkpt lat="36.4357867" lon="-5.1473"><ele>48.0</ele><time>2026-04-25T12:00:30.06Z</time></trkpt><trkpt lat="36.4357983" lon="-5.1476583"><ele>52.0</ele><time>2026-04-25T12:00:31.061Z</time></trkpt><trkpt lat="36.4358067" lon="-5.1480167"><ele>53.5</ele><time>2026-04-25T12:00:32.057Z</time></trkpt><trkpt lat="36.4358117" lon="-5.1483733"><ele>55.0</ele><time>2026-04-25T12:00:33.066Z</time></trkpt><trkpt lat="36.4358133" lon="-5.14873"><ele>53.5</ele><time>2026-04-25T12:00:34.063Z</time></trkpt><trkpt lat="36.4358117" lon="-5.1490883"><ele>52.0</ele><time>2026-04-25T12:00:35.065Z</time></trkpt><trkpt lat="36.435805" lon="-5.149445"><ele>52.0</ele><time>2026-04-25T12:00:36.061Z</time></trkpt><trkpt lat="36.4357883" lon="-5.1498033"><ele>52.0</ele><time>2026-04-25T12:00:37.066Z</time></trkpt><trkpt lat="36.4357617" lon="-5.15016"><ele>52.5</ele><time>2026-04-25T12:00:38.067Z</time></trkpt><trkpt lat="36.435725" lon="-5.150515"><ele>53.0</ele><time>2026-04-25T12:00:39.063Z</time></trkpt><trkpt lat="36.4356817" lon="-5.1508717"><ele>53.0</ele><time>2026-04-25T12:00:40.062Z</time></trkpt><trkpt lat="36.4356333" lon="-5.1512267"><ele>53.0</ele><time>2026-04-25T12:00:41.067Z</time></trkpt><trkpt lat="36.43558" lon="-5.1515817"><ele>53.5</ele><time>2026-04-25T12:00:42.063Z</time></trkpt><trkpt lat="36.43552" lon="-5.1519317"><ele>54.0</ele><time>2026-04-25T12:00:43.061Z</time></trkpt><trkpt lat="36.435455" lon="-5.1522783"><ele>51.5</ele><time>2026-04-25T12:00:44.061Z</time></trkpt><trkpt lat="36.4353833" lon="-5.15262"><ele>49.0</ele><time>2026-04-25T12:00:45.063Z</time></trkpt><trkpt lat="36.4353067" lon="-5.15296"><ele>48.5</ele><time>2026-04-25T12:00:46.061Z</time></trkpt><trkpt lat="36.4352317" lon="-5.1532983"><ele>48.0</ele><time>2026-04-25T12:00:47.061Z</time></trkpt><trkpt lat="36.43515" lon="-5.1536317"><ele>48.0</ele><time>2026-04-25T12:00:48.062Z</time></trkpt><trkpt lat="36.4350667" lon="-5.15396"><ele>48.0</ele><time>2026-04-25T12:00:49.061Z</time></trkpt><trkpt lat="36.43498" lon="-5.154285"><ele>44.0</ele><time>2026-04-25T12:00:50.062Z</time></trkpt><trkpt lat="36.4348933" lon="-5.1546083"><ele>40.0</ele><time>2026-04-25T12:00:51.061Z</time></trkpt><trkpt lat="36.4348033" lon="-5.1549283"><ele>38.0</ele><time>2026-04-25T12:00:52.06Z</time></trkpt><trkpt lat="36.434715" lon="-5.1552483"><ele>36.0</ele><time>2026-04-25T12:00:53.061Z</time></trkpt><trkpt lat="36.4346283" lon="-5.1555733"><ele>36.0</ele><time>2026-04-25T12:00:54.062Z</time></trkpt><trkpt lat="36.4345433" lon="-5.155895"><ele>36.0</ele><time>2026-04-25T12:00:55.059Z</time></trkpt><trkpt lat="36.43446" lon="-5.15622"><ele>39.5</ele><time>2026-04-25T12:00:56.061Z</time></trkpt><trkpt lat="36.434375" lon="-5.1565433"><ele>43.0</ele><time>2026-04-25T12:00:57.059Z</time></trkpt><trkpt lat="36.4342917" lon="-5.1568717"><ele>43.0</ele><time>2026-04-25T12:00:58.062Z</time></trkpt><trkpt lat="36.43421" lon="-5.1572017"><ele>43.0</ele><time>2026-04-25T12:00:59.06Z</time></trkpt><trkpt lat="36.43413" lon="-5.1575283"><ele>41.5</ele><time>2026-04-25T12:01:00.064Z</time></trkpt><trkpt lat="36.4340483" lon="-5.1578533"><ele>40.0</ele><time>2026-04-25T12:01:01.06Z</time></trkpt><trkpt lat="36.4339683" lon="-5.1581817"><ele>40.0</ele><time>2026-04-25T12:01:02.065Z</time></trkpt><trkpt lat="36.43389" lon="-5.15851"><ele>40.0</ele><time>2026-04-25T12:01:03.064Z</time></trkpt><trkpt lat="36.4338133" lon="-5.15884"><ele>37.0</ele><time>2026-04-25T12:01:04.06Z</time></trkpt><trkpt lat="36.4337383" lon="-5.1591683"><ele>34.0</ele><time>2026-04-25T12:01:05.067Z</time></trkpt><trkpt lat="36.433665" lon="-5.159495"><ele>34.0</ele><time>2026-04-25T12:01:06.07Z</time></trkpt><trkpt lat="36.433595" lon="-5.1598217"><ele>34.0</ele><time>2026-04-25T12:01:07.066Z</time></trkpt><trkpt lat="36.43353" lon="-5.1601467"><ele>34.5</ele><time>2026-04-25T12:01:08.06Z</time></trkpt><trkpt lat="36.43347" lon="-5.1604717"><ele>35.0</ele><time>2026-04-25T12:01:09.058Z</time></trkpt><trkpt lat="36.4334167" lon="-5.1607983"><ele>36.5</ele><time>2026-04-25T12:01:10.058Z</time></trkpt><trkpt lat="36.4333667" lon="-5.1611217"><ele>38.0</ele><time>2026-04-25T12:01:11.06Z</time></trkpt><trkpt lat="36.433325" lon="-5.1614467"><ele>38.5</ele><time>2026-04-25T12:01:12.065Z</time></trkpt><trkpt lat="36.4332867" lon="-5.161775"><ele>39.0</ele><time>2026-04-25T12:01:13.06Z</time></trkpt><trkpt lat="36.4332533" lon="-5.1621083"><ele>39.5</ele><time>2026-04-25T12:01:14.06Z</time></trkpt><trkpt lat="36.4332267" lon="-5.1624433"><ele>40.0</ele><time>2026-04-25T12:01:15.065Z</time></trkpt><trkpt lat="36.4332033" lon="-5.16278"><ele>40.0</ele><time>2026-04-25T12:01:16.061Z</time></trkpt><trkpt lat="36.4331867" lon="-5.1631217"><ele>40.0</ele><time>2026-04-25T12:01:17.062Z</time></trkpt><trkpt lat="36.433175" lon="-5.16346"><ele>39.5</ele><time>2026-04-25T12:01:18.059Z</time></trkpt><trkpt lat="36.433165" lon="-5.1638033"><ele>39.0</ele><time>2026-04-25T12:01:19.066Z</time></trkpt><trkpt lat="36.43316" lon="-5.164145"><ele>37.5</ele><time>2026-04-25T12:01:20.067Z</time></trkpt><trkpt lat="36.433155" lon="-5.164485"><ele>36.0</ele><time>2026-04-25T12:01:21.061Z</time></trkpt><trkpt lat="36.4331517" lon="-5.1648233"><ele>33.5</ele><time>2026-04-25T12:01:22.064Z</time></trkpt><trkpt lat="36.433145" lon="-5.1651567"><ele>31.0</ele><time>2026-04-25T12:01:23.057Z</time></trkpt><trkpt lat="36.43314" lon="-5.16549"><ele>29.5</ele><time>2026-04-25T12:01:24.06Z</time></trkpt><trkpt lat="36.43314" lon="-5.1658217"><ele>28.0</ele><time>2026-04-25T12:01:25.062Z</time></trkpt><trkpt lat="36.4331417" lon="-5.1661517"><ele>28.0</ele><time>2026-04-25T12:01:26.062Z</time></trkpt><trkpt lat="36.433145" lon="-5.16648"><ele>28.0</ele><time>2026-04-25T12:01:27.066Z</time></trkpt><trkpt lat="36.433145" lon="-5.1668083"><ele>28.5</ele><time>2026-04-25T12:01:28.061Z</time></trkpt><trkpt lat="36.4331467" lon="-5.1671383"><ele>29.0</ele><time>2026-04-25T12:01:29.062Z</time></trkpt><trkpt lat="36.4331483" lon="-5.1674683"><ele>32.5</ele><time>2026-04-25T12:01:30.064Z</time></trkpt><trkpt lat="36.43315" lon="-5.1678033"><ele>36.0</ele><time>2026-04-25T12:01:31.062Z</time></trkpt><trkpt lat="36.4331517" lon="-5.1681383"><ele>38.0</ele><time>2026-04-25T12:01:32.065Z</time></trkpt><trkpt lat="36.4331533" lon="-5.168475"><ele>40.0</ele><time>2026-04-25T12:01:33.062Z</time></trkpt><trkpt lat="36.433155" lon="-5.16881"><ele>43.0</ele><time>2026-04-25T12:01:34.061Z</time></trkpt><trkpt lat="36.43316" lon="-5.169145"><ele>46.0</ele><time>2026-04-25T12:01:35.062Z</time></trkpt><trkpt lat="36.433165" lon="-5.1694833"><ele>46.0</ele><time>2026-04-25T12:01:36.064Z</time></trkpt><trkpt lat="36.4331717" lon="-5.1698167"><ele>46.0</ele><time>2026-04-25T12:01:37.065Z</time></trkpt><trkpt lat="36.4331783" lon="-5.1701483"><ele>51.0</ele><time>2026-04-25T12:01:38.065Z</time></trkpt><trkpt lat="36.4331817" lon="-5.1704783"><ele>56.0</ele><time>2026-04-25T12:01:39.061Z</time></trkpt><trkpt lat="36.433185" lon="-5.17081"><ele>63.0</ele><time>2026-04-25T12:01:40.061Z</time></trkpt><trkpt lat="36.4331933" lon="-5.1711417"><ele>70.0</ele><time>2026-04-25T12:01:41.062Z</time></trkpt><trkpt lat="36.4332067" lon="-5.1714767"><ele>75.5</ele><time>2026-04-25T12:01:42.062Z</time></trkpt><trkpt lat="36.4332317" lon="-5.17181"><ele>81.0</ele><time>2026-04-25T12:01:43.061Z</time></trkpt><trkpt lat="36.4332583" lon="-5.1721467"><ele>86.5</ele><time>2026-04-25T12:01:44.059Z</time></trkpt><trkpt lat="36.4332917" lon="-5.172485"><ele>92.0</ele><time>2026-04-25T12:01:45.058Z</time></trkpt><trkpt lat="36.4333217" lon="-5.1728267"><ele>92.0</ele><time>2026-04-25T12:01:46.057Z</time></trkpt><trkpt lat="36.4333533" lon="-5.1731717"><ele>92.0</ele><time>2026-04-25T12:01:47.061Z</time></trkpt><trkpt lat="36.433385" lon="-5.1735233"><ele>92.0</ele><time>2026-04-25T12:01:48.061Z</time></trkpt><trkpt lat="36.4334217" lon="-5.1738783"><ele>92.0</ele><time>2026-04-25T12:01:49.059Z</time></trkpt><trkpt lat="36.4335183" lon="-5.17421"><ele>87.0</ele><time>2026-04-25T12:01:50.061Z</time></trkpt><trkpt lat="36.433575" lon="-5.1745483"><ele>82.0</ele><time>2026-04-25T12:01:51.062Z</time></trkpt><trkpt lat="36.4336333" lon="-5.1748933"><ele>79.5</ele><time>2026-04-25T12:01:52.058Z</time></trkpt><trkpt lat="36.4337" lon="-5.1752383"><ele>77.0</ele><time>2026-04-25T12:01:53.063Z</time></trkpt><trkpt lat="36.4337617" lon="-5.1755867"><ele>76.0</ele><time>2026-04-25T12:01:54.062Z</time></trkpt><trkpt lat="36.4338167" lon="-5.1759333"><ele>75.0</ele><time>2026-04-25T12:01:55.06Z</time></trkpt><trkpt lat="36.43387" lon="-5.176285"><ele>73.0</ele><time>2026-04-25T12:01:56.061Z</time></trkpt><trkpt lat="36.4339167" lon="-5.1766367"><ele>71.0</ele><time>2026-04-25T12:01:57.061Z</time></trkpt><trkpt lat="36.433955" lon="-5.1769917"><ele>71.0</ele><time>2026-04-25T12:01:58.061Z</time></trkpt><trkpt lat="36.433985" lon="-5.1773467"><ele>71.0</ele><time>2026-04-25T12:01:59.064Z</time></trkpt><trkpt lat="36.4340033" lon="-5.1777033"><ele>69.0</ele><time>2026-04-25T12:02:00.062Z</time></trkpt><trkpt lat="36.4340133" lon="-5.17806"><ele>67.0</ele><time>2026-04-25T12:02:01.062Z</time></trkpt><trkpt lat="36.434015" lon="-5.1784167"><ele>67.0</ele><time>2026-04-25T12:02:02.063Z</time></trkpt><trkpt lat="36.434005" lon="-5.178775"><ele>67.0</ele><time>2026-04-25T12:02:03.064Z</time></trkpt><trkpt lat="36.4339867" lon="-5.1791333"><ele>62.0</ele><time>2026-04-25T12:02:04.063Z</time></trkpt><trkpt lat="36.4339617" lon="-5.1794917"><ele>57.0</ele><time>2026-04-25T12:02:05.065Z</time></trkpt><trkpt lat="36.4339283" lon="-5.17985"><ele>51.5</ele><time>2026-04-25T12:02:06.061Z</time></trkpt><trkpt lat="36.4338867" lon="-5.18021"><ele>46.0</ele><time>2026-04-25T12:02:07.062Z</time></trkpt><trkpt lat="36.433835" lon="-5.18057"><ele>46.0</ele><time>2026-04-25T12:02:08.062Z</time></trkpt><trkpt lat="36.4337733" lon="-5.1809283"><ele>46.0</ele><time>2026-04-25T12:02:09.061Z</time></trkpt><trkpt lat="36.433705" lon="-5.1812867"><ele>42.5</ele><time>2026-04-25T12:02:10.059Z</time></trkpt><trkpt lat="36.4336333" lon="-5.1816433"><ele>39.0</ele><time>2026-04-25T12:02:11.062Z</time></trkpt><trkpt lat="36.4335583" lon="-5.182"><ele>35.0</ele><time>2026-04-25T12:02:12.063Z</time></trkpt><trkpt lat="36.4334817" lon="-5.1823533"><ele>31.0</ele><time>2026-04-25T12:02:13.058Z</time></trkpt><trkpt lat="36.4334067" lon="-5.1827083"><ele>31.0</ele><time>2026-04-25T12:02:14.062Z</time></trkpt><trkpt lat="36.433335" lon="-5.1830633"><ele>31.0</ele><time>2026-04-25T12:02:15.061Z</time></trkpt><trkpt lat="36.433265" lon="-5.1834167"><ele>29.0</ele><time>2026-04-25T12:02:16.06Z</time></trkpt><trkpt lat="36.4332" lon="-5.18377"><ele>27.0</ele><time>2026-04-25T12:02:17.06Z</time></trkpt><trkpt lat="36.4331383" lon="-5.184125"><ele>27.0</ele><time>2026-04-25T12:02:18.058Z</time></trkpt><trkpt lat="36.4330817" lon="-5.1844783"><ele>27.0</ele><time>2026-04-25T12:02:19.06Z</time></trkpt><trkpt lat="36.4330283" lon="-5.1848317"><ele>28.0</ele><time>2026-04-25T12:02:20.061Z</time></trkpt><trkpt lat="36.43298" lon="-5.185185"><ele>29.0</ele><time>2026-04-25T12:02:21.063Z</time></trkpt><trkpt lat="36.4329383" lon="-5.185535"><ele>33.0</ele><time>2026-04-25T12:02:22.061Z</time></trkpt><trkpt lat="36.4329" lon="-5.1858817"><ele>37.0</ele><time>2026-04-25T12:02:23.062Z</time></trkpt><trkpt lat="36.4328667" lon="-5.1862267"><ele>42.0</ele><time>2026-04-25T12:02:24.06Z</time></trkpt><trkpt lat="36.4328417" lon="-5.1865683"><ele>47.0</ele><time>2026-04-25T12:02:25.062Z</time></trkpt><trkpt lat="36.4328167" lon="-5.186905"><ele>47.0</ele><time>2026-04-25T12:02:26.063Z</time></trkpt><trkpt lat="36.4327983" lon="-5.1872383"><ele>47.0</ele><time>2026-04-25T12:02:27.066Z</time></trkpt><trkpt lat="36.43278" lon="-5.1875633"><ele>52.5</ele><time>2026-04-25T12:02:28.059Z</time></trkpt><trkpt lat="36.432765" lon="-5.187885"><ele>58.0</ele><time>2026-04-25T12:02:29.06Z</time></trkpt><trkpt lat="36.4327533" lon="-5.1882033"><ele>59.0</ele><time>2026-04-25T12:02:30.061Z</time></trkpt><trkpt lat="36.4327467" lon="-5.1885233"><ele>60.0</ele><time>2026-04-25T12:02:31.067Z</time></trkpt><trkpt lat="36.43274" lon="-5.1888417"><ele>58.5</ele><time>2026-04-25T12:02:32.059Z</time></trkpt><trkpt lat="36.4327367" lon="-5.18916"><ele>57.0</ele><time>2026-04-25T12:02:33.061Z</time></trkpt><trkpt lat="36.43273" lon="-5.1894783"><ele>57.0</ele><time>2026-04-25T12:02:34.059Z</time></trkpt><trkpt lat="36.4327283" lon="-5.18979"><ele>57.0</ele><time>2026-04-25T12:02:35.059Z</time></trkpt><trkpt lat="36.432725" lon="-5.190095"><ele>56.5</ele><time>2026-04-25T12:02:36.062Z</time></trkpt><trkpt lat="36.4327217" lon="-5.19039"><ele>56.0</ele><time>2026-04-25T12:02:37.061Z</time></trkpt><trkpt lat="36.4327167" lon="-5.19068"><ele>56.0</ele><time>2026-04-25T12:02:38.06Z</time></trkpt><trkpt lat="36.4327133" lon="-5.1909683"><ele>56.0</ele><time>2026-04-25T12:02:39.06Z</time></trkpt><trkpt lat="36.4327083" lon="-5.1912517"><ele>60.0</ele><time>2026-04-25T12:02:40.058Z</time></trkpt><trkpt lat="36.4327017" lon="-5.1915317"><ele>64.0</ele><time>2026-04-25T12:02:41.061Z</time></trkpt><trkpt lat="36.4326917" lon="-5.1918117"><ele>64.0</ele><time>2026-04-25T12:02:42.06Z</time></trkpt><trkpt lat="36.4326783" lon="-5.1920883"><ele>64.0</ele><time>2026-04-25T12:02:43.068Z</time></trkpt><trkpt lat="36.4326583" lon="-5.1923617"><ele>64.0</ele><time>2026-04-25T12:02:44.063Z</time></trkpt><trkpt lat="36.432635" lon="-5.1926317"><ele>66.66666666666666</ele><time>2026-04-25T12:02:45.061Z</time></trkpt><trkpt lat="36.4326083" lon="-5.1928967"><ele>69.33333333333333</ele><time>2026-04-25T12:02:46.063Z</time></trkpt><trkpt lat="36.4325783" lon="-5.1931633"><ele>72.0</ele><time>2026-04-25T12:02:47.062Z</time></trkpt><trkpt lat="36.4325417" lon="-5.1934283"><ele>75.0</ele><time>2026-04-25T12:02:48.062Z</time></trkpt><trkpt lat="36.4324983" lon="-5.1936933"><ele>78.0</ele><time>2026-04-25T12:02:49.061Z</time></trkpt><trkpt lat="36.4324517" lon="-5.19396"><ele>81.0</ele><time>2026-04-25T12:02:50.064Z</time></trkpt><trkpt lat="36.4323967" lon="-5.194235"><ele>86.0</ele><time>2026-04-25T12:02:51.061Z</time></trkpt><trkpt lat="36.4323183" lon="-5.19453"><ele>91.0</ele><time>2026-04-25T12:02:52.062Z</time></trkpt><trkpt lat="36.4322433" lon="-5.1948233"><ele>96.5</ele><time>2026-04-25T12:02:53.066Z</time></trkpt><trkpt lat="36.43216" lon="-5.1951233"><ele>102.0</ele><time>2026-04-25T12:02:54.065Z</time></trkpt><trkpt lat="36.4320767" lon="-5.1954217"><ele>108.0</ele><time>2026-04-25T12:02:55.061Z</time></trkpt><trkpt lat="36.4319917" lon="-5.19571"><ele>114.0</ele><time>2026-04-25T12:02:56.063Z</time></trkpt><trkpt lat="36.43191" lon="-5.1959867"><ele>114.0</ele><time>2026-04-25T12:02:57.066Z</time></trkpt><trkpt lat="36.4318267" lon="-5.19627"><ele>114.0</ele><time>2026-04-25T12:02:58.067Z</time></trkpt><trkpt lat="36.4279433" lon="-5.2028183"><ele>106.5</ele><time>2026-04-25T12:03:27.059Z</time></trkpt><trkpt lat="36.42781" lon="-5.2030517"><ele>99.0</ele><time>2026-04-25T12:03:28.062Z</time></trkpt><trkpt lat="36.427665" lon="-5.20327"><ele>99.0</ele><time>2026-04-25T12:03:29.06Z</time></trkpt><trkpt lat="36.4275167" lon="-5.2034933"><ele>99.0</ele><time>2026-04-25T12:03:30.062Z</time></trkpt><trkpt lat="36.427375" lon="-5.2037233"><ele>99.0</ele><time>2026-04-25T12:03:31.062Z</time></trkpt><trkpt lat="36.4272367" lon="-5.2039617"><ele>99.0</ele><time>2026-04-25T12:03:32.06Z</time></trkpt><trkpt lat="36.4271033" lon="-5.2042067"><ele>88.0</ele><time>2026-04-25T12:03:33.073Z</time></trkpt><trkpt lat="36.4269717" lon="-5.2044567"><ele>77.0</ele><time>2026-04-25T12:03:34.062Z</time></trkpt><trkpt lat="36.426845" lon="-5.2047067"><ele>93.5</ele><time>2026-04-25T12:03:35.063Z</time></trkpt><trkpt lat="36.4267167" lon="-5.20496"><ele>110.0</ele><time>2026-04-25T12:03:36.06Z</time></trkpt><trkpt lat="36.426595" lon="-5.205215"><ele>110.0</ele><time>2026-04-25T12:03:37.06Z</time></trkpt><trkpt lat="36.4264767" lon="-5.205465"><ele>110.0</ele><time>2026-04-25T12:03:38.063Z</time></trkpt><trkpt lat="36.4263617" lon="-5.2057133"><ele>109.0</ele><time>2026-04-25T12:03:39.065Z</time></trkpt><trkpt lat="36.426255" lon="-5.2059617"><ele>108.0</ele><time>2026-04-25T12:03:40.062Z</time></trkpt><trkpt lat="36.426155" lon="-5.2062067"><ele>107.0</ele><time>2026-04-25T12:03:41.063Z</time></trkpt><trkpt lat="36.426065" lon="-5.2064517"><ele>110.66666666666666</ele><time>2026-04-25T12:03:42.059Z</time></trkpt><trkpt lat="36.425985" lon="-5.2066933"><ele>114.33333333333334</ele><time>2026-04-25T12:03:43.065Z</time></trkpt><trkpt lat="36.4259183" lon="-5.2069267"><ele>118.0</ele><time>2026-04-25T12:03:44.059Z</time></trkpt><trkpt lat="36.4258583" lon="-5.2071417"><ele>121.33333333333334</ele><time>2026-04-25T12:03:45.059Z</time></trkpt><trkpt lat="36.425805" lon="-5.2073483"><ele>124.66666666666666</ele><time>2026-04-25T12:03:46.057Z</time></trkpt><trkpt lat="36.425765" lon="-5.20756"><ele>128.0</ele><time>2026-04-25T12:03:47.059Z</time></trkpt><trkpt lat="36.4257283" lon="-5.2077667"><ele>128.0</ele><time>2026-04-25T12:03:48.062Z</time></trkpt><trkpt lat="36.42568" lon="-5.2079683"><ele>128.0</ele><time>2026-04-25T12:03:49.061Z</time></trkpt><trkpt lat="36.4256367" lon="-5.20817"><ele>128.0</ele><time>2026-04-25T12:03:50.058Z</time></trkpt><trkpt lat="36.4255917" lon="-5.2083733"><ele>121.5</ele><time>2026-04-25T12:03:51.061Z</time></trkpt><trkpt lat="36.425555" lon="-5.208565"><ele>115.0</ele><time>2026-04-25T12:03:52.056Z</time></trkpt><trkpt lat="36.4242633" lon="-5.213385"><ele>115.0</ele><time>2026-04-25T12:04:21.06Z</time></trkpt><trkpt lat="36.4241333" lon="-5.2136467"><ele>115.0</ele><time>2026-04-25T12:04:22.061Z</time></trkpt><trkpt lat="36.424" lon="-5.213915"><ele>107.5</ele><time>2026-04-25T12:04:23.06Z</time></trkpt><trkpt lat="36.4238683" lon="-5.2141817"><ele>100.0</ele><time>2026-04-25T12:04:24.061Z</time></trkpt><trkpt lat="36.4237317" lon="-5.2144483"><ele>97.0</ele><time>2026-04-25T12:04:25.063Z</time></trkpt><trkpt lat="36.4235833" lon="-5.2147183"><ele>94.0</ele><time>2026-04-25T12:04:26.059Z</time></trkpt><trkpt lat="36.4234267" lon="-5.2149867"><ele>85.0</ele><time>2026-04-25T12:04:27.064Z</time></trkpt><trkpt lat="36.42327" lon="-5.215255"><ele>76.0</ele><time>2026-04-25T12:04:28.061Z</time></trkpt><trkpt lat="36.4231083" lon="-5.215525"><ele>70.5</ele><time>2026-04-25T12:04:29.061Z</time></trkpt><trkpt lat="36.4229383" lon="-5.2157883"><ele>65.0</ele><time>2026-04-25T12:04:30.064Z</time></trkpt><trkpt lat="36.4227633" lon="-5.2160467"><ele>65.0</ele><time>2026-04-25T12:04:31.06Z</time></trkpt><trkpt lat="36.4225817" lon="-5.2163033"><ele>65.0</ele><time>2026-04-25T12:04:32.065Z</time></trkpt><trkpt lat="36.4223967" lon="-5.2165567"><ele>73.0</ele><time>2026-04-25T12:04:33.067Z</time></trkpt><trkpt lat="36.4222083" lon="-5.216805"><ele>81.0</ele><time>2026-04-25T12:04:34.063Z</time></trkpt><trkpt lat="36.4220183" lon="-5.2170467"><ele>87.5</ele><time>2026-04-25T12:04:35.063Z</time></trkpt><trkpt lat="36.421825" lon="-5.2172867"><ele>94.0</ele><time>2026-04-25T12:04:36.059Z</time></trkpt><trkpt lat="36.4216283" lon="-5.2175233"><ele>98.0</ele><time>2026-04-25T12:04:37.062Z</time></trkpt><trkpt lat="36.4214283" lon="-5.2177583"><ele>102.0</ele><time>2026-04-25T12:04:38.061Z</time></trkpt><trkpt lat="36.4212233" lon="-5.2179917"><ele>108.5</ele><time>2026-04-25T12:04:39.059Z</time></trkpt><trkpt lat="36.4210133" lon="-5.2182217"><ele>115.0</ele><time>2026-04-25T12:04:40.059Z</time></trkpt><trkpt lat="36.4208" lon="-5.2184483"><ele>115.0</ele><time>2026-04-25T12:04:41.06Z</time></trkpt><trkpt lat="36.4205833" lon="-5.2186717"><ele>115.0</ele><time>2026-04-25T12:04:42.059Z</time></trkpt><trkpt lat="36.4203633" lon="-5.2188933"><ele>122.0</ele><time>2026-04-25T12:04:43.062Z</time></trkpt><trkpt lat="36.4201333" lon="-5.2191067"><ele>129.0</ele><time>2026-04-25T12:04:44.063Z</time></trkpt><trkpt lat="36.419895" lon="-5.2193133"><ele>125.0</ele><time>2026-04-25T12:04:45.061Z</time></trkpt><trkpt lat="36.4196483" lon="-5.21951"><ele>121.0</ele><time>2026-04-25T12:04:46.059Z</time></trkpt><trkpt lat="36.4193967" lon="-5.2196967"><ele>124.0</ele><time>2026-04-25T12:04:47.06Z</time></trkpt><trkpt lat="36.41914" lon="-5.21987"><ele>127.0</ele><time>2026-04-25T12:04:48.064Z</time></trkpt><trkpt lat="36.4188783" lon="-5.22003"><ele>120.5</ele><time>2026-04-25T12:04:49.06Z</time></trkpt><trkpt lat="36.41861" lon="-5.220175"><ele>114.0</ele><time>2026-04-25T12:04:50.065Z</time></trkpt><trkpt lat="36.4183367" lon="-5.220305"><ele>114.0</ele><time>2026-04-25T12:04:51.065Z</time></trkpt><trkpt lat="36.4180583" lon="-5.22042"><ele>114.0</ele><time>2026-04-25T12:04:52.06Z</time></trkpt><trkpt lat="36.4177767" lon="-5.2205217"><ele>108.5</ele><time>2026-04-25T12:04:53.058Z</time></trkpt><trkpt lat="36.4174883" lon="-5.2206117"><ele>103.0</ele><time>2026-04-25T12:04:54.061Z</time></trkpt><trkpt lat="36.4171967" lon="-5.22069"><ele>96.0</ele><time>2026-04-25T12:04:55.065Z</time></trkpt><trkpt lat="36.4169017" lon="-5.2207633"><ele>89.0</ele><time>2026-04-25T12:04:56.065Z</time></trkpt><trkpt lat="36.4166083" lon="-5.220835"><ele>89.0</ele><time>2026-04-25T12:04:57.062Z</time></trkpt><trkpt lat="36.41632" lon="-5.2209117"><ele>89.0</ele><time>2026-04-25T12:04:58.059Z</time></trkpt><trkpt lat="36.4160317" lon="-5.2209867"><ele>90.0</ele><time>2026-04-25T12:04:59.06Z</time></trkpt><trkpt lat="36.4157417" lon="-5.2210617"><ele>91.0</ele><time>2026-04-25T12:05:00.061Z</time></trkpt><trkpt lat="36.4154533" lon="-5.2211417"><ele>91.0</ele><time>2026-04-25T12:05:01.06Z</time></trkpt><trkpt lat="36.415165" lon="-5.2212333"><ele>91.0</ele><time>2026-04-25T12:05:02.062Z</time></trkpt><trkpt lat="36.4148767" lon="-5.2213367"><ele>95.5</ele><time>2026-04-25T12:05:03.061Z</time></trkpt><trkpt lat="36.41459" lon="-5.2214533"><ele>100.0</ele><time>2026-04-25T12:05:04.061Z</time></trkpt><trkpt lat="36.414305" lon="-5.2215783"><ele>100.0</ele><time>2026-04-25T12:05:05.062Z</time></trkpt><trkpt lat="36.4140233" lon="-5.2217117"><ele>100.0</ele><time>2026-04-25T12:05:06.06Z</time></trkpt><trkpt lat="36.4137433" lon="-5.2218517"><ele>97.5</ele><time>2026-04-25T12:05:07.064Z</time></trkpt><trkpt lat="36.4134667" lon="-5.2219983"><ele>95.0</ele><time>2026-04-25T12:05:08.058Z</time></trkpt><trkpt lat="36.4131983" lon="-5.2221533"><ele>95.5</ele><time>2026-04-25T12:05:09.06Z</time></trkpt><trkpt lat="36.412935" lon="-5.2223133"><ele>96.0</ele><time>2026-04-25T12:05:10.057Z</time></trkpt><trkpt lat="36.412675" lon="-5.2224783"><ele>99.5</ele><time>2026-04-25T12:05:11.06Z</time></trkpt><trkpt lat="36.412415" lon="-5.2226467"><ele>103.0</ele><time>2026-04-25T12:05:12.062Z</time></trkpt><trkpt lat="36.4121583" lon="-5.222825"><ele>107.5</ele><time>2026-04-25T12:05:13.063Z</time></trkpt><trkpt lat="36.4119033" lon="-5.2230117"><ele>112.0</ele><time>2026-04-25T12:05:14.069Z</time></trkpt><trkpt lat="36.4116517" lon="-5.2232083"><ele>113.0</ele><time>2026-04-25T12:05:15.064Z</time></trkpt><trkpt lat="36.411405" lon="-5.2234133"><ele>114.0</ele><time>2026-04-25T12:05:16.059Z</time></trkpt><trkpt lat="36.4111633" lon="-5.223625"><ele>113.5</ele><time>2026-04-25T12:05:17.06Z</time></trkpt><trkpt lat="36.4109217" lon="-5.2238433"><ele>113.0</ele><time>2026-04-25T12:05:18.062Z</time></trkpt><trkpt lat="36.4106833" lon="-5.2240683"><ele>108.5</ele><time>2026-04-25T12:05:19.062Z</time></trkpt><trkpt lat="36.4104483" lon="-5.2243"><ele>104.0</ele><time>2026-04-25T12:05:20.064Z</time></trkpt><trkpt lat="36.4102217" lon="-5.2245367"><ele>104.0</ele><time>2026-04-25T12:05:21.059Z</time></trkpt><trkpt lat="36.4100067" lon="-5.2247733"><ele>104.0</ele><time>2026-04-25T12:05:22.058Z</time></trkpt><trkpt lat="36.4098033" lon="-5.22501"><ele>98.5</ele><time>2026-04-25T12:05:23.061Z</time></trkpt><trkpt lat="36.4096067" lon="-5.2252517"><ele>93.0</ele><time>2026-04-25T12:05:24.063Z</time></trkpt><trkpt lat="36.4094133" lon="-5.2254933"><ele>90.0</ele><time>2026-04-25T12:05:25.06Z</time></trkpt><trkpt lat="36.409225" lon="-5.22574"><ele>87.0</ele><time>2026-04-25T12:05:26.059Z</time></trkpt><trkpt lat="36.4090417" lon="-5.22599"><ele>87.0</ele><time>2026-04-25T12:05:27.058Z</time></trkpt><trkpt lat="36.4088617" lon="-5.226245"><ele>87.0</ele><time>2026-04-25T12:05:28.058Z</time></trkpt><trkpt lat="36.4086867" lon="-5.226505"><ele>84.0</ele><time>2026-04-25T12:05:29.06Z</time></trkpt><trkpt lat="36.4085117" lon="-5.2267683"><ele>81.0</ele><time>2026-04-25T12:05:30.06Z</time></trkpt><trkpt lat="36.4083383" lon="-5.2270367"><ele>81.0</ele><time>2026-04-25T12:05:31.058Z</time></trkpt><trkpt lat="36.4081683" lon="-5.2273067"><ele>81.0</ele><time>2026-04-25T12:05:32.06Z</time></trkpt><trkpt lat="36.4080017" lon="-5.22758"><ele>75.5</ele><time>2026-04-25T12:05:33.059Z</time></trkpt><trkpt lat="36.407835" lon="-5.2278533"><ele>70.0</ele><time>2026-04-25T12:05:34.06Z</time></trkpt><trkpt lat="36.40767" lon="-5.2281233"><ele>70.5</ele><time>2026-04-25T12:05:35.061Z</time></trkpt><trkpt lat="36.4075033" lon="-5.2283917"><ele>71.0</ele><time>2026-04-25T12:05:36.063Z</time></trkpt><trkpt lat="36.4073383" lon="-5.22866"><ele>71.0</ele><time>2026-04-25T12:05:37.063Z</time></trkpt><trkpt lat="36.4071733" lon="-5.2289233"><ele>71.0</ele><time>2026-04-25T12:05:38.063Z</time></trkpt><trkpt lat="36.4070067" lon="-5.2291883"><ele>76.0</ele><time>2026-04-25T12:05:39.064Z</time></trkpt><trkpt lat="36.4068433" lon="-5.22945"><ele>81.0</ele><time>2026-04-25T12:05:40.061Z</time></trkpt><trkpt lat="36.4066833" lon="-5.2297117"><ele>86.5</ele><time>2026-04-25T12:05:41.063Z</time></trkpt><trkpt lat="36.4065233" lon="-5.2299717"><ele>92.0</ele><time>2026-04-25T12:05:42.064Z</time></trkpt><trkpt lat="36.406365" lon="-5.23023"><ele>90.0</ele><time>2026-04-25T12:05:43.061Z</time></trkpt><trkpt lat="36.4062083" lon="-5.2304833"><ele>88.0</ele><time>2026-04-25T12:05:44.064Z</time></trkpt><trkpt lat="36.4060533" lon="-5.230735"><ele>94.5</ele><time>2026-04-25T12:05:45.068Z</time></trkpt><trkpt lat="36.4059" lon="-5.2309833"><ele>101.0</ele><time>2026-04-25T12:05:46.059Z</time></trkpt><trkpt lat="36.4057467" lon="-5.2312267"><ele>101.0</ele><time>2026-04-25T12:05:47.062Z</time></trkpt><trkpt lat="36.4055983" lon="-5.23147"><ele>101.0</ele><time>2026-04-25T12:05:48.06Z</time></trkpt><trkpt lat="36.4054533" lon="-5.2317117"><ele>106.5</ele><time>2026-04-25T12:05:49.058Z</time></trkpt><trkpt lat="36.405305" lon="-5.2319567"><ele>112.0</ele><time>2026-04-25T12:05:50.059Z</time></trkpt><trkpt lat="36.4051567" lon="-5.2322067"><ele>118.0</ele><time>2026-04-25T12:05:51.06Z</time></trkpt><trkpt lat="36.4050117" lon="-5.23247"><ele>124.0</ele><time>2026-04-25T12:05:52.06Z</time></trkpt><trkpt lat="36.4048617" lon="-5.23273"><ele>124.0</ele><time>2026-04-25T12:05:53.06Z</time></trkpt><trkpt lat="36.4047117" lon="-5.23299"><ele>124.0</ele><time>2026-04-25T12:05:54.062Z</time></trkpt><trkpt lat="36.40456" lon="-5.2332333"><ele>109.0</ele><time>2026-04-25T12:05:55.061Z</time></trkpt><trkpt lat="36.4017517" lon="-5.2428517"><ele>103.5</ele><time>2026-04-25T12:06:31.062Z</time></trkpt><trkpt lat="36.4017616" lon="-5.2431581"><ele>98.0</ele><time>2026-04-25T12:06:32.061Z</time></trkpt><trkpt lat="36.4017424" lon="-5.2434804"><ele>98.0</ele><time>2026-04-25T12:06:33.065Z</time></trkpt><trkpt lat="36.4017128" lon="-5.2438114"><ele>98.0</ele><time>2026-04-25T12:06:34.064Z</time></trkpt><trkpt lat="36.4016779" lon="-5.2441521"><ele>95.5</ele><time>2026-04-25T12:06:35.06Z</time></trkpt><trkpt lat="36.4016346" lon="-5.2445041"><ele>93.0</ele><time>2026-04-25T12:06:36.062Z</time></trkpt><trkpt lat="36.4015791" lon="-5.2448614"><ele>93.0</ele><time>2026-04-25T12:06:37.065Z</time></trkpt><trkpt lat="36.4015091" lon="-5.2452192"><ele>93.0</ele><time>2026-04-25T12:06:38.059Z</time></trkpt><trkpt lat="36.4014238" lon="-5.2455743"><ele>86.0</ele><time>2026-04-25T12:06:39.061Z</time></trkpt><trkpt lat="36.4013263" lon="-5.2459241"><ele>79.0</ele><time>2026-04-25T12:06:40.06Z</time></trkpt><trkpt lat="36.4012164" lon="-5.2462715"><ele>84.5</ele><time>2026-04-25T12:06:41.065Z</time></trkpt><trkpt lat="36.4010956" lon="-5.2466111"><ele>90.0</ele><time>2026-04-25T12:06:42.061Z</time></trkpt><trkpt lat="36.4009612" lon="-5.2469482"><ele>90.0</ele><time>2026-04-25T12:06:43.063Z</time></trkpt><trkpt lat="36.4008168" lon="-5.247274"><ele>90.0</ele><time>2026-04-25T12:06:44.06Z</time></trkpt><trkpt lat="36.4006609" lon="-5.2475931"><ele>86.5</ele><time>2026-04-25T12:06:45.062Z</time></trkpt><trkpt lat="36.4004947" lon="-5.2479034"><ele>83.0</ele><time>2026-04-25T12:06:46.06Z</time></trkpt><trkpt lat="36.4003183" lon="-5.2482038"><ele>83.0</ele><time>2026-04-25T12:06:47.058Z</time></trkpt><trkpt lat="36.4001313" lon="-5.2484935"><ele>83.0</ele><time>2026-04-25T12:06:48.065Z</time></trkpt><trkpt lat="36.3999317" lon="-5.2487716"><ele>77.5</ele><time>2026-04-25T12:06:49.06Z</time></trkpt><trkpt lat="36.3997204" lon="-5.2490405"><ele>72.0</ele><time>2026-04-25T12:06:50.061Z</time></trkpt><trkpt lat="36.3995017" lon="-5.2492985"><ele>66.0</ele><time>2026-04-25T12:06:51.061Z</time></trkpt><trkpt lat="36.3992747" lon="-5.2495436"><ele>60.0</ele><time>2026-04-25T12:06:52.061Z</time></trkpt><trkpt lat="36.3990405" lon="-5.2497773"><ele>54.5</ele><time>2026-04-25T12:06:53.063Z</time></trkpt><trkpt lat="36.3987972" lon="-5.25"><ele>49.0</ele><time>2026-04-25T12:06:54.065Z</time></trkpt><trkpt lat="36.398546" lon="-5.2502087"><ele>49.0</ele><time>2026-04-25T12:06:55.06Z</time></trkpt><trkpt lat="36.3982855" lon="-5.2504033"><ele>49.0</ele><time>2026-04-25T12:06:56.067Z</time></trkpt><trkpt lat="36.3980196" lon="-5.2505816"><ele>54.5</ele><time>2026-04-25T12:06:57.062Z</time></trkpt><trkpt lat="36.3977457" lon="-5.2507468"><ele>60.0</ele><time>2026-04-25T12:06:58.063Z</time></trkpt><trkpt lat="36.397464" lon="-5.2508977"><ele>60.0</ele><time>2026-04-25T12:06:59.07Z</time></trkpt><trkpt lat="36.3971795" lon="-5.2510344"><ele>60.0</ele><time>2026-04-25T12:07:00.06Z</time></trkpt><trkpt lat="36.3968913" lon="-5.251158"><ele>57.5</ele><time>2026-04-25T12:07:01.06Z</time></trkpt><trkpt lat="36.3965997" lon="-5.2512669"><ele>55.0</ele><time>2026-04-25T12:07:02.073Z</time></trkpt><trkpt lat="36.3963085" lon="-5.2513591"><ele>55.0</ele><time>2026-04-25T12:07:03.059Z</time></trkpt><trkpt lat="36.3960127" lon="-5.2514406"><ele>55.0</ele><time>2026-04-25T12:07:04.059Z</time></trkpt><trkpt lat="36.395716" lon="-5.2515165"><ele>60.0</ele><time>2026-04-25T12:07:05.059Z</time></trkpt><trkpt lat="36.3954203" lon="-5.2515909"><ele>65.0</ele><time>2026-04-25T12:07:06.06Z</time></trkpt><trkpt lat="36.3951251" lon="-5.2516728"><ele>65.0</ele><time>2026-04-25T12:07:07.063Z</time></trkpt><trkpt lat="36.3948345" lon="-5.2517692"><ele>65.0</ele><time>2026-04-25T12:07:08.06Z</time></trkpt><trkpt lat="36.3945471" lon="-5.2518827"><ele>59.0</ele><time>2026-04-25T12:07:09.061Z</time></trkpt><trkpt lat="36.3942638" lon="-5.2520152"><ele>53.0</ele><time>2026-04-25T12:07:10.059Z</time></trkpt><trkpt lat="36.3939849" lon="-5.2521653"><ele>64.0</ele><time>2026-04-25T12:07:11.059Z</time></trkpt><trkpt lat="36.3937089" lon="-5.2523304"><ele>75.0</ele><time>2026-04-25T12:07:12.059Z</time></trkpt><trkpt lat="36.393438" lon="-5.2525121"><ele>75.0</ele><time>2026-04-25T12:07:13.065Z</time></trkpt><trkpt lat="36.3931732" lon="-5.252711"><ele>75.0</ele><time>2026-04-25T12:07:14.062Z</time></trkpt><trkpt lat="36.3929158" lon="-5.2529287"><ele>80.0</ele><time>2026-04-25T12:07:15.061Z</time></trkpt><trkpt lat="36.3926657" lon="-5.2531625"><ele>85.0</ele><time>2026-04-25T12:07:16.063Z</time></trkpt><trkpt lat="36.3924269" lon="-5.2534108"><ele>85.0</ele><time>2026-04-25T12:07:17.058Z</time></trkpt><trkpt lat="36.3922033" lon="-5.2536817"><ele>85.0</ele><time>2026-04-25T12:07:18.065Z</time></trkpt><trkpt lat="36.39199" lon="-5.2539633"><ele>88.5</ele><time>2026-04-25T12:07:19.061Z</time></trkpt><trkpt lat="36.3917883" lon="-5.2542583"><ele>92.0</ele><time>2026-04-25T12:07:20.06Z</time></trkpt><trkpt lat="36.3916" lon="-5.2545633"><ele>93.5</ele><time>2026-04-25T12:07:21.066Z</time></trkpt><trkpt lat="36.3914217" lon="-5.2548833"><ele>95.0</ele><time>2026-04-25T12:07:22.061Z</time></trkpt><trkpt lat="36.3912583" lon="-5.255215"><ele>89.5</ele><time>2026-04-25T12:07:23.062Z</time></trkpt><trkpt lat="36.3911033" lon="-5.25556"><ele>84.0</ele><time>2026-04-25T12:07:24.059Z</time></trkpt><trkpt lat="36.3909617" lon="-5.2559117"><ele>83.0</ele><time>2026-04-25T12:07:25.058Z</time></trkpt><trkpt lat="36.3908317" lon="-5.2562683"><ele>82.0</ele><time>2026-04-25T12:07:26.063Z</time></trkpt><trkpt lat="36.3907067" lon="-5.256625"><ele>76.0</ele><time>2026-04-25T12:07:27.059Z</time></trkpt><trkpt lat="36.390585" lon="-5.25698"><ele>70.0</ele><time>2026-04-25T12:07:28.064Z</time></trkpt><trkpt lat="36.39046" lon="-5.2573317"><ele>63.0</ele><time>2026-04-25T12:07:29.059Z</time></trkpt><trkpt lat="36.3903283" lon="-5.2576783"><ele>56.0</ele><time>2026-04-25T12:07:30.06Z</time></trkpt><trkpt lat="36.3901833" lon="-5.2580167"><ele>50.0</ele><time>2026-04-25T12:07:31.059Z</time></trkpt><trkpt lat="36.3900267" lon="-5.258345"><ele>44.0</ele><time>2026-04-25T12:07:32.061Z</time></trkpt><trkpt lat="36.3898617" lon="-5.2586583"><ele>44.5</ele><time>2026-04-25T12:07:33.061Z</time></trkpt><trkpt lat="36.389685" lon="-5.25896"><ele>45.0</ele><time>2026-04-25T12:07:34.064Z</time></trkpt><trkpt lat="36.3895017" lon="-5.2592467"><ele>45.0</ele><time>2026-04-25T12:07:35.06Z</time></trkpt><trkpt lat="36.38931" lon="-5.2595167"><ele>45.0</ele><time>2026-04-25T12:07:36.061Z</time></trkpt><trkpt lat="36.38911" lon="-5.25977"><ele>50.0</ele><time>2026-04-25T12:07:37.061Z</time></trkpt><trkpt lat="36.3889083" lon="-5.2600067"><ele>55.0</ele><time>2026-04-25T12:07:38.062Z</time></trkpt><trkpt lat="36.3886983" lon="-5.26023"><ele>59.5</ele><time>2026-04-25T12:07:39.064Z</time></trkpt><trkpt lat="36.3884833" lon="-5.2604367"><ele>64.0</ele><time>2026-04-25T12:07:40.059Z</time></trkpt><trkpt lat="36.3882617" lon="-5.26063"><ele>66.5</ele><time>2026-04-25T12:07:41.064Z</time></trkpt><trkpt lat="36.38804" lon="-5.26081"><ele>69.0</ele><time>2026-04-25T12:07:42.062Z</time></trkpt><trkpt lat="36.3878217" lon="-5.26097"><ele>69.0</ele><time>2026-04-25T12:07:43.067Z</time></trkpt><trkpt lat="36.38761" lon="-5.261115"><ele>69.0</ele><time>2026-04-25T12:07:44.061Z</time></trkpt><trkpt lat="36.3873983" lon="-5.2612467"><ele>69.0</ele><time>2026-04-25T12:07:45.059Z</time></trkpt><trkpt lat="36.387185" lon="-5.2613633"><ele>69.0</ele><time>2026-04-25T12:07:46.062Z</time></trkpt><trkpt lat="36.386965" lon="-5.2614733"><ele>71.5</ele><time>2026-04-25T12:07:47.06Z</time></trkpt><trkpt lat="36.3867333" lon="-5.2615733"><ele>74.0</ele><time>2026-04-25T12:07:48.063Z</time></trkpt><trkpt lat="36.386495" lon="-5.261665"><ele>78.0</ele><time>2026-04-25T12:07:49.059Z</time></trkpt><trkpt lat="36.3862517" lon="-5.26175"><ele>82.0</ele><time>2026-04-25T12:07:50.063Z</time></trkpt><trkpt lat="36.3860033" lon="-5.2618233"><ele>82.0</ele><time>2026-04-25T12:07:51.062Z</time></trkpt><trkpt lat="36.38575" lon="-5.2618883"><ele>82.0</ele><time>2026-04-25T12:07:52.059Z</time></trkpt><trkpt lat="36.38549" lon="-5.26194"><ele>86.0</ele><time>2026-04-25T12:07:53.069Z</time></trkpt><trkpt lat="36.3852217" lon="-5.2619767"><ele>90.0</ele><time>2026-04-25T12:07:54.06Z</time></trkpt><trkpt lat="36.38495" lon="-5.2620017"><ele>97.0</ele><time>2026-04-25T12:07:55.058Z</time></trkpt><trkpt lat="36.3846733" lon="-5.262015"><ele>104.0</ele><time>2026-04-25T12:07:56.063Z</time></trkpt><trkpt lat="36.384395" lon="-5.262025"><ele>104.0</ele><time>2026-04-25T12:07:57.069Z</time></trkpt><trkpt lat="36.3841083" lon="-5.262025"><ele>104.0</ele><time>2026-04-25T12:07:58.06Z</time></trkpt><trkpt lat="36.3838217" lon="-5.262025"><ele>107.5</ele><time>2026-04-25T12:07:59.059Z</time></trkpt><trkpt lat="36.3835367" lon="-5.2620267"><ele>111.0</ele><time>2026-04-25T12:08:00.064Z</time></trkpt><trkpt lat="36.3832567" lon="-5.2620367"><ele>112.5</ele><time>2026-04-25T12:08:01.065Z</time></trkpt><trkpt lat="36.38298" lon="-5.2620517"><ele>114.0</ele><time>2026-04-25T12:08:02.065Z</time></trkpt><trkpt lat="36.382705" lon="-5.2620717"><ele>114.0</ele><time>2026-04-25T12:08:03.062Z</time></trkpt><trkpt lat="36.3824317" lon="-5.2621"><ele>114.0</ele><time>2026-04-25T12:08:04.062Z</time></trkpt><trkpt lat="36.38216" lon="-5.2621333"><ele>118.5</ele><time>2026-04-25T12:08:05.064Z</time></trkpt><trkpt lat="36.38189" lon="-5.2621783"><ele>123.0</ele><time>2026-04-25T12:08:06.064Z</time></trkpt><trkpt lat="36.38162" lon="-5.2622317"><ele>134.5</ele><time>2026-04-25T12:08:07.063Z</time></trkpt><trkpt lat="36.38135" lon="-5.2622917"><ele>146.0</ele><time>2026-04-25T12:08:08.059Z</time></trkpt><trkpt lat="36.381085" lon="-5.2623567"><ele>147.0</ele><time>2026-04-25T12:08:09.063Z</time></trkpt><trkpt lat="36.3808217" lon="-5.262425"><ele>148.0</ele><time>2026-04-25T12:08:10.067Z</time></trkpt><trkpt lat="36.380565" lon="-5.2624983"><ele>144.0</ele><time>2026-04-25T12:08:11.062Z</time></trkpt><trkpt lat="36.3803167" lon="-5.2625817"><ele>140.0</ele><time>2026-04-25T12:08:12.063Z</time></trkpt><trkpt lat="36.3800767" lon="-5.26267"><ele>140.0</ele><time>2026-04-25T12:08:13.061Z</time></trkpt><trkpt lat="36.3798483" lon="-5.26276"><ele>140.0</ele><time>2026-04-25T12:08:14.058Z</time></trkpt><trkpt lat="36.379635" lon="-5.26285"><ele>135.33333333333331</ele><time>2026-04-25T12:08:15.061Z</time></trkpt><trkpt lat="36.3794333" lon="-5.2629433"><ele>130.66666666666666</ele><time>2026-04-25T12:08:16.057Z</time></trkpt><trkpt lat="36.3792367" lon="-5.2630367"><ele>126.0</ele><time>2026-04-25T12:08:17.059Z</time></trkpt><trkpt lat="36.3790433" lon="-5.2631317"><ele>124.66666666666666</ele><time>2026-04-25T12:08:18.059Z</time></trkpt><trkpt lat="36.3788517" lon="-5.26323"><ele>123.33333333333333</ele><time>2026-04-25T12:08:19.06Z</time></trkpt><trkpt lat="36.3786617" lon="-5.26333"><ele>122.0</ele><time>2026-04-25T12:08:20.063Z</time></trkpt><trkpt lat="36.378475" lon="-5.26343"><ele>122.0</ele><time>2026-04-25T12:08:21.062Z</time></trkpt><trkpt lat="36.3782917" lon="-5.2635333"><ele>122.0</ele><time>2026-04-25T12:08:22.061Z</time></trkpt><trkpt lat="36.378115" lon="-5.2636383"><ele>122.0</ele><time>2026-04-25T12:08:23.068Z</time></trkpt><trkpt lat="36.3779483" lon="-5.2637433"><ele>123.33333333333333</ele><time>2026-04-25T12:08:24.058Z</time></trkpt><trkpt lat="36.37779" lon="-5.2638483"><ele>124.66666666666666</ele><time>2026-04-25T12:08:25.061Z</time></trkpt><trkpt lat="36.377645" lon="-5.2639533"><ele>126.0</ele><time>2026-04-25T12:08:26.063Z</time></trkpt><trkpt lat="36.3775067" lon="-5.2640567"><ele>126.25</ele><time>2026-04-25T12:08:27.061Z</time></trkpt><trkpt lat="36.377385" lon="-5.2641483"><ele>126.5</ele><time>2026-04-25T12:08:28.067Z</time></trkpt><trkpt lat="36.37728" lon="-5.2642317"><ele>126.75</ele><time>2026-04-25T12:08:29.065Z</time></trkpt><trkpt lat="36.377185" lon="-5.2643033"><ele>127.0</ele><time>2026-04-25T12:08:30.059Z</time></trkpt><trkpt lat="36.3771" lon="-5.26437"><ele>127.00000000000001</ele><time>2026-04-25T12:08:31.063Z</time></trkpt><trkpt lat="36.3770217" lon="-5.264435"><ele>127.0</ele><time>2026-04-25T12:08:32.065Z</time></trkpt><trkpt lat="36.376945" lon="-5.2644967"><ele>127.0</ele><time>2026-04-25T12:08:33.064Z</time></trkpt><trkpt lat="36.3768667" lon="-5.2645583"><ele>127.0</ele><time>2026-04-25T12:08:34.062Z</time></trkpt><trkpt lat="36.3767933" lon="-5.264615"><ele>127.00000000000001</ele><time>2026-04-25T12:08:35.06Z</time></trkpt><trkpt lat="36.3767283" lon="-5.2646633"><ele>127.0</ele><time>2026-04-25T12:08:36.064Z</time></trkpt><trkpt lat="36.37667" lon="-5.2647033"><ele>127.0</ele><time>2026-04-25T12:08:37.06Z</time></trkpt><trkpt lat="36.3765817" lon="-5.26477"><ele>126.99999999999999</ele><time>2026-04-25T12:08:39.059Z</time></trkpt><trkpt lat="36.3765283" lon="-5.2648217"><ele>126.99999999999999</ele><time>2026-04-25T12:08:41.063Z</time></trkpt><trkpt lat="36.376425" lon="-5.2649833"><ele>127.0</ele><time>2026-04-25T12:10:21.064Z</time></trkpt><trkpt lat="36.3763667" lon="-5.2650283"><ele>127.0</ele><time>2026-04-25T12:10:22.063Z</time></trkpt><trkpt lat="36.376305" lon="-5.2650817"><ele>126.50000000000001</ele><time>2026-04-25T12:10:23.063Z</time></trkpt><trkpt lat="36.376245" lon="-5.2651333"><ele>126.0</ele><time>2026-04-25T12:10:24.065Z</time></trkpt><trkpt lat="36.376185" lon="-5.2651883"><ele>125.5</ele><time>2026-04-25T12:10:25.066Z</time></trkpt><trkpt lat="36.376115" lon="-5.2652483"><ele>125.0</ele><time>2026-04-25T12:10:26.061Z</time></trkpt><trkpt lat="36.376045" lon="-5.2653167"><ele>124.50000000000001</ele><time>2026-04-25T12:10:27.067Z</time></trkpt><trkpt lat="36.3759717" lon="-5.2653967"><ele>124.0</ele><time>2026-04-25T12:10:28.058Z</time></trkpt><trkpt lat="36.3759" lon="-5.26548"><ele>124.0</ele><time>2026-04-25T12:10:29.062Z</time></trkpt><trkpt lat="36.375825" lon="-5.2655633"><ele>124.0</ele><time>2026-04-25T12:10:30.058Z</time></trkpt><trkpt lat="36.3757483" lon="-5.2656467"><ele>124.0</ele><time>2026-04-25T12:10:31.064Z</time></trkpt><trkpt lat="36.3756717" lon="-5.2657267"><ele>124.0</ele><time>2026-04-25T12:10:32.061Z</time></trkpt><trkpt lat="36.3755983" lon="-5.2657967"><ele>124.0</ele><time>2026-04-25T12:10:33.058Z</time></trkpt><trkpt lat="36.37553" lon="-5.2658533"><ele>127.2</ele><time>2026-04-25T12:10:34.062Z</time></trkpt><trkpt lat="36.37547" lon="-5.2659"><ele>130.4</ele><time>2026-04-25T12:10:35.059Z</time></trkpt><trkpt lat="36.375415" lon="-5.2659417"><ele>133.6</ele><time>2026-04-25T12:10:36.06Z</time></trkpt><trkpt lat="36.3753133" lon="-5.266025"><ele>136.8</ele><time>2026-04-25T12:10:38.061Z</time></trkpt><trkpt lat="36.3752117" lon="-5.2660983"><ele>140.0</ele><time>2026-04-25T12:10:40.065Z</time></trkpt><trkpt lat="36.3751333" lon="-5.2661633"><ele>140.0</ele><time>2026-04-25T12:10:42.065Z</time></trkpt><trkpt lat="36.3750633" lon="-5.26621"><ele>140.0</ele><time>2026-04-25T12:10:44.073Z</time></trkpt><trkpt lat="36.3749283" lon="-5.2662817"><ele>140.0</ele><time>2026-04-25T12:11:00.061Z</time></trkpt><trkpt lat="36.3748683" lon="-5.2663167"><ele>140.0</ele><time>2026-04-25T12:11:01.063Z</time></trkpt><trkpt lat="36.3747917" lon="-5.2663733"><ele>140.0</ele><time>2026-04-25T12:11:02.059Z</time></trkpt><trkpt lat="36.3746967" lon="-5.2664433"><ele>142.0</ele><time>2026-04-25T12:11:03.061Z</time></trkpt><trkpt lat="36.37458" lon="-5.2665283"><ele>144.0</ele><time>2026-04-25T12:11:04.062Z</time></trkpt><trkpt lat="36.37446" lon="-5.2666183"><ele>146.0</ele><time>2026-04-25T12:11:05.063Z</time></trkpt><trkpt lat="36.3743333" lon="-5.2667117"><ele>148.0</ele><time>2026-04-25T12:11:06.06Z</time></trkpt><trkpt lat="36.3741933" lon="-5.2668133"><ele>148.0</ele><time>2026-04-25T12:11:07.061Z</time></trkpt><trkpt lat="36.3740433" lon="-5.26692"><ele>148.0</ele><time>2026-04-25T12:11:08.062Z</time></trkpt><trkpt lat="36.37388" lon="-5.26703"><ele>148.0</ele><time>2026-04-25T12:11:09.066Z</time></trkpt><trkpt lat="36.373705" lon="-5.2671433"><ele>152.0</ele><time>2026-04-25T12:11:10.065Z</time></trkpt><trkpt lat="36.3735183" lon="-5.2672633"><ele>156.0</ele><time>2026-04-25T12:11:11.063Z</time></trkpt><trkpt lat="36.3733167" lon="-5.267385"><ele>160.0</ele><time>2026-04-25T12:11:12.061Z</time></trkpt><trkpt lat="36.3731033" lon="-5.2675067"><ele>163.5</ele><time>2026-04-25T12:11:13.06Z</time></trkpt><trkpt lat="36.3728767" lon="-5.2676283"><ele>167.0</ele><time>2026-04-25T12:11:14.069Z</time></trkpt><trkpt lat="36.3726383" lon="-5.2677483"><ele>167.0</ele><time>2026-04-25T12:11:15.064Z</time></trkpt><trkpt lat="36.37239" lon="-5.2678667"><ele>167.0</ele><time>2026-04-25T12:11:16.058Z</time></trkpt><trkpt lat="36.3721333" lon="-5.2679833"><ele>167.0</ele><time>2026-04-25T12:11:17.061Z</time></trkpt><trkpt lat="36.3718667" lon="-5.2680933"><ele>167.0</ele><time>2026-04-25T12:11:18.062Z</time></trkpt><trkpt lat="36.3715933" lon="-5.2681983"><ele>160.5</ele><time>2026-04-25T12:11:19.057Z</time></trkpt><trkpt lat="36.3713167" lon="-5.2682983"><ele>154.0</ele><time>2026-04-25T12:11:20.061Z</time></trkpt><trkpt lat="36.371035" lon="-5.2683867"><ele>154.0</ele><time>2026-04-25T12:11:21.061Z</time></trkpt><trkpt lat="36.37075" lon="-5.268465"><ele>154.0</ele><time>2026-04-25T12:11:22.061Z</time></trkpt><trkpt lat="36.3704617" lon="-5.268535"><ele>148.5</ele><time>2026-04-25T12:11:23.061Z</time></trkpt><trkpt lat="36.3701717" lon="-5.2686"><ele>143.0</ele><time>2026-04-25T12:11:24.065Z</time></trkpt><trkpt lat="36.369885" lon="-5.2686633"><ele>140.0</ele><time>2026-04-25T12:11:25.062Z</time></trkpt><trkpt lat="36.369595" lon="-5.2687133"><ele>137.0</ele><time>2026-04-25T12:11:26.063Z</time></trkpt><trkpt lat="36.369305" lon="-5.2687533"><ele>137.0</ele><time>2026-04-25T12:11:27.063Z</time></trkpt><trkpt lat="36.369015" lon="-5.2687817"><ele>137.0</ele><time>2026-04-25T12:11:28.06Z</time></trkpt><trkpt lat="36.368725" lon="-5.2688017"><ele>133.5</ele><time>2026-04-25T12:11:29.064Z</time></trkpt><trkpt lat="36.3684317" lon="-5.2688083"><ele>130.0</ele><time>2026-04-25T12:11:30.062Z</time></trkpt><trkpt lat="36.36814" lon="-5.2688067"><ele>119.5</ele><time>2026-04-25T12:11:31.068Z</time></trkpt><trkpt lat="36.36785" lon="-5.2687967"><ele>109.0</ele><time>2026-04-25T12:11:32.063Z</time></trkpt><trkpt lat="36.36756" lon="-5.2687767"><ele>109.0</ele><time>2026-04-25T12:11:33.06Z</time></trkpt><trkpt lat="36.3672717" lon="-5.2687483"><ele>109.0</ele><time>2026-04-25T12:11:34.059Z</time></trkpt><trkpt lat="36.366985" lon="-5.2687117"><ele>106.0</ele><time>2026-04-25T12:11:35.062Z</time></trkpt><trkpt lat="36.3666967" lon="-5.2686667"><ele>103.0</ele><time>2026-04-25T12:11:36.057Z</time></trkpt><trkpt lat="36.3664033" lon="-5.268615"><ele>111.5</ele><time>2026-04-25T12:11:37.059Z</time></trkpt><trkpt lat="36.36611" lon="-5.2685567"><ele>120.0</ele><time>2026-04-25T12:11:38.065Z</time></trkpt><trkpt lat="36.3658117" lon="-5.2684983"><ele>123.0</ele><time>2026-04-25T12:11:39.06Z</time></trkpt><trkpt lat="36.3655117" lon="-5.26844"><ele>126.0</ele><time>2026-04-25T12:11:40.059Z</time></trkpt><trkpt lat="36.36521" lon="-5.2683833"><ele>126.0</ele><time>2026-04-25T12:11:41.059Z</time></trkpt><trkpt lat="36.364905" lon="-5.26833"><ele>126.0</ele><time>2026-04-25T12:11:42.061Z</time></trkpt><trkpt lat="36.3645967" lon="-5.26828"><ele>129.0</ele><time>2026-04-25T12:11:43.06Z</time></trkpt><trkpt lat="36.3642883" lon="-5.2682317"><ele>132.0</ele><time>2026-04-25T12:11:44.062Z</time></trkpt><trkpt lat="36.3639833" lon="-5.2681883"><ele>130.0</ele><time>2026-04-25T12:11:45.062Z</time></trkpt><trkpt lat="36.3636767" lon="-5.26815"><ele>128.0</ele><time>2026-04-25T12:11:46.057Z</time></trkpt><trkpt lat="36.36337" lon="-5.2681183"><ele>124.5</ele><time>2026-04-25T12:11:47.063Z</time></trkpt><trkpt lat="36.363065" lon="-5.2680933"><ele>121.0</ele><time>2026-04-25T12:11:48.061Z</time></trkpt><trkpt lat="36.36276" lon="-5.2680717"><ele>116.5</ele><time>2026-04-25T12:11:49.06Z</time></trkpt><trkpt lat="36.3624567" lon="-5.2680583"><ele>112.0</ele><time>2026-04-25T12:11:50.061Z</time></trkpt><trkpt lat="36.3621517" lon="-5.26805"><ele>109.0</ele><time>2026-04-25T12:11:51.061Z</time></trkpt><trkpt lat="36.3618483" lon="-5.26805"><ele>106.0</ele><time>2026-04-25T12:11:52.065Z</time></trkpt><trkpt lat="36.361545" lon="-5.2680583"><ele>115.0</ele><time>2026-04-25T12:11:53.062Z</time></trkpt><trkpt lat="36.3612417" lon="-5.2680717"><ele>124.0</ele><time>2026-04-25T12:11:54.061Z</time></trkpt><trkpt lat="36.3609383" lon="-5.2680917"><ele>123.0</ele><time>2026-04-25T12:11:55.066Z</time></trkpt><trkpt lat="36.360635" lon="-5.268115"><ele>122.0</ele><time>2026-04-25T12:11:56.065Z</time></trkpt><trkpt lat="36.360335" lon="-5.2681483"><ele>116.0</ele><time>2026-04-25T12:11:57.063Z</time></trkpt><trkpt lat="36.3600367" lon="-5.2681867"><ele>110.0</ele><time>2026-04-25T12:11:58.063Z</time></trkpt><trkpt lat="36.35974" lon="-5.2682317"><ele>103.5</ele><time>2026-04-25T12:11:59.062Z</time></trkpt><trkpt lat="36.3594467" lon="-5.2682833"><ele>97.0</ele><time>2026-04-25T12:12:00.069Z</time></trkpt><trkpt lat="36.3591533" lon="-5.26834"><ele>93.5</ele><time>2026-04-25T12:12:01.061Z</time></trkpt><trkpt lat="36.3588617" lon="-5.2684017"><ele>90.0</ele><time>2026-04-25T12:12:02.068Z</time></trkpt><trkpt lat="36.3585733" lon="-5.2684733"><ele>90.0</ele><time>2026-04-25T12:12:03.06Z</time></trkpt><trkpt lat="36.3582883" lon="-5.2685483"><ele>90.0</ele><time>2026-04-25T12:12:04.06Z</time></trkpt><trkpt lat="36.358005" lon="-5.2686267"><ele>85.0</ele><time>2026-04-25T12:12:05.067Z</time></trkpt><trkpt lat="36.3577217" lon="-5.2687083"><ele>80.0</ele><time>2026-04-25T12:12:06.063Z</time></trkpt><trkpt lat="36.35744" lon="-5.2687933"><ele>78.5</ele><time>2026-04-25T12:12:07.058Z</time></trkpt><trkpt lat="36.3571617" lon="-5.2688817"><ele>77.0</ele><time>2026-04-25T12:12:08.061Z</time></trkpt><trkpt lat="36.3568867" lon="-5.268975"><ele>80.0</ele><time>2026-04-25T12:12:09.06Z</time></trkpt><trkpt lat="36.3566133" lon="-5.2690767"><ele>83.0</ele><time>2026-04-25T12:12:10.059Z</time></trkpt><trkpt lat="36.3563433" lon="-5.2691867"><ele>85.0</ele><time>2026-04-25T12:12:11.062Z</time></trkpt><trkpt lat="36.3560733" lon="-5.2693033"><ele>87.0</ele><time>2026-04-25T12:12:12.058Z</time></trkpt><trkpt lat="36.3558017" lon="-5.2694267"><ele>88.0</ele><time>2026-04-25T12:12:13.062Z</time></trkpt><trkpt lat="36.3555283" lon="-5.2695533"><ele>89.0</ele><time>2026-04-25T12:12:14.061Z</time></trkpt><trkpt lat="36.3552567" lon="-5.269685"><ele>89.5</ele><time>2026-04-25T12:12:15.063Z</time></trkpt><trkpt lat="36.354985" lon="-5.2698233"><ele>90.0</ele><time>2026-04-25T12:12:16.063Z</time></trkpt><trkpt lat="36.3547133" lon="-5.269965"><ele>101.0</ele><time>2026-04-25T12:12:17.065Z</time></trkpt><trkpt lat="36.35444" lon="-5.27011"><ele>112.0</ele><time>2026-04-25T12:12:18.064Z</time></trkpt><trkpt lat="36.3541683" lon="-5.270255"><ele>112.0</ele><time>2026-04-25T12:12:19.063Z</time></trkpt><trkpt lat="36.3538983" lon="-5.2703983"><ele>112.0</ele><time>2026-04-25T12:12:20.064Z</time></trkpt><trkpt lat="36.353625" lon="-5.2705383"><ele>119.5</ele><time>2026-04-25T12:12:21.062Z</time></trkpt><trkpt lat="36.35335" lon="-5.2706733"><ele>127.0</ele><time>2026-04-25T12:12:22.062Z</time></trkpt><trkpt lat="36.3530733" lon="-5.2708067"><ele>129.0</ele><time>2026-04-25T12:12:23.064Z</time></trkpt><trkpt lat="36.352795" lon="-5.2709367"><ele>131.0</ele><time>2026-04-25T12:12:24.061Z</time></trkpt><trkpt lat="36.352515" lon="-5.271055"><ele>131.0</ele><time>2026-04-25T12:12:25.062Z</time></trkpt><trkpt lat="36.3522333" lon="-5.2711617"><ele>131.0</ele><time>2026-04-25T12:12:26.061Z</time></trkpt><trkpt lat="36.3519517" lon="-5.2712567"><ele>132.5</ele><time>2026-04-25T12:12:27.061Z</time></trkpt><trkpt lat="36.3516683" lon="-5.27134"><ele>134.0</ele><time>2026-04-25T12:12:28.062Z</time></trkpt><trkpt lat="36.3513867" lon="-5.2714117"><ele>130.5</ele><time>2026-04-25T12:12:29.062Z</time></trkpt><trkpt lat="36.3511017" lon="-5.271475"><ele>127.0</ele><time>2026-04-25T12:12:30.064Z</time></trkpt><trkpt lat="36.3508167" lon="-5.2715217"><ele>121.5</ele><time>2026-04-25T12:12:31.062Z</time></trkpt><trkpt lat="36.3505283" lon="-5.27155"><ele>116.0</ele><time>2026-04-25T12:12:32.061Z</time></trkpt><trkpt lat="36.3502433" lon="-5.2715717"><ele>116.0</ele><time>2026-04-25T12:12:33.062Z</time></trkpt><trkpt lat="36.3499617" lon="-5.271585"><ele>116.0</ele><time>2026-04-25T12:12:34.058Z</time></trkpt><trkpt lat="36.3496783" lon="-5.2715933"><ele>113.5</ele><time>2026-04-25T12:12:35.057Z</time></trkpt><trkpt lat="36.3493983" lon="-5.2715917"><ele>111.0</ele><time>2026-04-25T12:12:36.062Z</time></trkpt><trkpt lat="36.3491183" lon="-5.2715767"><ele>111.0</ele><time>2026-04-25T12:12:37.061Z</time></trkpt><trkpt lat="36.3488417" lon="-5.271545"><ele>111.0</ele><time>2026-04-25T12:12:38.063Z</time></trkpt><trkpt lat="36.3485683" lon="-5.2715"><ele>111.0</ele><time>2026-04-25T12:12:39.058Z</time></trkpt><trkpt lat="36.348295" lon="-5.271445"><ele>111.0</ele><time>2026-04-25T12:12:40.062Z</time></trkpt><trkpt lat="36.3480233" lon="-5.27138"><ele>110.0</ele><time>2026-04-25T12:12:41.063Z</time></trkpt><trkpt lat="36.347755" lon="-5.27131"><ele>109.0</ele><time>2026-04-25T12:12:42.063Z</time></trkpt><trkpt lat="36.34749" lon="-5.27123"><ele>109.0</ele><time>2026-04-25T12:12:43.06Z</time></trkpt><trkpt lat="36.347225" lon="-5.2711417"><ele>109.0</ele><time>2026-04-25T12:12:44.063Z</time></trkpt><trkpt lat="36.3469617" lon="-5.271045"><ele>117.5</ele><time>2026-04-25T12:12:45.062Z</time></trkpt><trkpt lat="36.346705" lon="-5.2709383"><ele>126.0</ele><time>2026-04-25T12:12:46.064Z</time></trkpt><trkpt lat="36.3464517" lon="-5.2708217"><ele>128.0</ele><time>2026-04-25T12:12:47.063Z</time></trkpt><trkpt lat="36.3461983" lon="-5.2706883"><ele>130.0</ele><time>2026-04-25T12:12:48.061Z</time></trkpt><trkpt lat="36.345945" lon="-5.2705467"><ele>125.0</ele><time>2026-04-25T12:12:49.063Z</time></trkpt><trkpt lat="36.3456933" lon="-5.2704"><ele>120.0</ele><time>2026-04-25T12:12:50.057Z</time></trkpt><trkpt lat="36.34544" lon="-5.2702517"><ele>130.5</ele><time>2026-04-25T12:12:51.062Z</time></trkpt><trkpt lat="36.34519" lon="-5.2701033"><ele>141.0</ele><time>2026-04-25T12:12:52.059Z</time></trkpt><trkpt lat="36.3449367" lon="-5.2699583"><ele>149.5</ele><time>2026-04-25T12:12:53.058Z</time></trkpt><trkpt lat="36.3446817" lon="-5.2698133"><ele>158.0</ele><time>2026-04-25T12:12:54.064Z</time></trkpt><trkpt lat="36.3444283" lon="-5.2696717"><ele>158.0</ele><time>2026-04-25T12:12:55.061Z</time></trkpt><trkpt lat="36.34417" lon="-5.2695367"><ele>158.0</ele><time>2026-04-25T12:12:56.059Z</time></trkpt><trkpt lat="36.3439067" lon="-5.2694083"><ele>161.5</ele><time>2026-04-25T12:12:57.06Z</time></trkpt><trkpt lat="36.3436383" lon="-5.2692867"><ele>165.0</ele><time>2026-04-25T12:12:58.06Z</time></trkpt><trkpt lat="36.3433667" lon="-5.2691767"><ele>165.0</ele><time>2026-04-25T12:12:59.058Z</time></trkpt><trkpt lat="36.3430967" lon="-5.26908"><ele>165.0</ele><time>2026-04-25T12:13:00.061Z</time></trkpt><trkpt lat="36.3428183" lon="-5.2689933"><ele>162.0</ele><time>2026-04-25T12:13:01.061Z</time></trkpt><trkpt lat="36.34254" lon="-5.2689183"><ele>159.0</ele><time>2026-04-25T12:13:02.061Z</time></trkpt><trkpt lat="36.3422583" lon="-5.2688483"><ele>153.0</ele><time>2026-04-25T12:13:03.061Z</time></trkpt><trkpt lat="36.3419733" lon="-5.268795"><ele>147.0</ele><time>2026-04-25T12:13:04.062Z</time></trkpt><trkpt lat="36.34169" lon="-5.2687567"><ele>147.0</ele><time>2026-04-25T12:13:05.061Z</time></trkpt><trkpt lat="36.341405" lon="-5.2687283"><ele>147.0</ele><time>2026-04-25T12:13:06.065Z</time></trkpt><trkpt lat="36.34112" lon="-5.26871"><ele>147.5</ele><time>2026-04-25T12:13:07.064Z</time></trkpt><trkpt lat="36.3408333" lon="-5.2687033"><ele>148.0</ele><time>2026-04-25T12:13:08.064Z</time></trkpt><trkpt lat="36.340545" lon="-5.2687033"><ele>148.0</ele><time>2026-04-25T12:13:09.063Z</time></trkpt><trkpt lat="36.3402567" lon="-5.2687133"><ele>148.0</ele><time>2026-04-25T12:13:10.062Z</time></trkpt><trkpt lat="36.3399633" lon="-5.2687317"><ele>148.0</ele><time>2026-04-25T12:13:11.06Z</time></trkpt><trkpt lat="36.3396717" lon="-5.2687533"><ele>148.0</ele><time>2026-04-25T12:13:12.063Z</time></trkpt><trkpt lat="36.3393783" lon="-5.268785"><ele>148.0</ele><time>2026-04-25T12:13:13.058Z</time></trkpt><trkpt lat="36.3390833" lon="-5.26882"><ele>148.0</ele><time>2026-04-25T12:13:14.058Z</time></trkpt><trkpt lat="36.338785" lon="-5.268855"><ele>145.5</ele><time>2026-04-25T12:13:15.059Z</time></trkpt><trkpt lat="36.338485" lon="-5.268885"><ele>143.0</ele><time>2026-04-25T12:13:16.061Z</time></trkpt><trkpt lat="36.338185" lon="-5.2689067"><ele>141.0</ele><time>2026-04-25T12:13:17.066Z</time></trkpt><trkpt lat="36.337885" lon="-5.2689183"><ele>139.0</ele><time>2026-04-25T12:13:18.061Z</time></trkpt><trkpt lat="36.3375817" lon="-5.268915"><ele>139.0</ele><time>2026-04-25T12:13:19.062Z</time></trkpt><trkpt lat="36.33728" lon="-5.268895"><ele>139.0</ele><time>2026-04-25T12:13:20.06Z</time></trkpt><trkpt lat="36.33698" lon="-5.2688617"><ele>137.0</ele><time>2026-04-25T12:13:21.058Z</time></trkpt><trkpt lat="36.33668" lon="-5.2688133"><ele>135.0</ele><time>2026-04-25T12:13:22.06Z</time></trkpt><trkpt lat="36.336385" lon="-5.2687533"><ele>130.5</ele><time>2026-04-25T12:13:23.059Z</time></trkpt><trkpt lat="36.3360917" lon="-5.26868"><ele>126.0</ele><time>2026-04-25T12:13:24.061Z</time></trkpt><trkpt lat="36.3358033" lon="-5.2685933"><ele>128.5</ele><time>2026-04-25T12:13:25.062Z</time></trkpt><trkpt lat="36.3355183" lon="-5.268495"><ele>131.0</ele><time>2026-04-25T12:13:26.065Z</time></trkpt><trkpt lat="36.3352367" lon="-5.2683883"><ele>131.0</ele><time>2026-04-25T12:13:27.063Z</time></trkpt><trkpt lat="36.3349583" lon="-5.26827"><ele>131.0</ele><time>2026-04-25T12:13:28.061Z</time></trkpt><trkpt lat="36.3346867" lon="-5.2681433"><ele>136.5</ele><time>2026-04-25T12:13:29.059Z</time></trkpt><trkpt lat="36.3344183" lon="-5.2680017"><ele>142.0</ele><time>2026-04-25T12:13:30.065Z</time></trkpt><trkpt lat="36.3341567" lon="-5.2678433"><ele>142.0</ele><time>2026-04-25T12:13:31.065Z</time></trkpt><trkpt lat="36.3339017" lon="-5.2676783"><ele>142.0</ele><time>2026-04-25T12:13:32.061Z</time></trkpt><trkpt lat="36.3336533" lon="-5.2675"><ele>143.5</ele><time>2026-04-25T12:13:33.062Z</time></trkpt><trkpt lat="36.3334083" lon="-5.267315"><ele>145.0</ele><time>2026-04-25T12:13:34.06Z</time></trkpt><trkpt lat="36.3331667" lon="-5.26712"><ele>146.5</ele><time>2026-04-25T12:13:35.06Z</time></trkpt><trkpt lat="36.33293" lon="-5.2669233"><ele>148.0</ele><time>2026-04-25T12:13:36.061Z</time></trkpt><trkpt lat="36.3326917" lon="-5.266725"><ele>148.0</ele><time>2026-04-25T12:13:37.058Z</time></trkpt><trkpt lat="36.3324567" lon="-5.2665317"><ele>148.0</ele><time>2026-04-25T12:13:38.057Z</time></trkpt><trkpt lat="36.33222" lon="-5.2663383"><ele>150.0</ele><time>2026-04-25T12:13:39.066Z</time></trkpt><trkpt lat="36.33198" lon="-5.2661433"><ele>152.0</ele><time>2026-04-25T12:13:40.06Z</time></trkpt><trkpt lat="36.3317333" lon="-5.2659567"><ele>152.0</ele><time>2026-04-25T12:13:41.06Z</time></trkpt><trkpt lat="36.3314783" lon="-5.2657833"><ele>152.0</ele><time>2026-04-25T12:13:42.06Z</time></trkpt><trkpt lat="36.331215" lon="-5.26562"><ele>154.5</ele><time>2026-04-25T12:13:43.06Z</time></trkpt><trkpt lat="36.3309467" lon="-5.26547"><ele>157.0</ele><time>2026-04-25T12:13:44.061Z</time></trkpt><trkpt lat="36.33067" lon="-5.2653317"><ele>161.0</ele><time>2026-04-25T12:13:45.064Z</time></trkpt><trkpt lat="36.3303883" lon="-5.2652083"><ele>165.0</ele><time>2026-04-25T12:13:46.061Z</time></trkpt><trkpt lat="36.3301033" lon="-5.265095"><ele>165.0</ele><time>2026-04-25T12:13:47.061Z</time></trkpt><trkpt lat="36.329815" lon="-5.2649933"><ele>165.0</ele><time>2026-04-25T12:13:48.061Z</time></trkpt><trkpt lat="36.329525" lon="-5.2649033"><ele>166.0</ele><time>2026-04-25T12:13:49.059Z</time></trkpt><trkpt lat="36.32923" lon="-5.264825"><ele>167.0</ele><time>2026-04-25T12:13:50.061Z</time></trkpt><trkpt lat="36.3289317" lon="-5.2647633"><ele>165.5</ele><time>2026-04-25T12:13:51.062Z</time></trkpt><trkpt lat="36.32863" lon="-5.2647183"><ele>164.0</ele><time>2026-04-25T12:13:52.06Z</time></trkpt><trkpt lat="36.328325" lon="-5.2646867"><ele>160.0</ele><time>2026-04-25T12:13:53.062Z</time></trkpt><trkpt lat="36.3280183" lon="-5.2646667"><ele>156.0</ele><time>2026-04-25T12:13:54.061Z</time></trkpt><trkpt lat="36.3277083" lon="-5.26466"><ele>156.0</ele><time>2026-04-25T12:13:55.059Z</time></trkpt><trkpt lat="36.3273967" lon="-5.2646667"><ele>156.0</ele><time>2026-04-25T12:13:56.063Z</time></trkpt><trkpt lat="36.3270833" lon="-5.2646933"><ele>153.5</ele><time>2026-04-25T12:13:57.061Z</time></trkpt><trkpt lat="36.32677" lon="-5.264735"><ele>151.0</ele><time>2026-04-25T12:13:58.061Z</time></trkpt><trkpt lat="36.3264533" lon="-5.2647917"><ele>158.5</ele><time>2026-04-25T12:13:59.064Z</time></trkpt><trkpt lat="36.326135" lon="-5.2648667"><ele>166.0</ele><time>2026-04-25T12:14:00.066Z</time></trkpt><trkpt lat="36.32582" lon="-5.2649583"><ele>166.0</ele><time>2026-04-25T12:14:01.061Z</time></trkpt><trkpt lat="36.3255033" lon="-5.2650683"><ele>166.0</ele><time>2026-04-25T12:14:02.062Z</time></trkpt><trkpt lat="36.3251883" lon="-5.2651933"><ele>166.0</ele><time>2026-04-25T12:14:03.061Z</time></trkpt><trkpt lat="36.3248733" lon="-5.2653333"><ele>166.0</ele><time>2026-04-25T12:14:04.06Z</time></trkpt><trkpt lat="36.3245633" lon="-5.26549"><ele>167.5</ele><time>2026-04-25T12:14:05.06Z</time></trkpt><trkpt lat="36.32426" lon="-5.2656633"><ele>169.0</ele><time>2026-04-25T12:14:06.063Z</time></trkpt><trkpt lat="36.3239633" lon="-5.2658517"><ele>160.0</ele><time>2026-04-25T12:14:07.059Z</time></trkpt><trkpt lat="36.3236733" lon="-5.2660533"><ele>151.0</ele><time>2026-04-25T12:14:08.064Z</time></trkpt><trkpt lat="36.3233933" lon="-5.266265"><ele>154.0</ele><time>2026-04-25T12:14:09.06Z</time></trkpt><trkpt lat="36.3231233" lon="-5.2664917"><ele>157.0</ele><time>2026-04-25T12:14:10.058Z</time></trkpt><trkpt lat="36.322865" lon="-5.2667333"><ele>148.5</ele><time>2026-04-25T12:14:11.058Z</time></trkpt><trkpt lat="36.3226133" lon="-5.266985"><ele>140.0</ele><time>2026-04-25T12:14:12.062Z</time></trkpt><trkpt lat="36.3223733" lon="-5.2672483"><ele>134.0</ele><time>2026-04-25T12:14:13.062Z</time></trkpt><trkpt lat="36.3221383" lon="-5.2675217"><ele>128.0</ele><time>2026-04-25T12:14:14.058Z</time></trkpt><trkpt lat="36.32191" lon="-5.2678"><ele>128.0</ele><time>2026-04-25T12:14:15.061Z</time></trkpt><trkpt lat="36.3216833" lon="-5.2680833"><ele>128.0</ele><time>2026-04-25T12:14:16.06Z</time></trkpt><trkpt lat="36.3214617" lon="-5.2683683"><ele>120.5</ele><time>2026-04-25T12:14:17.063Z</time></trkpt><trkpt lat="36.3212383" lon="-5.268655"><ele>113.0</ele><time>2026-04-25T12:14:18.063Z</time></trkpt><trkpt lat="36.32101" lon="-5.26894"><ele>113.5</ele><time>2026-04-25T12:14:19.063Z</time></trkpt><trkpt lat="36.32078" lon="-5.269225"><ele>114.0</ele><time>2026-04-25T12:14:20.064Z</time></trkpt><trkpt lat="36.3205467" lon="-5.2695067"><ele>110.5</ele><time>2026-04-25T12:14:21.063Z</time></trkpt><trkpt lat="36.3203133" lon="-5.2697883"><ele>107.0</ele><time>2026-04-25T12:14:22.067Z</time></trkpt><trkpt lat="36.3200817" lon="-5.2700717"><ele>107.0</ele><time>2026-04-25T12:14:23.065Z</time></trkpt><trkpt lat="36.3198483" lon="-5.2703533"><ele>107.0</ele><time>2026-04-25T12:14:24.066Z</time></trkpt><trkpt lat="36.31961" lon="-5.2706283"><ele>108.0</ele><time>2026-04-25T12:14:25.06Z</time></trkpt><trkpt lat="36.3193683" lon="-5.2709"><ele>109.0</ele><time>2026-04-25T12:14:26.066Z</time></trkpt><trkpt lat="36.319125" lon="-5.2711633"><ele>109.5</ele><time>2026-04-25T12:14:27.059Z</time></trkpt><trkpt lat="36.3188767" lon="-5.2714233"><ele>110.0</ele><time>2026-04-25T12:14:28.06Z</time></trkpt><trkpt lat="36.31863" lon="-5.2716817"><ele>110.0</ele><time>2026-04-25T12:14:29.061Z</time></trkpt><trkpt lat="36.3183817" lon="-5.271935"><ele>110.0</ele><time>2026-04-25T12:14:30.061Z</time></trkpt><trkpt lat="36.3181333" lon="-5.272185"><ele>109.0</ele><time>2026-04-25T12:14:31.062Z</time></trkpt><trkpt lat="36.31788" lon="-5.2724317"><ele>108.0</ele><time>2026-04-25T12:14:32.059Z</time></trkpt><trkpt lat="36.3176267" lon="-5.2726717"><ele>108.0</ele><time>2026-04-25T12:14:33.059Z</time></trkpt><trkpt lat="36.3173683" lon="-5.27291"><ele>108.0</ele><time>2026-04-25T12:14:34.061Z</time></trkpt><trkpt lat="36.3171067" lon="-5.2731433"><ele>101.5</ele><time>2026-04-25T12:14:35.058Z</time></trkpt><trkpt lat="36.3168433" lon="-5.2733717"><ele>95.0</ele><time>2026-04-25T12:14:36.061Z</time></trkpt><trkpt lat="36.31658" lon="-5.2735917"><ele>96.0</ele><time>2026-04-25T12:14:37.061Z</time></trkpt><trkpt lat="36.3163133" lon="-5.273805"><ele>97.0</ele><time>2026-04-25T12:14:38.062Z</time></trkpt><trkpt lat="36.3160467" lon="-5.2740117"><ele>88.5</ele><time>2026-04-25T12:14:39.062Z</time></trkpt><trkpt lat="36.3157817" lon="-5.2742133"><ele>80.0</ele><time>2026-04-25T12:14:40.062Z</time></trkpt><trkpt lat="36.3155183" lon="-5.2744083"><ele>78.0</ele><time>2026-04-25T12:14:41.067Z</time></trkpt><trkpt lat="36.3152583" lon="-5.2745983"><ele>76.0</ele><time>2026-04-25T12:14:42.066Z</time></trkpt><trkpt lat="36.315" lon="-5.2747833"><ele>71.0</ele><time>2026-04-25T12:14:43.058Z</time></trkpt><trkpt lat="36.31474" lon="-5.27496"><ele>66.0</ele><time>2026-04-25T12:14:44.063Z</time></trkpt><trkpt lat="36.31448" lon="-5.2751333"><ele>64.5</ele><time>2026-04-25T12:14:45.062Z</time></trkpt><trkpt lat="36.3142183" lon="-5.2753033"><ele>63.0</ele><time>2026-04-25T12:14:46.063Z</time></trkpt><trkpt lat="36.3139583" lon="-5.2754717"><ele>60.5</ele><time>2026-04-25T12:14:47.063Z</time></trkpt><trkpt lat="36.3136967" lon="-5.2756333"><ele>58.0</ele><time>2026-04-25T12:14:48.057Z</time></trkpt><trkpt lat="36.313435" lon="-5.2757883"><ele>58.0</ele><time>2026-04-25T12:14:49.057Z</time></trkpt><trkpt lat="36.3131717" lon="-5.27594"><ele>58.0</ele><time>2026-04-25T12:14:50.063Z</time></trkpt><trkpt lat="36.3129067" lon="-5.276085"><ele>62.5</ele><time>2026-04-25T12:14:51.059Z</time></trkpt><trkpt lat="36.3126417" lon="-5.2762267"><ele>67.0</ele><time>2026-04-25T12:14:52.06Z</time></trkpt><trkpt lat="36.312375" lon="-5.276365"><ele>62.0</ele><time>2026-04-25T12:14:53.059Z</time></trkpt><trkpt lat="36.3121083" lon="-5.2765"><ele>57.0</ele><time>2026-04-25T12:14:54.059Z</time></trkpt><trkpt lat="36.31184" lon="-5.2766317"><ele>57.0</ele><time>2026-04-25T12:14:55.059Z</time></trkpt><trkpt lat="36.31157" lon="-5.2767583"><ele>57.0</ele><time>2026-04-25T12:14:56.06Z</time></trkpt><trkpt lat="36.3112983" lon="-5.2768817"><ele>61.0</ele><time>2026-04-25T12:14:57.062Z</time></trkpt><trkpt lat="36.3110217" lon="-5.2770033"><ele>65.0</ele><time>2026-04-25T12:14:58.06Z</time></trkpt><trkpt lat="36.3107417" lon="-5.2771183"><ele>64.5</ele><time>2026-04-25T12:14:59.063Z</time></trkpt><trkpt lat="36.3104567" lon="-5.27723"><ele>64.0</ele><time>2026-04-25T12:15:00.061Z</time></trkpt><trkpt lat="36.31017" lon="-5.2773383"><ele>64.0</ele><time>2026-04-25T12:15:01.06Z</time></trkpt><trkpt lat="36.3098833" lon="-5.277445"><ele>64.0</ele><time>2026-04-25T12:15:02.063Z</time></trkpt><trkpt lat="36.309595" lon="-5.2775483"><ele>65.5</ele><time>2026-04-25T12:15:03.062Z</time></trkpt><trkpt lat="36.309305" lon="-5.277645"><ele>67.0</ele><time>2026-04-25T12:15:04.061Z</time></trkpt><trkpt lat="36.309015" lon="-5.2777417"><ele>64.5</ele><time>2026-04-25T12:15:05.06Z</time></trkpt><trkpt lat="36.308725" lon="-5.27783"><ele>62.0</ele><time>2026-04-25T12:15:06.063Z</time></trkpt><trkpt lat="36.3084333" lon="-5.277915"><ele>62.0</ele><time>2026-04-25T12:15:07.064Z</time></trkpt><trkpt lat="36.3081417" lon="-5.277995"><ele>62.0</ele><time>2026-04-25T12:15:08.059Z</time></trkpt><trkpt lat="36.30785" lon="-5.27807"><ele>55.5</ele><time>2026-04-25T12:15:09.062Z</time></trkpt><trkpt lat="36.3075617" lon="-5.27814"><ele>49.0</ele><time>2026-04-25T12:15:10.061Z</time></trkpt><trkpt lat="36.3072683" lon="-5.2782067"><ele>44.0</ele><time>2026-04-25T12:15:11.059Z</time></trkpt><trkpt lat="36.306975" lon="-5.2782717"><ele>39.0</ele><time>2026-04-25T12:15:12.061Z</time></trkpt><trkpt lat="36.30668" lon="-5.2783333"><ele>34.0</ele><time>2026-04-25T12:15:13.065Z</time></trkpt><trkpt lat="36.306385" lon="-5.2783917"><ele>29.0</ele><time>2026-04-25T12:15:14.074Z</time></trkpt><trkpt lat="36.3060917" lon="-5.278445"><ele>29.0</ele><time>2026-04-25T12:15:15.063Z</time></trkpt><trkpt lat="36.3057983" lon="-5.2785"><ele>29.0</ele><time>2026-04-25T12:15:16.058Z</time></trkpt><trkpt lat="36.3055067" lon="-5.2785533"><ele>25.5</ele><time>2026-04-25T12:15:17.062Z</time></trkpt><trkpt lat="36.3052167" lon="-5.278605"><ele>22.0</ele><time>2026-04-25T12:15:18.059Z</time></trkpt><trkpt lat="36.3049267" lon="-5.2786517"><ele>21.5</ele><time>2026-04-25T12:15:19.061Z</time></trkpt><trkpt lat="36.3046383" lon="-5.2787017"><ele>21.0</ele><time>2026-04-25T12:15:20.059Z</time></trkpt><trkpt lat="36.3043533" lon="-5.2787533"><ele>21.0</ele><time>2026-04-25T12:15:21.063Z</time></trkpt><trkpt lat="36.3040667" lon="-5.2788083"><ele>21.0</ele><time>2026-04-25T12:15:22.06Z</time></trkpt><trkpt lat="36.30378" lon="-5.2788683"><ele>19.0</ele><time>2026-04-25T12:15:23.063Z</time></trkpt><trkpt lat="36.303495" lon="-5.2789333"><ele>17.0</ele><time>2026-04-25T12:15:24.062Z</time></trkpt><trkpt lat="36.3032083" lon="-5.27901"><ele>18.5</ele><time>2026-04-25T12:15:25.061Z</time></trkpt><trkpt lat="36.302925" lon="-5.279095"><ele>20.0</ele><time>2026-04-25T12:15:26.064Z</time></trkpt><trkpt lat="36.3026433" lon="-5.279195"><ele>20.0</ele><time>2026-04-25T12:15:27.059Z</time></trkpt><trkpt lat="36.3023667" lon="-5.2793067"><ele>20.0</ele><time>2026-04-25T12:15:28.061Z</time></trkpt><trkpt lat="36.302095" lon="-5.2794267"><ele>19.0</ele><time>2026-04-25T12:15:29.061Z</time></trkpt><trkpt lat="36.30183" lon="-5.2795517"><ele>18.0</ele><time>2026-04-25T12:15:30.062Z</time></trkpt><trkpt lat="36.3015767" lon="-5.2796817"><ele>14.0</ele><time>2026-04-25T12:15:31.068Z</time></trkpt><trkpt lat="36.3013367" lon="-5.2798133"><ele>10.0</ele><time>2026-04-25T12:15:32.068Z</time></trkpt><trkpt lat="36.3011067" lon="-5.2799483"><ele>10.0</ele><time>2026-04-25T12:15:33.058Z</time></trkpt><trkpt lat="36.3008833" lon="-5.28009"><ele>10.0</ele><time>2026-04-25T12:15:34.061Z</time></trkpt><trkpt lat="36.300665" lon="-5.2802333"><ele>9.0</ele><time>2026-04-25T12:15:35.064Z</time></trkpt><trkpt lat="36.3004517" lon="-5.280385"><ele>8.0</ele><time>2026-04-25T12:15:36.062Z</time></trkpt><trkpt lat="36.3002433" lon="-5.2805467"><ele>9.0</ele><time>2026-04-25T12:15:37.061Z</time></trkpt><trkpt lat="36.3000367" lon="-5.2807133"><ele>10.0</ele><time>2026-04-25T12:15:38.059Z</time></trkpt><trkpt lat="36.2998367" lon="-5.2808833"><ele>9.0</ele><time>2026-04-25T12:15:39.057Z</time></trkpt><trkpt lat="36.29965" lon="-5.2810483"><ele>8.0</ele><time>2026-04-25T12:15:40.064Z</time></trkpt><trkpt lat="36.2994683" lon="-5.2812167"><ele>8.0</ele><time>2026-04-25T12:15:41.061Z</time></trkpt><trkpt lat="36.2992933" lon="-5.2813867"><ele>8.0</ele><time>2026-04-25T12:15:42.061Z</time></trkpt><trkpt lat="36.2991233" lon="-5.2815567"><ele>8.0</ele><time>2026-04-25T12:15:43.061Z</time></trkpt><trkpt lat="36.2989483" lon="-5.2817383"><ele>9.0</ele><time>2026-04-25T12:15:44.06Z</time></trkpt><trkpt lat="36.29877" lon="-5.2819383"><ele>10.0</ele><time>2026-04-25T12:15:45.061Z</time></trkpt><trkpt lat="36.2985917" lon="-5.2821567"><ele>12.0</ele><time>2026-04-25T12:15:46.061Z</time></trkpt><trkpt lat="36.2984117" lon="-5.282385"><ele>14.0</ele><time>2026-04-25T12:15:47.061Z</time></trkpt><trkpt lat="36.2982283" lon="-5.2826233"><ele>13.5</ele><time>2026-04-25T12:15:48.063Z</time></trkpt><trkpt lat="36.2980483" lon="-5.2828733"><ele>13.0</ele><time>2026-04-25T12:15:49.06Z</time></trkpt><trkpt lat="36.2978683" lon="-5.2831333"><ele>13.0</ele><time>2026-04-25T12:15:50.062Z</time></trkpt><trkpt lat="36.2976917" lon="-5.283405"><ele>13.0</ele><time>2026-04-25T12:15:51.064Z</time></trkpt><trkpt lat="36.2975217" lon="-5.2836867"><ele>12.0</ele><time>2026-04-25T12:15:52.058Z</time></trkpt><trkpt lat="36.2973567" lon="-5.2839767"><ele>11.0</ele><time>2026-04-25T12:15:53.064Z</time></trkpt><trkpt lat="36.2972" lon="-5.284275"><ele>8.5</ele><time>2026-04-25T12:15:54.065Z</time></trkpt><trkpt lat="36.29705" lon="-5.284575"><ele>6.0</ele><time>2026-04-25T12:15:55.062Z</time></trkpt><trkpt lat="36.2969033" lon="-5.2848817"><ele>6.0</ele><time>2026-04-25T12:15:56.061Z</time></trkpt><trkpt lat="36.2967667" lon="-5.28519"><ele>6.0</ele><time>2026-04-25T12:15:57.061Z</time></trkpt><trkpt lat="36.2966367" lon="-5.2855067"><ele>6.0</ele><time>2026-04-25T12:15:58.057Z</time></trkpt><trkpt lat="36.2965133" lon="-5.2858217"><ele>6.0</ele><time>2026-04-25T12:15:59.06Z</time></trkpt><trkpt lat="36.2963983" lon="-5.2861417"><ele>4.0</ele><time>2026-04-25T12:16:00.06Z</time></trkpt><trkpt lat="36.2962917" lon="-5.2864633"><ele>2.0</ele><time>2026-04-25T12:16:01.058Z</time></trkpt><trkpt lat="36.2961883" lon="-5.2867867"><ele>2.0</ele><time>2026-04-25T12:16:02.065Z</time></trkpt><trkpt lat="36.29609" lon="-5.2871083"><ele>2.0</ele><time>2026-04-25T12:16:03.058Z</time></trkpt><trkpt lat="36.295995" lon="-5.28743"><ele>2.0</ele><time>2026-04-25T12:16:04.061Z</time></trkpt><trkpt lat="36.2959033" lon="-5.28775"><ele>2.0</ele><time>2026-04-25T12:16:05.061Z</time></trkpt><trkpt lat="36.2958083" lon="-5.2880733"><ele>2.5</ele><time>2026-04-25T12:16:06.06Z</time></trkpt><trkpt lat="36.2957117" lon="-5.2883983"><ele>3.0</ele><time>2026-04-25T12:16:07.06Z</time></trkpt><trkpt lat="36.295615" lon="-5.2887233"><ele>3.5</ele><time>2026-04-25T12:16:08.061Z</time></trkpt><trkpt lat="36.2955167" lon="-5.289045"><ele>4.0</ele><time>2026-04-25T12:16:09.062Z</time></trkpt><trkpt lat="36.2954217" lon="-5.289365"><ele>4.0</ele><time>2026-04-25T12:16:10.061Z</time></trkpt><trkpt lat="36.2953267" lon="-5.28968"><ele>4.0</ele><time>2026-04-25T12:16:11.059Z</time></trkpt><trkpt lat="36.2952333" lon="-5.28999"><ele>3.0</ele><time>2026-04-25T12:16:12.06Z</time></trkpt><trkpt lat="36.295145" lon="-5.2902967"><ele>2.0</ele><time>2026-04-25T12:16:13.061Z</time></trkpt><trkpt lat="36.2950533" lon="-5.2905983"><ele>1.0</ele><time>2026-04-25T12:16:14.062Z</time></trkpt><trkpt lat="36.2949633" lon="-5.290895"><ele>0.0</ele><time>2026-04-25T12:16:15.063Z</time></trkpt><trkpt lat="36.2948767" lon="-5.2911833"><ele>0.5</ele><time>2026-04-25T12:16:16.061Z</time></trkpt><trkpt lat="36.2947933" lon="-5.29147"><ele>1.0</ele><time>2026-04-25T12:16:17.061Z</time></trkpt><trkpt lat="36.29471" lon="-5.2917533"><ele>2.0</ele><time>2026-04-25T12:16:18.06Z</time></trkpt><trkpt lat="36.2946267" lon="-5.2920367"><ele>3.0</ele><time>2026-04-25T12:16:19.066Z</time></trkpt><trkpt lat="36.2945433" lon="-5.29232"><ele>3.5</ele><time>2026-04-25T12:16:20.06Z</time></trkpt><trkpt lat="36.2944583" lon="-5.2926017"><ele>4.0</ele><time>2026-04-25T12:16:21.064Z</time></trkpt><trkpt lat="36.29437" lon="-5.292885"><ele>4.5</ele><time>2026-04-25T12:16:22.06Z</time></trkpt><trkpt lat="36.2942833" lon="-5.2931717"><ele>5.0</ele><time>2026-04-25T12:16:23.064Z</time></trkpt><trkpt lat="36.294195" lon="-5.29346"><ele>5.0</ele><time>2026-04-25T12:16:24.063Z</time></trkpt><trkpt lat="36.2941067" lon="-5.29375"><ele>5.0</ele><time>2026-04-25T12:16:25.063Z</time></trkpt><trkpt lat="36.2940183" lon="-5.2940417"><ele>5.0</ele><time>2026-04-25T12:16:26.064Z</time></trkpt><trkpt lat="36.2939283" lon="-5.2943333"><ele>5.0</ele><time>2026-04-25T12:16:27.058Z</time></trkpt><trkpt lat="36.2938383" lon="-5.29463"><ele>5.0</ele><time>2026-04-25T12:16:28.06Z</time></trkpt><trkpt lat="36.2937433" lon="-5.2949333"><ele>5.0</ele><time>2026-04-25T12:16:29.061Z</time></trkpt><trkpt lat="36.293645" lon="-5.2952433"><ele>5.0</ele><time>2026-04-25T12:16:30.06Z</time></trkpt><trkpt lat="36.2935467" lon="-5.2955567"><ele>5.0</ele><time>2026-04-25T12:16:31.057Z</time></trkpt><trkpt lat="36.2934483" lon="-5.2958733"><ele>6.5</ele><time>2026-04-25T12:16:32.061Z</time></trkpt><trkpt lat="36.2933517" lon="-5.2961917"><ele>8.0</ele><time>2026-04-25T12:16:33.065Z</time></trkpt><trkpt lat="36.2932533" lon="-5.29651"><ele>9.5</ele><time>2026-04-25T12:16:34.057Z</time></trkpt><trkpt lat="36.2931583" lon="-5.296835"><ele>11.0</ele><time>2026-04-25T12:16:35.06Z</time></trkpt><trkpt lat="36.2930633" lon="-5.29716"><ele>15.5</ele><time>2026-04-25T12:16:36.062Z</time></trkpt><trkpt lat="36.2929683" lon="-5.297485"><ele>20.0</ele><time>2026-04-25T12:16:37.058Z</time></trkpt><trkpt lat="36.2928733" lon="-5.2978083"><ele>19.5</ele><time>2026-04-25T12:16:38.061Z</time></trkpt><trkpt lat="36.2927783" lon="-5.29813"><ele>19.0</ele><time>2026-04-25T12:16:39.059Z</time></trkpt><trkpt lat="36.2926833" lon="-5.29845"><ele>19.0</ele><time>2026-04-25T12:16:40.06Z</time></trkpt><trkpt lat="36.2925883" lon="-5.2987683"><ele>19.0</ele><time>2026-04-25T12:16:41.062Z</time></trkpt><trkpt lat="36.29249" lon="-5.2990833"><ele>18.0</ele><time>2026-04-25T12:16:42.061Z</time></trkpt><trkpt lat="36.29239" lon="-5.2993967"><ele>17.0</ele><time>2026-04-25T12:16:43.061Z</time></trkpt><trkpt lat="36.2922867" lon="-5.29971"><ele>19.5</ele><time>2026-04-25T12:16:44.059Z</time></trkpt><trkpt lat="36.2921783" lon="-5.3000217"><ele>22.0</ele><time>2026-04-25T12:16:45.063Z</time></trkpt><trkpt lat="36.292065" lon="-5.3003317"><ele>21.5</ele><time>2026-04-25T12:16:46.064Z</time></trkpt><trkpt lat="36.2919483" lon="-5.30064"><ele>21.0</ele><time>2026-04-25T12:16:47.061Z</time></trkpt><trkpt lat="36.2918283" lon="-5.3009483"><ele>21.0</ele><time>2026-04-25T12:16:48.062Z</time></trkpt><trkpt lat="36.29171" lon="-5.3012567"><ele>21.0</ele><time>2026-04-25T12:16:49.064Z</time></trkpt><trkpt lat="36.2915917" lon="-5.301565"><ele>21.5</ele><time>2026-04-25T12:16:50.066Z</time></trkpt><trkpt lat="36.2914717" lon="-5.3018717"><ele>22.0</ele><time>2026-04-25T12:16:51.061Z</time></trkpt><trkpt lat="36.2913517" lon="-5.3021783"><ele>22.5</ele><time>2026-04-25T12:16:52.057Z</time></trkpt><trkpt lat="36.2912333" lon="-5.3024867"><ele>23.0</ele><time>2026-04-25T12:16:53.059Z</time></trkpt><trkpt lat="36.2911183" lon="-5.302795"><ele>23.0</ele><time>2026-04-25T12:16:54.057Z</time></trkpt><trkpt lat="36.291005" lon="-5.3031017"><ele>23.0</ele><time>2026-04-25T12:16:55.06Z</time></trkpt><trkpt lat="36.290895" lon="-5.30341"><ele>23.0</ele><time>2026-04-25T12:16:56.06Z</time></trkpt><trkpt lat="36.2907833" lon="-5.30372"><ele>23.0</ele><time>2026-04-25T12:16:57.06Z</time></trkpt><trkpt lat="36.2906767" lon="-5.3040333"><ele>21.0</ele><time>2026-04-25T12:16:58.057Z</time></trkpt><trkpt lat="36.290565" lon="-5.3043483"><ele>19.0</ele><time>2026-04-25T12:16:59.058Z</time></trkpt><trkpt lat="36.29045" lon="-5.3046683"><ele>19.5</ele><time>2026-04-25T12:17:00.059Z</time></trkpt><trkpt lat="36.2903317" lon="-5.3049867"><ele>20.0</ele><time>2026-04-25T12:17:01.061Z</time></trkpt><trkpt lat="36.2902133" lon="-5.3053083"><ele>20.5</ele><time>2026-04-25T12:17:02.058Z</time></trkpt><trkpt lat="36.290095" lon="-5.305635"><ele>21.0</ele><time>2026-04-25T12:17:03.061Z</time></trkpt><trkpt lat="36.2899783" lon="-5.3059617"><ele>21.0</ele><time>2026-04-25T12:17:04.063Z</time></trkpt><trkpt lat="36.2898617" lon="-5.3062883"><ele>21.0</ele><time>2026-04-25T12:17:05.06Z</time></trkpt><trkpt lat="36.2897417" lon="-5.3066133"><ele>20.5</ele><time>2026-04-25T12:17:06.061Z</time></trkpt><trkpt lat="36.289615" lon="-5.306935"><ele>20.0</ele><time>2026-04-25T12:17:07.061Z</time></trkpt><trkpt lat="36.2894817" lon="-5.3072467"><ele>21.0</ele><time>2026-04-25T12:17:08.063Z</time></trkpt><trkpt lat="36.2893383" lon="-5.3075533"><ele>22.0</ele><time>2026-04-25T12:17:09.059Z</time></trkpt><trkpt lat="36.2891883" lon="-5.3078533"><ele>23.0</ele><time>2026-04-25T12:17:10.07Z</time></trkpt><trkpt lat="36.2890333" lon="-5.3081483"><ele>24.0</ele><time>2026-04-25T12:17:11.063Z</time></trkpt><trkpt lat="36.2888683" lon="-5.30844"><ele>24.5</ele><time>2026-04-25T12:17:12.063Z</time></trkpt><trkpt lat="36.288695" lon="-5.30873"><ele>25.0</ele><time>2026-04-25T12:17:13.059Z</time></trkpt><trkpt lat="36.2885133" lon="-5.3090133"><ele>25.0</ele><time>2026-04-25T12:17:14.061Z</time></trkpt><trkpt lat="36.288325" lon="-5.3092867"><ele>25.0</ele><time>2026-04-25T12:17:15.059Z</time></trkpt><trkpt lat="36.288125" lon="-5.30955"><ele>27.0</ele><time>2026-04-25T12:17:16.062Z</time></trkpt><trkpt lat="36.2879217" lon="-5.3098067"><ele>29.0</ele><time>2026-04-25T12:17:17.063Z</time></trkpt><trkpt lat="36.2877117" lon="-5.310055"><ele>29.0</ele><time>2026-04-25T12:17:18.066Z</time></trkpt><trkpt lat="36.2874967" lon="-5.310295"><ele>29.0</ele><time>2026-04-25T12:17:19.061Z</time></trkpt><trkpt lat="36.287275" lon="-5.3105233"><ele>31.5</ele><time>2026-04-25T12:17:20.058Z</time></trkpt><trkpt lat="36.2870467" lon="-5.3107383"><ele>34.0</ele><time>2026-04-25T12:17:21.057Z</time></trkpt><trkpt lat="36.2868183" lon="-5.3109417"><ele>34.0</ele><time>2026-04-25T12:17:22.059Z</time></trkpt><trkpt lat="36.2865883" lon="-5.31114"><ele>34.0</ele><time>2026-04-25T12:17:23.061Z</time></trkpt><trkpt lat="36.286355" lon="-5.3113267"><ele>35.5</ele><time>2026-04-25T12:17:24.062Z</time></trkpt><trkpt lat="36.28612" lon="-5.3115067"><ele>37.0</ele><time>2026-04-25T12:17:25.061Z</time></trkpt><trkpt lat="36.2858833" lon="-5.3116733"><ele>37.0</ele><time>2026-04-25T12:17:26.061Z</time></trkpt><trkpt lat="36.28564" lon="-5.3118283"><ele>37.0</ele><time>2026-04-25T12:17:27.059Z</time></trkpt><trkpt lat="36.2853933" lon="-5.3119767"><ele>38.0</ele><time>2026-04-25T12:17:28.06Z</time></trkpt><trkpt lat="36.285145" lon="-5.3121183"><ele>39.0</ele><time>2026-04-25T12:17:29.06Z</time></trkpt><trkpt lat="36.2848917" lon="-5.3122517"><ele>42.5</ele><time>2026-04-25T12:17:30.061Z</time></trkpt><trkpt lat="36.2846367" lon="-5.3123767"><ele>46.0</ele><time>2026-04-25T12:17:31.068Z</time></trkpt><trkpt lat="36.2843767" lon="-5.3124883"><ele>46.0</ele><time>2026-04-25T12:17:32.067Z</time></trkpt><trkpt lat="36.28411" lon="-5.3125917"><ele>46.0</ele><time>2026-04-25T12:17:33.06Z</time></trkpt><trkpt lat="36.2838417" lon="-5.3126883"><ele>48.0</ele><time>2026-04-25T12:17:34.062Z</time></trkpt><trkpt lat="36.2835717" lon="-5.3127783"><ele>50.0</ele><time>2026-04-25T12:17:35.063Z</time></trkpt><trkpt lat="36.2833" lon="-5.312865"><ele>52.0</ele><time>2026-04-25T12:17:36.061Z</time></trkpt><trkpt lat="36.2830267" lon="-5.3129533"><ele>54.0</ele><time>2026-04-25T12:17:37.06Z</time></trkpt><trkpt lat="36.2827567" lon="-5.313045"><ele>55.5</ele><time>2026-04-25T12:17:38.06Z</time></trkpt><trkpt lat="36.28249" lon="-5.3131417"><ele>57.0</ele><time>2026-04-25T12:17:39.059Z</time></trkpt><trkpt lat="36.2822233" lon="-5.3132383"><ele>57.5</ele><time>2026-04-25T12:17:40.062Z</time></trkpt><trkpt lat="36.2819583" lon="-5.3133367"><ele>58.0</ele><time>2026-04-25T12:17:41.061Z</time></trkpt><trkpt lat="36.281695" lon="-5.3134333"><ele>58.0</ele><time>2026-04-25T12:17:42.062Z</time></trkpt><trkpt lat="36.281435" lon="-5.3135283"><ele>58.0</ele><time>2026-04-25T12:17:43.059Z</time></trkpt><trkpt lat="36.28118" lon="-5.3136233"><ele>60.0</ele><time>2026-04-25T12:17:44.061Z</time></trkpt><trkpt lat="36.2809317" lon="-5.3137183"><ele>62.0</ele><time>2026-04-25T12:17:45.063Z</time></trkpt><trkpt lat="36.2806867" lon="-5.31381"><ele>62.5</ele><time>2026-04-25T12:17:46.067Z</time></trkpt><trkpt lat="36.2804417" lon="-5.3138967"><ele>63.0</ele><time>2026-04-25T12:17:47.062Z</time></trkpt><trkpt lat="36.2802033" lon="-5.3139833"><ele>65.5</ele><time>2026-04-25T12:17:48.06Z</time></trkpt><trkpt lat="36.2799617" lon="-5.3140733"><ele>68.0</ele><time>2026-04-25T12:17:49.062Z</time></trkpt><trkpt lat="36.2797183" lon="-5.3141717"><ele>68.0</ele><time>2026-04-25T12:17:50.062Z</time></trkpt><trkpt lat="36.2794717" lon="-5.3142883"><ele>68.0</ele><time>2026-04-25T12:17:51.062Z</time></trkpt><trkpt lat="36.27922" lon="-5.31442"><ele>68.0</ele><time>2026-04-25T12:17:52.06Z</time></trkpt><trkpt lat="36.2789633" lon="-5.3145667"><ele>68.0</ele><time>2026-04-25T12:17:53.062Z</time></trkpt><trkpt lat="36.2787033" lon="-5.3147183"><ele>69.0</ele><time>2026-04-25T12:17:54.063Z</time></trkpt><trkpt lat="36.2784367" lon="-5.3148767"><ele>70.0</ele><time>2026-04-25T12:17:55.062Z</time></trkpt><trkpt lat="36.2781667" lon="-5.315035"><ele>71.5</ele><time>2026-04-25T12:17:56.064Z</time></trkpt><trkpt lat="36.2778917" lon="-5.315195"><ele>73.0</ele><time>2026-04-25T12:17:57.061Z</time></trkpt><trkpt lat="36.2776133" lon="-5.315355"><ele>73.0</ele><time>2026-04-25T12:17:58.063Z</time></trkpt><trkpt lat="36.27734" lon="-5.315525"><ele>73.0</ele><time>2026-04-25T12:17:59.065Z</time></trkpt><trkpt lat="36.2770683" lon="-5.3156967"><ele>73.0</ele><time>2026-04-25T12:18:00.061Z</time></trkpt><trkpt lat="36.2767917" lon="-5.315865"><ele>73.0</ele><time>2026-04-25T12:18:01.063Z</time></trkpt><trkpt lat="36.27652" lon="-5.3160367"><ele>74.0</ele><time>2026-04-25T12:18:02.066Z</time></trkpt><trkpt lat="36.27625" lon="-5.316215"><ele>75.0</ele><time>2026-04-25T12:18:03.059Z</time></trkpt><trkpt lat="36.2759817" lon="-5.3163933"><ele>73.5</ele><time>2026-04-25T12:18:04.056Z</time></trkpt><trkpt lat="36.2757133" lon="-5.316565"><ele>72.0</ele><time>2026-04-25T12:18:05.058Z</time></trkpt><trkpt lat="36.2754417" lon="-5.3167283"><ele>72.0</ele><time>2026-04-25T12:18:06.06Z</time></trkpt><trkpt lat="36.2751633" lon="-5.3168783"><ele>72.0</ele><time>2026-04-25T12:18:07.059Z</time></trkpt><trkpt lat="36.2748783" lon="-5.317015"><ele>72.5</ele><time>2026-04-25T12:18:08.062Z</time></trkpt><trkpt lat="36.27459" lon="-5.3171417"><ele>73.0</ele><time>2026-04-25T12:18:09.059Z</time></trkpt><trkpt lat="36.2742967" lon="-5.3172567"><ele>73.0</ele><time>2026-04-25T12:18:10.06Z</time></trkpt><trkpt lat="36.274" lon="-5.3173567"><ele>73.0</ele><time>2026-04-25T12:18:11.061Z</time></trkpt><trkpt lat="36.2737017" lon="-5.31744"><ele>71.5</ele><time>2026-04-25T12:18:12.058Z</time></trkpt><trkpt lat="36.2734017" lon="-5.3175067"><ele>70.0</ele><time>2026-04-25T12:18:13.059Z</time></trkpt><trkpt lat="36.2731033" lon="-5.3175583"><ele>68.0</ele><time>2026-04-25T12:18:14.059Z</time></trkpt><trkpt lat="36.2728033" lon="-5.3175983"><ele>66.0</ele><time>2026-04-25T12:18:15.061Z</time></trkpt><trkpt lat="36.2725033" lon="-5.317625"><ele>63.0</ele><time>2026-04-25T12:18:16.063Z</time></trkpt><trkpt lat="36.2722" lon="-5.3176417"><ele>60.0</ele><time>2026-04-25T12:18:17.059Z</time></trkpt><trkpt lat="36.2718967" lon="-5.317645"><ele>60.0</ele><time>2026-04-25T12:18:18.059Z</time></trkpt><trkpt lat="36.271595" lon="-5.3176367"><ele>60.0</ele><time>2026-04-25T12:18:19.062Z</time></trkpt><trkpt lat="36.2712917" lon="-5.3176117"><ele>56.0</ele><time>2026-04-25T12:18:20.063Z</time></trkpt><trkpt lat="36.2709917" lon="-5.31757"><ele>52.0</ele><time>2026-04-25T12:18:21.062Z</time></trkpt><trkpt lat="36.2706933" lon="-5.3175167"><ele>49.0</ele><time>2026-04-25T12:18:22.062Z</time></trkpt><trkpt lat="36.2704017" lon="-5.31745"><ele>46.0</ele><time>2026-04-25T12:18:23.065Z</time></trkpt><trkpt lat="36.270115" lon="-5.31737"><ele>46.0</ele><time>2026-04-25T12:18:24.064Z</time></trkpt><trkpt lat="36.2698317" lon="-5.3172833"><ele>46.0</ele><time>2026-04-25T12:18:25.062Z</time></trkpt><trkpt lat="36.2695533" lon="-5.3171883"><ele>43.0</ele><time>2026-04-25T12:18:26.067Z</time></trkpt><trkpt lat="36.2692733" lon="-5.3170833"><ele>40.0</ele><time>2026-04-25T12:18:27.061Z</time></trkpt><trkpt lat="36.268995" lon="-5.316975"><ele>38.5</ele><time>2026-04-25T12:18:28.062Z</time></trkpt><trkpt lat="36.2687133" lon="-5.3168733"><ele>37.0</ele><time>2026-04-25T12:18:29.059Z</time></trkpt><trkpt lat="36.268425" lon="-5.316785"><ele>37.0</ele><time>2026-04-25T12:18:30.061Z</time></trkpt><trkpt lat="36.26813" lon="-5.31672"><ele>37.0</ele><time>2026-04-25T12:18:31.058Z</time></trkpt><trkpt lat="36.2678333" lon="-5.3166817"><ele>35.5</ele><time>2026-04-25T12:18:32.061Z</time></trkpt><trkpt lat="36.2675333" lon="-5.3166683"><ele>34.0</ele><time>2026-04-25T12:18:33.06Z</time></trkpt><trkpt lat="36.2672333" lon="-5.3166817"><ele>31.5</ele><time>2026-04-25T12:18:34.06Z</time></trkpt><trkpt lat="36.266935" lon="-5.3167183"><ele>29.0</ele><time>2026-04-25T12:18:35.058Z</time></trkpt><trkpt lat="36.2666383" lon="-5.3167767"><ele>26.5</ele><time>2026-04-25T12:18:36.06Z</time></trkpt><trkpt lat="36.26635" lon="-5.3168617"><ele>24.0</ele><time>2026-04-25T12:18:37.061Z</time></trkpt><trkpt lat="36.2660683" lon="-5.31697"><ele>24.0</ele><time>2026-04-25T12:18:38.063Z</time></trkpt><trkpt lat="36.2657933" lon="-5.3170967"><ele>24.0</ele><time>2026-04-25T12:18:39.06Z</time></trkpt><trkpt lat="36.265525" lon="-5.317245"><ele>23.5</ele><time>2026-04-25T12:18:40.062Z</time></trkpt><trkpt lat="36.265265" lon="-5.3174167"><ele>23.0</ele><time>2026-04-25T12:18:41.062Z</time></trkpt><trkpt lat="36.265015" lon="-5.3176083"><ele>21.0</ele><time>2026-04-25T12:18:42.065Z</time></trkpt><trkpt lat="36.2647783" lon="-5.3178233"><ele>19.0</ele><time>2026-04-25T12:18:43.062Z</time></trkpt><trkpt lat="36.264555" lon="-5.3180567"><ele>19.0</ele><time>2026-04-25T12:18:44.065Z</time></trkpt><trkpt lat="36.264345" lon="-5.3183067"><ele>19.0</ele><time>2026-04-25T12:18:45.062Z</time></trkpt><trkpt lat="36.2641533" lon="-5.318575"><ele>19.0</ele><time>2026-04-25T12:18:46.058Z</time></trkpt><trkpt lat="36.2639783" lon="-5.318855"><ele>19.0</ele><time>2026-04-25T12:18:47.065Z</time></trkpt><trkpt lat="36.2638183" lon="-5.3191483"><ele>26.5</ele><time>2026-04-25T12:18:48.059Z</time></trkpt><trkpt lat="36.2636717" lon="-5.3194483"><ele>34.0</ele><time>2026-04-25T12:18:49.064Z</time></trkpt><trkpt lat="36.2635433" lon="-5.3197517"><ele>36.0</ele><time>2026-04-25T12:18:50.063Z</time></trkpt><trkpt lat="36.26343" lon="-5.320065"><ele>38.0</ele><time>2026-04-25T12:18:51.063Z</time></trkpt><trkpt lat="36.2633317" lon="-5.320385"><ele>41.0</ele><time>2026-04-25T12:18:52.062Z</time></trkpt><trkpt lat="36.2632467" lon="-5.3207117"><ele>44.0</ele><time>2026-04-25T12:18:53.059Z</time></trkpt><trkpt lat="36.2631733" lon="-5.321045"><ele>44.0</ele><time>2026-04-25T12:18:54.06Z</time></trkpt><trkpt lat="36.2631167" lon="-5.3213883"><ele>44.0</ele><time>2026-04-25T12:18:55.06Z</time></trkpt><trkpt lat="36.2630717" lon="-5.321735"><ele>42.5</ele><time>2026-04-25T12:18:56.061Z</time></trkpt><trkpt lat="36.2630367" lon="-5.322085"><ele>41.0</ele><time>2026-04-25T12:18:57.058Z</time></trkpt><trkpt lat="36.2629967" lon="-5.3224383"><ele>44.0</ele><time>2026-04-25T12:18:58.064Z</time></trkpt><trkpt lat="36.2629517" lon="-5.32279"><ele>47.0</ele><time>2026-04-25T12:18:59.059Z</time></trkpt><trkpt lat="36.2629017" lon="-5.3231433"><ele>49.5</ele><time>2026-04-25T12:19:00.06Z</time></trkpt><trkpt lat="36.2628483" lon="-5.3234933"><ele>52.0</ele><time>2026-04-25T12:19:01.061Z</time></trkpt><trkpt lat="36.2627917" lon="-5.3238383"><ele>56.0</ele><time>2026-04-25T12:19:02.061Z</time></trkpt><trkpt lat="36.26273" lon="-5.3241817"><ele>60.0</ele><time>2026-04-25T12:19:03.06Z</time></trkpt><trkpt lat="36.2626667" lon="-5.3245217"><ele>61.5</ele><time>2026-04-25T12:19:04.06Z</time></trkpt><trkpt lat="36.2625933" lon="-5.3248617"><ele>63.0</ele><time>2026-04-25T12:19:05.064Z</time></trkpt><trkpt lat="36.2625133" lon="-5.3252"><ele>63.0</ele><time>2026-04-25T12:19:06.059Z</time></trkpt><trkpt lat="36.2624283" lon="-5.3255333"><ele>63.0</ele><time>2026-04-25T12:19:07.066Z</time></trkpt><trkpt lat="36.2623383" lon="-5.3258617"><ele>70.0</ele><time>2026-04-25T12:19:08.062Z</time></trkpt><trkpt lat="36.2622417" lon="-5.3261867"><ele>77.0</ele><time>2026-04-25T12:19:09.065Z</time></trkpt><trkpt lat="36.26214" lon="-5.32651"><ele>77.5</ele><time>2026-04-25T12:19:10.059Z</time></trkpt><trkpt lat="36.26203" lon="-5.32683"><ele>78.0</ele><time>2026-04-25T12:19:11.063Z</time></trkpt><trkpt lat="36.2619167" lon="-5.3271517"><ele>76.5</ele><time>2026-04-25T12:19:12.06Z</time></trkpt><trkpt lat="36.2617983" lon="-5.3274733"><ele>75.0</ele><time>2026-04-25T12:19:13.061Z</time></trkpt><trkpt lat="36.261675" lon="-5.3277917"><ele>75.5</ele><time>2026-04-25T12:19:14.06Z</time></trkpt><trkpt lat="36.2615433" lon="-5.3281067"><ele>76.0</ele><time>2026-04-25T12:19:15.06Z</time></trkpt><trkpt lat="36.261405" lon="-5.3284183"><ele>76.0</ele><time>2026-04-25T12:19:16.061Z</time></trkpt><trkpt lat="36.2612617" lon="-5.3287317"><ele>76.0</ele><time>2026-04-25T12:19:17.063Z</time></trkpt><trkpt lat="36.2611117" lon="-5.3290467"><ele>76.0</ele><time>2026-04-25T12:19:18.061Z</time></trkpt><trkpt lat="36.260955" lon="-5.3293567"><ele>76.0</ele><time>2026-04-25T12:19:19.061Z</time></trkpt><trkpt lat="36.2607933" lon="-5.3296683"><ele>75.0</ele><time>2026-04-25T12:19:20.063Z</time></trkpt><trkpt lat="36.26063" lon="-5.32998"><ele>74.0</ele><time>2026-04-25T12:19:21.061Z</time></trkpt><trkpt lat="36.2604633" lon="-5.3302917"><ele>71.5</ele><time>2026-04-25T12:19:22.058Z</time></trkpt><trkpt lat="36.260295" lon="-5.3306017"><ele>69.0</ele><time>2026-04-25T12:19:23.061Z</time></trkpt><trkpt lat="36.2601267" lon="-5.3309067"><ele>69.0</ele><time>2026-04-25T12:19:24.061Z</time></trkpt><trkpt lat="36.2599583" lon="-5.33121"><ele>69.0</ele><time>2026-04-25T12:19:25.06Z</time></trkpt><trkpt lat="36.2597867" lon="-5.3315083"><ele>68.5</ele><time>2026-04-25T12:19:26.06Z</time></trkpt><trkpt lat="36.259615" lon="-5.3318033"><ele>68.0</ele><time>2026-04-25T12:19:27.062Z</time></trkpt><trkpt lat="36.259445" lon="-5.332095"><ele>72.0</ele><time>2026-04-25T12:19:28.061Z</time></trkpt><trkpt lat="36.2592767" lon="-5.332385"><ele>76.0</ele><time>2026-04-25T12:19:29.062Z</time></trkpt><trkpt lat="36.2591067" lon="-5.3326767"><ele>83.5</ele><time>2026-04-25T12:19:30.058Z</time></trkpt><trkpt lat="36.2589383" lon="-5.3329667"><ele>91.0</ele><time>2026-04-25T12:19:31.06Z</time></trkpt><trkpt lat="36.2587683" lon="-5.3332583"><ele>93.5</ele><time>2026-04-25T12:19:32.067Z</time></trkpt><trkpt lat="36.2586033" lon="-5.3335483"><ele>96.0</ele><time>2026-04-25T12:19:33.062Z</time></trkpt><trkpt lat="36.2584383" lon="-5.3338383"><ele>93.5</ele><time>2026-04-25T12:19:34.062Z</time></trkpt><trkpt lat="36.2582783" lon="-5.3341283"><ele>91.0</ele><time>2026-04-25T12:19:35.061Z</time></trkpt><trkpt lat="36.258115" lon="-5.3344183"><ele>95.0</ele><time>2026-04-25T12:19:36.065Z</time></trkpt><trkpt lat="36.2579517" lon="-5.3347083"><ele>99.0</ele><time>2026-04-25T12:19:37.066Z</time></trkpt><trkpt lat="36.2577883" lon="-5.3349967"><ele>99.0</ele><time>2026-04-25T12:19:38.071Z</time></trkpt><trkpt lat="36.2576233" lon="-5.3352833"><ele>99.0</ele><time>2026-04-25T12:19:39.061Z</time></trkpt><trkpt lat="36.25746" lon="-5.3355717"><ele>101.0</ele><time>2026-04-25T12:19:40.06Z</time></trkpt><trkpt lat="36.2572983" lon="-5.3358633"><ele>103.0</ele><time>2026-04-25T12:19:41.062Z</time></trkpt><trkpt lat="36.2571367" lon="-5.3361517"><ele>103.0</ele><time>2026-04-25T12:19:42.061Z</time></trkpt><trkpt lat="36.2569767" lon="-5.3364383"><ele>103.0</ele><time>2026-04-25T12:19:43.062Z</time></trkpt><trkpt lat="36.25682" lon="-5.3367183"><ele>103.0</ele><time>2026-04-25T12:19:44.061Z</time></trkpt><trkpt lat="36.2566683" lon="-5.3369867"><ele>103.0</ele><time>2026-04-25T12:19:45.061Z</time></trkpt><trkpt lat="36.256515" lon="-5.3372433"><ele>107.5</ele><time>2026-04-25T12:19:46.06Z</time></trkpt><trkpt lat="36.2563617" lon="-5.3374883"><ele>112.0</ele><time>2026-04-25T12:19:47.062Z</time></trkpt><trkpt lat="36.2562033" lon="-5.3377183"><ele>112.0</ele><time>2026-04-25T12:19:48.063Z</time></trkpt><trkpt lat="36.25604" lon="-5.3379383"><ele>112.0</ele><time>2026-04-25T12:19:49.059Z</time></trkpt><trkpt lat="36.2558617" lon="-5.3381433"><ele>111.0</ele><time>2026-04-25T12:19:50.06Z</time></trkpt><trkpt lat="36.2556733" lon="-5.3383383"><ele>110.0</ele><time>2026-04-25T12:19:51.061Z</time></trkpt><trkpt lat="36.255465" lon="-5.3385283"><ele>114.0</ele><time>2026-04-25T12:19:52.06Z</time></trkpt><trkpt lat="36.2552433" lon="-5.3387083"><ele>118.0</ele><time>2026-04-25T12:19:53.062Z</time></trkpt><trkpt lat="36.2550067" lon="-5.3388783"><ele>117.0</ele><time>2026-04-25T12:19:54.06Z</time></trkpt><trkpt lat="36.2547567" lon="-5.339035"><ele>116.0</ele><time>2026-04-25T12:19:55.059Z</time></trkpt><trkpt lat="36.25449" lon="-5.3391767"><ele>116.0</ele><time>2026-04-25T12:19:56.067Z</time></trkpt><trkpt lat="36.2542167" lon="-5.3393"><ele>116.0</ele><time>2026-04-25T12:19:57.061Z</time></trkpt><trkpt lat="36.2539333" lon="-5.339405"><ele>114.5</ele><time>2026-04-25T12:19:58.062Z</time></trkpt><trkpt lat="36.253645" lon="-5.3394867"><ele>113.0</ele><time>2026-04-25T12:19:59.063Z</time></trkpt><trkpt lat="36.2533483" lon="-5.3395417"><ele>111.0</ele><time>2026-04-25T12:20:00.06Z</time></trkpt><trkpt lat="36.2530533" lon="-5.3395717"><ele>109.0</ele><time>2026-04-25T12:20:01.064Z</time></trkpt><trkpt lat="36.252755" lon="-5.3395817"><ele>109.0</ele><time>2026-04-25T12:20:02.062Z</time></trkpt><trkpt lat="36.2524583" lon="-5.3395683"><ele>109.0</ele><time>2026-04-25T12:20:03.062Z</time></trkpt><trkpt lat="36.25216" lon="-5.3395317"><ele>108.5</ele><time>2026-04-25T12:20:04.058Z</time></trkpt><trkpt lat="36.2518617" lon="-5.3394717"><ele>108.0</ele><time>2026-04-25T12:20:05.058Z</time></trkpt><trkpt lat="36.2515667" lon="-5.3393867"><ele>109.5</ele><time>2026-04-25T12:20:06.063Z</time></trkpt><trkpt lat="36.251275" lon="-5.3392733"><ele>111.0</ele><time>2026-04-25T12:20:07.058Z</time></trkpt><trkpt lat="36.2509933" lon="-5.3391383"><ele>111.0</ele><time>2026-04-25T12:20:08.064Z</time></trkpt><trkpt lat="36.2507167" lon="-5.338985"><ele>111.0</ele><time>2026-04-25T12:20:09.058Z</time></trkpt><trkpt lat="36.2504433" lon="-5.33883"><ele>111.0</ele><time>2026-04-25T12:20:10.058Z</time></trkpt><trkpt lat="36.2501667" lon="-5.33868"><ele>111.0</ele><time>2026-04-25T12:20:11.061Z</time></trkpt><trkpt lat="36.24989" lon="-5.3385417"><ele>113.5</ele><time>2026-04-25T12:20:12.06Z</time></trkpt><trkpt lat="36.249605" lon="-5.3384217"><ele>116.0</ele><time>2026-04-25T12:20:13.059Z</time></trkpt><trkpt lat="36.249315" lon="-5.3383167"><ele>116.0</ele><time>2026-04-25T12:20:14.06Z</time></trkpt><trkpt lat="36.2490183" lon="-5.33823"><ele>116.0</ele><time>2026-04-25T12:20:15.062Z</time></trkpt><trkpt lat="36.2487183" lon="-5.3381633"><ele>118.0</ele><time>2026-04-25T12:20:16.061Z</time></trkpt><trkpt lat="36.248415" lon="-5.338115"><ele>120.0</ele><time>2026-04-25T12:20:17.062Z</time></trkpt><trkpt lat="36.2481067" lon="-5.3380817"><ele>121.0</ele><time>2026-04-25T12:20:18.061Z</time></trkpt><trkpt lat="36.247795" lon="-5.3380717"><ele>122.0</ele><time>2026-04-25T12:20:19.066Z</time></trkpt><trkpt lat="36.247485" lon="-5.338085"><ele>121.5</ele><time>2026-04-25T12:20:20.064Z</time></trkpt><trkpt lat="36.2471733" lon="-5.33812"><ele>121.0</ele><time>2026-04-25T12:20:21.062Z</time></trkpt><trkpt lat="36.2468633" lon="-5.33818"><ele>121.0</ele><time>2026-04-25T12:20:22.058Z</time></trkpt><trkpt lat="36.2465533" lon="-5.3382617"><ele>121.0</ele><time>2026-04-25T12:20:23.063Z</time></trkpt><trkpt lat="36.246245" lon="-5.338365"><ele>120.5</ele><time>2026-04-25T12:20:24.06Z</time></trkpt><trkpt lat="36.2459433" lon="-5.3384933"><ele>120.0</ele><time>2026-04-25T12:20:25.064Z</time></trkpt><trkpt lat="36.2456517" lon="-5.33865"><ele>123.0</ele><time>2026-04-25T12:20:26.075Z</time></trkpt><trkpt lat="36.245365" lon="-5.3388233"><ele>126.0</ele><time>2026-04-25T12:20:27.061Z</time></trkpt><trkpt lat="36.245085" lon="-5.3390183"><ele>127.0</ele><time>2026-04-25T12:20:28.064Z</time></trkpt><trkpt lat="36.2448083" lon="-5.3392183"><ele>128.0</ele><time>2026-04-25T12:20:29.063Z</time></trkpt><trkpt lat="36.2445317" lon="-5.339425"><ele>129.5</ele><time>2026-04-25T12:20:30.061Z</time></trkpt><trkpt lat="36.244255" lon="-5.33963"><ele>131.0</ele><time>2026-04-25T12:20:31.062Z</time></trkpt><trkpt lat="36.2439767" lon="-5.33983"><ele>132.0</ele><time>2026-04-25T12:20:32.061Z</time></trkpt><trkpt lat="36.2436967" lon="-5.3400283"><ele>133.0</ele><time>2026-04-25T12:20:33.059Z</time></trkpt><trkpt lat="36.2434167" lon="-5.340225"><ele>133.0</ele><time>2026-04-25T12:20:34.059Z</time></trkpt><trkpt lat="36.2431383" lon="-5.3404217"><ele>133.0</ele><time>2026-04-25T12:20:35.06Z</time></trkpt><trkpt lat="36.24286" lon="-5.34062"><ele>137.5</ele><time>2026-04-25T12:20:36.061Z</time></trkpt><trkpt lat="36.24258" lon="-5.340815"><ele>142.0</ele><time>2026-04-25T12:20:37.059Z</time></trkpt><trkpt lat="36.2423033" lon="-5.3410083"><ele>140.5</ele><time>2026-04-25T12:20:38.06Z</time></trkpt><trkpt lat="36.242025" lon="-5.3411917"><ele>139.0</ele><time>2026-04-25T12:20:39.058Z</time></trkpt><trkpt lat="36.241745" lon="-5.341365"><ele>142.0</ele><time>2026-04-25T12:20:40.06Z</time></trkpt><trkpt lat="36.24146" lon="-5.34153"><ele>145.0</ele><time>2026-04-25T12:20:41.059Z</time></trkpt><trkpt lat="36.241175" lon="-5.34169"><ele>145.0</ele><time>2026-04-25T12:20:42.063Z</time></trkpt><trkpt lat="36.24089" lon="-5.3418467"><ele>145.0</ele><time>2026-04-25T12:20:43.064Z</time></trkpt><trkpt lat="36.2406067" lon="-5.3419983"><ele>147.0</ele><time>2026-04-25T12:20:44.061Z</time></trkpt><trkpt lat="36.2403217" lon="-5.3421383"><ele>149.0</ele><time>2026-04-25T12:20:45.058Z</time></trkpt><trkpt lat="36.240035" lon="-5.3422783"><ele>149.0</ele><time>2026-04-25T12:20:46.058Z</time></trkpt><trkpt lat="36.2397483" lon="-5.3424217"><ele>149.0</ele><time>2026-04-25T12:20:47.061Z</time></trkpt><trkpt lat="36.2394667" lon="-5.3425717"><ele>149.0</ele><time>2026-04-25T12:20:48.064Z</time></trkpt><trkpt lat="36.2391867" lon="-5.342725"><ele>149.0</ele><time>2026-04-25T12:20:49.063Z</time></trkpt><trkpt lat="36.238915" lon="-5.3428883"><ele>150.0</ele><time>2026-04-25T12:20:50.063Z</time></trkpt><trkpt lat="36.2386483" lon="-5.3430583"><ele>151.0</ele><time>2026-04-25T12:20:51.057Z</time></trkpt><trkpt lat="36.238385" lon="-5.3432367"><ele>151.5</ele><time>2026-04-25T12:20:52.061Z</time></trkpt><trkpt lat="36.2381233" lon="-5.3434217"><ele>152.0</ele><time>2026-04-25T12:20:53.057Z</time></trkpt><trkpt lat="36.2378667" lon="-5.3436217"><ele>152.0</ele><time>2026-04-25T12:20:54.063Z</time></trkpt><trkpt lat="36.237615" lon="-5.34384"><ele>152.0</ele><time>2026-04-25T12:20:55.057Z</time></trkpt><trkpt lat="36.23737" lon="-5.344075"><ele>154.0</ele><time>2026-04-25T12:20:56.059Z</time></trkpt><trkpt lat="36.23713" lon="-5.3443233"><ele>156.0</ele><time>2026-04-25T12:20:57.06Z</time></trkpt><trkpt lat="36.2368983" lon="-5.34458"><ele>157.0</ele><time>2026-04-25T12:20:58.065Z</time></trkpt><trkpt lat="36.23667" lon="-5.3448433"><ele>158.0</ele><time>2026-04-25T12:20:59.059Z</time></trkpt><trkpt lat="36.236445" lon="-5.3451117"><ele>158.0</ele><time>2026-04-25T12:21:00.059Z</time></trkpt><trkpt lat="36.2362183" lon="-5.34538"><ele>158.0</ele><time>2026-04-25T12:21:01.061Z</time></trkpt><trkpt lat="36.2359917" lon="-5.34565"><ele>156.5</ele><time>2026-04-25T12:21:02.062Z</time></trkpt><trkpt lat="36.235765" lon="-5.3459167"><ele>155.0</ele><time>2026-04-25T12:21:03.063Z</time></trkpt><trkpt lat="36.235535" lon="-5.34618"><ele>156.5</ele><time>2026-04-25T12:21:04.061Z</time></trkpt><trkpt lat="36.2353083" lon="-5.3464417"><ele>158.0</ele><time>2026-04-25T12:21:05.061Z</time></trkpt><trkpt lat="36.2350833" lon="-5.3467017"><ele>158.0</ele><time>2026-04-25T12:21:06.061Z</time></trkpt><trkpt lat="36.2348567" lon="-5.3469583"><ele>158.0</ele><time>2026-04-25T12:21:07.062Z</time></trkpt><trkpt lat="36.2346283" lon="-5.3472133"><ele>157.0</ele><time>2026-04-25T12:21:08.065Z</time></trkpt><trkpt lat="36.2344" lon="-5.3474717"><ele>156.0</ele><time>2026-04-25T12:21:09.063Z</time></trkpt><trkpt lat="36.23417" lon="-5.3477333"><ele>156.5</ele><time>2026-04-25T12:21:10.062Z</time></trkpt><trkpt lat="36.2339433" lon="-5.3479967"><ele>157.0</ele><time>2026-04-25T12:21:11.062Z</time></trkpt><trkpt lat="36.23372" lon="-5.3482583"><ele>154.5</ele><time>2026-04-25T12:21:12.062Z</time></trkpt><trkpt lat="36.2334983" lon="-5.3485183"><ele>152.0</ele><time>2026-04-25T12:21:13.063Z</time></trkpt><trkpt lat="36.2332817" lon="-5.3487833"><ele>152.5</ele><time>2026-04-25T12:21:14.065Z</time></trkpt><trkpt lat="36.233075" lon="-5.3490617"><ele>153.0</ele><time>2026-04-25T12:21:15.061Z</time></trkpt><trkpt lat="36.232875" lon="-5.3493483"><ele>153.0</ele><time>2026-04-25T12:21:16.061Z</time></trkpt><trkpt lat="36.2326867" lon="-5.34964"><ele>153.0</ele><time>2026-04-25T12:21:17.065Z</time></trkpt><trkpt lat="36.232505" lon="-5.34994"><ele>150.0</ele><time>2026-04-25T12:21:18.064Z</time></trkpt><trkpt lat="36.2323283" lon="-5.350245"><ele>147.0</ele><time>2026-04-25T12:21:19.065Z</time></trkpt><trkpt lat="36.2321583" lon="-5.3505567"><ele>147.0</ele><time>2026-04-25T12:21:20.06Z</time></trkpt><trkpt lat="36.2319933" lon="-5.3508733"><ele>147.0</ele><time>2026-04-25T12:21:21.06Z</time></trkpt><trkpt lat="36.2318317" lon="-5.3511967"><ele>145.0</ele><time>2026-04-25T12:21:22.058Z</time></trkpt><trkpt lat="36.2316733" lon="-5.3515267"><ele>143.0</ele><time>2026-04-25T12:21:23.062Z</time></trkpt><trkpt lat="36.231515" lon="-5.35186"><ele>145.0</ele><time>2026-04-25T12:21:24.059Z</time></trkpt><trkpt lat="36.231355" lon="-5.3521917"><ele>147.0</ele><time>2026-04-25T12:21:25.058Z</time></trkpt><trkpt lat="36.2311967" lon="-5.352525"><ele>147.0</ele><time>2026-04-25T12:21:26.06Z</time></trkpt><trkpt lat="36.23104" lon="-5.352855"><ele>147.0</ele><time>2026-04-25T12:21:27.06Z</time></trkpt><trkpt lat="36.230885" lon="-5.353185"><ele>146.0</ele><time>2026-04-25T12:21:28.059Z</time></trkpt><trkpt lat="36.23073" lon="-5.3535117"><ele>145.0</ele><time>2026-04-25T12:21:29.067Z</time></trkpt><trkpt lat="36.2305733" lon="-5.353835"><ele>146.0</ele><time>2026-04-25T12:21:30.062Z</time></trkpt><trkpt lat="36.2304167" lon="-5.3541567"><ele>147.0</ele><time>2026-04-25T12:21:31.066Z</time></trkpt><trkpt lat="36.2302583" lon="-5.3544733"><ele>144.0</ele><time>2026-04-25T12:21:32.072Z</time></trkpt><trkpt lat="36.2301" lon="-5.3547933"><ele>141.0</ele><time>2026-04-25T12:21:33.064Z</time></trkpt><trkpt lat="36.22994" lon="-5.3551183"><ele>141.0</ele><time>2026-04-25T12:21:34.062Z</time></trkpt><trkpt lat="36.2297817" lon="-5.3554433"><ele>141.0</ele><time>2026-04-25T12:21:35.068Z</time></trkpt><trkpt lat="36.2296233" lon="-5.3557717"><ele>141.0</ele><time>2026-04-25T12:21:36.06Z</time></trkpt><trkpt lat="36.2294633" lon="-5.3560983"><ele>141.0</ele><time>2026-04-25T12:21:37.058Z</time></trkpt><trkpt lat="36.2293017" lon="-5.3564267"><ele>138.5</ele><time>2026-04-25T12:21:38.072Z</time></trkpt><trkpt lat="36.2291433" lon="-5.3567567"><ele>136.0</ele><time>2026-04-25T12:21:39.06Z</time></trkpt><trkpt lat="36.2289867" lon="-5.35708"><ele>135.5</ele><time>2026-04-25T12:21:40.061Z</time></trkpt><trkpt lat="36.2288317" lon="-5.3574033"><ele>135.0</ele><time>2026-04-25T12:21:41.062Z</time></trkpt><trkpt lat="36.22868" lon="-5.357725"><ele>131.5</ele><time>2026-04-25T12:21:42.065Z</time></trkpt><trkpt lat="36.2285317" lon="-5.358045"><ele>128.0</ele><time>2026-04-25T12:21:43.062Z</time></trkpt><trkpt lat="36.2283933" lon="-5.3583717"><ele>128.0</ele><time>2026-04-25T12:21:44.065Z</time></trkpt><trkpt lat="36.228265" lon="-5.3587"><ele>128.0</ele><time>2026-04-25T12:21:45.06Z</time></trkpt><trkpt lat="36.228155" lon="-5.3590367"><ele>125.0</ele><time>2026-04-25T12:21:46.061Z</time></trkpt><trkpt lat="36.2280617" lon="-5.35938"><ele>122.0</ele><time>2026-04-25T12:21:47.061Z</time></trkpt><trkpt lat="36.2279833" lon="-5.35973"><ele>122.0</ele><time>2026-04-25T12:21:48.06Z</time></trkpt><trkpt lat="36.2279217" lon="-5.36008"><ele>122.0</ele><time>2026-04-25T12:21:49.059Z</time></trkpt><trkpt lat="36.2278733" lon="-5.3604317"><ele>127.0</ele><time>2026-04-25T12:21:50.062Z</time></trkpt><trkpt lat="36.22784" lon="-5.3607833"><ele>132.0</ele><time>2026-04-25T12:21:51.061Z</time></trkpt><trkpt lat="36.22782" lon="-5.3611367"><ele>132.5</ele><time>2026-04-25T12:21:52.061Z</time></trkpt><trkpt lat="36.22781" lon="-5.36149"><ele>133.0</ele><time>2026-04-25T12:21:53.063Z</time></trkpt><trkpt lat="36.2278117" lon="-5.3618433"><ele>133.0</ele><time>2026-04-25T12:21:54.062Z</time></trkpt><trkpt lat="36.2278133" lon="-5.3621983"><ele>133.0</ele><time>2026-04-25T12:21:55.072Z</time></trkpt><trkpt lat="36.2278083" lon="-5.3625517"><ele>133.0</ele><time>2026-04-25T12:21:56.064Z</time></trkpt><trkpt lat="36.22779" lon="-5.3629067"><ele>133.0</ele><time>2026-04-25T12:21:57.063Z</time></trkpt><trkpt lat="36.227755" lon="-5.3632617"><ele>130.5</ele><time>2026-04-25T12:21:58.061Z</time></trkpt><trkpt lat="36.2277083" lon="-5.3636133"><ele>128.0</ele><time>2026-04-25T12:21:59.063Z</time></trkpt><trkpt lat="36.22765" lon="-5.3639633"><ele>128.0</ele><time>2026-04-25T12:22:00.062Z</time></trkpt><trkpt lat="36.2275783" lon="-5.3643067"><ele>128.0</ele><time>2026-04-25T12:22:01.065Z</time></trkpt><trkpt lat="36.22749" lon="-5.3646483"><ele>127.5</ele><time>2026-04-25T12:22:02.066Z</time></trkpt><trkpt lat="36.227385" lon="-5.3649833"><ele>127.0</ele><time>2026-04-25T12:22:03.064Z</time></trkpt><trkpt lat="36.2272617" lon="-5.3653117"><ele>121.5</ele><time>2026-04-25T12:22:04.06Z</time></trkpt><trkpt lat="36.2271283" lon="-5.3656317"><ele>116.0</ele><time>2026-04-25T12:22:05.061Z</time></trkpt><trkpt lat="36.2269767" lon="-5.3659433"><ele>116.0</ele><time>2026-04-25T12:22:06.061Z</time></trkpt><trkpt lat="36.2268117" lon="-5.3662433"><ele>116.0</ele><time>2026-04-25T12:22:07.058Z</time></trkpt><trkpt lat="36.2266333" lon="-5.366535"><ele>111.5</ele><time>2026-04-25T12:22:08.062Z</time></trkpt><trkpt lat="36.226435" lon="-5.3668117"><ele>107.0</ele><time>2026-04-25T12:22:09.06Z</time></trkpt><trkpt lat="36.22622" lon="-5.36708"><ele>110.0</ele><time>2026-04-25T12:22:10.06Z</time></trkpt><trkpt lat="36.2259983" lon="-5.36734"><ele>113.0</ele><time>2026-04-25T12:22:11.06Z</time></trkpt><trkpt lat="36.2257767" lon="-5.3676017"><ele>111.0</ele><time>2026-04-25T12:22:12.061Z</time></trkpt><trkpt lat="36.2255483" lon="-5.3678617"><ele>109.0</ele><time>2026-04-25T12:22:13.06Z</time></trkpt><trkpt lat="36.2253217" lon="-5.368125"><ele>109.0</ele><time>2026-04-25T12:22:14.063Z</time></trkpt><trkpt lat="36.225095" lon="-5.3683867"><ele>109.0</ele><time>2026-04-25T12:22:15.061Z</time></trkpt><trkpt lat="36.2248683" lon="-5.3686483"><ele>104.0</ele><time>2026-04-25T12:22:16.062Z</time></trkpt><trkpt lat="36.22464" lon="-5.3689117"><ele>99.0</ele><time>2026-04-25T12:22:17.061Z</time></trkpt><trkpt lat="36.224415" lon="-5.369175"><ele>99.0</ele><time>2026-04-25T12:22:18.062Z</time></trkpt><trkpt lat="36.2241883" lon="-5.3694367"><ele>99.0</ele><time>2026-04-25T12:22:19.061Z</time></trkpt><trkpt lat="36.2239633" lon="-5.3697"><ele>95.5</ele><time>2026-04-25T12:22:20.062Z</time></trkpt><trkpt lat="36.223735" lon="-5.3699617"><ele>92.0</ele><time>2026-04-25T12:22:21.064Z</time></trkpt><trkpt lat="36.2235067" lon="-5.3702217"><ele>92.0</ele><time>2026-04-25T12:22:22.061Z</time></trkpt><trkpt lat="36.2232783" lon="-5.370485"><ele>92.0</ele><time>2026-04-25T12:22:23.062Z</time></trkpt><trkpt lat="36.2230517" lon="-5.37075"><ele>90.5</ele><time>2026-04-25T12:22:24.063Z</time></trkpt><trkpt lat="36.2228267" lon="-5.371015"><ele>89.0</ele><time>2026-04-25T12:22:25.065Z</time></trkpt><trkpt lat="36.2226" lon="-5.3712817"><ele>87.0</ele><time>2026-04-25T12:22:26.068Z</time></trkpt><trkpt lat="36.2223733" lon="-5.3715483"><ele>85.0</ele><time>2026-04-25T12:22:27.064Z</time></trkpt><trkpt lat="36.2221433" lon="-5.3718183"><ele>85.0</ele><time>2026-04-25T12:22:28.061Z</time></trkpt><trkpt lat="36.2219133" lon="-5.3720883"><ele>85.0</ele><time>2026-04-25T12:22:29.062Z</time></trkpt><trkpt lat="36.2216917" lon="-5.372365"><ele>83.0</ele><time>2026-04-25T12:22:30.061Z</time></trkpt><trkpt lat="36.2214783" lon="-5.3726483"><ele>81.0</ele><time>2026-04-25T12:22:31.06Z</time></trkpt><trkpt lat="36.22127" lon="-5.3729383"><ele>86.0</ele><time>2026-04-25T12:22:32.06Z</time></trkpt><trkpt lat="36.221065" lon="-5.3732333"><ele>91.0</ele><time>2026-04-25T12:22:33.062Z</time></trkpt><trkpt lat="36.2208667" lon="-5.3735317"><ele>91.0</ele><time>2026-04-25T12:22:34.059Z</time></trkpt><trkpt lat="36.22067" lon="-5.3738333"><ele>91.0</ele><time>2026-04-25T12:22:35.06Z</time></trkpt><trkpt lat="36.2204767" lon="-5.3741383"><ele>89.0</ele><time>2026-04-25T12:22:36.062Z</time></trkpt><trkpt lat="36.2202833" lon="-5.3744433"><ele>87.0</ele><time>2026-04-25T12:22:37.061Z</time></trkpt><trkpt lat="36.220085" lon="-5.3747467"><ele>90.0</ele><time>2026-04-25T12:22:38.059Z</time></trkpt><trkpt lat="36.2198867" lon="-5.3750483"><ele>93.0</ele><time>2026-04-25T12:22:39.063Z</time></trkpt><trkpt lat="36.2196817" lon="-5.375345"><ele>94.5</ele><time>2026-04-25T12:22:40.061Z</time></trkpt><trkpt lat="36.21947" lon="-5.3756317"><ele>96.0</ele><time>2026-04-25T12:22:41.06Z</time></trkpt><trkpt lat="36.2192533" lon="-5.3759033"><ele>96.0</ele><time>2026-04-25T12:22:42.061Z</time></trkpt><trkpt lat="36.2190383" lon="-5.37616"><ele>96.0</ele><time>2026-04-25T12:22:43.062Z</time></trkpt><trkpt lat="36.21882" lon="-5.3764033"><ele>98.5</ele><time>2026-04-25T12:22:44.061Z</time></trkpt><trkpt lat="36.218595" lon="-5.3766333"><ele>101.0</ele><time>2026-04-25T12:22:45.063Z</time></trkpt><trkpt lat="36.2183633" lon="-5.3768567"><ele>101.5</ele><time>2026-04-25T12:22:46.065Z</time></trkpt><trkpt lat="36.21813" lon="-5.377075"><ele>102.0</ele><time>2026-04-25T12:22:47.063Z</time></trkpt><trkpt lat="36.2178917" lon="-5.37728"><ele>98.5</ele><time>2026-04-25T12:22:48.061Z</time></trkpt><trkpt lat="36.21765" lon="-5.37747"><ele>95.0</ele><time>2026-04-25T12:22:49.06Z</time></trkpt><trkpt lat="36.217405" lon="-5.3776483"><ele>100.5</ele><time>2026-04-25T12:22:50.061Z</time></trkpt><trkpt lat="36.2171583" lon="-5.377815"><ele>106.0</ele><time>2026-04-25T12:22:51.066Z</time></trkpt><trkpt lat="36.21691" lon="-5.3779717"><ele>99.5</ele><time>2026-04-25T12:22:52.061Z</time></trkpt><trkpt lat="36.216655" lon="-5.3781183"><ele>93.0</ele><time>2026-04-25T12:22:53.062Z</time></trkpt><trkpt lat="36.216395" lon="-5.3782533"><ele>93.0</ele><time>2026-04-25T12:22:54.061Z</time></trkpt><trkpt lat="36.21613" lon="-5.37838"><ele>93.0</ele><time>2026-04-25T12:22:55.059Z</time></trkpt><trkpt lat="36.2158567" lon="-5.378495"><ele>91.0</ele><time>2026-04-25T12:22:56.063Z</time></trkpt><trkpt lat="36.2155817" lon="-5.3786067"><ele>89.0</ele><time>2026-04-25T12:22:57.062Z</time></trkpt><trkpt lat="36.215305" lon="-5.3787183"><ele>89.0</ele><time>2026-04-25T12:22:58.06Z</time></trkpt><trkpt lat="36.21503" lon="-5.3788283"><ele>89.0</ele><time>2026-04-25T12:22:59.06Z</time></trkpt><trkpt lat="36.2147583" lon="-5.3789433"><ele>86.5</ele><time>2026-04-25T12:23:00.06Z</time></trkpt><trkpt lat="36.214485" lon="-5.37906"><ele>84.0</ele><time>2026-04-25T12:23:01.06Z</time></trkpt><trkpt lat="36.2142133" lon="-5.3791783"><ele>82.5</ele><time>2026-04-25T12:23:02.06Z</time></trkpt><trkpt lat="36.2139433" lon="-5.379295"><ele>81.0</ele><time>2026-04-25T12:23:03.06Z</time></trkpt><trkpt lat="36.2136733" lon="-5.3794067"><ele>81.0</ele><time>2026-04-25T12:23:04.063Z</time></trkpt><trkpt lat="36.2134033" lon="-5.3795133"><ele>81.0</ele><time>2026-04-25T12:23:05.062Z</time></trkpt><trkpt lat="36.2131383" lon="-5.3796167"><ele>77.5</ele><time>2026-04-25T12:23:06.061Z</time></trkpt><trkpt lat="36.2128733" lon="-5.3797217"><ele>74.0</ele><time>2026-04-25T12:23:07.062Z</time></trkpt><trkpt lat="36.2126117" lon="-5.3798283"><ele>74.0</ele><time>2026-04-25T12:23:08.062Z</time></trkpt><trkpt lat="36.21235" lon="-5.3799367"><ele>74.0</ele><time>2026-04-25T12:23:09.062Z</time></trkpt><trkpt lat="36.21209" lon="-5.3800433"><ele>73.5</ele><time>2026-04-25T12:23:10.061Z</time></trkpt><trkpt lat="36.2118283" lon="-5.3801467"><ele>73.0</ele><time>2026-04-25T12:23:11.061Z</time></trkpt><trkpt lat="36.21157" lon="-5.3802483"><ele>69.0</ele><time>2026-04-25T12:23:12.065Z</time></trkpt><trkpt lat="36.21131" lon="-5.3803517"><ele>65.0</ele><time>2026-04-25T12:23:13.06Z</time></trkpt><trkpt lat="36.21105" lon="-5.380455"><ele>67.5</ele><time>2026-04-25T12:23:14.069Z</time></trkpt><trkpt lat="36.2107917" lon="-5.3805567"><ele>70.0</ele><time>2026-04-25T12:23:15.057Z</time></trkpt><trkpt lat="36.210535" lon="-5.3806567"><ele>70.0</ele><time>2026-04-25T12:23:16.062Z</time></trkpt><trkpt lat="36.21029" lon="-5.3807517"><ele>70.0</ele><time>2026-04-25T12:23:17.064Z</time></trkpt><trkpt lat="36.2100617" lon="-5.380845"><ele>70.0</ele><time>2026-04-25T12:23:18.058Z</time></trkpt><trkpt lat="36.20985" lon="-5.3809333"><ele>70.0</ele><time>2026-04-25T12:23:19.061Z</time></trkpt><trkpt lat="36.209655" lon="-5.3810117"><ele>70.0</ele><time>2026-04-25T12:23:20.061Z</time></trkpt><trkpt lat="36.2094767" lon="-5.3810883"><ele>68.0</ele><time>2026-04-25T12:23:21.06Z</time></trkpt><trkpt lat="36.2093067" lon="-5.3811583"><ele>66.0</ele><time>2026-04-25T12:23:22.059Z</time></trkpt><trkpt lat="36.2091333" lon="-5.3812267"><ele>64.0</ele><time>2026-04-25T12:23:23.059Z</time></trkpt><trkpt lat="36.2089567" lon="-5.3813"><ele>66.33333333333333</ele><time>2026-04-25T12:23:24.064Z</time></trkpt><trkpt lat="36.2087767" lon="-5.3813767"><ele>68.66666666666667</ele><time>2026-04-25T12:23:25.062Z</time></trkpt><trkpt lat="36.2085917" lon="-5.3814517"><ele>71.0</ele><time>2026-04-25T12:23:26.063Z</time></trkpt><trkpt lat="36.2084067" lon="-5.3815283"><ele>71.0</ele><time>2026-04-25T12:23:27.06Z</time></trkpt><trkpt lat="36.2082167" lon="-5.381615"><ele>71.0</ele><time>2026-04-25T12:23:28.064Z</time></trkpt><trkpt lat="36.2080267" lon="-5.381715"><ele>71.0</ele><time>2026-04-25T12:23:29.066Z</time></trkpt><trkpt lat="36.207845" lon="-5.381835"><ele>52.0</ele><time>2026-04-25T12:23:30.06Z</time></trkpt><trkpt lat="36.20724" lon="-5.3824967"><ele>52.0</ele><time>2026-04-25T12:23:34.063Z</time></trkpt><trkpt lat="36.2071183" lon="-5.3827017"><ele>52.0</ele><time>2026-04-25T12:23:35.06Z</time></trkpt><trkpt lat="36.2070067" lon="-5.382925"><ele>52.0</ele><time>2026-04-25T12:23:36.06Z</time></trkpt><trkpt lat="36.2069117" lon="-5.3831633"><ele>54.33333333333333</ele><time>2026-04-25T12:23:37.06Z</time></trkpt><trkpt lat="36.20682" lon="-5.3834133"><ele>56.66666666666667</ele><time>2026-04-25T12:23:38.065Z</time></trkpt><trkpt lat="36.2067567" lon="-5.38367"><ele>59.0</ele><time>2026-04-25T12:23:39.062Z</time></trkpt><trkpt lat="36.206715" lon="-5.3839433"><ele>62.0</ele><time>2026-04-25T12:23:40.062Z</time></trkpt><trkpt lat="36.20669" lon="-5.3842283"><ele>65.0</ele><time>2026-04-25T12:23:41.063Z</time></trkpt><trkpt lat="36.2066967" lon="-5.3845217"><ele>64.0</ele><time>2026-04-25T12:23:42.061Z</time></trkpt><trkpt lat="36.2067167" lon="-5.3848067"><ele>63.0</ele><time>2026-04-25T12:23:43.064Z</time></trkpt><trkpt lat="36.20675" lon="-5.3850917"><ele>63.0</ele><time>2026-04-25T12:23:44.061Z</time></trkpt><trkpt lat="36.2068" lon="-5.38537"><ele>63.0</ele><time>2026-04-25T12:23:45.062Z</time></trkpt><trkpt lat="36.206875" lon="-5.3856433"><ele>62.0</ele><time>2026-04-25T12:23:46.062Z</time></trkpt><trkpt lat="36.20697" lon="-5.3859117"><ele>61.0</ele><time>2026-04-25T12:23:47.07Z</time></trkpt><trkpt lat="36.2070717" lon="-5.38617"><ele>60.0</ele><time>2026-04-25T12:23:48.061Z</time></trkpt><trkpt lat="36.20718" lon="-5.3864217"><ele>59.0</ele><time>2026-04-25T12:23:49.063Z</time></trkpt><trkpt lat="36.2072933" lon="-5.3866717"><ele>59.5</ele><time>2026-04-25T12:23:50.063Z</time></trkpt><trkpt lat="36.2074033" lon="-5.3869233"><ele>60.0</ele><time>2026-04-25T12:23:51.063Z</time></trkpt><trkpt lat="36.2075083" lon="-5.3871767"><ele>57.5</ele><time>2026-04-25T12:23:52.066Z</time></trkpt><trkpt lat="36.2075983" lon="-5.387435"><ele>55.0</ele><time>2026-04-25T12:23:53.065Z</time></trkpt><trkpt lat="36.2076733" lon="-5.3876983"><ele>55.0</ele><time>2026-04-25T12:23:54.061Z</time></trkpt><trkpt lat="36.2077367" lon="-5.387965"><ele>55.0</ele><time>2026-04-25T12:23:55.066Z</time></trkpt><trkpt lat="36.2077767" lon="-5.3882317"><ele>55.0</ele><time>2026-04-25T12:23:56.061Z</time></trkpt><trkpt lat="36.2077983" lon="-5.388495"><ele>52.666666666666664</ele><time>2026-04-25T12:23:57.061Z</time></trkpt><trkpt lat="36.2078017" lon="-5.3887567"><ele>50.33333333333333</ele><time>2026-04-25T12:23:58.064Z</time></trkpt><trkpt lat="36.2077867" lon="-5.3890167"><ele>48.0</ele><time>2026-04-25T12:23:59.059Z</time></trkpt><trkpt lat="36.2077617" lon="-5.38928"><ele>46.333333333333336</ele><time>2026-04-25T12:24:00.068Z</time></trkpt><trkpt lat="36.2077283" lon="-5.3895433"><ele>44.66666666666667</ele><time>2026-04-25T12:24:01.061Z</time></trkpt><trkpt lat="36.207695" lon="-5.38981"><ele>43.0</ele><time>2026-04-25T12:24:02.058Z</time></trkpt><trkpt lat="36.2076583" lon="-5.3900783"><ele>43.0</ele><time>2026-04-25T12:24:03.063Z</time></trkpt><trkpt lat="36.2076217" lon="-5.3903517"><ele>43.0</ele><time>2026-04-25T12:24:04.06Z</time></trkpt><trkpt lat="36.2075817" lon="-5.3906217"><ele>43.0</ele><time>2026-04-25T12:24:05.061Z</time></trkpt><trkpt lat="36.207545" lon="-5.3908917"><ele>42.66666666666667</ele><time>2026-04-25T12:24:06.065Z</time></trkpt><trkpt lat="36.2075067" lon="-5.3911633"><ele>42.333333333333336</ele><time>2026-04-25T12:24:07.067Z</time></trkpt><trkpt lat="36.2074667" lon="-5.3914383"><ele>42.0</ele><time>2026-04-25T12:24:08.068Z</time></trkpt><trkpt lat="36.20743" lon="-5.3917183"><ele>40.5</ele><time>2026-04-25T12:24:09.061Z</time></trkpt><trkpt lat="36.2073933" lon="-5.3919983"><ele>39.0</ele><time>2026-04-25T12:24:10.06Z</time></trkpt><trkpt lat="36.2073583" lon="-5.3922783"><ele>32.0</ele><time>2026-04-25T12:24:11.063Z</time></trkpt><trkpt lat="36.2073217" lon="-5.3925583"><ele>25.0</ele><time>2026-04-25T12:24:12.061Z</time></trkpt><trkpt lat="36.2072833" lon="-5.3928367"><ele>25.0</ele><time>2026-04-25T12:24:13.062Z</time></trkpt><trkpt lat="36.207245" lon="-5.3931133"><ele>25.0</ele><time>2026-04-25T12:24:14.062Z</time></trkpt><trkpt lat="36.2072017" lon="-5.3933917"><ele>25.0</ele><time>2026-04-25T12:24:15.063Z</time></trkpt><trkpt lat="36.2071533" lon="-5.393665"><ele>25.0</ele><time>2026-04-25T12:24:16.06Z</time></trkpt><trkpt lat="36.2071067" lon="-5.3939333"><ele>25.0</ele><time>2026-04-25T12:24:17.062Z</time></trkpt><trkpt lat="36.2070617" lon="-5.3941983"><ele>24.333333333333336</ele><time>2026-04-25T12:24:18.065Z</time></trkpt><trkpt lat="36.20703" lon="-5.394465"><ele>23.666666666666668</ele><time>2026-04-25T12:24:19.062Z</time></trkpt><trkpt lat="36.2070283" lon="-5.394735"><ele>23.0</ele><time>2026-04-25T12:24:20.062Z</time></trkpt><trkpt lat="36.20705" lon="-5.3950133"><ele>22.0</ele><time>2026-04-25T12:24:21.061Z</time></trkpt><trkpt lat="36.2070817" lon="-5.395295"><ele>21.0</ele><time>2026-04-25T12:24:22.062Z</time></trkpt><trkpt lat="36.207115" lon="-5.3955817"><ele>20.5</ele><time>2026-04-25T12:24:23.065Z</time></trkpt><trkpt lat="36.20715" lon="-5.3958733"><ele>20.0</ele><time>2026-04-25T12:24:24.061Z</time></trkpt><trkpt lat="36.2071817" lon="-5.3961617"><ele>19.5</ele><time>2026-04-25T12:24:25.062Z</time></trkpt><trkpt lat="36.207215" lon="-5.3964483"><ele>19.0</ele><time>2026-04-25T12:24:26.064Z</time></trkpt><trkpt lat="36.2072483" lon="-5.3967367"><ele>19.0</ele><time>2026-04-25T12:24:27.065Z</time></trkpt><trkpt lat="36.2072817" lon="-5.397025"><ele>19.0</ele><time>2026-04-25T12:24:28.062Z</time></trkpt><trkpt lat="36.2073167" lon="-5.397315"><ele>19.5</ele><time>2026-04-25T12:24:29.063Z</time></trkpt><trkpt lat="36.2073467" lon="-5.3976083"><ele>20.0</ele><time>2026-04-25T12:24:30.066Z</time></trkpt><trkpt lat="36.2073783" lon="-5.3979033"><ele>18.0</ele><time>2026-04-25T12:24:31.062Z</time></trkpt><trkpt lat="36.2074083" lon="-5.3982"><ele>16.0</ele><time>2026-04-25T12:24:32.062Z</time></trkpt><trkpt lat="36.2074367" lon="-5.3984967"><ele>16.0</ele><time>2026-04-25T12:24:33.06Z</time></trkpt><trkpt lat="36.2074633" lon="-5.398795"><ele>16.0</ele><time>2026-04-25T12:24:34.06Z</time></trkpt><trkpt lat="36.2074917" lon="-5.399095"><ele>14.5</ele><time>2026-04-25T12:24:35.063Z</time></trkpt><trkpt lat="36.2075183" lon="-5.3993983"><ele>13.0</ele><time>2026-04-25T12:24:36.058Z</time></trkpt><trkpt lat="36.207545" lon="-5.3997017"><ele>12.5</ele><time>2026-04-25T12:24:37.06Z</time></trkpt><trkpt lat="36.2075717" lon="-5.400005"><ele>12.0</ele><time>2026-04-25T12:24:38.062Z</time></trkpt><trkpt lat="36.2075967" lon="-5.4003067"><ele>12.0</ele><time>2026-04-25T12:24:39.06Z</time></trkpt><trkpt lat="36.20762" lon="-5.4006083"><ele>12.0</ele><time>2026-04-25T12:24:40.066Z</time></trkpt><trkpt lat="36.2076467" lon="-5.4009117"><ele>12.0</ele><time>2026-04-25T12:24:41.062Z</time></trkpt><trkpt lat="36.20767" lon="-5.4012133"><ele>12.0</ele><time>2026-04-25T12:24:42.061Z</time></trkpt><trkpt lat="36.2076933" lon="-5.4015133"><ele>11.0</ele><time>2026-04-25T12:24:43.061Z</time></trkpt><trkpt lat="36.207715" lon="-5.4018133"><ele>10.0</ele><time>2026-04-25T12:24:44.063Z</time></trkpt><trkpt lat="36.2077417" lon="-5.40211"><ele>9.5</ele><time>2026-04-25T12:24:45.062Z</time></trkpt><trkpt lat="36.2077667" lon="-5.4024067"><ele>9.0</ele><time>2026-04-25T12:24:46.064Z</time></trkpt><trkpt lat="36.207795" lon="-5.4027033"><ele>9.0</ele><time>2026-04-25T12:24:47.063Z</time></trkpt><trkpt lat="36.2078217" lon="-5.4029933"><ele>9.0</ele><time>2026-04-25T12:24:48.062Z</time></trkpt><trkpt lat="36.2078483" lon="-5.403285"><ele>8.5</ele><time>2026-04-25T12:24:49.062Z</time></trkpt><trkpt lat="36.2078717" lon="-5.4035767"><ele>8.0</ele><time>2026-04-25T12:24:50.06Z</time></trkpt><trkpt lat="36.2078967" lon="-5.4038683"><ele>9.5</ele><time>2026-04-25T12:24:51.067Z</time></trkpt><trkpt lat="36.2079167" lon="-5.40416"><ele>11.0</ele><time>2026-04-25T12:24:52.063Z</time></trkpt><trkpt lat="36.2079267" lon="-5.40445"><ele>11.5</ele><time>2026-04-25T12:24:53.063Z</time></trkpt><trkpt lat="36.20791" lon="-5.4047367"><ele>12.0</ele><time>2026-04-25T12:24:54.061Z</time></trkpt><trkpt lat="36.2078683" lon="-5.4050133"><ele>12.0</ele><time>2026-04-25T12:24:55.063Z</time></trkpt><trkpt lat="36.2078167" lon="-5.4052817"><ele>12.0</ele><time>2026-04-25T12:24:56.061Z</time></trkpt><trkpt lat="36.2077667" lon="-5.40554"><ele>12.0</ele><time>2026-04-25T12:24:57.06Z</time></trkpt><trkpt lat="36.20772" lon="-5.4058017"><ele>11.0</ele><time>2026-04-25T12:24:58.06Z</time></trkpt><trkpt lat="36.2076767" lon="-5.4060617"><ele>10.0</ele><time>2026-04-25T12:24:59.062Z</time></trkpt><trkpt lat="36.2076317" lon="-5.4063233"><ele>9.0</ele><time>2026-04-25T12:25:00.063Z</time></trkpt><trkpt lat="36.207585" lon="-5.4065883"><ele>8.666666666666666</ele><time>2026-04-25T12:25:01.061Z</time></trkpt><trkpt lat="36.2075383" lon="-5.4068533"><ele>8.333333333333332</ele><time>2026-04-25T12:25:02.07Z</time></trkpt><trkpt lat="36.20749" lon="-5.40712"><ele>8.0</ele><time>2026-04-25T12:25:03.062Z</time></trkpt><trkpt lat="36.2074417" lon="-5.4073883"><ele>8.0</ele><time>2026-04-25T12:25:04.059Z</time></trkpt><trkpt lat="36.2073933" lon="-5.4076583"><ele>8.0</ele><time>2026-04-25T12:25:05.062Z</time></trkpt><trkpt lat="36.2073433" lon="-5.40793"><ele>8.0</ele><time>2026-04-25T12:25:06.063Z</time></trkpt><trkpt lat="36.207295" lon="-5.4082033"><ele>8.0</ele><time>2026-04-25T12:25:07.062Z</time></trkpt><trkpt lat="36.2072467" lon="-5.4084783"><ele>8.0</ele><time>2026-04-25T12:25:08.064Z</time></trkpt><trkpt lat="36.2072" lon="-5.408755"><ele>7.5</ele><time>2026-04-25T12:25:09.061Z</time></trkpt><trkpt lat="36.2071533" lon="-5.40903"><ele>7.0</ele><time>2026-04-25T12:25:10.061Z</time></trkpt><trkpt lat="36.207105" lon="-5.409305"><ele>7.0</ele><time>2026-04-25T12:25:11.066Z</time></trkpt><trkpt lat="36.2070567" lon="-5.4095783"><ele>7.0</ele><time>2026-04-25T12:25:12.063Z</time></trkpt><trkpt lat="36.207005" lon="-5.40985"><ele>7.333333333333334</ele><time>2026-04-25T12:25:13.062Z</time></trkpt><trkpt lat="36.2069533" lon="-5.4101183"><ele>7.666666666666666</ele><time>2026-04-25T12:25:14.063Z</time></trkpt><trkpt lat="36.2068983" lon="-5.4103867"><ele>8.0</ele><time>2026-04-25T12:25:15.063Z</time></trkpt><trkpt lat="36.2068417" lon="-5.4106517"><ele>9.0</ele><time>2026-04-25T12:25:16.062Z</time></trkpt><trkpt lat="36.20678" lon="-5.410915"><ele>10.0</ele><time>2026-04-25T12:25:17.063Z</time></trkpt><trkpt lat="36.2067167" lon="-5.411175"><ele>11.0</ele><time>2026-04-25T12:25:18.067Z</time></trkpt><trkpt lat="36.206645" lon="-5.4114283"><ele>10.666666666666666</ele><time>2026-04-25T12:25:19.06Z</time></trkpt><trkpt lat="36.2065717" lon="-5.4116733"><ele>10.333333333333334</ele><time>2026-04-25T12:25:20.065Z</time></trkpt><trkpt lat="36.2064967" lon="-5.4119067"><ele>10.0</ele><time>2026-04-25T12:25:21.066Z</time></trkpt><trkpt lat="36.206425" lon="-5.4121367"><ele>10.333333333333334</ele><time>2026-04-25T12:25:22.061Z</time></trkpt><trkpt lat="36.206355" lon="-5.4123683"><ele>10.666666666666666</ele><time>2026-04-25T12:25:23.063Z</time></trkpt><trkpt lat="36.2062833" lon="-5.4126033"><ele>11.0</ele><time>2026-04-25T12:25:24.062Z</time></trkpt><trkpt lat="36.2062133" lon="-5.4128433"><ele>11.333333333333332</ele><time>2026-04-25T12:25:25.062Z</time></trkpt><trkpt lat="36.2061417" lon="-5.4130883"><ele>11.666666666666666</ele><time>2026-04-25T12:25:26.061Z</time></trkpt><trkpt lat="36.2060667" lon="-5.4133367"><ele>12.0</ele><time>2026-04-25T12:25:27.059Z</time></trkpt><trkpt lat="36.2059867" lon="-5.4135867"><ele>12.0</ele><time>2026-04-25T12:25:28.061Z</time></trkpt><trkpt lat="36.2059" lon="-5.4138367"><ele>12.0</ele><time>2026-04-25T12:25:29.059Z</time></trkpt><trkpt lat="36.2058083" lon="-5.4140867"><ele>12.0</ele><time>2026-04-25T12:25:30.062Z</time></trkpt><trkpt lat="36.2057133" lon="-5.4143367"><ele>11.666666666666666</ele><time>2026-04-25T12:25:31.059Z</time></trkpt><trkpt lat="36.2056183" lon="-5.4145867"><ele>11.333333333333332</ele><time>2026-04-25T12:25:32.062Z</time></trkpt><trkpt lat="36.2055233" lon="-5.4148367"><ele>11.0</ele><time>2026-04-25T12:25:33.066Z</time></trkpt><trkpt lat="36.2054233" lon="-5.4150867"><ele>11.0</ele><time>2026-04-25T12:25:34.063Z</time></trkpt><trkpt lat="36.205325" lon="-5.41534"><ele>11.0</ele><time>2026-04-25T12:25:35.063Z</time></trkpt><trkpt lat="36.2052233" lon="-5.4155933"><ele>12.0</ele><time>2026-04-25T12:25:36.061Z</time></trkpt><trkpt lat="36.2051183" lon="-5.415845"><ele>13.0</ele><time>2026-04-25T12:25:37.061Z</time></trkpt><trkpt lat="36.2050017" lon="-5.41609"><ele>13.5</ele><time>2026-04-25T12:25:38.063Z</time></trkpt><trkpt lat="36.2048767" lon="-5.4163267"><ele>14.0</ele><time>2026-04-25T12:25:39.062Z</time></trkpt><trkpt lat="36.2047433" lon="-5.4165583"><ele>12.0</ele><time>2026-04-25T12:25:40.061Z</time></trkpt><trkpt lat="36.204605" lon="-5.4167883"><ele>10.0</ele><time>2026-04-25T12:25:41.064Z</time></trkpt><trkpt lat="36.2044717" lon="-5.4170233"><ele>11.0</ele><time>2026-04-25T12:25:42.061Z</time></trkpt><trkpt lat="36.2043433" lon="-5.4172667"><ele>12.0</ele><time>2026-04-25T12:25:43.062Z</time></trkpt><trkpt lat="36.2042183" lon="-5.41752"><ele>12.0</ele><time>2026-04-25T12:25:44.064Z</time></trkpt><trkpt lat="36.2041067" lon="-5.4177817"><ele>12.0</ele><time>2026-04-25T12:25:45.062Z</time></trkpt><trkpt lat="36.2040083" lon="-5.4180517"><ele>16.5</ele><time>2026-04-25T12:25:46.061Z</time></trkpt><trkpt lat="36.2039317" lon="-5.418335"><ele>21.0</ele><time>2026-04-25T12:25:47.061Z</time></trkpt><trkpt lat="36.20387" lon="-5.4186283"><ele>20.0</ele><time>2026-04-25T12:25:48.065Z</time></trkpt><trkpt lat="36.20382" lon="-5.41893"><ele>19.0</ele><time>2026-04-25T12:25:49.062Z</time></trkpt><trkpt lat="36.203785" lon="-5.4192283"><ele>19.0</ele><time>2026-04-25T12:25:50.062Z</time></trkpt><trkpt lat="36.20376" lon="-5.41952"><ele>19.0</ele><time>2026-04-25T12:25:51.061Z</time></trkpt><trkpt lat="36.20374" lon="-5.4198083"><ele>15.0</ele><time>2026-04-25T12:25:52.062Z</time></trkpt><trkpt lat="36.2037217" lon="-5.4200967"><ele>11.0</ele><time>2026-04-25T12:25:53.06Z</time></trkpt><trkpt lat="36.2036983" lon="-5.4203833"><ele>9.0</ele><time>2026-04-25T12:25:54.061Z</time></trkpt><trkpt lat="36.2036633" lon="-5.4206717"><ele>7.0</ele><time>2026-04-25T12:25:55.059Z</time></trkpt><trkpt lat="36.20362" lon="-5.42096"><ele>7.0</ele><time>2026-04-25T12:25:56.063Z</time></trkpt><trkpt lat="36.2035667" lon="-5.421245"><ele>7.0</ele><time>2026-04-25T12:25:57.063Z</time></trkpt><trkpt lat="36.2035017" lon="-5.4215283"><ele>7.5</ele><time>2026-04-25T12:25:58.063Z</time></trkpt><trkpt lat="36.20342" lon="-5.4218017"><ele>8.0</ele><time>2026-04-25T12:25:59.06Z</time></trkpt><trkpt lat="36.203325" lon="-5.42207"><ele>7.0</ele><time>2026-04-25T12:26:00.064Z</time></trkpt><trkpt lat="36.2032167" lon="-5.42233"><ele>6.0</ele><time>2026-04-25T12:26:01.067Z</time></trkpt><trkpt lat="36.2030967" lon="-5.4225833"><ele>6.0</ele><time>2026-04-25T12:26:02.063Z</time></trkpt><trkpt lat="36.20296" lon="-5.4228233"><ele>6.0</ele><time>2026-04-25T12:26:03.069Z</time></trkpt><trkpt lat="36.202815" lon="-5.423055"><ele>7.5</ele><time>2026-04-25T12:26:04.062Z</time></trkpt><trkpt lat="36.20266" lon="-5.4232833"><ele>9.0</ele><time>2026-04-25T12:26:05.06Z</time></trkpt><trkpt lat="36.2024983" lon="-5.423505"><ele>6.5</ele><time>2026-04-25T12:26:06.065Z</time></trkpt><trkpt lat="36.2023283" lon="-5.4237117"><ele>4.0</ele><time>2026-04-25T12:26:07.062Z</time></trkpt><trkpt lat="36.2021483" lon="-5.42391"><ele>3.5</ele><time>2026-04-25T12:26:08.064Z</time></trkpt><trkpt lat="36.2019633" lon="-5.4241017"><ele>3.0</ele><time>2026-04-25T12:26:09.06Z</time></trkpt><trkpt lat="36.2017783" lon="-5.424295"><ele>3.0</ele><time>2026-04-25T12:26:10.063Z</time></trkpt><trkpt lat="36.201595" lon="-5.42449"><ele>3.0</ele><time>2026-04-25T12:26:11.062Z</time></trkpt><trkpt lat="36.20141" lon="-5.4246883"><ele>5.5</ele><time>2026-04-25T12:26:12.064Z</time></trkpt><trkpt lat="36.201225" lon="-5.424885"><ele>8.0</ele><time>2026-04-25T12:26:13.058Z</time></trkpt><trkpt lat="36.2010383" lon="-5.4250833"><ele>8.0</ele><time>2026-04-25T12:26:14.062Z</time></trkpt><trkpt lat="36.20085" lon="-5.4252817"><ele>8.0</ele><time>2026-04-25T12:26:15.06Z</time></trkpt><trkpt lat="36.20066" lon="-5.42548"><ele>7.0</ele><time>2026-04-25T12:26:16.058Z</time></trkpt><trkpt lat="36.2004667" lon="-5.42568"><ele>6.0</ele><time>2026-04-25T12:26:17.065Z</time></trkpt><trkpt lat="36.2002717" lon="-5.42588"><ele>6.0</ele><time>2026-04-25T12:26:18.061Z</time></trkpt><trkpt lat="36.2000783" lon="-5.4260783"><ele>6.0</ele><time>2026-04-25T12:26:19.066Z</time></trkpt><trkpt lat="36.199885" lon="-5.426275"><ele>6.0</ele><time>2026-04-25T12:26:20.065Z</time></trkpt><trkpt lat="36.19969" lon="-5.42647"><ele>6.0</ele><time>2026-04-25T12:26:21.062Z</time></trkpt><trkpt lat="36.1994967" lon="-5.42666"><ele>6.0</ele><time>2026-04-25T12:26:22.069Z</time></trkpt><trkpt lat="36.1993017" lon="-5.426845"><ele>6.0</ele><time>2026-04-25T12:26:23.062Z</time></trkpt><trkpt lat="36.1991067" lon="-5.4270283"><ele>5.5</ele><time>2026-04-25T12:26:24.062Z</time></trkpt><trkpt lat="36.19891" lon="-5.4272067"><ele>5.0</ele><time>2026-04-25T12:26:25.067Z</time></trkpt><trkpt lat="36.1987117" lon="-5.4273867"><ele>5.0</ele><time>2026-04-25T12:26:26.068Z</time></trkpt><trkpt lat="36.1985133" lon="-5.42756"><ele>5.0</ele><time>2026-04-25T12:26:27.066Z</time></trkpt><trkpt lat="36.19831" lon="-5.4277317"><ele>5.0</ele><time>2026-04-25T12:26:28.063Z</time></trkpt><trkpt lat="36.1981033" lon="-5.4278983"><ele>5.0</ele><time>2026-04-25T12:26:29.068Z</time></trkpt><trkpt lat="36.1978933" lon="-5.4280633"><ele>7.0</ele><time>2026-04-25T12:26:30.061Z</time></trkpt><trkpt lat="36.1976817" lon="-5.42823"><ele>9.0</ele><time>2026-04-25T12:26:31.059Z</time></trkpt><trkpt lat="36.197465" lon="-5.428395"><ele>8.5</ele><time>2026-04-25T12:26:32.058Z</time></trkpt><trkpt lat="36.19725" lon="-5.4285617"><ele>8.0</ele><time>2026-04-25T12:26:33.063Z</time></trkpt><trkpt lat="36.1970317" lon="-5.4287267"><ele>10.5</ele><time>2026-04-25T12:26:34.063Z</time></trkpt><trkpt lat="36.196815" lon="-5.42889"><ele>13.0</ele><time>2026-04-25T12:26:35.06Z</time></trkpt><trkpt lat="36.1965983" lon="-5.4290533"><ele>11.5</ele><time>2026-04-25T12:26:36.061Z</time></trkpt><trkpt lat="36.1963833" lon="-5.4292167"><ele>10.0</ele><time>2026-04-25T12:26:37.061Z</time></trkpt><trkpt lat="36.1961667" lon="-5.4293817"><ele>10.0</ele><time>2026-04-25T12:26:38.058Z</time></trkpt><trkpt lat="36.19595" lon="-5.429545"><ele>10.0</ele><time>2026-04-25T12:26:39.061Z</time></trkpt><trkpt lat="36.195735" lon="-5.42971"><ele>10.0</ele><time>2026-04-25T12:26:40.062Z</time></trkpt><trkpt lat="36.1955217" lon="-5.429875"><ele>10.0</ele><time>2026-04-25T12:26:41.06Z</time></trkpt><trkpt lat="36.195305" lon="-5.4300383"><ele>10.0</ele><time>2026-04-25T12:26:42.059Z</time></trkpt><trkpt lat="36.1950917" lon="-5.4302033"><ele>10.0</ele><time>2026-04-25T12:26:43.062Z</time></trkpt><trkpt lat="36.1948783" lon="-5.4303633"><ele>9.0</ele><time>2026-04-25T12:26:44.062Z</time></trkpt><trkpt lat="36.1946683" lon="-5.4305233"><ele>8.0</ele><time>2026-04-25T12:26:45.063Z</time></trkpt><trkpt lat="36.1944583" lon="-5.4306833"><ele>8.0</ele><time>2026-04-25T12:26:46.06Z</time></trkpt><trkpt lat="36.1942467" lon="-5.4308433"><ele>8.0</ele><time>2026-04-25T12:26:47.062Z</time></trkpt><trkpt lat="36.194035" lon="-5.4310033"><ele>9.0</ele><time>2026-04-25T12:26:48.063Z</time></trkpt><trkpt lat="36.1938283" lon="-5.4311617"><ele>10.0</ele><time>2026-04-25T12:26:49.06Z</time></trkpt><trkpt lat="36.1936217" lon="-5.43132"><ele>10.0</ele><time>2026-04-25T12:26:50.065Z</time></trkpt><trkpt lat="36.193415" lon="-5.4314867"><ele>10.0</ele><time>2026-04-25T12:26:51.066Z</time></trkpt><trkpt lat="36.1932067" lon="-5.4316567"><ele>9.0</ele><time>2026-04-25T12:26:52.062Z</time></trkpt><trkpt lat="36.1929983" lon="-5.4318283"><ele>8.0</ele><time>2026-04-25T12:26:53.064Z</time></trkpt><trkpt lat="36.1927883" lon="-5.4320067"><ele>8.5</ele><time>2026-04-25T12:26:54.061Z</time></trkpt><trkpt lat="36.1925783" lon="-5.43219"><ele>9.0</ele><time>2026-04-25T12:26:55.065Z</time></trkpt><trkpt lat="36.19237" lon="-5.4323733"><ele>8.5</ele><time>2026-04-25T12:26:56.06Z</time></trkpt><trkpt lat="36.1921617" lon="-5.4325617"><ele>8.0</ele><time>2026-04-25T12:26:57.06Z</time></trkpt><trkpt lat="36.19195" lon="-5.43275"><ele>8.0</ele><time>2026-04-25T12:26:58.068Z</time></trkpt><trkpt lat="36.1917383" lon="-5.4329367"><ele>8.0</ele><time>2026-04-25T12:26:59.062Z</time></trkpt><trkpt lat="36.1915267" lon="-5.433125"><ele>7.5</ele><time>2026-04-25T12:27:00.061Z</time></trkpt><trkpt lat="36.1913133" lon="-5.4333133"><ele>7.0</ele><time>2026-04-25T12:27:01.057Z</time></trkpt><trkpt lat="36.1911033" lon="-5.4334967"><ele>7.0</ele><time>2026-04-25T12:27:02.065Z</time></trkpt><trkpt lat="36.19089" lon="-5.433685"><ele>7.0</ele><time>2026-04-25T12:27:03.06Z</time></trkpt><trkpt lat="36.1906733" lon="-5.4338767"><ele>6.0</ele><time>2026-04-25T12:27:04.063Z</time></trkpt><trkpt lat="36.1904533" lon="-5.4340667"><ele>5.0</ele><time>2026-04-25T12:27:05.062Z</time></trkpt><trkpt lat="36.1902367" lon="-5.4342583"><ele>5.0</ele><time>2026-04-25T12:27:06.066Z</time></trkpt><trkpt lat="36.190025" lon="-5.4344467"><ele>5.0</ele><time>2026-04-25T12:27:07.061Z</time></trkpt><trkpt lat="36.1898167" lon="-5.43463"><ele>6.0</ele><time>2026-04-25T12:27:08.064Z</time></trkpt><trkpt lat="36.1896117" lon="-5.4348133"><ele>7.0</ele><time>2026-04-25T12:27:09.061Z</time></trkpt><trkpt lat="36.18941" lon="-5.434995"><ele>7.0</ele><time>2026-04-25T12:27:10.061Z</time></trkpt><trkpt lat="36.1892117" lon="-5.4351767"><ele>7.0</ele><time>2026-04-25T12:27:11.062Z</time></trkpt><trkpt lat="36.1890167" lon="-5.4353567"><ele>8.0</ele><time>2026-04-25T12:27:12.064Z</time></trkpt><trkpt lat="36.1888217" lon="-5.4355367"><ele>9.0</ele><time>2026-04-25T12:27:13.061Z</time></trkpt><trkpt lat="36.188625" lon="-5.435715"><ele>9.0</ele><time>2026-04-25T12:27:14.064Z</time></trkpt><trkpt lat="36.18843" lon="-5.4358917"><ele>9.0</ele><time>2026-04-25T12:27:15.059Z</time></trkpt><trkpt lat="36.1882333" lon="-5.4360683"><ele>9.0</ele><time>2026-04-25T12:27:16.061Z</time></trkpt><trkpt lat="36.1880333" lon="-5.4362417"><ele>9.0</ele><time>2026-04-25T12:27:17.06Z</time></trkpt><trkpt lat="36.1878367" lon="-5.4364183"><ele>9.0</ele><time>2026-04-25T12:27:18.063Z</time></trkpt><trkpt lat="36.1876383" lon="-5.4365967"><ele>9.0</ele><time>2026-04-25T12:27:19.061Z</time></trkpt><trkpt lat="36.18744" lon="-5.4367733"><ele>8.0</ele><time>2026-04-25T12:27:20.067Z</time></trkpt><trkpt lat="36.18724" lon="-5.4369517"><ele>7.0</ele><time>2026-04-25T12:27:21.066Z</time></trkpt><trkpt lat="36.1870383" lon="-5.4371317"><ele>8.5</ele><time>2026-04-25T12:27:22.063Z</time></trkpt><trkpt lat="36.1868367" lon="-5.4373117"><ele>10.0</ele><time>2026-04-25T12:27:23.065Z</time></trkpt><trkpt lat="36.1866317" lon="-5.437495"><ele>9.5</ele><time>2026-04-25T12:27:24.062Z</time></trkpt><trkpt lat="36.1864283" lon="-5.4376767"><ele>9.0</ele><time>2026-04-25T12:27:25.064Z</time></trkpt><trkpt lat="36.1862233" lon="-5.4378617"><ele>9.0</ele><time>2026-04-25T12:27:26.061Z</time></trkpt><trkpt lat="36.1860167" lon="-5.4380467"><ele>9.0</ele><time>2026-04-25T12:27:27.064Z</time></trkpt><trkpt lat="36.1858083" lon="-5.4382333"><ele>7.0</ele><time>2026-04-25T12:27:28.059Z</time></trkpt><trkpt lat="36.1855983" lon="-5.4384217"><ele>5.0</ele><time>2026-04-25T12:27:29.065Z</time></trkpt><trkpt lat="36.185385" lon="-5.4386133"><ele>6.5</ele><time>2026-04-25T12:27:30.063Z</time></trkpt><trkpt lat="36.1851717" lon="-5.4388033"><ele>8.0</ele><time>2026-04-25T12:27:31.065Z</time></trkpt><trkpt lat="36.1849533" lon="-5.438995"><ele>7.5</ele><time>2026-04-25T12:27:32.062Z</time></trkpt><trkpt lat="36.1847333" lon="-5.4391883"><ele>7.0</ele><time>2026-04-25T12:27:33.066Z</time></trkpt><trkpt lat="36.1845133" lon="-5.4393767"><ele>7.0</ele><time>2026-04-25T12:27:34.059Z</time></trkpt><trkpt lat="36.1843033" lon="-5.4395633"><ele>7.0</ele><time>2026-04-25T12:27:35.062Z</time></trkpt><trkpt lat="36.184105" lon="-5.4397683"><ele>5.0</ele><time>2026-04-25T12:27:36.061Z</time></trkpt><trkpt lat="36.18393" lon="-5.4400067"><ele>3.0</ele><time>2026-04-25T12:27:37.062Z</time></trkpt><trkpt lat="36.1837683" lon="-5.440265"><ele>4.5</ele><time>2026-04-25T12:27:38.067Z</time></trkpt><trkpt lat="36.1836117" lon="-5.4405283"><ele>6.0</ele><time>2026-04-25T12:27:39.062Z</time></trkpt><trkpt lat="36.183455" lon="-5.4407983"><ele>6.0</ele><time>2026-04-25T12:27:40.062Z</time></trkpt><trkpt lat="36.1832983" lon="-5.4410667"><ele>6.0</ele><time>2026-04-25T12:27:41.061Z</time></trkpt><trkpt lat="36.1831417" lon="-5.4413317"><ele>5.5</ele><time>2026-04-25T12:27:42.06Z</time></trkpt><trkpt lat="36.1829867" lon="-5.4415983"><ele>5.0</ele><time>2026-04-25T12:27:43.058Z</time></trkpt><trkpt lat="36.182825" lon="-5.4418617"><ele>5.0</ele><time>2026-04-25T12:27:44.063Z</time></trkpt><trkpt lat="36.182655" lon="-5.442125"><ele>5.0</ele><time>2026-04-25T12:27:45.057Z</time></trkpt><trkpt lat="36.1824867" lon="-5.4423883"><ele>6.0</ele><time>2026-04-25T12:27:46.059Z</time></trkpt><trkpt lat="36.182325" lon="-5.4426533"><ele>7.0</ele><time>2026-04-25T12:27:47.059Z</time></trkpt><trkpt lat="36.1821617" lon="-5.4429167"><ele>6.0</ele><time>2026-04-25T12:27:48.059Z</time></trkpt><trkpt lat="36.1819983" lon="-5.4431817"><ele>5.0</ele><time>2026-04-25T12:27:49.061Z</time></trkpt><trkpt lat="36.1818367" lon="-5.4434483"><ele>5.0</ele><time>2026-04-25T12:27:50.064Z</time></trkpt><trkpt lat="36.1816767" lon="-5.4437133"><ele>5.0</ele><time>2026-04-25T12:27:51.063Z</time></trkpt><trkpt lat="36.1815217" lon="-5.44397"><ele>5.0</ele><time>2026-04-25T12:27:52.06Z</time></trkpt><trkpt lat="36.181375" lon="-5.44421"><ele>5.0</ele><time>2026-04-25T12:27:53.064Z</time></trkpt><trkpt lat="36.1812317" lon="-5.4444367"><ele>5.0</ele><time>2026-04-25T12:27:54.064Z</time></trkpt><trkpt lat="36.1811" lon="-5.4446533"><ele>5.0</ele><time>2026-04-25T12:27:55.06Z</time></trkpt><trkpt lat="36.18097" lon="-5.4448683"><ele>5.0</ele><time>2026-04-25T12:27:56.063Z</time></trkpt><trkpt lat="36.1808417" lon="-5.44508"><ele>5.0</ele><time>2026-04-25T12:27:57.063Z</time></trkpt><trkpt lat="36.1807133" lon="-5.4452933"><ele>5.0</ele><time>2026-04-25T12:27:58.06Z</time></trkpt><trkpt lat="36.180585" lon="-5.445505"><ele>5.0</ele><time>2026-04-25T12:27:59.067Z</time></trkpt><trkpt lat="36.1804567" lon="-5.4457183"><ele>4.666666666666667</ele><time>2026-04-25T12:28:00.068Z</time></trkpt><trkpt lat="36.1803233" lon="-5.445935"><ele>4.333333333333333</ele><time>2026-04-25T12:28:01.062Z</time></trkpt><trkpt lat="36.18019" lon="-5.4461567"><ele>4.0</ele><time>2026-04-25T12:28:02.063Z</time></trkpt><trkpt lat="36.180055" lon="-5.4463833"><ele>3.5</ele><time>2026-04-25T12:28:03.063Z</time></trkpt><trkpt lat="36.1799183" lon="-5.4466133"><ele>3.0</ele><time>2026-04-25T12:28:04.062Z</time></trkpt><trkpt lat="36.1797783" lon="-5.446845"><ele>2.5</ele><time>2026-04-25T12:28:05.064Z</time></trkpt><trkpt lat="36.179635" lon="-5.44708"><ele>2.0</ele><time>2026-04-25T12:28:06.066Z</time></trkpt><trkpt lat="36.1794917" lon="-5.4473133"><ele>2.0</ele><time>2026-04-25T12:28:07.059Z</time></trkpt><trkpt lat="36.1793483" lon="-5.44755"><ele>2.0</ele><time>2026-04-25T12:28:08.059Z</time></trkpt><trkpt lat="36.1792017" lon="-5.4477883"><ele>2.5</ele><time>2026-04-25T12:28:09.065Z</time></trkpt><trkpt lat="36.1790533" lon="-5.4480333"><ele>3.0</ele><time>2026-04-25T12:28:10.058Z</time></trkpt><trkpt lat="36.1789033" lon="-5.4482817"><ele>2.0</ele><time>2026-04-25T12:28:11.059Z</time></trkpt><trkpt lat="36.1787517" lon="-5.448535"><ele>1.0</ele><time>2026-04-25T12:28:12.061Z</time></trkpt><trkpt lat="36.1786" lon="-5.44879"><ele>1.0</ele><time>2026-04-25T12:28:13.058Z</time></trkpt><trkpt lat="36.1784467" lon="-5.449045"><ele>1.0</ele><time>2026-04-25T12:28:14.059Z</time></trkpt><trkpt lat="36.1782917" lon="-5.4493017"><ele>1.0</ele><time>2026-04-25T12:28:15.061Z</time></trkpt><trkpt lat="36.1781383" lon="-5.4495583"><ele>1.0</ele><time>2026-04-25T12:28:16.062Z</time></trkpt><trkpt lat="36.1779817" lon="-5.4498167"><ele>1.0</ele><time>2026-04-25T12:28:17.063Z</time></trkpt><trkpt lat="36.1778233" lon="-5.4500783"><ele>1.0</ele><time>2026-04-25T12:28:18.062Z</time></trkpt><trkpt lat="36.1776633" lon="-5.45034"><ele>2.0</ele><time>2026-04-25T12:28:19.064Z</time></trkpt><trkpt lat="36.1775067" lon="-5.4506033"><ele>3.0</ele><time>2026-04-25T12:28:20.069Z</time></trkpt><trkpt lat="36.17735" lon="-5.4508683"><ele>3.5</ele><time>2026-04-25T12:28:21.062Z</time></trkpt><trkpt lat="36.1771933" lon="-5.45113"><ele>4.0</ele><time>2026-04-25T12:28:22.065Z</time></trkpt><trkpt lat="36.177035" lon="-5.4513917"><ele>4.5</ele><time>2026-04-25T12:28:23.065Z</time></trkpt><trkpt lat="36.17688" lon="-5.451655"><ele>5.0</ele><time>2026-04-25T12:28:24.062Z</time></trkpt><trkpt lat="36.1767233" lon="-5.4519167"><ele>4.0</ele><time>2026-04-25T12:28:25.06Z</time></trkpt><trkpt lat="36.1765667" lon="-5.4521767"><ele>3.0</ele><time>2026-04-25T12:28:26.061Z</time></trkpt><trkpt lat="36.1764083" lon="-5.45244"><ele>2.5</ele><time>2026-04-25T12:28:27.064Z</time></trkpt><trkpt lat="36.1762517" lon="-5.4527033"><ele>2.0</ele><time>2026-04-25T12:28:28.065Z</time></trkpt><trkpt lat="36.1760967" lon="-5.4529667"><ele>2.0</ele><time>2026-04-25T12:28:29.061Z</time></trkpt><trkpt lat="36.17594" lon="-5.45323"><ele>2.0</ele><time>2026-04-25T12:28:30.059Z</time></trkpt><trkpt lat="36.1757817" lon="-5.4534933"><ele>2.5</ele><time>2026-04-25T12:28:31.064Z</time></trkpt><trkpt lat="36.1756217" lon="-5.453755"><ele>3.0</ele><time>2026-04-25T12:28:32.062Z</time></trkpt><trkpt lat="36.17546" lon="-5.4540067"><ele>4.0</ele><time>2026-04-25T12:28:33.061Z</time></trkpt><trkpt lat="36.17529" lon="-5.454245"><ele>5.0</ele><time>2026-04-25T12:28:34.061Z</time></trkpt><trkpt lat="36.175105" lon="-5.4544667"><ele>3.5</ele><time>2026-04-25T12:28:35.062Z</time></trkpt><trkpt lat="36.1749067" lon="-5.4546633"><ele>2.0</ele><time>2026-04-25T12:28:36.065Z</time></trkpt><trkpt lat="36.1746917" lon="-5.4548333"><ele>2.0</ele><time>2026-04-25T12:28:37.063Z</time></trkpt><trkpt lat="36.174465" lon="-5.454975"><ele>2.0</ele><time>2026-04-25T12:28:38.059Z</time></trkpt><trkpt lat="36.1742267" lon="-5.4550883"><ele>2.0</ele><time>2026-04-25T12:28:39.064Z</time></trkpt><trkpt lat="36.1739817" lon="-5.4551817"><ele>2.0</ele><time>2026-04-25T12:28:40.061Z</time></trkpt><trkpt lat="36.1737317" lon="-5.45527"><ele>2.0</ele><time>2026-04-25T12:28:41.06Z</time></trkpt><trkpt lat="36.1734817" lon="-5.45536"><ele>2.0</ele><time>2026-04-25T12:28:42.063Z</time></trkpt><trkpt lat="36.1732267" lon="-5.455455"><ele>3.0</ele><time>2026-04-25T12:28:43.063Z</time></trkpt><trkpt lat="36.1729733" lon="-5.4555517"><ele>4.0</ele><time>2026-04-25T12:28:44.063Z</time></trkpt><trkpt lat="36.17272" lon="-5.4556483"><ele>4.0</ele><time>2026-04-25T12:28:45.064Z</time></trkpt><trkpt lat="36.1724617" lon="-5.4557467"><ele>4.0</ele><time>2026-04-25T12:28:46.061Z</time></trkpt><trkpt lat="36.1722033" lon="-5.455845"><ele>4.5</ele><time>2026-04-25T12:28:47.062Z</time></trkpt><trkpt lat="36.1719417" lon="-5.455945"><ele>5.0</ele><time>2026-04-25T12:28:48.063Z</time></trkpt><trkpt lat="36.171675" lon="-5.45604"><ele>4.5</ele><time>2026-04-25T12:28:49.06Z</time></trkpt><trkpt lat="36.1714117" lon="-5.4561367"><ele>4.0</ele><time>2026-04-25T12:28:50.064Z</time></trkpt><trkpt lat="36.1711467" lon="-5.4562333"><ele>4.0</ele><time>2026-04-25T12:28:51.062Z</time></trkpt><trkpt lat="36.1708833" lon="-5.45633"><ele>4.0</ele><time>2026-04-25T12:28:52.06Z</time></trkpt><trkpt lat="36.1706167" lon="-5.4564267"><ele>3.5</ele><time>2026-04-25T12:28:53.061Z</time></trkpt><trkpt lat="36.1703483" lon="-5.4565217"><ele>3.0</ele><time>2026-04-25T12:28:54.068Z</time></trkpt><trkpt lat="36.1700767" lon="-5.4566133"><ele>3.0</ele><time>2026-04-25T12:28:55.059Z</time></trkpt><trkpt lat="36.169805" lon="-5.4566967"><ele>3.0</ele><time>2026-04-25T12:28:56.059Z</time></trkpt><trkpt lat="36.1695317" lon="-5.4567717"><ele>3.0</ele><time>2026-04-25T12:28:57.062Z</time></trkpt><trkpt lat="36.1692583" lon="-5.4568383"><ele>3.0</ele><time>2026-04-25T12:28:58.06Z</time></trkpt><trkpt lat="36.1689867" lon="-5.4568983"><ele>2.5</ele><time>2026-04-25T12:28:59.06Z</time></trkpt><trkpt lat="36.1687167" lon="-5.4569617"><ele>2.0</ele><time>2026-04-25T12:29:00.066Z</time></trkpt><trkpt lat="36.1684483" lon="-5.4570367"><ele>2.0</ele><time>2026-04-25T12:29:01.065Z</time></trkpt><trkpt lat="36.1681833" lon="-5.4571217"><ele>2.0</ele><time>2026-04-25T12:29:02.064Z</time></trkpt><trkpt lat="36.1679267" lon="-5.4572117"><ele>2.0</ele><time>2026-04-25T12:29:03.06Z</time></trkpt><trkpt lat="36.1676733" lon="-5.457305"><ele>2.0</ele><time>2026-04-25T12:29:04.062Z</time></trkpt><trkpt lat="36.1674267" lon="-5.4574"><ele>1.5</ele><time>2026-04-25T12:29:05.063Z</time></trkpt><trkpt lat="36.1671817" lon="-5.4574967"><ele>1.0</ele><time>2026-04-25T12:29:06.067Z</time></trkpt><trkpt lat="36.1669367" lon="-5.4575983"><ele>1.0</ele><time>2026-04-25T12:29:07.061Z</time></trkpt><trkpt lat="36.166695" lon="-5.4577017"><ele>1.0</ele><time>2026-04-25T12:29:08.067Z</time></trkpt><trkpt lat="36.1664533" lon="-5.45781"><ele>1.5</ele><time>2026-04-25T12:29:09.063Z</time></trkpt><trkpt lat="36.1662117" lon="-5.4579183"><ele>2.0</ele><time>2026-04-25T12:29:10.061Z</time></trkpt><trkpt lat="36.1659667" lon="-5.4580267"><ele>2.0</ele><time>2026-04-25T12:29:11.06Z</time></trkpt><trkpt lat="36.1657183" lon="-5.458135"><ele>2.0</ele><time>2026-04-25T12:29:12.064Z</time></trkpt><trkpt lat="36.16547" lon="-5.4582433"><ele>2.0</ele><time>2026-04-25T12:29:13.061Z</time></trkpt><trkpt lat="36.1652217" lon="-5.4583517"><ele>2.0</ele><time>2026-04-25T12:29:14.06Z</time></trkpt><trkpt lat="36.1649717" lon="-5.45846"><ele>1.5</ele><time>2026-04-25T12:29:15.062Z</time></trkpt><trkpt lat="36.16472" lon="-5.458565"><ele>1.0</ele><time>2026-04-25T12:29:16.064Z</time></trkpt><trkpt lat="36.164465" lon="-5.458665"><ele>1.0</ele><time>2026-04-25T12:29:17.064Z</time></trkpt><trkpt lat="36.16421" lon="-5.4587633"><ele>1.0</ele><time>2026-04-25T12:29:18.065Z</time></trkpt><trkpt lat="36.1639567" lon="-5.4588617"><ele>1.0</ele><time>2026-04-25T12:29:19.069Z</time></trkpt><trkpt lat="36.163705" lon="-5.45896"><ele>1.0</ele><time>2026-04-25T12:29:20.06Z</time></trkpt><trkpt lat="36.1634517" lon="-5.4590517"><ele>1.5</ele><time>2026-04-25T12:29:21.068Z</time></trkpt><trkpt lat="36.1631933" lon="-5.4591367"><ele>2.0</ele><time>2026-04-25T12:29:22.067Z</time></trkpt><trkpt lat="36.1629333" lon="-5.4592183"><ele>2.0</ele><time>2026-04-25T12:29:23.062Z</time></trkpt><trkpt lat="36.162675" lon="-5.4593017"><ele>2.0</ele><time>2026-04-25T12:29:24.065Z</time></trkpt><trkpt lat="36.1624167" lon="-5.45938"><ele>2.5</ele><time>2026-04-25T12:29:25.06Z</time></trkpt><trkpt lat="36.16216" lon="-5.4594583"><ele>3.0</ele><time>2026-04-25T12:29:26.064Z</time></trkpt><trkpt lat="36.1619083" lon="-5.459535"><ele>3.0</ele><time>2026-04-25T12:29:27.06Z</time></trkpt><trkpt lat="36.1616567" lon="-5.4595983"><ele>3.0</ele><time>2026-04-25T12:29:28.059Z</time></trkpt><trkpt lat="36.161415" lon="-5.4596367"><ele>7.0</ele><time>2026-04-25T12:29:29.059Z</time></trkpt><trkpt lat="36.1611867" lon="-5.4596517"><ele>11.0</ele><time>2026-04-25T12:29:30.064Z</time></trkpt><trkpt lat="36.160965" lon="-5.4596533"><ele>11.0</ele><time>2026-04-25T12:29:31.06Z</time></trkpt><trkpt lat="36.1607467" lon="-5.4596417"><ele>11.0</ele><time>2026-04-25T12:29:32.061Z</time></trkpt><trkpt lat="36.1605283" lon="-5.4596133"><ele>11.0</ele><time>2026-04-25T12:29:33.068Z</time></trkpt><trkpt lat="36.1603117" lon="-5.459565"><ele>11.333333333333332</ele><time>2026-04-25T12:29:34.065Z</time></trkpt><trkpt lat="36.160095" lon="-5.4594917"><ele>11.666666666666666</ele><time>2026-04-25T12:29:35.06Z</time></trkpt><trkpt lat="36.1598867" lon="-5.4593983"><ele>12.0</ele><time>2026-04-25T12:29:36.061Z</time></trkpt><trkpt lat="36.1596867" lon="-5.4592867"><ele>12.666666666666668</ele><time>2026-04-25T12:29:37.064Z</time></trkpt><trkpt lat="36.1595017" lon="-5.4591683"><ele>13.333333333333334</ele><time>2026-04-25T12:29:38.063Z</time></trkpt><trkpt lat="36.15933" lon="-5.4590517"><ele>14.0</ele><time>2026-04-25T12:29:39.058Z</time></trkpt><trkpt lat="36.159165" lon="-5.4589367"><ele>13.333333333333334</ele><time>2026-04-25T12:29:40.06Z</time></trkpt><trkpt lat="36.1590067" lon="-5.4588133"><ele>12.666666666666668</ele><time>2026-04-25T12:29:41.063Z</time></trkpt><trkpt lat="36.1588533" lon="-5.458685"><ele>12.0</ele><time>2026-04-25T12:29:42.063Z</time></trkpt><trkpt lat="36.1587" lon="-5.4585517"><ele>13.333333333333332</ele><time>2026-04-25T12:29:43.059Z</time></trkpt><trkpt lat="36.1585567" lon="-5.4584167"><ele>14.666666666666666</ele><time>2026-04-25T12:29:44.061Z</time></trkpt><trkpt lat="36.1584283" lon="-5.458285"><ele>16.0</ele><time>2026-04-25T12:29:45.06Z</time></trkpt><trkpt lat="36.15831" lon="-5.4581633"><ele>16.666666666666664</ele><time>2026-04-25T12:29:46.061Z</time></trkpt><trkpt lat="36.1581967" lon="-5.4580383"><ele>17.333333333333332</ele><time>2026-04-25T12:29:47.06Z</time></trkpt><trkpt lat="36.1580817" lon="-5.4579083"><ele>18.0</ele><time>2026-04-25T12:29:48.06Z</time></trkpt><trkpt lat="36.15797" lon="-5.4577717"><ele>19.333333333333332</ele><time>2026-04-25T12:29:49.059Z</time></trkpt><trkpt lat="36.15786" lon="-5.4576383"><ele>20.666666666666664</ele><time>2026-04-25T12:29:50.064Z</time></trkpt><trkpt lat="36.1577483" lon="-5.4575"><ele>22.0</ele><time>2026-04-25T12:29:51.059Z</time></trkpt><trkpt lat="36.1576383" lon="-5.457365"><ele>22.0</ele><time>2026-04-25T12:29:52.06Z</time></trkpt><trkpt lat="36.157535" lon="-5.45723"><ele>22.0</ele><time>2026-04-25T12:29:53.058Z</time></trkpt><trkpt lat="36.1574317" lon="-5.4570933"><ele>22.0</ele><time>2026-04-25T12:29:54.058Z</time></trkpt><trkpt lat="36.1573283" lon="-5.4569533"><ele>24.0</ele><time>2026-04-25T12:29:55.063Z</time></trkpt><trkpt lat="36.1572267" lon="-5.456815"><ele>26.0</ele><time>2026-04-25T12:29:56.061Z</time></trkpt><trkpt lat="36.1571233" lon="-5.45668"><ele>28.0</ele><time>2026-04-25T12:29:57.065Z</time></trkpt><trkpt lat="36.157025" lon="-5.4565583"><ele>30.0</ele><time>2026-04-25T12:29:58.059Z</time></trkpt><trkpt lat="36.1569317" lon="-5.4564417"><ele>30.0</ele><time>2026-04-25T12:29:59.062Z</time></trkpt><trkpt lat="36.1568417" lon="-5.4563283"><ele>30.0</ele><time>2026-04-25T12:30:00.061Z</time></trkpt><trkpt lat="36.156755" lon="-5.45622"><ele>30.0</ele><time>2026-04-25T12:30:01.062Z</time></trkpt><trkpt lat="36.15667" lon="-5.4561183"><ele>30.0</ele><time>2026-04-25T12:30:02.06Z</time></trkpt><trkpt lat="36.15659" lon="-5.45602"><ele>29.6</ele><time>2026-04-25T12:30:03.066Z</time></trkpt><trkpt lat="36.1565133" lon="-5.455925"><ele>29.2</ele><time>2026-04-25T12:30:04.061Z</time></trkpt><trkpt lat="36.1564383" lon="-5.45583"><ele>28.799999999999997</ele><time>2026-04-25T12:30:05.061Z</time></trkpt><trkpt lat="36.1563633" lon="-5.4557383"><ele>28.4</ele><time>2026-04-25T12:30:06.062Z</time></trkpt><trkpt lat="36.1562867" lon="-5.455645"><ele>28.0</ele><time>2026-04-25T12:30:07.06Z</time></trkpt><trkpt lat="36.156215" lon="-5.45555"><ele>28.0</ele><time>2026-04-25T12:30:08.061Z</time></trkpt><trkpt lat="36.1561433" lon="-5.45546"><ele>27.999999999999996</ele><time>2026-04-25T12:30:09.059Z</time></trkpt><trkpt lat="36.1560617" lon="-5.455375"><ele>27.999999999999996</ele><time>2026-04-25T12:30:10.061Z</time></trkpt><trkpt lat="36.1559867" lon="-5.4552933"><ele>28.0</ele><time>2026-04-25T12:30:11.06Z</time></trkpt><trkpt lat="36.155915" lon="-5.4552167"><ele>28.0</ele><time>2026-04-25T12:30:12.066Z</time></trkpt><trkpt lat="36.155845" lon="-5.4551467"><ele>28.000000000000004</ele><time>2026-04-25T12:30:13.062Z</time></trkpt><trkpt lat="36.1557783" lon="-5.4550867"><ele>28.0</ele><time>2026-04-25T12:30:14.063Z</time></trkpt><trkpt lat="36.1557167" lon="-5.45503"><ele>28.0</ele><time>2026-04-25T12:30:15.06Z</time></trkpt><trkpt lat="36.1556583" lon="-5.454965"><ele>28.0</ele><time>2026-04-25T12:30:16.062Z</time></trkpt><trkpt lat="36.1556083" lon="-5.4549067"><ele>28.000000000000004</ele><time>2026-04-25T12:30:17.061Z</time></trkpt><trkpt lat="36.1555783" lon="-5.4548267"><ele>28.0</ele><time>2026-04-25T12:30:18.061Z</time></trkpt><trkpt lat="36.1555367" lon="-5.4547433"><ele>28.0</ele><time>2026-04-25T12:30:19.059Z</time></trkpt><trkpt lat="36.1555167" lon="-5.454635"><ele>27.999999999999996</ele><time>2026-04-25T12:30:20.066Z</time></trkpt><trkpt lat="36.1554983" lon="-5.4545167"><ele>27.999999999999996</ele><time>2026-04-25T12:30:21.058Z</time></trkpt><trkpt lat="36.15547" lon="-5.454415"><ele>28.0</ele><time>2026-04-25T12:30:22.069Z</time></trkpt><trkpt lat="36.1554767" lon="-5.4542767"><ele>28.0</ele><time>2026-04-25T12:30:23.062Z</time></trkpt><trkpt lat="36.1554517" lon="-5.4541583"><ele>29.333333333333336</ele><time>2026-04-25T12:30:24.06Z</time></trkpt><trkpt lat="36.155475" lon="-5.4540167"><ele>30.666666666666664</ele><time>2026-04-25T12:30:25.06Z</time></trkpt><trkpt lat="36.1554583" lon="-5.45387"><ele>32.0</ele><time>2026-04-25T12:30:26.067Z</time></trkpt><trkpt lat="36.15554" lon="-5.4535783"><ele>32.0</ele><time>2026-04-25T12:30:27.06Z</time></trkpt><trkpt lat="36.1556167" lon="-5.453385"><ele>32.0</ele><time>2026-04-25T12:30:28.059Z</time></trkpt><trkpt lat="36.1556767" lon="-5.45318"><ele>32.0</ele><time>2026-04-25T12:30:29.062Z</time></trkpt><trkpt lat="36.1557217" lon="-5.4529867"><ele>30.0</ele><time>2026-04-25T12:30:30.064Z</time></trkpt><trkpt lat="36.1559767" lon="-5.4526417"><ele>28.0</ele><time>2026-04-25T12:30:31.062Z</time></trkpt><trkpt lat="36.15599" lon="-5.452445"><ele>28.0</ele><time>2026-04-25T12:30:32.061Z</time></trkpt><trkpt lat="36.1560317" lon="-5.4523517"><ele>27.999999999999996</ele><time>2026-04-25T12:30:33.062Z</time></trkpt><trkpt lat="36.1560967" lon="-5.4524083"><ele>27.999999999999996</ele><time>2026-04-25T12:30:34.059Z</time></trkpt><trkpt lat="36.1560917" lon="-5.4523"><ele>28.0</ele><time>2026-04-25T12:30:35.059Z</time></trkpt><trkpt lat="36.1560767" lon="-5.452185"><ele>28.0</ele><time>2026-04-25T12:30:36.062Z</time></trkpt><trkpt lat="36.1560633" lon="-5.4520583"><ele>27.25</ele><time>2026-04-25T12:30:37.06Z</time></trkpt><trkpt lat="36.156055" lon="-5.4519133"><ele>26.5</ele><time>2026-04-25T12:30:38.06Z</time></trkpt><trkpt lat="36.1560467" lon="-5.4517583"><ele>25.75</ele><time>2026-04-25T12:30:39.059Z</time></trkpt><trkpt lat="36.1560433" lon="-5.4515933"><ele>25.0</ele><time>2026-04-25T12:30:40.06Z</time></trkpt><trkpt lat="36.156035" lon="-5.451415"><ele>24.333333333333336</ele><time>2026-04-25T12:30:41.061Z</time></trkpt><trkpt lat="36.1560183" lon="-5.4512433"><ele>23.666666666666668</ele><time>2026-04-25T12:30:42.061Z</time></trkpt><trkpt lat="36.1560083" lon="-5.4510433"><ele>23.0</ele><time>2026-04-25T12:30:43.061Z</time></trkpt><trkpt lat="36.1560017" lon="-5.4508367"><ele>23.0</ele><time>2026-04-25T12:30:44.059Z</time></trkpt><trkpt lat="36.155995" lon="-5.45061"><ele>23.0</ele><time>2026-04-25T12:30:45.063Z</time></trkpt><trkpt lat="36.1559883" lon="-5.45037"><ele>23.0</ele><time>2026-04-25T12:30:46.06Z</time></trkpt><trkpt lat="36.1559817" lon="-5.4501167"><ele>22.333333333333336</ele><time>2026-04-25T12:30:47.063Z</time></trkpt><trkpt lat="36.1559733" lon="-5.44986"><ele>21.666666666666668</ele><time>2026-04-25T12:30:48.062Z</time></trkpt><trkpt lat="36.1559667" lon="-5.4496017"><ele>21.0</ele><time>2026-04-25T12:30:49.061Z</time></trkpt><trkpt lat="36.1559617" lon="-5.4493417"><ele>20.0</ele><time>2026-04-25T12:30:50.065Z</time></trkpt><trkpt lat="36.1559483" lon="-5.4490833"><ele>19.0</ele><time>2026-04-25T12:30:51.06Z</time></trkpt><trkpt lat="36.1559183" lon="-5.448825"><ele>18.0</ele><time>2026-04-25T12:30:52.065Z</time></trkpt><trkpt lat="36.1558767" lon="-5.44857"><ele>18.0</ele><time>2026-04-25T12:30:53.062Z</time></trkpt><trkpt lat="36.1558083" lon="-5.448325"><ele>18.0</ele><time>2026-04-25T12:30:54.061Z</time></trkpt><trkpt lat="36.1557183" lon="-5.4480967"><ele>18.0</ele><time>2026-04-25T12:30:55.061Z</time></trkpt><trkpt lat="36.1556083" lon="-5.4478833"><ele>18.0</ele><time>2026-04-25T12:30:56.064Z</time></trkpt><trkpt lat="36.1554733" lon="-5.4476883"><ele>18.0</ele><time>2026-04-25T12:30:57.062Z</time></trkpt><trkpt lat="36.1553183" lon="-5.447515"><ele>18.0</ele><time>2026-04-25T12:30:58.058Z</time></trkpt><trkpt lat="36.155145" lon="-5.4473617"><ele>18.0</ele><time>2026-04-25T12:30:59.06Z</time></trkpt><trkpt lat="36.15496" lon="-5.4472367"><ele>18.0</ele><time>2026-04-25T12:31:00.062Z</time></trkpt><trkpt lat="36.15476" lon="-5.447135"><ele>18.0</ele><time>2026-04-25T12:31:01.062Z</time></trkpt><trkpt lat="36.1545517" lon="-5.447065"><ele>18.0</ele><time>2026-04-25T12:31:02.061Z</time></trkpt><trkpt lat="36.1543383" lon="-5.44704"><ele>18.0</ele><time>2026-04-25T12:31:03.059Z</time></trkpt><trkpt lat="36.1541217" lon="-5.4470467"><ele>18.0</ele><time>2026-04-25T12:31:04.062Z</time></trkpt><trkpt lat="36.1539017" lon="-5.4470817"><ele>20.5</ele><time>2026-04-25T12:31:05.063Z</time></trkpt><trkpt lat="36.1536833" lon="-5.44715"><ele>23.0</ele><time>2026-04-25T12:31:06.059Z</time></trkpt><trkpt lat="36.1534733" lon="-5.4472617"><ele>23.0</ele><time>2026-04-25T12:31:07.06Z</time></trkpt><trkpt lat="36.1532783" lon="-5.44741"><ele>23.0</ele><time>2026-04-25T12:31:08.063Z</time></trkpt><trkpt lat="36.1530967" lon="-5.4475883"><ele>22.5</ele><time>2026-04-25T12:31:09.06Z</time></trkpt><trkpt lat="36.1529183" lon="-5.447785"><ele>22.0</ele><time>2026-04-25T12:31:10.062Z</time></trkpt><trkpt lat="36.1527383" lon="-5.44798"><ele>22.0</ele><time>2026-04-25T12:31:11.06Z</time></trkpt><trkpt lat="36.1525583" lon="-5.4481583"><ele>22.0</ele><time>2026-04-25T12:31:12.066Z</time></trkpt><trkpt lat="36.15238" lon="-5.4483183"><ele>20.666666666666664</ele><time>2026-04-25T12:31:13.061Z</time></trkpt><trkpt lat="36.1521917" lon="-5.448455"><ele>19.333333333333332</ele><time>2026-04-25T12:31:14.065Z</time></trkpt><trkpt lat="36.1519983" lon="-5.4485567"><ele>18.0</ele><time>2026-04-25T12:31:15.065Z</time></trkpt><trkpt lat="36.1518033" lon="-5.44862"><ele>18.0</ele><time>2026-04-25T12:31:16.06Z</time></trkpt><trkpt lat="36.151595" lon="-5.44865"><ele>18.0</ele><time>2026-04-25T12:31:17.064Z</time></trkpt><trkpt lat="36.1513817" lon="-5.4486517"><ele>18.0</ele><time>2026-04-25T12:31:18.059Z</time></trkpt><trkpt lat="36.1511767" lon="-5.448625"><ele>17.0</ele><time>2026-04-25T12:31:19.063Z</time></trkpt><trkpt lat="36.1509867" lon="-5.4485683"><ele>16.0</ele><time>2026-04-25T12:31:20.059Z</time></trkpt><trkpt lat="36.1508117" lon="-5.4484833"><ele>15.0</ele><time>2026-04-25T12:31:21.064Z</time></trkpt><trkpt lat="36.1506517" lon="-5.4483833"><ele>15.0</ele><time>2026-04-25T12:31:22.059Z</time></trkpt><trkpt lat="36.15051" lon="-5.4482817"><ele>15.0</ele><time>2026-04-25T12:31:23.057Z</time></trkpt><trkpt lat="36.150385" lon="-5.4481717"><ele>15.0</ele><time>2026-04-25T12:31:24.062Z</time></trkpt><trkpt lat="36.150275" lon="-5.4480667"><ele>15.0</ele><time>2026-04-25T12:31:25.058Z</time></trkpt><trkpt lat="36.1501867" lon="-5.44797"><ele>15.0</ele><time>2026-04-25T12:31:26.058Z</time></trkpt><trkpt lat="36.1501167" lon="-5.4478733"><ele>15.0</ele><time>2026-04-25T12:31:27.061Z</time></trkpt><trkpt lat="36.150065" lon="-5.4477867"><ele>15.0</ele><time>2026-04-25T12:31:28.058Z</time></trkpt><trkpt lat="36.1500183" lon="-5.4477067"><ele>15.0</ele><time>2026-04-25T12:31:29.063Z</time></trkpt><trkpt lat="36.1499733" lon="-5.4476133"><ele>14.833333333333334</ele><time>2026-04-25T12:31:30.06Z</time></trkpt><trkpt lat="36.1499317" lon="-5.44752"><ele>14.666666666666668</ele><time>2026-04-25T12:31:31.065Z</time></trkpt><trkpt lat="36.1498967" lon="-5.4474333"><ele>14.5</ele><time>2026-04-25T12:31:32.061Z</time></trkpt><trkpt lat="36.1498667" lon="-5.4473517"><ele>14.333333333333334</ele><time>2026-04-25T12:31:33.062Z</time></trkpt><trkpt lat="36.1498467" lon="-5.4472767"><ele>14.166666666666668</ele><time>2026-04-25T12:31:34.062Z</time></trkpt><trkpt lat="36.1498133" lon="-5.4471683"><ele>14.0</ele><time>2026-04-25T12:31:36.064Z</time></trkpt><trkpt lat="36.14979" lon="-5.4470867"><ele>14.000000000000002</ele><time>2026-04-25T12:31:38.062Z</time></trkpt><trkpt lat="36.1497567" lon="-5.4470017"><ele>14.0</ele><time>2026-04-25T12:31:41.063Z</time></trkpt><trkpt lat="36.1497217" lon="-5.4469017"><ele>14.0</ele><time>2026-04-25T12:31:43.062Z</time></trkpt><trkpt lat="36.1497" lon="-5.4468283"><ele>14.0</ele><time>2026-04-25T12:31:44.059Z</time></trkpt><trkpt lat="36.1496783" lon="-5.4467467"><ele>14.000000000000002</ele><time>2026-04-25T12:31:45.059Z</time></trkpt><trkpt lat="36.14966" lon="-5.4466517"><ele>14.0</ele><time>2026-04-25T12:31:46.061Z</time></trkpt><trkpt lat="36.149645" lon="-5.44655"><ele>14.0</ele><time>2026-04-25T12:31:47.058Z</time></trkpt><trkpt lat="36.14963" lon="-5.4464367"><ele>13.999999999999998</ele><time>2026-04-25T12:31:48.062Z</time></trkpt><trkpt lat="36.1496017" lon="-5.4463167"><ele>13.999999999999998</ele><time>2026-04-25T12:31:49.063Z</time></trkpt><trkpt lat="36.1495717" lon="-5.4461867"><ele>14.0</ele><time>2026-04-25T12:31:50.062Z</time></trkpt><trkpt lat="36.1495417" lon="-5.44605"><ele>14.0</ele><time>2026-04-25T12:31:51.06Z</time></trkpt><trkpt lat="36.1495133" lon="-5.4459083"><ele>13.0</ele><time>2026-04-25T12:31:52.058Z</time></trkpt><trkpt lat="36.149485" lon="-5.445765"><ele>12.0</ele><time>2026-04-25T12:31:53.058Z</time></trkpt><trkpt lat="36.1494567" lon="-5.4456217"><ele>11.0</ele><time>2026-04-25T12:31:54.059Z</time></trkpt><trkpt lat="36.1494283" lon="-5.4454767"><ele>10.0</ele><time>2026-04-25T12:31:55.065Z</time></trkpt><trkpt lat="36.149395" lon="-5.44533"><ele>7.75</ele><time>2026-04-25T12:31:56.063Z</time></trkpt><trkpt lat="36.14936" lon="-5.4451783"><ele>5.5</ele><time>2026-04-25T12:31:57.06Z</time></trkpt><trkpt lat="36.1493217" lon="-5.4450283"><ele>3.25</ele><time>2026-04-25T12:31:58.061Z</time></trkpt><trkpt lat="36.1492833" lon="-5.444875"><ele>1.0</ele><time>2026-04-25T12:31:59.059Z</time></trkpt><trkpt lat="36.1492467" lon="-5.444715"><ele>0.75</ele><time>2026-04-25T12:32:00.059Z</time></trkpt><trkpt lat="36.1492083" lon="-5.4445533"><ele>0.5</ele><time>2026-04-25T12:32:01.06Z</time></trkpt><trkpt lat="36.1491683" lon="-5.4443883"><ele>0.25</ele><time>2026-04-25T12:32:02.064Z</time></trkpt><trkpt lat="36.1491267" lon="-5.44422"><ele>0.0</ele><time>2026-04-25T12:32:03.063Z</time></trkpt><trkpt lat="36.14908" lon="-5.4440483"><ele>0.0</ele><time>2026-04-25T12:32:04.061Z</time></trkpt><trkpt lat="36.1490317" lon="-5.4438717"><ele>0.0</ele><time>2026-04-25T12:32:05.063Z</time></trkpt><trkpt lat="36.1489767" lon="-5.443695"><ele>0.0</ele><time>2026-04-25T12:32:06.061Z</time></trkpt><trkpt lat="36.1489167" lon="-5.44352"><ele>0.0</ele><time>2026-04-25T12:32:07.063Z</time></trkpt><trkpt lat="36.14885" lon="-5.4433483"><ele>0.0</ele><time>2026-04-25T12:32:08.062Z</time></trkpt><trkpt lat="36.1487733" lon="-5.4431783"><ele>0.0</ele><time>2026-04-25T12:32:09.061Z</time></trkpt><trkpt lat="36.1486933" lon="-5.4430133"><ele>0.0</ele><time>2026-04-25T12:32:10.06Z</time></trkpt><trkpt lat="36.148605" lon="-5.44285"><ele>0.0</ele><time>2026-04-25T12:32:11.066Z</time></trkpt><trkpt lat="36.1485117" lon="-5.44269"><ele>0.0</ele><time>2026-04-25T12:32:12.06Z</time></trkpt><trkpt lat="36.14841" lon="-5.4425333"><ele>0.0</ele><time>2026-04-25T12:32:13.062Z</time></trkpt><trkpt lat="36.1483033" lon="-5.44238"><ele>0.0</ele><time>2026-04-25T12:32:14.06Z</time></trkpt><trkpt lat="36.14819" lon="-5.4422317"><ele>0.0</ele><time>2026-04-25T12:32:15.058Z</time></trkpt><trkpt lat="36.1480683" lon="-5.4420867"><ele>0.0</ele><time>2026-04-25T12:32:16.059Z</time></trkpt><trkpt lat="36.1479433" lon="-5.441945"><ele>0.0</ele><time>2026-04-25T12:32:17.062Z</time></trkpt><trkpt lat="36.1478133" lon="-5.44181"><ele>0.0</ele><time>2026-04-25T12:32:18.059Z</time></trkpt><trkpt lat="36.147675" lon="-5.4416867"><ele>0.0</ele><time>2026-04-25T12:32:19.063Z</time></trkpt><trkpt lat="36.14753" lon="-5.4415717"><ele>0.0</ele><time>2026-04-25T12:32:20.065Z</time></trkpt><trkpt lat="36.1473783" lon="-5.4414683"><ele>0.0</ele><time>2026-04-25T12:32:21.059Z</time></trkpt><trkpt lat="36.147225" lon="-5.4413717"><ele>0.0</ele><time>2026-04-25T12:32:22.06Z</time></trkpt><trkpt lat="36.14707" lon="-5.4412867"><ele>0.0</ele><time>2026-04-25T12:32:23.06Z</time></trkpt><trkpt lat="36.14691" lon="-5.4412083"><ele>0.0</ele><time>2026-04-25T12:32:24.062Z</time></trkpt><trkpt lat="36.1467467" lon="-5.4411383"><ele>0.0</ele><time>2026-04-25T12:32:25.06Z</time></trkpt><trkpt lat="36.1465767" lon="-5.4410833"><ele>0.0</ele><time>2026-04-25T12:32:26.061Z</time></trkpt><trkpt lat="36.146405" lon="-5.441035"><ele>0.0</ele><time>2026-04-25T12:32:27.058Z</time></trkpt><trkpt lat="36.1462333" lon="-5.441"><ele>0.6666666666666666</ele><time>2026-04-25T12:32:28.065Z</time></trkpt><trkpt lat="36.1460617" lon="-5.440975"><ele>1.3333333333333333</ele><time>2026-04-25T12:32:29.061Z</time></trkpt><trkpt lat="36.145895" lon="-5.44096"><ele>2.0</ele><time>2026-04-25T12:32:30.063Z</time></trkpt><trkpt lat="36.1457367" lon="-5.4409517"><ele>1.75</ele><time>2026-04-25T12:32:31.065Z</time></trkpt><trkpt lat="36.1455867" lon="-5.44095"><ele>1.5</ele><time>2026-04-25T12:32:32.059Z</time></trkpt><trkpt lat="36.1454417" lon="-5.4409517"><ele>1.25</ele><time>2026-04-25T12:32:33.06Z</time></trkpt><trkpt lat="36.1452967" lon="-5.440955"><ele>1.0</ele><time>2026-04-25T12:32:34.06Z</time></trkpt><trkpt lat="36.1451517" lon="-5.4409583"><ele>1.0</ele><time>2026-04-25T12:32:35.06Z</time></trkpt><trkpt lat="36.14501" lon="-5.440965"><ele>1.0</ele><time>2026-04-25T12:32:36.066Z</time></trkpt><trkpt lat="36.1448717" lon="-5.440975"><ele>1.0</ele><time>2026-04-25T12:32:37.064Z</time></trkpt><trkpt lat="36.144735" lon="-5.4409817"><ele>1.0</ele><time>2026-04-25T12:32:38.06Z</time></trkpt><trkpt lat="36.1445933" lon="-5.4409867"><ele>1.25</ele><time>2026-04-25T12:32:39.059Z</time></trkpt><trkpt lat="36.14445" lon="-5.4409883"><ele>1.5</ele><time>2026-04-25T12:32:40.059Z</time></trkpt><trkpt lat="36.1443083" lon="-5.440995"><ele>1.75</ele><time>2026-04-25T12:32:41.057Z</time></trkpt><trkpt lat="36.144165" lon="-5.4410033"><ele>2.0</ele><time>2026-04-25T12:32:42.057Z</time></trkpt><trkpt lat="36.1440217" lon="-5.4410083"><ele>2.333333333333333</ele><time>2026-04-25T12:32:43.06Z</time></trkpt><trkpt lat="36.1438717" lon="-5.441015"><ele>2.6666666666666665</ele><time>2026-04-25T12:32:44.059Z</time></trkpt><trkpt lat="36.1437183" lon="-5.4410217"><ele>3.0</ele><time>2026-04-25T12:32:45.057Z</time></trkpt><trkpt lat="36.143565" lon="-5.4410267"><ele>3.0</ele><time>2026-04-25T12:32:46.058Z</time></trkpt><trkpt lat="36.1434117" lon="-5.4410317"><ele>3.0</ele><time>2026-04-25T12:32:47.063Z</time></trkpt><trkpt lat="36.1432617" lon="-5.4410383"><ele>3.0</ele><time>2026-04-25T12:32:48.062Z</time></trkpt><trkpt lat="36.1431117" lon="-5.441045"><ele>3.0</ele><time>2026-04-25T12:32:49.059Z</time></trkpt><trkpt lat="36.14296" lon="-5.44105"><ele>3.0</ele><time>2026-04-25T12:32:50.06Z</time></trkpt><trkpt lat="36.1428083" lon="-5.4410533"><ele>3.0</ele><time>2026-04-25T12:32:51.061Z</time></trkpt><trkpt lat="36.142655" lon="-5.4410567"><ele>3.0</ele><time>2026-04-25T12:32:52.059Z</time></trkpt><trkpt lat="36.1425033" lon="-5.44106"><ele>3.0</ele><time>2026-04-25T12:32:53.062Z</time></trkpt><trkpt lat="36.142355" lon="-5.4410633"><ele>3.0</ele><time>2026-04-25T12:32:54.062Z</time></trkpt><trkpt lat="36.142205" lon="-5.4410733"><ele>2.0</ele><time>2026-04-25T12:32:55.062Z</time></trkpt><trkpt lat="36.142055" lon="-5.4410833"><ele>1.0</ele><time>2026-04-25T12:32:56.062Z</time></trkpt><trkpt lat="36.1419017" lon="-5.44109"><ele>0.0</ele><time>2026-04-25T12:32:57.064Z</time></trkpt><trkpt lat="36.1417517" lon="-5.4411017"><ele>0.0</ele><time>2026-04-25T12:32:58.061Z</time></trkpt><trkpt lat="36.1416033" lon="-5.4411133"><ele>0.0</ele><time>2026-04-25T12:32:59.061Z</time></trkpt><trkpt lat="36.1414533" lon="-5.4411217"><ele>0.0</ele><time>2026-04-25T12:33:00.063Z</time></trkpt><trkpt lat="36.1413083" lon="-5.44113"><ele>0.0</ele><time>2026-04-25T12:33:01.064Z</time></trkpt><trkpt lat="36.1411667" lon="-5.4411417"><ele>0.5</ele><time>2026-04-25T12:33:02.063Z</time></trkpt><trkpt lat="36.1410233" lon="-5.4411483"><ele>1.0</ele><time>2026-04-25T12:33:03.061Z</time></trkpt><trkpt lat="36.1408817" lon="-5.4411533"><ele>1.5</ele><time>2026-04-25T12:33:04.059Z</time></trkpt><trkpt lat="36.140745" lon="-5.44116"><ele>2.0</ele><time>2026-04-25T12:33:05.06Z</time></trkpt><trkpt lat="36.1406133" lon="-5.441165"><ele>2.25</ele><time>2026-04-25T12:33:06.063Z</time></trkpt><trkpt lat="36.1404817" lon="-5.44117"><ele>2.5</ele><time>2026-04-25T12:33:07.061Z</time></trkpt><trkpt lat="36.1403533" lon="-5.441175"><ele>2.75</ele><time>2026-04-25T12:33:08.06Z</time></trkpt><trkpt lat="36.1402267" lon="-5.44118"><ele>3.0</ele><time>2026-04-25T12:33:09.059Z</time></trkpt><trkpt lat="36.140105" lon="-5.441185"><ele>3.0</ele><time>2026-04-25T12:33:10.06Z</time></trkpt><trkpt lat="36.1399817" lon="-5.4411883"><ele>3.0</ele><time>2026-04-25T12:33:11.059Z</time></trkpt><trkpt lat="36.1398633" lon="-5.441195"><ele>3.0</ele><time>2026-04-25T12:33:12.061Z</time></trkpt><trkpt lat="36.1397467" lon="-5.4412"><ele>3.0</ele><time>2026-04-25T12:33:13.064Z</time></trkpt><trkpt lat="36.1396333" lon="-5.4412033"><ele>3.0</ele><time>2026-04-25T12:33:14.061Z</time></trkpt><trkpt lat="36.1395217" lon="-5.441205"><ele>3.0</ele><time>2026-04-25T12:33:15.058Z</time></trkpt><trkpt lat="36.1394133" lon="-5.4412067"><ele>3.0</ele><time>2026-04-25T12:33:16.063Z</time></trkpt><trkpt lat="36.13931" lon="-5.44121"><ele>3.0</ele><time>2026-04-25T12:33:17.061Z</time></trkpt><trkpt lat="36.13921" lon="-5.4412167"><ele>3.0</ele><time>2026-04-25T12:33:18.057Z</time></trkpt><trkpt lat="36.1391067" lon="-5.4412217"><ele>3.2</ele><time>2026-04-25T12:33:19.06Z</time></trkpt><trkpt lat="36.1390067" lon="-5.4412317"><ele>3.4</ele><time>2026-04-25T12:33:20.06Z</time></trkpt><trkpt lat="36.1389133" lon="-5.441245"><ele>3.6000000000000005</ele><time>2026-04-25T12:33:21.061Z</time></trkpt><trkpt lat="36.1388233" lon="-5.441265"><ele>3.8000000000000003</ele><time>2026-04-25T12:33:22.06Z</time></trkpt><trkpt lat="36.1387317" lon="-5.44129"><ele>4.0</ele><time>2026-04-25T12:33:23.059Z</time></trkpt><trkpt lat="36.138645" lon="-5.441315"><ele>3.9999999999999996</ele><time>2026-04-25T12:33:24.061Z</time></trkpt><trkpt lat="36.1385633" lon="-5.4413333"><ele>4.0</ele><time>2026-04-25T12:33:25.06Z</time></trkpt><trkpt lat="36.138485" lon="-5.4413367"><ele>4.0</ele><time>2026-04-25T12:33:26.06Z</time></trkpt><trkpt lat="36.1384033" lon="-5.44132"><ele>4.0</ele><time>2026-04-25T12:33:27.063Z</time></trkpt><trkpt lat="36.1383133" lon="-5.4412967"><ele>3.9999999999999996</ele><time>2026-04-25T12:33:28.06Z</time></trkpt><trkpt lat="36.138215" lon="-5.4412733"><ele>4.0</ele><time>2026-04-25T12:33:29.059Z</time></trkpt><trkpt lat="36.1381067" lon="-5.4412517"><ele>3.25</ele><time>2026-04-25T12:33:30.061Z</time></trkpt><trkpt lat="36.13799" lon="-5.4412267"><ele>2.5</ele><time>2026-04-25T12:33:31.062Z</time></trkpt><trkpt lat="36.1378717" lon="-5.4412033"><ele>1.75</ele><time>2026-04-25T12:33:32.061Z</time></trkpt><trkpt lat="36.13775" lon="-5.4411833"><ele>1.0</ele><time>2026-04-25T12:33:33.059Z</time></trkpt><trkpt lat="36.137625" lon="-5.4411733"><ele>1.0</ele><time>2026-04-25T12:33:34.062Z</time></trkpt><trkpt lat="36.1374983" lon="-5.4411717"><ele>1.0</ele><time>2026-04-25T12:33:35.062Z</time></trkpt><trkpt lat="36.1373717" lon="-5.441175"><ele>1.0</ele><time>2026-04-25T12:33:36.058Z</time></trkpt><trkpt lat="36.1372467" lon="-5.44118"><ele>1.0</ele><time>2026-04-25T12:33:37.068Z</time></trkpt><trkpt lat="36.1371233" lon="-5.4411867"><ele>2.0</ele><time>2026-04-25T12:33:38.06Z</time></trkpt><trkpt lat="36.1369983" lon="-5.4411933"><ele>2.0</ele><time>2026-04-25T12:33:39.06Z</time></trkpt></trkseg></trk></gpx>